<?xml version="1.0" encoding="UTF-8"?>
<TrainingCenterDatabase xmlns="http://www.garmin.com/xmlschemas/TrainingCenterDatabase/v2" xmlns:xsi="http://www.w3.org/2001/XMLSchema-instance" xsi:schemaLocation="http://www.garmin.com/xmlschemas/TrainingCenterDatabase/v2 http://www.garmin.com/xmlschemas/TrainingCenterDatabasev2.xsd">
  <Activities>
    <Activity Sport="Other">
      <Id>2019-08-01T07:29:39.000Z</Id>
      <Lap StartTime="2019-08-01T07:29:39.000Z">
        <TotalTimeSeconds>55917</TotalTimeSeconds>
        <DistanceMeters>182870</DistanceMeters>
        <Track>
          <Trackpoint>
            <Time>2019-08-01T07:29:39.000Z</Time>
            <Position>
              <LatitudeDegrees>40.4089746437966823577880859375</LatitudeDegrees>
              <LongitudeDegrees>-3.71320565231144428253173828125</LongitudeDegrees>
            </Position>
            <AltitudeMeters>679</AltitudeMeters>
            <DistanceMeters>0</DistanceMeters>
          </Trackpoint>
          <Trackpoint>
            <Time>2019-08-01T07:29:40.000Z</Time>
            <Position>
              <LatitudeDegrees>40.409004651010036468505859375</LatitudeDegrees>
              <LongitudeDegrees>-3.7132224999368190765380859375</LongitudeDegrees>
            </Position>
            <AltitudeMeters>679</AltitudeMeters>
            <DistanceMeters>3.6334517694696</DistanceMeters>
          </Trackpoint>
          <Trackpoint>
            <Time>2019-08-01T07:29:41.000Z</Time>
            <Position>
              <LatitudeDegrees>40.40903155691921710968017578125</LatitudeDegrees>
              <LongitudeDegrees>-3.71323482133448123931884765625</LongitudeDegrees>
            </Position>
            <AltitudeMeters>679.4000244140625</AltitudeMeters>
            <DistanceMeters>6.8051240663132</DistanceMeters>
          </Trackpoint>
          <Trackpoint>
            <Time>2019-08-01T07:29:42.000Z</Time>
            <Position>
              <LatitudeDegrees>40.40905972011387348175048828125</LatitudeDegrees>
              <LongitudeDegrees>-3.7132461369037628173828125</LongitudeDegrees>
            </Position>
            <AltitudeMeters>679</AltitudeMeters>
            <DistanceMeters>10.083201394307</DistanceMeters>
          </Trackpoint>
          <Trackpoint>
            <Time>2019-08-01T07:29:43.000Z</Time>
            <Position>
              <LatitudeDegrees>40.40909140370786190032958984375</LatitudeDegrees>
              <LongitudeDegrees>-3.713261224329471588134765625</LongitudeDegrees>
            </Position>
            <AltitudeMeters>679.4000244140625</AltitudeMeters>
            <DistanceMeters>13.834049178433</DistanceMeters>
          </Trackpoint>
          <Trackpoint>
            <Time>2019-08-01T07:29:58.000Z</Time>
            <Position>
              <LatitudeDegrees>40.409632623195648193359375</LatitudeDegrees>
              <LongitudeDegrees>-3.713505975902080535888671875</LongitudeDegrees>
            </Position>
            <AltitudeMeters>680.4000244140625</AltitudeMeters>
            <DistanceMeters>77.544057663227</DistanceMeters>
          </Trackpoint>
          <Trackpoint>
            <Time>2019-08-01T07:30:16.000Z</Time>
            <Position>
              <LatitudeDegrees>40.41012472473084926605224609375</LatitudeDegrees>
              <LongitudeDegrees>-3.71370135806500911712646484375</LongitudeDegrees>
            </Position>
            <AltitudeMeters>681.5999755859375</AltitudeMeters>
            <DistanceMeters>134.76410788295</DistanceMeters>
          </Trackpoint>
          <Trackpoint>
            <Time>2019-08-01T07:30:18.000Z</Time>
            <Position>
              <LatitudeDegrees>40.41020183824002742767333984375</LatitudeDegrees>
              <LongitudeDegrees>-3.71371191926300525665283203125</LongitudeDegrees>
            </Position>
            <AltitudeMeters>681.5999755859375</AltitudeMeters>
            <DistanceMeters>143.39324517221</DistanceMeters>
          </Trackpoint>
          <Trackpoint>
            <Time>2019-08-01T07:30:23.000Z</Time>
            <Position>
              <LatitudeDegrees>40.4104632697999477386474609375</LatitudeDegrees>
              <LongitudeDegrees>-3.713644109666347503662109375</LongitudeDegrees>
            </Position>
            <AltitudeMeters>682</AltitudeMeters>
            <DistanceMeters>173.05299933665</DistanceMeters>
          </Trackpoint>
          <Trackpoint>
            <Time>2019-08-01T07:30:27.000Z</Time>
            <Position>
              <LatitudeDegrees>40.4106714762747287750244140625</LatitudeDegrees>
              <LongitudeDegrees>-3.71368962340056896209716796875</LongitudeDegrees>
            </Position>
            <AltitudeMeters>682</AltitudeMeters>
            <DistanceMeters>196.54555586211</DistanceMeters>
          </Trackpoint>
          <Trackpoint>
            <Time>2019-08-01T07:30:34.000Z</Time>
            <Position>
              <LatitudeDegrees>40.4110533557832241058349609375</LatitudeDegrees>
              <LongitudeDegrees>-3.7138013541698455810546875</LongitudeDegrees>
            </Position>
            <AltitudeMeters>682.4000244140625</AltitudeMeters>
            <DistanceMeters>240.09133387273</DistanceMeters>
          </Trackpoint>
          <Trackpoint>
            <Time>2019-08-01T07:30:40.000Z</Time>
            <Position>
              <LatitudeDegrees>40.41131361387670040130615234375</LatitudeDegrees>
              <LongitudeDegrees>-3.71375734917819499969482421875</LongitudeDegrees>
            </Position>
            <AltitudeMeters>682.79998779296875</AltitudeMeters>
            <DistanceMeters>269.29748187363</DistanceMeters>
          </Trackpoint>
          <Trackpoint>
            <Time>2019-08-01T07:30:46.000Z</Time>
            <Position>
              <LatitudeDegrees>40.41158669628202915191650390625</LatitudeDegrees>
              <LongitudeDegrees>-3.71373631060123443603515625</LongitudeDegrees>
            </Position>
            <AltitudeMeters>683.79998779296875</AltitudeMeters>
            <DistanceMeters>299.7443140173</DistanceMeters>
          </Trackpoint>
          <Trackpoint>
            <Time>2019-08-01T07:30:57.000Z</Time>
            <Position>
              <LatitudeDegrees>40.41216320358216762542724609375</LatitudeDegrees>
              <LongitudeDegrees>-3.713721893727779388427734375</LongitudeDegrees>
            </Position>
            <AltitudeMeters>684.79998779296875</AltitudeMeters>
            <DistanceMeters>363.92232059124</DistanceMeters>
          </Trackpoint>
          <Trackpoint>
            <Time>2019-08-01T07:31:02.000Z</Time>
            <Position>
              <LatitudeDegrees>40.412474758923053741455078125</LatitudeDegrees>
              <LongitudeDegrees>-3.7137210555374622344970703125</LongitudeDegrees>
            </Position>
            <AltitudeMeters>685</AltitudeMeters>
            <DistanceMeters>398.59899963507</DistanceMeters>
          </Trackpoint>
          <Trackpoint>
            <Time>2019-08-01T07:31:13.000Z</Time>
            <Position>
              <LatitudeDegrees>40.4127910919487476348876953125</LatitudeDegrees>
              <LongitudeDegrees>-3.7137200497090816497802734375</LongitudeDegrees>
            </Position>
            <AltitudeMeters>686</AltitudeMeters>
            <DistanceMeters>433.8076476385</DistanceMeters>
          </Trackpoint>
          <Trackpoint>
            <Time>2019-08-01T07:31:17.000Z</Time>
            <Position>
              <LatitudeDegrees>40.412817411124706268310546875</LatitudeDegrees>
              <LongitudeDegrees>-3.71372826397418975830078125</LongitudeDegrees>
            </Position>
            <AltitudeMeters>686.20001220703125</AltitudeMeters>
            <DistanceMeters>436.81866021731</DistanceMeters>
          </Trackpoint>
          <Trackpoint>
            <Time>2019-08-01T07:31:34.000Z</Time>
            <Position>
              <LatitudeDegrees>40.41286527179181575775146484375</LatitudeDegrees>
              <LongitudeDegrees>-3.71372616849839687347412109375</LongitudeDegrees>
            </Position>
            <AltitudeMeters>687</AltitudeMeters>
            <DistanceMeters>442.14778682645</DistanceMeters>
          </Trackpoint>
          <Trackpoint>
            <Time>2019-08-01T07:31:39.000Z</Time>
            <Position>
              <LatitudeDegrees>40.41304330341517925262451171875</LatitudeDegrees>
              <LongitudeDegrees>-3.71371342800557613372802734375</LongitudeDegrees>
            </Position>
            <AltitudeMeters>686.79998779296875</AltitudeMeters>
            <DistanceMeters>461.99267770229</DistanceMeters>
          </Trackpoint>
          <Trackpoint>
            <Time>2019-08-01T07:31:47.000Z</Time>
            <Position>
              <LatitudeDegrees>40.41342794895172119140625</LatitudeDegrees>
              <LongitudeDegrees>-3.71367269195616245269775390625</LongitudeDegrees>
            </Position>
            <AltitudeMeters>688</AltitudeMeters>
            <DistanceMeters>504.94349116252</DistanceMeters>
          </Trackpoint>
          <Trackpoint>
            <Time>2019-08-01T07:31:59.000Z</Time>
            <Position>
              <LatitudeDegrees>40.4139890335500240325927734375</LatitudeDegrees>
              <LongitudeDegrees>-3.7136087380349636077880859375</LongitudeDegrees>
            </Position>
            <AltitudeMeters>687.5999755859375</AltitudeMeters>
            <DistanceMeters>567.62807055753</DistanceMeters>
          </Trackpoint>
          <Trackpoint>
            <Time>2019-08-01T07:32:03.000Z</Time>
            <Position>
              <LatitudeDegrees>40.41416346095502376556396484375</LatitudeDegrees>
              <LongitudeDegrees>-3.713581077754497528076171875</LongitudeDegrees>
            </Position>
            <AltitudeMeters>686.4000244140625</AltitudeMeters>
            <DistanceMeters>587.1832662162</DistanceMeters>
          </Trackpoint>
          <Trackpoint>
            <Time>2019-08-01T07:32:16.000Z</Time>
            <Position>
              <LatitudeDegrees>40.4147247970104217529296875</LatitudeDegrees>
              <LongitudeDegrees>-3.71349566616117954254150390625</LongitudeDegrees>
            </Position>
            <AltitudeMeters>685.79998779296875</AltitudeMeters>
            <DistanceMeters>650.07889220318</DistanceMeters>
          </Trackpoint>
          <Trackpoint>
            <Time>2019-08-01T07:32:23.000Z</Time>
            <Position>
              <LatitudeDegrees>40.41483602486550807952880859375</LatitudeDegrees>
              <LongitudeDegrees>-3.71346549130976200103759765625</LongitudeDegrees>
            </Position>
            <AltitudeMeters>686.4000244140625</AltitudeMeters>
            <DistanceMeters>662.71994567005</DistanceMeters>
          </Trackpoint>
          <Trackpoint>
            <Time>2019-08-01T07:32:54.000Z</Time>
            <Position>
              <LatitudeDegrees>40.4148845560848712921142578125</LatitudeDegrees>
              <LongitudeDegrees>-3.71346364729106426239013671875</LongitudeDegrees>
            </Position>
            <AltitudeMeters>687</AltitudeMeters>
            <DistanceMeters>668.1247858431</DistanceMeters>
          </Trackpoint>
          <Trackpoint>
            <Time>2019-08-01T07:32:58.000Z</Time>
            <Position>
              <LatitudeDegrees>40.41501204483211040496826171875</LatitudeDegrees>
              <LongitudeDegrees>-3.71343950740993022918701171875</LongitudeDegrees>
            </Position>
            <AltitudeMeters>687.5999755859375</AltitudeMeters>
            <DistanceMeters>682.46091293044</DistanceMeters>
          </Trackpoint>
          <Trackpoint>
            <Time>2019-08-01T07:33:00.000Z</Time>
            <Position>
              <LatitudeDegrees>40.41509636677801609039306640625</LatitudeDegrees>
              <LongitudeDegrees>-3.7134441174566745758056640625</LongitudeDegrees>
            </Position>
            <AltitudeMeters>687.79998779296875</AltitudeMeters>
            <DistanceMeters>691.85462928822</DistanceMeters>
          </Trackpoint>
          <Trackpoint>
            <Time>2019-08-01T07:33:11.000Z</Time>
            <Position>
              <LatitudeDegrees>40.415566675364971160888671875</LatitudeDegrees>
              <LongitudeDegrees>-3.71335552074015140533447265625</LongitudeDegrees>
            </Position>
            <AltitudeMeters>686.5999755859375</AltitudeMeters>
            <DistanceMeters>744.7366329737</DistanceMeters>
          </Trackpoint>
          <Trackpoint>
            <Time>2019-08-01T07:33:22.000Z</Time>
            <Position>
              <LatitudeDegrees>40.4161113314330577850341796875</LatitudeDegrees>
              <LongitudeDegrees>-3.7132965959608554840087890625</LongitudeDegrees>
            </Position>
            <AltitudeMeters>687.4000244140625</AltitudeMeters>
            <DistanceMeters>805.56323209988</DistanceMeters>
          </Trackpoint>
          <Trackpoint>
            <Time>2019-08-01T07:33:33.000Z</Time>
            <Position>
              <LatitudeDegrees>40.41656948626041412353515625</LatitudeDegrees>
              <LongitudeDegrees>-3.7132996134459972381591796875</LongitudeDegrees>
            </Position>
            <AltitudeMeters>688.5999755859375</AltitudeMeters>
            <DistanceMeters>856.55743935651</DistanceMeters>
          </Trackpoint>
          <Trackpoint>
            <Time>2019-08-01T07:33:38.000Z</Time>
            <Position>
              <LatitudeDegrees>40.416793785989284515380859375</LatitudeDegrees>
              <LongitudeDegrees>-3.71327899396419525146484375</LongitudeDegrees>
            </Position>
            <AltitudeMeters>689.79998779296875</AltitudeMeters>
            <DistanceMeters>881.58358652304</DistanceMeters>
          </Trackpoint>
          <Trackpoint>
            <Time>2019-08-01T07:33:43.000Z</Time>
            <Position>
              <LatitudeDegrees>40.4170252941548824310302734375</LatitudeDegrees>
              <LongitudeDegrees>-3.7132595479488372802734375</LongitudeDegrees>
            </Position>
            <AltitudeMeters>690.79998779296875</AltitudeMeters>
            <DistanceMeters>907.40358814397</DistanceMeters>
          </Trackpoint>
          <Trackpoint>
            <Time>2019-08-01T07:33:44.000Z</Time>
            <Position>
              <LatitudeDegrees>40.4170658625662326812744140625</LatitudeDegrees>
              <LongitudeDegrees>-3.71324538253247737884521484375</LongitudeDegrees>
            </Position>
            <AltitudeMeters>691</AltitudeMeters>
            <DistanceMeters>912.0744194071</DistanceMeters>
          </Trackpoint>
          <Trackpoint>
            <Time>2019-08-01T07:33:47.000Z</Time>
            <Position>
              <LatitudeDegrees>40.41714272461831569671630859375</LatitudeDegrees>
              <LongitudeDegrees>-3.71312585659325122833251953125</LongitudeDegrees>
            </Position>
            <AltitudeMeters>692</AltitudeMeters>
            <DistanceMeters>925.33226380133</DistanceMeters>
          </Trackpoint>
          <Trackpoint>
            <Time>2019-08-01T07:33:50.000Z</Time>
            <Position>
              <LatitudeDegrees>40.4171389527618885040283203125</LatitudeDegrees>
              <LongitudeDegrees>-3.7129723839461803436279296875</LongitudeDegrees>
            </Position>
            <AltitudeMeters>692.4000244140625</AltitudeMeters>
            <DistanceMeters>938.34433255784</DistanceMeters>
          </Trackpoint>
          <Trackpoint>
            <Time>2019-08-01T07:34:05.000Z</Time>
            <Position>
              <LatitudeDegrees>40.41709176264703273773193359375</LatitudeDegrees>
              <LongitudeDegrees>-3.71224173344671726226806640625</LongitudeDegrees>
            </Position>
            <AltitudeMeters>692.4000244140625</AltitudeMeters>
            <DistanceMeters>1000.4813412187</DistanceMeters>
          </Trackpoint>
          <Trackpoint>
            <Time>2019-08-01T07:34:22.000Z</Time>
            <Position>
              <LatitudeDegrees>40.416969470679759979248046875</LatitudeDegrees>
              <LongitudeDegrees>-3.7115712650120258331298828125</LongitudeDegrees>
            </Position>
            <AltitudeMeters>691.5999755859375</AltitudeMeters>
            <DistanceMeters>1058.904071252</DistanceMeters>
          </Trackpoint>
          <Trackpoint>
            <Time>2019-08-01T07:34:36.000Z</Time>
            <Position>
              <LatitudeDegrees>40.4166789539158344268798828125</LatitudeDegrees>
              <LongitudeDegrees>-3.71117806993424892425537109375</LongitudeDegrees>
            </Position>
            <AltitudeMeters>693.20001220703125</AltitudeMeters>
            <DistanceMeters>1105.3339332949</DistanceMeters>
          </Trackpoint>
          <Trackpoint>
            <Time>2019-08-01T07:34:50.000Z</Time>
            <Position>
              <LatitudeDegrees>40.41666395030915737152099609375</LatitudeDegrees>
              <LongitudeDegrees>-3.7107377685606479644775390625</LongitudeDegrees>
            </Position>
            <AltitudeMeters>694</AltitudeMeters>
            <DistanceMeters>1142.6824543982</DistanceMeters>
          </Trackpoint>
          <Trackpoint>
            <Time>2019-08-01T07:35:08.000Z</Time>
            <Position>
              <LatitudeDegrees>40.417145825922489166259765625</LatitudeDegrees>
              <LongitudeDegrees>-3.71082603000104427337646484375</LongitudeDegrees>
            </Position>
            <AltitudeMeters>694.20001220703125</AltitudeMeters>
            <DistanceMeters>1196.8351766308</DistanceMeters>
          </Trackpoint>
          <Trackpoint>
            <Time>2019-08-01T07:35:15.000Z</Time>
            <Position>
              <LatitudeDegrees>40.417371802031993865966796875</LatitudeDegrees>
              <LongitudeDegrees>-3.7108178995549678802490234375</LongitudeDegrees>
            </Position>
            <AltitudeMeters>695.20001220703125</AltitudeMeters>
            <DistanceMeters>1221.9962695985</DistanceMeters>
          </Trackpoint>
          <Trackpoint>
            <Time>2019-08-01T07:35:16.000Z</Time>
            <Position>
              <LatitudeDegrees>40.41739284060895442962646484375</LatitudeDegrees>
              <LongitudeDegrees>-3.7108048237860202789306640625</LongitudeDegrees>
            </Position>
            <AltitudeMeters>695.20001220703125</AltitudeMeters>
            <DistanceMeters>1224.584766599</DistanceMeters>
          </Trackpoint>
          <Trackpoint>
            <Time>2019-08-01T07:35:23.000Z</Time>
            <Position>
              <LatitudeDegrees>40.41760758496820926666259765625</LatitudeDegrees>
              <LongitudeDegrees>-3.7106100283563137054443359375</LongitudeDegrees>
            </Position>
            <AltitudeMeters>696.4000244140625</AltitudeMeters>
            <DistanceMeters>1253.6321809895</DistanceMeters>
          </Trackpoint>
          <Trackpoint>
            <Time>2019-08-01T07:35:25.000Z</Time>
            <Position>
              <LatitudeDegrees>40.41767262853682041168212890625</LatitudeDegrees>
              <LongitudeDegrees>-3.7105124630033969879150390625</LongitudeDegrees>
            </Position>
            <AltitudeMeters>696.5999755859375</AltitudeMeters>
            <DistanceMeters>1264.6208197682</DistanceMeters>
          </Trackpoint>
          <Trackpoint>
            <Time>2019-08-01T07:35:29.000Z</Time>
            <Position>
              <LatitudeDegrees>40.41774295270442962646484375</LatitudeDegrees>
              <LongitudeDegrees>-3.71027223765850067138671875</LongitudeDegrees>
            </Position>
            <AltitudeMeters>697.5999755859375</AltitudeMeters>
            <DistanceMeters>1286.4302270643</DistanceMeters>
          </Trackpoint>
          <Trackpoint>
            <Time>2019-08-01T07:35:31.000Z</Time>
            <Position>
              <LatitudeDegrees>40.4177823476493358612060546875</LatitudeDegrees>
              <LongitudeDegrees>-3.710147850215435028076171875</LongitudeDegrees>
            </Position>
            <AltitudeMeters>697.79998779296875</AltitudeMeters>
            <DistanceMeters>1297.8460959861</DistanceMeters>
          </Trackpoint>
          <Trackpoint>
            <Time>2019-08-01T07:35:41.000Z</Time>
            <Position>
              <LatitudeDegrees>40.41785485111176967620849609375</LatitudeDegrees>
              <LongitudeDegrees>-3.709510155022144317626953125</LongitudeDegrees>
            </Position>
            <AltitudeMeters>698.4000244140625</AltitudeMeters>
            <DistanceMeters>1352.4824902726</DistanceMeters>
          </Trackpoint>
          <Trackpoint>
            <Time>2019-08-01T07:35:45.000Z</Time>
            <Position>
              <LatitudeDegrees>40.417945794761180877685546875</LatitudeDegrees>
              <LongitudeDegrees>-3.709312342107295989990234375</LongitudeDegrees>
            </Position>
            <AltitudeMeters>698.4000244140625</AltitudeMeters>
            <DistanceMeters>1372.063758768</DistanceMeters>
          </Trackpoint>
          <Trackpoint>
            <Time>2019-08-01T07:35:53.000Z</Time>
            <Position>
              <LatitudeDegrees>40.41823857463896274566650390625</LatitudeDegrees>
              <LongitudeDegrees>-3.7092174589633941650390625</LongitudeDegrees>
            </Position>
            <AltitudeMeters>698.5999755859375</AltitudeMeters>
            <DistanceMeters>1405.6279691243</DistanceMeters>
          </Trackpoint>
          <Trackpoint>
            <Time>2019-08-01T07:36:06.000Z</Time>
            <Position>
              <LatitudeDegrees>40.418559350073337554931640625</LatitudeDegrees>
              <LongitudeDegrees>-3.70900112204253673553466796875</LongitudeDegrees>
            </Position>
            <AltitudeMeters>699.4000244140625</AltitudeMeters>
            <DistanceMeters>1445.7621056638</DistanceMeters>
          </Trackpoint>
          <Trackpoint>
            <Time>2019-08-01T07:36:09.000Z</Time>
            <Position>
              <LatitudeDegrees>40.41862280108034610748291015625</LatitudeDegrees>
              <LongitudeDegrees>-3.70891914702951908111572265625</LongitudeDegrees>
            </Position>
            <AltitudeMeters>699.79998779296875</AltitudeMeters>
            <DistanceMeters>1455.6681563762</DistanceMeters>
          </Trackpoint>
          <Trackpoint>
            <Time>2019-08-01T07:36:16.000Z</Time>
            <Position>
              <LatitudeDegrees>40.4187509603798389434814453125</LatitudeDegrees>
              <LongitudeDegrees>-3.70871546678245067596435546875</LongitudeDegrees>
            </Position>
            <AltitudeMeters>700.79998779296875</AltitudeMeters>
            <DistanceMeters>1478.0589992404</DistanceMeters>
          </Trackpoint>
          <Trackpoint>
            <Time>2019-08-01T07:36:27.000Z</Time>
            <Position>
              <LatitudeDegrees>40.418952964246273040771484375</LatitudeDegrees>
              <LongitudeDegrees>-3.70840231887996196746826171875</LongitudeDegrees>
            </Position>
            <AltitudeMeters>702</AltitudeMeters>
            <DistanceMeters>1512.8386468817</DistanceMeters>
          </Trackpoint>
          <Trackpoint>
            <Time>2019-08-01T07:36:41.000Z</Time>
            <Position>
              <LatitudeDegrees>40.41922210715711116790771484375</LatitudeDegrees>
              <LongitudeDegrees>-3.708122782409191131591796875</LongitudeDegrees>
            </Position>
            <AltitudeMeters>703</AltitudeMeters>
            <DistanceMeters>1551.0282743539</DistanceMeters>
          </Trackpoint>
          <Trackpoint>
            <Time>2019-08-01T07:36:52.000Z</Time>
            <Position>
              <LatitudeDegrees>40.4195277951657772064208984375</LatitudeDegrees>
              <LongitudeDegrees>-3.70802882127463817596435546875</LongitudeDegrees>
            </Position>
            <AltitudeMeters>703.5999755859375</AltitudeMeters>
            <DistanceMeters>1585.9711103346</DistanceMeters>
          </Trackpoint>
          <Trackpoint>
            <Time>2019-08-01T07:36:56.000Z</Time>
            <Position>
              <LatitudeDegrees>40.419663749635219573974609375</LatitudeDegrees>
              <LongitudeDegrees>-3.70798255316913127899169921875</LongitudeDegrees>
            </Position>
            <AltitudeMeters>704.20001220703125</AltitudeMeters>
            <DistanceMeters>1601.6029326395</DistanceMeters>
          </Trackpoint>
          <Trackpoint>
            <Time>2019-08-01T07:37:11.000Z</Time>
            <Position>
              <LatitudeDegrees>40.4201654903590679168701171875</LatitudeDegrees>
              <LongitudeDegrees>-3.7081061862409114837646484375</LongitudeDegrees>
            </Position>
            <AltitudeMeters>704.79998779296875</AltitudeMeters>
            <DistanceMeters>1658.4219154706</DistanceMeters>
          </Trackpoint>
          <Trackpoint>
            <Time>2019-08-01T07:37:13.000Z</Time>
            <Position>
              <LatitudeDegrees>40.420210920274257659912109375</LatitudeDegrees>
              <LongitudeDegrees>-3.7081534601747989654541015625</LongitudeDegrees>
            </Position>
            <AltitudeMeters>705.20001220703125</AltitudeMeters>
            <DistanceMeters>1664.8732426465</DistanceMeters>
          </Trackpoint>
          <Trackpoint>
            <Time>2019-08-01T07:37:25.000Z</Time>
            <Position>
              <LatitudeDegrees>40.42053245007991790771484375</LatitudeDegrees>
              <LongitudeDegrees>-3.70841841213405132293701171875</LongitudeDegrees>
            </Position>
            <AltitudeMeters>704.5999755859375</AltitudeMeters>
            <DistanceMeters>1707.1194309798</DistanceMeters>
          </Trackpoint>
          <Trackpoint>
            <Time>2019-08-01T07:37:40.000Z</Time>
            <Position>
              <LatitudeDegrees>40.42103477753698825836181640625</LatitudeDegrees>
              <LongitudeDegrees>-3.7081085331737995147705078125</LongitudeDegrees>
            </Position>
            <AltitudeMeters>704.20001220703125</AltitudeMeters>
            <DistanceMeters>1768.8882572527</DistanceMeters>
          </Trackpoint>
          <Trackpoint>
            <Time>2019-08-01T07:37:44.000Z</Time>
            <Position>
              <LatitudeDegrees>40.42106755077838897705078125</LatitudeDegrees>
              <LongitudeDegrees>-3.70811666361987590789794921875</LongitudeDegrees>
            </Position>
            <AltitudeMeters>704.20001220703125</AltitudeMeters>
            <DistanceMeters>1772.6003855713</DistanceMeters>
          </Trackpoint>
          <Trackpoint>
            <Time>2019-08-01T07:38:00.000Z</Time>
            <Position>
              <LatitudeDegrees>40.4211505316197872161865234375</LatitudeDegrees>
              <LongitudeDegrees>-3.7080860696732997894287109375</LongitudeDegrees>
            </Position>
            <AltitudeMeters>703.4000244140625</AltitudeMeters>
            <DistanceMeters>1782.1929076048</DistanceMeters>
          </Trackpoint>
          <Trackpoint>
            <Time>2019-08-01T07:38:03.000Z</Time>
            <Position>
              <LatitudeDegrees>40.42127198539674282073974609375</LatitudeDegrees>
              <LongitudeDegrees>-3.70803418569266796112060546875</LongitudeDegrees>
            </Position>
            <AltitudeMeters>703.20001220703125</AltitudeMeters>
            <DistanceMeters>1796.4075827861</DistanceMeters>
          </Trackpoint>
          <Trackpoint>
            <Time>2019-08-01T07:38:14.000Z</Time>
            <Position>
              <LatitudeDegrees>40.42181831784546375274658203125</LatitudeDegrees>
              <LongitudeDegrees>-3.707837797701358795166015625</LongitudeDegrees>
            </Position>
            <AltitudeMeters>702.5999755859375</AltitudeMeters>
            <DistanceMeters>1859.4513446205</DistanceMeters>
          </Trackpoint>
          <Trackpoint>
            <Time>2019-08-01T07:38:17.000Z</Time>
            <Position>
              <LatitudeDegrees>40.42195091955363750457763671875</LatitudeDegrees>
              <LongitudeDegrees>-3.70780234225094318389892578125</LongitudeDegrees>
            </Position>
            <AltitudeMeters>702.79998779296875</AltitudeMeters>
            <DistanceMeters>1874.5130039057</DistanceMeters>
          </Trackpoint>
          <Trackpoint>
            <Time>2019-08-01T07:38:31.000Z</Time>
            <Position>
              <LatitudeDegrees>40.4225157760083675384521484375</LatitudeDegrees>
              <LongitudeDegrees>-3.70761643163859844207763671875</LongitudeDegrees>
            </Position>
            <AltitudeMeters>704</AltitudeMeters>
            <DistanceMeters>1939.3260996604</DistanceMeters>
          </Trackpoint>
          <Trackpoint>
            <Time>2019-08-01T07:38:33.000Z</Time>
            <Position>
              <LatitudeDegrees>40.42260579764842987060546875</LatitudeDegrees>
              <LongitudeDegrees>-3.7075952254235744476318359375</LongitudeDegrees>
            </Position>
            <AltitudeMeters>704.20001220703125</AltitudeMeters>
            <DistanceMeters>1949.5059403896</DistanceMeters>
          </Trackpoint>
          <Trackpoint>
            <Time>2019-08-01T07:38:51.000Z</Time>
            <Position>
              <LatitudeDegrees>40.4229643754661083221435546875</LatitudeDegrees>
              <LongitudeDegrees>-3.70750495232641696929931640625</LongitudeDegrees>
            </Position>
            <AltitudeMeters>704.79998779296875</AltitudeMeters>
            <DistanceMeters>1990.1427234741</DistanceMeters>
          </Trackpoint>
          <Trackpoint>
            <Time>2019-08-01T07:39:11.000Z</Time>
            <Position>
              <LatitudeDegrees>40.42355203069746494293212890625</LatitudeDegrees>
              <LongitudeDegrees>-3.7074108235538005828857421875</LongitudeDegrees>
            </Position>
            <AltitudeMeters>705</AltitudeMeters>
            <DistanceMeters>2056.0344144128</DistanceMeters>
          </Trackpoint>
          <Trackpoint>
            <Time>2019-08-01T07:39:12.000Z</Time>
            <Position>
              <LatitudeDegrees>40.42360383085906505584716796875</LatitudeDegrees>
              <LongitudeDegrees>-3.7073989212512969970703125</LongitudeDegrees>
            </Position>
            <AltitudeMeters>705.20001220703125</AltitudeMeters>
            <DistanceMeters>2061.8876280624</DistanceMeters>
          </Trackpoint>
          <Trackpoint>
            <Time>2019-08-01T07:39:15.000Z</Time>
            <Position>
              <LatitudeDegrees>40.4237586446106433868408203125</LatitudeDegrees>
              <LongitudeDegrees>-3.70736463926732540130615234375</LongitudeDegrees>
            </Position>
            <AltitudeMeters>705.4000244140625</AltitudeMeters>
            <DistanceMeters>2079.3622114631</DistanceMeters>
          </Trackpoint>
          <Trackpoint>
            <Time>2019-08-01T07:39:24.000Z</Time>
            <Position>
              <LatitudeDegrees>40.42430154047906398773193359375</LatitudeDegrees>
              <LongitudeDegrees>-3.7073479592800140380859375</LongitudeDegrees>
            </Position>
            <AltitudeMeters>704.79998779296875</AltitudeMeters>
            <DistanceMeters>2139.804132233</DistanceMeters>
          </Trackpoint>
          <Trackpoint>
            <Time>2019-08-01T07:39:30.000Z</Time>
            <Position>
              <LatitudeDegrees>40.42461887933313846588134765625</LatitudeDegrees>
              <LongitudeDegrees>-3.7073789723217487335205078125</LongitudeDegrees>
            </Position>
            <AltitudeMeters>704.20001220703125</AltitudeMeters>
            <DistanceMeters>2175.2222089657</DistanceMeters>
          </Trackpoint>
          <Trackpoint>
            <Time>2019-08-01T07:39:38.000Z</Time>
            <Position>
              <LatitudeDegrees>40.42476103641092777252197265625</LatitudeDegrees>
              <LongitudeDegrees>-3.7074205465614795684814453125</LongitudeDegrees>
            </Position>
            <AltitudeMeters>704.4000244140625</AltitudeMeters>
            <DistanceMeters>2191.4319950336</DistanceMeters>
          </Trackpoint>
          <Trackpoint>
            <Time>2019-08-01T07:40:26.000Z</Time>
            <Position>
              <LatitudeDegrees>40.4248080588877201080322265625</LatitudeDegrees>
              <LongitudeDegrees>-3.7074364721775054931640625</LongitudeDegrees>
            </Position>
            <AltitudeMeters>704.79998779296875</AltitudeMeters>
            <DistanceMeters>2196.8368352066</DistanceMeters>
          </Trackpoint>
          <Trackpoint>
            <Time>2019-08-01T07:40:30.000Z</Time>
            <Position>
              <LatitudeDegrees>40.4249037802219390869140625</LatitudeDegrees>
              <LongitudeDegrees>-3.70741568505764007568359375</LongitudeDegrees>
            </Position>
            <AltitudeMeters>704</AltitudeMeters>
            <DistanceMeters>2207.6356502896</DistanceMeters>
          </Trackpoint>
          <Trackpoint>
            <Time>2019-08-01T07:40:41.000Z</Time>
            <Position>
              <LatitudeDegrees>40.42531407438218593597412109375</LatitudeDegrees>
              <LongitudeDegrees>-3.7073316983878612518310546875</LongitudeDegrees>
            </Position>
            <AltitudeMeters>703.20001220703125</AltitudeMeters>
            <DistanceMeters>2253.853424392</DistanceMeters>
          </Trackpoint>
          <Trackpoint>
            <Time>2019-08-01T07:40:55.000Z</Time>
            <Position>
              <LatitudeDegrees>40.42584163136780261993408203125</LatitudeDegrees>
              <LongitudeDegrees>-3.7071080692112445831298828125</LongitudeDegrees>
            </Position>
            <AltitudeMeters>703.20001220703125</AltitudeMeters>
            <DistanceMeters>2315.5530633441</DistanceMeters>
          </Trackpoint>
          <Trackpoint>
            <Time>2019-08-01T07:41:09.000Z</Time>
            <Position>
              <LatitudeDegrees>40.42634345591068267822265625</LatitudeDegrees>
              <LongitudeDegrees>-3.70682182721793651580810546875</LongitudeDegrees>
            </Position>
            <AltitudeMeters>702.79998779296875</AltitudeMeters>
            <DistanceMeters>2376.4453929841</DistanceMeters>
          </Trackpoint>
          <Trackpoint>
            <Time>2019-08-01T07:41:15.000Z</Time>
            <Position>
              <LatitudeDegrees>40.42655224911868572235107421875</LatitudeDegrees>
              <LongitudeDegrees>-3.70668168179690837860107421875</LongitudeDegrees>
            </Position>
            <AltitudeMeters>702.5999755859375</AltitudeMeters>
            <DistanceMeters>2402.5422963522</DistanceMeters>
          </Trackpoint>
          <Trackpoint>
            <Time>2019-08-01T07:41:30.000Z</Time>
            <Position>
              <LatitudeDegrees>40.42708030901849269866943359375</LatitudeDegrees>
              <LongitudeDegrees>-3.706409521400928497314453125</LongitudeDegrees>
            </Position>
            <AltitudeMeters>702.5999755859375</AltitudeMeters>
            <DistanceMeters>2465.6780196351</DistanceMeters>
          </Trackpoint>
          <Trackpoint>
            <Time>2019-08-01T07:41:39.000Z</Time>
            <Position>
              <LatitudeDegrees>40.42736730538308620452880859375</LatitudeDegrees>
              <LongitudeDegrees>-3.70629175566136837005615234375</LongitudeDegrees>
            </Position>
            <AltitudeMeters>703.79998779296875</AltitudeMeters>
            <DistanceMeters>2499.1433470761</DistanceMeters>
          </Trackpoint>
          <Trackpoint>
            <Time>2019-08-01T07:41:47.000Z</Time>
            <Position>
              <LatitudeDegrees>40.4275859892368316650390625</LatitudeDegrees>
              <LongitudeDegrees>-3.7062142230570316314697265625</LongitudeDegrees>
            </Position>
            <AltitudeMeters>704.5999755859375</AltitudeMeters>
            <DistanceMeters>2524.3542764637</DistanceMeters>
          </Trackpoint>
          <Trackpoint>
            <Time>2019-08-01T07:41:59.000Z</Time>
            <Position>
              <LatitudeDegrees>40.42778556235134601593017578125</LatitudeDegrees>
              <LongitudeDegrees>-3.70622838847339153289794921875</LongitudeDegrees>
            </Position>
            <AltitudeMeters>705.4000244140625</AltitudeMeters>
            <DistanceMeters>2546.5994599677</DistanceMeters>
          </Trackpoint>
          <Trackpoint>
            <Time>2019-08-01T07:42:08.000Z</Time>
            <Position>
              <LatitudeDegrees>40.42789041996002197265625</LatitudeDegrees>
              <LongitudeDegrees>-3.70624431408941745758056640625</LongitudeDegrees>
            </Position>
            <AltitudeMeters>706.20001220703125</AltitudeMeters>
            <DistanceMeters>2558.3482364369</DistanceMeters>
          </Trackpoint>
          <Trackpoint>
            <Time>2019-08-01T07:42:25.000Z</Time>
            <Position>
              <LatitudeDegrees>40.42833767831325531005859375</LatitudeDegrees>
              <LongitudeDegrees>-3.70610534213483333587646484375</LongitudeDegrees>
            </Position>
            <AltitudeMeters>707.20001220703125</AltitudeMeters>
            <DistanceMeters>2609.5024504578</DistanceMeters>
          </Trackpoint>
          <Trackpoint>
            <Time>2019-08-01T07:42:34.000Z</Time>
            <Position>
              <LatitudeDegrees>40.4286184720695018768310546875</LatitudeDegrees>
              <LongitudeDegrees>-3.70601716451346874237060546875</LongitudeDegrees>
            </Position>
            <AltitudeMeters>708.20001220703125</AltitudeMeters>
            <DistanceMeters>2641.6359555753</DistanceMeters>
          </Trackpoint>
          <Trackpoint>
            <Time>2019-08-01T07:42:42.000Z</Time>
            <Position>
              <LatitudeDegrees>40.428869761526584625244140625</LatitudeDegrees>
              <LongitudeDegrees>-3.7059661187231540679931640625</LongitudeDegrees>
            </Position>
            <AltitudeMeters>709.4000244140625</AltitudeMeters>
            <DistanceMeters>2669.9373297572</DistanceMeters>
          </Trackpoint>
          <Trackpoint>
            <Time>2019-08-01T07:42:56.000Z</Time>
            <Position>
              <LatitudeDegrees>40.42923697270452976226806640625</LatitudeDegrees>
              <LongitudeDegrees>-3.70570904575288295745849609375</LongitudeDegrees>
            </Position>
            <AltitudeMeters>710.4000244140625</AltitudeMeters>
            <DistanceMeters>2716.2497667167</DistanceMeters>
          </Trackpoint>
          <Trackpoint>
            <Time>2019-08-01T07:43:03.000Z</Time>
            <Position>
              <LatitudeDegrees>40.4294211231172084808349609375</LatitudeDegrees>
              <LongitudeDegrees>-3.7055077962577342987060546875</LongitudeDegrees>
            </Position>
            <AltitudeMeters>711.5999755859375</AltitudeMeters>
            <DistanceMeters>2742.9108150337</DistanceMeters>
          </Trackpoint>
          <Trackpoint>
            <Time>2019-08-01T07:43:25.000Z</Time>
            <Position>
              <LatitudeDegrees>40.42995882220566272735595703125</LatitudeDegrees>
              <LongitudeDegrees>-3.70558482594788074493408203125</LongitudeDegrees>
            </Position>
            <AltitudeMeters>711.4000244140625</AltitudeMeters>
            <DistanceMeters>2803.1126198332</DistanceMeters>
          </Trackpoint>
          <Trackpoint>
            <Time>2019-08-01T07:43:30.000Z</Time>
            <Position>
              <LatitudeDegrees>40.43001112528145313262939453125</LatitudeDegrees>
              <LongitudeDegrees>-3.7056013382971286773681640625</LongitudeDegrees>
            </Position>
            <AltitudeMeters>711.5999755859375</AltitudeMeters>
            <DistanceMeters>2809.1000569713</DistanceMeters>
          </Trackpoint>
          <Trackpoint>
            <Time>2019-08-01T07:43:40.000Z</Time>
            <Position>
              <LatitudeDegrees>40.43027448467910289764404296875</LatitudeDegrees>
              <LongitudeDegrees>-3.70552095584571361541748046875</LongitudeDegrees>
            </Position>
            <AltitudeMeters>712.5999755859375</AltitudeMeters>
            <DistanceMeters>2839.1932335457</DistanceMeters>
          </Trackpoint>
          <Trackpoint>
            <Time>2019-08-01T07:43:50.000Z</Time>
            <Position>
              <LatitudeDegrees>40.43058277107775211334228515625</LatitudeDegrees>
              <LongitudeDegrees>-3.7053559161722660064697265625</LongitudeDegrees>
            </Position>
            <AltitudeMeters>713.5999755859375</AltitudeMeters>
            <DistanceMeters>2876.2457324109</DistanceMeters>
          </Trackpoint>
          <Trackpoint>
            <Time>2019-08-01T07:43:56.000Z</Time>
            <Position>
              <LatitudeDegrees>40.43079332448542118072509765625</LatitudeDegrees>
              <LongitudeDegrees>-3.70529045350849628448486328125</LongitudeDegrees>
            </Position>
            <AltitudeMeters>714.5999755859375</AltitudeMeters>
            <DistanceMeters>2900.3282092289</DistanceMeters>
          </Trackpoint>
          <Trackpoint>
            <Time>2019-08-01T07:44:02.000Z</Time>
            <Position>
              <LatitudeDegrees>40.43099633418023586273193359375</LatitudeDegrees>
              <LongitudeDegrees>-3.7052627094089984893798828125</LongitudeDegrees>
            </Position>
            <AltitudeMeters>715.4000244140625</AltitudeMeters>
            <DistanceMeters>2923.0457559478</DistanceMeters>
          </Trackpoint>
          <Trackpoint>
            <Time>2019-08-01T07:44:08.000Z</Time>
            <Position>
              <LatitudeDegrees>40.4312262497842311859130859375</LatitudeDegrees>
              <LongitudeDegrees>-3.70522574521601200103759765625</LongitudeDegrees>
            </Position>
            <AltitudeMeters>716.4000244140625</AltitudeMeters>
            <DistanceMeters>2948.8265578473</DistanceMeters>
          </Trackpoint>
          <Trackpoint>
            <Time>2019-08-01T07:44:13.000Z</Time>
            <Position>
              <LatitudeDegrees>40.43142347596585750579833984375</LatitudeDegrees>
              <LongitudeDegrees>-3.705172352492809295654296875</LongitudeDegrees>
            </Position>
            <AltitudeMeters>717.20001220703125</AltitudeMeters>
            <DistanceMeters>2971.2395708661</DistanceMeters>
          </Trackpoint>
          <Trackpoint>
            <Time>2019-08-01T07:44:23.000Z</Time>
            <Position>
              <LatitudeDegrees>40.43172757141292095184326171875</LatitudeDegrees>
              <LongitudeDegrees>-3.70501242578029632568359375</LongitudeDegrees>
            </Position>
            <AltitudeMeters>717.5999755859375</AltitudeMeters>
            <DistanceMeters>3007.6972729607</DistanceMeters>
          </Trackpoint>
          <Trackpoint>
            <Time>2019-08-01T07:44:31.000Z</Time>
            <Position>
              <LatitudeDegrees>40.43198355473577976226806640625</LatitudeDegrees>
              <LongitudeDegrees>-3.7049170397222042083740234375</LongitudeDegrees>
            </Position>
            <AltitudeMeters>718.5999755859375</AltitudeMeters>
            <DistanceMeters>3037.312390801</DistanceMeters>
          </Trackpoint>
          <Trackpoint>
            <Time>2019-08-01T07:44:43.000Z</Time>
            <Position>
              <LatitudeDegrees>40.43233039788901805877685546875</LatitudeDegrees>
              <LongitudeDegrees>-3.7048198096454143524169921875</LongitudeDegrees>
            </Position>
            <AltitudeMeters>719.20001220703125</AltitudeMeters>
            <DistanceMeters>3076.7856689827</DistanceMeters>
          </Trackpoint>
          <Trackpoint>
            <Time>2019-08-01T07:44:54.000Z</Time>
            <Position>
              <LatitudeDegrees>40.432691238820552825927734375</LatitudeDegrees>
              <LongitudeDegrees>-3.70467958040535449981689453125</LongitudeDegrees>
            </Position>
            <AltitudeMeters>720</AltitudeMeters>
            <DistanceMeters>3118.668309298</DistanceMeters>
          </Trackpoint>
          <Trackpoint>
            <Time>2019-08-01T07:45:04.000Z</Time>
            <Position>
              <LatitudeDegrees>40.43301335535943508148193359375</LatitudeDegrees>
              <LongitudeDegrees>-3.70453901588916778564453125</LongitudeDegrees>
            </Position>
            <AltitudeMeters>721.20001220703125</AltitudeMeters>
            <DistanceMeters>3156.4466573557</DistanceMeters>
          </Trackpoint>
          <Trackpoint>
            <Time>2019-08-01T07:45:14.000Z</Time>
            <Position>
              <LatitudeDegrees>40.4332141019403934478759765625</LatitudeDegrees>
              <LongitudeDegrees>-3.7044117785990238189697265625</LongitudeDegrees>
            </Position>
            <AltitudeMeters>722.4000244140625</AltitudeMeters>
            <DistanceMeters>3181.2546365149</DistanceMeters>
          </Trackpoint>
          <Trackpoint>
            <Time>2019-08-01T07:45:33.000Z</Time>
            <Position>
              <LatitudeDegrees>40.43323949910700321197509765625</LatitudeDegrees>
              <LongitudeDegrees>-3.704380095005035400390625</LongitudeDegrees>
            </Position>
            <AltitudeMeters>723.20001220703125</AltitudeMeters>
            <DistanceMeters>3185.1542068414</DistanceMeters>
          </Trackpoint>
          <Trackpoint>
            <Time>2019-08-01T07:45:37.000Z</Time>
            <Position>
              <LatitudeDegrees>40.43330202810466289520263671875</LatitudeDegrees>
              <LongitudeDegrees>-3.70427615940570831298828125</LongitudeDegrees>
            </Position>
            <AltitudeMeters>723.4000244140625</AltitudeMeters>
            <DistanceMeters>3196.3774210119</DistanceMeters>
          </Trackpoint>
          <Trackpoint>
            <Time>2019-08-01T07:45:48.000Z</Time>
            <Position>
              <LatitudeDegrees>40.43358030728995800018310546875</LatitudeDegrees>
              <LongitudeDegrees>-3.7038584053516387939453125</LongitudeDegrees>
            </Position>
            <AltitudeMeters>723.79998779296875</AltitudeMeters>
            <DistanceMeters>3243.408157076</DistanceMeters>
          </Trackpoint>
          <Trackpoint>
            <Time>2019-08-01T07:46:04.000Z</Time>
            <Position>
              <LatitudeDegrees>40.4337632842361927032470703125</LatitudeDegrees>
              <LongitudeDegrees>-3.7031886912882328033447265625</LongitudeDegrees>
            </Position>
            <AltitudeMeters>724.20001220703125</AltitudeMeters>
            <DistanceMeters>3303.6895575433</DistanceMeters>
          </Trackpoint>
          <Trackpoint>
            <Time>2019-08-01T07:46:14.000Z</Time>
            <Position>
              <LatitudeDegrees>40.4338125698268413543701171875</LatitudeDegrees>
              <LongitudeDegrees>-3.70301510207355022430419921875</LongitudeDegrees>
            </Position>
            <AltitudeMeters>724.5999755859375</AltitudeMeters>
            <DistanceMeters>3319.3853705373</DistanceMeters>
          </Trackpoint>
          <Trackpoint>
            <Time>2019-08-01T07:46:21.000Z</Time>
            <Position>
              <LatitudeDegrees>40.43381734751164913177490234375</LatitudeDegrees>
              <LongitudeDegrees>-3.7029759585857391357421875</LongitudeDegrees>
            </Position>
            <AltitudeMeters>724.20001220703125</AltitudeMeters>
            <DistanceMeters>3322.743728094</DistanceMeters>
          </Trackpoint>
          <Trackpoint>
            <Time>2019-08-01T07:46:35.000Z</Time>
            <Position>
              <LatitudeDegrees>40.43403795920312404632568359375</LatitudeDegrees>
              <LongitudeDegrees>-3.70233013294637203216552734375</LongitudeDegrees>
            </Position>
            <AltitudeMeters>723.79998779296875</AltitudeMeters>
            <DistanceMeters>3382.7140929892</DistanceMeters>
          </Trackpoint>
          <Trackpoint>
            <Time>2019-08-01T07:46:46.000Z</Time>
            <Position>
              <LatitudeDegrees>40.4341783560812473297119140625</LatitudeDegrees>
              <LongitudeDegrees>-3.70177139528095722198486328125</LongitudeDegrees>
            </Position>
            <AltitudeMeters>723.5999755859375</AltitudeMeters>
            <DistanceMeters>3432.5617416293</DistanceMeters>
          </Trackpoint>
          <Trackpoint>
            <Time>2019-08-01T07:46:49.000Z</Time>
            <Position>
              <LatitudeDegrees>40.43419830501079559326171875</LatitudeDegrees>
              <LongitudeDegrees>-3.70161917991936206817626953125</LongitudeDegrees>
            </Position>
            <AltitudeMeters>723.20001220703125</AltitudeMeters>
            <DistanceMeters>3445.6471651811</DistanceMeters>
          </Trackpoint>
          <Trackpoint>
            <Time>2019-08-01T07:46:52.000Z</Time>
            <Position>
              <LatitudeDegrees>40.43421079404652118682861328125</LatitudeDegrees>
              <LongitudeDegrees>-3.70151909999549388885498046875</LongitudeDegrees>
            </Position>
            <AltitudeMeters>722.79998779296875</AltitudeMeters>
            <DistanceMeters>3454.2385471917</DistanceMeters>
          </Trackpoint>
          <Trackpoint>
            <Time>2019-08-01T07:46:58.000Z</Time>
            <Position>
              <LatitudeDegrees>40.43424180708825588226318359375</LatitudeDegrees>
              <LongitudeDegrees>-3.7015005759894847869873046875</LongitudeDegrees>
            </Position>
            <AltitudeMeters>722.5999755859375</AltitudeMeters>
            <DistanceMeters>3458.0324820688</DistanceMeters>
          </Trackpoint>
          <Trackpoint>
            <Time>2019-08-01T07:47:17.000Z</Time>
            <Position>
              <LatitudeDegrees>40.43427114374935626983642578125</LatitudeDegrees>
              <LongitudeDegrees>-3.70150141417980194091796875</LongitudeDegrees>
            </Position>
            <AltitudeMeters>722.5999755859375</AltitudeMeters>
            <DistanceMeters>3461.2995220681</DistanceMeters>
          </Trackpoint>
          <Trackpoint>
            <Time>2019-08-01T07:47:36.000Z</Time>
            <Position>
              <LatitudeDegrees>40.43479836545884609222412109375</LatitudeDegrees>
              <LongitudeDegrees>-3.70174809359014034271240234375</LongitudeDegrees>
            </Position>
            <AltitudeMeters>721.5999755859375</AltitudeMeters>
            <DistanceMeters>3523.5905299869</DistanceMeters>
          </Trackpoint>
          <Trackpoint>
            <Time>2019-08-01T07:47:41.000Z</Time>
            <Position>
              <LatitudeDegrees>40.434927530586719512939453125</LatitudeDegrees>
              <LongitudeDegrees>-3.70184473693370819091796875</LongitudeDegrees>
            </Position>
            <AltitudeMeters>721.20001220703125</AltitudeMeters>
            <DistanceMeters>3540.1344599014</DistanceMeters>
          </Trackpoint>
          <Trackpoint>
            <Time>2019-08-01T07:47:57.000Z</Time>
            <Position>
              <LatitudeDegrees>40.43542130850255489349365234375</LatitudeDegrees>
              <LongitudeDegrees>-3.7022088468074798583984375</LongitudeDegrees>
            </Position>
            <AltitudeMeters>720.5999755859375</AltitudeMeters>
            <DistanceMeters>3603.1575925133</DistanceMeters>
          </Trackpoint>
          <Trackpoint>
            <Time>2019-08-01T07:48:06.000Z</Time>
            <Position>
              <LatitudeDegrees>40.43574065901339054107666015625</LatitudeDegrees>
              <LongitudeDegrees>-3.70233289897441864013671875</LongitudeDegrees>
            </Position>
            <AltitudeMeters>722</AltitudeMeters>
            <DistanceMeters>3640.2228839621</DistanceMeters>
          </Trackpoint>
          <Trackpoint>
            <Time>2019-08-01T07:48:14.000Z</Time>
            <Position>
              <LatitudeDegrees>40.43604156933724880218505859375</LatitudeDegrees>
              <LongitudeDegrees>-3.70242384262382984161376953125</LongitudeDegrees>
            </Position>
            <AltitudeMeters>723.20001220703125</AltitudeMeters>
            <DistanceMeters>3674.5894630508</DistanceMeters>
          </Trackpoint>
          <Trackpoint>
            <Time>2019-08-01T07:48:23.000Z</Time>
            <Position>
              <LatitudeDegrees>40.43638874776661396026611328125</LatitudeDegrees>
              <LongitudeDegrees>-3.7026163749396800994873046875</LongitudeDegrees>
            </Position>
            <AltitudeMeters>723.4000244140625</AltitudeMeters>
            <DistanceMeters>3716.5325367658</DistanceMeters>
          </Trackpoint>
          <Trackpoint>
            <Time>2019-08-01T07:48:25.000Z</Time>
            <Position>
              <LatitudeDegrees>40.43646737001836299896240234375</LatitudeDegrees>
              <LongitudeDegrees>-3.70267027057707309722900390625</LongitudeDegrees>
            </Position>
            <AltitudeMeters>723.4000244140625</AltitudeMeters>
            <DistanceMeters>3726.403429574</DistanceMeters>
          </Trackpoint>
          <Trackpoint>
            <Time>2019-08-01T07:48:27.000Z</Time>
            <Position>
              <LatitudeDegrees>40.4365487582981586456298828125</LatitudeDegrees>
              <LongitudeDegrees>-3.7027077376842498779296875</LongitudeDegrees>
            </Position>
            <AltitudeMeters>723.5999755859375</AltitudeMeters>
            <DistanceMeters>3736.0025389095</DistanceMeters>
          </Trackpoint>
          <Trackpoint>
            <Time>2019-08-01T07:48:31.000Z</Time>
            <Position>
              <LatitudeDegrees>40.43670927174389362335205078125</LatitudeDegrees>
              <LongitudeDegrees>-3.7027689255774021148681640625</LongitudeDegrees>
            </Position>
            <AltitudeMeters>723.79998779296875</AltitudeMeters>
            <DistanceMeters>3754.6049739513</DistanceMeters>
          </Trackpoint>
          <Trackpoint>
            <Time>2019-08-01T07:48:32.000Z</Time>
            <Position>
              <LatitudeDegrees>40.43675000779330730438232421875</LatitudeDegrees>
              <LongitudeDegrees>-3.7027721107006072998046875</LongitudeDegrees>
            </Position>
            <AltitudeMeters>724</AltitudeMeters>
            <DistanceMeters>3759.1464158587</DistanceMeters>
          </Trackpoint>
          <Trackpoint>
            <Time>2019-08-01T07:48:36.000Z</Time>
            <Position>
              <LatitudeDegrees>40.4368959367275238037109375</LatitudeDegrees>
              <LongitudeDegrees>-3.70266540907323360443115234375</LongitudeDegrees>
            </Position>
            <AltitudeMeters>724.4000244140625</AltitudeMeters>
            <DistanceMeters>3777.7342824629</DistanceMeters>
          </Trackpoint>
          <Trackpoint>
            <Time>2019-08-01T07:48:39.000Z</Time>
            <Position>
              <LatitudeDegrees>40.4369936697185039520263671875</LatitudeDegrees>
              <LongitudeDegrees>-3.7025929056107997894287109375</LongitudeDegrees>
            </Position>
            <AltitudeMeters>724.79998779296875</AltitudeMeters>
            <DistanceMeters>3790.226591341</DistanceMeters>
          </Trackpoint>
          <Trackpoint>
            <Time>2019-08-01T07:48:40.000Z</Time>
            <Position>
              <LatitudeDegrees>40.43703205883502960205078125</LatitudeDegrees>
              <LongitudeDegrees>-3.70258636772632598876953125</LongitudeDegrees>
            </Position>
            <AltitudeMeters>724.79998779296875</AltitudeMeters>
            <DistanceMeters>3794.5354005928</DistanceMeters>
          </Trackpoint>
          <Trackpoint>
            <Time>2019-08-01T07:48:44.000Z</Time>
            <Position>
              <LatitudeDegrees>40.43718955479562282562255859375</LatitudeDegrees>
              <LongitudeDegrees>-3.7026485614478588104248046875</LongitudeDegrees>
            </Position>
            <AltitudeMeters>723.79998779296875</AltitudeMeters>
            <DistanceMeters>3812.8398250956</DistanceMeters>
          </Trackpoint>
          <Trackpoint>
            <Time>2019-08-01T07:48:47.000Z</Time>
            <Position>
              <LatitudeDegrees>40.4373165406286716461181640625</LatitudeDegrees>
              <LongitudeDegrees>-3.70265853591263294219970703125</LongitudeDegrees>
            </Position>
            <AltitudeMeters>724</AltitudeMeters>
            <DistanceMeters>3826.9991244147</DistanceMeters>
          </Trackpoint>
          <Trackpoint>
            <Time>2019-08-01T07:49:03.000Z</Time>
            <Position>
              <LatitudeDegrees>40.43788156472146511077880859375</LatitudeDegrees>
              <LongitudeDegrees>-3.70262869633734226226806640625</LongitudeDegrees>
            </Position>
            <AltitudeMeters>725.79998779296875</AltitudeMeters>
            <DistanceMeters>3889.9382378071</DistanceMeters>
          </Trackpoint>
          <Trackpoint>
            <Time>2019-08-01T07:49:13.000Z</Time>
            <Position>
              <LatitudeDegrees>40.438173003494739532470703125</LatitudeDegrees>
              <LongitudeDegrees>-3.70262517593801021575927734375</LongitudeDegrees>
            </Position>
            <AltitudeMeters>726.5999755859375</AltitudeMeters>
            <DistanceMeters>3922.3773017296</DistanceMeters>
          </Trackpoint>
          <Trackpoint>
            <Time>2019-08-01T07:49:26.000Z</Time>
            <Position>
              <LatitudeDegrees>40.438527725636959075927734375</LatitudeDegrees>
              <LongitudeDegrees>-3.7025387585163116455078125</LongitudeDegrees>
            </Position>
            <AltitudeMeters>727.4000244140625</AltitudeMeters>
            <DistanceMeters>3962.5314580447</DistanceMeters>
          </Trackpoint>
          <Trackpoint>
            <Time>2019-08-01T07:49:28.000Z</Time>
            <Position>
              <LatitudeDegrees>40.438559912145137786865234375</LatitudeDegrees>
              <LongitudeDegrees>-3.70244555175304412841796875</LongitudeDegrees>
            </Position>
            <AltitudeMeters>727.4000244140625</AltitudeMeters>
            <DistanceMeters>3971.2018321079</DistanceMeters>
          </Trackpoint>
          <Trackpoint>
            <Time>2019-08-01T07:49:33.000Z</Time>
            <Position>
              <LatitudeDegrees>40.4386100359261035919189453125</LatitudeDegrees>
              <LongitudeDegrees>-3.7021659314632415771484375</LongitudeDegrees>
            </Position>
            <AltitudeMeters>727.20001220703125</AltitudeMeters>
            <DistanceMeters>3995.5372070454</DistanceMeters>
          </Trackpoint>
          <Trackpoint>
            <Time>2019-08-01T07:49:37.000Z</Time>
            <Position>
              <LatitudeDegrees>40.43861028738319873809814453125</LatitudeDegrees>
              <LongitudeDegrees>-3.7019428052008152008056640625</LongitudeDegrees>
            </Position>
            <AltitudeMeters>726.4000244140625</AltitudeMeters>
            <DistanceMeters>4014.4386869988</DistanceMeters>
          </Trackpoint>
          <Trackpoint>
            <Time>2019-08-01T07:49:53.000Z</Time>
            <Position>
              <LatitudeDegrees>40.438569970428943634033203125</LatitudeDegrees>
              <LongitudeDegrees>-3.70121986605226993560791015625</LongitudeDegrees>
            </Position>
            <AltitudeMeters>725.5999755859375</AltitudeMeters>
            <DistanceMeters>4075.8446233628</DistanceMeters>
          </Trackpoint>
          <Trackpoint>
            <Time>2019-08-01T07:49:59.000Z</Time>
            <Position>
              <LatitudeDegrees>40.43855630792677402496337890625</LatitudeDegrees>
              <LongitudeDegrees>-3.70103848166763782501220703125</LongitudeDegrees>
            </Position>
            <AltitudeMeters>725.4000244140625</AltitudeMeters>
            <DistanceMeters>4091.2852217408</DistanceMeters>
          </Trackpoint>
          <Trackpoint>
            <Time>2019-08-01T07:50:06.000Z</Time>
            <Position>
              <LatitudeDegrees>40.4385527037084102630615234375</LatitudeDegrees>
              <LongitudeDegrees>-3.700914345681667327880859375</LongitudeDegrees>
            </Position>
            <AltitudeMeters>724.5999755859375</AltitudeMeters>
            <DistanceMeters>4101.8087600008</DistanceMeters>
          </Trackpoint>
          <Trackpoint>
            <Time>2019-08-01T07:50:19.000Z</Time>
            <Position>
              <LatitudeDegrees>40.438547171652317047119140625</LatitudeDegrees>
              <LongitudeDegrees>-3.70084670372307300567626953125</LongitudeDegrees>
            </Position>
            <AltitudeMeters>722.5999755859375</AltitudeMeters>
            <DistanceMeters>4107.5717992303</DistanceMeters>
          </Trackpoint>
          <Trackpoint>
            <Time>2019-08-01T07:50:25.000Z</Time>
            <Position>
              <LatitudeDegrees>40.43853937648236751556396484375</LatitudeDegrees>
              <LongitudeDegrees>-3.7005480565130710601806640625</LongitudeDegrees>
            </Position>
            <AltitudeMeters>722</AltitudeMeters>
            <DistanceMeters>4132.8856745681</DistanceMeters>
          </Trackpoint>
          <Trackpoint>
            <Time>2019-08-01T07:50:29.000Z</Time>
            <Position>
              <LatitudeDegrees>40.4386304877698421478271484375</LatitudeDegrees>
              <LongitudeDegrees>-3.7003988586366176605224609375</LongitudeDegrees>
            </Position>
            <AltitudeMeters>721.5999755859375</AltitudeMeters>
            <DistanceMeters>4149.0898889223</DistanceMeters>
          </Trackpoint>
          <Trackpoint>
            <Time>2019-08-01T07:50:32.000Z</Time>
            <Position>
              <LatitudeDegrees>40.4387213476002216339111328125</LatitudeDegrees>
              <LongitudeDegrees>-3.70037899352610111236572265625</LongitudeDegrees>
            </Position>
            <AltitudeMeters>720.5999755859375</AltitudeMeters>
            <DistanceMeters>4159.3413292921</DistanceMeters>
          </Trackpoint>
          <Trackpoint>
            <Time>2019-08-01T07:50:34.000Z</Time>
            <Position>
              <LatitudeDegrees>40.438788570463657379150390625</LatitudeDegrees>
              <LongitudeDegrees>-3.70040916837751865386962890625</LongitudeDegrees>
            </Position>
            <AltitudeMeters>720.5999755859375</AltitudeMeters>
            <DistanceMeters>4167.248556954</DistanceMeters>
          </Trackpoint>
          <Trackpoint>
            <Time>2019-08-01T07:50:44.000Z</Time>
            <Position>
              <LatitudeDegrees>40.43913683854043483734130859375</LatitudeDegrees>
              <LongitudeDegrees>-3.70055451057851314544677734375</LongitudeDegrees>
            </Position>
            <AltitudeMeters>721.79998779296875</AltitudeMeters>
            <DistanceMeters>4207.9197686788</DistanceMeters>
          </Trackpoint>
          <Trackpoint>
            <Time>2019-08-01T07:50:48.000Z</Time>
            <Position>
              <LatitudeDegrees>40.4392621479928493499755859375</LatitudeDegrees>
              <LongitudeDegrees>-3.70068342424929141998291015625</LongitudeDegrees>
            </Position>
            <AltitudeMeters>722.4000244140625</AltitudeMeters>
            <DistanceMeters>4225.6335231164</DistanceMeters>
          </Trackpoint>
          <Trackpoint>
            <Time>2019-08-01T07:50:50.000Z</Time>
            <Position>
              <LatitudeDegrees>40.4393446259200572967529296875</LatitudeDegrees>
              <LongitudeDegrees>-3.70072717778384685516357421875</LongitudeDegrees>
            </Position>
            <AltitudeMeters>722.5999755859375</AltitudeMeters>
            <DistanceMeters>4235.533646839</DistanceMeters>
          </Trackpoint>
          <Trackpoint>
            <Time>2019-08-01T07:50:51.000Z</Time>
            <Position>
              <LatitudeDegrees>40.43938695453107357025146484375</LatitudeDegrees>
              <LongitudeDegrees>-3.700740337371826171875</LongitudeDegrees>
            </Position>
            <AltitudeMeters>722.79998779296875</AltitudeMeters>
            <DistanceMeters>4240.3753488588</DistanceMeters>
          </Trackpoint>
          <Trackpoint>
            <Time>2019-08-01T07:50:56.000Z</Time>
            <Position>
              <LatitudeDegrees>40.43960656039416790008544921875</LatitudeDegrees>
              <LongitudeDegrees>-3.70082239620387554168701171875</LongitudeDegrees>
            </Position>
            <AltitudeMeters>723.79998779296875</AltitudeMeters>
            <DistanceMeters>4265.7871340511</DistanceMeters>
          </Trackpoint>
          <Trackpoint>
            <Time>2019-08-01T07:51:00.000Z</Time>
            <Position>
              <LatitudeDegrees>40.4397734440863132476806640625</LatitudeDegrees>
              <LongitudeDegrees>-3.7008940614759922027587890625</LongitudeDegrees>
            </Position>
            <AltitudeMeters>724.79998779296875</AltitudeMeters>
            <DistanceMeters>4285.3284715862</DistanceMeters>
          </Trackpoint>
          <Trackpoint>
            <Time>2019-08-01T07:51:07.000Z</Time>
            <Position>
              <LatitudeDegrees>40.44006303884088993072509765625</LatitudeDegrees>
              <LongitudeDegrees>-3.7010214664041996002197265625</LongitudeDegrees>
            </Position>
            <AltitudeMeters>725.79998779296875</AltitudeMeters>
            <DistanceMeters>4319.3198872843</DistanceMeters>
          </Trackpoint>
          <Trackpoint>
            <Time>2019-08-01T07:51:15.000Z</Time>
            <Position>
              <LatitudeDegrees>40.4404054395854473114013671875</LatitudeDegrees>
              <LongitudeDegrees>-3.70116655714809894561767578125</LongitudeDegrees>
            </Position>
            <AltitudeMeters>726.79998779296875</AltitudeMeters>
            <DistanceMeters>4359.3627961928</DistanceMeters>
          </Trackpoint>
          <Trackpoint>
            <Time>2019-08-01T07:51:20.000Z</Time>
            <Position>
              <LatitudeDegrees>40.44060752727091312408447265625</LatitudeDegrees>
              <LongitudeDegrees>-3.70124794542789459228515625</LongitudeDegrees>
            </Position>
            <AltitudeMeters>728</AltitudeMeters>
            <DistanceMeters>4382.8883862013</DistanceMeters>
          </Trackpoint>
          <Trackpoint>
            <Time>2019-08-01T07:51:24.000Z</Time>
            <Position>
              <LatitudeDegrees>40.44076276011765003204345703125</LatitudeDegrees>
              <LongitudeDegrees>-3.70131240226328372955322265625</LongitudeDegrees>
            </Position>
            <AltitudeMeters>728.79998779296875</AltitudeMeters>
            <DistanceMeters>4401.0083635607</DistanceMeters>
          </Trackpoint>
          <Trackpoint>
            <Time>2019-08-01T07:51:35.000Z</Time>
            <Position>
              <LatitudeDegrees>40.44118202291429042816162109375</LatitudeDegrees>
              <LongitudeDegrees>-3.701497055590152740478515625</LongitudeDegrees>
            </Position>
            <AltitudeMeters>729.5999755859375</AltitudeMeters>
            <DistanceMeters>4450.2248630872</DistanceMeters>
          </Trackpoint>
          <Trackpoint>
            <Time>2019-08-01T07:51:42.000Z</Time>
            <Position>
              <LatitudeDegrees>40.44146449305117130279541015625</LatitudeDegrees>
              <LongitudeDegrees>-3.70161549188196659088134765625</LongitudeDegrees>
            </Position>
            <AltitudeMeters>730.5999755859375</AltitudeMeters>
            <DistanceMeters>4483.2260963914</DistanceMeters>
          </Trackpoint>
          <Trackpoint>
            <Time>2019-08-01T07:51:43.000Z</Time>
            <Position>
              <LatitudeDegrees>40.441503636538982391357421875</LatitudeDegrees>
              <LongitudeDegrees>-3.70163041166961193084716796875</LongitudeDegrees>
            </Position>
            <AltitudeMeters>730.79998779296875</AltitudeMeters>
            <DistanceMeters>4487.7615692598</DistanceMeters>
          </Trackpoint>
          <Trackpoint>
            <Time>2019-08-01T07:51:46.000Z</Time>
            <Position>
              <LatitudeDegrees>40.44162140227854251861572265625</LatitudeDegrees>
              <LongitudeDegrees>-3.7016735784709453582763671875</LongitudeDegrees>
            </Position>
            <AltitudeMeters>731.4000244140625</AltitudeMeters>
            <DistanceMeters>4501.369315126</DistanceMeters>
          </Trackpoint>
          <Trackpoint>
            <Time>2019-08-01T07:51:48.000Z</Time>
            <Position>
              <LatitudeDegrees>40.4416952468454837799072265625</LatitudeDegrees>
              <LongitudeDegrees>-3.7017064355313777923583984375</LongitudeDegrees>
            </Position>
            <AltitudeMeters>732</AltitudeMeters>
            <DistanceMeters>4510.0469765314</DistanceMeters>
          </Trackpoint>
          <Trackpoint>
            <Time>2019-08-01T07:51:53.000Z</Time>
            <Position>
              <LatitudeDegrees>40.44188476167619228363037109375</LatitudeDegrees>
              <LongitudeDegrees>-3.70176988653838634490966796875</LongitudeDegrees>
            </Position>
            <AltitudeMeters>733.20001220703125</AltitudeMeters>
            <DistanceMeters>4531.814525111</DistanceMeters>
          </Trackpoint>
          <Trackpoint>
            <Time>2019-08-01T07:51:54.000Z</Time>
            <Position>
              <LatitudeDegrees>40.4419195465743541717529296875</LatitudeDegrees>
              <LongitudeDegrees>-3.70179670862853527069091796875</LongitudeDegrees>
            </Position>
            <AltitudeMeters>733.4000244140625</AltitudeMeters>
            <DistanceMeters>4536.3039716942</DistanceMeters>
          </Trackpoint>
          <Trackpoint>
            <Time>2019-08-01T07:51:58.000Z</Time>
            <Position>
              <LatitudeDegrees>40.44206212274730205535888671875</LatitudeDegrees>
              <LongitudeDegrees>-3.70190433226525783538818359375</LongitudeDegrees>
            </Position>
            <AltitudeMeters>734.20001220703125</AltitudeMeters>
            <DistanceMeters>4554.6054359924</DistanceMeters>
          </Trackpoint>
          <Trackpoint>
            <Time>2019-08-01T07:52:03.000Z</Time>
            <Position>
              <LatitudeDegrees>40.442267395555973052978515625</LatitudeDegrees>
              <LongitudeDegrees>-3.70191841386258602142333984375</LongitudeDegrees>
            </Position>
            <AltitudeMeters>734.4000244140625</AltitudeMeters>
            <DistanceMeters>4577.4837958767</DistanceMeters>
          </Trackpoint>
          <Trackpoint>
            <Time>2019-08-01T07:52:14.000Z</Time>
            <Position>
              <LatitudeDegrees>40.4427185095846652984619140625</LatitudeDegrees>
              <LongitudeDegrees>-3.70206191204488277435302734375</LongitudeDegrees>
            </Position>
            <AltitudeMeters>735</AltitudeMeters>
            <DistanceMeters>4629.1440795826</DistanceMeters>
          </Trackpoint>
          <Trackpoint>
            <Time>2019-08-01T07:52:19.000Z</Time>
            <Position>
              <LatitudeDegrees>40.4429133050143718719482421875</LatitudeDegrees>
              <LongitudeDegrees>-3.702124692499637603759765625</LongitudeDegrees>
            </Position>
            <AltitudeMeters>736.20001220703125</AltitudeMeters>
            <DistanceMeters>4651.4678753796</DistanceMeters>
          </Trackpoint>
          <Trackpoint>
            <Time>2019-08-01T07:52:25.000Z</Time>
            <Position>
              <LatitudeDegrees>40.4431422986090183258056640625</LatitudeDegrees>
              <LongitudeDegrees>-3.70221077464520931243896484375</LongitudeDegrees>
            </Position>
            <AltitudeMeters>737.20001220703125</AltitudeMeters>
            <DistanceMeters>4677.9777740842</DistanceMeters>
          </Trackpoint>
          <Trackpoint>
            <Time>2019-08-01T07:52:38.000Z</Time>
            <Position>
              <LatitudeDegrees>40.44368770904839038848876953125</LatitudeDegrees>
              <LongitudeDegrees>-3.7024286203086376190185546875</LongitudeDegrees>
            </Position>
            <AltitudeMeters>738.20001220703125</AltitudeMeters>
            <DistanceMeters>4741.4256674218</DistanceMeters>
          </Trackpoint>
          <Trackpoint>
            <Time>2019-08-01T07:52:39.000Z</Time>
            <Position>
              <LatitudeDegrees>40.44372626580297946929931640625</LatitudeDegrees>
              <LongitudeDegrees>-3.702443875372409820556640625</LongitudeDegrees>
            </Position>
            <AltitudeMeters>738.20001220703125</AltitudeMeters>
            <DistanceMeters>4745.9080685739</DistanceMeters>
          </Trackpoint>
          <Trackpoint>
            <Time>2019-08-01T07:52:47.000Z</Time>
            <Position>
              <LatitudeDegrees>40.44397923164069652557373046875</LatitudeDegrees>
              <LongitudeDegrees>-3.70255107991397380828857421875</LongitudeDegrees>
            </Position>
            <AltitudeMeters>739.20001220703125</AltitudeMeters>
            <DistanceMeters>4775.4920687953</DistanceMeters>
          </Trackpoint>
          <Trackpoint>
            <Time>2019-08-01T07:52:53.000Z</Time>
            <Position>
              <LatitudeDegrees>40.444061793386936187744140625</LatitudeDegrees>
              <LongitudeDegrees>-3.70258041657507419586181640625</LongitudeDegrees>
            </Position>
            <AltitudeMeters>739.79998779296875</AltitudeMeters>
            <DistanceMeters>4785.0113553818</DistanceMeters>
          </Trackpoint>
          <Trackpoint>
            <Time>2019-08-01T07:53:28.000Z</Time>
            <Position>
              <LatitudeDegrees>40.4441233165562152862548828125</LatitudeDegrees>
              <LongitudeDegrees>-3.7026100046932697296142578125</LongitudeDegrees>
            </Position>
            <AltitudeMeters>741.5999755859375</AltitudeMeters>
            <DistanceMeters>4792.3043074764</DistanceMeters>
          </Trackpoint>
          <Trackpoint>
            <Time>2019-08-01T07:53:45.000Z</Time>
            <Position>
              <LatitudeDegrees>40.4446564055979251861572265625</LatitudeDegrees>
              <LongitudeDegrees>-3.7028678320348262786865234375</LongitudeDegrees>
            </Position>
            <AltitudeMeters>741.4000244140625</AltitudeMeters>
            <DistanceMeters>4855.5297875495</DistanceMeters>
          </Trackpoint>
          <Trackpoint>
            <Time>2019-08-01T07:53:51.000Z</Time>
            <Position>
              <LatitudeDegrees>40.4448726586997509002685546875</LatitudeDegrees>
              <LongitudeDegrees>-3.7029432691633701324462890625</LongitudeDegrees>
            </Position>
            <AltitudeMeters>742</AltitudeMeters>
            <DistanceMeters>4880.4333144116</DistanceMeters>
          </Trackpoint>
          <Trackpoint>
            <Time>2019-08-01T07:53:58.000Z</Time>
            <Position>
              <LatitudeDegrees>40.44515521265566349029541015625</LatitudeDegrees>
              <LongitudeDegrees>-3.7031058780848979949951171875</LongitudeDegrees>
            </Position>
            <AltitudeMeters>742.79998779296875</AltitudeMeters>
            <DistanceMeters>4914.7661125588</DistanceMeters>
          </Trackpoint>
          <Trackpoint>
            <Time>2019-08-01T07:54:04.000Z</Time>
            <Position>
              <LatitudeDegrees>40.44537900947034358978271484375</LatitudeDegrees>
              <LongitudeDegrees>-3.70321056805551052093505859375</LongitudeDegrees>
            </Position>
            <AltitudeMeters>744</AltitudeMeters>
            <DistanceMeters>4941.2066021196</DistanceMeters>
          </Trackpoint>
          <Trackpoint>
            <Time>2019-08-01T07:54:14.000Z</Time>
            <Position>
              <LatitudeDegrees>40.44576524756848812103271484375</LatitudeDegrees>
              <LongitudeDegrees>-3.70338943786919116973876953125</LongitudeDegrees>
            </Position>
            <AltitudeMeters>744.79998779296875</AltitudeMeters>
            <DistanceMeters>4986.7873422181</DistanceMeters>
          </Trackpoint>
          <Trackpoint>
            <Time>2019-08-01T07:54:22.000Z</Time>
            <Position>
              <LatitudeDegrees>40.446091555058956146240234375</LatitudeDegrees>
              <LongitudeDegrees>-3.7035424076020717620849609375</LongitudeDegrees>
            </Position>
            <AltitudeMeters>745.5999755859375</AltitudeMeters>
            <DistanceMeters>5025.3480541873</DistanceMeters>
          </Trackpoint>
          <Trackpoint>
            <Time>2019-08-01T07:54:29.000Z</Time>
            <Position>
              <LatitudeDegrees>40.446345694363117218017578125</LatitudeDegrees>
              <LongitudeDegrees>-3.7036439962685108184814453125</LongitudeDegrees>
            </Position>
            <AltitudeMeters>746.5999755859375</AltitudeMeters>
            <DistanceMeters>5054.9143454704</DistanceMeters>
          </Trackpoint>
          <Trackpoint>
            <Time>2019-08-01T07:54:38.000Z</Time>
            <Position>
              <LatitudeDegrees>40.4466429166495800018310546875</LatitudeDegrees>
              <LongitudeDegrees>-3.7037465907633304595947265625</LongitudeDegrees>
            </Position>
            <AltitudeMeters>747.79998779296875</AltitudeMeters>
            <DistanceMeters>5089.1180229583</DistanceMeters>
          </Trackpoint>
          <Trackpoint>
            <Time>2019-08-01T07:54:44.000Z</Time>
            <Position>
              <LatitudeDegrees>40.44693879783153533935546875</LatitudeDegrees>
              <LongitudeDegrees>-3.7036875821650028228759765625</LongitudeDegrees>
            </Position>
            <AltitudeMeters>748.20001220703125</AltitudeMeters>
            <DistanceMeters>5122.4274279754</DistanceMeters>
          </Trackpoint>
          <Trackpoint>
            <Time>2019-08-01T07:54:48.000Z</Time>
            <Position>
              <LatitudeDegrees>40.44717474840581417083740234375</LatitudeDegrees>
              <LongitudeDegrees>-3.703698478639125823974609375</LongitudeDegrees>
            </Position>
            <AltitudeMeters>746.4000244140625</AltitudeMeters>
            <DistanceMeters>5148.7053644559</DistanceMeters>
          </Trackpoint>
          <Trackpoint>
            <Time>2019-08-01T07:54:52.000Z</Time>
            <Position>
              <LatitudeDegrees>40.447438023984432220458984375</LatitudeDegrees>
              <LongitudeDegrees>-3.70375472120940685272216796875</LongitudeDegrees>
            </Position>
            <AltitudeMeters>746</AltitudeMeters>
            <DistanceMeters>5178.3932674003</DistanceMeters>
          </Trackpoint>
          <Trackpoint>
            <Time>2019-08-01T07:55:03.000Z</Time>
            <Position>
              <LatitudeDegrees>40.447983853518962860107421875</LatitudeDegrees>
              <LongitudeDegrees>-3.70370761491358280181884765625</LongitudeDegrees>
            </Position>
            <AltitudeMeters>746</AltitudeMeters>
            <DistanceMeters>5239.2760312101</DistanceMeters>
          </Trackpoint>
          <Trackpoint>
            <Time>2019-08-01T07:55:19.000Z</Time>
            <Position>
              <LatitudeDegrees>40.448545105755329132080078125</LatitudeDegrees>
              <LongitudeDegrees>-3.703645169734954833984375</LongitudeDegrees>
            </Position>
            <AltitudeMeters>745.5999755859375</AltitudeMeters>
            <DistanceMeters>5301.9680290392</DistanceMeters>
          </Trackpoint>
          <Trackpoint>
            <Time>2019-08-01T07:55:25.000Z</Time>
            <Position>
              <LatitudeDegrees>40.44886487536132335662841796875</LatitudeDegrees>
              <LongitudeDegrees>-3.7035799585282802581787109375</LongitudeDegrees>
            </Position>
            <AltitudeMeters>745.20001220703125</AltitudeMeters>
            <DistanceMeters>5337.9850342123</DistanceMeters>
          </Trackpoint>
          <Trackpoint>
            <Time>2019-08-01T07:55:27.000Z</Time>
            <Position>
              <LatitudeDegrees>40.4489774443209171295166015625</LatitudeDegrees>
              <LongitudeDegrees>-3.703563027083873748779296875</LongitudeDegrees>
            </Position>
            <AltitudeMeters>745.20001220703125</AltitudeMeters>
            <DistanceMeters>5350.5964075082</DistanceMeters>
          </Trackpoint>
          <Trackpoint>
            <Time>2019-08-01T07:55:29.000Z</Time>
            <Position>
              <LatitudeDegrees>40.44908733107149600982666015625</LatitudeDegrees>
              <LongitudeDegrees>-3.7035387195646762847900390625</LongitudeDegrees>
            </Position>
            <AltitudeMeters>745</AltitudeMeters>
            <DistanceMeters>5362.9994870572</DistanceMeters>
          </Trackpoint>
          <Trackpoint>
            <Time>2019-08-01T07:55:39.000Z</Time>
            <Position>
              <LatitudeDegrees>40.44964103959500789642333984375</LatitudeDegrees>
              <LongitudeDegrees>-3.703447021543979644775390625</LongitudeDegrees>
            </Position>
            <AltitudeMeters>744.5999755859375</AltitudeMeters>
            <DistanceMeters>5425.1157834176</DistanceMeters>
          </Trackpoint>
          <Trackpoint>
            <Time>2019-08-01T07:55:47.000Z</Time>
            <Position>
              <LatitudeDegrees>40.44981840066611766815185546875</LatitudeDegrees>
              <LongitudeDegrees>-3.70340083725750446319580078125</LongitudeDegrees>
            </Position>
            <AltitudeMeters>744.5999755859375</AltitudeMeters>
            <DistanceMeters>5445.2403685938</DistanceMeters>
          </Trackpoint>
          <Trackpoint>
            <Time>2019-08-01T07:56:27.000Z</Time>
            <Position>
              <LatitudeDegrees>40.449871122837066650390625</LatitudeDegrees>
              <LongitudeDegrees>-3.7034019269049167633056640625</LongitudeDegrees>
            </Position>
            <AltitudeMeters>745.79998779296875</AltitudeMeters>
            <DistanceMeters>5451.1097588205</DistanceMeters>
          </Trackpoint>
          <Trackpoint>
            <Time>2019-08-01T07:56:28.000Z</Time>
            <Position>
              <LatitudeDegrees>40.4499034769833087921142578125</LatitudeDegrees>
              <LongitudeDegrees>-3.70339429937303066253662109375</LongitudeDegrees>
            </Position>
            <AltitudeMeters>745.79998779296875</AltitudeMeters>
            <DistanceMeters>5454.7679787824</DistanceMeters>
          </Trackpoint>
          <Trackpoint>
            <Time>2019-08-01T07:56:36.000Z</Time>
            <Position>
              <LatitudeDegrees>40.45024855993688106536865234375</LatitudeDegrees>
              <LongitudeDegrees>-3.70334803126752376556396484375</LongitudeDegrees>
            </Position>
            <AltitudeMeters>745.4000244140625</AltitudeMeters>
            <DistanceMeters>5493.3759657599</DistanceMeters>
          </Trackpoint>
          <Trackpoint>
            <Time>2019-08-01T07:56:40.000Z</Time>
            <Position>
              <LatitudeDegrees>40.45042508281767368316650390625</LatitudeDegrees>
              <LongitudeDegrees>-3.70331936515867710113525390625</LongitudeDegrees>
            </Position>
            <AltitudeMeters>745.79998779296875</AltitudeMeters>
            <DistanceMeters>5513.1730205364</DistanceMeters>
          </Trackpoint>
          <Trackpoint>
            <Time>2019-08-01T07:56:53.000Z</Time>
            <Position>
              <LatitudeDegrees>40.45099572278559207916259765625</LatitudeDegrees>
              <LongitudeDegrees>-3.703241832554340362548828125</LongitudeDegrees>
            </Position>
            <AltitudeMeters>746.20001220703125</AltitudeMeters>
            <DistanceMeters>5577.0249624364</DistanceMeters>
          </Trackpoint>
          <Trackpoint>
            <Time>2019-08-01T07:56:59.000Z</Time>
            <Position>
              <LatitudeDegrees>40.4512797854840755462646484375</LatitudeDegrees>
              <LongitudeDegrees>-3.703245185315608978271484375</LongitudeDegrees>
            </Position>
            <AltitudeMeters>746.79998779296875</AltitudeMeters>
            <DistanceMeters>5608.6430221959</DistanceMeters>
          </Trackpoint>
          <Trackpoint>
            <Time>2019-08-01T07:57:00.000Z</Time>
            <Position>
              <LatitudeDegrees>40.451326556503772735595703125</LatitudeDegrees>
              <LongitudeDegrees>-3.703234456479549407958984375</LongitudeDegrees>
            </Position>
            <AltitudeMeters>746.79998779296875</AltitudeMeters>
            <DistanceMeters>5613.927054403</DistanceMeters>
          </Trackpoint>
          <Trackpoint>
            <Time>2019-08-01T07:57:12.000Z</Time>
            <Position>
              <LatitudeDegrees>40.451914630830287933349609375</LatitudeDegrees>
              <LongitudeDegrees>-3.7031635455787181854248046875</LongitudeDegrees>
            </Position>
            <AltitudeMeters>747.4000244140625</AltitudeMeters>
            <DistanceMeters>5679.6558725368</DistanceMeters>
          </Trackpoint>
          <Trackpoint>
            <Time>2019-08-01T07:57:14.000Z</Time>
            <Position>
              <LatitudeDegrees>40.45200683176517486572265625</LatitudeDegrees>
              <LongitudeDegrees>-3.70314183644950389862060546875</LongitudeDegrees>
            </Position>
            <AltitudeMeters>747.5999755859375</AltitudeMeters>
            <DistanceMeters>5690.0815634087</DistanceMeters>
          </Trackpoint>
          <Trackpoint>
            <Time>2019-08-01T07:57:23.000Z</Time>
            <Position>
              <LatitudeDegrees>40.45238996855914592742919921875</LatitudeDegrees>
              <LongitudeDegrees>-3.70306002907454967498779296875</LongitudeDegrees>
            </Position>
            <AltitudeMeters>748.4000244140625</AltitudeMeters>
            <DistanceMeters>5733.2847670049</DistanceMeters>
          </Trackpoint>
          <Trackpoint>
            <Time>2019-08-01T07:57:38.000Z</Time>
            <Position>
              <LatitudeDegrees>40.45265869237482547760009765625</LatitudeDegrees>
              <LongitudeDegrees>-3.7030510604381561279296875</LongitudeDegrees>
            </Position>
            <AltitudeMeters>748</AltitudeMeters>
            <DistanceMeters>5763.2038491748</DistanceMeters>
          </Trackpoint>
          <Trackpoint>
            <Time>2019-08-01T07:58:10.000Z</Time>
            <Position>
              <LatitudeDegrees>40.45271887443959712982177734375</LatitudeDegrees>
              <LongitudeDegrees>-3.7030559219419956207275390625</LongitudeDegrees>
            </Position>
            <AltitudeMeters>747</AltitudeMeters>
            <DistanceMeters>5769.9151844594</DistanceMeters>
          </Trackpoint>
          <Trackpoint>
            <Time>2019-08-01T07:58:15.000Z</Time>
            <Position>
              <LatitudeDegrees>40.4529275000095367431640625</LatitudeDegrees>
              <LongitudeDegrees>-3.70302281342446804046630859375</LongitudeDegrees>
            </Position>
            <AltitudeMeters>746.4000244140625</AltitudeMeters>
            <DistanceMeters>5793.3043071674</DistanceMeters>
          </Trackpoint>
          <Trackpoint>
            <Time>2019-08-01T07:58:20.000Z</Time>
            <Position>
              <LatitudeDegrees>40.453154481947422027587890625</LatitudeDegrees>
              <LongitudeDegrees>-3.7029486335813999176025390625</LongitudeDegrees>
            </Position>
            <AltitudeMeters>746.20001220703125</AltitudeMeters>
            <DistanceMeters>5819.3372913835</DistanceMeters>
          </Trackpoint>
          <Trackpoint>
            <Time>2019-08-01T07:58:26.000Z</Time>
            <Position>
              <LatitudeDegrees>40.453432090580463409423828125</LatitudeDegrees>
              <LongitudeDegrees>-3.70288568548858165740966796875</LongitudeDegrees>
            </Position>
            <AltitudeMeters>746.4000244140625</AltitudeMeters>
            <DistanceMeters>5850.6923634256</DistanceMeters>
          </Trackpoint>
          <Trackpoint>
            <Time>2019-08-01T07:58:38.000Z</Time>
            <Position>
              <LatitudeDegrees>40.4539904929697513580322265625</LatitudeDegrees>
              <LongitudeDegrees>-3.70284277014434337615966796875</LongitudeDegrees>
            </Position>
            <AltitudeMeters>747</AltitudeMeters>
            <DistanceMeters>5912.949802677</DistanceMeters>
          </Trackpoint>
          <Trackpoint>
            <Time>2019-08-01T07:58:42.000Z</Time>
            <Position>
              <LatitudeDegrees>40.4541906528174877166748046875</LatitudeDegrees>
              <LongitudeDegrees>-3.70280404575169086456298828125</LongitudeDegrees>
            </Position>
            <AltitudeMeters>747.20001220703125</AltitudeMeters>
            <DistanceMeters>5935.4681266074</DistanceMeters>
          </Trackpoint>
          <Trackpoint>
            <Time>2019-08-01T07:58:54.000Z</Time>
            <Position>
              <LatitudeDegrees>40.45473690144717693328857421875</LatitudeDegrees>
              <LongitudeDegrees>-3.702699355781078338623046875</LongitudeDegrees>
            </Position>
            <AltitudeMeters>747.20001220703125</AltitudeMeters>
            <DistanceMeters>5996.9098605344</DistanceMeters>
          </Trackpoint>
          <Trackpoint>
            <Time>2019-08-01T07:59:04.000Z</Time>
            <Position>
              <LatitudeDegrees>40.45489012263715267181396484375</LatitudeDegrees>
              <LongitudeDegrees>-3.70268703438341617584228515625</LongitudeDegrees>
            </Position>
            <AltitudeMeters>747.5999755859375</AltitudeMeters>
            <DistanceMeters>6013.9956532079</DistanceMeters>
          </Trackpoint>
          <Trackpoint>
            <Time>2019-08-01T07:59:26.000Z</Time>
            <Position>
              <LatitudeDegrees>40.4549337923526763916015625</LatitudeDegrees>
              <LongitudeDegrees>-3.70268024504184722900390625</LongitudeDegrees>
            </Position>
            <AltitudeMeters>747.4000244140625</AltitudeMeters>
            <DistanceMeters>6018.8902208911</DistanceMeters>
          </Trackpoint>
          <Trackpoint>
            <Time>2019-08-01T07:59:40.000Z</Time>
            <Position>
              <LatitudeDegrees>40.45549504458904266357421875</LatitudeDegrees>
              <LongitudeDegrees>-3.7024534307420253753662109375</LongitudeDegrees>
            </Position>
            <AltitudeMeters>726.4000244140625</AltitudeMeters>
            <DistanceMeters>6084.2455302301</DistanceMeters>
          </Trackpoint>
          <Trackpoint>
            <Time>2019-08-01T07:59:43.000Z</Time>
            <Position>
              <LatitudeDegrees>40.4556246288120746612548828125</LatitudeDegrees>
              <LongitudeDegrees>-3.7023939192295074462890625</LongitudeDegrees>
            </Position>
            <AltitudeMeters>748.4000244140625</AltitudeMeters>
            <DistanceMeters>6099.5238637805</DistanceMeters>
          </Trackpoint>
          <Trackpoint>
            <Time>2019-08-01T07:59:48.000Z</Time>
            <Position>
              <LatitudeDegrees>40.45583836734294891357421875</LatitudeDegrees>
              <LongitudeDegrees>-3.7022904865443706512451171875</LongitudeDegrees>
            </Position>
            <AltitudeMeters>749</AltitudeMeters>
            <DistanceMeters>6124.8748113075</DistanceMeters>
          </Trackpoint>
          <Trackpoint>
            <Time>2019-08-01T07:59:56.000Z</Time>
            <Position>
              <LatitudeDegrees>40.45619032345712184906005859375</LatitudeDegrees>
              <LongitudeDegrees>-3.702152185142040252685546875</LongitudeDegrees>
            </Position>
            <AltitudeMeters>749.79998779296875</AltitudeMeters>
            <DistanceMeters>6165.7617047096</DistanceMeters>
          </Trackpoint>
          <Trackpoint>
            <Time>2019-08-01T08:00:06.000Z</Time>
            <Position>
              <LatitudeDegrees>40.45663439668715000152587890625</LatitudeDegrees>
              <LongitudeDegrees>-3.7019458226859569549560546875</LongitudeDegrees>
            </Position>
            <AltitudeMeters>750.79998779296875</AltitudeMeters>
            <DistanceMeters>6218.1868329068</DistanceMeters>
          </Trackpoint>
          <Trackpoint>
            <Time>2019-08-01T08:00:14.000Z</Time>
            <Position>
              <LatitudeDegrees>40.45694301836192607879638671875</LatitudeDegrees>
              <LongitudeDegrees>-3.70175396092236042022705078125</LongitudeDegrees>
            </Position>
            <AltitudeMeters>751.79998779296875</AltitudeMeters>
            <DistanceMeters>6256.1863513755</DistanceMeters>
          </Trackpoint>
          <Trackpoint>
            <Time>2019-08-01T08:00:21.000Z</Time>
            <Position>
              <LatitudeDegrees>40.45714921317994594573974609375</LatitudeDegrees>
              <LongitudeDegrees>-3.70163326151669025421142578125</LongitudeDegrees>
            </Position>
            <AltitudeMeters>752.5999755859375</AltitudeMeters>
            <DistanceMeters>6281.3099122966</DistanceMeters>
          </Trackpoint>
          <Trackpoint>
            <Time>2019-08-01T08:00:29.000Z</Time>
            <Position>
              <LatitudeDegrees>40.45729212462902069091796875</LatitudeDegrees>
              <LongitudeDegrees>-3.70157525874674320220947265625</LongitudeDegrees>
            </Position>
            <AltitudeMeters>753.4000244140625</AltitudeMeters>
            <DistanceMeters>6297.9577682011</DistanceMeters>
          </Trackpoint>
          <Trackpoint>
            <Time>2019-08-01T08:00:40.000Z</Time>
            <Position>
              <LatitudeDegrees>40.45740477740764617919921875</LatitudeDegrees>
              <LongitudeDegrees>-3.701488673686981201171875</LongitudeDegrees>
            </Position>
            <AltitudeMeters>754.4000244140625</AltitudeMeters>
            <DistanceMeters>6312.4834959347</DistanceMeters>
          </Trackpoint>
          <Trackpoint>
            <Time>2019-08-01T08:00:42.000Z</Time>
            <Position>
              <LatitudeDegrees>40.45740368776023387908935546875</LatitudeDegrees>
              <LongitudeDegrees>-3.70148439891636371612548828125</LongitudeDegrees>
            </Position>
            <AltitudeMeters>754.5999755859375</AltitudeMeters>
            <DistanceMeters>6312.8390533425</DistanceMeters>
          </Trackpoint>
          <Trackpoint>
            <Time>2019-08-01T08:01:06.000Z</Time>
            <Position>
              <LatitudeDegrees>40.45741978101432323455810546875</LatitudeDegrees>
              <LongitudeDegrees>-3.70147115550935268402099609375</LongitudeDegrees>
            </Position>
            <AltitudeMeters>755.4000244140625</AltitudeMeters>
            <DistanceMeters>6314.9532642685</DistanceMeters>
          </Trackpoint>
          <Trackpoint>
            <Time>2019-08-01T08:01:14.000Z</Time>
            <Position>
              <LatitudeDegrees>40.457661934196949005126953125</LatitudeDegrees>
              <LongitudeDegrees>-3.701300583779811859130859375</LongitudeDegrees>
            </Position>
            <AltitudeMeters>754.4000244140625</AltitudeMeters>
            <DistanceMeters>6345.5323825672</DistanceMeters>
          </Trackpoint>
          <Trackpoint>
            <Time>2019-08-01T08:01:26.000Z</Time>
            <Position>
              <LatitudeDegrees>40.45815001241862773895263671875</LatitudeDegrees>
              <LongitudeDegrees>-3.70088257826864719390869140625</LongitudeDegrees>
            </Position>
            <AltitudeMeters>754.5999755859375</AltitudeMeters>
            <DistanceMeters>6410.3727106138</DistanceMeters>
          </Trackpoint>
          <Trackpoint>
            <Time>2019-08-01T08:01:36.000Z</Time>
            <Position>
              <LatitudeDegrees>40.458561815321445465087890625</LatitudeDegrees>
              <LongitudeDegrees>-3.7004930712282657623291015625</LongitudeDegrees>
            </Position>
            <AltitudeMeters>755.20001220703125</AltitudeMeters>
            <DistanceMeters>6466.8430502231</DistanceMeters>
          </Trackpoint>
          <Trackpoint>
            <Time>2019-08-01T08:01:40.000Z</Time>
            <Position>
              <LatitudeDegrees>40.458720065653324127197265625</LatitudeDegrees>
              <LongitudeDegrees>-3.700323589146137237548828125</LongitudeDegrees>
            </Position>
            <AltitudeMeters>755.20001220703125</AltitudeMeters>
            <DistanceMeters>6489.5639753853</DistanceMeters>
          </Trackpoint>
          <Trackpoint>
            <Time>2019-08-01T08:01:52.000Z</Time>
            <Position>
              <LatitudeDegrees>40.45916019938886165618896484375</LatitudeDegrees>
              <LongitudeDegrees>-3.6998272128403186798095703125</LongitudeDegrees>
            </Position>
            <AltitudeMeters>756</AltitudeMeters>
            <DistanceMeters>6554.1151685152</DistanceMeters>
          </Trackpoint>
          <Trackpoint>
            <Time>2019-08-01T08:01:54.000Z</Time>
            <Position>
              <LatitudeDegrees>40.45922457240521907806396484375</LatitudeDegrees>
              <LongitudeDegrees>-3.6997547931969165802001953125</LongitudeDegrees>
            </Position>
            <AltitudeMeters>756.20001220703125</AltitudeMeters>
            <DistanceMeters>6563.5463006303</DistanceMeters>
          </Trackpoint>
          <Trackpoint>
            <Time>2019-08-01T08:02:10.000Z</Time>
            <Position>
              <LatitudeDegrees>40.45944099314510822296142578125</LatitudeDegrees>
              <LongitudeDegrees>-3.69950057007372379302978515625</LongitudeDegrees>
            </Position>
            <AltitudeMeters>756.4000244140625</AltitudeMeters>
            <DistanceMeters>6595.853147516</DistanceMeters>
          </Trackpoint>
          <Trackpoint>
            <Time>2019-08-01T08:02:37.000Z</Time>
            <Position>
              <LatitudeDegrees>40.45947368256747722625732421875</LatitudeDegrees>
              <LongitudeDegrees>-3.6994775198400020599365234375</LongitudeDegrees>
            </Position>
            <AltitudeMeters>757.4000244140625</AltitudeMeters>
            <DistanceMeters>6599.9821648721</DistanceMeters>
          </Trackpoint>
          <Trackpoint>
            <Time>2019-08-01T08:02:43.000Z</Time>
            <Position>
              <LatitudeDegrees>40.45964232645928859710693359375</LatitudeDegrees>
              <LongitudeDegrees>-3.6992813833057880401611328125</LongitudeDegrees>
            </Position>
            <AltitudeMeters>757.4000244140625</AltitudeMeters>
            <DistanceMeters>6625.0463502394</DistanceMeters>
          </Trackpoint>
          <Trackpoint>
            <Time>2019-08-01T08:02:53.000Z</Time>
            <Position>
              <LatitudeDegrees>40.4600824601948261260986328125</LatitudeDegrees>
              <LongitudeDegrees>-3.69880939833819866180419921875</LongitudeDegrees>
            </Position>
            <AltitudeMeters>756.79998779296875</AltitudeMeters>
            <DistanceMeters>6688.2714732531</DistanceMeters>
          </Trackpoint>
          <Trackpoint>
            <Time>2019-08-01T08:03:03.000Z</Time>
            <Position>
              <LatitudeDegrees>40.46058411709964275360107421875</LatitudeDegrees>
              <LongitudeDegrees>-3.69840203784406185150146484375</LongitudeDegrees>
            </Position>
            <AltitudeMeters>758</AltitudeMeters>
            <DistanceMeters>6753.9040522535</DistanceMeters>
          </Trackpoint>
          <Trackpoint>
            <Time>2019-08-01T08:03:05.000Z</Time>
            <Position>
              <LatitudeDegrees>40.46068369410932064056396484375</LatitudeDegrees>
              <LongitudeDegrees>-3.6983449570834636688232421875</LongitudeDegrees>
            </Position>
            <AltitudeMeters>758.5999755859375</AltitudeMeters>
            <DistanceMeters>6765.9952448178</DistanceMeters>
          </Trackpoint>
          <Trackpoint>
            <Time>2019-08-01T08:03:08.000Z</Time>
            <Position>
              <LatitudeDegrees>40.46083590947091579437255859375</LatitudeDegrees>
              <LongitudeDegrees>-3.69826843030750751495361328125</LongitudeDegrees>
            </Position>
            <AltitudeMeters>757.5999755859375</AltitudeMeters>
            <DistanceMeters>6784.1343984747</DistanceMeters>
          </Trackpoint>
          <Trackpoint>
            <Time>2019-08-01T08:03:19.000Z</Time>
            <Position>
              <LatitudeDegrees>40.4613608680665493011474609375</LatitudeDegrees>
              <LongitudeDegrees>-3.69799450971186161041259765625</LongitudeDegrees>
            </Position>
            <AltitudeMeters>756.79998779296875</AltitudeMeters>
            <DistanceMeters>6846.9995797429</DistanceMeters>
          </Trackpoint>
          <Trackpoint>
            <Time>2019-08-01T08:03:31.000Z</Time>
            <Position>
              <LatitudeDegrees>40.4618922807276248931884765625</LatitudeDegrees>
              <LongitudeDegrees>-3.69773291051387786865234375</LongitudeDegrees>
            </Position>
            <AltitudeMeters>757.4000244140625</AltitudeMeters>
            <DistanceMeters>6910.1593268936</DistanceMeters>
          </Trackpoint>
          <Trackpoint>
            <Time>2019-08-01T08:03:33.000Z</Time>
            <Position>
              <LatitudeDegrees>40.4619734175503253936767578125</LatitudeDegrees>
              <LongitudeDegrees>-3.69768739677965641021728515625</LongitudeDegrees>
            </Position>
            <AltitudeMeters>757.4000244140625</AltitudeMeters>
            <DistanceMeters>6919.9779365771</DistanceMeters>
          </Trackpoint>
          <Trackpoint>
            <Time>2019-08-01T08:03:46.000Z</Time>
            <Position>
              <LatitudeDegrees>40.46226720325648784637451171875</LatitudeDegrees>
              <LongitudeDegrees>-3.69745153002440929412841796875</LongitudeDegrees>
            </Position>
            <AltitudeMeters>758.4000244140625</AltitudeMeters>
            <DistanceMeters>6958.2948006042</DistanceMeters>
          </Trackpoint>
          <Trackpoint>
            <Time>2019-08-01T08:03:47.000Z</Time>
            <Position>
              <LatitudeDegrees>40.46227307058870792388916015625</LatitudeDegrees>
              <LongitudeDegrees>-3.69746728800237178802490234375</LongitudeDegrees>
            </Position>
            <AltitudeMeters>758.4000244140625</AltitudeMeters>
            <DistanceMeters>6959.7791653344</DistanceMeters>
          </Trackpoint>
          <Trackpoint>
            <Time>2019-08-01T08:04:08.000Z</Time>
            <Position>
              <LatitudeDegrees>40.46229871921241283416748046875</LatitudeDegrees>
              <LongitudeDegrees>-3.6974640190601348876953125</LongitudeDegrees>
            </Position>
            <AltitudeMeters>760.20001220703125</AltitudeMeters>
            <DistanceMeters>6962.6489091761</DistanceMeters>
          </Trackpoint>
          <Trackpoint>
            <Time>2019-08-01T08:04:22.000Z</Time>
            <Position>
              <LatitudeDegrees>40.46269501559436321258544921875</LatitudeDegrees>
              <LongitudeDegrees>-3.6971262283623218536376953125</LongitudeDegrees>
            </Position>
            <AltitudeMeters>761.20001220703125</AltitudeMeters>
            <DistanceMeters>7015.2207588384</DistanceMeters>
          </Trackpoint>
          <Trackpoint>
            <Time>2019-08-01T08:04:28.000Z</Time>
            <Position>
              <LatitudeDegrees>40.46288914047181606292724609375</LatitudeDegrees>
              <LongitudeDegrees>-3.69695146568119525909423828125</LongitudeDegrees>
            </Position>
            <AltitudeMeters>762.4000244140625</AltitudeMeters>
            <DistanceMeters>7041.4095420494</DistanceMeters>
          </Trackpoint>
          <Trackpoint>
            <Time>2019-08-01T08:04:35.000Z</Time>
            <Position>
              <LatitudeDegrees>40.4631381668150424957275390625</LatitudeDegrees>
              <LongitudeDegrees>-3.696739487349987030029296875</LongitudeDegrees>
            </Position>
            <AltitudeMeters>763.4000244140625</AltitudeMeters>
            <DistanceMeters>7074.4317012958</DistanceMeters>
          </Trackpoint>
          <Trackpoint>
            <Time>2019-08-01T08:04:45.000Z</Time>
            <Position>
              <LatitudeDegrees>40.4634935595095157623291015625</LatitudeDegrees>
              <LongitudeDegrees>-3.69643203914165496826171875</LongitudeDegrees>
            </Position>
            <AltitudeMeters>764.4000244140625</AltitudeMeters>
            <DistanceMeters>7121.7866700298</DistanceMeters>
          </Trackpoint>
          <Trackpoint>
            <Time>2019-08-01T08:04:56.000Z</Time>
            <Position>
              <LatitudeDegrees>40.46389346010982990264892578125</LatitudeDegrees>
              <LongitudeDegrees>-3.69607388041913509368896484375</LongitudeDegrees>
            </Position>
            <AltitudeMeters>765.5999755859375</AltitudeMeters>
            <DistanceMeters>7175.6472886495</DistanceMeters>
          </Trackpoint>
          <Trackpoint>
            <Time>2019-08-01T08:05:05.000Z</Time>
            <Position>
              <LatitudeDegrees>40.46422387473285198211669921875</LatitudeDegrees>
              <LongitudeDegrees>-3.6957500874996185302734375</LongitudeDegrees>
            </Position>
            <AltitudeMeters>766.20001220703125</AltitudeMeters>
            <DistanceMeters>7221.5193127321</DistanceMeters>
          </Trackpoint>
          <Trackpoint>
            <Time>2019-08-01T08:05:14.000Z</Time>
            <Position>
              <LatitudeDegrees>40.464431829750537872314453125</LatitudeDegrees>
              <LongitudeDegrees>-3.69527399539947509765625</LongitudeDegrees>
            </Position>
            <AltitudeMeters>766.4000244140625</AltitudeMeters>
            <DistanceMeters>7268.0064163669</DistanceMeters>
          </Trackpoint>
          <Trackpoint>
            <Time>2019-08-01T08:05:28.000Z</Time>
            <Position>
              <LatitudeDegrees>40.46466794796288013458251953125</LatitudeDegrees>
              <LongitudeDegrees>-3.694607131183147430419921875</LongitudeDegrees>
            </Position>
            <AltitudeMeters>766.4000244140625</AltitudeMeters>
            <DistanceMeters>7330.2918428457</DistanceMeters>
          </Trackpoint>
          <Trackpoint>
            <Time>2019-08-01T08:05:40.000Z</Time>
            <Position>
              <LatitudeDegrees>40.4647317342460155487060546875</LatitudeDegrees>
              <LongitudeDegrees>-3.69437721557915210723876953125</LongitudeDegrees>
            </Position>
            <AltitudeMeters>767</AltitudeMeters>
            <DistanceMeters>7351.0150755936</DistanceMeters>
          </Trackpoint>
          <Trackpoint>
            <Time>2019-08-01T08:05:47.000Z</Time>
            <Position>
              <LatitudeDegrees>40.46474732458591461181640625</LatitudeDegrees>
              <LongitudeDegrees>-3.69431175291538238525390625</LongitudeDegrees>
            </Position>
            <AltitudeMeters>767.20001220703125</AltitudeMeters>
            <DistanceMeters>7356.8249315081</DistanceMeters>
          </Trackpoint>
          <Trackpoint>
            <Time>2019-08-01T08:05:50.000Z</Time>
            <Position>
              <LatitudeDegrees>40.4647743143141269683837890625</LatitudeDegrees>
              <LongitudeDegrees>-3.6942103318870067596435546875</LongitudeDegrees>
            </Position>
            <AltitudeMeters>767.4000244140625</AltitudeMeters>
            <DistanceMeters>7365.923708395</DistanceMeters>
          </Trackpoint>
          <Trackpoint>
            <Time>2019-08-01T08:06:03.000Z</Time>
            <Position>
              <LatitudeDegrees>40.46500590629875659942626953125</LatitudeDegrees>
              <LongitudeDegrees>-3.6935340799391269683837890625</LongitudeDegrees>
            </Position>
            <AltitudeMeters>767.4000244140625</AltitudeMeters>
            <DistanceMeters>7428.7220606409</DistanceMeters>
          </Trackpoint>
          <Trackpoint>
            <Time>2019-08-01T08:06:08.000Z</Time>
            <Position>
              <LatitudeDegrees>40.46509726904332637786865234375</LatitudeDegrees>
              <LongitudeDegrees>-3.69325974024832248687744140625</LongitudeDegrees>
            </Position>
            <AltitudeMeters>768</AltitudeMeters>
            <DistanceMeters>7454.0808434169</DistanceMeters>
          </Trackpoint>
          <Trackpoint>
            <Time>2019-08-01T08:06:11.000Z</Time>
            <Position>
              <LatitudeDegrees>40.46516097150743007659912109375</LatitudeDegrees>
              <LongitudeDegrees>-3.6931055970489978790283203125</LongitudeDegrees>
            </Position>
            <AltitudeMeters>768.5999755859375</AltitudeMeters>
            <DistanceMeters>7468.9348290043</DistanceMeters>
          </Trackpoint>
          <Trackpoint>
            <Time>2019-08-01T08:06:15.000Z</Time>
            <Position>
              <LatitudeDegrees>40.4652302898466587066650390625</LatitudeDegrees>
              <LongitudeDegrees>-3.692890517413616180419921875</LongitudeDegrees>
            </Position>
            <AltitudeMeters>768.5999755859375</AltitudeMeters>
            <DistanceMeters>7488.7145431582</DistanceMeters>
          </Trackpoint>
          <Trackpoint>
            <Time>2019-08-01T08:06:27.000Z</Time>
            <Position>
              <LatitudeDegrees>40.4653617180883884429931640625</LatitudeDegrees>
              <LongitudeDegrees>-3.69217981584370136260986328125</LongitudeDegrees>
            </Position>
            <AltitudeMeters>769.4000244140625</AltitudeMeters>
            <DistanceMeters>7550.6479809888</DistanceMeters>
          </Trackpoint>
          <Trackpoint>
            <Time>2019-08-01T08:06:39.000Z</Time>
            <Position>
              <LatitudeDegrees>40.46546339057385921478271484375</LatitudeDegrees>
              <LongitudeDegrees>-3.69146165437996387481689453125</LongitudeDegrees>
            </Position>
            <AltitudeMeters>768.4000244140625</AltitudeMeters>
            <DistanceMeters>7612.5046059453</DistanceMeters>
          </Trackpoint>
          <Trackpoint>
            <Time>2019-08-01T08:06:53.000Z</Time>
            <Position>
              <LatitudeDegrees>40.46551804058253765106201171875</LatitudeDegrees>
              <LongitudeDegrees>-3.69071901775896549224853515625</LongitudeDegrees>
            </Position>
            <AltitudeMeters>767.5999755859375</AltitudeMeters>
            <DistanceMeters>7675.6832225836</DistanceMeters>
          </Trackpoint>
          <Trackpoint>
            <Time>2019-08-01T08:06:54.000Z</Time>
            <Position>
              <LatitudeDegrees>40.4655239917337894439697265625</LatitudeDegrees>
              <LongitudeDegrees>-3.6906798742711544036865234375</LongitudeDegrees>
            </Position>
            <AltitudeMeters>767.5999755859375</AltitudeMeters>
            <DistanceMeters>7679.0630223856</DistanceMeters>
          </Trackpoint>
          <Trackpoint>
            <Time>2019-08-01T08:07:07.000Z</Time>
            <Position>
              <LatitudeDegrees>40.4655799828469753265380859375</LatitudeDegrees>
              <LongitudeDegrees>-3.690263964235782623291015625</LongitudeDegrees>
            </Position>
            <AltitudeMeters>766.4000244140625</AltitudeMeters>
            <DistanceMeters>7714.8285580145</DistanceMeters>
          </Trackpoint>
          <Trackpoint>
            <Time>2019-08-01T08:07:11.000Z</Time>
            <Position>
              <LatitudeDegrees>40.4655873589217662811279296875</LatitudeDegrees>
              <LongitudeDegrees>-3.69022163562476634979248046875</LongitudeDegrees>
            </Position>
            <AltitudeMeters>766.20001220703125</AltitudeMeters>
            <DistanceMeters>7718.5052446257</DistanceMeters>
          </Trackpoint>
          <Trackpoint>
            <Time>2019-08-01T08:07:27.000Z</Time>
            <Position>
              <LatitudeDegrees>40.46558995731174945831298828125</LatitudeDegrees>
              <LongitudeDegrees>-3.69018324650824069976806640625</LongitudeDegrees>
            </Position>
            <AltitudeMeters>762.4000244140625</AltitudeMeters>
            <DistanceMeters>7721.7667519537</DistanceMeters>
          </Trackpoint>
          <Trackpoint>
            <Time>2019-08-01T08:07:32.000Z</Time>
            <Position>
              <LatitudeDegrees>40.4656143486499786376953125</LatitudeDegrees>
              <LongitudeDegrees>-3.68990077637135982513427734375</LongitudeDegrees>
            </Position>
            <AltitudeMeters>761.20001220703125</AltitudeMeters>
            <DistanceMeters>7745.8392901589</DistanceMeters>
          </Trackpoint>
          <Trackpoint>
            <Time>2019-08-01T08:07:35.000Z</Time>
            <Position>
              <LatitudeDegrees>40.465621054172515869140625</LatitudeDegrees>
              <LongitudeDegrees>-3.6896542645990848541259765625</LongitudeDegrees>
            </Position>
            <AltitudeMeters>760.5999755859375</AltitudeMeters>
            <DistanceMeters>7766.7268018199</DistanceMeters>
          </Trackpoint>
          <Trackpoint>
            <Time>2019-08-01T08:07:40.000Z</Time>
            <Position>
              <LatitudeDegrees>40.46561711467802524566650390625</LatitudeDegrees>
              <LongitudeDegrees>-3.68921949528157711029052734375</LongitudeDegrees>
            </Position>
            <AltitudeMeters>760.4000244140625</AltitudeMeters>
            <DistanceMeters>7803.5449633115</DistanceMeters>
          </Trackpoint>
          <Trackpoint>
            <Time>2019-08-01T08:07:50.000Z</Time>
            <Position>
              <LatitudeDegrees>40.46600955538451671600341796875</LatitudeDegrees>
              <LongitudeDegrees>-3.68872295133769512176513671875</LongitudeDegrees>
            </Position>
            <AltitudeMeters>761.4000244140625</AltitudeMeters>
            <DistanceMeters>7864.1731986256</DistanceMeters>
          </Trackpoint>
          <Trackpoint>
            <Time>2019-08-01T08:07:55.000Z</Time>
            <Position>
              <LatitudeDegrees>40.4661415703594684600830078125</LatitudeDegrees>
              <LongitudeDegrees>-3.68870048783719539642333984375</LongitudeDegrees>
            </Position>
            <AltitudeMeters>760</AltitudeMeters>
            <DistanceMeters>7878.9894450582</DistanceMeters>
          </Trackpoint>
          <Trackpoint>
            <Time>2019-08-01T08:07:56.000Z</Time>
            <Position>
              <LatitudeDegrees>40.46614500693976879119873046875</LatitudeDegrees>
              <LongitudeDegrees>-3.6887017451226711273193359375</LongitudeDegrees>
            </Position>
            <AltitudeMeters>759.79998779296875</AltitudeMeters>
            <DistanceMeters>7879.392609263</DistanceMeters>
          </Trackpoint>
          <Trackpoint>
            <Time>2019-08-01T08:08:06.000Z</Time>
            <Position>
              <LatitudeDegrees>40.46618222258985042572021484375</LatitudeDegrees>
              <LongitudeDegrees>-3.6887248791754245758056640625</LongitudeDegrees>
            </Position>
            <AltitudeMeters>758.20001220703125</AltitudeMeters>
            <DistanceMeters>7883.9746314947</DistanceMeters>
          </Trackpoint>
          <Trackpoint>
            <Time>2019-08-01T08:08:11.000Z</Time>
            <Position>
              <LatitudeDegrees>40.46636813320219516754150390625</LatitudeDegrees>
              <LongitudeDegrees>-3.68873007595539093017578125</LongitudeDegrees>
            </Position>
            <AltitudeMeters>757.20001220703125</AltitudeMeters>
            <DistanceMeters>7904.6712666366</DistanceMeters>
          </Trackpoint>
          <Trackpoint>
            <Time>2019-08-01T08:08:17.000Z</Time>
            <Position>
              <LatitudeDegrees>40.466643311083316802978515625</LatitudeDegrees>
              <LongitudeDegrees>-3.6887285672128200531005859375</LongitudeDegrees>
            </Position>
            <AltitudeMeters>756.20001220703125</AltitudeMeters>
            <DistanceMeters>7935.299365848</DistanceMeters>
          </Trackpoint>
          <Trackpoint>
            <Time>2019-08-01T08:08:29.000Z</Time>
            <Position>
              <LatitudeDegrees>40.4671916551887989044189453125</LatitudeDegrees>
              <LongitudeDegrees>-3.68861147202551364898681640625</LongitudeDegrees>
            </Position>
            <AltitudeMeters>756.5999755859375</AltitudeMeters>
            <DistanceMeters>7997.1313876106</DistanceMeters>
          </Trackpoint>
          <Trackpoint>
            <Time>2019-08-01T08:08:40.000Z</Time>
            <Position>
              <LatitudeDegrees>40.4675487242639064788818359375</LatitudeDegrees>
              <LongitudeDegrees>-3.68860946036875247955322265625</LongitudeDegrees>
            </Position>
            <AltitudeMeters>757.20001220703125</AltitudeMeters>
            <DistanceMeters>8036.8743725423</DistanceMeters>
          </Trackpoint>
          <Trackpoint>
            <Time>2019-08-01T08:08:47.000Z</Time>
            <Position>
              <LatitudeDegrees>40.46766079030930995941162109375</LatitudeDegrees>
              <LongitudeDegrees>-3.68861817754805088043212890625</LongitudeDegrees>
            </Position>
            <AltitudeMeters>758.20001220703125</AltitudeMeters>
            <DistanceMeters>8049.3692111423</DistanceMeters>
          </Trackpoint>
          <Trackpoint>
            <Time>2019-08-01T08:08:52.000Z</Time>
            <Position>
              <LatitudeDegrees>40.46770152635872364044189453125</LatitudeDegrees>
              <LongitudeDegrees>-3.6886279843747615814208984375</LongitudeDegrees>
            </Position>
            <AltitudeMeters>758.5999755859375</AltitudeMeters>
            <DistanceMeters>8053.9777618685</DistanceMeters>
          </Trackpoint>
          <Trackpoint>
            <Time>2019-08-01T08:08:55.000Z</Time>
            <Position>
              <LatitudeDegrees>40.46773790381848812103271484375</LatitudeDegrees>
              <LongitudeDegrees>-3.68860610760748386383056640625</LongitudeDegrees>
            </Position>
            <AltitudeMeters>759</AltitudeMeters>
            <DistanceMeters>8058.4308560591</DistanceMeters>
          </Trackpoint>
          <Trackpoint>
            <Time>2019-08-01T08:08:58.000Z</Time>
            <Position>
              <LatitudeDegrees>40.4678340442478656768798828125</LatitudeDegrees>
              <LongitudeDegrees>-3.68853922002017498016357421875</LongitudeDegrees>
            </Position>
            <AltitudeMeters>759.20001220703125</AltitudeMeters>
            <DistanceMeters>8070.5384677556</DistanceMeters>
          </Trackpoint>
          <Trackpoint>
            <Time>2019-08-01T08:09:10.000Z</Time>
            <Position>
              <LatitudeDegrees>40.468392781913280487060546875</LatitudeDegrees>
              <LongitudeDegrees>-3.68837535381317138671875</LongitudeDegrees>
            </Position>
            <AltitudeMeters>759</AltitudeMeters>
            <DistanceMeters>8134.256200448</DistanceMeters>
          </Trackpoint>
          <Trackpoint>
            <Time>2019-08-01T08:09:19.000Z</Time>
            <Position>
              <LatitudeDegrees>40.46884364448487758636474609375</LatitudeDegrees>
              <LongitudeDegrees>-3.68824459612369537353515625</LongitudeDegrees>
            </Position>
            <AltitudeMeters>760</AltitudeMeters>
            <DistanceMeters>8185.6450098888</DistanceMeters>
          </Trackpoint>
          <Trackpoint>
            <Time>2019-08-01T08:09:23.000Z</Time>
            <Position>
              <LatitudeDegrees>40.46903760172426700592041015625</LatitudeDegrees>
              <LongitudeDegrees>-3.68818148039281368255615234375</LongitudeDegrees>
            </Position>
            <AltitudeMeters>761.20001220703125</AltitudeMeters>
            <DistanceMeters>8207.8847126086</DistanceMeters>
          </Trackpoint>
          <Trackpoint>
            <Time>2019-08-01T08:09:32.000Z</Time>
            <Position>
              <LatitudeDegrees>40.4694752208888530731201171875</LatitudeDegrees>
              <LongitudeDegrees>-3.688080310821533203125</LongitudeDegrees>
            </Position>
            <AltitudeMeters>762.20001220703125</AltitudeMeters>
            <DistanceMeters>8257.3402520892</DistanceMeters>
          </Trackpoint>
          <Trackpoint>
            <Time>2019-08-01T08:09:39.000Z</Time>
            <Position>
              <LatitudeDegrees>40.46981711871922016143798828125</LatitudeDegrees>
              <LongitudeDegrees>-3.6879609525203704833984375</LongitudeDegrees>
            </Position>
            <AltitudeMeters>763.20001220703125</AltitudeMeters>
            <DistanceMeters>8296.7134333627</DistanceMeters>
          </Trackpoint>
          <Trackpoint>
            <Time>2019-08-01T08:09:45.000Z</Time>
            <Position>
              <LatitudeDegrees>40.4701095633208751678466796875</LatitudeDegrees>
              <LongitudeDegrees>-3.68786011822521686553955078125</LongitudeDegrees>
            </Position>
            <AltitudeMeters>764.4000244140625</AltitudeMeters>
            <DistanceMeters>8330.364162717</DistanceMeters>
          </Trackpoint>
          <Trackpoint>
            <Time>2019-08-01T08:09:56.000Z</Time>
            <Position>
              <LatitudeDegrees>40.47065681777894496917724609375</LatitudeDegrees>
              <LongitudeDegrees>-3.6876979283988475799560546875</LongitudeDegrees>
            </Position>
            <AltitudeMeters>764.5999755859375</AltitudeMeters>
            <DistanceMeters>8392.8035839527</DistanceMeters>
          </Trackpoint>
          <Trackpoint>
            <Time>2019-08-01T08:10:07.000Z</Time>
            <Position>
              <LatitudeDegrees>40.47123567201197147369384765625</LatitudeDegrees>
              <LongitudeDegrees>-3.68755937553942203521728515625</LongitudeDegrees>
            </Position>
            <AltitudeMeters>764.20001220703125</AltitudeMeters>
            <DistanceMeters>8458.2905738411</DistanceMeters>
          </Trackpoint>
          <Trackpoint>
            <Time>2019-08-01T08:10:17.000Z</Time>
            <Position>
              <LatitudeDegrees>40.47178418375551700592041015625</LatitudeDegrees>
              <LongitudeDegrees>-3.6874038912355899810791015625</LongitudeDegrees>
            </Position>
            <AltitudeMeters>764.5999755859375</AltitudeMeters>
            <DistanceMeters>8520.7443832482</DistanceMeters>
          </Trackpoint>
          <Trackpoint>
            <Time>2019-08-01T08:10:24.000Z</Time>
            <Position>
              <LatitudeDegrees>40.47215516678988933563232421875</LatitudeDegrees>
              <LongitudeDegrees>-3.68728838860988616943359375</LongitudeDegrees>
            </Position>
            <AltitudeMeters>765.5999755859375</AltitudeMeters>
            <DistanceMeters>8563.1779345138</DistanceMeters>
          </Trackpoint>
          <Trackpoint>
            <Time>2019-08-01T08:10:35.000Z</Time>
            <Position>
              <LatitudeDegrees>40.47267719171941280364990234375</LatitudeDegrees>
              <LongitudeDegrees>-3.68712033145129680633544921875</LongitudeDegrees>
            </Position>
            <AltitudeMeters>766.5999755859375</AltitudeMeters>
            <DistanceMeters>8622.9973832962</DistanceMeters>
          </Trackpoint>
          <Trackpoint>
            <Time>2019-08-01T08:10:43.000Z</Time>
            <Position>
              <LatitudeDegrees>40.47302302904427051544189453125</LatitudeDegrees>
              <LongitudeDegrees>-3.68699762038886547088623046875</LongitudeDegrees>
            </Position>
            <AltitudeMeters>767.5999755859375</AltitudeMeters>
            <DistanceMeters>8662.867403824</DistanceMeters>
          </Trackpoint>
          <Trackpoint>
            <Time>2019-08-01T08:10:50.000Z</Time>
            <Position>
              <LatitudeDegrees>40.47329225577414035797119140625</LatitudeDegrees>
              <LongitudeDegrees>-3.68691480718553066253662109375</LongitudeDegrees>
            </Position>
            <AltitudeMeters>769</AltitudeMeters>
            <DistanceMeters>8693.6424181648</DistanceMeters>
          </Trackpoint>
          <Trackpoint>
            <Time>2019-08-01T08:10:53.000Z</Time>
            <Position>
              <LatitudeDegrees>40.47339870594441890716552734375</LatitudeDegrees>
              <LongitudeDegrees>-3.686883039772510528564453125</LongitudeDegrees>
            </Position>
            <AltitudeMeters>770.20001220703125</AltitudeMeters>
            <DistanceMeters>8705.7924671238</DistanceMeters>
          </Trackpoint>
          <Trackpoint>
            <Time>2019-08-01T08:11:06.000Z</Time>
            <Position>
              <LatitudeDegrees>40.47371688298881053924560546875</LatitudeDegrees>
              <LongitudeDegrees>-3.686805255711078643798828125</LongitudeDegrees>
            </Position>
            <AltitudeMeters>769.5999755859375</AltitudeMeters>
            <DistanceMeters>8741.8134835459</DistanceMeters>
          </Trackpoint>
          <Trackpoint>
            <Time>2019-08-01T08:11:35.000Z</Time>
            <Position>
              <LatitudeDegrees>40.47376315109431743621826171875</LatitudeDegrees>
              <LongitudeDegrees>-3.68685026653110980987548828125</LongitudeDegrees>
            </Position>
            <AltitudeMeters>772.4000244140625</AltitudeMeters>
            <DistanceMeters>8748.2205677122</DistanceMeters>
          </Trackpoint>
          <Trackpoint>
            <Time>2019-08-01T08:11:49.000Z</Time>
            <Position>
              <LatitudeDegrees>40.47432976774871349334716796875</LatitudeDegrees>
              <LongitudeDegrees>-3.686731159687042236328125</LongitudeDegrees>
            </Position>
            <AltitudeMeters>772.20001220703125</AltitudeMeters>
            <DistanceMeters>8812.0873572077</DistanceMeters>
          </Trackpoint>
          <Trackpoint>
            <Time>2019-08-01T08:12:01.000Z</Time>
            <Position>
              <LatitudeDegrees>40.47487308271229267120361328125</LatitudeDegrees>
              <LongitudeDegrees>-3.6865791119635105133056640625</LongitudeDegrees>
            </Position>
            <AltitudeMeters>772.79998779296875</AltitudeMeters>
            <DistanceMeters>8873.9145593941</DistanceMeters>
          </Trackpoint>
          <Trackpoint>
            <Time>2019-08-01T08:12:06.000Z</Time>
            <Position>
              <LatitudeDegrees>40.47509771771728992462158203125</LatitudeDegrees>
              <LongitudeDegrees>-3.6865281499922275543212890625</LongitudeDegrees>
            </Position>
            <AltitudeMeters>771.5999755859375</AltitudeMeters>
            <DistanceMeters>8899.2865141777</DistanceMeters>
          </Trackpoint>
          <Trackpoint>
            <Time>2019-08-01T08:12:09.000Z</Time>
            <Position>
              <LatitudeDegrees>40.4752060957252979278564453125</LatitudeDegrees>
              <LongitudeDegrees>-3.6864882521331310272216796875</LongitudeDegrees>
            </Position>
            <AltitudeMeters>770.5999755859375</AltitudeMeters>
            <DistanceMeters>8911.8134718468</DistanceMeters>
          </Trackpoint>
          <Trackpoint>
            <Time>2019-08-01T08:12:17.000Z</Time>
            <Position>
              <LatitudeDegrees>40.4752879031002521514892578125</LatitudeDegrees>
              <LongitudeDegrees>-3.6864181794226169586181640625</LongitudeDegrees>
            </Position>
            <AltitudeMeters>769.79998779296875</AltitudeMeters>
            <DistanceMeters>8922.6810552861</DistanceMeters>
          </Trackpoint>
          <Trackpoint>
            <Time>2019-08-01T08:12:20.000Z</Time>
            <Position>
              <LatitudeDegrees>40.4753278009593486785888671875</LatitudeDegrees>
              <LongitudeDegrees>-3.68639362044632434844970703125</LongitudeDegrees>
            </Position>
            <AltitudeMeters>769.5999755859375</AltitudeMeters>
            <DistanceMeters>8927.5857595225</DistanceMeters>
          </Trackpoint>
          <Trackpoint>
            <Time>2019-08-01T08:12:23.000Z</Time>
            <Position>
              <LatitudeDegrees>40.47538898885250091552734375</LatitudeDegrees>
              <LongitudeDegrees>-3.6863655410706996917724609375</LongitudeDegrees>
            </Position>
            <AltitudeMeters>768.4000244140625</AltitudeMeters>
            <DistanceMeters>8934.799032044</DistanceMeters>
          </Trackpoint>
          <Trackpoint>
            <Time>2019-08-01T08:12:27.000Z</Time>
            <Position>
              <LatitudeDegrees>40.47553156502544879913330078125</LatitudeDegrees>
              <LongitudeDegrees>-3.6863038502633571624755859375</LongitudeDegrees>
            </Position>
            <AltitudeMeters>767.4000244140625</AltitudeMeters>
            <DistanceMeters>8951.5053662538</DistanceMeters>
          </Trackpoint>
          <Trackpoint>
            <Time>2019-08-01T08:12:41.000Z</Time>
            <Position>
              <LatitudeDegrees>40.4760858602821826934814453125</LatitudeDegrees>
              <LongitudeDegrees>-3.68613227270543575286865234375</LongitudeDegrees>
            </Position>
            <AltitudeMeters>768.4000244140625</AltitudeMeters>
            <DistanceMeters>9014.8866887984</DistanceMeters>
          </Trackpoint>
          <Trackpoint>
            <Time>2019-08-01T08:12:44.000Z</Time>
            <Position>
              <LatitudeDegrees>40.4762193001806735992431640625</LatitudeDegrees>
              <LongitudeDegrees>-3.6860922910273075103759765625</LongitudeDegrees>
            </Position>
            <AltitudeMeters>768.5999755859375</AltitudeMeters>
            <DistanceMeters>9030.1194444357</DistanceMeters>
          </Trackpoint>
          <Trackpoint>
            <Time>2019-08-01T08:12:50.000Z</Time>
            <Position>
              <LatitudeDegrees>40.4764821566641330718994140625</LatitudeDegrees>
              <LongitudeDegrees>-3.68601408787071704864501953125</LongitudeDegrees>
            </Position>
            <AltitudeMeters>769.5999755859375</AltitudeMeters>
            <DistanceMeters>9060.1156921515</DistanceMeters>
          </Trackpoint>
          <Trackpoint>
            <Time>2019-08-01T08:12:51.000Z</Time>
            <Position>
              <LatitudeDegrees>40.47652364708483219146728515625</LatitudeDegrees>
              <LongitudeDegrees>-3.685989193618297576904296875</LongitudeDegrees>
            </Position>
            <AltitudeMeters>770</AltitudeMeters>
            <DistanceMeters>9065.192289257</DistanceMeters>
          </Trackpoint>
          <Trackpoint>
            <Time>2019-08-01T08:13:03.000Z</Time>
            <Position>
              <LatitudeDegrees>40.47707140445709228515625</LatitudeDegrees>
              <LongitudeDegrees>-3.6857731081545352935791015625</LongitudeDegrees>
            </Position>
            <AltitudeMeters>770</AltitudeMeters>
            <DistanceMeters>9128.8445136394</DistanceMeters>
          </Trackpoint>
          <Trackpoint>
            <Time>2019-08-01T08:13:15.000Z</Time>
            <Position>
              <LatitudeDegrees>40.47764279879629611968994140625</LatitudeDegrees>
              <LongitudeDegrees>-3.68562382645905017852783203125</LongitudeDegrees>
            </Position>
            <AltitudeMeters>771.20001220703125</AltitudeMeters>
            <DistanceMeters>9193.6855380141</DistanceMeters>
          </Trackpoint>
          <Trackpoint>
            <Time>2019-08-01T08:13:18.000Z</Time>
            <Position>
              <LatitudeDegrees>40.47777556814253330230712890625</LatitudeDegrees>
              <LongitudeDegrees>-3.68561544455587863922119140625</LongitudeDegrees>
            </Position>
            <AltitudeMeters>771.4000244140625</AltitudeMeters>
            <DistanceMeters>9208.480132396</DistanceMeters>
          </Trackpoint>
          <Trackpoint>
            <Time>2019-08-01T08:13:28.000Z</Time>
            <Position>
              <LatitudeDegrees>40.47819801606237888336181640625</LatitudeDegrees>
              <LongitudeDegrees>-3.6855159513652324676513671875</LongitudeDegrees>
            </Position>
            <AltitudeMeters>772.5999755859375</AltitudeMeters>
            <DistanceMeters>9256.2478603739</DistanceMeters>
          </Trackpoint>
          <Trackpoint>
            <Time>2019-08-01T08:13:38.000Z</Time>
            <Position>
              <LatitudeDegrees>40.478614009916782379150390625</LatitudeDegrees>
              <LongitudeDegrees>-3.6854197271168231964111328125</LongitudeDegrees>
            </Position>
            <AltitudeMeters>773.5999755859375</AltitudeMeters>
            <DistanceMeters>9303.2599683877</DistanceMeters>
          </Trackpoint>
          <Trackpoint>
            <Time>2019-08-01T08:13:53.000Z</Time>
            <Position>
              <LatitudeDegrees>40.4791755974292755126953125</LatitudeDegrees>
              <LongitudeDegrees>-3.685264326632022857666015625</LongitudeDegrees>
            </Position>
            <AltitudeMeters>774.5999755859375</AltitudeMeters>
            <DistanceMeters>9367.135311359</DistanceMeters>
          </Trackpoint>
          <Trackpoint>
            <Time>2019-08-01T08:13:57.000Z</Time>
            <Position>
              <LatitudeDegrees>40.47930945642292499542236328125</LatitudeDegrees>
              <LongitudeDegrees>-3.68522317148745059967041015625</LongitudeDegrees>
            </Position>
            <AltitudeMeters>775</AltitudeMeters>
            <DistanceMeters>9382.4360878715</DistanceMeters>
          </Trackpoint>
          <Trackpoint>
            <Time>2019-08-01T08:14:08.000Z</Time>
            <Position>
              <LatitudeDegrees>40.47964724712073802947998046875</LatitudeDegrees>
              <LongitudeDegrees>-3.6851488240063190460205078125</LongitudeDegrees>
            </Position>
            <AltitudeMeters>776</AltitudeMeters>
            <DistanceMeters>9420.5560161433</DistanceMeters>
          </Trackpoint>
          <Trackpoint>
            <Time>2019-08-01T08:14:18.000Z</Time>
            <Position>
              <LatitudeDegrees>40.47994111664593219757080078125</LatitudeDegrees>
              <LongitudeDegrees>-3.68507481180131435394287109375</LongitudeDegrees>
            </Position>
            <AltitudeMeters>777.20001220703125</AltitudeMeters>
            <DistanceMeters>9453.8590497739</DistanceMeters>
          </Trackpoint>
          <Trackpoint>
            <Time>2019-08-01T08:14:33.000Z</Time>
            <Position>
              <LatitudeDegrees>40.480390973389148712158203125</LatitudeDegrees>
              <LongitudeDegrees>-3.6849080957472324371337890625</LongitudeDegrees>
            </Position>
            <AltitudeMeters>778.4000244140625</AltitudeMeters>
            <DistanceMeters>9505.8802526565</DistanceMeters>
          </Trackpoint>
          <Trackpoint>
            <Time>2019-08-01T08:14:47.000Z</Time>
            <Position>
              <LatitudeDegrees>40.48033908940851688385009765625</LatitudeDegrees>
              <LongitudeDegrees>-3.68421935476362705230712890625</LongitudeDegrees>
            </Position>
            <AltitudeMeters>777.4000244140625</AltitudeMeters>
            <DistanceMeters>9564.4740668694</DistanceMeters>
          </Trackpoint>
          <Trackpoint>
            <Time>2019-08-01T08:14:48.000Z</Time>
            <Position>
              <LatitudeDegrees>40.4803316295146942138671875</LatitudeDegrees>
              <LongitudeDegrees>-3.68416965007781982421875</LongitudeDegrees>
            </Position>
            <AltitudeMeters>777.20001220703125</AltitudeMeters>
            <DistanceMeters>9568.7639731379</DistanceMeters>
          </Trackpoint>
          <Trackpoint>
            <Time>2019-08-01T08:14:53.000Z</Time>
            <Position>
              <LatitudeDegrees>40.4802979342639446258544921875</LatitudeDegrees>
              <LongitudeDegrees>-3.6839314363896846771240234375</LongitudeDegrees>
            </Position>
            <AltitudeMeters>776.4000244140625</AltitudeMeters>
            <DistanceMeters>9589.2765410411</DistanceMeters>
          </Trackpoint>
          <Trackpoint>
            <Time>2019-08-01T08:15:02.000Z</Time>
            <Position>
              <LatitudeDegrees>40.48025610856711864471435546875</LatitudeDegrees>
              <LongitudeDegrees>-3.6836833320558071136474609375</LongitudeDegrees>
            </Position>
            <AltitudeMeters>775.4000244140625</AltitudeMeters>
            <DistanceMeters>9610.7905975691</DistanceMeters>
          </Trackpoint>
          <Trackpoint>
            <Time>2019-08-01T08:15:13.000Z</Time>
            <Position>
              <LatitudeDegrees>40.4802965931594371795654296875</LatitudeDegrees>
              <LongitudeDegrees>-3.68321386165916919708251953125</LongitudeDegrees>
            </Position>
            <AltitudeMeters>775.20001220703125</AltitudeMeters>
            <DistanceMeters>9650.7904108768</DistanceMeters>
          </Trackpoint>
          <Trackpoint>
            <Time>2019-08-01T08:15:17.000Z</Time>
            <Position>
              <LatitudeDegrees>40.48045828007161617279052734375</LatitudeDegrees>
              <LongitudeDegrees>-3.68317446671426296234130859375</LongitudeDegrees>
            </Position>
            <AltitudeMeters>774.20001220703125</AltitudeMeters>
            <DistanceMeters>9669.0931086517</DistanceMeters>
          </Trackpoint>
          <Trackpoint>
            <Time>2019-08-01T08:15:20.000Z</Time>
            <Position>
              <LatitudeDegrees>40.48057981766760349273681640625</LatitudeDegrees>
              <LongitudeDegrees>-3.6831646598875522613525390625</LongitudeDegrees>
            </Position>
            <AltitudeMeters>773.20001220703125</AltitudeMeters>
            <DistanceMeters>9682.6459970873</DistanceMeters>
          </Trackpoint>
          <Trackpoint>
            <Time>2019-08-01T08:15:24.000Z</Time>
            <Position>
              <LatitudeDegrees>40.48073236830532550811767578125</LatitudeDegrees>
              <LongitudeDegrees>-3.6831482313573360443115234375</LongitudeDegrees>
            </Position>
            <AltitudeMeters>771.79998779296875</AltitudeMeters>
            <DistanceMeters>9699.6820370294</DistanceMeters>
          </Trackpoint>
          <Trackpoint>
            <Time>2019-08-01T08:15:40.000Z</Time>
            <Position>
              <LatitudeDegrees>40.48128440044820308685302734375</LatitudeDegrees>
              <LongitudeDegrees>-3.6830337345600128173828125</LongitudeDegrees>
            </Position>
            <AltitudeMeters>771.79998779296875</AltitudeMeters>
            <DistanceMeters>9761.8841899173</DistanceMeters>
          </Trackpoint>
          <Trackpoint>
            <Time>2019-08-01T08:15:48.000Z</Time>
            <Position>
              <LatitudeDegrees>40.48155832104384899139404296875</LatitudeDegrees>
              <LongitudeDegrees>-3.68296911008656024932861328125</LongitudeDegrees>
            </Position>
            <AltitudeMeters>770.79998779296875</AltitudeMeters>
            <DistanceMeters>9792.8589633966</DistanceMeters>
          </Trackpoint>
          <Trackpoint>
            <Time>2019-08-01T08:15:58.000Z</Time>
            <Position>
              <LatitudeDegrees>40.48192058689892292022705078125</LatitudeDegrees>
              <LongitudeDegrees>-3.68287255056202411651611328125</LongitudeDegrees>
            </Position>
            <AltitudeMeters>770</AltitudeMeters>
            <DistanceMeters>9834.0002633121</DistanceMeters>
          </Trackpoint>
          <Trackpoint>
            <Time>2019-08-01T08:16:05.000Z</Time>
            <Position>
              <LatitudeDegrees>40.48220003955066204071044921875</LatitudeDegrees>
              <LongitudeDegrees>-3.6828059144318103790283203125</LongitudeDegrees>
            </Position>
            <AltitudeMeters>768.79998779296875</AltitudeMeters>
            <DistanceMeters>9865.6111822981</DistanceMeters>
          </Trackpoint>
          <Trackpoint>
            <Time>2019-08-01T08:16:11.000Z</Time>
            <Position>
              <LatitudeDegrees>40.48245568759739398956298828125</LatitudeDegrees>
              <LongitudeDegrees>-3.68274078704416751861572265625</LongitudeDegrees>
            </Position>
            <AltitudeMeters>767.5999755859375</AltitudeMeters>
            <DistanceMeters>9894.5944859621</DistanceMeters>
          </Trackpoint>
          <Trackpoint>
            <Time>2019-08-01T08:16:18.000Z</Time>
            <Position>
              <LatitudeDegrees>40.482766740024089813232421875</LatitudeDegrees>
              <LongitudeDegrees>-3.682666607201099395751953125</LongitudeDegrees>
            </Position>
            <AltitudeMeters>766.5999755859375</AltitudeMeters>
            <DistanceMeters>9929.7803004421</DistanceMeters>
          </Trackpoint>
          <Trackpoint>
            <Time>2019-08-01T08:16:28.000Z</Time>
            <Position>
              <LatitudeDegrees>40.48322229646146297454833984375</LatitudeDegrees>
              <LongitudeDegrees>-3.68255705572664737701416015625</LongitudeDegrees>
            </Position>
            <AltitudeMeters>765.4000244140625</AltitudeMeters>
            <DistanceMeters>9981.3257895975</DistanceMeters>
          </Trackpoint>
          <Trackpoint>
            <Time>2019-08-01T08:16:38.000Z</Time>
            <Position>
              <LatitudeDegrees>40.48370224423706531524658203125</LatitudeDegrees>
              <LongitudeDegrees>-3.68248228915035724639892578125</LongitudeDegrees>
            </Position>
            <AltitudeMeters>764.20001220703125</AltitudeMeters>
            <DistanceMeters>10035.118632396</DistanceMeters>
          </Trackpoint>
          <Trackpoint>
            <Time>2019-08-01T08:16:40.000Z</Time>
            <Position>
              <LatitudeDegrees>40.4838029108941555023193359375</LatitudeDegrees>
              <LongitudeDegrees>-3.6824897490441799163818359375</LongitudeDegrees>
            </Position>
            <AltitudeMeters>763.79998779296875</AltitudeMeters>
            <DistanceMeters>10046.340639618</DistanceMeters>
          </Trackpoint>
          <Trackpoint>
            <Time>2019-08-01T08:16:42.000Z</Time>
            <Position>
              <LatitudeDegrees>40.48390374518930912017822265625</LatitudeDegrees>
              <LongitudeDegrees>-3.6825165711343288421630859375</LongitudeDegrees>
            </Position>
            <AltitudeMeters>763.20001220703125</AltitudeMeters>
            <DistanceMeters>10057.791260123</DistanceMeters>
          </Trackpoint>
          <Trackpoint>
            <Time>2019-08-01T08:16:47.000Z</Time>
            <Position>
              <LatitudeDegrees>40.48415302298963069915771484375</LatitudeDegrees>
              <LongitudeDegrees>-3.682655207812786102294921875</LongitudeDegrees>
            </Position>
            <AltitudeMeters>762.20001220703125</AltitudeMeters>
            <DistanceMeters>10087.916527138</DistanceMeters>
          </Trackpoint>
          <Trackpoint>
            <Time>2019-08-01T08:16:50.000Z</Time>
            <Position>
              <LatitudeDegrees>40.4843004606664180755615234375</LatitudeDegrees>
              <LongitudeDegrees>-3.68278219364583492279052734375</LongitudeDegrees>
            </Position>
            <AltitudeMeters>762</AltitudeMeters>
            <DistanceMeters>10107.534193359</DistanceMeters>
          </Trackpoint>
          <Trackpoint>
            <Time>2019-08-01T08:16:58.000Z</Time>
            <Position>
              <LatitudeDegrees>40.484707988798618316650390625</LatitudeDegrees>
              <LongitudeDegrees>-3.68325778283178806304931640625</LongitudeDegrees>
            </Position>
            <AltitudeMeters>763.20001220703125</AltitudeMeters>
            <DistanceMeters>10168.183425826</DistanceMeters>
          </Trackpoint>
          <Trackpoint>
            <Time>2019-08-01T08:17:05.000Z</Time>
            <Position>
              <LatitudeDegrees>40.4851151816546916961669921875</LatitudeDegrees>
              <LongitudeDegrees>-3.68372867815196514129638671875</LongitudeDegrees>
            </Position>
            <AltitudeMeters>764.5999755859375</AltitudeMeters>
            <DistanceMeters>10228.541399703</DistanceMeters>
          </Trackpoint>
          <Trackpoint>
            <Time>2019-08-01T08:17:10.000Z</Time>
            <Position>
              <LatitudeDegrees>40.485444925725460052490234375</LatitudeDegrees>
              <LongitudeDegrees>-3.6839763633906841278076171875</LongitudeDegrees>
            </Position>
            <AltitudeMeters>765.79998779296875</AltitudeMeters>
            <DistanceMeters>10270.80959844</DistanceMeters>
          </Trackpoint>
          <Trackpoint>
            <Time>2019-08-01T08:17:15.000Z</Time>
            <Position>
              <LatitudeDegrees>40.48575983382761478424072265625</LatitudeDegrees>
              <LongitudeDegrees>-3.68412782438099384307861328125</LongitudeDegrees>
            </Position>
            <AltitudeMeters>767</AltitudeMeters>
            <DistanceMeters>10308.131030506</DistanceMeters>
          </Trackpoint>
          <Trackpoint>
            <Time>2019-08-01T08:17:23.000Z</Time>
            <Position>
              <LatitudeDegrees>40.48619284294545650482177734375</LatitudeDegrees>
              <LongitudeDegrees>-3.68430367670953273773193359375</LongitudeDegrees>
            </Position>
            <AltitudeMeters>768</AltitudeMeters>
            <DistanceMeters>10358.57240637</DistanceMeters>
          </Trackpoint>
          <Trackpoint>
            <Time>2019-08-01T08:17:27.000Z</Time>
            <Position>
              <LatitudeDegrees>40.4863868840038776397705078125</LatitudeDegrees>
              <LongitudeDegrees>-3.68439973331987857818603515625</LongitudeDegrees>
            </Position>
            <AltitudeMeters>769.20001220703125</AltitudeMeters>
            <DistanceMeters>10381.649228686</DistanceMeters>
          </Trackpoint>
          <Trackpoint>
            <Time>2019-08-01T08:17:32.000Z</Time>
            <Position>
              <LatitudeDegrees>40.48663339577615261077880859375</LatitudeDegrees>
              <LongitudeDegrees>-3.6844926886260509490966796875</LongitudeDegrees>
            </Position>
            <AltitudeMeters>770.20001220703125</AltitudeMeters>
            <DistanceMeters>10410.192539408</DistanceMeters>
          </Trackpoint>
          <Trackpoint>
            <Time>2019-08-01T08:17:34.000Z</Time>
            <Position>
              <LatitudeDegrees>40.4867322184145450592041015625</LatitudeDegrees>
              <LongitudeDegrees>-3.684530742466449737548828125</LongitudeDegrees>
            </Position>
            <AltitudeMeters>770.5999755859375</AltitudeMeters>
            <DistanceMeters>10421.65419514</DistanceMeters>
          </Trackpoint>
          <Trackpoint>
            <Time>2019-08-01T08:17:38.000Z</Time>
            <Position>
              <LatitudeDegrees>40.48693212680518627166748046875</LatitudeDegrees>
              <LongitudeDegrees>-3.68459519930183887481689453125</LongitudeDegrees>
            </Position>
            <AltitudeMeters>771.79998779296875</AltitudeMeters>
            <DistanceMeters>10444.563715062</DistanceMeters>
          </Trackpoint>
          <Trackpoint>
            <Time>2019-08-01T08:17:48.000Z</Time>
            <Position>
              <LatitudeDegrees>40.48745515756309032440185546875</LatitudeDegrees>
              <LongitudeDegrees>-3.6848239414393901824951171875</LongitudeDegrees>
            </Position>
            <AltitudeMeters>772.20001220703125</AltitudeMeters>
            <DistanceMeters>10505.914039291</DistanceMeters>
          </Trackpoint>
          <Trackpoint>
            <Time>2019-08-01T08:17:54.000Z</Time>
            <Position>
              <LatitudeDegrees>40.48783821053802967071533203125</LatitudeDegrees>
              <LongitudeDegrees>-3.6849744804203510284423828125</LongitudeDegrees>
            </Position>
            <AltitudeMeters>772.79998779296875</AltitudeMeters>
            <DistanceMeters>10550.412321308</DistanceMeters>
          </Trackpoint>
          <Trackpoint>
            <Time>2019-08-01T08:18:00.000Z</Time>
            <Position>
              <LatitudeDegrees>40.48829552717506885528564453125</LatitudeDegrees>
              <LongitudeDegrees>-3.68513516150414943695068359375</LongitudeDegrees>
            </Position>
            <AltitudeMeters>773.79998779296875</AltitudeMeters>
            <DistanceMeters>10603.098614581</DistanceMeters>
          </Trackpoint>
          <Trackpoint>
            <Time>2019-08-01T08:18:07.000Z</Time>
            <Position>
              <LatitudeDegrees>40.48888410441577434539794921875</LatitudeDegrees>
              <LongitudeDegrees>-3.6853395961225032806396484375</LongitudeDegrees>
            </Position>
            <AltitudeMeters>773.4000244140625</AltitudeMeters>
            <DistanceMeters>10670.855527329</DistanceMeters>
          </Trackpoint>
          <Trackpoint>
            <Time>2019-08-01T08:18:14.000Z</Time>
            <Position>
              <LatitudeDegrees>40.48946798779070377349853515625</LatitudeDegrees>
              <LongitudeDegrees>-3.6855578608810901641845703125</LongitudeDegrees>
            </Position>
            <AltitudeMeters>773.5999755859375</AltitudeMeters>
            <DistanceMeters>10738.418117883</DistanceMeters>
          </Trackpoint>
          <Trackpoint>
            <Time>2019-08-01T08:18:22.000Z</Time>
            <Position>
              <LatitudeDegrees>40.4900551401078701019287109375</LatitudeDegrees>
              <LongitudeDegrees>-3.685776628553867340087890625</LongitudeDegrees>
            </Position>
            <AltitudeMeters>773.79998779296875</AltitudeMeters>
            <DistanceMeters>10806.342413002</DistanceMeters>
          </Trackpoint>
          <Trackpoint>
            <Time>2019-08-01T08:18:27.000Z</Time>
            <Position>
              <LatitudeDegrees>40.49033635295927524566650390625</LatitudeDegrees>
              <LongitudeDegrees>-3.6858529038727283477783203125</LongitudeDegrees>
            </Position>
            <AltitudeMeters>773.20001220703125</AltitudeMeters>
            <DistanceMeters>10838.300788526</DistanceMeters>
          </Trackpoint>
          <Trackpoint>
            <Time>2019-08-01T08:18:53.000Z</Time>
            <Position>
              <LatitudeDegrees>40.49086659215390682220458984375</LatitudeDegrees>
              <LongitudeDegrees>-3.6859813146293163299560546875</LongitudeDegrees>
            </Position>
            <AltitudeMeters>774.79998779296875</AltitudeMeters>
            <DistanceMeters>10898.310139841</DistanceMeters>
          </Trackpoint>
          <Trackpoint>
            <Time>2019-08-01T08:18:59.000Z</Time>
            <Position>
              <LatitudeDegrees>40.49110396765172481536865234375</LatitudeDegrees>
              <LongitudeDegrees>-3.68608918972313404083251953125</LongitudeDegrees>
            </Position>
            <AltitudeMeters>774.5999755859375</AltitudeMeters>
            <DistanceMeters>10926.2641502</DistanceMeters>
          </Trackpoint>
          <Trackpoint>
            <Time>2019-08-01T08:19:03.000Z</Time>
            <Position>
              <LatitudeDegrees>40.491258613765239715576171875</LatitudeDegrees>
              <LongitudeDegrees>-3.6862129904329776763916015625</LongitudeDegrees>
            </Position>
            <AltitudeMeters>774.20001220703125</AltitudeMeters>
            <DistanceMeters>10946.415639914</DistanceMeters>
          </Trackpoint>
          <Trackpoint>
            <Time>2019-08-01T08:19:16.000Z</Time>
            <Position>
              <LatitudeDegrees>40.49178893677890300750732421875</LatitudeDegrees>
              <LongitudeDegrees>-3.6864476837217807769775390625</LongitudeDegrees>
            </Position>
            <AltitudeMeters>774.4000244140625</AltitudeMeters>
            <DistanceMeters>11008.694904482</DistanceMeters>
          </Trackpoint>
          <Trackpoint>
            <Time>2019-08-01T08:19:37.000Z</Time>
            <Position>
              <LatitudeDegrees>40.4922304116189479827880859375</LatitudeDegrees>
              <LongitudeDegrees>-3.68663728237152099609375</LongitudeDegrees>
            </Position>
            <AltitudeMeters>774</AltitudeMeters>
            <DistanceMeters>11060.386292737</DistanceMeters>
          </Trackpoint>
          <Trackpoint>
            <Time>2019-08-01T08:19:50.000Z</Time>
            <Position>
              <LatitudeDegrees>40.49243442714214324951171875</LatitudeDegrees>
              <LongitudeDegrees>-3.6866850592195987701416015625</LongitudeDegrees>
            </Position>
            <AltitudeMeters>772.79998779296875</AltitudeMeters>
            <DistanceMeters>11083.450785651</DistanceMeters>
          </Trackpoint>
          <Trackpoint>
            <Time>2019-08-01T08:19:54.000Z</Time>
            <Position>
              <LatitudeDegrees>40.49255806021392345428466796875</LatitudeDegrees>
              <LongitudeDegrees>-3.68672872893512248992919921875</LongitudeDegrees>
            </Position>
            <AltitudeMeters>771.79998779296875</AltitudeMeters>
            <DistanceMeters>11097.699090063</DistanceMeters>
          </Trackpoint>
          <Trackpoint>
            <Time>2019-08-01T08:20:08.000Z</Time>
            <Position>
              <LatitudeDegrees>40.49308980815112590789794921875</LatitudeDegrees>
              <LongitudeDegrees>-3.68693106807768344879150390625</LongitudeDegrees>
            </Position>
            <AltitudeMeters>771.79998779296875</AltitudeMeters>
            <DistanceMeters>11159.311952407</DistanceMeters>
          </Trackpoint>
          <Trackpoint>
            <Time>2019-08-01T08:20:19.000Z</Time>
            <Position>
              <LatitudeDegrees>40.4935225658118724822998046875</LatitudeDegrees>
              <LongitudeDegrees>-3.68710725568234920501708984375</LongitudeDegrees>
            </Position>
            <AltitudeMeters>773</AltitudeMeters>
            <DistanceMeters>11209.734617083</DistanceMeters>
          </Trackpoint>
          <Trackpoint>
            <Time>2019-08-01T08:20:29.000Z</Time>
            <Position>
              <LatitudeDegrees>40.4939225502312183380126953125</LatitudeDegrees>
              <LongitudeDegrees>-3.687356449663639068603515625</LongitudeDegrees>
            </Position>
            <AltitudeMeters>774.20001220703125</AltitudeMeters>
            <DistanceMeters>11258.997514322</DistanceMeters>
          </Trackpoint>
          <Trackpoint>
            <Time>2019-08-01T08:20:38.000Z</Time>
            <Position>
              <LatitudeDegrees>40.4943285696208477020263671875</LatitudeDegrees>
              <LongitudeDegrees>-3.68750623427331447601318359375</LongitudeDegrees>
            </Position>
            <AltitudeMeters>775.4000244140625</AltitudeMeters>
            <DistanceMeters>11305.933016119</DistanceMeters>
          </Trackpoint>
          <Trackpoint>
            <Time>2019-08-01T08:20:49.000Z</Time>
            <Position>
              <LatitudeDegrees>40.49487951211631298065185546875</LatitudeDegrees>
              <LongitudeDegrees>-3.68764688260853290557861328125</LongitudeDegrees>
            </Position>
            <AltitudeMeters>775.5999755859375</AltitudeMeters>
            <DistanceMeters>11368.398897464</DistanceMeters>
          </Trackpoint>
          <Trackpoint>
            <Time>2019-08-01T08:20:51.000Z</Time>
            <Position>
              <LatitudeDegrees>40.494992248713970184326171875</LatitudeDegrees>
              <LongitudeDegrees>-3.687659539282321929931640625</LongitudeDegrees>
            </Position>
            <AltitudeMeters>775.79998779296875</AltitudeMeters>
            <DistanceMeters>11380.992357378</DistanceMeters>
          </Trackpoint>
          <Trackpoint>
            <Time>2019-08-01T08:20:57.000Z</Time>
            <Position>
              <LatitudeDegrees>40.49539717845618724822998046875</LatitudeDegrees>
              <LongitudeDegrees>-3.68766314350068569183349609375</LongitudeDegrees>
            </Position>
            <AltitudeMeters>775.5999755859375</AltitudeMeters>
            <DistanceMeters>11426.062777681</DistanceMeters>
          </Trackpoint>
          <Trackpoint>
            <Time>2019-08-01T08:21:01.000Z</Time>
            <Position>
              <LatitudeDegrees>40.49569322727620601654052734375</LatitudeDegrees>
              <LongitudeDegrees>-3.687729276716709136962890625</LongitudeDegrees>
            </Position>
            <AltitudeMeters>775.5999755859375</AltitudeMeters>
            <DistanceMeters>11459.485579279</DistanceMeters>
          </Trackpoint>
          <Trackpoint>
            <Time>2019-08-01T08:21:05.000Z</Time>
            <Position>
              <LatitudeDegrees>40.49599396996200084686279296875</LatitudeDegrees>
              <LongitudeDegrees>-3.687651157379150390625</LongitudeDegrees>
            </Position>
            <AltitudeMeters>775.4000244140625</AltitudeMeters>
            <DistanceMeters>11493.605595623</DistanceMeters>
          </Trackpoint>
          <Trackpoint>
            <Time>2019-08-01T08:21:07.000Z</Time>
            <Position>
              <LatitudeDegrees>40.4961357079446315765380859375</LatitudeDegrees>
              <LongitudeDegrees>-3.68759072385728359222412109375</LongitudeDegrees>
            </Position>
            <AltitudeMeters>775.4000244140625</AltitudeMeters>
            <DistanceMeters>11510.189867338</DistanceMeters>
          </Trackpoint>
          <Trackpoint>
            <Time>2019-08-01T08:21:17.000Z</Time>
            <Position>
              <LatitudeDegrees>40.496639125049114227294921875</LatitudeDegrees>
              <LongitudeDegrees>-3.68728009052574634552001953125</LongitudeDegrees>
            </Position>
            <AltitudeMeters>776</AltitudeMeters>
            <DistanceMeters>11572.08297753</DistanceMeters>
          </Trackpoint>
          <Trackpoint>
            <Time>2019-08-01T08:21:22.000Z</Time>
            <Position>
              <LatitudeDegrees>40.49684020690619945526123046875</LatitudeDegrees>
              <LongitudeDegrees>-3.687172047793865203857421875</LongitudeDegrees>
            </Position>
            <AltitudeMeters>776</AltitudeMeters>
            <DistanceMeters>11596.259760778</DistanceMeters>
          </Trackpoint>
          <Trackpoint>
            <Time>2019-08-01T08:21:32.000Z</Time>
            <Position>
              <LatitudeDegrees>40.497195012867450714111328125</LatitudeDegrees>
              <LongitudeDegrees>-3.6870032362639904022216796875</LongitudeDegrees>
            </Position>
            <AltitudeMeters>776.79998779296875</AltitudeMeters>
            <DistanceMeters>11638.255655818</DistanceMeters>
          </Trackpoint>
          <Trackpoint>
            <Time>2019-08-01T08:21:52.000Z</Time>
            <Position>
              <LatitudeDegrees>40.4977319575846195220947265625</LatitudeDegrees>
              <LongitudeDegrees>-3.68679595179855823516845703125</LongitudeDegrees>
            </Position>
            <AltitudeMeters>777.79998779296875</AltitudeMeters>
            <DistanceMeters>11700.540647358</DistanceMeters>
          </Trackpoint>
          <Trackpoint>
            <Time>2019-08-01T08:21:53.000Z</Time>
            <Position>
              <LatitudeDegrees>40.49778006970882415771484375</LatitudeDegrees>
              <LongitudeDegrees>-3.6867796070873737335205078125</LongitudeDegrees>
            </Position>
            <AltitudeMeters>778</AltitudeMeters>
            <DistanceMeters>11706.07018973</DistanceMeters>
          </Trackpoint>
          <Trackpoint>
            <Time>2019-08-01T08:22:05.000Z</Time>
            <Position>
              <LatitudeDegrees>40.49832480959594249725341796875</LatitudeDegrees>
              <LongitudeDegrees>-3.68659361265599727630615234375</LongitudeDegrees>
            </Position>
            <AltitudeMeters>778.79998779296875</AltitudeMeters>
            <DistanceMeters>11768.711105014</DistanceMeters>
          </Trackpoint>
          <Trackpoint>
            <Time>2019-08-01T08:22:18.000Z</Time>
            <Position>
              <LatitudeDegrees>40.49872395582497119903564453125</LatitudeDegrees>
              <LongitudeDegrees>-3.68645598180592060089111328125</LongitudeDegrees>
            </Position>
            <AltitudeMeters>777</AltitudeMeters>
            <DistanceMeters>11814.638608283</DistanceMeters>
          </Trackpoint>
          <Trackpoint>
            <Time>2019-08-01T08:22:33.000Z</Time>
            <Position>
              <LatitudeDegrees>40.49928721971809864044189453125</LatitudeDegrees>
              <LongitudeDegrees>-3.68625934235751628875732421875</LongitudeDegrees>
            </Position>
            <AltitudeMeters>776.4000244140625</AltitudeMeters>
            <DistanceMeters>11879.502398467</DistanceMeters>
          </Trackpoint>
          <Trackpoint>
            <Time>2019-08-01T08:22:38.000Z</Time>
            <Position>
              <LatitudeDegrees>40.49950732849538326263427734375</LatitudeDegrees>
              <LongitudeDegrees>-3.68618424050509929656982421875</LongitudeDegrees>
            </Position>
            <AltitudeMeters>776</AltitudeMeters>
            <DistanceMeters>11904.81199275</DistanceMeters>
          </Trackpoint>
          <Trackpoint>
            <Time>2019-08-01T08:22:42.000Z</Time>
            <Position>
              <LatitudeDegrees>40.49968267790973186492919921875</LatitudeDegrees>
              <LongitudeDegrees>-3.68612674064934253692626953125</LongitudeDegrees>
            </Position>
            <AltitudeMeters>775</AltitudeMeters>
            <DistanceMeters>11924.926479446</DistanceMeters>
          </Trackpoint>
          <Trackpoint>
            <Time>2019-08-01T08:22:49.000Z</Time>
            <Position>
              <LatitudeDegrees>40.49997545778751373291015625</LatitudeDegrees>
              <LongitudeDegrees>-3.68603646755218505859375</LongitudeDegrees>
            </Position>
            <AltitudeMeters>774</AltitudeMeters>
            <DistanceMeters>11958.397203128</DistanceMeters>
          </Trackpoint>
          <Trackpoint>
            <Time>2019-08-01T08:22:58.000Z</Time>
            <Position>
              <LatitudeDegrees>40.50035054795444011688232421875</LatitudeDegrees>
              <LongitudeDegrees>-3.68590512312948703765869140625</LongitudeDegrees>
            </Position>
            <AltitudeMeters>773.20001220703125</AltitudeMeters>
            <DistanceMeters>12001.60019771</DistanceMeters>
          </Trackpoint>
          <Trackpoint>
            <Time>2019-08-01T08:23:10.000Z</Time>
            <Position>
              <LatitudeDegrees>40.50087676383554935455322265625</LatitudeDegrees>
              <LongitudeDegrees>-3.68573580868542194366455078125</LongitudeDegrees>
            </Position>
            <AltitudeMeters>773</AltitudeMeters>
            <DistanceMeters>12061.896651069</DistanceMeters>
          </Trackpoint>
          <Trackpoint>
            <Time>2019-08-01T08:23:18.000Z</Time>
            <Position>
              <LatitudeDegrees>40.501294434070587158203125</LatitudeDegrees>
              <LongitudeDegrees>-3.68569339625537395477294921875</LongitudeDegrees>
            </Position>
            <AltitudeMeters>772</AltitudeMeters>
            <DistanceMeters>12108.522532763</DistanceMeters>
          </Trackpoint>
          <Trackpoint>
            <Time>2019-08-01T08:23:25.000Z</Time>
            <Position>
              <LatitudeDegrees>40.50169768743216991424560546875</LatitudeDegrees>
              <LongitudeDegrees>-3.6856658197939395904541015625</LongitudeDegrees>
            </Position>
            <AltitudeMeters>771</AltitudeMeters>
            <DistanceMeters>12153.466150437</DistanceMeters>
          </Trackpoint>
          <Trackpoint>
            <Time>2019-08-01T08:23:33.000Z</Time>
            <Position>
              <LatitudeDegrees>40.50202709622681140899658203125</LatitudeDegrees>
              <LongitudeDegrees>-3.68564444594085216522216796875</LongitudeDegrees>
            </Position>
            <AltitudeMeters>769.79998779296875</AltitudeMeters>
            <DistanceMeters>12190.174762335</DistanceMeters>
          </Trackpoint>
          <Trackpoint>
            <Time>2019-08-01T08:23:38.000Z</Time>
            <Position>
              <LatitudeDegrees>40.50219372846186161041259765625</LatitudeDegrees>
              <LongitudeDegrees>-3.685631453990936279296875</LongitudeDegrees>
            </Position>
            <AltitudeMeters>769</AltitudeMeters>
            <DistanceMeters>12208.753882393</DistanceMeters>
          </Trackpoint>
          <Trackpoint>
            <Time>2019-08-01T08:23:44.000Z</Time>
            <Position>
              <LatitudeDegrees>40.502340495586395263671875</LatitudeDegrees>
              <LongitudeDegrees>-3.68561360053718090057373046875</LongitudeDegrees>
            </Position>
            <AltitudeMeters>768</AltitudeMeters>
            <DistanceMeters>12225.159137598</DistanceMeters>
          </Trackpoint>
          <Trackpoint>
            <Time>2019-08-01T08:23:49.000Z</Time>
            <Position>
              <LatitudeDegrees>40.50241786055266857147216796875</LatitudeDegrees>
              <LongitudeDegrees>-3.6856086552143096923828125</LongitudeDegrees>
            </Position>
            <AltitudeMeters>766.79998779296875</AltitudeMeters>
            <DistanceMeters>12233.780422839</DistanceMeters>
          </Trackpoint>
          <Trackpoint>
            <Time>2019-08-01T08:23:53.000Z</Time>
            <Position>
              <LatitudeDegrees>40.502462200820446014404296875</LatitudeDegrees>
              <LongitudeDegrees>-3.68560270406305789947509765625</LongitudeDegrees>
            </Position>
            <AltitudeMeters>765.79998779296875</AltitudeMeters>
            <DistanceMeters>12238.741873069</DistanceMeters>
          </Trackpoint>
          <Trackpoint>
            <Time>2019-08-01T08:23:58.000Z</Time>
            <Position>
              <LatitudeDegrees>40.5025079660117626190185546875</LatitudeDegrees>
              <LongitudeDegrees>-3.685591220855712890625</LongitudeDegrees>
            </Position>
            <AltitudeMeters>764.5999755859375</AltitudeMeters>
            <DistanceMeters>12243.928451684</DistanceMeters>
          </Trackpoint>
          <Trackpoint>
            <Time>2019-08-01T08:24:01.000Z</Time>
            <Position>
              <LatitudeDegrees>40.5025381408631801605224609375</LatitudeDegrees>
              <LongitudeDegrees>-3.68557957001030445098876953125</LongitudeDegrees>
            </Position>
            <AltitudeMeters>763.79998779296875</AltitudeMeters>
            <DistanceMeters>12247.430286034</DistanceMeters>
          </Trackpoint>
          <Trackpoint>
            <Time>2019-08-01T08:24:03.000Z</Time>
            <Position>
              <LatitudeDegrees>40.50256169401109218597412109375</LatitudeDegrees>
              <LongitudeDegrees>-3.68556163273751735687255859375</LongitudeDegrees>
            </Position>
            <AltitudeMeters>763.4000244140625</AltitudeMeters>
            <DistanceMeters>12250.459239263</DistanceMeters>
          </Trackpoint>
          <Trackpoint>
            <Time>2019-08-01T08:24:07.000Z</Time>
            <Position>
              <LatitudeDegrees>40.50264366902410984039306640625</LatitudeDegrees>
              <LongitudeDegrees>-3.68553531356155872344970703125</LongitudeDegrees>
            </Position>
            <AltitudeMeters>762.4000244140625</AltitudeMeters>
            <DistanceMeters>12259.851032846</DistanceMeters>
          </Trackpoint>
          <Trackpoint>
            <Time>2019-08-01T08:24:10.000Z</Time>
            <Position>
              <LatitudeDegrees>40.50274827517569065093994140625</LatitudeDegrees>
              <LongitudeDegrees>-3.68555442430078983306884765625</LongitudeDegrees>
            </Position>
            <AltitudeMeters>761</AltitudeMeters>
            <DistanceMeters>12271.605572381</DistanceMeters>
          </Trackpoint>
          <Trackpoint>
            <Time>2019-08-01T08:24:15.000Z</Time>
            <Position>
              <LatitudeDegrees>40.5029615946114063262939453125</LatitudeDegrees>
              <LongitudeDegrees>-3.6855628900229930877685546875</LongitudeDegrees>
            </Position>
            <AltitudeMeters>760</AltitudeMeters>
            <DistanceMeters>12295.359209924</DistanceMeters>
          </Trackpoint>
          <Trackpoint>
            <Time>2019-08-01T08:24:24.000Z</Time>
            <Position>
              <LatitudeDegrees>40.5033887363970279693603515625</LatitudeDegrees>
              <LongitudeDegrees>-3.685534559190273284912109375</LongitudeDegrees>
            </Position>
            <AltitudeMeters>759.4000244140625</AltitudeMeters>
            <DistanceMeters>12342.961429016</DistanceMeters>
          </Trackpoint>
          <Trackpoint>
            <Time>2019-08-01T08:24:32.000Z</Time>
            <Position>
              <LatitudeDegrees>40.5037634074687957763671875</LatitudeDegrees>
              <LongitudeDegrees>-3.6855142749845981597900390625</LongitudeDegrees>
            </Position>
            <AltitudeMeters>759</AltitudeMeters>
            <DistanceMeters>12384.698390893</DistanceMeters>
          </Trackpoint>
          <Trackpoint>
            <Time>2019-08-01T08:24:43.000Z</Time>
            <Position>
              <LatitudeDegrees>40.504319630563259124755859375</LatitudeDegrees>
              <LongitudeDegrees>-3.68546473793685436248779296875</LongitudeDegrees>
            </Position>
            <AltitudeMeters>758</AltitudeMeters>
            <DistanceMeters>12446.748870781</DistanceMeters>
          </Trackpoint>
          <Trackpoint>
            <Time>2019-08-01T08:24:54.000Z</Time>
            <Position>
              <LatitudeDegrees>40.504869483411312103271484375</LatitudeDegrees>
              <LongitudeDegrees>-3.68542232550680637359619140625</LongitudeDegrees>
            </Position>
            <AltitudeMeters>758.20001220703125</AltitudeMeters>
            <DistanceMeters>12508.05369682</DistanceMeters>
          </Trackpoint>
          <Trackpoint>
            <Time>2019-08-01T08:24:55.000Z</Time>
            <Position>
              <LatitudeDegrees>40.50492011010646820068359375</LatitudeDegrees>
              <LongitudeDegrees>-3.68541796691715717315673828125</LongitudeDegrees>
            </Position>
            <AltitudeMeters>758</AltitudeMeters>
            <DistanceMeters>12513.701194496</DistanceMeters>
          </Trackpoint>
          <Trackpoint>
            <Time>2019-08-01T08:25:06.000Z</Time>
            <Position>
              <LatitudeDegrees>40.5054868943989276885986328125</LatitudeDegrees>
              <LongitudeDegrees>-3.6853838525712490081787109375</LongitudeDegrees>
            </Position>
            <AltitudeMeters>757</AltitudeMeters>
            <DistanceMeters>12576.851433292</DistanceMeters>
          </Trackpoint>
          <Trackpoint>
            <Time>2019-08-01T08:25:08.000Z</Time>
            <Position>
              <LatitudeDegrees>40.50558756105601787567138671875</LatitudeDegrees>
              <LongitudeDegrees>-3.68538745678961277008056640625</LongitudeDegrees>
            </Position>
            <AltitudeMeters>756.79998779296875</AltitudeMeters>
            <DistanceMeters>12588.059752679</DistanceMeters>
          </Trackpoint>
          <Trackpoint>
            <Time>2019-08-01T08:25:09.000Z</Time>
            <Position>
              <LatitudeDegrees>40.50563936121761798858642578125</LatitudeDegrees>
              <LongitudeDegrees>-3.68538343347609043121337890625</LongitudeDegrees>
            </Position>
            <AltitudeMeters>756.79998779296875</AltitudeMeters>
            <DistanceMeters>12593.835313464</DistanceMeters>
          </Trackpoint>
          <Trackpoint>
            <Time>2019-08-01T08:25:19.000Z</Time>
            <Position>
              <LatitudeDegrees>40.50619541667401790618896484375</LatitudeDegrees>
              <LongitudeDegrees>-3.68533439934253692626953125</LongitudeDegrees>
            </Position>
            <AltitudeMeters>755.79998779296875</AltitudeMeters>
            <DistanceMeters>12655.864397061</DistanceMeters>
          </Trackpoint>
          <Trackpoint>
            <Time>2019-08-01T08:25:31.000Z</Time>
            <Position>
              <LatitudeDegrees>40.50675935111939907073974609375</LatitudeDegrees>
              <LongitudeDegrees>-3.685288131237030029296875</LongitudeDegrees>
            </Position>
            <AltitudeMeters>755</AltitudeMeters>
            <DistanceMeters>12718.753490165</DistanceMeters>
          </Trackpoint>
          <Trackpoint>
            <Time>2019-08-01T08:25:44.000Z</Time>
            <Position>
              <LatitudeDegrees>40.507162772119045257568359375</LatitudeDegrees>
              <LongitudeDegrees>-3.685254268348217010498046875</LongitudeDegrees>
            </Position>
            <AltitudeMeters>754</AltitudeMeters>
            <DistanceMeters>12763.746406687</DistanceMeters>
          </Trackpoint>
          <Trackpoint>
            <Time>2019-08-01T08:25:55.000Z</Time>
            <Position>
              <LatitudeDegrees>40.50770290195941925048828125</LatitudeDegrees>
              <LongitudeDegrees>-3.6852138675749301910400390625</LongitudeDegrees>
            </Position>
            <AltitudeMeters>753</AltitudeMeters>
            <DistanceMeters>12823.961034845</DistanceMeters>
          </Trackpoint>
          <Trackpoint>
            <Time>2019-08-01T08:26:03.000Z</Time>
            <Position>
              <LatitudeDegrees>40.50809727050364017486572265625</LatitudeDegrees>
              <LongitudeDegrees>-3.68518511764705181121826171875</LongitudeDegrees>
            </Position>
            <AltitudeMeters>753</AltitudeMeters>
            <DistanceMeters>12867.922368997</DistanceMeters>
          </Trackpoint>
          <Trackpoint>
            <Time>2019-08-01T08:26:14.000Z</Time>
            <Position>
              <LatitudeDegrees>40.50865709781646728515625</LatitudeDegrees>
              <LongitudeDegrees>-3.685142286121845245361328125</LongitudeDegrees>
            </Position>
            <AltitudeMeters>752.4000244140625</AltitudeMeters>
            <DistanceMeters>12930.337633786</DistanceMeters>
          </Trackpoint>
          <Trackpoint>
            <Time>2019-08-01T08:26:22.000Z</Time>
            <Position>
              <LatitudeDegrees>40.50903688184916973114013671875</LatitudeDegrees>
              <LongitudeDegrees>-3.6850639991462230682373046875</LongitudeDegrees>
            </Position>
            <AltitudeMeters>752.79998779296875</AltitudeMeters>
            <DistanceMeters>12973.12424954</DistanceMeters>
          </Trackpoint>
          <Trackpoint>
            <Time>2019-08-01T08:26:31.000Z</Time>
            <Position>
              <LatitudeDegrees>40.50941146910190582275390625</LatitudeDegrees>
              <LongitudeDegrees>-3.6848487518727779388427734375</LongitudeDegrees>
            </Position>
            <AltitudeMeters>753.5999755859375</AltitudeMeters>
            <DistanceMeters>13018.62180589</DistanceMeters>
          </Trackpoint>
          <Trackpoint>
            <Time>2019-08-01T08:26:40.000Z</Time>
            <Position>
              <LatitudeDegrees>40.50976174883544445037841796875</LatitudeDegrees>
              <LongitudeDegrees>-3.68507950566709041595458984375</LongitudeDegrees>
            </Position>
            <AltitudeMeters>752.79998779296875</AltitudeMeters>
            <DistanceMeters>13062.225401673</DistanceMeters>
          </Trackpoint>
          <Trackpoint>
            <Time>2019-08-01T08:26:45.000Z</Time>
            <Position>
              <LatitudeDegrees>40.509797036647796630859375</LatitudeDegrees>
              <LongitudeDegrees>-3.6851665936410427093505859375</LongitudeDegrees>
            </Position>
            <AltitudeMeters>753.4000244140625</AltitudeMeters>
            <DistanceMeters>13070.576406426</DistanceMeters>
          </Trackpoint>
          <Trackpoint>
            <Time>2019-08-01T08:26:49.000Z</Time>
            <Position>
              <LatitudeDegrees>40.50993273966014385223388671875</LatitudeDegrees>
              <LongitudeDegrees>-3.68515611626207828521728515625</LongitudeDegrees>
            </Position>
            <AltitudeMeters>754</AltitudeMeters>
            <DistanceMeters>13085.706258965</DistanceMeters>
          </Trackpoint>
          <Trackpoint>
            <Time>2019-08-01T08:27:00.000Z</Time>
            <Position>
              <LatitudeDegrees>40.5105304531753063201904296875</LatitudeDegrees>
              <LongitudeDegrees>-3.68509241379797458648681640625</LongitudeDegrees>
            </Position>
            <AltitudeMeters>753.79998779296875</AltitudeMeters>
            <DistanceMeters>13152.451010014</DistanceMeters>
          </Trackpoint>
          <Trackpoint>
            <Time>2019-08-01T08:27:08.000Z</Time>
            <Position>
              <LatitudeDegrees>40.51104317419230937957763671875</LatitudeDegrees>
              <LongitudeDegrees>-3.6850588023662567138671875</LongitudeDegrees>
            </Position>
            <AltitudeMeters>753</AltitudeMeters>
            <DistanceMeters>13209.588701404</DistanceMeters>
          </Trackpoint>
          <Trackpoint>
            <Time>2019-08-01T08:27:12.000Z</Time>
            <Position>
              <LatitudeDegrees>40.51125942729413509368896484375</LatitudeDegrees>
              <LongitudeDegrees>-3.685043714940547943115234375</LongitudeDegrees>
            </Position>
            <AltitudeMeters>752.79998779296875</AltitudeMeters>
            <DistanceMeters>13233.69160513</DistanceMeters>
          </Trackpoint>
          <Trackpoint>
            <Time>2019-08-01T08:27:14.000Z</Time>
            <Position>
              <LatitudeDegrees>40.51135003566741943359375</LatitudeDegrees>
              <LongitudeDegrees>-3.68501228280365467071533203125</LongitudeDegrees>
            </Position>
            <AltitudeMeters>753.79998779296875</AltitudeMeters>
            <DistanceMeters>13244.12119289</DistanceMeters>
          </Trackpoint>
          <Trackpoint>
            <Time>2019-08-01T08:27:15.000Z</Time>
            <Position>
              <LatitudeDegrees>40.5113901011645793914794921875</LatitudeDegrees>
              <LongitudeDegrees>-3.68499116040766239166259765625</LongitudeDegrees>
            </Position>
            <AltitudeMeters>754</AltitudeMeters>
            <DistanceMeters>13248.925448856</DistanceMeters>
          </Trackpoint>
          <Trackpoint>
            <Time>2019-08-01T08:27:21.000Z</Time>
            <Position>
              <LatitudeDegrees>40.51155463792383670806884765625</LatitudeDegrees>
              <LongitudeDegrees>-3.68480457924306392669677734375</LongitudeDegrees>
            </Position>
            <AltitudeMeters>754.4000244140625</AltitudeMeters>
            <DistanceMeters>13273.105033207</DistanceMeters>
          </Trackpoint>
          <Trackpoint>
            <Time>2019-08-01T08:27:29.000Z</Time>
            <Position>
              <LatitudeDegrees>40.51173317246139049530029296875</LatitudeDegrees>
              <LongitudeDegrees>-3.684444911777973175048828125</LongitudeDegrees>
            </Position>
            <AltitudeMeters>754.20001220703125</AltitudeMeters>
            <DistanceMeters>13309.452720399</DistanceMeters>
          </Trackpoint>
          <Trackpoint>
            <Time>2019-08-01T08:27:33.000Z</Time>
            <Position>
              <LatitudeDegrees>40.51188656128942966461181640625</LatitudeDegrees>
              <LongitudeDegrees>-3.6843716539442539215087890625</LongitudeDegrees>
            </Position>
            <AltitudeMeters>754</AltitudeMeters>
            <DistanceMeters>13327.615505225</DistanceMeters>
          </Trackpoint>
          <Trackpoint>
            <Time>2019-08-01T08:27:36.000Z</Time>
            <Position>
              <LatitudeDegrees>40.5120281316339969635009765625</LatitudeDegrees>
              <LongitudeDegrees>-3.6843632720410823822021484375</LongitudeDegrees>
            </Position>
            <AltitudeMeters>753</AltitudeMeters>
            <DistanceMeters>13343.388222367</DistanceMeters>
          </Trackpoint>
          <Trackpoint>
            <Time>2019-08-01T08:27:37.000Z</Time>
            <Position>
              <LatitudeDegrees>40.5120914988219738006591796875</LatitudeDegrees>
              <LongitudeDegrees>-3.68437307886779308319091796875</LongitudeDegrees>
            </Position>
            <AltitudeMeters>752.79998779296875</AltitudeMeters>
            <DistanceMeters>13350.489840277</DistanceMeters>
          </Trackpoint>
          <Trackpoint>
            <Time>2019-08-01T08:27:47.000Z</Time>
            <Position>
              <LatitudeDegrees>40.5126628093421459197998046875</LatitudeDegrees>
              <LongitudeDegrees>-3.684479109942913055419921875</LongitudeDegrees>
            </Position>
            <AltitudeMeters>752.4000244140625</AltitudeMeters>
            <DistanceMeters>13414.707723932</DistanceMeters>
          </Trackpoint>
          <Trackpoint>
            <Time>2019-08-01T08:27:48.000Z</Time>
            <Position>
              <LatitudeDegrees>40.512714274227619171142578125</LatitudeDegrees>
              <LongitudeDegrees>-3.68449076078832149505615234375</LongitudeDegrees>
            </Position>
            <AltitudeMeters>752.4000244140625</AltitudeMeters>
            <DistanceMeters>13420.520687553</DistanceMeters>
          </Trackpoint>
          <Trackpoint>
            <Time>2019-08-01T08:27:59.000Z</Time>
            <Position>
              <LatitudeDegrees>40.5132850818336009979248046875</LatitudeDegrees>
              <LongitudeDegrees>-3.68443795479834079742431640625</LongitudeDegrees>
            </Position>
            <AltitudeMeters>752.5999755859375</AltitudeMeters>
            <DistanceMeters>13484.209644589</DistanceMeters>
          </Trackpoint>
          <Trackpoint>
            <Time>2019-08-01T08:28:03.000Z</Time>
            <Position>
              <LatitudeDegrees>40.5135023407638072967529296875</LatitudeDegrees>
              <LongitudeDegrees>-3.68441750295460224151611328125</LongitudeDegrees>
            </Position>
            <AltitudeMeters>752</AltitudeMeters>
            <DistanceMeters>13508.45282003</DistanceMeters>
          </Trackpoint>
          <Trackpoint>
            <Time>2019-08-01T08:28:04.000Z</Time>
            <Position>
              <LatitudeDegrees>40.51355606876313686370849609375</LatitudeDegrees>
              <LongitudeDegrees>-3.6844058521091938018798828125</LongitudeDegrees>
            </Position>
            <AltitudeMeters>751.79998779296875</AltitudeMeters>
            <DistanceMeters>13514.512962016</DistanceMeters>
          </Trackpoint>
          <Trackpoint>
            <Time>2019-08-01T08:28:09.000Z</Time>
            <Position>
              <LatitudeDegrees>40.51382781006395816802978515625</LatitudeDegrees>
              <LongitudeDegrees>-3.68435765616595745086669921875</LongitudeDegrees>
            </Position>
            <AltitudeMeters>752</AltitudeMeters>
            <DistanceMeters>13545.032075124</DistanceMeters>
          </Trackpoint>
          <Trackpoint>
            <Time>2019-08-01T08:28:19.000Z</Time>
            <Position>
              <LatitudeDegrees>40.5143764056265354156494140625</LatitudeDegrees>
              <LongitudeDegrees>-3.68437207303941249847412109375</LongitudeDegrees>
            </Position>
            <AltitudeMeters>751.5999755859375</AltitudeMeters>
            <DistanceMeters>13606.104022649</DistanceMeters>
          </Trackpoint>
          <Trackpoint>
            <Time>2019-08-01T08:28:30.000Z</Time>
            <Position>
              <LatitudeDegrees>40.51495827734470367431640625</LatitudeDegrees>
              <LongitudeDegrees>-3.68441440165042877197265625</LongitudeDegrees>
            </Position>
            <AltitudeMeters>751.5999755859375</AltitudeMeters>
            <DistanceMeters>13670.966490267</DistanceMeters>
          </Trackpoint>
          <Trackpoint>
            <Time>2019-08-01T08:28:41.000Z</Time>
            <Position>
              <LatitudeDegrees>40.51552564837038516998291015625</LatitudeDegrees>
              <LongitudeDegrees>-3.68447517044842243194580078125</LongitudeDegrees>
            </Position>
            <AltitudeMeters>752.20001220703125</AltitudeMeters>
            <DistanceMeters>13734.325013159</DistanceMeters>
          </Trackpoint>
          <Trackpoint>
            <Time>2019-08-01T08:28:52.000Z</Time>
            <Position>
              <LatitudeDegrees>40.51606510765850543975830078125</LatitudeDegrees>
              <LongitudeDegrees>-3.68452839553356170654296875</LongitudeDegrees>
            </Position>
            <AltitudeMeters>752.79998779296875</AltitudeMeters>
            <DistanceMeters>13794.536566959</DistanceMeters>
          </Trackpoint>
          <Trackpoint>
            <Time>2019-08-01T08:29:04.000Z</Time>
            <Position>
              <LatitudeDegrees>40.51664480008184909820556640625</LatitudeDegrees>
              <LongitudeDegrees>-3.68458530865609645843505859375</LongitudeDegrees>
            </Position>
            <AltitudeMeters>752.79998779296875</AltitudeMeters>
            <DistanceMeters>13859.236920495</DistanceMeters>
          </Trackpoint>
          <Trackpoint>
            <Time>2019-08-01T08:29:15.000Z</Time>
            <Position>
              <LatitudeDegrees>40.5171960778534412384033203125</LatitudeDegrees>
              <LongitudeDegrees>-3.68466761894524097442626953125</LongitudeDegrees>
            </Position>
            <AltitudeMeters>751.4000244140625</AltitudeMeters>
            <DistanceMeters>13920.989224921</DistanceMeters>
          </Trackpoint>
          <Trackpoint>
            <Time>2019-08-01T08:29:18.000Z</Time>
            <Position>
              <LatitudeDegrees>40.51735608838498592376708984375</LatitudeDegrees>
              <LongitudeDegrees>-3.68469737470149993896484375</LongitudeDegrees>
            </Position>
            <AltitudeMeters>751.20001220703125</AltitudeMeters>
            <DistanceMeters>13938.975650877</DistanceMeters>
          </Trackpoint>
          <Trackpoint>
            <Time>2019-08-01T08:29:19.000Z</Time>
            <Position>
              <LatitudeDegrees>40.51740772090852260589599609375</LatitudeDegrees>
              <LongitudeDegrees>-3.68470148183405399322509765625</LongitudeDegrees>
            </Position>
            <AltitudeMeters>751.20001220703125</AltitudeMeters>
            <DistanceMeters>13944.732419115</DistanceMeters>
          </Trackpoint>
          <Trackpoint>
            <Time>2019-08-01T08:29:29.000Z</Time>
            <Position>
              <LatitudeDegrees>40.51799311302602291107177734375</LatitudeDegrees>
              <LongitudeDegrees>-3.68470164947211742401123046875</LongitudeDegrees>
            </Position>
            <AltitudeMeters>751</AltitudeMeters>
            <DistanceMeters>14009.887699084</DistanceMeters>
          </Trackpoint>
          <Trackpoint>
            <Time>2019-08-01T08:29:42.000Z</Time>
            <Position>
              <LatitudeDegrees>40.5185385234653949737548828125</LatitudeDegrees>
              <LongitudeDegrees>-3.68491237051784992218017578125</LongitudeDegrees>
            </Position>
            <AltitudeMeters>751.20001220703125</AltitudeMeters>
            <DistanceMeters>14073.157153464</DistanceMeters>
          </Trackpoint>
          <Trackpoint>
            <Time>2019-08-01T08:29:44.000Z</Time>
            <Position>
              <LatitudeDegrees>40.51861974410712718963623046875</LatitudeDegrees>
              <LongitudeDegrees>-3.68492192588746547698974609375</LongitudeDegrees>
            </Position>
            <AltitudeMeters>751.5999755859375</AltitudeMeters>
            <DistanceMeters>14082.233075308</DistanceMeters>
          </Trackpoint>
          <Trackpoint>
            <Time>2019-08-01T08:29:50.000Z</Time>
            <Position>
              <LatitudeDegrees>40.51893255673348903656005859375</LatitudeDegrees>
              <LongitudeDegrees>-3.6849220097064971923828125</LongitudeDegrees>
            </Position>
            <AltitudeMeters>752.4000244140625</AltitudeMeters>
            <DistanceMeters>14117.049701535</DistanceMeters>
          </Trackpoint>
          <Trackpoint>
            <Time>2019-08-01T08:29:57.000Z</Time>
            <Position>
              <LatitudeDegrees>40.51938853226602077484130859375</LatitudeDegrees>
              <LongitudeDegrees>-3.68495352566242218017578125</LongitudeDegrees>
            </Position>
            <AltitudeMeters>753.4000244140625</AltitudeMeters>
            <DistanceMeters>14167.87078441</DistanceMeters>
          </Trackpoint>
          <Trackpoint>
            <Time>2019-08-01T08:30:04.000Z</Time>
            <Position>
              <LatitudeDegrees>40.51995062269270420074462890625</LatitudeDegrees>
              <LongitudeDegrees>-3.68510666303336620330810546875</LongitudeDegrees>
            </Position>
            <AltitudeMeters>754.4000244140625</AltitudeMeters>
            <DistanceMeters>14231.760262847</DistanceMeters>
          </Trackpoint>
          <Trackpoint>
            <Time>2019-08-01T08:30:06.000Z</Time>
            <Position>
              <LatitudeDegrees>40.5200982280075550079345703125</LatitudeDegrees>
              <LongitudeDegrees>-3.68517187424004077911376953125</LongitudeDegrees>
            </Position>
            <AltitudeMeters>754.79998779296875</AltitudeMeters>
            <DistanceMeters>14249.09059298</DistanceMeters>
          </Trackpoint>
          <Trackpoint>
            <Time>2019-08-01T08:30:10.000Z</Time>
            <Position>
              <LatitudeDegrees>40.5204210989177227020263671875</LatitudeDegrees>
              <LongitudeDegrees>-3.6853302083909511566162109375</LongitudeDegrees>
            </Position>
            <AltitudeMeters>756.20001220703125</AltitudeMeters>
            <DistanceMeters>14287.442555533</DistanceMeters>
          </Trackpoint>
          <Trackpoint>
            <Time>2019-08-01T08:30:14.000Z</Time>
            <Position>
              <LatitudeDegrees>40.5207047425210475921630859375</LatitudeDegrees>
              <LongitudeDegrees>-3.68551972322165966033935546875</LongitudeDegrees>
            </Position>
            <AltitudeMeters>757.20001220703125</AltitudeMeters>
            <DistanceMeters>14322.851197611</DistanceMeters>
          </Trackpoint>
          <Trackpoint>
            <Time>2019-08-01T08:30:18.000Z</Time>
            <Position>
              <LatitudeDegrees>40.5209226720035076141357421875</LatitudeDegrees>
              <LongitudeDegrees>-3.6857392452657222747802734375</LongitudeDegrees>
            </Position>
            <AltitudeMeters>758.20001220703125</AltitudeMeters>
            <DistanceMeters>14353.401510392</DistanceMeters>
          </Trackpoint>
          <Trackpoint>
            <Time>2019-08-01T08:30:23.000Z</Time>
            <Position>
              <LatitudeDegrees>40.5211657471954822540283203125</LatitudeDegrees>
              <LongitudeDegrees>-3.68591015227138996124267578125</LongitudeDegrees>
            </Position>
            <AltitudeMeters>759.5999755859375</AltitudeMeters>
            <DistanceMeters>14384.077923585</DistanceMeters>
          </Trackpoint>
          <Trackpoint>
            <Time>2019-08-01T08:30:30.000Z</Time>
            <Position>
              <LatitudeDegrees>40.521487779915332794189453125</LatitudeDegrees>
              <LongitudeDegrees>-3.68616211228072643280029296875</LongitudeDegrees>
            </Position>
            <AltitudeMeters>760.4000244140625</AltitudeMeters>
            <DistanceMeters>14425.781120138</DistanceMeters>
          </Trackpoint>
          <Trackpoint>
            <Time>2019-08-01T08:30:32.000Z</Time>
            <Position>
              <LatitudeDegrees>40.5215556733310222625732421875</LatitudeDegrees>
              <LongitudeDegrees>-3.6862642876803874969482421875</LongitudeDegrees>
            </Position>
            <AltitudeMeters>760.5999755859375</AltitudeMeters>
            <DistanceMeters>14437.263241723</DistanceMeters>
          </Trackpoint>
          <Trackpoint>
            <Time>2019-08-01T08:30:38.000Z</Time>
            <Position>
              <LatitudeDegrees>40.52156263031065464019775390625</LatitudeDegrees>
              <LongitudeDegrees>-3.68661942891776561737060546875</LongitudeDegrees>
            </Position>
            <AltitudeMeters>761</AltitudeMeters>
            <DistanceMeters>14467.320838903</DistanceMeters>
          </Trackpoint>
          <Trackpoint>
            <Time>2019-08-01T08:30:40.000Z</Time>
            <Position>
              <LatitudeDegrees>40.521541424095630645751953125</LatitudeDegrees>
              <LongitudeDegrees>-3.68672889657318592071533203125</LongitudeDegrees>
            </Position>
            <AltitudeMeters>760.79998779296875</AltitudeMeters>
            <DistanceMeters>14476.878466919</DistanceMeters>
          </Trackpoint>
          <Trackpoint>
            <Time>2019-08-01T08:30:45.000Z</Time>
            <Position>
              <LatitudeDegrees>40.52166824229061603546142578125</LatitudeDegrees>
              <LongitudeDegrees>-3.68696342222392559051513671875</LongitudeDegrees>
            </Position>
            <AltitudeMeters>761.4000244140625</AltitudeMeters>
            <DistanceMeters>14501.229421721</DistanceMeters>
          </Trackpoint>
          <Trackpoint>
            <Time>2019-08-01T08:31:04.000Z</Time>
            <Position>
              <LatitudeDegrees>40.5220884270966053009033203125</LatitudeDegrees>
              <LongitudeDegrees>-3.687416799366474151611328125</LongitudeDegrees>
            </Position>
            <AltitudeMeters>762</AltitudeMeters>
            <DistanceMeters>14561.71584757</DistanceMeters>
          </Trackpoint>
          <Trackpoint>
            <Time>2019-08-01T08:31:05.000Z</Time>
            <Position>
              <LatitudeDegrees>40.5221118964254856109619140625</LatitudeDegrees>
              <LongitudeDegrees>-3.6874352395534515380859375</LongitudeDegrees>
            </Position>
            <AltitudeMeters>762.20001220703125</AltitudeMeters>
            <DistanceMeters>14564.75670243</DistanceMeters>
          </Trackpoint>
          <Trackpoint>
            <Time>2019-08-01T08:31:22.000Z</Time>
            <Position>
              <LatitudeDegrees>40.52264121361076831817626953125</LatitudeDegrees>
              <LongitudeDegrees>-3.6876711063086986541748046875</LongitudeDegrees>
            </Position>
            <AltitudeMeters>762.79998779296875</AltitudeMeters>
            <DistanceMeters>14626.958782731</DistanceMeters>
          </Trackpoint>
          <Trackpoint>
            <Time>2019-08-01T08:31:38.000Z</Time>
            <Position>
              <LatitudeDegrees>40.52318519912660121917724609375</LatitudeDegrees>
              <LongitudeDegrees>-3.687857352197170257568359375</LongitudeDegrees>
            </Position>
            <AltitudeMeters>762.79998779296875</AltitudeMeters>
            <DistanceMeters>14689.522310409</DistanceMeters>
          </Trackpoint>
          <Trackpoint>
            <Time>2019-08-01T08:31:44.000Z</Time>
            <Position>
              <LatitudeDegrees>40.5233899690210819244384765625</LatitudeDegrees>
              <LongitudeDegrees>-3.68792004883289337158203125</LongitudeDegrees>
            </Position>
            <AltitudeMeters>763.5999755859375</AltitudeMeters>
            <DistanceMeters>14712.922819711</DistanceMeters>
          </Trackpoint>
          <Trackpoint>
            <Time>2019-08-01T08:31:50.000Z</Time>
            <Position>
              <LatitudeDegrees>40.52360848523676395416259765625</LatitudeDegrees>
              <LongitudeDegrees>-3.68799917399883270263671875</LongitudeDegrees>
            </Position>
            <AltitudeMeters>764.79998779296875</AltitudeMeters>
            <DistanceMeters>14738.148788216</DistanceMeters>
          </Trackpoint>
          <Trackpoint>
            <Time>2019-08-01T08:31:57.000Z</Time>
            <Position>
              <LatitudeDegrees>40.52391509525477886199951171875</LatitudeDegrees>
              <LongitudeDegrees>-3.68809347040951251983642578125</LongitudeDegrees>
            </Position>
            <AltitudeMeters>766</AltitudeMeters>
            <DistanceMeters>14773.195227946</DistanceMeters>
          </Trackpoint>
          <Trackpoint>
            <Time>2019-08-01T08:32:06.000Z</Time>
            <Position>
              <LatitudeDegrees>40.5242985673248767852783203125</LatitudeDegrees>
              <LongitudeDegrees>-3.68824250064790248870849609375</LongitudeDegrees>
            </Position>
            <AltitudeMeters>767.20001220703125</AltitudeMeters>
            <DistanceMeters>14817.699800376</DistanceMeters>
          </Trackpoint>
          <Trackpoint>
            <Time>2019-08-01T08:32:16.000Z</Time>
            <Position>
              <LatitudeDegrees>40.52475395612418651580810546875</LatitudeDegrees>
              <LongitudeDegrees>-3.6884908564388751983642578125</LongitudeDegrees>
            </Position>
            <AltitudeMeters>768.5999755859375</AltitudeMeters>
            <DistanceMeters>14872.568162714</DistanceMeters>
          </Trackpoint>
          <Trackpoint>
            <Time>2019-08-01T08:32:27.000Z</Time>
            <Position>
              <LatitudeDegrees>40.52526642568409442901611328125</LatitudeDegrees>
              <LongitudeDegrees>-3.6888405494391918182373046875</LongitudeDegrees>
            </Position>
            <AltitudeMeters>769.4000244140625</AltitudeMeters>
            <DistanceMeters>14936.82315833</DistanceMeters>
          </Trackpoint>
          <Trackpoint>
            <Time>2019-08-01T08:32:32.000Z</Time>
            <Position>
              <LatitudeDegrees>40.5255062319338321685791015625</LatitudeDegrees>
              <LongitudeDegrees>-3.6890487559139728546142578125</LongitudeDegrees>
            </Position>
            <AltitudeMeters>769.5999755859375</AltitudeMeters>
            <DistanceMeters>14968.802436268</DistanceMeters>
          </Trackpoint>
          <Trackpoint>
            <Time>2019-08-01T08:32:41.000Z</Time>
            <Position>
              <LatitudeDegrees>40.526002943515777587890625</LatitudeDegrees>
              <LongitudeDegrees>-3.689478076994419097900390625</LongitudeDegrees>
            </Position>
            <AltitudeMeters>769.5999755859375</AltitudeMeters>
            <DistanceMeters>15034.951268624</DistanceMeters>
          </Trackpoint>
          <Trackpoint>
            <Time>2019-08-01T08:32:49.000Z</Time>
            <Position>
              <LatitudeDegrees>40.52651767618954181671142578125</LatitudeDegrees>
              <LongitudeDegrees>-3.68982366286218166351318359375</LongitudeDegrees>
            </Position>
            <AltitudeMeters>770.20001220703125</AltitudeMeters>
            <DistanceMeters>15099.271018251</DistanceMeters>
          </Trackpoint>
          <Trackpoint>
            <Time>2019-08-01T08:32:54.000Z</Time>
            <Position>
              <LatitudeDegrees>40.52679562009871006011962890625</LatitudeDegrees>
              <LongitudeDegrees>-3.69007210247218608856201171875</LongitudeDegrees>
            </Position>
            <AltitudeMeters>771</AltitudeMeters>
            <DistanceMeters>15136.671485647</DistanceMeters>
          </Trackpoint>
          <Trackpoint>
            <Time>2019-08-01T08:33:05.000Z</Time>
            <Position>
              <LatitudeDegrees>40.52724455483257770538330078125</LatitudeDegrees>
              <LongitudeDegrees>-3.6905119009315967559814453125</LongitudeDegrees>
            </Position>
            <AltitudeMeters>771.5999755859375</AltitudeMeters>
            <DistanceMeters>15198.970103815</DistanceMeters>
          </Trackpoint>
          <Trackpoint>
            <Time>2019-08-01T08:33:18.000Z</Time>
            <Position>
              <LatitudeDegrees>40.52769214846193790435791015625</LatitudeDegrees>
              <LongitudeDegrees>-3.6909092031419277191162109375</LongitudeDegrees>
            </Position>
            <AltitudeMeters>771.79998779296875</AltitudeMeters>
            <DistanceMeters>15259.066593761</DistanceMeters>
          </Trackpoint>
          <Trackpoint>
            <Time>2019-08-01T08:33:32.000Z</Time>
            <Position>
              <LatitudeDegrees>40.52815340459346771240234375</LatitudeDegrees>
              <LongitudeDegrees>-3.69131580926477909088134765625</LongitudeDegrees>
            </Position>
            <AltitudeMeters>772</AltitudeMeters>
            <DistanceMeters>15320.86399386</DistanceMeters>
          </Trackpoint>
          <Trackpoint>
            <Time>2019-08-01T08:33:46.000Z</Time>
            <Position>
              <LatitudeDegrees>40.52861248143017292022705078125</LatitudeDegrees>
              <LongitudeDegrees>-3.691725097596645355224609375</LongitudeDegrees>
            </Position>
            <AltitudeMeters>772.5999755859375</AltitudeMeters>
            <DistanceMeters>15382.587045237</DistanceMeters>
          </Trackpoint>
          <Trackpoint>
            <Time>2019-08-01T08:33:52.000Z</Time>
            <Position>
              <LatitudeDegrees>40.52881934680044651031494140625</LatitudeDegrees>
              <LongitudeDegrees>-3.69190044701099395751953125</LongitudeDegrees>
            </Position>
            <AltitudeMeters>773.79998779296875</AltitudeMeters>
            <DistanceMeters>15409.976507274</DistanceMeters>
          </Trackpoint>
          <Trackpoint>
            <Time>2019-08-01T08:33:59.000Z</Time>
            <Position>
              <LatitudeDegrees>40.52907935343682765960693359375</LatitudeDegrees>
              <LongitudeDegrees>-3.692093901336193084716796875</LongitudeDegrees>
            </Position>
            <AltitudeMeters>774.79998779296875</AltitudeMeters>
            <DistanceMeters>15443.222822514</DistanceMeters>
          </Trackpoint>
          <Trackpoint>
            <Time>2019-08-01T08:34:10.000Z</Time>
            <Position>
              <LatitudeDegrees>40.52954521961510181427001953125</LatitudeDegrees>
              <LongitudeDegrees>-3.69235868565738201141357421875</LongitudeDegrees>
            </Position>
            <AltitudeMeters>776.20001220703125</AltitudeMeters>
            <DistanceMeters>15499.706273082</DistanceMeters>
          </Trackpoint>
          <Trackpoint>
            <Time>2019-08-01T08:34:20.000Z</Time>
            <Position>
              <LatitudeDegrees>40.53009524010121822357177734375</LatitudeDegrees>
              <LongitudeDegrees>-3.692584075033664703369140625</LongitudeDegrees>
            </Position>
            <AltitudeMeters>776.5999755859375</AltitudeMeters>
            <DistanceMeters>15563.825368162</DistanceMeters>
          </Trackpoint>
          <Trackpoint>
            <Time>2019-08-01T08:34:28.000Z</Time>
            <Position>
              <LatitudeDegrees>40.53065230138599872589111328125</LatitudeDegrees>
              <LongitudeDegrees>-3.6927307583391666412353515625</LongitudeDegrees>
            </Position>
            <AltitudeMeters>776.5999755859375</AltitudeMeters>
            <DistanceMeters>15627.057060747</DistanceMeters>
          </Trackpoint>
          <Trackpoint>
            <Time>2019-08-01T08:34:39.000Z</Time>
            <Position>
              <LatitudeDegrees>40.53121422417461872100830078125</LatitudeDegrees>
              <LongitudeDegrees>-3.6929225362837314605712890625</LongitudeDegrees>
            </Position>
            <AltitudeMeters>776.5999755859375</AltitudeMeters>
            <DistanceMeters>15691.670195497</DistanceMeters>
          </Trackpoint>
          <Trackpoint>
            <Time>2019-08-01T08:34:47.000Z</Time>
            <Position>
              <LatitudeDegrees>40.53155637346208095550537109375</LatitudeDegrees>
              <LongitudeDegrees>-3.69315437972545623779296875</LongitudeDegrees>
            </Position>
            <AltitudeMeters>777.79998779296875</AltitudeMeters>
            <DistanceMeters>15734.505852061</DistanceMeters>
          </Trackpoint>
          <Trackpoint>
            <Time>2019-08-01T08:34:51.000Z</Time>
            <Position>
              <LatitudeDegrees>40.53172753192484378814697265625</LatitudeDegrees>
              <LongitudeDegrees>-3.69334171526134014129638671875</LongitudeDegrees>
            </Position>
            <AltitudeMeters>778</AltitudeMeters>
            <DistanceMeters>15759.286151864</DistanceMeters>
          </Trackpoint>
          <Trackpoint>
            <Time>2019-08-01T08:34:56.000Z</Time>
            <Position>
              <LatitudeDegrees>40.53196222521364688873291015625</LatitudeDegrees>
              <LongitudeDegrees>-3.6934576369822025299072265625</LongitudeDegrees>
            </Position>
            <AltitudeMeters>778</AltitudeMeters>
            <DistanceMeters>15787.188105389</DistanceMeters>
          </Trackpoint>
          <Trackpoint>
            <Time>2019-08-01T08:35:02.000Z</Time>
            <Position>
              <LatitudeDegrees>40.53223145194351673126220703125</LatitudeDegrees>
              <LongitudeDegrees>-3.6935055814683437347412109375</LongitudeDegrees>
            </Position>
            <AltitudeMeters>778.79998779296875</AltitudeMeters>
            <DistanceMeters>15817.426615283</DistanceMeters>
          </Trackpoint>
          <Trackpoint>
            <Time>2019-08-01T08:35:04.000Z</Time>
            <Position>
              <LatitudeDegrees>40.53232197649776935577392578125</LatitudeDegrees>
              <LongitudeDegrees>-3.693492673337459564208984375</LongitudeDegrees>
            </Position>
            <AltitudeMeters>779.4000244140625</AltitudeMeters>
            <DistanceMeters>15827.561115244</DistanceMeters>
          </Trackpoint>
          <Trackpoint>
            <Time>2019-08-01T08:35:17.000Z</Time>
            <Position>
              <LatitudeDegrees>40.532872416079044342041015625</LatitudeDegrees>
              <LongitudeDegrees>-3.69327030144631862640380859375</LongitudeDegrees>
            </Position>
            <AltitudeMeters>778</AltitudeMeters>
            <DistanceMeters>15891.649078701</DistanceMeters>
          </Trackpoint>
          <Trackpoint>
            <Time>2019-08-01T08:35:22.000Z</Time>
            <Position>
              <LatitudeDegrees>40.53308020345866680145263671875</LatitudeDegrees>
              <LongitudeDegrees>-3.69321581907570362091064453125</LongitudeDegrees>
            </Position>
            <AltitudeMeters>777</AltitudeMeters>
            <DistanceMeters>15915.231025774</DistanceMeters>
          </Trackpoint>
          <Trackpoint>
            <Time>2019-08-01T08:35:27.000Z</Time>
            <Position>
              <LatitudeDegrees>40.53328908048570156097412109375</LatitudeDegrees>
              <LongitudeDegrees>-3.69316837750375270843505859375</LongitudeDegrees>
            </Position>
            <AltitudeMeters>776</AltitudeMeters>
            <DistanceMeters>15938.823309509</DistanceMeters>
          </Trackpoint>
          <Trackpoint>
            <Time>2019-08-01T08:35:33.000Z</Time>
            <Position>
              <LatitudeDegrees>40.5335407890379428863525390625</LatitudeDegrees>
              <LongitudeDegrees>-3.693126551806926727294921875</LongitudeDegrees>
            </Position>
            <AltitudeMeters>774.79998779296875</AltitudeMeters>
            <DistanceMeters>15967.061437462</DistanceMeters>
          </Trackpoint>
          <Trackpoint>
            <Time>2019-08-01T08:35:37.000Z</Time>
            <Position>
              <LatitudeDegrees>40.53371588699519634246826171875</LatitudeDegrees>
              <LongitudeDegrees>-3.69311959482729434967041015625</LongitudeDegrees>
            </Position>
            <AltitudeMeters>773.79998779296875</AltitudeMeters>
            <DistanceMeters>15986.559289095</DistanceMeters>
          </Trackpoint>
          <Trackpoint>
            <Time>2019-08-01T08:35:44.000Z</Time>
            <Position>
              <LatitudeDegrees>40.534041859209537506103515625</LatitudeDegrees>
              <LongitudeDegrees>-3.69313669390976428985595703125</LongitudeDegrees>
            </Position>
            <AltitudeMeters>772.79998779296875</AltitudeMeters>
            <DistanceMeters>16022.869567408</DistanceMeters>
          </Trackpoint>
          <Trackpoint>
            <Time>2019-08-01T08:35:52.000Z</Time>
            <Position>
              <LatitudeDegrees>40.5344252474606037139892578125</LatitudeDegrees>
              <LongitudeDegrees>-3.69319939054548740386962890625</LongitudeDegrees>
            </Position>
            <AltitudeMeters>771.79998779296875</AltitudeMeters>
            <DistanceMeters>16065.869759418</DistanceMeters>
          </Trackpoint>
          <Trackpoint>
            <Time>2019-08-01T08:36:00.000Z</Time>
            <Position>
              <LatitudeDegrees>40.534815005958080291748046875</LatitudeDegrees>
              <LongitudeDegrees>-3.69332059286534786224365234375</LongitudeDegrees>
            </Position>
            <AltitudeMeters>770.79998779296875</AltitudeMeters>
            <DistanceMeters>16110.4457975</DistanceMeters>
          </Trackpoint>
          <Trackpoint>
            <Time>2019-08-01T08:36:10.000Z</Time>
            <Position>
              <LatitudeDegrees>40.53535521961748600006103515625</LatitudeDegrees>
              <LongitudeDegrees>-3.69356467388570308685302734375</LongitudeDegrees>
            </Position>
            <AltitudeMeters>770.79998779296875</AltitudeMeters>
            <DistanceMeters>16174.018882478</DistanceMeters>
          </Trackpoint>
          <Trackpoint>
            <Time>2019-08-01T08:36:20.000Z</Time>
            <Position>
              <LatitudeDegrees>40.5359051562845706939697265625</LatitudeDegrees>
              <LongitudeDegrees>-3.69380607269704341888427734375</LongitudeDegrees>
            </Position>
            <AltitudeMeters>771.4000244140625</AltitudeMeters>
            <DistanceMeters>16238.544260712</DistanceMeters>
          </Trackpoint>
          <Trackpoint>
            <Time>2019-08-01T08:36:34.000Z</Time>
            <Position>
              <LatitudeDegrees>40.5364221520721912384033203125</LatitudeDegrees>
              <LongitudeDegrees>-3.694076724350452423095703125</LongitudeDegrees>
            </Position>
            <AltitudeMeters>772</AltitudeMeters>
            <DistanceMeters>16300.473980456</DistanceMeters>
          </Trackpoint>
          <Trackpoint>
            <Time>2019-08-01T08:36:35.000Z</Time>
            <Position>
              <LatitudeDegrees>40.53645291365683078765869140625</LatitudeDegrees>
              <LongitudeDegrees>-3.6940933205187320709228515625</LongitudeDegrees>
            </Position>
            <AltitudeMeters>772.20001220703125</AltitudeMeters>
            <DistanceMeters>16304.173925846</DistanceMeters>
          </Trackpoint>
          <Trackpoint>
            <Time>2019-08-01T08:36:45.000Z</Time>
            <Position>
              <LatitudeDegrees>40.5367715097963809967041015625</LatitudeDegrees>
              <LongitudeDegrees>-3.6942532472312450408935546875</LongitudeDegrees>
            </Position>
            <AltitudeMeters>773.20001220703125</AltitudeMeters>
            <DistanceMeters>16342.127076889</DistanceMeters>
          </Trackpoint>
          <Trackpoint>
            <Time>2019-08-01T08:36:51.000Z</Time>
            <Position>
              <LatitudeDegrees>40.53695616312325000762939453125</LatitudeDegrees>
              <LongitudeDegrees>-3.694353662431240081787109375</LongitudeDegrees>
            </Position>
            <AltitudeMeters>774.20001220703125</AltitudeMeters>
            <DistanceMeters>16364.365358444</DistanceMeters>
          </Trackpoint>
          <Trackpoint>
            <Time>2019-08-01T08:37:00.000Z</Time>
            <Position>
              <LatitudeDegrees>40.5372093804180622100830078125</LatitudeDegrees>
              <LongitudeDegrees>-3.69450562633574008941650390625</LongitudeDegrees>
            </Position>
            <AltitudeMeters>775.5999755859375</AltitudeMeters>
            <DistanceMeters>16395.341881054</DistanceMeters>
          </Trackpoint>
          <Trackpoint>
            <Time>2019-08-01T08:37:06.000Z</Time>
            <Position>
              <LatitudeDegrees>40.53739973343908786773681640625</LatitudeDegrees>
              <LongitudeDegrees>-3.69461408816277980804443359375</LongitudeDegrees>
            </Position>
            <AltitudeMeters>776.5999755859375</AltitudeMeters>
            <DistanceMeters>16418.429657311</DistanceMeters>
          </Trackpoint>
          <Trackpoint>
            <Time>2019-08-01T08:37:13.000Z</Time>
            <Position>
              <LatitudeDegrees>40.53757810033857822418212890625</LatitudeDegrees>
              <LongitudeDegrees>-3.69476730935275554656982421875</LongitudeDegrees>
            </Position>
            <AltitudeMeters>777.5999755859375</AltitudeMeters>
            <DistanceMeters>16442.138394065</DistanceMeters>
          </Trackpoint>
          <Trackpoint>
            <Time>2019-08-01T08:37:22.000Z</Time>
            <Position>
              <LatitudeDegrees>40.5378024838864803314208984375</LatitudeDegrees>
              <LongitudeDegrees>-3.69491768069565296173095703125</LongitudeDegrees>
            </Position>
            <AltitudeMeters>778.5999755859375</AltitudeMeters>
            <DistanceMeters>16470.165314868</DistanceMeters>
          </Trackpoint>
          <Trackpoint>
            <Time>2019-08-01T08:37:38.000Z</Time>
            <Position>
              <LatitudeDegrees>40.5382906459271907806396484375</LatitudeDegrees>
              <LongitudeDegrees>-3.69523116387426853179931640625</LongitudeDegrees>
            </Position>
            <AltitudeMeters>779.5999755859375</AltitudeMeters>
            <DistanceMeters>16530.623966222</DistanceMeters>
          </Trackpoint>
          <Trackpoint>
            <Time>2019-08-01T08:37:42.000Z</Time>
            <Position>
              <LatitudeDegrees>40.5385045520961284637451171875</LatitudeDegrees>
              <LongitudeDegrees>-3.69536376558244228363037109375</LongitudeDegrees>
            </Position>
            <AltitudeMeters>779.79998779296875</AltitudeMeters>
            <DistanceMeters>16556.941905987</DistanceMeters>
          </Trackpoint>
          <Trackpoint>
            <Time>2019-08-01T08:37:53.000Z</Time>
            <Position>
              <LatitudeDegrees>40.53904141299426555633544921875</LatitudeDegrees>
              <LongitudeDegrees>-3.6956721358001232147216796875</LongitudeDegrees>
            </Position>
            <AltitudeMeters>780.5999755859375</AltitudeMeters>
            <DistanceMeters>16622.140481934</DistanceMeters>
          </Trackpoint>
          <Trackpoint>
            <Time>2019-08-01T08:38:05.000Z</Time>
            <Position>
              <LatitudeDegrees>40.539542734622955322265625</LatitudeDegrees>
              <LongitudeDegrees>-3.69601227343082427978515625</LongitudeDegrees>
            </Position>
            <AltitudeMeters>780.5999755859375</AltitudeMeters>
            <DistanceMeters>16684.919275041</DistanceMeters>
          </Trackpoint>
          <Trackpoint>
            <Time>2019-08-01T08:38:17.000Z</Time>
            <Position>
              <LatitudeDegrees>40.5399720557034015655517578125</LatitudeDegrees>
              <LongitudeDegrees>-3.6964664049446582794189453125</LongitudeDegrees>
            </Position>
            <AltitudeMeters>779.79998779296875</AltitudeMeters>
            <DistanceMeters>16746.228888078</DistanceMeters>
          </Trackpoint>
          <Trackpoint>
            <Time>2019-08-01T08:38:29.000Z</Time>
            <Position>
              <LatitudeDegrees>40.54034002125263214111328125</LatitudeDegrees>
              <LongitudeDegrees>-3.69700477458536624908447265625</LongitudeDegrees>
            </Position>
            <AltitudeMeters>780</AltitudeMeters>
            <DistanceMeters>16807.474324268</DistanceMeters>
          </Trackpoint>
          <Trackpoint>
            <Time>2019-08-01T08:38:38.000Z</Time>
            <Position>
              <LatitudeDegrees>40.54059675894677639007568359375</LatitudeDegrees>
              <LongitudeDegrees>-3.69743761606514453887939453125</LongitudeDegrees>
            </Position>
            <AltitudeMeters>781.20001220703125</AltitudeMeters>
            <DistanceMeters>16853.917215215</DistanceMeters>
          </Trackpoint>
          <Trackpoint>
            <Time>2019-08-01T08:38:49.000Z</Time>
            <Position>
              <LatitudeDegrees>40.54097243584692478179931640625</LatitudeDegrees>
              <LongitudeDegrees>-3.69794824160635471343994140625</LongitudeDegrees>
            </Position>
            <AltitudeMeters>781.79998779296875</AltitudeMeters>
            <DistanceMeters>16914.031958934</DistanceMeters>
          </Trackpoint>
          <Trackpoint>
            <Time>2019-08-01T08:38:57.000Z</Time>
            <Position>
              <LatitudeDegrees>40.5413262359797954559326171875</LatitudeDegrees>
              <LongitudeDegrees>-3.698476888239383697509765625</LongitudeDegrees>
            </Position>
            <AltitudeMeters>782.20001220703125</AltitudeMeters>
            <DistanceMeters>16973.614390851</DistanceMeters>
          </Trackpoint>
          <Trackpoint>
            <Time>2019-08-01T08:38:59.000Z</Time>
            <Position>
              <LatitudeDegrees>40.5414308421313762664794921875</LatitudeDegrees>
              <LongitudeDegrees>-3.6985709331929683685302734375</LongitudeDegrees>
            </Position>
            <AltitudeMeters>782.5999755859375</AltitudeMeters>
            <DistanceMeters>16987.715215409</DistanceMeters>
          </Trackpoint>
          <Trackpoint>
            <Time>2019-08-01T08:39:03.000Z</Time>
            <Position>
              <LatitudeDegrees>40.54153854958713054656982421875</LatitudeDegrees>
              <LongitudeDegrees>-3.698790706694126129150390625</LongitudeDegrees>
            </Position>
            <AltitudeMeters>782.79998779296875</AltitudeMeters>
            <DistanceMeters>17009.83420141</DistanceMeters>
          </Trackpoint>
          <Trackpoint>
            <Time>2019-08-01T08:39:18.000Z</Time>
            <Position>
              <LatitudeDegrees>40.54181867279112339019775390625</LatitudeDegrees>
              <LongitudeDegrees>-3.699428737163543701171875</LongitudeDegrees>
            </Position>
            <AltitudeMeters>781.79998779296875</AltitudeMeters>
            <DistanceMeters>17072.159267022</DistanceMeters>
          </Trackpoint>
          <Trackpoint>
            <Time>2019-08-01T08:39:22.000Z</Time>
            <Position>
              <LatitudeDegrees>40.54190483875572681427001953125</LatitudeDegrees>
              <LongitudeDegrees>-3.6995962075889110565185546875</LongitudeDegrees>
            </Position>
            <AltitudeMeters>781.4000244140625</AltitudeMeters>
            <DistanceMeters>17089.265659314</DistanceMeters>
          </Trackpoint>
          <Trackpoint>
            <Time>2019-08-01T08:39:37.000Z</Time>
            <Position>
              <LatitudeDegrees>40.54223961196839809417724609375</LatitudeDegrees>
              <LongitudeDegrees>-3.70020213536918163299560546875</LongitudeDegrees>
            </Position>
            <AltitudeMeters>781.79998779296875</AltitudeMeters>
            <DistanceMeters>17152.629455354</DistanceMeters>
          </Trackpoint>
          <Trackpoint>
            <Time>2019-08-01T08:39:52.000Z</Time>
            <Position>
              <LatitudeDegrees>40.542584694921970367431640625</LatitudeDegrees>
              <LongitudeDegrees>-3.70079121552407741546630859375</LongitudeDegrees>
            </Position>
            <AltitudeMeters>782.5999755859375</AltitudeMeters>
            <DistanceMeters>17215.540082869</DistanceMeters>
          </Trackpoint>
          <Trackpoint>
            <Time>2019-08-01T08:40:07.000Z</Time>
            <Position>
              <LatitudeDegrees>40.54295609705150127410888671875</LatitudeDegrees>
              <LongitudeDegrees>-3.70136453770101070404052734375</LongitudeDegrees>
            </Position>
            <AltitudeMeters>782</AltitudeMeters>
            <DistanceMeters>17279.260437327</DistanceMeters>
          </Trackpoint>
          <Trackpoint>
            <Time>2019-08-01T08:40:22.000Z</Time>
            <Position>
              <LatitudeDegrees>40.54338139481842517852783203125</LatitudeDegrees>
              <LongitudeDegrees>-3.701863177120685577392578125</LongitudeDegrees>
            </Position>
            <AltitudeMeters>782.79998779296875</AltitudeMeters>
            <DistanceMeters>17342.659851259</DistanceMeters>
          </Trackpoint>
          <Trackpoint>
            <Time>2019-08-01T08:40:36.000Z</Time>
            <Position>
              <LatitudeDegrees>40.543841309845447540283203125</LatitudeDegrees>
              <LongitudeDegrees>-3.7022556178271770477294921875</LongitudeDegrees>
            </Position>
            <AltitudeMeters>783.79998779296875</AltitudeMeters>
            <DistanceMeters>17403.668926072</DistanceMeters>
          </Trackpoint>
          <Trackpoint>
            <Time>2019-08-01T08:40:50.000Z</Time>
            <Position>
              <LatitudeDegrees>40.5443467386066913604736328125</LatitudeDegrees>
              <LongitudeDegrees>-3.70258058421313762664794921875</LongitudeDegrees>
            </Position>
            <AltitudeMeters>783.79998779296875</AltitudeMeters>
            <DistanceMeters>17466.279633347</DistanceMeters>
          </Trackpoint>
          <Trackpoint>
            <Time>2019-08-01T08:40:57.000Z</Time>
            <Position>
              <LatitudeDegrees>40.54461386986076831817626953125</LatitudeDegrees>
              <LongitudeDegrees>-3.70272316038608551025390625</LongitudeDegrees>
            </Position>
            <AltitudeMeters>784</AltitudeMeters>
            <DistanceMeters>17498.364063441</DistanceMeters>
          </Trackpoint>
          <Trackpoint>
            <Time>2019-08-01T08:41:09.000Z</Time>
            <Position>
              <LatitudeDegrees>40.54507143795490264892578125</LatitudeDegrees>
              <LongitudeDegrees>-3.7029625475406646728515625</LongitudeDegrees>
            </Position>
            <AltitudeMeters>785.20001220703125</AltitudeMeters>
            <DistanceMeters>17553.169356499</DistanceMeters>
          </Trackpoint>
          <Trackpoint>
            <Time>2019-08-01T08:41:21.000Z</Time>
            <Position>
              <LatitudeDegrees>40.54552313871681690216064453125</LatitudeDegrees>
              <LongitudeDegrees>-3.70321207679808139801025390625</LongitudeDegrees>
            </Position>
            <AltitudeMeters>786.20001220703125</AltitudeMeters>
            <DistanceMeters>17607.694655104</DistanceMeters>
          </Trackpoint>
          <Trackpoint>
            <Time>2019-08-01T08:41:34.000Z</Time>
            <Position>
              <LatitudeDegrees>40.54603636264801025390625</LatitudeDegrees>
              <LongitudeDegrees>-3.7034555710852146148681640625</LongitudeDegrees>
            </Position>
            <AltitudeMeters>787.20001220703125</AltitudeMeters>
            <DistanceMeters>17668.416428163</DistanceMeters>
          </Trackpoint>
          <Trackpoint>
            <Time>2019-08-01T08:41:36.000Z</Time>
            <Position>
              <LatitudeDegrees>40.54611389525234699249267578125</LatitudeDegrees>
              <LongitudeDegrees>-3.70349102653563022613525390625</LongitudeDegrees>
            </Position>
            <AltitudeMeters>787.4000244140625</AltitudeMeters>
            <DistanceMeters>17677.55185188</DistanceMeters>
          </Trackpoint>
          <Trackpoint>
            <Time>2019-08-01T08:41:50.000Z</Time>
            <Position>
              <LatitudeDegrees>40.54665050469338893890380859375</LatitudeDegrees>
              <LongitudeDegrees>-3.703739382326602935791015625</LongitudeDegrees>
            </Position>
            <AltitudeMeters>788.20001220703125</AltitudeMeters>
            <DistanceMeters>17740.863467187</DistanceMeters>
          </Trackpoint>
          <Trackpoint>
            <Time>2019-08-01T08:42:00.000Z</Time>
            <Position>
              <LatitudeDegrees>40.5471332184970378875732421875</LatitudeDegrees>
              <LongitudeDegrees>-3.7039041705429553985595703125</LongitudeDegrees>
            </Position>
            <AltitudeMeters>788.20001220703125</AltitudeMeters>
            <DistanceMeters>17796.36866785</DistanceMeters>
          </Trackpoint>
          <Trackpoint>
            <Time>2019-08-01T08:42:03.000Z</Time>
            <Position>
              <LatitudeDegrees>40.54732524789869785308837890625</LatitudeDegrees>
              <LongitudeDegrees>-3.70389872230589389801025390625</LongitudeDegrees>
            </Position>
            <AltitudeMeters>788</AltitudeMeters>
            <DistanceMeters>17817.747144388</DistanceMeters>
          </Trackpoint>
          <Trackpoint>
            <Time>2019-08-01T08:42:09.000Z</Time>
            <Position>
              <LatitudeDegrees>40.54763294756412506103515625</LatitudeDegrees>
              <LongitudeDegrees>-3.70357953943312168121337890625</LongitudeDegrees>
            </Position>
            <AltitudeMeters>787.20001220703125</AltitudeMeters>
            <DistanceMeters>17861.354571255</DistanceMeters>
          </Trackpoint>
          <Trackpoint>
            <Time>2019-08-01T08:42:10.000Z</Time>
            <Position>
              <LatitudeDegrees>40.54766890592873096466064453125</LatitudeDegrees>
              <LongitudeDegrees>-3.703495301306247711181640625</LongitudeDegrees>
            </Position>
            <AltitudeMeters>787</AltitudeMeters>
            <DistanceMeters>17869.526868691</DistanceMeters>
          </Trackpoint>
          <Trackpoint>
            <Time>2019-08-01T08:42:15.000Z</Time>
            <Position>
              <LatitudeDegrees>40.547949112951755523681640625</LatitudeDegrees>
              <LongitudeDegrees>-3.70340335182845592498779296875</LongitudeDegrees>
            </Position>
            <AltitudeMeters>786.20001220703125</AltitudeMeters>
            <DistanceMeters>17901.669505579</DistanceMeters>
          </Trackpoint>
          <Trackpoint>
            <Time>2019-08-01T08:42:16.000Z</Time>
            <Position>
              <LatitudeDegrees>40.54799504578113555908203125</LatitudeDegrees>
              <LongitudeDegrees>-3.70344978757202625274658203125</LongitudeDegrees>
            </Position>
            <AltitudeMeters>785.5999755859375</AltitudeMeters>
            <DistanceMeters>17908.11593186</DistanceMeters>
          </Trackpoint>
          <Trackpoint>
            <Time>2019-08-01T08:42:17.000Z</Time>
            <Position>
              <LatitudeDegrees>40.5480359494686126708984375</LatitudeDegrees>
              <LongitudeDegrees>-3.703494630753993988037109375</LongitudeDegrees>
            </Position>
            <AltitudeMeters>785.20001220703125</AltitudeMeters>
            <DistanceMeters>17914.041211365</DistanceMeters>
          </Trackpoint>
          <Trackpoint>
            <Time>2019-08-01T08:42:31.000Z</Time>
            <Position>
              <LatitudeDegrees>40.54829352535307407379150390625</LatitudeDegrees>
              <LongitudeDegrees>-3.7040677852928638458251953125</LongitudeDegrees>
            </Position>
            <AltitudeMeters>784.20001220703125</AltitudeMeters>
            <DistanceMeters>17970.358310805</DistanceMeters>
          </Trackpoint>
          <Trackpoint>
            <Time>2019-08-01T08:42:45.000Z</Time>
            <Position>
              <LatitudeDegrees>40.548590831458568572998046875</LatitudeDegrees>
              <LongitudeDegrees>-3.70468645356595516204833984375</LongitudeDegrees>
            </Position>
            <AltitudeMeters>783.5999755859375</AltitudeMeters>
            <DistanceMeters>18032.267030107</DistanceMeters>
          </Trackpoint>
          <Trackpoint>
            <Time>2019-08-01T08:42:49.000Z</Time>
            <Position>
              <LatitudeDegrees>40.54874950088560581207275390625</LatitudeDegrees>
              <LongitudeDegrees>-3.7047668360173702239990234375</LongitudeDegrees>
            </Position>
            <AltitudeMeters>783.5999755859375</AltitudeMeters>
            <DistanceMeters>18051.190473542</DistanceMeters>
          </Trackpoint>
          <Trackpoint>
            <Time>2019-08-01T08:42:52.000Z</Time>
            <Position>
              <LatitudeDegrees>40.5488813482224941253662109375</LatitudeDegrees>
              <LongitudeDegrees>-3.70480061508715152740478515625</LongitudeDegrees>
            </Position>
            <AltitudeMeters>783.20001220703125</AltitudeMeters>
            <DistanceMeters>18066.140806386</DistanceMeters>
          </Trackpoint>
          <Trackpoint>
            <Time>2019-08-01T08:43:04.000Z</Time>
            <Position>
              <LatitudeDegrees>40.5494213104248046875</LatitudeDegrees>
              <LongitudeDegrees>-3.7050357274711132049560546875</LongitudeDegrees>
            </Position>
            <AltitudeMeters>783.79998779296875</AltitudeMeters>
            <DistanceMeters>18129.443649397</DistanceMeters>
          </Trackpoint>
          <Trackpoint>
            <Time>2019-08-01T08:43:12.000Z</Time>
            <Position>
              <LatitudeDegrees>40.54979078471660614013671875</LatitudeDegrees>
              <LongitudeDegrees>-3.7051775492727756500244140625</LongitudeDegrees>
            </Position>
            <AltitudeMeters>784.4000244140625</AltitudeMeters>
            <DistanceMeters>18172.280359986</DistanceMeters>
          </Trackpoint>
          <Trackpoint>
            <Time>2019-08-01T08:43:25.000Z</Time>
            <Position>
              <LatitudeDegrees>40.5503263883292675018310546875</LatitudeDegrees>
              <LongitudeDegrees>-3.70542473159730434417724609375</LongitudeDegrees>
            </Position>
            <AltitudeMeters>784.5999755859375</AltitudeMeters>
            <DistanceMeters>18235.453187722</DistanceMeters>
          </Trackpoint>
          <Trackpoint>
            <Time>2019-08-01T08:43:31.000Z</Time>
            <Position>
              <LatitudeDegrees>40.55056468583643436431884765625</LatitudeDegrees>
              <LongitudeDegrees>-3.70553201995790004730224609375</LongitudeDegrees>
            </Position>
            <AltitudeMeters>785.4000244140625</AltitudeMeters>
            <DistanceMeters>18263.485263138</DistanceMeters>
          </Trackpoint>
          <Trackpoint>
            <Time>2019-08-01T08:43:45.000Z</Time>
            <Position>
              <LatitudeDegrees>40.55109241046011447906494140625</LatitudeDegrees>
              <LongitudeDegrees>-3.7057659588754177093505859375</LongitudeDegrees>
            </Position>
            <AltitudeMeters>786.4000244140625</AltitudeMeters>
            <DistanceMeters>18325.464539026</DistanceMeters>
          </Trackpoint>
          <Trackpoint>
            <Time>2019-08-01T08:43:46.000Z</Time>
            <Position>
              <LatitudeDegrees>40.55112862028181552886962890625</LatitudeDegrees>
              <LongitudeDegrees>-3.705782555043697357177734375</LongitudeDegrees>
            </Position>
            <AltitudeMeters>786.4000244140625</AltitudeMeters>
            <DistanceMeters>18329.731227919</DistanceMeters>
          </Trackpoint>
          <Trackpoint>
            <Time>2019-08-01T08:44:01.000Z</Time>
            <Position>
              <LatitudeDegrees>40.55165098048746585845947265625</LatitudeDegrees>
              <LongitudeDegrees>-3.70606108568608760833740234375</LongitudeDegrees>
            </Position>
            <AltitudeMeters>786.79998779296875</AltitudeMeters>
            <DistanceMeters>18392.461456377</DistanceMeters>
          </Trackpoint>
          <Trackpoint>
            <Time>2019-08-01T08:44:15.000Z</Time>
            <Position>
              <LatitudeDegrees>40.55213796906173229217529296875</LatitudeDegrees>
              <LongitudeDegrees>-3.7064298056066036224365234375</LongitudeDegrees>
            </Position>
            <AltitudeMeters>786.20001220703125</AltitudeMeters>
            <DistanceMeters>18454.993655622</DistanceMeters>
          </Trackpoint>
          <Trackpoint>
            <Time>2019-08-01T08:44:27.000Z</Time>
            <Position>
              <LatitudeDegrees>40.55259235203266143798828125</LatitudeDegrees>
              <LongitudeDegrees>-3.70690899901092052459716796875</LongitudeDegrees>
            </Position>
            <AltitudeMeters>786</AltitudeMeters>
            <DistanceMeters>18519.800620792</DistanceMeters>
          </Trackpoint>
          <Trackpoint>
            <Time>2019-08-01T08:44:36.000Z</Time>
            <Position>
              <LatitudeDegrees>40.55302661843597888946533203125</LatitudeDegrees>
              <LongitudeDegrees>-3.70745784603059291839599609375</LongitudeDegrees>
            </Position>
            <AltitudeMeters>786</AltitudeMeters>
            <DistanceMeters>18586.812446428</DistanceMeters>
          </Trackpoint>
          <Trackpoint>
            <Time>2019-08-01T08:44:43.000Z</Time>
            <Position>
              <LatitudeDegrees>40.5534820072352886199951171875</LatitudeDegrees>
              <LongitudeDegrees>-3.7079908512532711029052734375</LongitudeDegrees>
            </Position>
            <AltitudeMeters>785.79998779296875</AltitudeMeters>
            <DistanceMeters>18654.641553955</DistanceMeters>
          </Trackpoint>
          <Trackpoint>
            <Time>2019-08-01T08:44:49.000Z</Time>
            <Position>
              <LatitudeDegrees>40.553956925868988037109375</LatitudeDegrees>
              <LongitudeDegrees>-3.70845713652670383453369140625</LongitudeDegrees>
            </Position>
            <AltitudeMeters>785.5999755859375</AltitudeMeters>
            <DistanceMeters>18720.588655988</DistanceMeters>
          </Trackpoint>
          <Trackpoint>
            <Time>2019-08-01T08:44:55.000Z</Time>
            <Position>
              <LatitudeDegrees>40.5544834770262241363525390625</LatitudeDegrees>
              <LongitudeDegrees>-3.70887254364788532257080078125</LongitudeDegrees>
            </Position>
            <AltitudeMeters>785.5999755859375</AltitudeMeters>
            <DistanceMeters>18788.916960616</DistanceMeters>
          </Trackpoint>
          <Trackpoint>
            <Time>2019-08-01T08:45:02.000Z</Time>
            <Position>
              <LatitudeDegrees>40.5550011433660984039306640625</LatitudeDegrees>
              <LongitudeDegrees>-3.709271438419818878173828125</LongitudeDegrees>
            </Position>
            <AltitudeMeters>786</AltitudeMeters>
            <DistanceMeters>18855.682611113</DistanceMeters>
          </Trackpoint>
          <Trackpoint>
            <Time>2019-08-01T08:45:06.000Z</Time>
            <Position>
              <LatitudeDegrees>40.55516995489597320556640625</LatitudeDegrees>
              <LongitudeDegrees>-3.709412254393100738525390625</LongitudeDegrees>
            </Position>
            <AltitudeMeters>786.20001220703125</AltitudeMeters>
            <DistanceMeters>18877.927388679</DistanceMeters>
          </Trackpoint>
          <Trackpoint>
            <Time>2019-08-01T08:45:11.000Z</Time>
            <Position>
              <LatitudeDegrees>40.555170960724353790283203125</LatitudeDegrees>
              <LongitudeDegrees>-3.70969648472964763641357421875</LongitudeDegrees>
            </Position>
            <AltitudeMeters>787.20001220703125</AltitudeMeters>
            <DistanceMeters>18901.96351276</DistanceMeters>
          </Trackpoint>
          <Trackpoint>
            <Time>2019-08-01T08:45:15.000Z</Time>
            <Position>
              <LatitudeDegrees>40.55511840619146823883056640625</LatitudeDegrees>
              <LongitudeDegrees>-3.709946013987064361572265625</LongitudeDegrees>
            </Position>
            <AltitudeMeters>787.5999755859375</AltitudeMeters>
            <DistanceMeters>18923.86093405</DistanceMeters>
          </Trackpoint>
          <Trackpoint>
            <Time>2019-08-01T08:45:19.000Z</Time>
            <Position>
              <LatitudeDegrees>40.5552472360432147979736328125</LatitudeDegrees>
              <LongitudeDegrees>-3.7101560644805431365966796875</LongitudeDegrees>
            </Position>
            <AltitudeMeters>788</AltitudeMeters>
            <DistanceMeters>18946.689112067</DistanceMeters>
          </Trackpoint>
          <Trackpoint>
            <Time>2019-08-01T08:45:26.000Z</Time>
            <Position>
              <LatitudeDegrees>40.55572810582816600799560546875</LatitudeDegrees>
              <LongitudeDegrees>-3.71051321737468242645263671875</LongitudeDegrees>
            </Position>
            <AltitudeMeters>788.20001220703125</AltitudeMeters>
            <DistanceMeters>19008.14458613</DistanceMeters>
          </Trackpoint>
          <Trackpoint>
            <Time>2019-08-01T08:45:32.000Z</Time>
            <Position>
              <LatitudeDegrees>40.55625759065151214599609375</LatitudeDegrees>
              <LongitudeDegrees>-3.7108718790113925933837890625</LongitudeDegrees>
            </Position>
            <AltitudeMeters>788.5999755859375</AltitudeMeters>
            <DistanceMeters>19074.424067484</DistanceMeters>
          </Trackpoint>
          <Trackpoint>
            <Time>2019-08-01T08:45:39.000Z</Time>
            <Position>
              <LatitudeDegrees>40.5567610077559947967529296875</LatitudeDegrees>
              <LongitudeDegrees>-3.7112634815275669097900390625</LongitudeDegrees>
            </Position>
            <AltitudeMeters>788.20001220703125</AltitudeMeters>
            <DistanceMeters>19139.509528386</DistanceMeters>
          </Trackpoint>
          <Trackpoint>
            <Time>2019-08-01T08:45:48.000Z</Time>
            <Position>
              <LatitudeDegrees>40.5572233535349369049072265625</LatitudeDegrees>
              <LongitudeDegrees>-3.7116301059722900390625</LongitudeDegrees>
            </Position>
            <AltitudeMeters>788.20001220703125</AltitudeMeters>
            <DistanceMeters>19199.587007482</DistanceMeters>
          </Trackpoint>
          <Trackpoint>
            <Time>2019-08-01T08:46:00.000Z</Time>
            <Position>
              <LatitudeDegrees>40.5577088333666324615478515625</LatitudeDegrees>
              <LongitudeDegrees>-3.71201609261333942413330078125</LongitudeDegrees>
            </Position>
            <AltitudeMeters>787.5999755859375</AltitudeMeters>
            <DistanceMeters>19262.7147923</DistanceMeters>
          </Trackpoint>
          <Trackpoint>
            <Time>2019-08-01T08:46:13.000Z</Time>
            <Position>
              <LatitudeDegrees>40.55814377032220363616943359375</LatitudeDegrees>
              <LongitudeDegrees>-3.71242999099195003509521484375</LongitudeDegrees>
            </Position>
            <AltitudeMeters>787</AltitudeMeters>
            <DistanceMeters>19322.45130901</DistanceMeters>
          </Trackpoint>
          <Trackpoint>
            <Time>2019-08-01T08:46:24.000Z</Time>
            <Position>
              <LatitudeDegrees>40.55853872559964656829833984375</LatitudeDegrees>
              <LongitudeDegrees>-3.71278739534318447113037109375</LongitudeDegrees>
            </Position>
            <AltitudeMeters>786</AltitudeMeters>
            <DistanceMeters>19375.797617142</DistanceMeters>
          </Trackpoint>
          <Trackpoint>
            <Time>2019-08-01T08:46:32.000Z</Time>
            <Position>
              <LatitudeDegrees>40.55904599837958812713623046875</LatitudeDegrees>
              <LongitudeDegrees>-3.713099956512451171875</LongitudeDegrees>
            </Position>
            <AltitudeMeters>785.4000244140625</AltitudeMeters>
            <DistanceMeters>19438.138328559</DistanceMeters>
          </Trackpoint>
          <Trackpoint>
            <Time>2019-08-01T08:46:46.000Z</Time>
            <Position>
              <LatitudeDegrees>40.55953483097255229949951171875</LatitudeDegrees>
              <LongitudeDegrees>-3.71340463869273662567138671875</LongitudeDegrees>
            </Position>
            <AltitudeMeters>785.4000244140625</AltitudeMeters>
            <DistanceMeters>19498.338183369</DistanceMeters>
          </Trackpoint>
          <Trackpoint>
            <Time>2019-08-01T08:46:56.000Z</Time>
            <Position>
              <LatitudeDegrees>40.55971219204366207122802734375</LatitudeDegrees>
              <LongitudeDegrees>-3.71364511549472808837890625</LongitudeDegrees>
            </Position>
            <AltitudeMeters>785.4000244140625</AltitudeMeters>
            <DistanceMeters>19526.678775801</DistanceMeters>
          </Trackpoint>
          <Trackpoint>
            <Time>2019-08-01T08:47:14.000Z</Time>
            <Position>
              <LatitudeDegrees>40.56012173183262348175048828125</LatitudeDegrees>
              <LongitudeDegrees>-3.71398684568703174591064453125</LongitudeDegrees>
            </Position>
            <AltitudeMeters>784.4000244140625</AltitudeMeters>
            <DistanceMeters>19580.648930313</DistanceMeters>
          </Trackpoint>
          <Trackpoint>
            <Time>2019-08-01T08:47:24.000Z</Time>
            <Position>
              <LatitudeDegrees>40.56044275872409343719482421875</LatitudeDegrees>
              <LongitudeDegrees>-3.71402439661324024200439453125</LongitudeDegrees>
            </Position>
            <AltitudeMeters>783.4000244140625</AltitudeMeters>
            <DistanceMeters>19616.520728334</DistanceMeters>
          </Trackpoint>
          <Trackpoint>
            <Time>2019-08-01T08:47:39.000Z</Time>
            <Position>
              <LatitudeDegrees>40.56102077476680278778076171875</LatitudeDegrees>
              <LongitudeDegrees>-3.7140771187841892242431640625</LongitudeDegrees>
            </Position>
            <AltitudeMeters>783.20001220703125</AltitudeMeters>
            <DistanceMeters>19681.009360248</DistanceMeters>
          </Trackpoint>
          <Trackpoint>
            <Time>2019-08-01T08:47:51.000Z</Time>
            <Position>
              <LatitudeDegrees>40.56158135645091533660888671875</LatitudeDegrees>
              <LongitudeDegrees>-3.7140977382659912109375</LongitudeDegrees>
            </Position>
            <AltitudeMeters>782.79998779296875</AltitudeMeters>
            <DistanceMeters>19743.427518518</DistanceMeters>
          </Trackpoint>
          <Trackpoint>
            <Time>2019-08-01T08:47:59.000Z</Time>
            <Position>
              <LatitudeDegrees>40.56195150129497051239013671875</LatitudeDegrees>
              <LongitudeDegrees>-3.7141642905771732330322265625</LongitudeDegrees>
            </Position>
            <AltitudeMeters>782.4000244140625</AltitudeMeters>
            <DistanceMeters>19785.007977345</DistanceMeters>
          </Trackpoint>
          <Trackpoint>
            <Time>2019-08-01T08:48:12.000Z</Time>
            <Position>
              <LatitudeDegrees>40.5624949000775814056396484375</LatitudeDegrees>
              <LongitudeDegrees>-3.714306615293025970458984375</LongitudeDegrees>
            </Position>
            <AltitudeMeters>783</AltitudeMeters>
            <DistanceMeters>19846.674970402</DistanceMeters>
          </Trackpoint>
          <Trackpoint>
            <Time>2019-08-01T08:48:17.000Z</Time>
            <Position>
              <LatitudeDegrees>40.5626940540969371795654296875</LatitudeDegrees>
              <LongitudeDegrees>-3.7143657915294170379638671875</LongitudeDegrees>
            </Position>
            <AltitudeMeters>783.4000244140625</AltitudeMeters>
            <DistanceMeters>19869.399074817</DistanceMeters>
          </Trackpoint>
          <Trackpoint>
            <Time>2019-08-01T08:48:29.000Z</Time>
            <Position>
              <LatitudeDegrees>40.56315933354198932647705078125</LatitudeDegrees>
              <LongitudeDegrees>-3.71442840434610843658447265625</LongitudeDegrees>
            </Position>
            <AltitudeMeters>784.4000244140625</AltitudeMeters>
            <DistanceMeters>19921.455590168</DistanceMeters>
          </Trackpoint>
          <Trackpoint>
            <Time>2019-08-01T08:48:44.000Z</Time>
            <Position>
              <LatitudeDegrees>40.56372678838670253753662109375</LatitudeDegrees>
              <LongitudeDegrees>-3.71444047428667545318603515625</LongitudeDegrees>
            </Position>
            <AltitudeMeters>784.20001220703125</AltitudeMeters>
            <DistanceMeters>19984.622699948</DistanceMeters>
          </Trackpoint>
          <Trackpoint>
            <Time>2019-08-01T08:48:58.000Z</Time>
            <Position>
              <LatitudeDegrees>40.56426792405545711517333984375</LatitudeDegrees>
              <LongitudeDegrees>-3.7145659513771533966064453125</LongitudeDegrees>
            </Position>
            <AltitudeMeters>784.79998779296875</AltitudeMeters>
            <DistanceMeters>20045.779460018</DistanceMeters>
          </Trackpoint>
          <Trackpoint>
            <Time>2019-08-01T08:49:09.000Z</Time>
            <Position>
              <LatitudeDegrees>40.564735047519207000732421875</LatitudeDegrees>
              <LongitudeDegrees>-3.71457676403224468231201171875</LongitudeDegrees>
            </Position>
            <AltitudeMeters>785</AltitudeMeters>
            <DistanceMeters>20097.779133963</DistanceMeters>
          </Trackpoint>
          <Trackpoint>
            <Time>2019-08-01T08:49:23.000Z</Time>
            <Position>
              <LatitudeDegrees>40.56529797613620758056640625</LatitudeDegrees>
              <LongitudeDegrees>-3.71449076570570468902587890625</LongitudeDegrees>
            </Position>
            <AltitudeMeters>784.79998779296875</AltitudeMeters>
            <DistanceMeters>20160.854685963</DistanceMeters>
          </Trackpoint>
          <Trackpoint>
            <Time>2019-08-01T08:49:41.000Z</Time>
            <Position>
              <LatitudeDegrees>40.56580197997391223907470703125</LatitudeDegrees>
              <LongitudeDegrees>-3.71420527808368206024169921875</LongitudeDegrees>
            </Position>
            <AltitudeMeters>785</AltitudeMeters>
            <DistanceMeters>20221.924415553</DistanceMeters>
          </Trackpoint>
          <Trackpoint>
            <Time>2019-08-01T08:49:57.000Z</Time>
            <Position>
              <LatitudeDegrees>40.5662406049668788909912109375</LatitudeDegrees>
              <LongitudeDegrees>-3.713799007236957550048828125</LongitudeDegrees>
            </Position>
            <AltitudeMeters>783.20001220703125</AltitudeMeters>
            <DistanceMeters>20281.618288485</DistanceMeters>
          </Trackpoint>
          <Trackpoint>
            <Time>2019-08-01T08:50:06.000Z</Time>
            <Position>
              <LatitudeDegrees>40.5666684173047542572021484375</LatitudeDegrees>
              <LongitudeDegrees>-3.71335937641561031341552734375</LongitudeDegrees>
            </Position>
            <AltitudeMeters>782.20001220703125</AltitudeMeters>
            <DistanceMeters>20342.025388818</DistanceMeters>
          </Trackpoint>
          <Trackpoint>
            <Time>2019-08-01T08:50:07.000Z</Time>
            <Position>
              <LatitudeDegrees>40.5667415075004100799560546875</LatitudeDegrees>
              <LongitudeDegrees>-3.71329030953347682952880859375</LongitudeDegrees>
            </Position>
            <AltitudeMeters>782.20001220703125</AltitudeMeters>
            <DistanceMeters>20352.038878162</DistanceMeters>
          </Trackpoint>
          <Trackpoint>
            <Time>2019-08-01T08:50:13.000Z</Time>
            <Position>
              <LatitudeDegrees>40.56718398816883563995361328125</LatitudeDegrees>
              <LongitudeDegrees>-3.71286903508007526397705078125</LongitudeDegrees>
            </Position>
            <AltitudeMeters>781.5999755859375</AltitudeMeters>
            <DistanceMeters>20412.818398502</DistanceMeters>
          </Trackpoint>
          <Trackpoint>
            <Time>2019-08-01T08:50:17.000Z</Time>
            <Position>
              <LatitudeDegrees>40.56749713607132434844970703125</LatitudeDegrees>
              <LongitudeDegrees>-3.71259461157023906707763671875</LongitudeDegrees>
            </Position>
            <AltitudeMeters>781</AltitudeMeters>
            <DistanceMeters>20454.68907107</DistanceMeters>
          </Trackpoint>
          <Trackpoint>
            <Time>2019-08-01T08:50:24.000Z</Time>
            <Position>
              <LatitudeDegrees>40.56803575716912746429443359375</LatitudeDegrees>
              <LongitudeDegrees>-3.71222748421132564544677734375</LongitudeDegrees>
            </Position>
            <AltitudeMeters>781.20001220703125</AltitudeMeters>
            <DistanceMeters>20522.198044704</DistanceMeters>
          </Trackpoint>
          <Trackpoint>
            <Time>2019-08-01T08:50:32.000Z</Time>
            <Position>
              <LatitudeDegrees>40.568541772663593292236328125</LatitudeDegrees>
              <LongitudeDegrees>-3.71188650839030742645263671875</LongitudeDegrees>
            </Position>
            <AltitudeMeters>782</AltitudeMeters>
            <DistanceMeters>20585.46814134</DistanceMeters>
          </Trackpoint>
          <Trackpoint>
            <Time>2019-08-01T08:50:37.000Z</Time>
            <Position>
              <LatitudeDegrees>40.56887914426624774932861328125</LatitudeDegrees>
              <LongitudeDegrees>-3.7116762064397335052490234375</LongitudeDegrees>
            </Position>
            <AltitudeMeters>782</AltitudeMeters>
            <DistanceMeters>20627.015142347</DistanceMeters>
          </Trackpoint>
          <Trackpoint>
            <Time>2019-08-01T08:50:45.000Z</Time>
            <Position>
              <LatitudeDegrees>40.569444000720977783203125</LatitudeDegrees>
              <LongitudeDegrees>-3.7114284373819828033447265625</LongitudeDegrees>
            </Position>
            <AltitudeMeters>781.79998779296875</AltitudeMeters>
            <DistanceMeters>20693.282905819</DistanceMeters>
          </Trackpoint>
          <Trackpoint>
            <Time>2019-08-01T08:50:53.000Z</Time>
            <Position>
              <LatitudeDegrees>40.56995538063347339630126953125</LatitudeDegrees>
              <LongitudeDegrees>-3.71108436025679111480712890625</LongitudeDegrees>
            </Position>
            <AltitudeMeters>781</AltitudeMeters>
            <DistanceMeters>20757.203753818</DistanceMeters>
          </Trackpoint>
          <Trackpoint>
            <Time>2019-08-01T08:50:55.000Z</Time>
            <Position>
              <LatitudeDegrees>40.57008580304682254791259765625</LatitudeDegrees>
              <LongitudeDegrees>-3.71100858785212039947509765625</LongitudeDegrees>
            </Position>
            <AltitudeMeters>781</AltitudeMeters>
            <DistanceMeters>20773.070654311</DistanceMeters>
          </Trackpoint>
          <Trackpoint>
            <Time>2019-08-01T08:51:03.000Z</Time>
            <Position>
              <LatitudeDegrees>40.57060380466282367706298828125</LatitudeDegrees>
              <LongitudeDegrees>-3.710705749690532684326171875</LongitudeDegrees>
            </Position>
            <AltitudeMeters>780.20001220703125</AltitudeMeters>
            <DistanceMeters>20836.154723927</DistanceMeters>
          </Trackpoint>
          <Trackpoint>
            <Time>2019-08-01T08:51:08.000Z</Time>
            <Position>
              <LatitudeDegrees>40.5709073133766651153564453125</LatitudeDegrees>
              <LongitudeDegrees>-3.7105127982795238494873046875</LongitudeDegrees>
            </Position>
            <AltitudeMeters>779.79998779296875</AltitudeMeters>
            <DistanceMeters>20873.668497841</DistanceMeters>
          </Trackpoint>
          <Trackpoint>
            <Time>2019-08-01T08:51:18.000Z</Time>
            <Position>
              <LatitudeDegrees>40.57144467718899250030517578125</LatitudeDegrees>
              <LongitudeDegrees>-3.71025103144347667694091796875</LongitudeDegrees>
            </Position>
            <AltitudeMeters>779.5999755859375</AltitudeMeters>
            <DistanceMeters>20937.44140658</DistanceMeters>
          </Trackpoint>
          <Trackpoint>
            <Time>2019-08-01T08:51:29.000Z</Time>
            <Position>
              <LatitudeDegrees>40.571901239454746246337890625</LatitudeDegrees>
              <LongitudeDegrees>-3.71008171699941158294677734375</LongitudeDegrees>
            </Position>
            <AltitudeMeters>778.79998779296875</AltitudeMeters>
            <DistanceMeters>20990.235481675</DistanceMeters>
          </Trackpoint>
          <Trackpoint>
            <Time>2019-08-01T08:51:36.000Z</Time>
            <Position>
              <LatitudeDegrees>40.57218228466808795928955078125</LatitudeDegrees>
              <LongitudeDegrees>-3.70998968370258808135986328125</LongitudeDegrees>
            </Position>
            <AltitudeMeters>777.79998779296875</AltitudeMeters>
            <DistanceMeters>21022.469574123</DistanceMeters>
          </Trackpoint>
          <Trackpoint>
            <Time>2019-08-01T08:51:46.000Z</Time>
            <Position>
              <LatitudeDegrees>40.57261931709945201873779296875</LatitudeDegrees>
              <LongitudeDegrees>-3.70984585024416446685791015625</LongitudeDegrees>
            </Position>
            <AltitudeMeters>776.79998779296875</AltitudeMeters>
            <DistanceMeters>21072.609112235</DistanceMeters>
          </Trackpoint>
          <Trackpoint>
            <Time>2019-08-01T08:51:53.000Z</Time>
            <Position>
              <LatitudeDegrees>40.57294956408441066741943359375</LatitudeDegrees>
              <LongitudeDegrees>-3.70974979363381862640380859375</LongitudeDegrees>
            </Position>
            <AltitudeMeters>775.5999755859375</AltitudeMeters>
            <DistanceMeters>21110.252767025</DistanceMeters>
          </Trackpoint>
          <Trackpoint>
            <Time>2019-08-01T08:51:59.000Z</Time>
            <Position>
              <LatitudeDegrees>40.5732170306146144866943359375</LatitudeDegrees>
              <LongitudeDegrees>-3.7097316049039363861083984375</LongitudeDegrees>
            </Position>
            <AltitudeMeters>774.79998779296875</AltitudeMeters>
            <DistanceMeters>21140.062088426</DistanceMeters>
          </Trackpoint>
          <Trackpoint>
            <Time>2019-08-01T08:52:01.000Z</Time>
            <Position>
              <LatitudeDegrees>40.573297999799251556396484375</LatitudeDegrees>
              <LongitudeDegrees>-3.70974074117839336395263671875</LongitudeDegrees>
            </Position>
            <AltitudeMeters>774.5999755859375</AltitudeMeters>
            <DistanceMeters>21149.107114273</DistanceMeters>
          </Trackpoint>
          <Trackpoint>
            <Time>2019-08-01T08:52:14.000Z</Time>
            <Position>
              <LatitudeDegrees>40.57385246269404888153076171875</LatitudeDegrees>
              <LongitudeDegrees>-3.7096948921680450439453125</LongitudeDegrees>
            </Position>
            <AltitudeMeters>774.79998779296875</AltitudeMeters>
            <DistanceMeters>21210.941545683</DistanceMeters>
          </Trackpoint>
          <Trackpoint>
            <Time>2019-08-01T08:52:19.000Z</Time>
            <Position>
              <LatitudeDegrees>40.57409117929637432098388671875</LatitudeDegrees>
              <LongitudeDegrees>-3.7096276693046092987060546875</LongitudeDegrees>
            </Position>
            <AltitudeMeters>774.4000244140625</AltitudeMeters>
            <DistanceMeters>21238.112041437</DistanceMeters>
          </Trackpoint>
          <Trackpoint>
            <Time>2019-08-01T08:52:23.000Z</Time>
            <Position>
              <LatitudeDegrees>40.57425395585596561431884765625</LatitudeDegrees>
              <LongitudeDegrees>-3.7094841711223125457763671875</LongitudeDegrees>
            </Position>
            <AltitudeMeters>774.20001220703125</AltitudeMeters>
            <DistanceMeters>21259.916065484</DistanceMeters>
          </Trackpoint>
          <Trackpoint>
            <Time>2019-08-01T08:52:27.000Z</Time>
            <Position>
              <LatitudeDegrees>40.574408434331417083740234375</LatitudeDegrees>
              <LongitudeDegrees>-3.70932114310562610626220703125</LongitudeDegrees>
            </Position>
            <AltitudeMeters>774.20001220703125</AltitudeMeters>
            <DistanceMeters>21281.952020891</DistanceMeters>
          </Trackpoint>
          <Trackpoint>
            <Time>2019-08-01T08:52:39.000Z</Time>
            <Position>
              <LatitudeDegrees>40.57494596578180789947509765625</LatitudeDegrees>
              <LongitudeDegrees>-3.70903263799846172332763671875</LongitudeDegrees>
            </Position>
            <AltitudeMeters>773.4000244140625</AltitudeMeters>
            <DistanceMeters>21346.560962823</DistanceMeters>
          </Trackpoint>
          <Trackpoint>
            <Time>2019-08-01T08:52:50.000Z</Time>
            <Position>
              <LatitudeDegrees>40.57543530128896236419677734375</LatitudeDegrees>
              <LongitudeDegrees>-3.70870314538478851318359375</LongitudeDegrees>
            </Position>
            <AltitudeMeters>773</AltitudeMeters>
            <DistanceMeters>21407.734774621</DistanceMeters>
          </Trackpoint>
          <Trackpoint>
            <Time>2019-08-01T08:52:58.000Z</Time>
            <Position>
              <LatitudeDegrees>40.57576839812099933624267578125</LatitudeDegrees>
              <LongitudeDegrees>-3.708382956683635711669921875</LongitudeDegrees>
            </Position>
            <AltitudeMeters>772.20001220703125</AltitudeMeters>
            <DistanceMeters>21453.639268068</DistanceMeters>
          </Trackpoint>
          <Trackpoint>
            <Time>2019-08-01T08:53:05.000Z</Time>
            <Position>
              <LatitudeDegrees>40.5760516226291656494140625</LatitudeDegrees>
              <LongitudeDegrees>-3.70806838385760784149169921875</LongitudeDegrees>
            </Position>
            <AltitudeMeters>771</AltitudeMeters>
            <DistanceMeters>21494.881737918</DistanceMeters>
          </Trackpoint>
          <Trackpoint>
            <Time>2019-08-01T08:53:15.000Z</Time>
            <Position>
              <LatitudeDegrees>40.576445572078227996826171875</LatitudeDegrees>
              <LongitudeDegrees>-3.70762757956981658935546875</LongitudeDegrees>
            </Position>
            <AltitudeMeters>770.4000244140625</AltitudeMeters>
            <DistanceMeters>21552.425258764</DistanceMeters>
          </Trackpoint>
          <Trackpoint>
            <Time>2019-08-01T08:53:23.000Z</Time>
            <Position>
              <LatitudeDegrees>40.5768038146197795867919921875</LatitudeDegrees>
              <LongitudeDegrees>-3.707399927079677581787109375</LongitudeDegrees>
            </Position>
            <AltitudeMeters>769.79998779296875</AltitudeMeters>
            <DistanceMeters>21596.699856045</DistanceMeters>
          </Trackpoint>
          <Trackpoint>
            <Time>2019-08-01T08:53:30.000Z</Time>
            <Position>
              <LatitudeDegrees>40.57710497640073299407958984375</LatitudeDegrees>
              <LongitudeDegrees>-3.70726690627634525299072265625</LongitudeDegrees>
            </Position>
            <AltitudeMeters>768.79998779296875</AltitudeMeters>
            <DistanceMeters>21632.055796313</DistanceMeters>
          </Trackpoint>
          <Trackpoint>
            <Time>2019-08-01T08:53:43.000Z</Time>
            <Position>
              <LatitudeDegrees>40.5776215530931949615478515625</LatitudeDegrees>
              <LongitudeDegrees>-3.70691972784698009490966796875</LongitudeDegrees>
            </Position>
            <AltitudeMeters>767.79998779296875</AltitudeMeters>
            <DistanceMeters>21696.609437474</DistanceMeters>
          </Trackpoint>
          <Trackpoint>
            <Time>2019-08-01T08:53:55.000Z</Time>
            <Position>
              <LatitudeDegrees>40.578132681548595428466796875</LatitudeDegrees>
              <LongitudeDegrees>-3.70658244006335735321044921875</LongitudeDegrees>
            </Position>
            <AltitudeMeters>768</AltitudeMeters>
            <DistanceMeters>21760.244564726</DistanceMeters>
          </Trackpoint>
          <Trackpoint>
            <Time>2019-08-01T08:54:04.000Z</Time>
            <Position>
              <LatitudeDegrees>40.57852956466376781463623046875</LatitudeDegrees>
              <LongitudeDegrees>-3.70634548366069793701171875</LongitudeDegrees>
            </Position>
            <AltitudeMeters>769.5999755859375</AltitudeMeters>
            <DistanceMeters>21808.74804662</DistanceMeters>
          </Trackpoint>
          <Trackpoint>
            <Time>2019-08-01T08:54:15.000Z</Time>
            <Position>
              <LatitudeDegrees>40.57903951965272426605224609375</LatitudeDegrees>
              <LongitudeDegrees>-3.706085979938507080078125</LongitudeDegrees>
            </Position>
            <AltitudeMeters>770.4000244140625</AltitudeMeters>
            <DistanceMeters>21869.59883927</DistanceMeters>
          </Trackpoint>
          <Trackpoint>
            <Time>2019-08-01T08:54:19.000Z</Time>
            <Position>
              <LatitudeDegrees>40.57923263870179653167724609375</LatitudeDegrees>
              <LongitudeDegrees>-3.7060241214931011199951171875</LongitudeDegrees>
            </Position>
            <AltitudeMeters>770.5999755859375</AltitudeMeters>
            <DistanceMeters>21891.720274636</DistanceMeters>
          </Trackpoint>
          <Trackpoint>
            <Time>2019-08-01T08:54:25.000Z</Time>
            <Position>
              <LatitudeDegrees>40.579501949250698089599609375</LatitudeDegrees>
              <LongitudeDegrees>-3.7059513665735721588134765625</LongitudeDegrees>
            </Position>
            <AltitudeMeters>771.4000244140625</AltitudeMeters>
            <DistanceMeters>21922.319466886</DistanceMeters>
          </Trackpoint>
          <Trackpoint>
            <Time>2019-08-01T08:54:38.000Z</Time>
            <Position>
              <LatitudeDegrees>40.580065213143825531005859375</LatitudeDegrees>
              <LongitudeDegrees>-3.70595212094485759735107421875</LongitudeDegrees>
            </Position>
            <AltitudeMeters>771.79998779296875</AltitudeMeters>
            <DistanceMeters>21985.011968849</DistanceMeters>
          </Trackpoint>
          <Trackpoint>
            <Time>2019-08-01T08:54:45.000Z</Time>
            <Position>
              <LatitudeDegrees>40.58036972768604755401611328125</LatitudeDegrees>
              <LongitudeDegrees>-3.7059748359024524688720703125</LongitudeDegrees>
            </Position>
            <AltitudeMeters>772.4000244140625</AltitudeMeters>
            <DistanceMeters>22018.95938975</DistanceMeters>
          </Trackpoint>
          <Trackpoint>
            <Time>2019-08-01T08:54:51.000Z</Time>
            <Position>
              <LatitudeDegrees>40.58066946454346179962158203125</LatitudeDegrees>
              <LongitudeDegrees>-3.705975674092769622802734375</LongitudeDegrees>
            </Position>
            <AltitudeMeters>773.5999755859375</AltitudeMeters>
            <DistanceMeters>22052.320804767</DistanceMeters>
          </Trackpoint>
          <Trackpoint>
            <Time>2019-08-01T08:54:58.000Z</Time>
            <Position>
              <LatitudeDegrees>40.58102603070437908172607421875</LatitudeDegrees>
              <LongitudeDegrees>-3.7059671245515346527099609375</LongitudeDegrees>
            </Position>
            <AltitudeMeters>774.5999755859375</AltitudeMeters>
            <DistanceMeters>22092.013999118</DistanceMeters>
          </Trackpoint>
          <Trackpoint>
            <Time>2019-08-01T08:55:03.000Z</Time>
            <Position>
              <LatitudeDegrees>40.5812710337340831756591796875</LatitudeDegrees>
              <LongitudeDegrees>-3.7059577368199825286865234375</LongitudeDegrees>
            </Position>
            <AltitudeMeters>775.5999755859375</AltitudeMeters>
            <DistanceMeters>22119.294942475</DistanceMeters>
          </Trackpoint>
          <Trackpoint>
            <Time>2019-08-01T08:55:14.000Z</Time>
            <Position>
              <LatitudeDegrees>40.58181862346827983856201171875</LatitudeDegrees>
              <LongitudeDegrees>-3.706018589437007904052734375</LongitudeDegrees>
            </Position>
            <AltitudeMeters>776.5999755859375</AltitudeMeters>
            <DistanceMeters>22180.459453919</DistanceMeters>
          </Trackpoint>
          <Trackpoint>
            <Time>2019-08-01T08:55:18.000Z</Time>
            <Position>
              <LatitudeDegrees>40.58204040862619876861572265625</LatitudeDegrees>
              <LongitudeDegrees>-3.7060900032520294189453125</LongitudeDegrees>
            </Position>
            <AltitudeMeters>777.79998779296875</AltitudeMeters>
            <DistanceMeters>22205.871949802</DistanceMeters>
          </Trackpoint>
          <Trackpoint>
            <Time>2019-08-01T08:55:22.000Z</Time>
            <Position>
              <LatitudeDegrees>40.5822389759123325347900390625</LatitudeDegrees>
              <LongitudeDegrees>-3.70618429966270923614501953125</LongitudeDegrees>
            </Position>
            <AltitudeMeters>778.79998779296875</AltitudeMeters>
            <DistanceMeters>22229.36642815</DistanceMeters>
          </Trackpoint>
          <Trackpoint>
            <Time>2019-08-01T08:55:26.000Z</Time>
            <Position>
              <LatitudeDegrees>40.5824025906622409820556640625</LatitudeDegrees>
              <LongitudeDegrees>-3.70629108510911464691162109375</LongitudeDegrees>
            </Position>
            <AltitudeMeters>779.79998779296875</AltitudeMeters>
            <DistanceMeters>22249.69148503</DistanceMeters>
          </Trackpoint>
          <Trackpoint>
            <Time>2019-08-01T08:55:31.000Z</Time>
            <Position>
              <LatitudeDegrees>40.5825843103229999542236328125</LatitudeDegrees>
              <LongitudeDegrees>-3.7064358405768871307373046875</LongitudeDegrees>
            </Position>
            <AltitudeMeters>781</AltitudeMeters>
            <DistanceMeters>22273.330418815</DistanceMeters>
          </Trackpoint>
          <Trackpoint>
            <Time>2019-08-01T08:55:37.000Z</Time>
            <Position>
              <LatitudeDegrees>40.582786314189434051513671875</LatitudeDegrees>
              <LongitudeDegrees>-3.7066195718944072723388671875</LongitudeDegrees>
            </Position>
            <AltitudeMeters>782</AltitudeMeters>
            <DistanceMeters>22300.65650674</DistanceMeters>
          </Trackpoint>
          <Trackpoint>
            <Time>2019-08-01T08:55:46.000Z</Time>
            <Position>
              <LatitudeDegrees>40.58307029306888580322265625</LatitudeDegrees>
              <LongitudeDegrees>-3.7069166265428066253662109375</LongitudeDegrees>
            </Position>
            <AltitudeMeters>783</AltitudeMeters>
            <DistanceMeters>22341.023962379</DistanceMeters>
          </Trackpoint>
          <Trackpoint>
            <Time>2019-08-01T08:56:00.000Z</Time>
            <Position>
              <LatitudeDegrees>40.5835589580237865447998046875</LatitudeDegrees>
              <LongitudeDegrees>-3.707217872142791748046875</LongitudeDegrees>
            </Position>
            <AltitudeMeters>784</AltitudeMeters>
            <DistanceMeters>22401.079191893</DistanceMeters>
          </Trackpoint>
          <Trackpoint>
            <Time>2019-08-01T08:56:05.000Z</Time>
            <Position>
              <LatitudeDegrees>40.583753921091556549072265625</LatitudeDegrees>
              <LongitudeDegrees>-3.7072301097214221954345703125</LongitudeDegrees>
            </Position>
            <AltitudeMeters>784.20001220703125</AltitudeMeters>
            <DistanceMeters>22422.803554145</DistanceMeters>
          </Trackpoint>
          <Trackpoint>
            <Time>2019-08-01T08:56:09.000Z</Time>
            <Position>
              <LatitudeDegrees>40.5839120037853717803955078125</LatitudeDegrees>
              <LongitudeDegrees>-3.70721049606800079345703125</LongitudeDegrees>
            </Position>
            <AltitudeMeters>784.20001220703125</AltitudeMeters>
            <DistanceMeters>22440.476479314</DistanceMeters>
          </Trackpoint>
          <Trackpoint>
            <Time>2019-08-01T08:56:16.000Z</Time>
            <Position>
              <LatitudeDegrees>40.58423982001841068267822265625</LatitudeDegrees>
              <LongitudeDegrees>-3.70704830624163150787353515625</LongitudeDegrees>
            </Position>
            <AltitudeMeters>783.79998779296875</AltitudeMeters>
            <DistanceMeters>22479.453768741</DistanceMeters>
          </Trackpoint>
          <Trackpoint>
            <Time>2019-08-01T08:56:20.000Z</Time>
            <Position>
              <LatitudeDegrees>40.5844380520284175872802734375</LatitudeDegrees>
              <LongitudeDegrees>-3.70681612752377986907958984375</LongitudeDegrees>
            </Position>
            <AltitudeMeters>783.79998779296875</AltitudeMeters>
            <DistanceMeters>22508.982775523</DistanceMeters>
          </Trackpoint>
          <Trackpoint>
            <Time>2019-08-01T08:56:25.000Z</Time>
            <Position>
              <LatitudeDegrees>40.584748685359954833984375</LatitudeDegrees>
              <LongitudeDegrees>-3.7068750523030757904052734375</LongitudeDegrees>
            </Position>
            <AltitudeMeters>785</AltitudeMeters>
            <DistanceMeters>22543.913721966</DistanceMeters>
          </Trackpoint>
          <Trackpoint>
            <Time>2019-08-01T08:56:33.000Z</Time>
            <Position>
              <LatitudeDegrees>40.58518496342003345489501953125</LatitudeDegrees>
              <LongitudeDegrees>-3.70714838616549968719482421875</LongitudeDegrees>
            </Position>
            <AltitudeMeters>785.4000244140625</AltitudeMeters>
            <DistanceMeters>22597.688599929</DistanceMeters>
          </Trackpoint>
          <Trackpoint>
            <Time>2019-08-01T08:56:39.000Z</Time>
            <Position>
              <LatitudeDegrees>40.5854579620063304901123046875</LatitudeDegrees>
              <LongitudeDegrees>-3.70734401978552341461181640625</LongitudeDegrees>
            </Position>
            <AltitudeMeters>786.5999755859375</AltitudeMeters>
            <DistanceMeters>22632.282109157</DistanceMeters>
          </Trackpoint>
          <Trackpoint>
            <Time>2019-08-01T08:56:44.000Z</Time>
            <Position>
              <LatitudeDegrees>40.58569441549479961395263671875</LatitudeDegrees>
              <LongitudeDegrees>-3.70750562287867069244384765625</LongitudeDegrees>
            </Position>
            <AltitudeMeters>787.79998779296875</AltitudeMeters>
            <DistanceMeters>22661.933489612</DistanceMeters>
          </Trackpoint>
          <Trackpoint>
            <Time>2019-08-01T08:56:52.000Z</Time>
            <Position>
              <LatitudeDegrees>40.58614544570446014404296875</LatitudeDegrees>
              <LongitudeDegrees>-3.7078315950930118560791015625</LongitudeDegrees>
            </Position>
            <AltitudeMeters>789</AltitudeMeters>
            <DistanceMeters>22719.198420073</DistanceMeters>
          </Trackpoint>
          <Trackpoint>
            <Time>2019-08-01T08:56:59.000Z</Time>
            <Position>
              <LatitudeDegrees>40.58652807958424091339111328125</LatitudeDegrees>
              <LongitudeDegrees>-3.7081514485180377960205078125</LongitudeDegrees>
            </Position>
            <AltitudeMeters>790</AltitudeMeters>
            <DistanceMeters>22769.643018215</DistanceMeters>
          </Trackpoint>
          <Trackpoint>
            <Time>2019-08-01T08:57:09.000Z</Time>
            <Position>
              <LatitudeDegrees>40.58696980588138103485107421875</LatitudeDegrees>
              <LongitudeDegrees>-3.70859677903354167938232421875</LongitudeDegrees>
            </Position>
            <AltitudeMeters>791</AltitudeMeters>
            <DistanceMeters>22831.563113641</DistanceMeters>
          </Trackpoint>
          <Trackpoint>
            <Time>2019-08-01T08:57:10.000Z</Time>
            <Position>
              <LatitudeDegrees>40.587008781731128692626953125</LatitudeDegrees>
              <LongitudeDegrees>-3.7086409516632556915283203125</LongitudeDegrees>
            </Position>
            <AltitudeMeters>791</AltitudeMeters>
            <DistanceMeters>22837.286846456</DistanceMeters>
          </Trackpoint>
          <Trackpoint>
            <Time>2019-08-01T08:57:21.000Z</Time>
            <Position>
              <LatitudeDegrees>40.58741169981658458709716796875</LatitudeDegrees>
              <LongitudeDegrees>-3.7091247551143169403076171875</LongitudeDegrees>
            </Position>
            <AltitudeMeters>792</AltitudeMeters>
            <DistanceMeters>22897.977753861</DistanceMeters>
          </Trackpoint>
          <Trackpoint>
            <Time>2019-08-01T08:57:24.000Z</Time>
            <Position>
              <LatitudeDegrees>40.58751714415848255157470703125</LatitudeDegrees>
              <LongitudeDegrees>-3.709260709583759307861328125</LongitudeDegrees>
            </Position>
            <AltitudeMeters>792.4000244140625</AltitudeMeters>
            <DistanceMeters>22914.403362647</DistanceMeters>
          </Trackpoint>
          <Trackpoint>
            <Time>2019-08-01T08:57:36.000Z</Time>
            <Position>
              <LatitudeDegrees>40.5879209004342555999755859375</LatitudeDegrees>
              <LongitudeDegrees>-3.70982070453464984893798828125</LongitudeDegrees>
            </Position>
            <AltitudeMeters>792.79998779296875</AltitudeMeters>
            <DistanceMeters>22979.671359953</DistanceMeters>
          </Trackpoint>
          <Trackpoint>
            <Time>2019-08-01T08:57:48.000Z</Time>
            <Position>
              <LatitudeDegrees>40.58831267058849334716796875</LatitudeDegrees>
              <LongitudeDegrees>-3.71038514189422130584716796875</LongitudeDegrees>
            </Position>
            <AltitudeMeters>793</AltitudeMeters>
            <DistanceMeters>23044.304476728</DistanceMeters>
          </Trackpoint>
          <Trackpoint>
            <Time>2019-08-01T08:58:00.000Z</Time>
            <Position>
              <LatitudeDegrees>40.58871625922620296478271484375</LatitudeDegrees>
              <LongitudeDegrees>-3.71090129949152469635009765625</LongitudeDegrees>
            </Position>
            <AltitudeMeters>793</AltitudeMeters>
            <DistanceMeters>23106.923692745</DistanceMeters>
          </Trackpoint>
          <Trackpoint>
            <Time>2019-08-01T08:58:12.000Z</Time>
            <Position>
              <LatitudeDegrees>40.589159242808818817138671875</LatitudeDegrees>
              <LongitudeDegrees>-3.71134436689317226409912109375</LongitudeDegrees>
            </Position>
            <AltitudeMeters>793</AltitudeMeters>
            <DistanceMeters>23168.838246218</DistanceMeters>
          </Trackpoint>
          <Trackpoint>
            <Time>2019-08-01T08:58:23.000Z</Time>
            <Position>
              <LatitudeDegrees>40.58964413590729236602783203125</LatitudeDegrees>
              <LongitudeDegrees>-3.71172758750617504119873046875</LongitudeDegrees>
            </Position>
            <AltitudeMeters>793</AltitudeMeters>
            <DistanceMeters>23231.781520196</DistanceMeters>
          </Trackpoint>
          <Trackpoint>
            <Time>2019-08-01T08:58:35.000Z</Time>
            <Position>
              <LatitudeDegrees>40.5901528336107730865478515625</LatitudeDegrees>
              <LongitudeDegrees>-3.712058253586292266845703125</LongitudeDegrees>
            </Position>
            <AltitudeMeters>792.5999755859375</AltitudeMeters>
            <DistanceMeters>23294.922749755</DistanceMeters>
          </Trackpoint>
          <Trackpoint>
            <Time>2019-08-01T08:58:47.000Z</Time>
            <Position>
              <LatitudeDegrees>40.59067460708320140838623046875</LatitudeDegrees>
              <LongitudeDegrees>-3.712329827249050140380859375</LongitudeDegrees>
            </Position>
            <AltitudeMeters>792.4000244140625</AltitudeMeters>
            <DistanceMeters>23357.368750918</DistanceMeters>
          </Trackpoint>
          <Trackpoint>
            <Time>2019-08-01T08:59:00.000Z</Time>
            <Position>
              <LatitudeDegrees>40.5911844782531261444091796875</LatitudeDegrees>
              <LongitudeDegrees>-3.71260785497725009918212890625</LongitudeDegrees>
            </Position>
            <AltitudeMeters>792.5999755859375</AltitudeMeters>
            <DistanceMeters>23418.79122879</DistanceMeters>
          </Trackpoint>
          <Trackpoint>
            <Time>2019-08-01T08:59:10.000Z</Time>
            <Position>
              <LatitudeDegrees>40.5915740691125392913818359375</LatitudeDegrees>
              <LongitudeDegrees>-3.71279351413249969482421875</LongitudeDegrees>
            </Position>
            <AltitudeMeters>793.20001220703125</AltitudeMeters>
            <DistanceMeters>23464.905334679</DistanceMeters>
          </Trackpoint>
          <Trackpoint>
            <Time>2019-08-01T08:59:22.000Z</Time>
            <Position>
              <LatitudeDegrees>40.59211093001067638397216796875</LatitudeDegrees>
              <LongitudeDegrees>-3.71295520104467868804931640625</LongitudeDegrees>
            </Position>
            <AltitudeMeters>793.4000244140625</AltitudeMeters>
            <DistanceMeters>23526.201616841</DistanceMeters>
          </Trackpoint>
          <Trackpoint>
            <Time>2019-08-01T08:59:29.000Z</Time>
            <Position>
              <LatitudeDegrees>40.592440254986286163330078125</LatitudeDegrees>
              <LongitudeDegrees>-3.7130528502166271209716796875</LongitudeDegrees>
            </Position>
            <AltitudeMeters>793.20001220703125</AltitudeMeters>
            <DistanceMeters>23563.773718464</DistanceMeters>
          </Trackpoint>
          <Trackpoint>
            <Time>2019-08-01T08:59:36.000Z</Time>
            <Position>
              <LatitudeDegrees>40.5927585996687412261962890625</LatitudeDegrees>
              <LongitudeDegrees>-3.71314060874283313751220703125</LongitudeDegrees>
            </Position>
            <AltitudeMeters>794.20001220703125</AltitudeMeters>
            <DistanceMeters>23599.974032741</DistanceMeters>
          </Trackpoint>
          <Trackpoint>
            <Time>2019-08-01T08:59:48.000Z</Time>
            <Position>
              <LatitudeDegrees>40.593318678438663482666015625</LatitudeDegrees>
              <LongitudeDegrees>-3.71327119879424571990966796875</LongitudeDegrees>
            </Position>
            <AltitudeMeters>794.5999755859375</AltitudeMeters>
            <DistanceMeters>23663.28144035</DistanceMeters>
          </Trackpoint>
          <Trackpoint>
            <Time>2019-08-01T08:59:50.000Z</Time>
            <Position>
              <LatitudeDegrees>40.5934200994670391082763671875</LatitudeDegrees>
              <LongitudeDegrees>-3.71330036781728267669677734375</LongitudeDegrees>
            </Position>
            <AltitudeMeters>794.5999755859375</AltitudeMeters>
            <DistanceMeters>23674.835688493</DistanceMeters>
          </Trackpoint>
          <Trackpoint>
            <Time>2019-08-01T08:59:56.000Z</Time>
            <Position>
              <LatitudeDegrees>40.59372176416218280792236328125</LatitudeDegrees>
              <LongitudeDegrees>-3.71346733532845973968505859375</LongitudeDegrees>
            </Position>
            <AltitudeMeters>795.20001220703125</AltitudeMeters>
            <DistanceMeters>23711.256342649</DistanceMeters>
          </Trackpoint>
          <Trackpoint>
            <Time>2019-08-01T09:00:00.000Z</Time>
            <Position>
              <LatitudeDegrees>40.593902729451656341552734375</LatitudeDegrees>
              <LongitudeDegrees>-3.71361804194748401641845703125</LongitudeDegrees>
            </Position>
            <AltitudeMeters>795.20001220703125</AltitudeMeters>
            <DistanceMeters>23735.087405733</DistanceMeters>
          </Trackpoint>
          <Trackpoint>
            <Time>2019-08-01T09:00:03.000Z</Time>
            <Position>
              <LatitudeDegrees>40.59404899366199970245361328125</LatitudeDegrees>
              <LongitudeDegrees>-3.713699765503406524658203125</LongitudeDegrees>
            </Position>
            <AltitudeMeters>795.20001220703125</AltitudeMeters>
            <DistanceMeters>23752.771568348</DistanceMeters>
          </Trackpoint>
          <Trackpoint>
            <Time>2019-08-01T09:00:14.000Z</Time>
            <Position>
              <LatitudeDegrees>40.59452726505696773529052734375</LatitudeDegrees>
              <LongitudeDegrees>-3.71402355842292308807373046875</LongitudeDegrees>
            </Position>
            <AltitudeMeters>795.4000244140625</AltitudeMeters>
            <DistanceMeters>23812.626179434</DistanceMeters>
          </Trackpoint>
          <Trackpoint>
            <Time>2019-08-01T09:00:15.000Z</Time>
            <Position>
              <LatitudeDegrees>40.59456481598317623138427734375</LatitudeDegrees>
              <LongitudeDegrees>-3.71406395919620990753173828125</LongitudeDegrees>
            </Position>
            <AltitudeMeters>795.4000244140625</AltitudeMeters>
            <DistanceMeters>23818.023496046</DistanceMeters>
          </Trackpoint>
          <Trackpoint>
            <Time>2019-08-01T09:00:26.000Z</Time>
            <Position>
              <LatitudeDegrees>40.59499413706362247467041015625</LatitudeDegrees>
              <LongitudeDegrees>-3.714512474834918975830078125</LongitudeDegrees>
            </Position>
            <AltitudeMeters>795.5999755859375</AltitudeMeters>
            <DistanceMeters>23879.017175666</DistanceMeters>
          </Trackpoint>
          <Trackpoint>
            <Time>2019-08-01T09:00:37.000Z</Time>
            <Position>
              <LatitudeDegrees>40.5953697301447391510009765625</LatitudeDegrees>
              <LongitudeDegrees>-3.71503056026995182037353515625</LongitudeDegrees>
            </Position>
            <AltitudeMeters>795.4000244140625</AltitudeMeters>
            <DistanceMeters>23939.554637491</DistanceMeters>
          </Trackpoint>
          <Trackpoint>
            <Time>2019-08-01T09:00:48.000Z</Time>
            <Position>
              <LatitudeDegrees>40.59572068043053150177001953125</LatitudeDegrees>
              <LongitudeDegrees>-3.71557630598545074462890625</LongitudeDegrees>
            </Position>
            <AltitudeMeters>795.5999755859375</AltitudeMeters>
            <DistanceMeters>23999.995960654</DistanceMeters>
          </Trackpoint>
          <Trackpoint>
            <Time>2019-08-01T09:00:51.000Z</Time>
            <Position>
              <LatitudeDegrees>40.59579544700682163238525390625</LatitudeDegrees>
              <LongitudeDegrees>-3.71574285440146923065185546875</LongitudeDegrees>
            </Position>
            <AltitudeMeters>795.4000244140625</AltitudeMeters>
            <DistanceMeters>24016.3477362</DistanceMeters>
          </Trackpoint>
          <Trackpoint>
            <Time>2019-08-01T09:01:02.000Z</Time>
            <Position>
              <LatitudeDegrees>40.5959712155163288116455078125</LatitudeDegrees>
              <LongitudeDegrees>-3.71641491539776325225830078125</LongitudeDegrees>
            </Position>
            <AltitudeMeters>796.20001220703125</AltitudeMeters>
            <DistanceMeters>24076.42085623</DistanceMeters>
          </Trackpoint>
          <Trackpoint>
            <Time>2019-08-01T09:01:06.000Z</Time>
            <Position>
              <LatitudeDegrees>40.59603500179946422576904296875</LatitudeDegrees>
              <LongitudeDegrees>-3.7166483514010906219482421875</LongitudeDegrees>
            </Position>
            <AltitudeMeters>797</AltitudeMeters>
            <DistanceMeters>24097.387979103</DistanceMeters>
          </Trackpoint>
          <Trackpoint>
            <Time>2019-08-01T09:01:17.000Z</Time>
            <Position>
              <LatitudeDegrees>40.59620783664286136627197265625</LatitudeDegrees>
              <LongitudeDegrees>-3.71733692474663257598876953125</LongitudeDegrees>
            </Position>
            <AltitudeMeters>797.79998779296875</AltitudeMeters>
            <DistanceMeters>24158.678662906</DistanceMeters>
          </Trackpoint>
          <Trackpoint>
            <Time>2019-08-01T09:01:18.000Z</Time>
            <Position>
              <LatitudeDegrees>40.59622342698276042938232421875</LatitudeDegrees>
              <LongitudeDegrees>-3.7174027226865291595458984375</LongitudeDegrees>
            </Position>
            <AltitudeMeters>798</AltitudeMeters>
            <DistanceMeters>24164.504040772</DistanceMeters>
          </Trackpoint>
          <Trackpoint>
            <Time>2019-08-01T09:01:27.000Z</Time>
            <Position>
              <LatitudeDegrees>40.59642174281179904937744140625</LatitudeDegrees>
              <LongitudeDegrees>-3.71800906956195831298828125</LongitudeDegrees>
            </Position>
            <AltitudeMeters>799.20001220703125</AltitudeMeters>
            <DistanceMeters>24220.299937257</DistanceMeters>
          </Trackpoint>
          <Trackpoint>
            <Time>2019-08-01T09:01:28.000Z</Time>
            <Position>
              <LatitudeDegrees>40.5964587070047855377197265625</LatitudeDegrees>
              <LongitudeDegrees>-3.71807486750185489654541015625</LongitudeDegrees>
            </Position>
            <AltitudeMeters>799.4000244140625</AltitudeMeters>
            <DistanceMeters>24227.216681072</DistanceMeters>
          </Trackpoint>
          <Trackpoint>
            <Time>2019-08-01T09:01:30.000Z</Time>
            <Position>
              <LatitudeDegrees>40.59653221629559993743896484375</LatitudeDegrees>
              <LongitudeDegrees>-3.7182093970477581024169921875</LongitudeDegrees>
            </Position>
            <AltitudeMeters>799.5999755859375</AltitudeMeters>
            <DistanceMeters>24241.2243408</DistanceMeters>
          </Trackpoint>
          <Trackpoint>
            <Time>2019-08-01T09:01:39.000Z</Time>
            <Position>
              <LatitudeDegrees>40.5967752076685428619384765625</LatitudeDegrees>
              <LongitudeDegrees>-3.718820102512836456298828125</LongitudeDegrees>
            </Position>
            <AltitudeMeters>800.20001220703125</AltitudeMeters>
            <DistanceMeters>24299.493463693</DistanceMeters>
          </Trackpoint>
          <Trackpoint>
            <Time>2019-08-01T09:01:40.000Z</Time>
            <Position>
              <LatitudeDegrees>40.596820302307605743408203125</LatitudeDegrees>
              <LongitudeDegrees>-3.7188621796667575836181640625</LongitudeDegrees>
            </Position>
            <AltitudeMeters>800.20001220703125</AltitudeMeters>
            <DistanceMeters>24305.644562807</DistanceMeters>
          </Trackpoint>
          <Trackpoint>
            <Time>2019-08-01T09:01:46.000Z</Time>
            <Position>
              <LatitudeDegrees>40.59712934307754039764404296875</LatitudeDegrees>
              <LongitudeDegrees>-3.718686997890472412109375</LongitudeDegrees>
            </Position>
            <AltitudeMeters>799.79998779296875</AltitudeMeters>
            <DistanceMeters>24343.092323106</DistanceMeters>
          </Trackpoint>
          <Trackpoint>
            <Time>2019-08-01T09:01:48.000Z</Time>
            <Position>
              <LatitudeDegrees>40.59726965613663196563720703125</LatitudeDegrees>
              <LongitudeDegrees>-3.71860451996326446533203125</LongitudeDegrees>
            </Position>
            <AltitudeMeters>799.5999755859375</AltitudeMeters>
            <DistanceMeters>24360.194491858</DistanceMeters>
          </Trackpoint>
          <Trackpoint>
            <Time>2019-08-01T09:01:54.000Z</Time>
            <Position>
              <LatitudeDegrees>40.5975758470594882965087890625</LatitudeDegrees>
              <LongitudeDegrees>-3.71839304454624652862548828125</LongitudeDegrees>
            </Position>
            <AltitudeMeters>799.4000244140625</AltitudeMeters>
            <DistanceMeters>24398.676087537</DistanceMeters>
          </Trackpoint>
          <Trackpoint>
            <Time>2019-08-01T09:01:57.000Z</Time>
            <Position>
              <LatitudeDegrees>40.5976727418601512908935546875</LatitudeDegrees>
              <LongitudeDegrees>-3.718515336513519287109375</LongitudeDegrees>
            </Position>
            <AltitudeMeters>798.20001220703125</AltitudeMeters>
            <DistanceMeters>24413.613126359</DistanceMeters>
          </Trackpoint>
          <Trackpoint>
            <Time>2019-08-01T09:01:59.000Z</Time>
            <Position>
              <LatitudeDegrees>40.597694702446460723876953125</LatitudeDegrees>
              <LongitudeDegrees>-3.7186231277883052825927734375</LongitudeDegrees>
            </Position>
            <AltitudeMeters>797.79998779296875</AltitudeMeters>
            <DistanceMeters>24423.045215901</DistanceMeters>
          </Trackpoint>
          <Trackpoint>
            <Time>2019-08-01T09:02:01.000Z</Time>
            <Position>
              <LatitudeDegrees>40.59772512875497341156005859375</LatitudeDegrees>
              <LongitudeDegrees>-3.71872714720666408538818359375</LongitudeDegrees>
            </Position>
            <AltitudeMeters>797.5999755859375</AltitudeMeters>
            <DistanceMeters>24432.4658099</DistanceMeters>
          </Trackpoint>
          <Trackpoint>
            <Time>2019-08-01T09:02:04.000Z</Time>
            <Position>
              <LatitudeDegrees>40.59782772324979305267333984375</LatitudeDegrees>
              <LongitudeDegrees>-3.7188447453081607818603515625</LongitudeDegrees>
            </Position>
            <AltitudeMeters>797.4000244140625</AltitudeMeters>
            <DistanceMeters>24447.60401587</DistanceMeters>
          </Trackpoint>
          <Trackpoint>
            <Time>2019-08-01T09:02:05.000Z</Time>
            <Position>
              <LatitudeDegrees>40.59787030331790447235107421875</LatitudeDegrees>
              <LongitudeDegrees>-3.71887676417827606201171875</LongitudeDegrees>
            </Position>
            <AltitudeMeters>797.20001220703125</AltitudeMeters>
            <DistanceMeters>24453.061230554</DistanceMeters>
          </Trackpoint>
          <Trackpoint>
            <Time>2019-08-01T09:02:09.000Z</Time>
            <Position>
              <LatitudeDegrees>40.5980484187602996826171875</LatitudeDegrees>
              <LongitudeDegrees>-3.71901196427643299102783203125</LongitudeDegrees>
            </Position>
            <AltitudeMeters>796.4000244140625</AltitudeMeters>
            <DistanceMeters>24475.942747816</DistanceMeters>
          </Trackpoint>
          <Trackpoint>
            <Time>2019-08-01T09:02:17.000Z</Time>
            <Position>
              <LatitudeDegrees>40.5984194017946720123291015625</LatitudeDegrees>
              <LongitudeDegrees>-3.71928052045404911041259765625</LongitudeDegrees>
            </Position>
            <AltitudeMeters>795.4000244140625</AltitudeMeters>
            <DistanceMeters>24523.060285463</DistanceMeters>
          </Trackpoint>
          <Trackpoint>
            <Time>2019-08-01T09:02:22.000Z</Time>
            <Position>
              <LatitudeDegrees>40.598662979900836944580078125</LatitudeDegrees>
              <LongitudeDegrees>-3.71943424455821514129638671875</LongitudeDegrees>
            </Position>
            <AltitudeMeters>794.4000244140625</AltitudeMeters>
            <DistanceMeters>24553.122839259</DistanceMeters>
          </Trackpoint>
          <Trackpoint>
            <Time>2019-08-01T09:02:28.000Z</Time>
            <Position>
              <LatitudeDegrees>40.59895710088312625885009765625</LatitudeDegrees>
              <LongitudeDegrees>-3.7196028046309947967529296875</LongitudeDegrees>
            </Position>
            <AltitudeMeters>793.20001220703125</AltitudeMeters>
            <DistanceMeters>24588.824060946</DistanceMeters>
          </Trackpoint>
          <Trackpoint>
            <Time>2019-08-01T09:02:35.000Z</Time>
            <Position>
              <LatitudeDegrees>40.5992783792316913604736328125</LatitudeDegrees>
              <LongitudeDegrees>-3.71978913433849811553955078125</LongitudeDegrees>
            </Position>
            <AltitudeMeters>792.20001220703125</AltitudeMeters>
            <DistanceMeters>24627.896452911</DistanceMeters>
          </Trackpoint>
          <Trackpoint>
            <Time>2019-08-01T09:02:46.000Z</Time>
            <Position>
              <LatitudeDegrees>40.599762015044689178466796875</LatitudeDegrees>
              <LongitudeDegrees>-3.720065988600254058837890625</LongitudeDegrees>
            </Position>
            <AltitudeMeters>791.20001220703125</AltitudeMeters>
            <DistanceMeters>24686.590816728</DistanceMeters>
          </Trackpoint>
          <Trackpoint>
            <Time>2019-08-01T09:02:55.000Z</Time>
            <Position>
              <LatitudeDegrees>40.6001390330493450164794921875</LatitudeDegrees>
              <LongitudeDegrees>-3.72027151286602020263671875</LongitudeDegrees>
            </Position>
            <AltitudeMeters>790.4000244140625</AltitudeMeters>
            <DistanceMeters>24732.00613056</DistanceMeters>
          </Trackpoint>
          <Trackpoint>
            <Time>2019-08-01T09:03:06.000Z</Time>
            <Position>
              <LatitudeDegrees>40.6007069908082485198974609375</LatitudeDegrees>
              <LongitudeDegrees>-3.7204356305301189422607421875</LongitudeDegrees>
            </Position>
            <AltitudeMeters>790</AltitudeMeters>
            <DistanceMeters>24796.724555583</DistanceMeters>
          </Trackpoint>
          <Trackpoint>
            <Time>2019-08-01T09:03:10.000Z</Time>
            <Position>
              <LatitudeDegrees>40.60099951922893524169921875</LatitudeDegrees>
              <LongitudeDegrees>-3.7204668112099170684814453125</LongitudeDegrees>
            </Position>
            <AltitudeMeters>789.20001220703125</AltitudeMeters>
            <DistanceMeters>24829.389980009</DistanceMeters>
          </Trackpoint>
          <Trackpoint>
            <Time>2019-08-01T09:03:18.000Z</Time>
            <Position>
              <LatitudeDegrees>40.6015451811254024505615234375</LatitudeDegrees>
              <LongitudeDegrees>-3.7205425836145877838134765625</LongitudeDegrees>
            </Position>
            <AltitudeMeters>788.79998779296875</AltitudeMeters>
            <DistanceMeters>24890.459857464</DistanceMeters>
          </Trackpoint>
          <Trackpoint>
            <Time>2019-08-01T09:03:29.000Z</Time>
            <Position>
              <LatitudeDegrees>40.60211976058781147003173828125</LatitudeDegrees>
              <LongitudeDegrees>-3.72063972987234592437744140625</LongitudeDegrees>
            </Position>
            <AltitudeMeters>789.4000244140625</AltitudeMeters>
            <DistanceMeters>24954.936446029</DistanceMeters>
          </Trackpoint>
          <Trackpoint>
            <Time>2019-08-01T09:03:41.000Z</Time>
            <Position>
              <LatitudeDegrees>40.60269601643085479736328125</LatitudeDegrees>
              <LongitudeDegrees>-3.72073930688202381134033203125</LongitudeDegrees>
            </Position>
            <AltitudeMeters>789.5999755859375</AltitudeMeters>
            <DistanceMeters>25019.624516445</DistanceMeters>
          </Trackpoint>
          <Trackpoint>
            <Time>2019-08-01T09:03:53.000Z</Time>
            <Position>
              <LatitudeDegrees>40.60326464474201202392578125</LatitudeDegrees>
              <LongitudeDegrees>-3.72084558941423892974853515625</LongitudeDegrees>
            </Position>
            <AltitudeMeters>790</AltitudeMeters>
            <DistanceMeters>25083.548119144</DistanceMeters>
          </Trackpoint>
          <Trackpoint>
            <Time>2019-08-01T09:04:05.000Z</Time>
            <Position>
              <LatitudeDegrees>40.60383872129023075103759765625</LatitudeDegrees>
              <LongitudeDegrees>-3.72091733850538730621337890625</LongitudeDegrees>
            </Position>
            <AltitudeMeters>790</AltitudeMeters>
            <DistanceMeters>25147.730909462</DistanceMeters>
          </Trackpoint>
          <Trackpoint>
            <Time>2019-08-01T09:04:17.000Z</Time>
            <Position>
              <LatitudeDegrees>40.60439586639404296875</LatitudeDegrees>
              <LongitudeDegrees>-3.7209824658930301666259765625</LongitudeDegrees>
            </Position>
            <AltitudeMeters>789.79998779296875</AltitudeMeters>
            <DistanceMeters>25209.985955439</DistanceMeters>
          </Trackpoint>
          <Trackpoint>
            <Time>2019-08-01T09:04:29.000Z</Time>
            <Position>
              <LatitudeDegrees>40.60494580306112766265869140625</LatitudeDegrees>
              <LongitudeDegrees>-3.721049018204212188720703125</LongitudeDegrees>
            </Position>
            <AltitudeMeters>789.4000244140625</AltitudeMeters>
            <DistanceMeters>25271.452889511</DistanceMeters>
          </Trackpoint>
          <Trackpoint>
            <Time>2019-08-01T09:04:41.000Z</Time>
            <Position>
              <LatitudeDegrees>40.60550403781235218048095703125</LatitudeDegrees>
              <LongitudeDegrees>-3.7211108766496181488037109375</LongitudeDegrees>
            </Position>
            <AltitudeMeters>789.4000244140625</AltitudeMeters>
            <DistanceMeters>25333.805043058</DistanceMeters>
          </Trackpoint>
          <Trackpoint>
            <Time>2019-08-01T09:04:53.000Z</Time>
            <Position>
              <LatitudeDegrees>40.60607098974287509918212890625</LatitudeDegrees>
              <LongitudeDegrees>-3.7211752496659755706787109375</LongitudeDegrees>
            </Position>
            <AltitudeMeters>789</AltitudeMeters>
            <DistanceMeters>25397.141969964</DistanceMeters>
          </Trackpoint>
          <Trackpoint>
            <Time>2019-08-01T09:04:54.000Z</Time>
            <Position>
              <LatitudeDegrees>40.60611843131482601165771484375</LatitudeDegrees>
              <LongitudeDegrees>-3.72118270955979824066162109375</LongitudeDegrees>
            </Position>
            <AltitudeMeters>789</AltitudeMeters>
            <DistanceMeters>25402.460071075</DistanceMeters>
          </Trackpoint>
          <Trackpoint>
            <Time>2019-08-01T09:05:05.000Z</Time>
            <Position>
              <LatitudeDegrees>40.6066588126122951507568359375</LatitudeDegrees>
              <LongitudeDegrees>-3.72124037705361843109130859375</LongitudeDegrees>
            </Position>
            <AltitudeMeters>788.79998779296875</AltitudeMeters>
            <DistanceMeters>25462.802558467</DistanceMeters>
          </Trackpoint>
          <Trackpoint>
            <Time>2019-08-01T09:05:11.000Z</Time>
            <Position>
              <LatitudeDegrees>40.6069652549922466278076171875</LatitudeDegrees>
              <LongitudeDegrees>-3.721264265477657318115234375</LongitudeDegrees>
            </Position>
            <AltitudeMeters>789.20001220703125</AltitudeMeters>
            <DistanceMeters>25496.969783297</DistanceMeters>
          </Trackpoint>
          <Trackpoint>
            <Time>2019-08-01T09:05:16.000Z</Time>
            <Position>
              <LatitudeDegrees>40.6071939133107662200927734375</LatitudeDegrees>
              <LongitudeDegrees>-3.72113996185362339019775390625</LongitudeDegrees>
            </Position>
            <AltitudeMeters>789.5999755859375</AltitudeMeters>
            <DistanceMeters>25524.502123683</DistanceMeters>
          </Trackpoint>
          <Trackpoint>
            <Time>2019-08-01T09:05:17.000Z</Time>
            <Position>
              <LatitudeDegrees>40.6072349846363067626953125</LatitudeDegrees>
              <LongitudeDegrees>-3.7211045064032077789306640625</LongitudeDegrees>
            </Position>
            <AltitudeMeters>789.5999755859375</AltitudeMeters>
            <DistanceMeters>25529.968431664</DistanceMeters>
          </Trackpoint>
          <Trackpoint>
            <Time>2019-08-01T09:05:22.000Z</Time>
            <Position>
              <LatitudeDegrees>40.607442520558834075927734375</LatitudeDegrees>
              <LongitudeDegrees>-3.72108824551105499267578125</LongitudeDegrees>
            </Position>
            <AltitudeMeters>788.79998779296875</AltitudeMeters>
            <DistanceMeters>25553.108558565</DistanceMeters>
          </Trackpoint>
          <Trackpoint>
            <Time>2019-08-01T09:05:25.000Z</Time>
            <Position>
              <LatitudeDegrees>40.60752240009605884552001953125</LatitudeDegrees>
              <LongitudeDegrees>-3.7211118824779987335205078125</LongitudeDegrees>
            </Position>
            <AltitudeMeters>788</AltitudeMeters>
            <DistanceMeters>25562.220228161</DistanceMeters>
          </Trackpoint>
          <Trackpoint>
            <Time>2019-08-01T09:05:44.000Z</Time>
            <Position>
              <LatitudeDegrees>40.60802556574344635009765625</LatitudeDegrees>
              <LongitudeDegrees>-3.72130089439451694488525390625</LongitudeDegrees>
            </Position>
            <AltitudeMeters>789.4000244140625</AltitudeMeters>
            <DistanceMeters>25620.456410216</DistanceMeters>
          </Trackpoint>
          <Trackpoint>
            <Time>2019-08-01T09:05:50.000Z</Time>
            <Position>
              <LatitudeDegrees>40.60815456323325634002685546875</LatitudeDegrees>
              <LongitudeDegrees>-3.7214300595223903656005859375</LongitudeDegrees>
            </Position>
            <AltitudeMeters>790.4000244140625</AltitudeMeters>
            <DistanceMeters>25638.491719572</DistanceMeters>
          </Trackpoint>
          <Trackpoint>
            <Time>2019-08-01T09:06:10.000Z</Time>
            <Position>
              <LatitudeDegrees>40.6086627580225467681884765625</LatitudeDegrees>
              <LongitudeDegrees>-3.7216124497354030609130859375</LongitudeDegrees>
            </Position>
            <AltitudeMeters>791</AltitudeMeters>
            <DistanceMeters>25697.116810404</DistanceMeters>
          </Trackpoint>
          <Trackpoint>
            <Time>2019-08-01T09:06:25.000Z</Time>
            <Position>
              <LatitudeDegrees>40.60920414514839649200439453125</LatitudeDegrees>
              <LongitudeDegrees>-3.72167154215276241302490234375</LongitudeDegrees>
            </Position>
            <AltitudeMeters>791.5999755859375</AltitudeMeters>
            <DistanceMeters>25757.580763789</DistanceMeters>
          </Trackpoint>
          <Trackpoint>
            <Time>2019-08-01T09:06:26.000Z</Time>
            <Position>
              <LatitudeDegrees>40.60926332138478755950927734375</LatitudeDegrees>
              <LongitudeDegrees>-3.72167221270501613616943359375</LongitudeDegrees>
            </Position>
            <AltitudeMeters>791.5999755859375</AltitudeMeters>
            <DistanceMeters>25764.167150297</DistanceMeters>
          </Trackpoint>
          <Trackpoint>
            <Time>2019-08-01T09:06:29.000Z</Time>
            <Position>
              <LatitudeDegrees>40.60946867801249027252197265625</LatitudeDegrees>
              <LongitudeDegrees>-3.72167699038982391357421875</LongitudeDegrees>
            </Position>
            <AltitudeMeters>792</AltitudeMeters>
            <DistanceMeters>25787.027346796</DistanceMeters>
          </Trackpoint>
          <Trackpoint>
            <Time>2019-08-01T09:06:35.000Z</Time>
            <Position>
              <LatitudeDegrees>40.609880648553371429443359375</LatitudeDegrees>
              <LongitudeDegrees>-3.7219336442649364471435546875</LongitudeDegrees>
            </Position>
            <AltitudeMeters>792.20001220703125</AltitudeMeters>
            <DistanceMeters>25837.750253457</DistanceMeters>
          </Trackpoint>
          <Trackpoint>
            <Time>2019-08-01T09:06:43.000Z</Time>
            <Position>
              <LatitudeDegrees>40.61030485667288303375244140625</LatitudeDegrees>
              <LongitudeDegrees>-3.72238920070230960845947265625</LongitudeDegrees>
            </Position>
            <AltitudeMeters>792.20001220703125</AltitudeMeters>
            <DistanceMeters>25898.667862283</DistanceMeters>
          </Trackpoint>
          <Trackpoint>
            <Time>2019-08-01T09:06:46.000Z</Time>
            <Position>
              <LatitudeDegrees>40.61051331460475921630859375</LatitudeDegrees>
              <LongitudeDegrees>-3.7226062081754207611083984375</LongitudeDegrees>
            </Position>
            <AltitudeMeters>792.20001220703125</AltitudeMeters>
            <DistanceMeters>25928.240566647</DistanceMeters>
          </Trackpoint>
          <Trackpoint>
            <Time>2019-08-01T09:06:48.000Z</Time>
            <Position>
              <LatitudeDegrees>40.61062999069690704345703125</LatitudeDegrees>
              <LongitudeDegrees>-3.72279639355838298797607421875</LongitudeDegrees>
            </Position>
            <AltitudeMeters>792</AltitudeMeters>
            <DistanceMeters>25948.90161221</DistanceMeters>
          </Trackpoint>
          <Trackpoint>
            <Time>2019-08-01T09:06:52.000Z</Time>
            <Position>
              <LatitudeDegrees>40.61091388575732707977294921875</LatitudeDegrees>
              <LongitudeDegrees>-3.72302337549626827239990234375</LongitudeDegrees>
            </Position>
            <AltitudeMeters>792.4000244140625</AltitudeMeters>
            <DistanceMeters>25985.864561173</DistanceMeters>
          </Trackpoint>
          <Trackpoint>
            <Time>2019-08-01T09:06:53.000Z</Time>
            <Position>
              <LatitudeDegrees>40.6109852157533168792724609375</LatitudeDegrees>
              <LongitudeDegrees>-3.7230641953647136688232421875</LongitudeDegrees>
            </Position>
            <AltitudeMeters>792.4000244140625</AltitudeMeters>
            <DistanceMeters>25994.520342146</DistanceMeters>
          </Trackpoint>
          <Trackpoint>
            <Time>2019-08-01T09:06:56.000Z</Time>
            <Position>
              <LatitudeDegrees>40.61115838587284088134765625</LatitudeDegrees>
              <LongitudeDegrees>-3.7231971323490142822265625</LongitudeDegrees>
            </Position>
            <AltitudeMeters>792.79998779296875</AltitudeMeters>
            <DistanceMeters>26016.828761476</DistanceMeters>
          </Trackpoint>
          <Trackpoint>
            <Time>2019-08-01T09:07:07.000Z</Time>
            <Position>
              <LatitudeDegrees>40.61167110688984394073486328125</LatitudeDegrees>
              <LongitudeDegrees>-3.723482452332973480224609375</LongitudeDegrees>
            </Position>
            <AltitudeMeters>792.5999755859375</AltitudeMeters>
            <DistanceMeters>26078.77881861</DistanceMeters>
          </Trackpoint>
          <Trackpoint>
            <Time>2019-08-01T09:07:16.000Z</Time>
            <Position>
              <LatitudeDegrees>40.61216823756694793701171875</LatitudeDegrees>
              <LongitudeDegrees>-3.72384178452193737030029296875</LongitudeDegrees>
            </Position>
            <AltitudeMeters>792.4000244140625</AltitudeMeters>
            <DistanceMeters>26141.893012746</DistanceMeters>
          </Trackpoint>
          <Trackpoint>
            <Time>2019-08-01T09:07:20.000Z</Time>
            <Position>
              <LatitudeDegrees>40.6124285794794559478759765625</LatitudeDegrees>
              <LongitudeDegrees>-3.72405015863478183746337890625</LongitudeDegrees>
            </Position>
            <AltitudeMeters>792</AltitudeMeters>
            <DistanceMeters>26175.799045131</DistanceMeters>
          </Trackpoint>
          <Trackpoint>
            <Time>2019-08-01T09:07:28.000Z</Time>
            <Position>
              <LatitudeDegrees>40.6129338406026363372802734375</LatitudeDegrees>
              <LongitudeDegrees>-3.72446254827082157135009765625</LongitudeDegrees>
            </Position>
            <AltitudeMeters>791.20001220703125</AltitudeMeters>
            <DistanceMeters>26241.955112202</DistanceMeters>
          </Trackpoint>
          <Trackpoint>
            <Time>2019-08-01T09:07:30.000Z</Time>
            <Position>
              <LatitudeDegrees>40.6130495108664035797119140625</LatitudeDegrees>
              <LongitudeDegrees>-3.7245608679950237274169921875</LongitudeDegrees>
            </Position>
            <AltitudeMeters>790.79998779296875</AltitudeMeters>
            <DistanceMeters>26257.276825465</DistanceMeters>
          </Trackpoint>
          <Trackpoint>
            <Time>2019-08-01T09:07:36.000Z</Time>
            <Position>
              <LatitudeDegrees>40.61335938982665538787841796875</LatitudeDegrees>
              <LongitudeDegrees>-3.7248069606721401214599609375</LongitudeDegrees>
            </Position>
            <AltitudeMeters>789.79998779296875</AltitudeMeters>
            <DistanceMeters>26297.549770356</DistanceMeters>
          </Trackpoint>
          <Trackpoint>
            <Time>2019-08-01T09:07:44.000Z</Time>
            <Position>
              <LatitudeDegrees>40.6136481463909149169921875</LatitudeDegrees>
              <LongitudeDegrees>-3.7250520475208759307861328125</LongitudeDegrees>
            </Position>
            <AltitudeMeters>788.79998779296875</AltitudeMeters>
            <DistanceMeters>26335.782408171</DistanceMeters>
          </Trackpoint>
          <Trackpoint>
            <Time>2019-08-01T09:07:51.000Z</Time>
            <Position>
              <LatitudeDegrees>40.6138333864510059356689453125</LatitudeDegrees>
              <LongitudeDegrees>-3.7252213619649410247802734375</LongitudeDegrees>
            </Position>
            <AltitudeMeters>787.79998779296875</AltitudeMeters>
            <DistanceMeters>26360.87701857</DistanceMeters>
          </Trackpoint>
          <Trackpoint>
            <Time>2019-08-01T09:07:57.000Z</Time>
            <Position>
              <LatitudeDegrees>40.61396607197821140289306640625</LatitudeDegrees>
              <LongitudeDegrees>-3.72536913491785526275634765625</LongitudeDegrees>
            </Position>
            <AltitudeMeters>786.5999755859375</AltitudeMeters>
            <DistanceMeters>26380.215830478</DistanceMeters>
          </Trackpoint>
          <Trackpoint>
            <Time>2019-08-01T09:08:05.000Z</Time>
            <Position>
              <LatitudeDegrees>40.6141282618045806884765625</LatitudeDegrees>
              <LongitudeDegrees>-3.72554783709347248077392578125</LongitudeDegrees>
            </Position>
            <AltitudeMeters>785.5999755859375</AltitudeMeters>
            <DistanceMeters>26403.749863464</DistanceMeters>
          </Trackpoint>
          <Trackpoint>
            <Time>2019-08-01T09:08:27.000Z</Time>
            <Position>
              <LatitudeDegrees>40.61434744857251644134521484375</LatitudeDegrees>
              <LongitudeDegrees>-3.72618586756289005279541015625</LongitudeDegrees>
            </Position>
            <AltitudeMeters>785.4000244140625</AltitudeMeters>
            <DistanceMeters>26462.92061096</DistanceMeters>
          </Trackpoint>
          <Trackpoint>
            <Time>2019-08-01T09:08:45.000Z</Time>
            <Position>
              <LatitudeDegrees>40.6142511405050754547119140625</LatitudeDegrees>
              <LongitudeDegrees>-3.72691324912011623382568359375</LongitudeDegrees>
            </Position>
            <AltitudeMeters>785.5999755859375</AltitudeMeters>
            <DistanceMeters>26525.305124232</DistanceMeters>
          </Trackpoint>
          <Trackpoint>
            <Time>2019-08-01T09:08:50.000Z</Time>
            <Position>
              <LatitudeDegrees>40.6143309362232685089111328125</LatitudeDegrees>
              <LongitudeDegrees>-3.72712313197553157806396484375</LongitudeDegrees>
            </Position>
            <AltitudeMeters>785.79998779296875</AltitudeMeters>
            <DistanceMeters>26545.138180726</DistanceMeters>
          </Trackpoint>
          <Trackpoint>
            <Time>2019-08-01T09:08:55.000Z</Time>
            <Position>
              <LatitudeDegrees>40.6145341135561466217041015625</LatitudeDegrees>
              <LongitudeDegrees>-3.72722857631742954254150390625</LongitudeDegrees>
            </Position>
            <AltitudeMeters>785.4000244140625</AltitudeMeters>
            <DistanceMeters>26569.443666342</DistanceMeters>
          </Trackpoint>
          <Trackpoint>
            <Time>2019-08-01T09:09:06.000Z</Time>
            <Position>
              <LatitudeDegrees>40.61499771662056446075439453125</LatitudeDegrees>
              <LongitudeDegrees>-3.72740157879889011383056640625</LongitudeDegrees>
            </Position>
            <AltitudeMeters>786.4000244140625</AltitudeMeters>
            <DistanceMeters>26623.073935487</DistanceMeters>
          </Trackpoint>
          <Trackpoint>
            <Time>2019-08-01T09:09:08.000Z</Time>
            <Position>
              <LatitudeDegrees>40.615066029131412506103515625</LatitudeDegrees>
              <LongitudeDegrees>-3.72746125794947147369384765625</LongitudeDegrees>
            </Position>
            <AltitudeMeters>786.5999755859375</AltitudeMeters>
            <DistanceMeters>26632.197489874</DistanceMeters>
          </Trackpoint>
          <Trackpoint>
            <Time>2019-08-01T09:09:13.000Z</Time>
            <Position>
              <LatitudeDegrees>40.6151966191828250885009765625</LatitudeDegrees>
              <LongitudeDegrees>-3.72767114080488681793212890625</LongitudeDegrees>
            </Position>
            <AltitudeMeters>787</AltitudeMeters>
            <DistanceMeters>26655.126118714</DistanceMeters>
          </Trackpoint>
          <Trackpoint>
            <Time>2019-08-01T09:09:21.000Z</Time>
            <Position>
              <LatitudeDegrees>40.61537339352071285247802734375</LatitudeDegrees>
              <LongitudeDegrees>-3.72806659899652004241943359375</LongitudeDegrees>
            </Position>
            <AltitudeMeters>787.79998779296875</AltitudeMeters>
            <DistanceMeters>26693.900860979</DistanceMeters>
          </Trackpoint>
          <Trackpoint>
            <Time>2019-08-01T09:09:32.000Z</Time>
            <Position>
              <LatitudeDegrees>40.61566449701786041259765625</LatitudeDegrees>
              <LongitudeDegrees>-3.72854235582053661346435546875</LongitudeDegrees>
            </Position>
            <AltitudeMeters>789</AltitudeMeters>
            <DistanceMeters>26745.529321781</DistanceMeters>
          </Trackpoint>
          <Trackpoint>
            <Time>2019-08-01T09:09:45.000Z</Time>
            <Position>
              <LatitudeDegrees>40.6161172874271869659423828125</LatitudeDegrees>
              <LongitudeDegrees>-3.72899414040148258209228515625</LongitudeDegrees>
            </Position>
            <AltitudeMeters>789</AltitudeMeters>
            <DistanceMeters>26808.74944575</DistanceMeters>
          </Trackpoint>
          <Trackpoint>
            <Time>2019-08-01T09:09:58.000Z</Time>
            <Position>
              <LatitudeDegrees>40.61659882776439189910888671875</LatitudeDegrees>
              <LongitudeDegrees>-3.7293486110866069793701171875</LongitudeDegrees>
            </Position>
            <AltitudeMeters>789</AltitudeMeters>
            <DistanceMeters>26870.14552861</DistanceMeters>
          </Trackpoint>
          <Trackpoint>
            <Time>2019-08-01T09:10:06.000Z</Time>
            <Position>
              <LatitudeDegrees>40.61690744943916797637939453125</LatitudeDegrees>
              <LongitudeDegrees>-3.72954650782048702239990234375</LongitudeDegrees>
            </Position>
            <AltitudeMeters>789</AltitudeMeters>
            <DistanceMeters>26908.348749747</DistanceMeters>
          </Trackpoint>
          <Trackpoint>
            <Time>2019-08-01T09:10:10.000Z</Time>
            <Position>
              <LatitudeDegrees>40.61708933673799037933349609375</LatitudeDegrees>
              <LongitudeDegrees>-3.7295883335173130035400390625</LongitudeDegrees>
            </Position>
            <AltitudeMeters>789</AltitudeMeters>
            <DistanceMeters>26928.899361543</DistanceMeters>
          </Trackpoint>
          <Trackpoint>
            <Time>2019-08-01T09:10:24.000Z</Time>
            <Position>
              <LatitudeDegrees>40.61762074939906597137451171875</LatitudeDegrees>
              <LongitudeDegrees>-3.7298087775707244873046875</LongitudeDegrees>
            </Position>
            <AltitudeMeters>787.5999755859375</AltitudeMeters>
            <DistanceMeters>26990.909662721</DistanceMeters>
          </Trackpoint>
          <Trackpoint>
            <Time>2019-08-01T09:10:34.000Z</Time>
            <Position>
              <LatitudeDegrees>40.61818711459636688232421875</LatitudeDegrees>
              <LongitudeDegrees>-3.72999586164951324462890625</LongitudeDegrees>
            </Position>
            <AltitudeMeters>787.4000244140625</AltitudeMeters>
            <DistanceMeters>27055.898487564</DistanceMeters>
          </Trackpoint>
          <Trackpoint>
            <Time>2019-08-01T09:10:42.000Z</Time>
            <Position>
              <LatitudeDegrees>40.61864283867180347442626953125</LatitudeDegrees>
              <LongitudeDegrees>-3.73007155023515224456787109375</LongitudeDegrees>
            </Position>
            <AltitudeMeters>788.79998779296875</AltitudeMeters>
            <DistanceMeters>27107.022859895</DistanceMeters>
          </Trackpoint>
          <Trackpoint>
            <Time>2019-08-01T09:10:53.000Z</Time>
            <Position>
              <LatitudeDegrees>40.6190874986350536346435546875</LatitudeDegrees>
              <LongitudeDegrees>-3.7302226759493350982666015625</LongitudeDegrees>
            </Position>
            <AltitudeMeters>789.79998779296875</AltitudeMeters>
            <DistanceMeters>27158.134689987</DistanceMeters>
          </Trackpoint>
          <Trackpoint>
            <Time>2019-08-01T09:11:05.000Z</Time>
            <Position>
              <LatitudeDegrees>40.619622766971588134765625</LatitudeDegrees>
              <LongitudeDegrees>-3.730444125831127166748046875</LongitudeDegrees>
            </Position>
            <AltitudeMeters>790.79998779296875</AltitudeMeters>
            <DistanceMeters>27220.579678899</DistanceMeters>
          </Trackpoint>
          <Trackpoint>
            <Time>2019-08-01T09:11:07.000Z</Time>
            <Position>
              <LatitudeDegrees>40.6197268702089786529541015625</LatitudeDegrees>
              <LongitudeDegrees>-3.73047329485416412353515625</LongitudeDegrees>
            </Position>
            <AltitudeMeters>791</AltitudeMeters>
            <DistanceMeters>27232.425665052</DistanceMeters>
          </Trackpoint>
          <Trackpoint>
            <Time>2019-08-01T09:11:11.000Z</Time>
            <Position>
              <LatitudeDegrees>40.6199173070490360260009765625</LatitudeDegrees>
              <LongitudeDegrees>-3.7305157072842121124267578125</LongitudeDegrees>
            </Position>
            <AltitudeMeters>791.5999755859375</AltitudeMeters>
            <DistanceMeters>27253.922295763</DistanceMeters>
          </Trackpoint>
          <Trackpoint>
            <Time>2019-08-01T09:11:13.000Z</Time>
            <Position>
              <LatitudeDegrees>40.62003540806472301483154296875</LatitudeDegrees>
              <LongitudeDegrees>-3.7305867858231067657470703125</LongitudeDegrees>
            </Position>
            <AltitudeMeters>791.79998779296875</AltitudeMeters>
            <DistanceMeters>27268.37354408</DistanceMeters>
          </Trackpoint>
          <Trackpoint>
            <Time>2019-08-01T09:11:21.000Z</Time>
            <Position>
              <LatitudeDegrees>40.620573274791240692138671875</LatitudeDegrees>
              <LongitudeDegrees>-3.73094142414629459381103515625</LongitudeDegrees>
            </Position>
            <AltitudeMeters>792.5999755859375</AltitudeMeters>
            <DistanceMeters>27335.317891627</DistanceMeters>
          </Trackpoint>
          <Trackpoint>
            <Time>2019-08-01T09:11:23.000Z</Time>
            <Position>
              <LatitudeDegrees>40.62075206078588962554931640625</LatitudeDegrees>
              <LongitudeDegrees>-3.730976879596710205078125</LongitudeDegrees>
            </Position>
            <AltitudeMeters>792.79998779296875</AltitudeMeters>
            <DistanceMeters>27355.441355</DistanceMeters>
          </Trackpoint>
          <Trackpoint>
            <Time>2019-08-01T09:11:24.000Z</Time>
            <Position>
              <LatitudeDegrees>40.62083068303763866424560546875</LatitudeDegrees>
              <LongitudeDegrees>-3.7309740297496318817138671875</LongitudeDegrees>
            </Position>
            <AltitudeMeters>793</AltitudeMeters>
            <DistanceMeters>27364.195167239</DistanceMeters>
          </Trackpoint>
          <Trackpoint>
            <Time>2019-08-01T09:11:28.000Z</Time>
            <Position>
              <LatitudeDegrees>40.6211025081574916839599609375</LatitudeDegrees>
              <LongitudeDegrees>-3.7308301962912082672119140625</LongitudeDegrees>
            </Position>
            <AltitudeMeters>794</AltitudeMeters>
            <DistanceMeters>27396.798886947</DistanceMeters>
          </Trackpoint>
          <Trackpoint>
            <Time>2019-08-01T09:11:34.000Z</Time>
            <Position>
              <LatitudeDegrees>40.62155923806130886077880859375</LatitudeDegrees>
              <LongitudeDegrees>-3.7307322956621646881103515625</LongitudeDegrees>
            </Position>
            <AltitudeMeters>794</AltitudeMeters>
            <DistanceMeters>27448.302314169</DistanceMeters>
          </Trackpoint>
          <Trackpoint>
            <Time>2019-08-01T09:11:41.000Z</Time>
            <Position>
              <LatitudeDegrees>40.62210473231971263885498046875</LatitudeDegrees>
              <LongitudeDegrees>-3.73077529482543468475341796875</LongitudeDegrees>
            </Position>
            <AltitudeMeters>793.20001220703125</AltitudeMeters>
            <DistanceMeters>27509.12549871</DistanceMeters>
          </Trackpoint>
          <Trackpoint>
            <Time>2019-08-01T09:11:42.000Z</Time>
            <Position>
              <LatitudeDegrees>40.62218092381954193115234375</LatitudeDegrees>
              <LongitudeDegrees>-3.730781413614749908447265625</LongitudeDegrees>
            </Position>
            <AltitudeMeters>793.20001220703125</AltitudeMeters>
            <DistanceMeters>27517.62175854</DistanceMeters>
          </Trackpoint>
          <Trackpoint>
            <Time>2019-08-01T09:11:51.000Z</Time>
            <Position>
              <LatitudeDegrees>40.6227654777467250823974609375</LatitudeDegrees>
              <LongitudeDegrees>-3.73079859651625156402587890625</LongitudeDegrees>
            </Position>
            <AltitudeMeters>793.20001220703125</AltitudeMeters>
            <DistanceMeters>27582.699935087</DistanceMeters>
          </Trackpoint>
          <Trackpoint>
            <Time>2019-08-01T09:12:06.000Z</Time>
            <Position>
              <LatitudeDegrees>40.6233143247663974761962890625</LatitudeDegrees>
              <LongitudeDegrees>-3.73061905615031719207763671875</LongitudeDegrees>
            </Position>
            <AltitudeMeters>792</AltitudeMeters>
            <DistanceMeters>27645.642491743</DistanceMeters>
          </Trackpoint>
          <Trackpoint>
            <Time>2019-08-01T09:12:13.000Z</Time>
            <Position>
              <LatitudeDegrees>40.6235490180552005767822265625</LatitudeDegrees>
              <LongitudeDegrees>-3.730580247938632965087890625</LongitudeDegrees>
            </Position>
            <AltitudeMeters>791</AltitudeMeters>
            <DistanceMeters>27671.969179483</DistanceMeters>
          </Trackpoint>
          <Trackpoint>
            <Time>2019-08-01T09:12:19.000Z</Time>
            <Position>
              <LatitudeDegrees>40.62374993227422237396240234375</LatitudeDegrees>
              <LongitudeDegrees>-3.7305911444127559661865234375</LongitudeDegrees>
            </Position>
            <AltitudeMeters>789.79998779296875</AltitudeMeters>
            <DistanceMeters>27694.350341216</DistanceMeters>
          </Trackpoint>
          <Trackpoint>
            <Time>2019-08-01T09:12:27.000Z</Time>
            <Position>
              <LatitudeDegrees>40.62404313124716281890869140625</LatitudeDegrees>
              <LongitudeDegrees>-3.73060732148587703704833984375</LongitudeDegrees>
            </Position>
            <AltitudeMeters>789.5999755859375</AltitudeMeters>
            <DistanceMeters>27727.01258641</DistanceMeters>
          </Trackpoint>
          <Trackpoint>
            <Time>2019-08-01T09:12:36.000Z</Time>
            <Position>
              <LatitudeDegrees>40.624594576656818389892578125</LatitudeDegrees>
              <LongitudeDegrees>-3.73046751134097576141357421875</LongitudeDegrees>
            </Position>
            <AltitudeMeters>789.79998779296875</AltitudeMeters>
            <DistanceMeters>27789.515608669</DistanceMeters>
          </Trackpoint>
          <Trackpoint>
            <Time>2019-08-01T09:12:43.000Z</Time>
            <Position>
              <LatitudeDegrees>40.62520444393157958984375</LatitudeDegrees>
              <LongitudeDegrees>-3.730478994548320770263671875</LongitudeDegrees>
            </Position>
            <AltitudeMeters>789.79998779296875</AltitudeMeters>
            <DistanceMeters>27857.40193788</DistanceMeters>
          </Trackpoint>
          <Trackpoint>
            <Time>2019-08-01T09:12:51.000Z</Time>
            <Position>
              <LatitudeDegrees>40.62579142861068248748779296875</LatitudeDegrees>
              <LongitudeDegrees>-3.73058318160474300384521484375</LongitudeDegrees>
            </Position>
            <AltitudeMeters>790.20001220703125</AltitudeMeters>
            <DistanceMeters>27923.32473052</DistanceMeters>
          </Trackpoint>
          <Trackpoint>
            <Time>2019-08-01T09:12:55.000Z</Time>
            <Position>
              <LatitudeDegrees>40.62607607804238796234130859375</LatitudeDegrees>
              <LongitudeDegrees>-3.73062844388186931610107421875</LongitudeDegrees>
            </Position>
            <AltitudeMeters>790.4000244140625</AltitudeMeters>
            <DistanceMeters>27955.236732981</DistanceMeters>
          </Trackpoint>
          <Trackpoint>
            <Time>2019-08-01T09:13:00.000Z</Time>
            <Position>
              <LatitudeDegrees>40.62644320540130138397216796875</LatitudeDegrees>
              <LongitudeDegrees>-3.73050682246685028076171875</LongitudeDegrees>
            </Position>
            <AltitudeMeters>790.79998779296875</AltitudeMeters>
            <DistanceMeters>27997.3705537</DistanceMeters>
          </Trackpoint>
          <Trackpoint>
            <Time>2019-08-01T09:13:01.000Z</Time>
            <Position>
              <LatitudeDegrees>40.6265138648450374603271484375</LatitudeDegrees>
              <LongitudeDegrees>-3.7304927408695220947265625</LongitudeDegrees>
            </Position>
            <AltitudeMeters>791</AltitudeMeters>
            <DistanceMeters>28005.325600885</DistanceMeters>
          </Trackpoint>
          <Trackpoint>
            <Time>2019-08-01T09:13:04.000Z</Time>
            <Position>
              <LatitudeDegrees>40.62670991756021976470947265625</LatitudeDegrees>
              <LongitudeDegrees>-3.73050791211426258087158203125</LongitudeDegrees>
            </Position>
            <AltitudeMeters>791.20001220703125</AltitudeMeters>
            <DistanceMeters>28027.184430563</DistanceMeters>
          </Trackpoint>
          <Trackpoint>
            <Time>2019-08-01T09:13:15.000Z</Time>
            <Position>
              <LatitudeDegrees>40.62728860415518283843994140625</LatitudeDegrees>
              <LongitudeDegrees>-3.7305928207933902740478515625</LongitudeDegrees>
            </Position>
            <AltitudeMeters>791.4000244140625</AltitudeMeters>
            <DistanceMeters>28091.991535071</DistanceMeters>
          </Trackpoint>
          <Trackpoint>
            <Time>2019-08-01T09:13:29.000Z</Time>
            <Position>
              <LatitudeDegrees>40.62785647809505462646484375</LatitudeDegrees>
              <LongitudeDegrees>-3.7306263484060764312744140625</LongitudeDegrees>
            </Position>
            <AltitudeMeters>791.5999755859375</AltitudeMeters>
            <DistanceMeters>28155.26034719</DistanceMeters>
          </Trackpoint>
          <Trackpoint>
            <Time>2019-08-01T09:13:43.000Z</Time>
            <Position>
              <LatitudeDegrees>40.62839828431606292724609375</LatitudeDegrees>
              <LongitudeDegrees>-3.7306706048548221588134765625</LongitudeDegrees>
            </Position>
            <AltitudeMeters>791.20001220703125</AltitudeMeters>
            <DistanceMeters>28215.680302038</DistanceMeters>
          </Trackpoint>
          <Trackpoint>
            <Time>2019-08-01T09:13:57.000Z</Time>
            <Position>
              <LatitudeDegrees>40.62894637696444988250732421875</LatitudeDegrees>
              <LongitudeDegrees>-3.7305418588221073150634765625</LongitudeDegrees>
            </Position>
            <AltitudeMeters>790.4000244140625</AltitudeMeters>
            <DistanceMeters>28277.646026801</DistanceMeters>
          </Trackpoint>
          <Trackpoint>
            <Time>2019-08-01T09:13:58.000Z</Time>
            <Position>
              <LatitudeDegrees>40.62898593954741954803466796875</LatitudeDegrees>
              <LongitudeDegrees>-3.73052903451025485992431640625</LongitudeDegrees>
            </Position>
            <AltitudeMeters>790.20001220703125</AltitudeMeters>
            <DistanceMeters>28282.180504065</DistanceMeters>
          </Trackpoint>
          <Trackpoint>
            <Time>2019-08-01T09:14:12.000Z</Time>
            <Position>
              <LatitudeDegrees>40.6295259855687618255615234375</LatitudeDegrees>
              <LongitudeDegrees>-3.73042895458638668060302734375</LongitudeDegrees>
            </Position>
            <AltitudeMeters>789.5999755859375</AltitudeMeters>
            <DistanceMeters>28342.880338092</DistanceMeters>
          </Trackpoint>
          <Trackpoint>
            <Time>2019-08-01T09:14:27.000Z</Time>
            <Position>
              <LatitudeDegrees>40.63008128665387630462646484375</LatitudeDegrees>
              <LongitudeDegrees>-3.73034262098371982574462890625</LongitudeDegrees>
            </Position>
            <AltitudeMeters>789.4000244140625</AltitudeMeters>
            <DistanceMeters>28405.115073796</DistanceMeters>
          </Trackpoint>
          <Trackpoint>
            <Time>2019-08-01T09:14:42.000Z</Time>
            <Position>
              <LatitudeDegrees>40.63063390552997589111328125</LatitudeDegrees>
              <LongitudeDegrees>-3.73025947250425815582275390625</LongitudeDegrees>
            </Position>
            <AltitudeMeters>790</AltitudeMeters>
            <DistanceMeters>28467.02233447</DistanceMeters>
          </Trackpoint>
          <Trackpoint>
            <Time>2019-08-01T09:14:56.000Z</Time>
            <Position>
              <LatitudeDegrees>40.63118317164480686187744140625</LatitudeDegrees>
              <LongitudeDegrees>-3.73016827739775180816650390625</LongitudeDegrees>
            </Position>
            <AltitudeMeters>791</AltitudeMeters>
            <DistanceMeters>28528.640179705</DistanceMeters>
          </Trackpoint>
          <Trackpoint>
            <Time>2019-08-01T09:14:59.000Z</Time>
            <Position>
              <LatitudeDegrees>40.63131426461040973663330078125</LatitudeDegrees>
              <LongitudeDegrees>-3.73015268705785274505615234375</LongitudeDegrees>
            </Position>
            <AltitudeMeters>791.20001220703125</AltitudeMeters>
            <DistanceMeters>28543.290636592</DistanceMeters>
          </Trackpoint>
          <Trackpoint>
            <Time>2019-08-01T09:15:11.000Z</Time>
            <Position>
              <LatitudeDegrees>40.6318953819572925567626953125</LatitudeDegrees>
              <LongitudeDegrees>-3.730092085897922515869140625</LongitudeDegrees>
            </Position>
            <AltitudeMeters>791.79998779296875</AltitudeMeters>
            <DistanceMeters>28608.172383152</DistanceMeters>
          </Trackpoint>
          <Trackpoint>
            <Time>2019-08-01T09:15:23.000Z</Time>
            <Position>
              <LatitudeDegrees>40.63245101831853389739990234375</LatitudeDegrees>
              <LongitudeDegrees>-3.73001136817038059234619140625</LongitudeDegrees>
            </Position>
            <AltitudeMeters>791.5999755859375</AltitudeMeters>
            <DistanceMeters>28670.390575594</DistanceMeters>
          </Trackpoint>
          <Trackpoint>
            <Time>2019-08-01T09:15:32.000Z</Time>
            <Position>
              <LatitudeDegrees>40.63283599913120269775390625</LatitudeDegrees>
              <LongitudeDegrees>-3.72995135374367237091064453125</LongitudeDegrees>
            </Position>
            <AltitudeMeters>792.20001220703125</AltitudeMeters>
            <DistanceMeters>28713.538564199</DistanceMeters>
          </Trackpoint>
          <Trackpoint>
            <Time>2019-08-01T09:15:46.000Z</Time>
            <Position>
              <LatitudeDegrees>40.63340705819427967071533203125</LatitudeDegrees>
              <LongitudeDegrees>-3.72988848946988582611083984375</LongitudeDegrees>
            </Position>
            <AltitudeMeters>793</AltitudeMeters>
            <DistanceMeters>28777.319968214</DistanceMeters>
          </Trackpoint>
          <Trackpoint>
            <Time>2019-08-01T09:15:59.000Z</Time>
            <Position>
              <LatitudeDegrees>40.6339647062122821807861328125</LatitudeDegrees>
              <LongitudeDegrees>-3.72988144867122173309326171875</LongitudeDegrees>
            </Position>
            <AltitudeMeters>793.20001220703125</AltitudeMeters>
            <DistanceMeters>28839.39009126</DistanceMeters>
          </Trackpoint>
          <Trackpoint>
            <Time>2019-08-01T09:16:00.000Z</Time>
            <Position>
              <LatitudeDegrees>40.63400410115718841552734375</LatitudeDegrees>
              <LongitudeDegrees>-3.72988396324217319488525390625</LongitudeDegrees>
            </Position>
            <AltitudeMeters>793.20001220703125</AltitudeMeters>
            <DistanceMeters>28843.779872933</DistanceMeters>
          </Trackpoint>
          <Trackpoint>
            <Time>2019-08-01T09:16:14.000Z</Time>
            <Position>
              <LatitudeDegrees>40.63458303920924663543701171875</LatitudeDegrees>
              <LongitudeDegrees>-3.7299829535186290740966796875</LongitudeDegrees>
            </Position>
            <AltitudeMeters>793.20001220703125</AltitudeMeters>
            <DistanceMeters>28908.757025083</DistanceMeters>
          </Trackpoint>
          <Trackpoint>
            <Time>2019-08-01T09:16:21.000Z</Time>
            <Position>
              <LatitudeDegrees>40.6349886395037174224853515625</LatitudeDegrees>
              <LongitudeDegrees>-3.7301003001630306243896484375</LongitudeDegrees>
            </Position>
            <AltitudeMeters>794.20001220703125</AltitudeMeters>
            <DistanceMeters>28954.976362207</DistanceMeters>
          </Trackpoint>
          <Trackpoint>
            <Time>2019-08-01T09:16:22.000Z</Time>
            <Position>
              <LatitudeDegrees>40.6350332312285900115966796875</LatitudeDegrees>
              <LongitudeDegrees>-3.7301170639693737030029296875</LongitudeDegrees>
            </Position>
            <AltitudeMeters>794.4000244140625</AltitudeMeters>
            <DistanceMeters>28960.137633902</DistanceMeters>
          </Trackpoint>
          <Trackpoint>
            <Time>2019-08-01T09:16:28.000Z</Time>
            <Position>
              <LatitudeDegrees>40.63533120788633823394775390625</LatitudeDegrees>
              <LongitudeDegrees>-3.730207420885562896728515625</LongitudeDegrees>
            </Position>
            <AltitudeMeters>795.5999755859375</AltitudeMeters>
            <DistanceMeters>28994.169803604</DistanceMeters>
          </Trackpoint>
          <Trackpoint>
            <Time>2019-08-01T09:16:33.000Z</Time>
            <Position>
              <LatitudeDegrees>40.63549834303557872772216796875</LatitudeDegrees>
              <LongitudeDegrees>-3.7302608974277973175048828125</LongitudeDegrees>
            </Position>
            <AltitudeMeters>796.79998779296875</AltitudeMeters>
            <DistanceMeters>29013.312911039</DistanceMeters>
          </Trackpoint>
          <Trackpoint>
            <Time>2019-08-01T09:16:39.000Z</Time>
            <Position>
              <LatitudeDegrees>40.6356612034142017364501953125</LatitudeDegrees>
              <LongitudeDegrees>-3.7303199060261249542236328125</LongitudeDegrees>
            </Position>
            <AltitudeMeters>798</AltitudeMeters>
            <DistanceMeters>29032.112356027</DistanceMeters>
          </Trackpoint>
          <Trackpoint>
            <Time>2019-08-01T09:16:46.000Z</Time>
            <Position>
              <LatitudeDegrees>40.63584669493138790130615234375</LatitudeDegrees>
              <LongitudeDegrees>-3.73043172061443328857421875</LongitudeDegrees>
            </Position>
            <AltitudeMeters>799</AltitudeMeters>
            <DistanceMeters>29054.815389599</DistanceMeters>
          </Trackpoint>
          <Trackpoint>
            <Time>2019-08-01T09:17:04.000Z</Time>
            <Position>
              <LatitudeDegrees>40.6363570690155029296875</LatitudeDegrees>
              <LongitudeDegrees>-3.7306789867579936981201171875</LongitudeDegrees>
            </Position>
            <AltitudeMeters>799.5999755859375</AltitudeMeters>
            <DistanceMeters>29115.33852988</DistanceMeters>
          </Trackpoint>
          <Trackpoint>
            <Time>2019-08-01T09:17:23.000Z</Time>
            <Position>
              <LatitudeDegrees>40.6368889845907688140869140625</LatitudeDegrees>
              <LongitudeDegrees>-3.73092466033995151519775390625</LongitudeDegrees>
            </Position>
            <AltitudeMeters>799.20001220703125</AltitudeMeters>
            <DistanceMeters>29178.072716864</DistanceMeters>
          </Trackpoint>
          <Trackpoint>
            <Time>2019-08-01T09:17:40.000Z</Time>
            <Position>
              <LatitudeDegrees>40.6373597122728824615478515625</LatitudeDegrees>
              <LongitudeDegrees>-3.731137476861476898193359375</LongitudeDegrees>
            </Position>
            <AltitudeMeters>798.20001220703125</AltitudeMeters>
            <DistanceMeters>29233.463184663</DistanceMeters>
          </Trackpoint>
          <Trackpoint>
            <Time>2019-08-01T09:18:00.000Z</Time>
            <Position>
              <LatitudeDegrees>40.637879557907581329345703125</LatitudeDegrees>
              <LongitudeDegrees>-3.73135196976363658905029296875</LongitudeDegrees>
            </Position>
            <AltitudeMeters>798.20001220703125</AltitudeMeters>
            <DistanceMeters>29294.092909377</DistanceMeters>
          </Trackpoint>
          <Trackpoint>
            <Time>2019-08-01T09:18:16.000Z</Time>
            <Position>
              <LatitudeDegrees>40.6382673047482967376708984375</LatitudeDegrees>
              <LongitudeDegrees>-3.731639385223388671875</LongitudeDegrees>
            </Position>
            <AltitudeMeters>799</AltitudeMeters>
            <DistanceMeters>29343.608666826</DistanceMeters>
          </Trackpoint>
          <Trackpoint>
            <Time>2019-08-01T09:18:22.000Z</Time>
            <Position>
              <LatitudeDegrees>40.638315416872501373291015625</LatitudeDegrees>
              <LongitudeDegrees>-3.7318648584187030792236328125</LongitudeDegrees>
            </Position>
            <AltitudeMeters>800</AltitudeMeters>
            <DistanceMeters>29363.390663509</DistanceMeters>
          </Trackpoint>
          <Trackpoint>
            <Time>2019-08-01T09:18:40.000Z</Time>
            <Position>
              <LatitudeDegrees>40.6385712325572967529296875</LatitudeDegrees>
              <LongitudeDegrees>-3.732446730136871337890625</LongitudeDegrees>
            </Position>
            <AltitudeMeters>800.4000244140625</AltitudeMeters>
            <DistanceMeters>29420.18778966</DistanceMeters>
          </Trackpoint>
          <Trackpoint>
            <Time>2019-08-01T09:18:58.000Z</Time>
            <Position>
              <LatitudeDegrees>40.639105997979640960693359375</LatitudeDegrees>
              <LongitudeDegrees>-3.7324254401028156280517578125</LongitudeDegrees>
            </Position>
            <AltitudeMeters>800.5999755859375</AltitudeMeters>
            <DistanceMeters>29479.735353488</DistanceMeters>
          </Trackpoint>
          <Trackpoint>
            <Time>2019-08-01T09:19:15.000Z</Time>
            <Position>
              <LatitudeDegrees>40.63952266238629817962646484375</LatitudeDegrees>
              <LongitudeDegrees>-3.73204347677528858184814453125</LongitudeDegrees>
            </Position>
            <AltitudeMeters>798.79998779296875</AltitudeMeters>
            <DistanceMeters>29536.227915979</DistanceMeters>
          </Trackpoint>
          <Trackpoint>
            <Time>2019-08-01T09:19:29.000Z</Time>
            <Position>
              <LatitudeDegrees>40.6399393267929553985595703125</LatitudeDegrees>
              <LongitudeDegrees>-3.73171607963740825653076171875</LongitudeDegrees>
            </Position>
            <AltitudeMeters>797.5999755859375</AltitudeMeters>
            <DistanceMeters>29590.221322422</DistanceMeters>
          </Trackpoint>
          <Trackpoint>
            <Time>2019-08-01T09:19:34.000Z</Time>
            <Position>
              <LatitudeDegrees>40.64014233648777008056640625</LatitudeDegrees>
              <LongitudeDegrees>-3.7316646985709667205810546875</LongitudeDegrees>
            </Position>
            <AltitudeMeters>796.4000244140625</AltitudeMeters>
            <DistanceMeters>29613.229564456</DistanceMeters>
          </Trackpoint>
          <Trackpoint>
            <Time>2019-08-01T09:19:42.000Z</Time>
            <Position>
              <LatitudeDegrees>40.6404352001845836639404296875</LatitudeDegrees>
              <LongitudeDegrees>-3.731604181230068206787109375</LongitudeDegrees>
            </Position>
            <AltitudeMeters>797.4000244140625</AltitudeMeters>
            <DistanceMeters>29646.224230023</DistanceMeters>
          </Trackpoint>
          <Trackpoint>
            <Time>2019-08-01T09:19:50.000Z</Time>
            <Position>
              <LatitudeDegrees>40.640673749148845672607421875</LatitudeDegrees>
              <LongitudeDegrees>-3.73151005245745182037353515625</LongitudeDegrees>
            </Position>
            <AltitudeMeters>798.4000244140625</AltitudeMeters>
            <DistanceMeters>29673.939793932</DistanceMeters>
          </Trackpoint>
          <Trackpoint>
            <Time>2019-08-01T09:19:55.000Z</Time>
            <Position>
              <LatitudeDegrees>40.6408323347568511962890625</LatitudeDegrees>
              <LongitudeDegrees>-3.73145540244877338409423828125</LongitudeDegrees>
            </Position>
            <AltitudeMeters>799.5999755859375</AltitudeMeters>
            <DistanceMeters>29692.183933203</DistanceMeters>
          </Trackpoint>
          <Trackpoint>
            <Time>2019-08-01T09:20:01.000Z</Time>
            <Position>
              <LatitudeDegrees>40.640978850424289703369140625</LatitudeDegrees>
              <LongitudeDegrees>-3.731398992240428924560546875</LongitudeDegrees>
            </Position>
            <AltitudeMeters>800.79998779296875</AltitudeMeters>
            <DistanceMeters>29709.172732551</DistanceMeters>
          </Trackpoint>
          <Trackpoint>
            <Time>2019-08-01T09:20:05.000Z</Time>
            <Position>
              <LatitudeDegrees>40.6411433033645153045654296875</LatitudeDegrees>
              <LongitudeDegrees>-3.7313619442284107208251953125</LongitudeDegrees>
            </Position>
            <AltitudeMeters>801.79998779296875</AltitudeMeters>
            <DistanceMeters>29727.742129394</DistanceMeters>
          </Trackpoint>
          <Trackpoint>
            <Time>2019-08-01T09:20:10.000Z</Time>
            <Position>
              <LatitudeDegrees>40.64130867831408977508544921875</LatitudeDegrees>
              <LongitudeDegrees>-3.73133135028183460235595703125</LongitudeDegrees>
            </Position>
            <AltitudeMeters>803</AltitudeMeters>
            <DistanceMeters>29746.329024363</DistanceMeters>
          </Trackpoint>
          <Trackpoint>
            <Time>2019-08-01T09:20:14.000Z</Time>
            <Position>
              <LatitudeDegrees>40.64142200164496898651123046875</LatitudeDegrees>
              <LongitudeDegrees>-3.7313096411526203155517578125</LongitudeDegrees>
            </Position>
            <AltitudeMeters>804</AltitudeMeters>
            <DistanceMeters>29759.074654015</DistanceMeters>
          </Trackpoint>
          <Trackpoint>
            <Time>2019-08-01T09:20:18.000Z</Time>
            <Position>
              <LatitudeDegrees>40.64152057282626628875732421875</LatitudeDegrees>
              <LongitudeDegrees>-3.73130637221038341522216796875</LongitudeDegrees>
            </Position>
            <AltitudeMeters>805</AltitudeMeters>
            <DistanceMeters>29770.049313901</DistanceMeters>
          </Trackpoint>
          <Trackpoint>
            <Time>2019-08-01T09:20:24.000Z</Time>
            <Position>
              <LatitudeDegrees>40.64167647622525691986083984375</LatitudeDegrees>
              <LongitudeDegrees>-3.73127301223576068878173828125</LongitudeDegrees>
            </Position>
            <AltitudeMeters>806.20001220703125</AltitudeMeters>
            <DistanceMeters>29787.628999228</DistanceMeters>
          </Trackpoint>
          <Trackpoint>
            <Time>2019-08-01T09:20:42.000Z</Time>
            <Position>
              <LatitudeDegrees>40.6421578489243984222412109375</LatitudeDegrees>
              <LongitudeDegrees>-3.7311101518571376800537109375</LongitudeDegrees>
            </Position>
            <AltitudeMeters>807</AltitudeMeters>
            <DistanceMeters>29842.944179445</DistanceMeters>
          </Trackpoint>
          <Trackpoint>
            <Time>2019-08-01T09:21:01.000Z</Time>
            <Position>
              <LatitudeDegrees>40.6427013315260410308837890625</LatitudeDegrees>
              <LongitudeDegrees>-3.7309379875659942626953125</LongitudeDegrees>
            </Position>
            <AltitudeMeters>806.79998779296875</AltitudeMeters>
            <DistanceMeters>29905.157727374</DistanceMeters>
          </Trackpoint>
          <Trackpoint>
            <Time>2019-08-01T09:21:19.000Z</Time>
            <Position>
              <LatitudeDegrees>40.64325177110731601715087890625</LatitudeDegrees>
              <LongitudeDegrees>-3.73089783824980258941650390625</LongitudeDegrees>
            </Position>
            <AltitudeMeters>807.4000244140625</AltitudeMeters>
            <DistanceMeters>29966.516440787</DistanceMeters>
          </Trackpoint>
          <Trackpoint>
            <Time>2019-08-01T09:21:23.000Z</Time>
            <Position>
              <LatitudeDegrees>40.6433806009590625762939453125</LatitudeDegrees>
              <LongitudeDegrees>-3.7309160269796848297119140625</LongitudeDegrees>
            </Position>
            <AltitudeMeters>807.5999755859375</AltitudeMeters>
            <DistanceMeters>29980.937351316</DistanceMeters>
          </Trackpoint>
          <Trackpoint>
            <Time>2019-08-01T09:21:32.000Z</Time>
            <Position>
              <LatitudeDegrees>40.64367069862782955169677734375</LatitudeDegrees>
              <LongitudeDegrees>-3.73100043274462223052978515625</LongitudeDegrees>
            </Position>
            <AltitudeMeters>808.5999755859375</AltitudeMeters>
            <DistanceMeters>30014.003370971</DistanceMeters>
          </Trackpoint>
          <Trackpoint>
            <Time>2019-08-01T09:21:41.000Z</Time>
            <Position>
              <LatitudeDegrees>40.64395098946988582611083984375</LatitudeDegrees>
              <LongitudeDegrees>-3.73113957233726978302001953125</LongitudeDegrees>
            </Position>
            <AltitudeMeters>809.5999755859375</AltitudeMeters>
            <DistanceMeters>30047.340010094</DistanceMeters>
          </Trackpoint>
          <Trackpoint>
            <Time>2019-08-01T09:21:47.000Z</Time>
            <Position>
              <LatitudeDegrees>40.6441242434084415435791015625</LatitudeDegrees>
              <LongitudeDegrees>-3.73126245103776454925537109375</LongitudeDegrees>
            </Position>
            <AltitudeMeters>810.5999755859375</AltitudeMeters>
            <DistanceMeters>30069.238668492</DistanceMeters>
          </Trackpoint>
          <Trackpoint>
            <Time>2019-08-01T09:21:49.000Z</Time>
            <Position>
              <LatitudeDegrees>40.64417931251227855682373046875</LatitudeDegrees>
              <LongitudeDegrees>-3.731309138238430023193359375</LongitudeDegrees>
            </Position>
            <AltitudeMeters>810.79998779296875</AltitudeMeters>
            <DistanceMeters>30076.526666135</DistanceMeters>
          </Trackpoint>
          <Trackpoint>
            <Time>2019-08-01T09:22:05.000Z</Time>
            <Position>
              <LatitudeDegrees>40.64462522976100444793701171875</LatitudeDegrees>
              <LongitudeDegrees>-3.7317733280360698699951171875</LongitudeDegrees>
            </Position>
            <AltitudeMeters>811.20001220703125</AltitudeMeters>
            <DistanceMeters>30139.772852206</DistanceMeters>
          </Trackpoint>
          <Trackpoint>
            <Time>2019-08-01T09:22:09.000Z</Time>
            <Position>
              <LatitudeDegrees>40.64472631551325321197509765625</LatitudeDegrees>
              <LongitudeDegrees>-3.731899224221706390380859375</LongitudeDegrees>
            </Position>
            <AltitudeMeters>811.4000244140625</AltitudeMeters>
            <DistanceMeters>30155.253167729</DistanceMeters>
          </Trackpoint>
          <Trackpoint>
            <Time>2019-08-01T09:22:17.000Z</Time>
            <Position>
              <LatitudeDegrees>40.64492865465581417083740234375</LatitudeDegrees>
              <LongitudeDegrees>-3.73215210624039173126220703125</LongitudeDegrees>
            </Position>
            <AltitudeMeters>812.5999755859375</AltitudeMeters>
            <DistanceMeters>30186.289974985</DistanceMeters>
          </Trackpoint>
          <Trackpoint>
            <Time>2019-08-01T09:22:30.000Z</Time>
            <Position>
              <LatitudeDegrees>40.64533886499702930450439453125</LatitudeDegrees>
              <LongitudeDegrees>-3.73266340233385562896728515625</LongitudeDegrees>
            </Position>
            <AltitudeMeters>813.20001220703125</AltitudeMeters>
            <DistanceMeters>30249.13159456</DistanceMeters>
          </Trackpoint>
          <Trackpoint>
            <Time>2019-08-01T09:22:37.000Z</Time>
            <Position>
              <LatitudeDegrees>40.6455709598958492279052734375</LatitudeDegrees>
              <LongitudeDegrees>-3.73299666680395603179931640625</LongitudeDegrees>
            </Position>
            <AltitudeMeters>813.5999755859375</AltitudeMeters>
            <DistanceMeters>30287.334224769</DistanceMeters>
          </Trackpoint>
          <Trackpoint>
            <Time>2019-08-01T09:22:48.000Z</Time>
            <Position>
              <LatitudeDegrees>40.64583440311253070831298828125</LatitudeDegrees>
              <LongitudeDegrees>-3.73350745998322963714599609375</LongitudeDegrees>
            </Position>
            <AltitudeMeters>814.4000244140625</AltitudeMeters>
            <DistanceMeters>30339.493071677</DistanceMeters>
          </Trackpoint>
          <Trackpoint>
            <Time>2019-08-01T09:23:02.000Z</Time>
            <Position>
              <LatitudeDegrees>40.64610228873789310455322265625</LatitudeDegrees>
              <LongitudeDegrees>-3.734130151569843292236328125</LongitudeDegrees>
            </Position>
            <AltitudeMeters>815.20001220703125</AltitudeMeters>
            <DistanceMeters>30399.944254592</DistanceMeters>
          </Trackpoint>
          <Trackpoint>
            <Time>2019-08-01T09:23:17.000Z</Time>
            <Position>
              <LatitudeDegrees>40.646516270935535430908203125</LatitudeDegrees>
              <LongitudeDegrees>-3.7346179783344268798828125</LongitudeDegrees>
            </Position>
            <AltitudeMeters>814.5999755859375</AltitudeMeters>
            <DistanceMeters>30461.752613011</DistanceMeters>
          </Trackpoint>
          <Trackpoint>
            <Time>2019-08-01T09:23:33.000Z</Time>
            <Position>
              <LatitudeDegrees>40.647040642797946929931640625</LatitudeDegrees>
              <LongitudeDegrees>-3.73481721617281436920166015625</LongitudeDegrees>
            </Position>
            <AltitudeMeters>815.20001220703125</AltitudeMeters>
            <DistanceMeters>30522.493120933</DistanceMeters>
          </Trackpoint>
          <Trackpoint>
            <Time>2019-08-01T09:23:34.000Z</Time>
            <Position>
              <LatitudeDegrees>40.64707023091614246368408203125</LatitudeDegrees>
              <LongitudeDegrees>-3.73483163304626941680908203125</LongitudeDegrees>
            </Position>
            <AltitudeMeters>815.20001220703125</AltitudeMeters>
            <DistanceMeters>30526.003969028</DistanceMeters>
          </Trackpoint>
          <Trackpoint>
            <Time>2019-08-01T09:23:49.000Z</Time>
            <Position>
              <LatitudeDegrees>40.64751212485134601593017578125</LatitudeDegrees>
              <LongitudeDegrees>-3.73497060500085353851318359375</LongitudeDegrees>
            </Position>
            <AltitudeMeters>816.20001220703125</AltitudeMeters>
            <DistanceMeters>30576.568450775</DistanceMeters>
          </Trackpoint>
          <Trackpoint>
            <Time>2019-08-01T09:24:08.000Z</Time>
            <Position>
              <LatitudeDegrees>40.6480516679584980010986328125</LatitudeDegrees>
              <LongitudeDegrees>-3.73512667603790760040283203125</LongitudeDegrees>
            </Position>
            <AltitudeMeters>816.5999755859375</AltitudeMeters>
            <DistanceMeters>30638.050000604</DistanceMeters>
          </Trackpoint>
          <Trackpoint>
            <Time>2019-08-01T09:24:11.000Z</Time>
            <Position>
              <LatitudeDegrees>40.6481351517140865325927734375</LatitudeDegrees>
              <LongitudeDegrees>-3.73515517450869083404541015625</LongitudeDegrees>
            </Position>
            <AltitudeMeters>817</AltitudeMeters>
            <DistanceMeters>30647.648639567</DistanceMeters>
          </Trackpoint>
          <Trackpoint>
            <Time>2019-08-01T09:24:21.000Z</Time>
            <Position>
              <LatitudeDegrees>40.64841820858418941497802734375</LatitudeDegrees>
              <LongitudeDegrees>-3.73523890972137451171875</LongitudeDegrees>
            </Position>
            <AltitudeMeters>818.20001220703125</AltitudeMeters>
            <DistanceMeters>30679.937313213</DistanceMeters>
          </Trackpoint>
          <Trackpoint>
            <Time>2019-08-01T09:24:30.000Z</Time>
            <Position>
              <LatitudeDegrees>40.64867083914577960968017578125</LatitudeDegrees>
              <LongitudeDegrees>-3.73530663549900054931640625</LongitudeDegrees>
            </Position>
            <AltitudeMeters>819.20001220703125</AltitudeMeters>
            <DistanceMeters>30708.631290107</DistanceMeters>
          </Trackpoint>
          <Trackpoint>
            <Time>2019-08-01T09:24:38.000Z</Time>
            <Position>
              <LatitudeDegrees>40.6488818116486072540283203125</LatitudeDegrees>
              <LongitudeDegrees>-3.73537226580083370208740234375</LongitudeDegrees>
            </Position>
            <AltitudeMeters>820.20001220703125</AltitudeMeters>
            <DistanceMeters>30732.757972177</DistanceMeters>
          </Trackpoint>
          <Trackpoint>
            <Time>2019-08-01T09:24:46.000Z</Time>
            <Position>
              <LatitudeDegrees>40.64908524043858051300048828125</LatitudeDegrees>
              <LongitudeDegrees>-3.7354435957968235015869140625</LongitudeDegrees>
            </Position>
            <AltitudeMeters>821</AltitudeMeters>
            <DistanceMeters>30756.187405526</DistanceMeters>
          </Trackpoint>
          <Trackpoint>
            <Time>2019-08-01T09:24:56.000Z</Time>
            <Position>
              <LatitudeDegrees>40.64932546578347682952880859375</LatitudeDegrees>
              <LongitudeDegrees>-3.73555281199514865875244140625</LongitudeDegrees>
            </Position>
            <AltitudeMeters>822.20001220703125</AltitudeMeters>
            <DistanceMeters>30784.470906229</DistanceMeters>
          </Trackpoint>
          <Trackpoint>
            <Time>2019-08-01T09:25:05.000Z</Time>
            <Position>
              <LatitudeDegrees>40.64953266642987728118896484375</LatitudeDegrees>
              <LongitudeDegrees>-3.73566864989697933197021484375</LongitudeDegrees>
            </Position>
            <AltitudeMeters>823</AltitudeMeters>
            <DistanceMeters>30809.521577525</DistanceMeters>
          </Trackpoint>
          <Trackpoint>
            <Time>2019-08-01T09:25:22.000Z</Time>
            <Position>
              <LatitudeDegrees>40.649990402162075042724609375</LatitudeDegrees>
              <LongitudeDegrees>-3.73601079918444156646728515625</LongitudeDegrees>
            </Position>
            <AltitudeMeters>821.5999755859375</AltitudeMeters>
            <DistanceMeters>30868.09111389</DistanceMeters>
          </Trackpoint>
          <Trackpoint>
            <Time>2019-08-01T09:25:36.000Z</Time>
            <Position>
              <LatitudeDegrees>40.6504096649587154388427734375</LatitudeDegrees>
              <LongitudeDegrees>-3.73634330928325653076171875</LongitudeDegrees>
            </Position>
            <AltitudeMeters>822.79998779296875</AltitudeMeters>
            <DistanceMeters>30922.552365609</DistanceMeters>
          </Trackpoint>
          <Trackpoint>
            <Time>2019-08-01T09:25:48.000Z</Time>
            <Position>
              <LatitudeDegrees>40.65070177428424358367919921875</LatitudeDegrees>
              <LongitudeDegrees>-3.73657087795436382293701171875</LongitudeDegrees>
            </Position>
            <AltitudeMeters>823.5999755859375</AltitudeMeters>
            <DistanceMeters>30960.319358139</DistanceMeters>
          </Trackpoint>
          <Trackpoint>
            <Time>2019-08-01T09:25:54.000Z</Time>
            <Position>
              <LatitudeDegrees>40.650851726531982421875</LatitudeDegrees>
              <LongitudeDegrees>-3.73669358901679515838623046875</LongitudeDegrees>
            </Position>
            <AltitudeMeters>824.5999755859375</AltitudeMeters>
            <DistanceMeters>30979.964393314</DistanceMeters>
          </Trackpoint>
          <Trackpoint>
            <Time>2019-08-01T09:26:00.000Z</Time>
            <Position>
              <LatitudeDegrees>40.65101601183414459228515625</LatitudeDegrees>
              <LongitudeDegrees>-3.73681495897471904754638671875</LongitudeDegrees>
            </Position>
            <AltitudeMeters>825.5999755859375</AltitudeMeters>
            <DistanceMeters>31000.926347416</DistanceMeters>
          </Trackpoint>
          <Trackpoint>
            <Time>2019-08-01T09:26:06.000Z</Time>
            <Position>
              <LatitudeDegrees>40.65120686776936054229736328125</LatitudeDegrees>
              <LongitudeDegrees>-3.736967258155345916748046875</LongitudeDegrees>
            </Position>
            <AltitudeMeters>826.4000244140625</AltitudeMeters>
            <DistanceMeters>31025.758884344</DistanceMeters>
          </Trackpoint>
          <Trackpoint>
            <Time>2019-08-01T09:26:07.000Z</Time>
            <Position>
              <LatitudeDegrees>40.65124760381877422332763671875</LatitudeDegrees>
              <LongitudeDegrees>-3.73699374496936798095703125</LongitudeDegrees>
            </Position>
            <AltitudeMeters>826.5999755859375</AltitudeMeters>
            <DistanceMeters>31030.815877175</DistanceMeters>
          </Trackpoint>
          <Trackpoint>
            <Time>2019-08-01T09:26:08.000Z</Time>
            <Position>
              <LatitudeDegrees>40.65128783695399761199951171875</LatitudeDegrees>
              <LongitudeDegrees>-3.73702333308756351470947265625</LongitudeDegrees>
            </Position>
            <AltitudeMeters>826.5999755859375</AltitudeMeters>
            <DistanceMeters>31035.943799035</DistanceMeters>
          </Trackpoint>
          <Trackpoint>
            <Time>2019-08-01T09:26:14.000Z</Time>
            <Position>
              <LatitudeDegrees>40.65151532180607318878173828125</LatitudeDegrees>
              <LongitudeDegrees>-3.73722667805850505828857421875</LongitudeDegrees>
            </Position>
            <AltitudeMeters>827.5999755859375</AltitudeMeters>
            <DistanceMeters>31066.536793382</DistanceMeters>
          </Trackpoint>
          <Trackpoint>
            <Time>2019-08-01T09:26:21.000Z</Time>
            <Position>
              <LatitudeDegrees>40.65178639255464076995849609375</LatitudeDegrees>
              <LongitudeDegrees>-3.73752591200172901153564453125</LongitudeDegrees>
            </Position>
            <AltitudeMeters>828.4000244140625</AltitudeMeters>
            <DistanceMeters>31105.890934345</DistanceMeters>
          </Trackpoint>
          <Trackpoint>
            <Time>2019-08-01T09:26:28.000Z</Time>
            <Position>
              <LatitudeDegrees>40.6520709581673145294189453125</LatitudeDegrees>
              <LongitudeDegrees>-3.73791231773793697357177734375</LongitudeDegrees>
            </Position>
            <AltitudeMeters>829.4000244140625</AltitudeMeters>
            <DistanceMeters>31151.364171145</DistanceMeters>
          </Trackpoint>
          <Trackpoint>
            <Time>2019-08-01T09:26:35.000Z</Time>
            <Position>
              <LatitudeDegrees>40.65232384018599987030029296875</LatitudeDegrees>
              <LongitudeDegrees>-3.73837114311754703521728515625</LongitudeDegrees>
            </Position>
            <AltitudeMeters>830.79998779296875</AltitudeMeters>
            <DistanceMeters>31199.252921328</DistanceMeters>
          </Trackpoint>
          <Trackpoint>
            <Time>2019-08-01T09:26:41.000Z</Time>
            <Position>
              <LatitudeDegrees>40.65248494036495685577392578125</LatitudeDegrees>
              <LongitudeDegrees>-3.738752268254756927490234375</LongitudeDegrees>
            </Position>
            <AltitudeMeters>831.5999755859375</AltitudeMeters>
            <DistanceMeters>31236.093885076</DistanceMeters>
          </Trackpoint>
          <Trackpoint>
            <Time>2019-08-01T09:26:44.000Z</Time>
            <Position>
              <LatitudeDegrees>40.65254746936261653900146484375</LatitudeDegrees>
              <LongitudeDegrees>-3.7389261089265346527099609375</LongitudeDegrees>
            </Position>
            <AltitudeMeters>832.5999755859375</AltitudeMeters>
            <DistanceMeters>31252.339562785</DistanceMeters>
          </Trackpoint>
          <Trackpoint>
            <Time>2019-08-01T09:26:48.000Z</Time>
            <Position>
              <LatitudeDegrees>40.6526288576424121856689453125</LatitudeDegrees>
              <LongitudeDegrees>-3.73913071118295192718505859375</LongitudeDegrees>
            </Position>
            <AltitudeMeters>833.5999755859375</AltitudeMeters>
            <DistanceMeters>31271.847369212</DistanceMeters>
          </Trackpoint>
          <Trackpoint>
            <Time>2019-08-01T09:26:53.000Z</Time>
            <Position>
              <LatitudeDegrees>40.65271477214992046356201171875</LatitudeDegrees>
              <LongitudeDegrees>-3.7393740378320217132568359375</LongitudeDegrees>
            </Position>
            <AltitudeMeters>834.79998779296875</AltitudeMeters>
            <DistanceMeters>31294.510393899</DistanceMeters>
          </Trackpoint>
          <Trackpoint>
            <Time>2019-08-01T09:26:57.000Z</Time>
            <Position>
              <LatitudeDegrees>40.65278895199298858642578125</LatitudeDegrees>
              <LongitudeDegrees>-3.73955785296857357025146484375</LongitudeDegrees>
            </Position>
            <AltitudeMeters>836</AltitudeMeters>
            <DistanceMeters>31312.091363343</DistanceMeters>
          </Trackpoint>
          <Trackpoint>
            <Time>2019-08-01T09:27:01.000Z</Time>
            <Position>
              <LatitudeDegrees>40.652855671942234039306640625</LatitudeDegrees>
              <LongitudeDegrees>-3.739747703075408935546875</LongitudeDegrees>
            </Position>
            <AltitudeMeters>837.20001220703125</AltitudeMeters>
            <DistanceMeters>31329.75917822</DistanceMeters>
          </Trackpoint>
          <Trackpoint>
            <Time>2019-08-01T09:27:06.000Z</Time>
            <Position>
              <LatitudeDegrees>40.65294913016259670257568359375</LatitudeDegrees>
              <LongitudeDegrees>-3.73998432420194149017333984375</LongitudeDegrees>
            </Position>
            <AltitudeMeters>838.4000244140625</AltitudeMeters>
            <DistanceMeters>31352.285520925</DistanceMeters>
          </Trackpoint>
          <Trackpoint>
            <Time>2019-08-01T09:27:09.000Z</Time>
            <Position>
              <LatitudeDegrees>40.6529993377625942230224609375</LatitudeDegrees>
              <LongitudeDegrees>-3.74013125896453857421875</LongitudeDegrees>
            </Position>
            <AltitudeMeters>839.5999755859375</AltitudeMeters>
            <DistanceMeters>31365.893266792</DistanceMeters>
          </Trackpoint>
          <Trackpoint>
            <Time>2019-08-01T09:27:14.000Z</Time>
            <Position>
              <LatitudeDegrees>40.65308692865073680877685546875</LatitudeDegrees>
              <LongitudeDegrees>-3.74036285094916820526123046875</LongitudeDegrees>
            </Position>
            <AltitudeMeters>840.5999755859375</AltitudeMeters>
            <DistanceMeters>31387.744659245</DistanceMeters>
          </Trackpoint>
          <Trackpoint>
            <Time>2019-08-01T09:27:19.000Z</Time>
            <Position>
              <LatitudeDegrees>40.65316940657794475555419921875</LatitudeDegrees>
              <LongitudeDegrees>-3.74058765359222888946533203125</LongitudeDegrees>
            </Position>
            <AltitudeMeters>841.79998779296875</AltitudeMeters>
            <DistanceMeters>31408.830528301</DistanceMeters>
          </Trackpoint>
          <Trackpoint>
            <Time>2019-08-01T09:27:24.000Z</Time>
            <Position>
              <LatitudeDegrees>40.65325104631483554840087890625</LatitudeDegrees>
              <LongitudeDegrees>-3.74080055393278598785400390625</LongitudeDegrees>
            </Position>
            <AltitudeMeters>843</AltitudeMeters>
            <DistanceMeters>31428.973950427</DistanceMeters>
          </Trackpoint>
          <Trackpoint>
            <Time>2019-08-01T09:27:30.000Z</Time>
            <Position>
              <LatitudeDegrees>40.65333838574588298797607421875</LatitudeDegrees>
              <LongitudeDegrees>-3.7410567887127399444580078125</LongitudeDegrees>
            </Position>
            <AltitudeMeters>844.20001220703125</AltitudeMeters>
            <DistanceMeters>31452.694110693</DistanceMeters>
          </Trackpoint>
          <Trackpoint>
            <Time>2019-08-01T09:27:35.000Z</Time>
            <Position>
              <LatitudeDegrees>40.6534184329211711883544921875</LatitudeDegrees>
              <LongitudeDegrees>-3.74126055277884006500244140625</LongitudeDegrees>
            </Position>
            <AltitudeMeters>845.20001220703125</AltitudeMeters>
            <DistanceMeters>31472.070241841</DistanceMeters>
          </Trackpoint>
          <Trackpoint>
            <Time>2019-08-01T09:27:40.000Z</Time>
            <Position>
              <LatitudeDegrees>40.6535015814006328582763671875</LatitudeDegrees>
              <LongitudeDegrees>-3.741463311016559600830078125</LongitudeDegrees>
            </Position>
            <AltitudeMeters>846.4000244140625</AltitudeMeters>
            <DistanceMeters>31491.532631637</DistanceMeters>
          </Trackpoint>
          <Trackpoint>
            <Time>2019-08-01T09:27:49.000Z</Time>
            <Position>
              <LatitudeDegrees>40.6536484323441982269287109375</LatitudeDegrees>
              <LongitudeDegrees>-3.74182616360485553741455078125</LongitudeDegrees>
            </Position>
            <AltitudeMeters>847.4000244140625</AltitudeMeters>
            <DistanceMeters>31526.259272979</DistanceMeters>
          </Trackpoint>
          <Trackpoint>
            <Time>2019-08-01T09:28:03.000Z</Time>
            <Position>
              <LatitudeDegrees>40.65392796881496906280517578125</LatitudeDegrees>
              <LongitudeDegrees>-3.7424411438405513763427734375</LongitudeDegrees>
            </Position>
            <AltitudeMeters>847.79998779296875</AltitudeMeters>
            <DistanceMeters>31586.795765223</DistanceMeters>
          </Trackpoint>
          <Trackpoint>
            <Time>2019-08-01T09:28:14.000Z</Time>
            <Position>
              <LatitudeDegrees>40.65425285138189792633056640625</LatitudeDegrees>
              <LongitudeDegrees>-3.7430463172495365142822265625</LongitudeDegrees>
            </Position>
            <AltitudeMeters>848.20001220703125</AltitudeMeters>
            <DistanceMeters>31649.396448006</DistanceMeters>
          </Trackpoint>
          <Trackpoint>
            <Time>2019-08-01T09:28:24.000Z</Time>
            <Position>
              <LatitudeDegrees>40.65460824407637119293212890625</LatitudeDegrees>
              <LongitudeDegrees>-3.743674792349338531494140625</LongitudeDegrees>
            </Position>
            <AltitudeMeters>849.20001220703125</AltitudeMeters>
            <DistanceMeters>31715.584856859</DistanceMeters>
          </Trackpoint>
          <Trackpoint>
            <Time>2019-08-01T09:28:35.000Z</Time>
            <Position>
              <LatitudeDegrees>40.6549338810145854949951171875</LatitudeDegrees>
              <LongitudeDegrees>-3.74425456859171390533447265625</LongitudeDegrees>
            </Position>
            <AltitudeMeters>848.79998779296875</AltitudeMeters>
            <DistanceMeters>31776.497203142</DistanceMeters>
          </Trackpoint>
          <Trackpoint>
            <Time>2019-08-01T09:28:49.000Z</Time>
            <Position>
              <LatitudeDegrees>40.655258595943450927734375</LatitudeDegrees>
              <LongitudeDegrees>-3.74483895488083362579345703125</LongitudeDegrees>
            </Position>
            <AltitudeMeters>847.79998779296875</AltitudeMeters>
            <DistanceMeters>31837.661936039</DistanceMeters>
          </Trackpoint>
          <Trackpoint>
            <Time>2019-08-01T09:28:56.000Z</Time>
            <Position>
              <LatitudeDegrees>40.65541190095245838165283203125</LatitudeDegrees>
              <LongitudeDegrees>-3.7451112829148769378662109375</LongitudeDegrees>
            </Position>
            <AltitudeMeters>847.4000244140625</AltitudeMeters>
            <DistanceMeters>31866.296056961</DistanceMeters>
          </Trackpoint>
          <Trackpoint>
            <Time>2019-08-01T09:29:05.000Z</Time>
            <Position>
              <LatitudeDegrees>40.65559345297515392303466796875</LatitudeDegrees>
              <LongitudeDegrees>-3.7454326450824737548828125</LongitudeDegrees>
            </Position>
            <AltitudeMeters>846.4000244140625</AltitudeMeters>
            <DistanceMeters>31900.128770273</DistanceMeters>
          </Trackpoint>
          <Trackpoint>
            <Time>2019-08-01T09:29:13.000Z</Time>
            <Position>
              <LatitudeDegrees>40.65572370775043964385986328125</LatitudeDegrees>
              <LongitudeDegrees>-3.7456778995692729949951171875</LongitudeDegrees>
            </Position>
            <AltitudeMeters>845</AltitudeMeters>
            <DistanceMeters>31925.408019664</DistanceMeters>
          </Trackpoint>
          <Trackpoint>
            <Time>2019-08-01T09:29:19.000Z</Time>
            <Position>
              <LatitudeDegrees>40.65582512877881526947021484375</LatitudeDegrees>
              <LongitudeDegrees>-3.74584771692752838134765625</LongitudeDegrees>
            </Position>
            <AltitudeMeters>843.79998779296875</AltitudeMeters>
            <DistanceMeters>31943.65710784</DistanceMeters>
          </Trackpoint>
          <Trackpoint>
            <Time>2019-08-01T09:29:24.000Z</Time>
            <Position>
              <LatitudeDegrees>40.65591431222856044769287109375</LatitudeDegrees>
              <LongitudeDegrees>-3.74599012546241283416748046875</LongitudeDegrees>
            </Position>
            <AltitudeMeters>842.5999755859375</AltitudeMeters>
            <DistanceMeters>31959.249598923</DistanceMeters>
          </Trackpoint>
          <Trackpoint>
            <Time>2019-08-01T09:29:28.000Z</Time>
            <Position>
              <LatitudeDegrees>40.655983798205852508544921875</LatitudeDegrees>
              <LongitudeDegrees>-3.746109902858734130859375</LongitudeDegrees>
            </Position>
            <AltitudeMeters>841.5999755859375</AltitudeMeters>
            <DistanceMeters>31971.981760261</DistanceMeters>
          </Trackpoint>
          <Trackpoint>
            <Time>2019-08-01T09:29:32.000Z</Time>
            <Position>
              <LatitudeDegrees>40.65605244599282741546630859375</LatitudeDegrees>
              <LongitudeDegrees>-3.74622523784637451171875</LongitudeDegrees>
            </Position>
            <AltitudeMeters>840.20001220703125</AltitudeMeters>
            <DistanceMeters>31984.360426068</DistanceMeters>
          </Trackpoint>
          <Trackpoint>
            <Time>2019-08-01T09:29:53.000Z</Time>
            <Position>
              <LatitudeDegrees>40.65639677457511425018310546875</LatitudeDegrees>
              <LongitudeDegrees>-3.74678992666304111480712890625</LongitudeDegrees>
            </Position>
            <AltitudeMeters>840.5999755859375</AltitudeMeters>
            <DistanceMeters>32045.534164059</DistanceMeters>
          </Trackpoint>
          <Trackpoint>
            <Time>2019-08-01T09:29:56.000Z</Time>
            <Position>
              <LatitudeDegrees>40.65644488669931888580322265625</LatitudeDegrees>
              <LongitudeDegrees>-3.74687357805669307708740234375</LongitudeDegrees>
            </Position>
            <AltitudeMeters>841</AltitudeMeters>
            <DistanceMeters>32054.398175292</DistanceMeters>
          </Trackpoint>
          <Trackpoint>
            <Time>2019-08-01T09:30:12.000Z</Time>
            <Position>
              <LatitudeDegrees>40.65680882893502712249755859375</LatitudeDegrees>
              <LongitudeDegrees>-3.74748294241726398468017578125</LongitudeDegrees>
            </Position>
            <AltitudeMeters>840.79998779296875</AltitudeMeters>
            <DistanceMeters>32119.882820989</DistanceMeters>
          </Trackpoint>
          <Trackpoint>
            <Time>2019-08-01T09:30:19.000Z</Time>
            <Position>
              <LatitudeDegrees>40.65708593465387821197509765625</LatitudeDegrees>
              <LongitudeDegrees>-3.74802089296281337738037109375</LongitudeDegrees>
            </Position>
            <AltitudeMeters>842</AltitudeMeters>
            <DistanceMeters>32174.786884945</DistanceMeters>
          </Trackpoint>
          <Trackpoint>
            <Time>2019-08-01T09:30:23.000Z</Time>
            <Position>
              <LatitudeDegrees>40.65713907591998577117919921875</LatitudeDegrees>
              <LongitudeDegrees>-3.74837561510503292083740234375</LongitudeDegrees>
            </Position>
            <AltitudeMeters>842.79998779296875</AltitudeMeters>
            <DistanceMeters>32205.31664797</DistanceMeters>
          </Trackpoint>
          <Trackpoint>
            <Time>2019-08-01T09:30:24.000Z</Time>
            <Position>
              <LatitudeDegrees>40.65714997239410877227783203125</LatitudeDegrees>
              <LongitudeDegrees>-3.74844300560653209686279296875</LongitudeDegrees>
            </Position>
            <AltitudeMeters>843.20001220703125</AltitudeMeters>
            <DistanceMeters>32211.134270037</DistanceMeters>
          </Trackpoint>
          <Trackpoint>
            <Time>2019-08-01T09:30:26.000Z</Time>
            <Position>
              <LatitudeDegrees>40.65717796795070171356201171875</LatitudeDegrees>
              <LongitudeDegrees>-3.74855482019484043121337890625</LongitudeDegrees>
            </Position>
            <AltitudeMeters>844.20001220703125</AltitudeMeters>
            <DistanceMeters>32221.076262632</DistanceMeters>
          </Trackpoint>
          <Trackpoint>
            <Time>2019-08-01T09:30:30.000Z</Time>
            <Position>
              <LatitudeDegrees>40.6572858430445194244384765625</LatitudeDegrees>
              <LongitudeDegrees>-3.74866981990635395050048828125</LongitudeDegrees>
            </Position>
            <AltitudeMeters>845.20001220703125</AltitudeMeters>
            <DistanceMeters>32236.518030619</DistanceMeters>
          </Trackpoint>
          <Trackpoint>
            <Time>2019-08-01T09:30:31.000Z</Time>
            <Position>
              <LatitudeDegrees>40.65732398070394992828369140625</LatitudeDegrees>
              <LongitudeDegrees>-3.74867736361920833587646484375</LongitudeDegrees>
            </Position>
            <AltitudeMeters>845.4000244140625</AltitudeMeters>
            <DistanceMeters>32240.810041331</DistanceMeters>
          </Trackpoint>
          <Trackpoint>
            <Time>2019-08-01T09:30:39.000Z</Time>
            <Position>
              <LatitudeDegrees>40.65766361542046070098876953125</LatitudeDegrees>
              <LongitudeDegrees>-3.748726733028888702392578125</LongitudeDegrees>
            </Position>
            <AltitudeMeters>846.4000244140625</AltitudeMeters>
            <DistanceMeters>32278.841152334</DistanceMeters>
          </Trackpoint>
          <Trackpoint>
            <Time>2019-08-01T09:30:43.000Z</Time>
            <Position>
              <LatitudeDegrees>40.65790618769824504852294921875</LatitudeDegrees>
              <LongitudeDegrees>-3.74878934584558010101318359375</LongitudeDegrees>
            </Position>
            <AltitudeMeters>847.20001220703125</AltitudeMeters>
            <DistanceMeters>32306.352658062</DistanceMeters>
          </Trackpoint>
          <Trackpoint>
            <Time>2019-08-01T09:30:44.000Z</Time>
            <Position>
              <LatitudeDegrees>40.65798514522612094879150390625</LatitudeDegrees>
              <LongitudeDegrees>-3.74879605136811733245849609375</LongitudeDegrees>
            </Position>
            <AltitudeMeters>847.4000244140625</AltitudeMeters>
            <DistanceMeters>32315.158922678</DistanceMeters>
          </Trackpoint>
          <Trackpoint>
            <Time>2019-08-01T09:30:47.000Z</Time>
            <Position>
              <LatitudeDegrees>40.65821849741041660308837890625</LatitudeDegrees>
              <LongitudeDegrees>-3.7487654574215412139892578125</LongitudeDegrees>
            </Position>
            <AltitudeMeters>848.20001220703125</AltitudeMeters>
            <DistanceMeters>32341.259632</DistanceMeters>
          </Trackpoint>
          <Trackpoint>
            <Time>2019-08-01T09:30:48.000Z</Time>
            <Position>
              <LatitudeDegrees>40.6582916714251041412353515625</LatitudeDegrees>
              <LongitudeDegrees>-3.7487574107944965362548828125</LongitudeDegrees>
            </Position>
            <AltitudeMeters>848.4000244140625</AltitudeMeters>
            <DistanceMeters>32349.432481898</DistanceMeters>
          </Trackpoint>
          <Trackpoint>
            <Time>2019-08-01T09:30:49.000Z</Time>
            <Position>
              <LatitudeDegrees>40.65836266614496707916259765625</LatitudeDegrees>
              <LongitudeDegrees>-3.7487612664699554443359375</LongitudeDegrees>
            </Position>
            <AltitudeMeters>848.4000244140625</AltitudeMeters>
            <DistanceMeters>32357.34085148</DistanceMeters>
          </Trackpoint>
          <Trackpoint>
            <Time>2019-08-01T09:30:53.000Z</Time>
            <Position>
              <LatitudeDegrees>40.65859459340572357177734375</LatitudeDegrees>
              <LongitudeDegrees>-3.7488573230803012847900390625</LongitudeDegrees>
            </Position>
            <AltitudeMeters>849.20001220703125</AltitudeMeters>
            <DistanceMeters>32384.398947088</DistanceMeters>
          </Trackpoint>
          <Trackpoint>
            <Time>2019-08-01T09:30:54.000Z</Time>
            <Position>
              <LatitudeDegrees>40.6586410291492938995361328125</LatitudeDegrees>
              <LongitudeDegrees>-3.748888671398162841796875</LongitudeDegrees>
            </Position>
            <AltitudeMeters>849.5999755859375</AltitudeMeters>
            <DistanceMeters>32390.206471132</DistanceMeters>
          </Trackpoint>
          <Trackpoint>
            <Time>2019-08-01T09:31:04.000Z</Time>
            <Position>
              <LatitudeDegrees>40.6590822525322437286376953125</LatitudeDegrees>
              <LongitudeDegrees>-3.74905153177678585052490234375</LongitudeDegrees>
            </Position>
            <AltitudeMeters>850.5999755859375</AltitudeMeters>
            <DistanceMeters>32441.204396942</DistanceMeters>
          </Trackpoint>
          <Trackpoint>
            <Time>2019-08-01T09:31:16.000Z</Time>
            <Position>
              <LatitudeDegrees>40.6593476235866546630859375</LatitudeDegrees>
              <LongitudeDegrees>-3.74928186647593975067138671875</LongitudeDegrees>
            </Position>
            <AltitudeMeters>850.79998779296875</AltitudeMeters>
            <DistanceMeters>32476.568509219</DistanceMeters>
          </Trackpoint>
          <Trackpoint>
            <Time>2019-08-01T09:31:22.000Z</Time>
            <Position>
              <LatitudeDegrees>40.65931300632655620574951171875</LatitudeDegrees>
              <LongitudeDegrees>-3.749274574220180511474609375</LongitudeDegrees>
            </Position>
            <AltitudeMeters>850</AltitudeMeters>
            <DistanceMeters>32480.471551489</DistanceMeters>
          </Trackpoint>
          <Trackpoint>
            <Time>2019-08-01T09:31:38.000Z</Time>
            <Position>
              <LatitudeDegrees>40.65934158861637115478515625</LatitudeDegrees>
              <LongitudeDegrees>-3.74927834607660770416259765625</LongitudeDegrees>
            </Position>
            <AltitudeMeters>847.4000244140625</AltitudeMeters>
            <DistanceMeters>32483.670156905</DistanceMeters>
          </Trackpoint>
          <Trackpoint>
            <Time>2019-08-01T09:31:44.000Z</Time>
            <Position>
              <LatitudeDegrees>40.6594477035105228424072265625</LatitudeDegrees>
              <LongitudeDegrees>-3.74933383427560329437255859375</LongitudeDegrees>
            </Position>
            <AltitudeMeters>846</AltitudeMeters>
            <DistanceMeters>32496.376049501</DistanceMeters>
          </Trackpoint>
          <Trackpoint>
            <Time>2019-08-01T09:31:57.000Z</Time>
            <Position>
              <LatitudeDegrees>40.659761689603328704833984375</LatitudeDegrees>
              <LongitudeDegrees>-3.74939468689262866973876953125</LongitudeDegrees>
            </Position>
            <AltitudeMeters>844.79998779296875</AltitudeMeters>
            <DistanceMeters>32531.698899364</DistanceMeters>
          </Trackpoint>
          <Trackpoint>
            <Time>2019-08-01T09:32:17.000Z</Time>
            <Position>
              <LatitudeDegrees>40.6602818705141544342041015625</LatitudeDegrees>
              <LongitudeDegrees>-3.749476410448551177978515625</LongitudeDegrees>
            </Position>
            <AltitudeMeters>845.5999755859375</AltitudeMeters>
            <DistanceMeters>32590.005823139</DistanceMeters>
          </Trackpoint>
          <Trackpoint>
            <Time>2019-08-01T09:32:32.000Z</Time>
            <Position>
              <LatitudeDegrees>40.66062913276255130767822265625</LatitudeDegrees>
              <LongitudeDegrees>-3.7498497404158115386962890625</LongitudeDegrees>
            </Position>
            <AltitudeMeters>846.4000244140625</AltitudeMeters>
            <DistanceMeters>32639.88036582</DistanceMeters>
          </Trackpoint>
          <Trackpoint>
            <Time>2019-08-01T09:32:45.000Z</Time>
            <Position>
              <LatitudeDegrees>40.660939514636993408203125</LatitudeDegrees>
              <LongitudeDegrees>-3.7502175383269786834716796875</LongitudeDegrees>
            </Position>
            <AltitudeMeters>847.4000244140625</AltitudeMeters>
            <DistanceMeters>32686.332297068</DistanceMeters>
          </Trackpoint>
          <Trackpoint>
            <Time>2019-08-01T09:33:05.000Z</Time>
            <Position>
              <LatitudeDegrees>40.66133338026702404022216796875</LatitudeDegrees>
              <LongitudeDegrees>-3.75073646195232868194580078125</LongitudeDegrees>
            </Position>
            <AltitudeMeters>846.79998779296875</AltitudeMeters>
            <DistanceMeters>32748.311135869</DistanceMeters>
          </Trackpoint>
          <Trackpoint>
            <Time>2019-08-01T09:33:09.000Z</Time>
            <Position>
              <LatitudeDegrees>40.66142432391643524169921875</LatitudeDegrees>
              <LongitudeDegrees>-3.7508076243102550506591796875</LongitudeDegrees>
            </Position>
            <AltitudeMeters>846</AltitudeMeters>
            <DistanceMeters>32760.082564119</DistanceMeters>
          </Trackpoint>
          <Trackpoint>
            <Time>2019-08-01T09:33:15.000Z</Time>
            <Position>
              <LatitudeDegrees>40.6615498848259449005126953125</LatitudeDegrees>
              <LongitudeDegrees>-3.75092673115432262420654296875</LongitudeDegrees>
            </Position>
            <AltitudeMeters>844.79998779296875</AltitudeMeters>
            <DistanceMeters>32777.299978254</DistanceMeters>
          </Trackpoint>
          <Trackpoint>
            <Time>2019-08-01T09:33:22.000Z</Time>
            <Position>
              <LatitudeDegrees>40.6616923771798610687255859375</LatitudeDegrees>
              <LongitudeDegrees>-3.7510560639202594757080078125</LongitudeDegrees>
            </Position>
            <AltitudeMeters>843.5999755859375</AltitudeMeters>
            <DistanceMeters>32796.555495354</DistanceMeters>
          </Trackpoint>
          <Trackpoint>
            <Time>2019-08-01T09:33:29.000Z</Time>
            <Position>
              <LatitudeDegrees>40.661842413246631622314453125</LatitudeDegrees>
              <LongitudeDegrees>-3.75119226984679698944091796875</LongitudeDegrees>
            </Position>
            <AltitudeMeters>842.4000244140625</AltitudeMeters>
            <DistanceMeters>32816.831622211</DistanceMeters>
          </Trackpoint>
          <Trackpoint>
            <Time>2019-08-01T09:33:34.000Z</Time>
            <Position>
              <LatitudeDegrees>40.66196889616549015045166015625</LatitudeDegrees>
              <LongitudeDegrees>-3.751285560429096221923828125</LongitudeDegrees>
            </Position>
            <AltitudeMeters>841.4000244140625</AltitudeMeters>
            <DistanceMeters>32832.963229167</DistanceMeters>
          </Trackpoint>
          <Trackpoint>
            <Time>2019-08-01T09:33:41.000Z</Time>
            <Position>
              <LatitudeDegrees>40.66214491613209247589111328125</LatitudeDegrees>
              <LongitudeDegrees>-3.75142947770655155181884765625</LongitudeDegrees>
            </Position>
            <AltitudeMeters>840</AltitudeMeters>
            <DistanceMeters>32856.016952926</DistanceMeters>
          </Trackpoint>
          <Trackpoint>
            <Time>2019-08-01T09:33:48.000Z</Time>
            <Position>
              <LatitudeDegrees>40.66231858916580677032470703125</LatitudeDegrees>
              <LongitudeDegrees>-3.75155922956764698028564453125</LongitudeDegrees>
            </Position>
            <AltitudeMeters>838.79998779296875</AltitudeMeters>
            <DistanceMeters>32878.235328633</DistanceMeters>
          </Trackpoint>
          <Trackpoint>
            <Time>2019-08-01T09:34:07.000Z</Time>
            <Position>
              <LatitudeDegrees>40.662791244685649871826171875</LatitudeDegrees>
              <LongitudeDegrees>-3.751925937831401824951171875</LongitudeDegrees>
            </Position>
            <AltitudeMeters>837.79998779296875</AltitudeMeters>
            <DistanceMeters>32939.277401202</DistanceMeters>
          </Trackpoint>
          <Trackpoint>
            <Time>2019-08-01T09:34:26.000Z</Time>
            <Position>
              <LatitudeDegrees>40.66326272673904895782470703125</LatitudeDegrees>
              <LongitudeDegrees>-3.7523446977138519287109375</LongitudeDegrees>
            </Position>
            <AltitudeMeters>838.20001220703125</AltitudeMeters>
            <DistanceMeters>33002.553206486</DistanceMeters>
          </Trackpoint>
          <Trackpoint>
            <Time>2019-08-01T09:34:34.000Z</Time>
            <Position>
              <LatitudeDegrees>40.6634626351296901702880859375</LatitudeDegrees>
              <LongitudeDegrees>-3.7525379844009876251220703125</LongitudeDegrees>
            </Position>
            <AltitudeMeters>839</AltitudeMeters>
            <DistanceMeters>33030.146320219</DistanceMeters>
          </Trackpoint>
          <Trackpoint>
            <Time>2019-08-01T09:34:51.000Z</Time>
            <Position>
              <LatitudeDegrees>40.66388919018208980560302734375</LatitudeDegrees>
              <LongitudeDegrees>-3.75302572734653949737548828125</LongitudeDegrees>
            </Position>
            <AltitudeMeters>839.5999755859375</AltitudeMeters>
            <DistanceMeters>33092.993256313</DistanceMeters>
          </Trackpoint>
          <Trackpoint>
            <Time>2019-08-01T09:34:52.000Z</Time>
            <Position>
              <LatitudeDegrees>40.6639108993113040924072265625</LatitudeDegrees>
              <LongitudeDegrees>-3.75306512229144573211669921875</LongitudeDegrees>
            </Position>
            <AltitudeMeters>839.79998779296875</AltitudeMeters>
            <DistanceMeters>33097.103642308</DistanceMeters>
          </Trackpoint>
          <Trackpoint>
            <Time>2019-08-01T09:34:55.000Z</Time>
            <Position>
              <LatitudeDegrees>40.6639615260064601898193359375</LatitudeDegrees>
              <LongitudeDegrees>-3.75320292077958583831787109375</LongitudeDegrees>
            </Position>
            <AltitudeMeters>841</AltitudeMeters>
            <DistanceMeters>33110.030070064</DistanceMeters>
          </Trackpoint>
          <Trackpoint>
            <Time>2019-08-01T09:34:59.000Z</Time>
            <Position>
              <LatitudeDegrees>40.66400620155036449432373046875</LatitudeDegrees>
              <LongitudeDegrees>-3.75340643338859081268310546875</LongitudeDegrees>
            </Position>
            <AltitudeMeters>841.79998779296875</AltitudeMeters>
            <DistanceMeters>33127.917066415</DistanceMeters>
          </Trackpoint>
          <Trackpoint>
            <Time>2019-08-01T09:35:03.000Z</Time>
            <Position>
              <LatitudeDegrees>40.664024390280246734619140625</LatitudeDegrees>
              <LongitudeDegrees>-3.75362838618457317352294921875</LongitudeDegrees>
            </Position>
            <AltitudeMeters>843.20001220703125</AltitudeMeters>
            <DistanceMeters>33146.764963044</DistanceMeters>
          </Trackpoint>
          <Trackpoint>
            <Time>2019-08-01T09:35:07.000Z</Time>
            <Position>
              <LatitudeDegrees>40.66402346827089786529541015625</LatitudeDegrees>
              <LongitudeDegrees>-3.75385620631277561187744140625</LongitudeDegrees>
            </Position>
            <AltitudeMeters>844.4000244140625</AltitudeMeters>
            <DistanceMeters>33165.999130606</DistanceMeters>
          </Trackpoint>
          <Trackpoint>
            <Time>2019-08-01T09:35:10.000Z</Time>
            <Position>
              <LatitudeDegrees>40.664025060832500457763671875</LatitudeDegrees>
              <LongitudeDegrees>-3.7540279515087604522705078125</LongitudeDegrees>
            </Position>
            <AltitudeMeters>845.4000244140625</AltitudeMeters>
            <DistanceMeters>33180.499970585</DistanceMeters>
          </Trackpoint>
          <Trackpoint>
            <Time>2019-08-01T09:35:13.000Z</Time>
            <Position>
              <LatitudeDegrees>40.66403822042047977447509765625</LatitudeDegrees>
              <LongitudeDegrees>-3.7542043067514896392822265625</LongitudeDegrees>
            </Position>
            <AltitudeMeters>846.5999755859375</AltitudeMeters>
            <DistanceMeters>33195.461171569</DistanceMeters>
          </Trackpoint>
          <Trackpoint>
            <Time>2019-08-01T09:35:14.000Z</Time>
            <Position>
              <LatitudeDegrees>40.66404911689460277557373046875</LatitudeDegrees>
              <LongitudeDegrees>-3.7542633153498172760009765625</LongitudeDegrees>
            </Position>
            <AltitudeMeters>847</AltitudeMeters>
            <DistanceMeters>33200.589093429</DistanceMeters>
          </Trackpoint>
          <Trackpoint>
            <Time>2019-08-01T09:35:16.000Z</Time>
            <Position>
              <LatitudeDegrees>40.6640916131436824798583984375</LatitudeDegrees>
              <LongitudeDegrees>-3.75437353737652301788330078125</LongitudeDegrees>
            </Position>
            <AltitudeMeters>847.79998779296875</AltitudeMeters>
            <DistanceMeters>33211.027768271</DistanceMeters>
          </Trackpoint>
          <Trackpoint>
            <Time>2019-08-01T09:35:19.000Z</Time>
            <Position>
              <LatitudeDegrees>40.66419697366654872894287109375</LatitudeDegrees>
              <LongitudeDegrees>-3.75448015518486499786376953125</LongitudeDegrees>
            </Position>
            <AltitudeMeters>848.4000244140625</AltitudeMeters>
            <DistanceMeters>33225.810761203</DistanceMeters>
          </Trackpoint>
          <Trackpoint>
            <Time>2019-08-01T09:35:21.000Z</Time>
            <Position>
              <LatitudeDegrees>40.66426922567188739776611328125</LatitudeDegrees>
              <LongitudeDegrees>-3.754527010023593902587890625</LongitudeDegrees>
            </Position>
            <AltitudeMeters>848.79998779296875</AltitudeMeters>
            <DistanceMeters>33234.772541154</DistanceMeters>
          </Trackpoint>
          <Trackpoint>
            <Time>2019-08-01T09:35:24.000Z</Time>
            <Position>
              <LatitudeDegrees>40.6643806211650371551513671875</LatitudeDegrees>
              <LongitudeDegrees>-3.75450530089437961578369140625</LongitudeDegrees>
            </Position>
            <AltitudeMeters>850</AltitudeMeters>
            <DistanceMeters>33247.305624563</DistanceMeters>
          </Trackpoint>
          <Trackpoint>
            <Time>2019-08-01T09:35:26.000Z</Time>
            <Position>
              <LatitudeDegrees>40.66445245407521724700927734375</LatitudeDegrees>
              <LongitudeDegrees>-3.7544742040336132049560546875</LongitudeDegrees>
            </Position>
            <AltitudeMeters>851.20001220703125</AltitudeMeters>
            <DistanceMeters>33255.720721679</DistanceMeters>
          </Trackpoint>
          <Trackpoint>
            <Time>2019-08-01T09:35:28.000Z</Time>
            <Position>
              <LatitudeDegrees>40.66451515071094036102294921875</LatitudeDegrees>
              <LongitudeDegrees>-3.754441849887371063232421875</LongitudeDegrees>
            </Position>
            <AltitudeMeters>852.4000244140625</AltitudeMeters>
            <DistanceMeters>33263.213986343</DistanceMeters>
          </Trackpoint>
          <Trackpoint>
            <Time>2019-08-01T09:35:30.000Z</Time>
            <Position>
              <LatitudeDegrees>40.6645720638334751129150390625</LatitudeDegrees>
              <LongitudeDegrees>-3.75441309995949268341064453125</LongitudeDegrees>
            </Position>
            <AltitudeMeters>853.5999755859375</AltitudeMeters>
            <DistanceMeters>33269.997589336</DistanceMeters>
          </Trackpoint>
          <Trackpoint>
            <Time>2019-08-01T09:35:32.000Z</Time>
            <Position>
              <LatitudeDegrees>40.66462227143347263336181640625</LatitudeDegrees>
              <LongitudeDegrees>-3.75438879244029521942138671875</LongitudeDegrees>
            </Position>
            <AltitudeMeters>854.5999755859375</AltitudeMeters>
            <DistanceMeters>33275.951754274</DistanceMeters>
          </Trackpoint>
          <Trackpoint>
            <Time>2019-08-01T09:35:34.000Z</Time>
            <Position>
              <LatitudeDegrees>40.664671473205089569091796875</LatitudeDegrees>
              <LongitudeDegrees>-3.75435945577919483184814453125</LongitudeDegrees>
            </Position>
            <AltitudeMeters>855.79998779296875</AltitudeMeters>
            <DistanceMeters>33281.961771394</DistanceMeters>
          </Trackpoint>
          <Trackpoint>
            <Time>2019-08-01T09:35:37.000Z</Time>
            <Position>
              <LatitudeDegrees>40.66474732942879199981689453125</LatitudeDegrees>
              <LongitudeDegrees>-3.7543193064630031585693359375</LongitudeDegrees>
            </Position>
            <AltitudeMeters>857</AltitudeMeters>
            <DistanceMeters>33291.059555777</DistanceMeters>
          </Trackpoint>
          <Trackpoint>
            <Time>2019-08-01T09:35:40.000Z</Time>
            <Position>
              <LatitudeDegrees>40.66481857560575008392333984375</LatitudeDegrees>
              <LongitudeDegrees>-3.75427580438554286956787109375</LongitudeDegrees>
            </Position>
            <AltitudeMeters>858</AltitudeMeters>
            <DistanceMeters>33299.798914253</DistanceMeters>
          </Trackpoint>
          <Trackpoint>
            <Time>2019-08-01T09:35:43.000Z</Time>
            <Position>
              <LatitudeDegrees>40.66489040851593017578125</LatitudeDegrees>
              <LongitudeDegrees>-3.75423188321292400360107421875</LongitudeDegrees>
            </Position>
            <AltitudeMeters>859.4000244140625</AltitudeMeters>
            <DistanceMeters>33308.611329212</DistanceMeters>
          </Trackpoint>
          <Trackpoint>
            <Time>2019-08-01T09:35:47.000Z</Time>
            <Position>
              <LatitudeDegrees>40.664989314973354339599609375</LatitudeDegrees>
              <LongitudeDegrees>-3.75417488627135753631591796875</LongitudeDegrees>
            </Position>
            <AltitudeMeters>860.5999755859375</AltitudeMeters>
            <DistanceMeters>33320.625351931</DistanceMeters>
          </Trackpoint>
          <Trackpoint>
            <Time>2019-08-01T09:35:52.000Z</Time>
            <Position>
              <LatitudeDegrees>40.6651279516518115997314453125</LatitudeDegrees>
              <LongitudeDegrees>-3.7541489861905574798583984375</LongitudeDegrees>
            </Position>
            <AltitudeMeters>861.5999755859375</AltitudeMeters>
            <DistanceMeters>33336.209733087</DistanceMeters>
          </Trackpoint>
          <Trackpoint>
            <Time>2019-08-01T09:35:59.000Z</Time>
            <Position>
              <LatitudeDegrees>40.6653344817459583282470703125</LatitudeDegrees>
              <LongitudeDegrees>-3.7541607208549976348876953125</LongitudeDegrees>
            </Position>
            <AltitudeMeters>862.5999755859375</AltitudeMeters>
            <DistanceMeters>33359.218171355</DistanceMeters>
          </Trackpoint>
          <Trackpoint>
            <Time>2019-08-01T09:36:04.000Z</Time>
            <Position>
              <LatitudeDegrees>40.6654820032417774200439453125</LatitudeDegrees>
              <LongitudeDegrees>-3.754210509359836578369140625</LongitudeDegrees>
            </Position>
            <AltitudeMeters>863.79998779296875</AltitudeMeters>
            <DistanceMeters>33376.167058983</DistanceMeters>
          </Trackpoint>
          <Trackpoint>
            <Time>2019-08-01T09:36:10.000Z</Time>
            <Position>
              <LatitudeDegrees>40.66566221415996551513671875</LatitudeDegrees>
              <LongitudeDegrees>-3.7542971782386302947998046875</LongitudeDegrees>
            </Position>
            <AltitudeMeters>864.79998779296875</AltitudeMeters>
            <DistanceMeters>33397.517850984</DistanceMeters>
          </Trackpoint>
          <Trackpoint>
            <Time>2019-08-01T09:36:16.000Z</Time>
            <Position>
              <LatitudeDegrees>40.6658451072871685028076171875</LatitudeDegrees>
              <LongitudeDegrees>-3.75439214520156383514404296875</LongitudeDegrees>
            </Position>
            <AltitudeMeters>865.79998779296875</AltitudeMeters>
            <DistanceMeters>33419.396294533</DistanceMeters>
          </Trackpoint>
          <Trackpoint>
            <Time>2019-08-01T09:36:23.000Z</Time>
            <Position>
              <LatitudeDegrees>40.6660523079335689544677734375</LatitudeDegrees>
              <LongitudeDegrees>-3.75450882129371166229248046875</LongitudeDegrees>
            </Position>
            <AltitudeMeters>866.79998779296875</AltitudeMeters>
            <DistanceMeters>33444.473626602</DistanceMeters>
          </Trackpoint>
          <Trackpoint>
            <Time>2019-08-01T09:36:30.000Z</Time>
            <Position>
              <LatitudeDegrees>40.6662447564303874969482421875</LatitudeDegrees>
              <LongitudeDegrees>-3.754630945622920989990234375</LongitudeDegrees>
            </Position>
            <AltitudeMeters>868</AltitudeMeters>
            <DistanceMeters>33468.245884468</DistanceMeters>
          </Trackpoint>
          <Trackpoint>
            <Time>2019-08-01T09:36:47.000Z</Time>
            <Position>
              <LatitudeDegrees>40.66668723709881305694580078125</LatitudeDegrees>
              <LongitudeDegrees>-3.754958175122737884521484375</LongitudeDegrees>
            </Position>
            <AltitudeMeters>868.79998779296875</AltitudeMeters>
            <DistanceMeters>33524.714225188</DistanceMeters>
          </Trackpoint>
          <Trackpoint>
            <Time>2019-08-01T09:36:59.000Z</Time>
            <Position>
              <LatitudeDegrees>40.66699384711682796478271484375</LatitudeDegrees>
              <LongitudeDegrees>-3.75516478903591632843017578125</LongitudeDegrees>
            </Position>
            <AltitudeMeters>869.79998779296875</AltitudeMeters>
            <DistanceMeters>33563.04004357</DistanceMeters>
          </Trackpoint>
          <Trackpoint>
            <Time>2019-08-01T09:37:15.000Z</Time>
            <Position>
              <LatitudeDegrees>40.6673920713365077972412109375</LatitudeDegrees>
              <LongitudeDegrees>-3.75544792972505092620849609375</LongitudeDegrees>
            </Position>
            <AltitudeMeters>870.5999755859375</AltitudeMeters>
            <DistanceMeters>33613.398105764</DistanceMeters>
          </Trackpoint>
          <Trackpoint>
            <Time>2019-08-01T09:37:24.000Z</Time>
            <Position>
              <LatitudeDegrees>40.66758778877556324005126953125</LatitudeDegrees>
              <LongitudeDegrees>-3.75557030551135540008544921875</LongitudeDegrees>
            </Position>
            <AltitudeMeters>871.4000244140625</AltitudeMeters>
            <DistanceMeters>33637.507377645</DistanceMeters>
          </Trackpoint>
          <Trackpoint>
            <Time>2019-08-01T09:37:50.000Z</Time>
            <Position>
              <LatitudeDegrees>40.6680782139301300048828125</LatitudeDegrees>
              <LongitudeDegrees>-3.7558971159160137176513671875</LongitudeDegrees>
            </Position>
            <AltitudeMeters>872.20001220703125</AltitudeMeters>
            <DistanceMeters>33698.669157765</DistanceMeters>
          </Trackpoint>
          <Trackpoint>
            <Time>2019-08-01T09:38:07.000Z</Time>
            <Position>
              <LatitudeDegrees>40.6684029288589954376220703125</LatitudeDegrees>
              <LongitudeDegrees>-3.75603818334639072418212890625</LongitudeDegrees>
            </Position>
            <AltitudeMeters>872.20001220703125</AltitudeMeters>
            <DistanceMeters>33736.722225556</DistanceMeters>
          </Trackpoint>
          <Trackpoint>
            <Time>2019-08-01T09:38:34.000Z</Time>
            <Position>
              <LatitudeDegrees>40.66890902817249298095703125</LatitudeDegrees>
              <LongitudeDegrees>-3.756331466138362884521484375</LongitudeDegrees>
            </Position>
            <AltitudeMeters>871.20001220703125</AltitudeMeters>
            <DistanceMeters>33798.253472343</DistanceMeters>
          </Trackpoint>
          <Trackpoint>
            <Time>2019-08-01T09:39:01.000Z</Time>
            <Position>
              <LatitudeDegrees>40.66938017494976520538330078125</LatitudeDegrees>
              <LongitudeDegrees>-3.75669918023049831390380859375</LongitudeDegrees>
            </Position>
            <AltitudeMeters>872</AltitudeMeters>
            <DistanceMeters>33859.192497254</DistanceMeters>
          </Trackpoint>
          <Trackpoint>
            <Time>2019-08-01T09:39:14.000Z</Time>
            <Position>
              <LatitudeDegrees>40.6696105934679508209228515625</LatitudeDegrees>
              <LongitudeDegrees>-3.756871931254863739013671875</LongitudeDegrees>
            </Position>
            <AltitudeMeters>872.20001220703125</AltitudeMeters>
            <DistanceMeters>33888.695193206</DistanceMeters>
          </Trackpoint>
          <Trackpoint>
            <Time>2019-08-01T09:39:23.000Z</Time>
            <Position>
              <LatitudeDegrees>40.66977898590266704559326171875</LatitudeDegrees>
              <LongitudeDegrees>-3.75699640251696109771728515625</LongitudeDegrees>
            </Position>
            <AltitudeMeters>873</AltitudeMeters>
            <DistanceMeters>33910.182370278</DistanceMeters>
          </Trackpoint>
          <Trackpoint>
            <Time>2019-08-01T09:39:29.000Z</Time>
            <Position>
              <LatitudeDegrees>40.66989029757678508758544921875</LatitudeDegrees>
              <LongitudeDegrees>-3.75709011219441890716552734375</LongitudeDegrees>
            </Position>
            <AltitudeMeters>874.20001220703125</AltitudeMeters>
            <DistanceMeters>33924.881746766</DistanceMeters>
          </Trackpoint>
          <Trackpoint>
            <Time>2019-08-01T09:39:34.000Z</Time>
            <Position>
              <LatitudeDegrees>40.669996328651905059814453125</LatitudeDegrees>
              <LongitudeDegrees>-3.757168985903263092041015625</LongitudeDegrees>
            </Position>
            <AltitudeMeters>875</AltitudeMeters>
            <DistanceMeters>33938.431636591</DistanceMeters>
          </Trackpoint>
          <Trackpoint>
            <Time>2019-08-01T09:39:39.000Z</Time>
            <Position>
              <LatitudeDegrees>40.67011057399213314056396484375</LatitudeDegrees>
              <LongitudeDegrees>-3.7572543136775493621826171875</LongitudeDegrees>
            </Position>
            <AltitudeMeters>876.20001220703125</AltitudeMeters>
            <DistanceMeters>33953.045991453</DistanceMeters>
          </Trackpoint>
          <Trackpoint>
            <Time>2019-08-01T09:39:44.000Z</Time>
            <Position>
              <LatitudeDegrees>40.67022121511399745941162109375</LatitudeDegrees>
              <LongitudeDegrees>-3.7573418207466602325439453125</LongitudeDegrees>
            </Position>
            <AltitudeMeters>877.20001220703125</AltitudeMeters>
            <DistanceMeters>33967.40666295</DistanceMeters>
          </Trackpoint>
          <Trackpoint>
            <Time>2019-08-01T09:39:48.000Z</Time>
            <Position>
              <LatitudeDegrees>40.670314840972423553466796875</LatitudeDegrees>
              <LongitudeDegrees>-3.75741365365684032440185546875</LongitudeDegrees>
            </Position>
            <AltitudeMeters>878.5999755859375</AltitudeMeters>
            <DistanceMeters>33979.463077861</DistanceMeters>
          </Trackpoint>
          <Trackpoint>
            <Time>2019-08-01T09:39:53.000Z</Time>
            <Position>
              <LatitudeDegrees>40.67043629474937915802001953125</LatitudeDegrees>
              <LongitudeDegrees>-3.7575148232281208038330078125</LongitudeDegrees>
            </Position>
            <AltitudeMeters>879.5999755859375</AltitudeMeters>
            <DistanceMeters>33995.4529992</DistanceMeters>
          </Trackpoint>
          <Trackpoint>
            <Time>2019-08-01T09:39:59.000Z</Time>
            <Position>
              <LatitudeDegrees>40.6706090457737445831298828125</LatitudeDegrees>
              <LongitudeDegrees>-3.75764700584113597869873046875</LongitudeDegrees>
            </Position>
            <AltitudeMeters>880.5999755859375</AltitudeMeters>
            <DistanceMeters>34017.683970474</DistanceMeters>
          </Trackpoint>
          <Trackpoint>
            <Time>2019-08-01T09:40:05.000Z</Time>
            <Position>
              <LatitudeDegrees>40.67080157808959484100341796875</LatitudeDegrees>
              <LongitudeDegrees>-3.75778011046350002288818359375</LongitudeDegrees>
            </Position>
            <AltitudeMeters>881.79998779296875</AltitudeMeters>
            <DistanceMeters>34041.88054123</DistanceMeters>
          </Trackpoint>
          <Trackpoint>
            <Time>2019-08-01T09:40:11.000Z</Time>
            <Position>
              <LatitudeDegrees>40.67099981009960174560546875</LatitudeDegrees>
              <LongitudeDegrees>-3.75793970189988613128662109375</LongitudeDegrees>
            </Position>
            <AltitudeMeters>882.79998779296875</AltitudeMeters>
            <DistanceMeters>34067.732348857</DistanceMeters>
          </Trackpoint>
          <Trackpoint>
            <Time>2019-08-01T09:40:15.000Z</Time>
            <Position>
              <LatitudeDegrees>40.67113953642547130584716796875</LatitudeDegrees>
              <LongitudeDegrees>-3.75804732553660869598388671875</LongitudeDegrees>
            </Position>
            <AltitudeMeters>883.79998779296875</AltitudeMeters>
            <DistanceMeters>34085.74335844</DistanceMeters>
          </Trackpoint>
          <Trackpoint>
            <Time>2019-08-01T09:40:18.000Z</Time>
            <Position>
              <LatitudeDegrees>40.671248249709606170654296875</LatitudeDegrees>
              <LongitudeDegrees>-3.758129216730594635009765625</LongitudeDegrees>
            </Position>
            <AltitudeMeters>884.79998779296875</AltitudeMeters>
            <DistanceMeters>34099.678954014</DistanceMeters>
          </Trackpoint>
          <Trackpoint>
            <Time>2019-08-01T09:40:23.000Z</Time>
            <Position>
              <LatitudeDegrees>40.67143642343580722808837890625</LatitudeDegrees>
              <LongitudeDegrees>-3.758273385465145111083984375</LongitudeDegrees>
            </Position>
            <AltitudeMeters>886.20001220703125</AltitudeMeters>
            <DistanceMeters>34123.902380017</DistanceMeters>
          </Trackpoint>
          <Trackpoint>
            <Time>2019-08-01T09:40:27.000Z</Time>
            <Position>
              <LatitudeDegrees>40.67159383557736873626708984375</LatitudeDegrees>
              <LongitudeDegrees>-3.75839852727949619293212890625</LongitudeDegrees>
            </Position>
            <AltitudeMeters>887.5999755859375</AltitudeMeters>
            <DistanceMeters>34144.361170385</DistanceMeters>
          </Trackpoint>
          <Trackpoint>
            <Time>2019-08-01T09:40:31.000Z</Time>
            <Position>
              <LatitudeDegrees>40.6717590428888797760009765625</LatitudeDegrees>
              <LongitudeDegrees>-3.7585290335118770599365234375</LongitudeDegrees>
            </Position>
            <AltitudeMeters>888.79998779296875</AltitudeMeters>
            <DistanceMeters>34165.796804497</DistanceMeters>
          </Trackpoint>
          <Trackpoint>
            <Time>2019-08-01T09:40:35.000Z</Time>
            <Position>
              <LatitudeDegrees>40.67192911170423030853271484375</LatitudeDegrees>
              <LongitudeDegrees>-3.75865903683006763458251953125</LongitudeDegrees>
            </Position>
            <AltitudeMeters>889.5999755859375</AltitudeMeters>
            <DistanceMeters>34187.676898938</DistanceMeters>
          </Trackpoint>
          <Trackpoint>
            <Time>2019-08-01T09:40:39.000Z</Time>
            <Position>
              <LatitudeDegrees>40.672086775302886962890625</LatitudeDegrees>
              <LongitudeDegrees>-3.75877923332154750823974609375</LongitudeDegrees>
            </Position>
            <AltitudeMeters>890.79998779296875</AltitudeMeters>
            <DistanceMeters>34207.947458092</DistanceMeters>
          </Trackpoint>
          <Trackpoint>
            <Time>2019-08-01T09:40:43.000Z</Time>
            <Position>
              <LatitudeDegrees>40.67223438061773777008056640625</LatitudeDegrees>
              <LongitudeDegrees>-3.75889406539499759674072265625</LongitudeDegrees>
            </Position>
            <AltitudeMeters>892</AltitudeMeters>
            <DistanceMeters>34227.022991122</DistanceMeters>
          </Trackpoint>
          <Trackpoint>
            <Time>2019-08-01T09:40:48.000Z</Time>
            <Position>
              <LatitudeDegrees>40.67241744138300418853759765625</LatitudeDegrees>
              <LongitudeDegrees>-3.75903018750250339508056640625</LongitudeDegrees>
            </Position>
            <AltitudeMeters>893.20001220703125</AltitudeMeters>
            <DistanceMeters>34250.415009253</DistanceMeters>
          </Trackpoint>
          <Trackpoint>
            <Time>2019-08-01T09:40:53.000Z</Time>
            <Position>
              <LatitudeDegrees>40.67259212024509906768798828125</LatitudeDegrees>
              <LongitudeDegrees>-3.75915776006877422332763671875</LongitudeDegrees>
            </Position>
            <AltitudeMeters>894.20001220703125</AltitudeMeters>
            <DistanceMeters>34272.64029309</DistanceMeters>
          </Trackpoint>
          <Trackpoint>
            <Time>2019-08-01T09:40:56.000Z</Time>
            <Position>
              <LatitudeDegrees>40.672695972025394439697265625</LatitudeDegrees>
              <LongitudeDegrees>-3.759238310158252716064453125</LongitudeDegrees>
            </Position>
            <AltitudeMeters>895.4000244140625</AltitudeMeters>
            <DistanceMeters>34286.050848725</DistanceMeters>
          </Trackpoint>
          <Trackpoint>
            <Time>2019-08-01T09:40:59.000Z</Time>
            <Position>
              <LatitudeDegrees>40.6728081218898296356201171875</LatitudeDegrees>
              <LongitudeDegrees>-3.75932305119931697845458984375</LongitudeDegrees>
            </Position>
            <AltitudeMeters>896.4000244140625</AltitudeMeters>
            <DistanceMeters>34300.437905834</DistanceMeters>
          </Trackpoint>
          <Trackpoint>
            <Time>2019-08-01T09:41:03.000Z</Time>
            <Position>
              <LatitudeDegrees>40.67297114990651607513427734375</LatitudeDegrees>
              <LongitudeDegrees>-3.7594527192413806915283203125</LongitudeDegrees>
            </Position>
            <AltitudeMeters>897.4000244140625</AltitudeMeters>
            <DistanceMeters>34321.629076202</DistanceMeters>
          </Trackpoint>
          <Trackpoint>
            <Time>2019-08-01T09:41:06.000Z</Time>
            <Position>
              <LatitudeDegrees>40.6731041707098484039306640625</LatitudeDegrees>
              <LongitudeDegrees>-3.75954441726207733154296875</LongitudeDegrees>
            </Position>
            <AltitudeMeters>898.4000244140625</AltitudeMeters>
            <DistanceMeters>34338.335950921</DistanceMeters>
          </Trackpoint>
          <Trackpoint>
            <Time>2019-08-01T09:41:10.000Z</Time>
            <Position>
              <LatitudeDegrees>40.67326761782169342041015625</LatitudeDegrees>
              <LongitudeDegrees>-3.75966419465839862823486328125</LongitudeDegrees>
            </Position>
            <AltitudeMeters>899.5999755859375</AltitudeMeters>
            <DistanceMeters>34359.149187747</DistanceMeters>
          </Trackpoint>
          <Trackpoint>
            <Time>2019-08-01T09:41:13.000Z</Time>
            <Position>
              <LatitudeDegrees>40.67337566055357456207275390625</LatitudeDegrees>
              <LongitudeDegrees>-3.75975337810814380645751953125</LongitudeDegrees>
            </Position>
            <AltitudeMeters>900.79998779296875</AltitudeMeters>
            <DistanceMeters>34373.336520263</DistanceMeters>
          </Trackpoint>
          <Trackpoint>
            <Time>2019-08-01T09:41:18.000Z</Time>
            <Position>
              <LatitudeDegrees>40.67354413680732250213623046875</LatitudeDegrees>
              <LongitudeDegrees>-3.7598895840346813201904296875</LongitudeDegrees>
            </Position>
            <AltitudeMeters>902.20001220703125</AltitudeMeters>
            <DistanceMeters>34395.332690291</DistanceMeters>
          </Trackpoint>
          <Trackpoint>
            <Time>2019-08-01T09:41:23.000Z</Time>
            <Position>
              <LatitudeDegrees>40.673708505928516387939453125</LatitudeDegrees>
              <LongitudeDegrees>-3.7600176595151424407958984375</LongitudeDegrees>
            </Position>
            <AltitudeMeters>903.20001220703125</AltitudeMeters>
            <DistanceMeters>34416.583009413</DistanceMeters>
          </Trackpoint>
          <Trackpoint>
            <Time>2019-08-01T09:41:28.000Z</Time>
            <Position>
              <LatitudeDegrees>40.6738749705255031585693359375</LatitudeDegrees>
              <LongitudeDegrees>-3.76013307832181453704833984375</LongitudeDegrees>
            </Position>
            <AltitudeMeters>904.5999755859375</AltitudeMeters>
            <DistanceMeters>34437.516296771</DistanceMeters>
          </Trackpoint>
          <Trackpoint>
            <Time>2019-08-01T09:41:32.000Z</Time>
            <Position>
              <LatitudeDegrees>40.6740027107298374176025390625</LatitudeDegrees>
              <LongitudeDegrees>-3.76022628508508205413818359375</LongitudeDegrees>
            </Position>
            <AltitudeMeters>905.5999755859375</AltitudeMeters>
            <DistanceMeters>34453.76558707</DistanceMeters>
          </Trackpoint>
          <Trackpoint>
            <Time>2019-08-01T09:41:37.000Z</Time>
            <Position>
              <LatitudeDegrees>40.67415350116789340972900390625</LatitudeDegrees>
              <LongitudeDegrees>-3.76034111715853214263916015625</LongitudeDegrees>
            </Position>
            <AltitudeMeters>906.79998779296875</AltitudeMeters>
            <DistanceMeters>34473.147309905</DistanceMeters>
          </Trackpoint>
          <Trackpoint>
            <Time>2019-08-01T09:41:42.000Z</Time>
            <Position>
              <LatitudeDegrees>40.67430035211145877838134765625</LatitudeDegrees>
              <LongitudeDegrees>-3.76045167446136474609375</LongitudeDegrees>
            </Position>
            <AltitudeMeters>908.20001220703125</AltitudeMeters>
            <DistanceMeters>34491.968837444</DistanceMeters>
          </Trackpoint>
          <Trackpoint>
            <Time>2019-08-01T09:41:46.000Z</Time>
            <Position>
              <LatitudeDegrees>40.67441049031913280487060546875</LatitudeDegrees>
              <LongitudeDegrees>-3.76053624786436557769775390625</LongitudeDegrees>
            </Position>
            <AltitudeMeters>909.20001220703125</AltitudeMeters>
            <DistanceMeters>34506.154896926</DistanceMeters>
          </Trackpoint>
          <Trackpoint>
            <Time>2019-08-01T09:41:49.000Z</Time>
            <Position>
              <LatitudeDegrees>40.6744881905615329742431640625</LatitudeDegrees>
              <LongitudeDegrees>-3.76059827394783496856689453125</LongitudeDegrees>
            </Position>
            <AltitudeMeters>910.4000244140625</AltitudeMeters>
            <DistanceMeters>34516.264864051</DistanceMeters>
          </Trackpoint>
          <Trackpoint>
            <Time>2019-08-01T09:41:53.000Z</Time>
            <Position>
              <LatitudeDegrees>40.6745927967131137847900390625</LatitudeDegrees>
              <LongitudeDegrees>-3.76067957840859889984130859375</LongitudeDegrees>
            </Position>
            <AltitudeMeters>911.4000244140625</AltitudeMeters>
            <DistanceMeters>34529.780054997</DistanceMeters>
          </Trackpoint>
          <Trackpoint>
            <Time>2019-08-01T09:41:57.000Z</Time>
            <Position>
              <LatitudeDegrees>40.67470033653080463409423828125</LatitudeDegrees>
              <LongitudeDegrees>-3.7607693485915660858154296875</LongitudeDegrees>
            </Position>
            <AltitudeMeters>912.5999755859375</AltitudeMeters>
            <DistanceMeters>34543.946367817</DistanceMeters>
          </Trackpoint>
          <Trackpoint>
            <Time>2019-08-01T09:42:03.000Z</Time>
            <Position>
              <LatitudeDegrees>40.6748633645474910736083984375</LatitudeDegrees>
              <LongitudeDegrees>-3.76091578043997287750244140625</LongitudeDegrees>
            </Position>
            <AltitudeMeters>913.79998779296875</AltitudeMeters>
            <DistanceMeters>34565.901857807</DistanceMeters>
          </Trackpoint>
          <Trackpoint>
            <Time>2019-08-01T09:42:13.000Z</Time>
            <Position>
              <LatitudeDegrees>40.67509981803596019744873046875</LatitudeDegrees>
              <LongitudeDegrees>-3.76111686229705810546875</LongitudeDegrees>
            </Position>
            <AltitudeMeters>914.79998779296875</AltitudeMeters>
            <DistanceMeters>34597.218603207</DistanceMeters>
          </Trackpoint>
          <Trackpoint>
            <Time>2019-08-01T09:42:20.000Z</Time>
            <Position>
              <LatitudeDegrees>40.6752558052539825439453125</LatitudeDegrees>
              <LongitudeDegrees>-3.7612323649227619171142578125</LongitudeDegrees>
            </Position>
            <AltitudeMeters>916</AltitudeMeters>
            <DistanceMeters>34617.130725055</DistanceMeters>
          </Trackpoint>
          <Trackpoint>
            <Time>2019-08-01T09:42:26.000Z</Time>
            <Position>
              <LatitudeDegrees>40.67538044415414333343505859375</LatitudeDegrees>
              <LongitudeDegrees>-3.7613366357982158660888671875</LongitudeDegrees>
            </Position>
            <AltitudeMeters>917.20001220703125</AltitudeMeters>
            <DistanceMeters>34633.560181682</DistanceMeters>
          </Trackpoint>
          <Trackpoint>
            <Time>2019-08-01T09:42:34.000Z</Time>
            <Position>
              <LatitudeDegrees>40.67555017769336700439453125</LatitudeDegrees>
              <LongitudeDegrees>-3.76148927025496959686279296875</LongitudeDegrees>
            </Position>
            <AltitudeMeters>918.20001220703125</AltitudeMeters>
            <DistanceMeters>34656.427487311</DistanceMeters>
          </Trackpoint>
          <Trackpoint>
            <Time>2019-08-01T09:42:56.000Z</Time>
            <Position>
              <LatitudeDegrees>40.67600883543491363525390625</LatitudeDegrees>
              <LongitudeDegrees>-3.76191825605928897857666015625</LongitudeDegrees>
            </Position>
            <AltitudeMeters>919</AltitudeMeters>
            <DistanceMeters>34719.016268433</DistanceMeters>
          </Trackpoint>
          <Trackpoint>
            <Time>2019-08-01T09:43:11.000Z</Time>
            <Position>
              <LatitudeDegrees>40.67629926837980747222900390625</LatitudeDegrees>
              <LongitudeDegrees>-3.7622194178402423858642578125</LongitudeDegrees>
            </Position>
            <AltitudeMeters>919.4000244140625</AltitudeMeters>
            <DistanceMeters>34760.140773987</DistanceMeters>
          </Trackpoint>
          <Trackpoint>
            <Time>2019-08-01T09:43:34.000Z</Time>
            <Position>
              <LatitudeDegrees>40.67672121338546276092529296875</LatitudeDegrees>
              <LongitudeDegrees>-3.76268796622753143310546875</LongitudeDegrees>
            </Position>
            <AltitudeMeters>920</AltitudeMeters>
            <DistanceMeters>34821.539577748</DistanceMeters>
          </Trackpoint>
          <Trackpoint>
            <Time>2019-08-01T09:43:51.000Z</Time>
            <Position>
              <LatitudeDegrees>40.677042491734027862548828125</LatitudeDegrees>
              <LongitudeDegrees>-3.7630683369934558868408203125</LongitudeDegrees>
            </Position>
            <AltitudeMeters>918.20001220703125</AltitudeMeters>
            <DistanceMeters>34869.597735555</DistanceMeters>
          </Trackpoint>
          <Trackpoint>
            <Time>2019-08-01T09:43:58.000Z</Time>
            <Position>
              <LatitudeDegrees>40.6771988980472087860107421875</LatitudeDegrees>
              <LongitudeDegrees>-3.7632718496024608612060546875</LongitudeDegrees>
            </Position>
            <AltitudeMeters>917</AltitudeMeters>
            <DistanceMeters>34894.055071749</DistanceMeters>
          </Trackpoint>
          <Trackpoint>
            <Time>2019-08-01T09:44:15.000Z</Time>
            <Position>
              <LatitudeDegrees>40.67758806981146335601806640625</LatitudeDegrees>
              <LongitudeDegrees>-3.7637735903263092041015625</LongitudeDegrees>
            </Position>
            <AltitudeMeters>916.5999755859375</AltitudeMeters>
            <DistanceMeters>34954.635179771</DistanceMeters>
          </Trackpoint>
          <Trackpoint>
            <Time>2019-08-01T09:44:33.000Z</Time>
            <Position>
              <LatitudeDegrees>40.67796927876770496368408203125</LatitudeDegrees>
              <LongitudeDegrees>-3.76430961303412914276123046875</LongitudeDegrees>
            </Position>
            <AltitudeMeters>916.4000244140625</AltitudeMeters>
            <DistanceMeters>35016.662734779</DistanceMeters>
          </Trackpoint>
          <Trackpoint>
            <Time>2019-08-01T09:44:36.000Z</Time>
            <Position>
              <LatitudeDegrees>40.67802778445184230804443359375</LatitudeDegrees>
              <LongitudeDegrees>-3.7643943540751934051513671875</LongitudeDegrees>
            </Position>
            <AltitudeMeters>916</AltitudeMeters>
            <DistanceMeters>35026.335408765</DistanceMeters>
          </Trackpoint>
          <Trackpoint>
            <Time>2019-08-01T09:44:48.000Z</Time>
            <Position>
              <LatitudeDegrees>40.67825610749423503875732421875</LatitudeDegrees>
              <LongitudeDegrees>-3.76473407261073589324951171875</LongitudeDegrees>
            </Position>
            <AltitudeMeters>914.5999755859375</AltitudeMeters>
            <DistanceMeters>35064.651094431</DistanceMeters>
          </Trackpoint>
          <Trackpoint>
            <Time>2019-08-01T09:45:07.000Z</Time>
            <Position>
              <LatitudeDegrees>40.6785986758768558502197265625</LatitudeDegrees>
              <LongitudeDegrees>-3.76531963236629962921142578125</LongitudeDegrees>
            </Position>
            <AltitudeMeters>913.79998779296875</AltitudeMeters>
            <DistanceMeters>35127.075328573</DistanceMeters>
          </Trackpoint>
          <Trackpoint>
            <Time>2019-08-01T09:45:09.000Z</Time>
            <Position>
              <LatitudeDegrees>40.67863664589822292327880859375</LatitudeDegrees>
              <LongitudeDegrees>-3.76538048498332500457763671875</LongitudeDegrees>
            </Position>
            <AltitudeMeters>913.5999755859375</AltitudeMeters>
            <DistanceMeters>35133.727198579</DistanceMeters>
          </Trackpoint>
          <Trackpoint>
            <Time>2019-08-01T09:45:27.000Z</Time>
            <Position>
              <LatitudeDegrees>40.67894996143877506256103515625</LatitudeDegrees>
              <LongitudeDegrees>-3.76594676636159420013427734375</LongitudeDegrees>
            </Position>
            <AltitudeMeters>914.4000244140625</AltitudeMeters>
            <DistanceMeters>35192.895199022</DistanceMeters>
          </Trackpoint>
          <Trackpoint>
            <Time>2019-08-01T09:45:37.000Z</Time>
            <Position>
              <LatitudeDegrees>40.6791170127689838409423828125</LatitudeDegrees>
              <LongitudeDegrees>-3.76627634279429912567138671875</LongitudeDegrees>
            </Position>
            <AltitudeMeters>915.20001220703125</AltitudeMeters>
            <DistanceMeters>35226.355669102</DistanceMeters>
          </Trackpoint>
          <Trackpoint>
            <Time>2019-08-01T09:45:45.000Z</Time>
            <Position>
              <LatitudeDegrees>40.67924986593425273895263671875</LatitudeDegrees>
              <LongitudeDegrees>-3.76653081737458705902099609375</LongitudeDegrees>
            </Position>
            <AltitudeMeters>916.20001220703125</AltitudeMeters>
            <DistanceMeters>35252.433188096</DistanceMeters>
          </Trackpoint>
          <Trackpoint>
            <Time>2019-08-01T09:45:49.000Z</Time>
            <Position>
              <LatitudeDegrees>40.679307281970977783203125</LatitudeDegrees>
              <LongitudeDegrees>-3.76666040159761905670166015625</LongitudeDegrees>
            </Position>
            <AltitudeMeters>917.4000244140625</AltitudeMeters>
            <DistanceMeters>35265.101714002</DistanceMeters>
          </Trackpoint>
          <Trackpoint>
            <Time>2019-08-01T09:45:53.000Z</Time>
            <Position>
              <LatitudeDegrees>40.6793607585132122039794921875</LatitudeDegrees>
              <LongitudeDegrees>-3.7667905725538730621337890625</LongitudeDegrees>
            </Position>
            <AltitudeMeters>918.5999755859375</AltitudeMeters>
            <DistanceMeters>35277.597997927</DistanceMeters>
          </Trackpoint>
          <Trackpoint>
            <Time>2019-08-01T09:45:56.000Z</Time>
            <Position>
              <LatitudeDegrees>40.6794016622006893157958984375</LatitudeDegrees>
              <LongitudeDegrees>-3.766885958611965179443359375</LongitudeDegrees>
            </Position>
            <AltitudeMeters>919.79998779296875</AltitudeMeters>
            <DistanceMeters>35286.84737327</DistanceMeters>
          </Trackpoint>
          <Trackpoint>
            <Time>2019-08-01T09:45:59.000Z</Time>
            <Position>
              <LatitudeDegrees>40.67944264970719814300537109375</LatitudeDegrees>
              <LongitudeDegrees>-3.7669815123081207275390625</LongitudeDegrees>
            </Position>
            <AltitudeMeters>921</AltitudeMeters>
            <DistanceMeters>35296.113330686</DistanceMeters>
          </Trackpoint>
          <Trackpoint>
            <Time>2019-08-01T09:46:02.000Z</Time>
            <Position>
              <LatitudeDegrees>40.679481290280818939208984375</LatitudeDegrees>
              <LongitudeDegrees>-3.76707740128040313720703125</LongitudeDegrees>
            </Position>
            <AltitudeMeters>922</AltitudeMeters>
            <DistanceMeters>35305.2793457</DistanceMeters>
          </Trackpoint>
          <Trackpoint>
            <Time>2019-08-01T09:46:04.000Z</Time>
            <Position>
              <LatitudeDegrees>40.67950643599033355712890625</LatitudeDegrees>
              <LongitudeDegrees>-3.7671419419348239898681640625</LongitudeDegrees>
            </Position>
            <AltitudeMeters>923.20001220703125</AltitudeMeters>
            <DistanceMeters>35311.404700189</DistanceMeters>
          </Trackpoint>
          <Trackpoint>
            <Time>2019-08-01T09:46:07.000Z</Time>
            <Position>
              <LatitudeDegrees>40.67954524420201778411865234375</LatitudeDegrees>
              <LongitudeDegrees>-3.76723741181194782257080078125</LongitudeDegrees>
            </Position>
            <AltitudeMeters>924.20001220703125</AltitudeMeters>
            <DistanceMeters>35320.548028233</DistanceMeters>
          </Trackpoint>
          <Trackpoint>
            <Time>2019-08-01T09:46:10.000Z</Time>
            <Position>
              <LatitudeDegrees>40.6795843876898288726806640625</LatitudeDegrees>
              <LongitudeDegrees>-3.767333216965198516845703125</LongitudeDegrees>
            </Position>
            <AltitudeMeters>925.5999755859375</AltitudeMeters>
            <DistanceMeters>35329.733725501</DistanceMeters>
          </Trackpoint>
          <Trackpoint>
            <Time>2019-08-01T09:46:13.000Z</Time>
            <Position>
              <LatitudeDegrees>40.679623447358608245849609375</LatitudeDegrees>
              <LongitudeDegrees>-3.76743136905133724212646484375</LongitudeDegrees>
            </Position>
            <AltitudeMeters>927</AltitudeMeters>
            <DistanceMeters>35339.089876475</DistanceMeters>
          </Trackpoint>
          <Trackpoint>
            <Time>2019-08-01T09:46:16.000Z</Time>
            <Position>
              <LatitudeDegrees>40.6796594895422458648681640625</LatitudeDegrees>
              <LongitudeDegrees>-3.767529688775539398193359375</LongitudeDegrees>
            </Position>
            <AltitudeMeters>928</AltitudeMeters>
            <DistanceMeters>35348.307467769</DistanceMeters>
          </Trackpoint>
          <Trackpoint>
            <Time>2019-08-01T09:46:18.000Z</Time>
            <Position>
              <LatitudeDegrees>40.67968438379466533660888671875</LatitudeDegrees>
              <LongitudeDegrees>-3.76759414561092853546142578125</LongitudeDegrees>
            </Position>
            <AltitudeMeters>929.20001220703125</AltitudeMeters>
            <DistanceMeters>35354.412887947</DistanceMeters>
          </Trackpoint>
          <Trackpoint>
            <Time>2019-08-01T09:46:21.000Z</Time>
            <Position>
              <LatitudeDegrees>40.6797201745212078094482421875</LatitudeDegrees>
              <LongitudeDegrees>-3.7676961533725261688232421875</LongitudeDegrees>
            </Position>
            <AltitudeMeters>930.20001220703125</AltitudeMeters>
            <DistanceMeters>35363.89986702</DistanceMeters>
          </Trackpoint>
          <Trackpoint>
            <Time>2019-08-01T09:46:24.000Z</Time>
            <Position>
              <LatitudeDegrees>40.6797526963055133819580078125</LatitudeDegrees>
              <LongitudeDegrees>-3.7677997536957263946533203125</LongitudeDegrees>
            </Position>
            <AltitudeMeters>931.5999755859375</AltitudeMeters>
            <DistanceMeters>35373.363974386</DistanceMeters>
          </Trackpoint>
          <Trackpoint>
            <Time>2019-08-01T09:46:27.000Z</Time>
            <Position>
              <LatitudeDegrees>40.6797801889479160308837890625</LatitudeDegrees>
              <LongitudeDegrees>-3.76790075562894344329833984375</LongitudeDegrees>
            </Position>
            <AltitudeMeters>933</AltitudeMeters>
            <DistanceMeters>35382.42196945</DistanceMeters>
          </Trackpoint>
          <Trackpoint>
            <Time>2019-08-01T09:46:30.000Z</Time>
            <Position>
              <LatitudeDegrees>40.67979452200233936309814453125</LatitudeDegrees>
              <LongitudeDegrees>-3.7680049426853656768798828125</LongitudeDegrees>
            </Position>
            <AltitudeMeters>934.20001220703125</AltitudeMeters>
            <DistanceMeters>35391.360038945</DistanceMeters>
          </Trackpoint>
          <Trackpoint>
            <Time>2019-08-01T09:46:50.000Z</Time>
            <Position>
              <LatitudeDegrees>40.6795850582420825958251953125</LatitudeDegrees>
              <LongitudeDegrees>-3.76864607445895671844482421875</LongitudeDegrees>
            </Position>
            <AltitudeMeters>934.5999755859375</AltitudeMeters>
            <DistanceMeters>35450.284724546</DistanceMeters>
          </Trackpoint>
          <Trackpoint>
            <Time>2019-08-01T09:47:05.000Z</Time>
            <Position>
              <LatitudeDegrees>40.6792362034320831298828125</LatitudeDegrees>
              <LongitudeDegrees>-3.768972046673297882080078125</LongitudeDegrees>
            </Position>
            <AltitudeMeters>933.20001220703125</AltitudeMeters>
            <DistanceMeters>35497.873473129</DistanceMeters>
          </Trackpoint>
          <Trackpoint>
            <Time>2019-08-01T09:47:12.000Z</Time>
            <Position>
              <LatitudeDegrees>40.67917761392891407012939453125</LatitudeDegrees>
              <LongitudeDegrees>-3.76921788789331912994384765625</LongitudeDegrees>
            </Position>
            <AltitudeMeters>932</AltitudeMeters>
            <DistanceMeters>35519.624836884</DistanceMeters>
          </Trackpoint>
          <Trackpoint>
            <Time>2019-08-01T09:47:24.000Z</Time>
            <Position>
              <LatitudeDegrees>40.67930853925645351409912109375</LatitudeDegrees>
              <LongitudeDegrees>-3.76975919120013713836669921875</LongitudeDegrees>
            </Position>
            <AltitudeMeters>933.20001220703125</AltitudeMeters>
            <DistanceMeters>35567.582928281</DistanceMeters>
          </Trackpoint>
          <Trackpoint>
            <Time>2019-08-01T09:47:40.000Z</Time>
            <Position>
              <LatitudeDegrees>40.6796948611736297607421875</LatitudeDegrees>
              <LongitudeDegrees>-3.7701438367366790771484375</LongitudeDegrees>
            </Position>
            <AltitudeMeters>934.20001220703125</AltitudeMeters>
            <DistanceMeters>35621.462321143</DistanceMeters>
          </Trackpoint>
          <Trackpoint>
            <Time>2019-08-01T09:47:50.000Z</Time>
            <Position>
              <LatitudeDegrees>40.67993332631886005401611328125</LatitudeDegrees>
              <LongitudeDegrees>-3.7702806293964385986328125</LongitudeDegrees>
            </Position>
            <AltitudeMeters>935.4000244140625</AltitudeMeters>
            <DistanceMeters>35650.406653441</DistanceMeters>
          </Trackpoint>
          <Trackpoint>
            <Time>2019-08-01T09:47:58.000Z</Time>
            <Position>
              <LatitudeDegrees>40.68012812174856662750244140625</LatitudeDegrees>
              <LongitudeDegrees>-3.77033921889960765838623046875</LongitudeDegrees>
            </Position>
            <AltitudeMeters>936.5999755859375</AltitudeMeters>
            <DistanceMeters>35672.644528933</DistanceMeters>
          </Trackpoint>
          <Trackpoint>
            <Time>2019-08-01T09:48:04.000Z</Time>
            <Position>
              <LatitudeDegrees>40.6802827678620815277099609375</LatitudeDegrees>
              <LongitudeDegrees>-3.77038883976638317108154296875</LongitudeDegrees>
            </Position>
            <AltitudeMeters>937.5999755859375</AltitudeMeters>
            <DistanceMeters>35690.359302896</DistanceMeters>
          </Trackpoint>
          <Trackpoint>
            <Time>2019-08-01T09:48:10.000Z</Time>
            <Position>
              <LatitudeDegrees>40.680431462824344635009765625</LatitudeDegrees>
              <LongitudeDegrees>-3.7704393826425075531005859375</LongitudeDegrees>
            </Position>
            <AltitudeMeters>938.79998779296875</AltitudeMeters>
            <DistanceMeters>35707.45037989</DistanceMeters>
          </Trackpoint>
          <Trackpoint>
            <Time>2019-08-01T09:48:18.000Z</Time>
            <Position>
              <LatitudeDegrees>40.68060941062867641448974609375</LatitudeDegrees>
              <LongitudeDegrees>-3.7705614231526851654052734375</LongitudeDegrees>
            </Position>
            <AltitudeMeters>939.5999755859375</AltitudeMeters>
            <DistanceMeters>35729.774984682</DistanceMeters>
          </Trackpoint>
          <Trackpoint>
            <Time>2019-08-01T09:48:33.000Z</Time>
            <Position>
              <LatitudeDegrees>40.68083949387073516845703125</LatitudeDegrees>
              <LongitudeDegrees>-3.77093450166285037994384765625</LongitudeDegrees>
            </Position>
            <AltitudeMeters>940.79998779296875</AltitudeMeters>
            <DistanceMeters>35770.363518608</DistanceMeters>
          </Trackpoint>
          <Trackpoint>
            <Time>2019-08-01T09:48:37.000Z</Time>
            <Position>
              <LatitudeDegrees>40.68087645806372165679931640625</LatitudeDegrees>
              <LongitudeDegrees>-3.77104966901242733001708984375</LongitudeDegrees>
            </Position>
            <AltitudeMeters>941.79998779296875</AltitudeMeters>
            <DistanceMeters>35780.918758215</DistanceMeters>
          </Trackpoint>
          <Trackpoint>
            <Time>2019-08-01T09:48:41.000Z</Time>
            <Position>
              <LatitudeDegrees>40.6809152662754058837890625</LatitudeDegrees>
              <LongitudeDegrees>-3.7711665965616703033447265625</LongitudeDegrees>
            </Position>
            <AltitudeMeters>943.4000244140625</AltitudeMeters>
            <DistanceMeters>35791.692457794</DistanceMeters>
          </Trackpoint>
          <Trackpoint>
            <Time>2019-08-01T09:48:44.000Z</Time>
            <Position>
              <LatitudeDegrees>40.680943429470062255859375</LatitudeDegrees>
              <LongitudeDegrees>-3.77125435508787631988525390625</LongitudeDegrees>
            </Position>
            <AltitudeMeters>944.4000244140625</AltitudeMeters>
            <DistanceMeters>35799.736119753</DistanceMeters>
          </Trackpoint>
          <Trackpoint>
            <Time>2019-08-01T09:48:47.000Z</Time>
            <Position>
              <LatitudeDegrees>40.68097016774117946624755859375</LatitudeDegrees>
              <LongitudeDegrees>-3.7713389284908771514892578125</LongitudeDegrees>
            </Position>
            <AltitudeMeters>945.79998779296875</AltitudeMeters>
            <DistanceMeters>35807.470150162</DistanceMeters>
          </Trackpoint>
          <Trackpoint>
            <Time>2019-08-01T09:48:50.000Z</Time>
            <Position>
              <LatitudeDegrees>40.6809945590794086456298828125</LatitudeDegrees>
              <LongitudeDegrees>-3.771423585712909698486328125</LongitudeDegrees>
            </Position>
            <AltitudeMeters>947</AltitudeMeters>
            <DistanceMeters>35815.113748437</DistanceMeters>
          </Trackpoint>
          <Trackpoint>
            <Time>2019-08-01T09:48:52.000Z</Time>
            <Position>
              <LatitudeDegrees>40.68101115524768829345703125</LatitudeDegrees>
              <LongitudeDegrees>-3.7714807502925395965576171875</LongitudeDegrees>
            </Position>
            <AltitudeMeters>948.20001220703125</AltitudeMeters>
            <DistanceMeters>35820.280266217</DistanceMeters>
          </Trackpoint>
          <Trackpoint>
            <Time>2019-08-01T09:48:55.000Z</Time>
            <Position>
              <LatitudeDegrees>40.6810371391475200653076171875</LatitudeDegrees>
              <LongitudeDegrees>-3.7715638987720012664794921875</LongitudeDegrees>
            </Position>
            <AltitudeMeters>949.4000244140625</AltitudeMeters>
            <DistanceMeters>35827.871705334</DistanceMeters>
          </Trackpoint>
          <Trackpoint>
            <Time>2019-08-01T09:48:58.000Z</Time>
            <Position>
              <LatitudeDegrees>40.68106287159025669097900390625</LatitudeDegrees>
              <LongitudeDegrees>-3.77164679579436779022216796875</LongitudeDegrees>
            </Position>
            <AltitudeMeters>950.5999755859375</AltitudeMeters>
            <DistanceMeters>35835.432153991</DistanceMeters>
          </Trackpoint>
          <Trackpoint>
            <Time>2019-08-01T09:49:01.000Z</Time>
            <Position>
              <LatitudeDegrees>40.68108650855720043182373046875</LatitudeDegrees>
              <LongitudeDegrees>-3.77173296175897121429443359375</LongitudeDegrees>
            </Position>
            <AltitudeMeters>951.79998779296875</AltitudeMeters>
            <DistanceMeters>35843.166768166</DistanceMeters>
          </Trackpoint>
          <Trackpoint>
            <Time>2019-08-01T09:49:04.000Z</Time>
            <Position>
              <LatitudeDegrees>40.6811142526566982269287109375</LatitudeDegrees>
              <LongitudeDegrees>-3.771814517676830291748046875</LongitudeDegrees>
            </Position>
            <AltitudeMeters>952.79998779296875</AltitudeMeters>
            <DistanceMeters>35850.711673858</DistanceMeters>
          </Trackpoint>
          <Trackpoint>
            <Time>2019-08-01T09:49:07.000Z</Time>
            <Position>
              <LatitudeDegrees>40.68113864399492740631103515625</LatitudeDegrees>
              <LongitudeDegrees>-3.77189590595662593841552734375</LongitudeDegrees>
            </Position>
            <AltitudeMeters>953.79998779296875</AltitudeMeters>
            <DistanceMeters>35858.098129157</DistanceMeters>
          </Trackpoint>
          <Trackpoint>
            <Time>2019-08-01T09:49:11.000Z</Time>
            <Position>
              <LatitudeDegrees>40.6811658851802349090576171875</LatitudeDegrees>
              <LongitudeDegrees>-3.77200663089752197265625</LongitudeDegrees>
            </Position>
            <AltitudeMeters>955.20001220703125</AltitudeMeters>
            <DistanceMeters>35867.92317456</DistanceMeters>
          </Trackpoint>
          <Trackpoint>
            <Time>2019-08-01T09:49:16.000Z</Time>
            <Position>
              <LatitudeDegrees>40.6812158413231372833251953125</LatitudeDegrees>
              <LongitudeDegrees>-3.7721449322998523712158203125</LongitudeDegrees>
            </Position>
            <AltitudeMeters>956.4000244140625</AltitudeMeters>
            <DistanceMeters>35880.853094718</DistanceMeters>
          </Trackpoint>
          <Trackpoint>
            <Time>2019-08-01T09:49:22.000Z</Time>
            <Position>
              <LatitudeDegrees>40.6812597624957561492919921875</LatitudeDegrees>
              <LongitudeDegrees>-3.7723222933709621429443359375</LongitudeDegrees>
            </Position>
            <AltitudeMeters>957.5999755859375</AltitudeMeters>
            <DistanceMeters>35896.601174584</DistanceMeters>
          </Trackpoint>
          <Trackpoint>
            <Time>2019-08-01T09:49:27.000Z</Time>
            <Position>
              <LatitudeDegrees>40.6813020072877407073974609375</LatitudeDegrees>
              <LongitudeDegrees>-3.77244290895760059356689453125</LongitudeDegrees>
            </Position>
            <AltitudeMeters>958.79998779296875</AltitudeMeters>
            <DistanceMeters>35907.815132162</DistanceMeters>
          </Trackpoint>
          <Trackpoint>
            <Time>2019-08-01T09:49:34.000Z</Time>
            <Position>
              <LatitudeDegrees>40.6813482753932476043701171875</LatitudeDegrees>
              <LongitudeDegrees>-3.77259814180433750152587890625</LongitudeDegrees>
            </Position>
            <AltitudeMeters>959.79998779296875</AltitudeMeters>
            <DistanceMeters>35921.893204394</DistanceMeters>
          </Trackpoint>
          <Trackpoint>
            <Time>2019-08-01T09:49:41.000Z</Time>
            <Position>
              <LatitudeDegrees>40.6813935376703739166259765625</LatitudeDegrees>
              <LongitudeDegrees>-3.77274968661367893218994140625</LongitudeDegrees>
            </Position>
            <AltitudeMeters>961</AltitudeMeters>
            <DistanceMeters>35935.640913293</DistanceMeters>
          </Trackpoint>
          <Trackpoint>
            <Time>2019-08-01T09:49:55.000Z</Time>
            <Position>
              <LatitudeDegrees>40.681486241519451141357421875</LatitudeDegrees>
              <LongitudeDegrees>-3.77306417562067508697509765625</LongitudeDegrees>
            </Position>
            <AltitudeMeters>962</AltitudeMeters>
            <DistanceMeters>35964.120405322</DistanceMeters>
          </Trackpoint>
          <Trackpoint>
            <Time>2019-08-01T09:50:04.000Z</Time>
            <Position>
              <LatitudeDegrees>40.68153862841427326202392578125</LatitudeDegrees>
              <LongitudeDegrees>-3.77326634712517261505126953125</LongitudeDegrees>
            </Position>
            <AltitudeMeters>963.4000244140625</AltitudeMeters>
            <DistanceMeters>35982.153461438</DistanceMeters>
          </Trackpoint>
          <Trackpoint>
            <Time>2019-08-01T09:50:09.000Z</Time>
            <Position>
              <LatitudeDegrees>40.6815697252750396728515625</LatitudeDegrees>
              <LongitudeDegrees>-3.77338193356990814208984375</LongitudeDegrees>
            </Position>
            <AltitudeMeters>964.4000244140625</AltitudeMeters>
            <DistanceMeters>35992.505705023</DistanceMeters>
          </Trackpoint>
          <Trackpoint>
            <Time>2019-08-01T09:50:14.000Z</Time>
            <Position>
              <LatitudeDegrees>40.6816044263541698455810546875</LatitudeDegrees>
              <LongitudeDegrees>-3.77349835820496082305908203125</LongitudeDegrees>
            </Position>
            <AltitudeMeters>965.5999755859375</AltitudeMeters>
            <DistanceMeters>36003.064366102</DistanceMeters>
          </Trackpoint>
          <Trackpoint>
            <Time>2019-08-01T09:50:19.000Z</Time>
            <Position>
              <LatitudeDegrees>40.6816319189965724945068359375</LatitudeDegrees>
              <LongitudeDegrees>-3.773616962134838104248046875</LongitudeDegrees>
            </Position>
            <AltitudeMeters>966.5999755859375</AltitudeMeters>
            <DistanceMeters>36013.531980327</DistanceMeters>
          </Trackpoint>
          <Trackpoint>
            <Time>2019-08-01T09:50:24.000Z</Time>
            <Position>
              <LatitudeDegrees>40.6816580705344676971435546875</LatitudeDegrees>
              <LongitudeDegrees>-3.77372718416154384613037109375</LongitudeDegrees>
            </Position>
            <AltitudeMeters>967.5999755859375</AltitudeMeters>
            <DistanceMeters>36023.279979836</DistanceMeters>
          </Trackpoint>
          <Trackpoint>
            <Time>2019-08-01T09:50:30.000Z</Time>
            <Position>
              <LatitudeDegrees>40.68169302307069301605224609375</LatitudeDegrees>
              <LongitudeDegrees>-3.77385760657489299774169921875</LongitudeDegrees>
            </Position>
            <AltitudeMeters>968.79998779296875</AltitudeMeters>
            <DistanceMeters>36034.955511258</DistanceMeters>
          </Trackpoint>
          <Trackpoint>
            <Time>2019-08-01T09:50:37.000Z</Time>
            <Position>
              <LatitudeDegrees>40.68173426203429698944091796875</LatitudeDegrees>
              <LongitudeDegrees>-3.774015940725803375244140625</LongitudeDegrees>
            </Position>
            <AltitudeMeters>970</AltitudeMeters>
            <DistanceMeters>36049.085763211</DistanceMeters>
          </Trackpoint>
          <Trackpoint>
            <Time>2019-08-01T09:50:44.000Z</Time>
            <Position>
              <LatitudeDegrees>40.68176359869539737701416015625</LatitudeDegrees>
              <LongitudeDegrees>-3.77416907809674739837646484375</LongitudeDegrees>
            </Position>
            <AltitudeMeters>971.20001220703125</AltitudeMeters>
            <DistanceMeters>36062.417303429</DistanceMeters>
          </Trackpoint>
          <Trackpoint>
            <Time>2019-08-01T09:50:51.000Z</Time>
            <Position>
              <LatitudeDegrees>40.681810788810253143310546875</LatitudeDegrees>
              <LongitudeDegrees>-3.774318695068359375</LongitudeDegrees>
            </Position>
            <AltitudeMeters>972.20001220703125</AltitudeMeters>
            <DistanceMeters>36076.094879738</DistanceMeters>
          </Trackpoint>
          <Trackpoint>
            <Time>2019-08-01T09:50:57.000Z</Time>
            <Position>
              <LatitudeDegrees>40.681836605072021484375</LatitudeDegrees>
              <LongitudeDegrees>-3.774438388645648956298828125</LongitudeDegrees>
            </Position>
            <AltitudeMeters>973</AltitudeMeters>
            <DistanceMeters>36086.598233674</DistanceMeters>
          </Trackpoint>
          <Trackpoint>
            <Time>2019-08-01T09:51:06.000Z</Time>
            <Position>
              <LatitudeDegrees>40.68187239579856395721435546875</LatitudeDegrees>
              <LongitudeDegrees>-3.7746169231832027435302734375</LongitudeDegrees>
            </Position>
            <AltitudeMeters>972.5999755859375</AltitudeMeters>
            <DistanceMeters>36102.184932383</DistanceMeters>
          </Trackpoint>
          <Trackpoint>
            <Time>2019-08-01T09:51:10.000Z</Time>
            <Position>
              <LatitudeDegrees>40.68188287317752838134765625</LatitudeDegrees>
              <LongitudeDegrees>-3.774643577635288238525390625</LongitudeDegrees>
            </Position>
            <AltitudeMeters>972</AltitudeMeters>
            <DistanceMeters>36104.720561384</DistanceMeters>
          </Trackpoint>
          <Trackpoint>
            <Time>2019-08-01T09:55:46.000Z</Time>
            <Position>
              <LatitudeDegrees>40.6818987987935543060302734375</LatitudeDegrees>
              <LongitudeDegrees>-3.774685822427272796630859375</LongitudeDegrees>
            </Position>
            <AltitudeMeters>998.20001220703125</AltitudeMeters>
            <DistanceMeters>36108.70262294</DistanceMeters>
          </Trackpoint>
          <Trackpoint>
            <Time>2019-08-01T09:55:52.000Z</Time>
            <Position>
              <LatitudeDegrees>40.681977756321430206298828125</LatitudeDegrees>
              <LongitudeDegrees>-3.77482269890606403350830078125</LongitudeDegrees>
            </Position>
            <AltitudeMeters>997</AltitudeMeters>
            <DistanceMeters>36123.218089645</DistanceMeters>
          </Trackpoint>
          <Trackpoint>
            <Time>2019-08-01T09:55:59.000Z</Time>
            <Position>
              <LatitudeDegrees>40.6820795126259326934814453125</LatitudeDegrees>
              <LongitudeDegrees>-3.7751010619103908538818359375</LongitudeDegrees>
            </Position>
            <AltitudeMeters>996.20001220703125</AltitudeMeters>
            <DistanceMeters>36149.300456082</DistanceMeters>
          </Trackpoint>
          <Trackpoint>
            <Time>2019-08-01T09:56:10.000Z</Time>
            <Position>
              <LatitudeDegrees>40.68233993835747241973876953125</LatitudeDegrees>
              <LongitudeDegrees>-3.77577354200184345245361328125</LongitudeDegrees>
            </Position>
            <AltitudeMeters>996.4000244140625</AltitudeMeters>
            <DistanceMeters>36213.033563539</DistanceMeters>
          </Trackpoint>
          <Trackpoint>
            <Time>2019-08-01T09:56:21.000Z</Time>
            <Position>
              <LatitudeDegrees>40.6825567781925201416015625</LatitudeDegrees>
              <LongitudeDegrees>-3.776470161974430084228515625</LongitudeDegrees>
            </Position>
            <AltitudeMeters>997.4000244140625</AltitudeMeters>
            <DistanceMeters>36276.59173231</DistanceMeters>
          </Trackpoint>
          <Trackpoint>
            <Time>2019-08-01T09:56:23.000Z</Time>
            <Position>
              <LatitudeDegrees>40.68259634077548980712890625</LatitudeDegrees>
              <LongitudeDegrees>-3.77658893354237079620361328125</LongitudeDegrees>
            </Position>
            <AltitudeMeters>997.5999755859375</AltitudeMeters>
            <DistanceMeters>36287.541267686</DistanceMeters>
          </Trackpoint>
          <Trackpoint>
            <Time>2019-08-01T09:56:35.000Z</Time>
            <Position>
              <LatitudeDegrees>40.6828157790005207061767578125</LatitudeDegrees>
              <LongitudeDegrees>-3.77725579775869846343994140625</LongitudeDegrees>
            </Position>
            <AltitudeMeters>998.5999755859375</AltitudeMeters>
            <DistanceMeters>36348.897847116</DistanceMeters>
          </Trackpoint>
          <Trackpoint>
            <Time>2019-08-01T09:56:40.000Z</Time>
            <Position>
              <LatitudeDegrees>40.68290588445961475372314453125</LatitudeDegrees>
              <LongitudeDegrees>-3.77754229120910167694091796875</LongitudeDegrees>
            </Position>
            <AltitudeMeters>998.79998779296875</AltitudeMeters>
            <DistanceMeters>36375.076284073</DistanceMeters>
          </Trackpoint>
          <Trackpoint>
            <Time>2019-08-01T09:56:51.000Z</Time>
            <Position>
              <LatitudeDegrees>40.68310956470668315887451171875</LatitudeDegrees>
              <LongitudeDegrees>-3.77824167720973491668701171875</LongitudeDegrees>
            </Position>
            <AltitudeMeters>999.4000244140625</AltitudeMeters>
            <DistanceMeters>36438.310261566</DistanceMeters>
          </Trackpoint>
          <Trackpoint>
            <Time>2019-08-01T09:57:00.000Z</Time>
            <Position>
              <LatitudeDegrees>40.68330000154674053192138671875</LatitudeDegrees>
              <LongitudeDegrees>-3.778847269713878631591796875</LongitudeDegrees>
            </Position>
            <AltitudeMeters>1000.4000244140625</AltitudeMeters>
            <DistanceMeters>36493.64470166</DistanceMeters>
          </Trackpoint>
          <Trackpoint>
            <Time>2019-08-01T09:57:10.000Z</Time>
            <Position>
              <LatitudeDegrees>40.68351021967828273773193359375</LatitudeDegrees>
              <LongitudeDegrees>-3.77953316085040569305419921875</LongitudeDegrees>
            </Position>
            <AltitudeMeters>1001.20001220703125</AltitudeMeters>
            <DistanceMeters>36556.085424474</DistanceMeters>
          </Trackpoint>
          <Trackpoint>
            <Time>2019-08-01T09:57:20.000Z</Time>
            <Position>
              <LatitudeDegrees>40.683736614882946014404296875</LatitudeDegrees>
              <LongitudeDegrees>-3.7802589498460292816162109375</LongitudeDegrees>
            </Position>
            <AltitudeMeters>1001.4000244140625</AltitudeMeters>
            <DistanceMeters>36622.324020495</DistanceMeters>
          </Trackpoint>
          <Trackpoint>
            <Time>2019-08-01T09:57:26.000Z</Time>
            <Position>
              <LatitudeDegrees>40.68388539366424083709716796875</LatitudeDegrees>
              <LongitudeDegrees>-3.7807521410286426544189453125</LongitudeDegrees>
            </Position>
            <AltitudeMeters>1002</AltitudeMeters>
            <DistanceMeters>36667.123246046</DistanceMeters>
          </Trackpoint>
          <Trackpoint>
            <Time>2019-08-01T09:57:33.000Z</Time>
            <Position>
              <LatitudeDegrees>40.6840958632528781890869140625</LatitudeDegrees>
              <LongitudeDegrees>-3.78140752203762531280517578125</LongitudeDegrees>
            </Position>
            <AltitudeMeters>1002.20001220703125</AltitudeMeters>
            <DistanceMeters>36727.194562231</DistanceMeters>
          </Trackpoint>
          <Trackpoint>
            <Time>2019-08-01T09:57:40.000Z</Time>
            <Position>
              <LatitudeDegrees>40.68432946689426898956298828125</LatitudeDegrees>
              <LongitudeDegrees>-3.78215946257114410400390625</LongitudeDegrees>
            </Position>
            <AltitudeMeters>1002.4000244140625</AltitudeMeters>
            <DistanceMeters>36795.779233409</DistanceMeters>
          </Trackpoint>
          <Trackpoint>
            <Time>2019-08-01T09:57:46.000Z</Time>
            <Position>
              <LatitudeDegrees>40.684497691690921783447265625</LatitudeDegrees>
              <LongitudeDegrees>-3.78284183330833911895751953125</LongitudeDegrees>
            </Position>
            <AltitudeMeters>1002.4000244140625</AltitudeMeters>
            <DistanceMeters>36856.339513193</DistanceMeters>
          </Trackpoint>
          <Trackpoint>
            <Time>2019-08-01T09:57:52.000Z</Time>
            <Position>
              <LatitudeDegrees>40.6846212409436702728271484375</LatitudeDegrees>
              <LongitudeDegrees>-3.7835441529750823974609375</LongitudeDegrees>
            </Position>
            <AltitudeMeters>1002</AltitudeMeters>
            <DistanceMeters>36917.19045424</DistanceMeters>
          </Trackpoint>
          <Trackpoint>
            <Time>2019-08-01T09:57:54.000Z</Time>
            <Position>
              <LatitudeDegrees>40.68465686403214931488037109375</LatitudeDegrees>
              <LongitudeDegrees>-3.7837941013276576995849609375</LongitudeDegrees>
            </Position>
            <AltitudeMeters>1001.4000244140625</AltitudeMeters>
            <DistanceMeters>36938.655766969</DistanceMeters>
          </Trackpoint>
          <Trackpoint>
            <Time>2019-08-01T09:57:59.000Z</Time>
            <Position>
              <LatitudeDegrees>40.68470765836536884307861328125</LatitudeDegrees>
              <LongitudeDegrees>-3.78441629000008106231689453125</LongitudeDegrees>
            </Position>
            <AltitudeMeters>1000.5999755859375</AltitudeMeters>
            <DistanceMeters>36991.472671418</DistanceMeters>
          </Trackpoint>
          <Trackpoint>
            <Time>2019-08-01T09:58:03.000Z</Time>
            <Position>
              <LatitudeDegrees>40.68452619016170501708984375</LatitudeDegrees>
              <LongitudeDegrees>-3.78481484949588775634765625</LongitudeDegrees>
            </Position>
            <AltitudeMeters>999.20001220703125</AltitudeMeters>
            <DistanceMeters>37030.709614889</DistanceMeters>
          </Trackpoint>
          <Trackpoint>
            <Time>2019-08-01T09:58:05.000Z</Time>
            <Position>
              <LatitudeDegrees>40.68444061093032360076904296875</LatitudeDegrees>
              <LongitudeDegrees>-3.7850067950785160064697265625</LongitudeDegrees>
            </Position>
            <AltitudeMeters>998.4000244140625</AltitudeMeters>
            <DistanceMeters>37049.5030547</DistanceMeters>
          </Trackpoint>
          <Trackpoint>
            <Time>2019-08-01T09:58:07.000Z</Time>
            <Position>
              <LatitudeDegrees>40.68438939750194549560546875</LatitudeDegrees>
              <LongitudeDegrees>-3.78521475009620189666748046875</LongitudeDegrees>
            </Position>
            <AltitudeMeters>997.4000244140625</AltitudeMeters>
            <DistanceMeters>37067.956841381</DistanceMeters>
          </Trackpoint>
          <Trackpoint>
            <Time>2019-08-01T09:58:08.000Z</Time>
            <Position>
              <LatitudeDegrees>40.6843738071620464324951171875</LatitudeDegrees>
              <LongitudeDegrees>-3.78531902097165584564208984375</LongitudeDegrees>
            </Position>
            <AltitudeMeters>997</AltitudeMeters>
            <DistanceMeters>37076.926678677</DistanceMeters>
          </Trackpoint>
          <Trackpoint>
            <Time>2019-08-01T09:58:11.000Z</Time>
            <Position>
              <LatitudeDegrees>40.68430784158408641815185546875</LatitudeDegrees>
              <LongitudeDegrees>-3.785594366490840911865234375</LongitudeDegrees>
            </Position>
            <AltitudeMeters>996.20001220703125</AltitudeMeters>
            <DistanceMeters>37101.298391139</DistanceMeters>
          </Trackpoint>
          <Trackpoint>
            <Time>2019-08-01T09:58:13.000Z</Time>
            <Position>
              <LatitudeDegrees>40.68426677025854587554931640625</LatitudeDegrees>
              <LongitudeDegrees>-3.78574280999600887298583984375</LongitudeDegrees>
            </Position>
            <AltitudeMeters>995</AltitudeMeters>
            <DistanceMeters>37114.63501049</DistanceMeters>
          </Trackpoint>
          <Trackpoint>
            <Time>2019-08-01T09:58:16.000Z</Time>
            <Position>
              <LatitudeDegrees>40.68423709832131862640380859375</LatitudeDegrees>
              <LongitudeDegrees>-3.785947747528553009033203125</LongitudeDegrees>
            </Position>
            <AltitudeMeters>993.79998779296875</AltitudeMeters>
            <DistanceMeters>37132.244719607</DistanceMeters>
          </Trackpoint>
          <Trackpoint>
            <Time>2019-08-01T09:58:18.000Z</Time>
            <Position>
              <LatitudeDegrees>40.68423542194068431854248046875</LatitudeDegrees>
              <LongitudeDegrees>-3.7860696204006671905517578125</LongitudeDegrees>
            </Position>
            <AltitudeMeters>992.5999755859375</AltitudeMeters>
            <DistanceMeters>37142.532650691</DistanceMeters>
          </Trackpoint>
          <Trackpoint>
            <Time>2019-08-01T09:58:21.000Z</Time>
            <Position>
              <LatitudeDegrees>40.68423978053033351898193359375</LatitudeDegrees>
              <LongitudeDegrees>-3.7862389348447322845458984375</LongitudeDegrees>
            </Position>
            <AltitudeMeters>991.4000244140625</AltitudeMeters>
            <DistanceMeters>37156.831250649</DistanceMeters>
          </Trackpoint>
          <Trackpoint>
            <Time>2019-08-01T09:58:23.000Z</Time>
            <Position>
              <LatitudeDegrees>40.6842465698719024658203125</LatitudeDegrees>
              <LongitudeDegrees>-3.78635200671851634979248046875</LongitudeDegrees>
            </Position>
            <AltitudeMeters>990</AltitudeMeters>
            <DistanceMeters>37166.404455224</DistanceMeters>
          </Trackpoint>
          <Trackpoint>
            <Time>2019-08-01T09:58:25.000Z</Time>
            <Position>
              <LatitudeDegrees>40.68425537087023258209228515625</LatitudeDegrees>
              <LongitudeDegrees>-3.78646985627710819244384765625</LongitudeDegrees>
            </Position>
            <AltitudeMeters>988.79998779296875</AltitudeMeters>
            <DistanceMeters>37176.398989011</DistanceMeters>
          </Trackpoint>
          <Trackpoint>
            <Time>2019-08-01T09:58:27.000Z</Time>
            <Position>
              <LatitudeDegrees>40.6842628307640552520751953125</LatitudeDegrees>
              <LongitudeDegrees>-3.78658954985439777374267578125</LongitudeDegrees>
            </Position>
            <AltitudeMeters>987.5999755859375</AltitudeMeters>
            <DistanceMeters>37186.536161691</DistanceMeters>
          </Trackpoint>
          <Trackpoint>
            <Time>2019-08-01T09:58:29.000Z</Time>
            <Position>
              <LatitudeDegrees>40.68426811136305332183837890625</LatitudeDegrees>
              <LongitudeDegrees>-3.78670890815556049346923828125</LongitudeDegrees>
            </Position>
            <AltitudeMeters>986.4000244140625</AltitudeMeters>
            <DistanceMeters>37196.627801901</DistanceMeters>
          </Trackpoint>
          <Trackpoint>
            <Time>2019-08-01T09:58:31.000Z</Time>
            <Position>
              <LatitudeDegrees>40.68428319878876209259033203125</LatitudeDegrees>
              <LongitudeDegrees>-3.7868256680667400360107421875</LongitudeDegrees>
            </Position>
            <AltitudeMeters>985.4000244140625</AltitudeMeters>
            <DistanceMeters>37206.624594187</DistanceMeters>
          </Trackpoint>
          <Trackpoint>
            <Time>2019-08-01T09:58:32.000Z</Time>
            <Position>
              <LatitudeDegrees>40.68429929204285144805908203125</LatitudeDegrees>
              <LongitudeDegrees>-3.7868823297321796417236328125</LongitudeDegrees>
            </Position>
            <AltitudeMeters>985.20001220703125</AltitudeMeters>
            <DistanceMeters>37211.730456572</DistanceMeters>
          </Trackpoint>
          <Trackpoint>
            <Time>2019-08-01T09:58:36.000Z</Time>
            <Position>
              <LatitudeDegrees>40.68444061093032360076904296875</LatitudeDegrees>
              <LongitudeDegrees>-3.7870368920266628265380859375</LongitudeDegrees>
            </Position>
            <AltitudeMeters>983.79998779296875</AltitudeMeters>
            <DistanceMeters>37232.165398585</DistanceMeters>
          </Trackpoint>
          <Trackpoint>
            <Time>2019-08-01T09:58:37.000Z</Time>
            <Position>
              <LatitudeDegrees>40.68448788486421108245849609375</LatitudeDegrees>
              <LongitudeDegrees>-3.787054829299449920654296875</LongitudeDegrees>
            </Position>
            <AltitudeMeters>983.5999755859375</AltitudeMeters>
            <DistanceMeters>37237.640784762</DistanceMeters>
          </Trackpoint>
          <Trackpoint>
            <Time>2019-08-01T09:58:39.000Z</Time>
            <Position>
              <LatitudeDegrees>40.68458846770226955413818359375</LatitudeDegrees>
              <LongitudeDegrees>-3.78708223812282085418701171875</LongitudeDegrees>
            </Position>
            <AltitudeMeters>983</AltitudeMeters>
            <DistanceMeters>37249.072462955</DistanceMeters>
          </Trackpoint>
          <Trackpoint>
            <Time>2019-08-01T09:58:42.000Z</Time>
            <Position>
              <LatitudeDegrees>40.6847432814538478851318359375</LatitudeDegrees>
              <LongitudeDegrees>-3.78712020814418792724609375</LongitudeDegrees>
            </Position>
            <AltitudeMeters>981.5999755859375</AltitudeMeters>
            <DistanceMeters>37266.599160889</DistanceMeters>
          </Trackpoint>
          <Trackpoint>
            <Time>2019-08-01T09:58:43.000Z</Time>
            <Position>
              <LatitudeDegrees>40.68479667417705059051513671875</LatitudeDegrees>
              <LongitudeDegrees>-3.787131607532501220703125</LongitudeDegrees>
            </Position>
            <AltitudeMeters>981.20001220703125</AltitudeMeters>
            <DistanceMeters>37272.618936364</DistanceMeters>
          </Trackpoint>
          <Trackpoint>
            <Time>2019-08-01T09:58:46.000Z</Time>
            <Position>
              <LatitudeDegrees>40.68495308049023151397705078125</LatitudeDegrees>
              <LongitudeDegrees>-3.7870546616613864898681640625</LongitudeDegrees>
            </Position>
            <AltitudeMeters>980.5999755859375</AltitudeMeters>
            <DistanceMeters>37291.198785458</DistanceMeters>
          </Trackpoint>
          <Trackpoint>
            <Time>2019-08-01T09:58:49.000Z</Time>
            <Position>
              <LatitudeDegrees>40.685034804046154022216796875</LatitudeDegrees>
              <LongitudeDegrees>-3.78682340495288372039794921875</LongitudeDegrees>
            </Position>
            <AltitudeMeters>979.5999755859375</AltitudeMeters>
            <DistanceMeters>37312.73256022</DistanceMeters>
          </Trackpoint>
          <Trackpoint>
            <Time>2019-08-01T09:58:50.000Z</Time>
            <Position>
              <LatitudeDegrees>40.68505701608955860137939453125</LatitudeDegrees>
              <LongitudeDegrees>-3.7867441959679126739501953125</LongitudeDegrees>
            </Position>
            <AltitudeMeters>979.20001220703125</AltitudeMeters>
            <DistanceMeters>37319.860197281</DistanceMeters>
          </Trackpoint>
          <Trackpoint>
            <Time>2019-08-01T09:58:55.000Z</Time>
            <Position>
              <LatitudeDegrees>40.68516614846885204315185546875</LatitudeDegrees>
              <LongitudeDegrees>-3.78639592789113521575927734375</LongitudeDegrees>
            </Position>
            <AltitudeMeters>978</AltitudeMeters>
            <DistanceMeters>37351.665341887</DistanceMeters>
          </Trackpoint>
          <Trackpoint>
            <Time>2019-08-01T09:58:59.000Z</Time>
            <Position>
              <LatitudeDegrees>40.685259439051151275634765625</LatitudeDegrees>
              <LongitudeDegrees>-3.786187805235385894775390625</LongitudeDegrees>
            </Position>
            <AltitudeMeters>977</AltitudeMeters>
            <DistanceMeters>37372.070655529</DistanceMeters>
          </Trackpoint>
          <Trackpoint>
            <Time>2019-08-01T09:59:03.000Z</Time>
            <Position>
              <LatitudeDegrees>40.68537083454430103302001953125</LatitudeDegrees>
              <LongitudeDegrees>-3.78604036755859851837158203125</LongitudeDegrees>
            </Position>
            <AltitudeMeters>976</AltitudeMeters>
            <DistanceMeters>37389.636723449</DistanceMeters>
          </Trackpoint>
          <Trackpoint>
            <Time>2019-08-01T09:59:06.000Z</Time>
            <Position>
              <LatitudeDegrees>40.68546404130756855010986328125</LatitudeDegrees>
              <LongitudeDegrees>-3.7859526090323925018310546875</LongitudeDegrees>
            </Position>
            <AltitudeMeters>974.79998779296875</AltitudeMeters>
            <DistanceMeters>37402.38376999</DistanceMeters>
          </Trackpoint>
          <Trackpoint>
            <Time>2019-08-01T09:59:09.000Z</Time>
            <Position>
              <LatitudeDegrees>40.685562528669834136962890625</LatitudeDegrees>
              <LongitudeDegrees>-3.78588370978832244873046875</LongitudeDegrees>
            </Position>
            <AltitudeMeters>973.79998779296875</AltitudeMeters>
            <DistanceMeters>37414.792672582</DistanceMeters>
          </Trackpoint>
          <Trackpoint>
            <Time>2019-08-01T09:59:13.000Z</Time>
            <Position>
              <LatitudeDegrees>40.685695298016071319580078125</LatitudeDegrees>
              <LongitudeDegrees>-3.7858013994991779327392578125</LongitudeDegrees>
            </Position>
            <AltitudeMeters>973</AltitudeMeters>
            <DistanceMeters>37431.121237647</DistanceMeters>
          </Trackpoint>
          <Trackpoint>
            <Time>2019-08-01T09:59:16.000Z</Time>
            <Position>
              <LatitudeDegrees>40.68579529412090778350830078125</LatitudeDegrees>
              <LongitudeDegrees>-3.78574247471988201141357421875</LongitudeDegrees>
            </Position>
            <AltitudeMeters>971.79998779296875</AltitudeMeters>
            <DistanceMeters>37443.311354052</DistanceMeters>
          </Trackpoint>
          <Trackpoint>
            <Time>2019-08-01T09:59:21.000Z</Time>
            <Position>
              <LatitudeDegrees>40.68596846424043178558349609375</LatitudeDegrees>
              <LongitudeDegrees>-3.78564625047147274017333984375</LongitudeDegrees>
            </Position>
            <AltitudeMeters>970.79998779296875</AltitudeMeters>
            <DistanceMeters>37464.226515853</DistanceMeters>
          </Trackpoint>
          <Trackpoint>
            <Time>2019-08-01T09:59:27.000Z</Time>
            <Position>
              <LatitudeDegrees>40.68620659410953521728515625</LatitudeDegrees>
              <LongitudeDegrees>-3.78558875061571598052978515625</LongitudeDegrees>
            </Position>
            <AltitudeMeters>969.5999755859375</AltitudeMeters>
            <DistanceMeters>37491.17140732</DistanceMeters>
          </Trackpoint>
          <Trackpoint>
            <Time>2019-08-01T09:59:30.000Z</Time>
            <Position>
              <LatitudeDegrees>40.68633810617029666900634765625</LatitudeDegrees>
              <LongitudeDegrees>-3.78560065291821956634521484375</LongitudeDegrees>
            </Position>
            <AltitudeMeters>968.79998779296875</AltitudeMeters>
            <DistanceMeters>37505.843113501</DistanceMeters>
          </Trackpoint>
          <Trackpoint>
            <Time>2019-08-01T09:59:32.000Z</Time>
            <Position>
              <LatitudeDegrees>40.686421506106853485107421875</LatitudeDegrees>
              <LongitudeDegrees>-3.78562085330486297607421875</LongitudeDegrees>
            </Position>
            <AltitudeMeters>968.4000244140625</AltitudeMeters>
            <DistanceMeters>37515.280945564</DistanceMeters>
          </Trackpoint>
          <Trackpoint>
            <Time>2019-08-01T09:59:36.000Z</Time>
            <Position>
              <LatitudeDegrees>40.68659576587378978729248046875</LatitudeDegrees>
              <LongitudeDegrees>-3.78565982915461063385009765625</LongitudeDegrees>
            </Position>
            <AltitudeMeters>967.4000244140625</AltitudeMeters>
            <DistanceMeters>37534.953311618</DistanceMeters>
          </Trackpoint>
          <Trackpoint>
            <Time>2019-08-01T09:59:41.000Z</Time>
            <Position>
              <LatitudeDegrees>40.68682760931551456451416015625</LatitudeDegrees>
              <LongitudeDegrees>-3.78572504036128520965576171875</LongitudeDegrees>
            </Position>
            <AltitudeMeters>966.4000244140625</AltitudeMeters>
            <DistanceMeters>37561.338416193</DistanceMeters>
          </Trackpoint>
          <Trackpoint>
            <Time>2019-08-01T09:59:49.000Z</Time>
            <Position>
              <LatitudeDegrees>40.68722583353519439697265625</LatitudeDegrees>
              <LongitudeDegrees>-3.78583635203540325164794921875</LongitudeDegrees>
            </Position>
            <AltitudeMeters>965.4000244140625</AltitudeMeters>
            <DistanceMeters>37606.646232825</DistanceMeters>
          </Trackpoint>
          <Trackpoint>
            <Time>2019-08-01T09:59:55.000Z</Time>
            <Position>
              <LatitudeDegrees>40.68753001280128955841064453125</LatitudeDegrees>
              <LongitudeDegrees>-3.78591991961002349853515625</LongitudeDegrees>
            </Position>
            <AltitudeMeters>964.4000244140625</AltitudeMeters>
            <DistanceMeters>37641.228776894</DistanceMeters>
          </Trackpoint>
          <Trackpoint>
            <Time>2019-08-01T10:00:01.000Z</Time>
            <Position>
              <LatitudeDegrees>40.68783008493483066558837890625</LatitudeDegrees>
              <LongitudeDegrees>-3.78599359653890132904052734375</LongitudeDegrees>
            </Position>
            <AltitudeMeters>963.4000244140625</AltitudeMeters>
            <DistanceMeters>37675.20132567</DistanceMeters>
          </Trackpoint>
          <Trackpoint>
            <Time>2019-08-01T10:00:12.000Z</Time>
            <Position>
              <LatitudeDegrees>40.6883880682289600372314453125</LatitudeDegrees>
              <LongitudeDegrees>-3.786146901547908782958984375</LongitudeDegrees>
            </Position>
            <AltitudeMeters>962.4000244140625</AltitudeMeters>
            <DistanceMeters>37738.63939798</DistanceMeters>
          </Trackpoint>
          <Trackpoint>
            <Time>2019-08-01T10:00:13.000Z</Time>
            <Position>
              <LatitudeDegrees>40.68843911401927471160888671875</LatitudeDegrees>
              <LongitudeDegrees>-3.78616073168814182281494140625</LongitudeDegrees>
            </Position>
            <AltitudeMeters>962.4000244140625</AltitudeMeters>
            <DistanceMeters>37744.439920787</DistanceMeters>
          </Trackpoint>
          <Trackpoint>
            <Time>2019-08-01T10:00:24.000Z</Time>
            <Position>
              <LatitudeDegrees>40.6890049763023853302001953125</LatitudeDegrees>
              <LongitudeDegrees>-3.78631529398262500762939453125</LongitudeDegrees>
            </Position>
            <AltitudeMeters>961.4000244140625</AltitudeMeters>
            <DistanceMeters>37808.758126066</DistanceMeters>
          </Trackpoint>
          <Trackpoint>
            <Time>2019-08-01T10:00:35.000Z</Time>
            <Position>
              <LatitudeDegrees>40.68957285024225711822509765625</LatitudeDegrees>
              <LongitudeDegrees>-3.78646935336291790008544921875</LongitudeDegrees>
            </Position>
            <AltitudeMeters>960.4000244140625</AltitudeMeters>
            <DistanceMeters>37873.286932889</DistanceMeters>
          </Trackpoint>
          <Trackpoint>
            <Time>2019-08-01T10:00:45.000Z</Time>
            <Position>
              <LatitudeDegrees>40.6900964677333831787109375</LatitudeDegrees>
              <LongitudeDegrees>-3.78660765476524829864501953125</LongitudeDegrees>
            </Position>
            <AltitudeMeters>959.4000244140625</AltitudeMeters>
            <DistanceMeters>37932.723844875</DistanceMeters>
          </Trackpoint>
          <Trackpoint>
            <Time>2019-08-01T10:00:56.000Z</Time>
            <Position>
              <LatitudeDegrees>40.6906729750335216522216796875</LatitudeDegrees>
              <LongitudeDegrees>-3.7867693416774272918701171875</LongitudeDegrees>
            </Position>
            <AltitudeMeters>958.20001220703125</AltitudeMeters>
            <DistanceMeters>37998.325046932</DistanceMeters>
          </Trackpoint>
          <Trackpoint>
            <Time>2019-08-01T10:01:07.000Z</Time>
            <Position>
              <LatitudeDegrees>40.69122374989092350006103515625</LatitudeDegrees>
              <LongitudeDegrees>-3.7869379855692386627197265625</LongitudeDegrees>
            </Position>
            <AltitudeMeters>957.5999755859375</AltitudeMeters>
            <DistanceMeters>38061.257847187</DistanceMeters>
          </Trackpoint>
          <Trackpoint>
            <Time>2019-08-01T10:01:18.000Z</Time>
            <Position>
              <LatitudeDegrees>40.691753737628459930419921875</LatitudeDegrees>
              <LongitudeDegrees>-3.7871545739471912384033203125</LongitudeDegrees>
            </Position>
            <AltitudeMeters>957.4000244140625</AltitudeMeters>
            <DistanceMeters>38123.013514825</DistanceMeters>
          </Trackpoint>
          <Trackpoint>
            <Time>2019-08-01T10:01:30.000Z</Time>
            <Position>
              <LatitudeDegrees>40.69229797460138797760009765625</LatitudeDegrees>
              <LongitudeDegrees>-3.7873931229114532470703125</LongitudeDegrees>
            </Position>
            <AltitudeMeters>957.5999755859375</AltitudeMeters>
            <DistanceMeters>38186.845796024</DistanceMeters>
          </Trackpoint>
          <Trackpoint>
            <Time>2019-08-01T10:01:42.000Z</Time>
            <Position>
              <LatitudeDegrees>40.69282234646379947662353515625</LatitudeDegrees>
              <LongitudeDegrees>-3.78763192333281040191650390625</LongitudeDegrees>
            </Position>
            <AltitudeMeters>958.20001220703125</AltitudeMeters>
            <DistanceMeters>38248.590788487</DistanceMeters>
          </Trackpoint>
          <Trackpoint>
            <Time>2019-08-01T10:01:55.000Z</Time>
            <Position>
              <LatitudeDegrees>40.6933742947876453399658203125</LatitudeDegrees>
              <LongitudeDegrees>-3.78788589499890804290771484375</LongitudeDegrees>
            </Position>
            <AltitudeMeters>958.20001220703125</AltitudeMeters>
            <DistanceMeters>38313.655157212</DistanceMeters>
          </Trackpoint>
          <Trackpoint>
            <Time>2019-08-01T10:02:05.000Z</Time>
            <Position>
              <LatitudeDegrees>40.6938336230814456939697265625</LatitudeDegrees>
              <LongitudeDegrees>-3.7880557961761951446533203125</LongitudeDegrees>
            </Position>
            <AltitudeMeters>957.4000244140625</AltitudeMeters>
            <DistanceMeters>38366.751881277</DistanceMeters>
          </Trackpoint>
          <Trackpoint>
            <Time>2019-08-01T10:02:14.000Z</Time>
            <Position>
              <LatitudeDegrees>40.69423637352883815765380859375</LatitudeDegrees>
              <LongitudeDegrees>-3.78819954581558704376220703125</LongitudeDegrees>
            </Position>
            <AltitudeMeters>956.4000244140625</AltitudeMeters>
            <DistanceMeters>38413.191077832</DistanceMeters>
          </Trackpoint>
          <Trackpoint>
            <Time>2019-08-01T10:02:24.000Z</Time>
            <Position>
              <LatitudeDegrees>40.6943881697952747344970703125</LatitudeDegrees>
              <LongitudeDegrees>-3.7888148613274097442626953125</LongitudeDegrees>
            </Position>
            <AltitudeMeters>956.4000244140625</AltitudeMeters>
            <DistanceMeters>38467.796474103</DistanceMeters>
          </Trackpoint>
          <Trackpoint>
            <Time>2019-08-01T10:02:25.000Z</Time>
            <Position>
              <LatitudeDegrees>40.69436729885637760162353515625</LatitudeDegrees>
              <LongitudeDegrees>-3.78890127874910831451416015625</LongitudeDegrees>
            </Position>
            <AltitudeMeters>956.20001220703125</AltitudeMeters>
            <DistanceMeters>38475.450107612</DistanceMeters>
          </Trackpoint>
          <Trackpoint>
            <Time>2019-08-01T10:02:31.000Z</Time>
            <Position>
              <LatitudeDegrees>40.69423737935721874237060546875</LatitudeDegrees>
              <LongitudeDegrees>-3.78942020237445831298828125</LongitudeDegrees>
            </Position>
            <AltitudeMeters>955.79998779296875</AltitudeMeters>
            <DistanceMeters>38521.567346519</DistanceMeters>
          </Trackpoint>
          <Trackpoint>
            <Time>2019-08-01T10:02:35.000Z</Time>
            <Position>
              <LatitudeDegrees>40.69410025142133235931396484375</LatitudeDegrees>
              <LongitudeDegrees>-3.78974500112235546112060546875</LongitudeDegrees>
            </Position>
            <AltitudeMeters>955.20001220703125</AltitudeMeters>
            <DistanceMeters>38552.939837367</DistanceMeters>
          </Trackpoint>
          <Trackpoint>
            <Time>2019-08-01T10:02:41.000Z</Time>
            <Position>
              <LatitudeDegrees>40.69384192116558551788330078125</LatitudeDegrees>
              <LongitudeDegrees>-3.79016795195639133453369140625</LongitudeDegrees>
            </Position>
            <AltitudeMeters>954</AltitudeMeters>
            <DistanceMeters>38598.77296636</DistanceMeters>
          </Trackpoint>
          <Trackpoint>
            <Time>2019-08-01T10:02:43.000Z</Time>
            <Position>
              <LatitudeDegrees>40.69376866333186626434326171875</LatitudeDegrees>
              <LongitudeDegrees>-3.79032134078443050384521484375</LongitudeDegrees>
            </Position>
            <AltitudeMeters>953.4000244140625</AltitudeMeters>
            <DistanceMeters>38614.071677134</DistanceMeters>
          </Trackpoint>
          <Trackpoint>
            <Time>2019-08-01T10:02:45.000Z</Time>
            <Position>
              <LatitudeDegrees>40.6937201321125030517578125</LatitudeDegrees>
              <LongitudeDegrees>-3.7905066646635532379150390625</LongitudeDegrees>
            </Position>
            <AltitudeMeters>953</AltitudeMeters>
            <DistanceMeters>38630.617790201</DistanceMeters>
          </Trackpoint>
          <Trackpoint>
            <Time>2019-08-01T10:02:47.000Z</Time>
            <Position>
              <LatitudeDegrees>40.69371183402836322784423828125</LatitudeDegrees>
              <LongitudeDegrees>-3.79071260802447795867919921875</LongitudeDegrees>
            </Position>
            <AltitudeMeters>952.20001220703125</AltitudeMeters>
            <DistanceMeters>38648.021693618</DistanceMeters>
          </Trackpoint>
          <Trackpoint>
            <Time>2019-08-01T10:02:48.000Z</Time>
            <Position>
              <LatitudeDegrees>40.69371141493320465087890625</LatitudeDegrees>
              <LongitudeDegrees>-3.7908110953867435455322265625</LongitudeDegrees>
            </Position>
            <AltitudeMeters>951.79998779296875</AltitudeMeters>
            <DistanceMeters>38656.333136621</DistanceMeters>
          </Trackpoint>
          <Trackpoint>
            <Time>2019-08-01T10:02:49.000Z</Time>
            <Position>
              <LatitudeDegrees>40.69370462559163570404052734375</LatitudeDegrees>
              <LongitudeDegrees>-3.79090346395969390869140625</LongitudeDegrees>
            </Position>
            <AltitudeMeters>951.5999755859375</AltitudeMeters>
            <DistanceMeters>38664.164629404</DistanceMeters>
          </Trackpoint>
          <Trackpoint>
            <Time>2019-08-01T10:02:52.000Z</Time>
            <Position>
              <LatitudeDegrees>40.69361611269414424896240234375</LatitudeDegrees>
              <LongitudeDegrees>-3.7911433540284633636474609375</LongitudeDegrees>
            </Position>
            <AltitudeMeters>950.4000244140625</AltitudeMeters>
            <DistanceMeters>38686.678742334</DistanceMeters>
          </Trackpoint>
          <Trackpoint>
            <Time>2019-08-01T10:02:54.000Z</Time>
            <Position>
              <LatitudeDegrees>40.6935136020183563232421875</LatitudeDegrees>
              <LongitudeDegrees>-3.79126447252929210662841796875</LongitudeDegrees>
            </Position>
            <AltitudeMeters>950</AltitudeMeters>
            <DistanceMeters>38701.996919001</DistanceMeters>
          </Trackpoint>
          <Trackpoint>
            <Time>2019-08-01T10:02:57.000Z</Time>
            <Position>
              <LatitudeDegrees>40.6933655776083469390869140625</LatitudeDegrees>
              <LongitudeDegrees>-3.79142473451793193817138671875</LongitudeDegrees>
            </Position>
            <AltitudeMeters>949.4000244140625</AltitudeMeters>
            <DistanceMeters>38723.312578183</DistanceMeters>
          </Trackpoint>
          <Trackpoint>
            <Time>2019-08-01T10:03:00.000Z</Time>
            <Position>
              <LatitudeDegrees>40.69324831478297710418701171875</LatitudeDegrees>
              <LongitudeDegrees>-3.7915916182100772857666015625</LongitudeDegrees>
            </Position>
            <AltitudeMeters>948.5999755859375</AltitudeMeters>
            <DistanceMeters>38742.513618807</DistanceMeters>
          </Trackpoint>
          <Trackpoint>
            <Time>2019-08-01T10:03:01.000Z</Time>
            <Position>
              <LatitudeDegrees>40.6932207383215427398681640625</LatitudeDegrees>
              <LongitudeDegrees>-3.79165020771324634552001953125</LongitudeDegrees>
            </Position>
            <AltitudeMeters>948</AltitudeMeters>
            <DistanceMeters>38748.332792861</DistanceMeters>
          </Trackpoint>
          <Trackpoint>
            <Time>2019-08-01T10:03:05.000Z</Time>
            <Position>
              <LatitudeDegrees>40.6931707821786403656005859375</LatitudeDegrees>
              <LongitudeDegrees>-3.7918836437165737152099609375</LongitudeDegrees>
            </Position>
            <AltitudeMeters>947</AltitudeMeters>
            <DistanceMeters>38768.802173579</DistanceMeters>
          </Trackpoint>
          <Trackpoint>
            <Time>2019-08-01T10:03:09.000Z</Time>
            <Position>
              <LatitudeDegrees>40.693161226809024810791015625</LatitudeDegrees>
              <LongitudeDegrees>-3.7921299040317535400390625</LongitudeDegrees>
            </Position>
            <AltitudeMeters>945.5999755859375</AltitudeMeters>
            <DistanceMeters>38789.611288306</DistanceMeters>
          </Trackpoint>
          <Trackpoint>
            <Time>2019-08-01T10:03:13.000Z</Time>
            <Position>
              <LatitudeDegrees>40.69317019544541835784912109375</LatitudeDegrees>
              <LongitudeDegrees>-3.79240692593157291412353515625</LongitudeDegrees>
            </Position>
            <AltitudeMeters>944.4000244140625</AltitudeMeters>
            <DistanceMeters>38813.010446945</DistanceMeters>
          </Trackpoint>
          <Trackpoint>
            <Time>2019-08-01T10:03:17.000Z</Time>
            <Position>
              <LatitudeDegrees>40.693177320063114166259765625</LatitudeDegrees>
              <LongitudeDegrees>-3.7926950119435787200927734375</LongitudeDegrees>
            </Position>
            <AltitudeMeters>943.20001220703125</AltitudeMeters>
            <DistanceMeters>38837.335058533</DistanceMeters>
          </Trackpoint>
          <Trackpoint>
            <Time>2019-08-01T10:03:21.000Z</Time>
            <Position>
              <LatitudeDegrees>40.6931915692985057830810546875</LatitudeDegrees>
              <LongitudeDegrees>-3.792987875640392303466796875</LongitudeDegrees>
            </Position>
            <AltitudeMeters>942</AltitudeMeters>
            <DistanceMeters>38862.100777829</DistanceMeters>
          </Trackpoint>
          <Trackpoint>
            <Time>2019-08-01T10:03:25.000Z</Time>
            <Position>
              <LatitudeDegrees>40.693218223750591278076171875</LatitudeDegrees>
              <LongitudeDegrees>-3.7932867743074893951416015625</LongitudeDegrees>
            </Position>
            <AltitudeMeters>941</AltitudeMeters>
            <DistanceMeters>38887.498878364</DistanceMeters>
          </Trackpoint>
          <Trackpoint>
            <Time>2019-08-01T10:03:29.000Z</Time>
            <Position>
              <LatitudeDegrees>40.69324328564107418060302734375</LatitudeDegrees>
              <LongitudeDegrees>-3.79357335157692432403564453125</LongitudeDegrees>
            </Position>
            <AltitudeMeters>939.5999755859375</AltitudeMeters>
            <DistanceMeters>38911.843528231</DistanceMeters>
          </Trackpoint>
          <Trackpoint>
            <Time>2019-08-01T10:03:34.000Z</Time>
            <Position>
              <LatitudeDegrees>40.6932616420090198516845703125</LatitudeDegrees>
              <LongitudeDegrees>-3.7939157523214817047119140625</LongitudeDegrees>
            </Position>
            <AltitudeMeters>938.4000244140625</AltitudeMeters>
            <DistanceMeters>38940.81093791</DistanceMeters>
          </Trackpoint>
          <Trackpoint>
            <Time>2019-08-01T10:03:39.000Z</Time>
            <Position>
              <LatitudeDegrees>40.69326105527579784393310546875</LatitudeDegrees>
              <LongitudeDegrees>-3.794243820011615753173828125</LongitudeDegrees>
            </Position>
            <AltitudeMeters>937.20001220703125</AltitudeMeters>
            <DistanceMeters>38968.496673927</DistanceMeters>
          </Trackpoint>
          <Trackpoint>
            <Time>2019-08-01T10:03:42.000Z</Time>
            <Position>
              <LatitudeDegrees>40.69324077107012271881103515625</LatitudeDegrees>
              <LongitudeDegrees>-3.7944186665117740631103515625</LongitudeDegrees>
            </Position>
            <AltitudeMeters>936</AltitudeMeters>
            <DistanceMeters>38983.423734463</DistanceMeters>
          </Trackpoint>
          <Trackpoint>
            <Time>2019-08-01T10:03:45.000Z</Time>
            <Position>
              <LatitudeDegrees>40.6932150386273860931396484375</LatitudeDegrees>
              <LongitudeDegrees>-3.7945769168436527252197265625</LongitudeDegrees>
            </Position>
            <AltitudeMeters>934.79998779296875</AltitudeMeters>
            <DistanceMeters>38997.082481819</DistanceMeters>
          </Trackpoint>
          <Trackpoint>
            <Time>2019-08-01T10:03:49.000Z</Time>
            <Position>
              <LatitudeDegrees>40.6931595504283905029296875</LatitudeDegrees>
              <LongitudeDegrees>-3.79476877860724925994873046875</LongitudeDegrees>
            </Position>
            <AltitudeMeters>933.5999755859375</AltitudeMeters>
            <DistanceMeters>39014.411769808</DistanceMeters>
          </Trackpoint>
          <Trackpoint>
            <Time>2019-08-01T10:03:54.000Z</Time>
            <Position>
              <LatitudeDegrees>40.693072043359279632568359375</LatitudeDegrees>
              <LongitudeDegrees>-3.794998861849308013916015625</LongitudeDegrees>
            </Position>
            <AltitudeMeters>932.20001220703125</AltitudeMeters>
            <DistanceMeters>39036.134469333</DistanceMeters>
          </Trackpoint>
          <Trackpoint>
            <Time>2019-08-01T10:03:59.000Z</Time>
            <Position>
              <LatitudeDegrees>40.6929838657379150390625</LatitudeDegrees>
              <LongitudeDegrees>-3.79523581825196743011474609375</LongitudeDegrees>
            </Position>
            <AltitudeMeters>931</AltitudeMeters>
            <DistanceMeters>39058.409874392</DistanceMeters>
          </Trackpoint>
          <Trackpoint>
            <Time>2019-08-01T10:04:03.000Z</Time>
            <Position>
              <LatitudeDegrees>40.6929012201726436614990234375</LatitudeDegrees>
              <LongitudeDegrees>-3.79542591981589794158935546875</LongitudeDegrees>
            </Position>
            <AltitudeMeters>929.79998779296875</AltitudeMeters>
            <DistanceMeters>39076.902766407</DistanceMeters>
          </Trackpoint>
          <Trackpoint>
            <Time>2019-08-01T10:04:04.000Z</Time>
            <Position>
              <LatitudeDegrees>40.69287816993892192840576171875</LatitudeDegrees>
              <LongitudeDegrees>-3.79547126591205596923828125</LongitudeDegrees>
            </Position>
            <AltitudeMeters>929.5999755859375</AltitudeMeters>
            <DistanceMeters>39081.51033732</DistanceMeters>
          </Trackpoint>
          <Trackpoint>
            <Time>2019-08-01T10:04:12.000Z</Time>
            <Position>
              <LatitudeDegrees>40.69268303923308849334716796875</LatitudeDegrees>
              <LongitudeDegrees>-3.79579715430736541748046875</LongitudeDegrees>
            </Position>
            <AltitudeMeters>928.5999755859375</AltitudeMeters>
            <DistanceMeters>39116.553942672</DistanceMeters>
          </Trackpoint>
          <Trackpoint>
            <Time>2019-08-01T10:04:23.000Z</Time>
            <Position>
              <LatitudeDegrees>40.69243468344211578369140625</LatitudeDegrees>
              <LongitudeDegrees>-3.79623494111001491546630859375</LongitudeDegrees>
            </Position>
            <AltitudeMeters>927.5999755859375</AltitudeMeters>
            <DistanceMeters>39162.695650958</DistanceMeters>
          </Trackpoint>
          <Trackpoint>
            <Time>2019-08-01T10:04:36.000Z</Time>
            <Position>
              <LatitudeDegrees>40.6921800412237644195556640625</LatitudeDegrees>
              <LongitudeDegrees>-3.79686106927692890167236328125</LongitudeDegrees>
            </Position>
            <AltitudeMeters>926.4000244140625</AltitudeMeters>
            <DistanceMeters>39222.656830035</DistanceMeters>
          </Trackpoint>
          <Trackpoint>
            <Time>2019-08-01T10:04:50.000Z</Time>
            <Position>
              <LatitudeDegrees>40.69183646701276302337646484375</LatitudeDegrees>
              <LongitudeDegrees>-3.79742123186588287353515625</LongitudeDegrees>
            </Position>
            <AltitudeMeters>927</AltitudeMeters>
            <DistanceMeters>39283.460636888</DistanceMeters>
          </Trackpoint>
          <Trackpoint>
            <Time>2019-08-01T10:04:56.000Z</Time>
            <Position>
              <LatitudeDegrees>40.691675283014774322509765625</LatitudeDegrees>
              <LongitudeDegrees>-3.79768677055835723876953125</LongitudeDegrees>
            </Position>
            <AltitudeMeters>926.4000244140625</AltitudeMeters>
            <DistanceMeters>39312.166727285</DistanceMeters>
          </Trackpoint>
          <Trackpoint>
            <Time>2019-08-01T10:05:00.000Z</Time>
            <Position>
              <LatitudeDegrees>40.69161334075033664703369140625</LatitudeDegrees>
              <LongitudeDegrees>-3.79793889820575714111328125</LongitudeDegrees>
            </Position>
            <AltitudeMeters>926.20001220703125</AltitudeMeters>
            <DistanceMeters>39334.533561327</DistanceMeters>
          </Trackpoint>
          <Trackpoint>
            <Time>2019-08-01T10:05:02.000Z</Time>
            <Position>
              <LatitudeDegrees>40.69160328246653079986572265625</LatitudeDegrees>
              <LongitudeDegrees>-3.798092119395732879638671875</LongitudeDegrees>
            </Position>
            <AltitudeMeters>926.20001220703125</AltitudeMeters>
            <DistanceMeters>39347.512972182</DistanceMeters>
          </Trackpoint>
          <Trackpoint>
            <Time>2019-08-01T10:05:10.000Z</Time>
            <Position>
              <LatitudeDegrees>40.69156304933130741119384765625</LatitudeDegrees>
              <LongitudeDegrees>-3.79885084927082061767578125</LongitudeDegrees>
            </Position>
            <AltitudeMeters>925.5999755859375</AltitudeMeters>
            <DistanceMeters>39411.700545888</DistanceMeters>
          </Trackpoint>
          <Trackpoint>
            <Time>2019-08-01T10:05:17.000Z</Time>
            <Position>
              <LatitudeDegrees>40.69151493720710277557373046875</LatitudeDegrees>
              <LongitudeDegrees>-3.799596838653087615966796875</LongitudeDegrees>
            </Position>
            <AltitudeMeters>926.79998779296875</AltitudeMeters>
            <DistanceMeters>39474.883879017</DistanceMeters>
          </Trackpoint>
          <Trackpoint>
            <Time>2019-08-01T10:05:19.000Z</Time>
            <Position>
              <LatitudeDegrees>40.69149314425885677337646484375</LatitudeDegrees>
              <LongitudeDegrees>-3.7997820787131786346435546875</LongitudeDegrees>
            </Position>
            <AltitudeMeters>927</AltitudeMeters>
            <DistanceMeters>39490.703472519</DistanceMeters>
          </Trackpoint>
          <Trackpoint>
            <Time>2019-08-01T10:05:24.000Z</Time>
            <Position>
              <LatitudeDegrees>40.69145022891461849212646484375</LatitudeDegrees>
              <LongitudeDegrees>-3.80019061267375946044921875</LongitudeDegrees>
            </Position>
            <AltitudeMeters>928</AltitudeMeters>
            <DistanceMeters>39525.509982196</DistanceMeters>
          </Trackpoint>
          <Trackpoint>
            <Time>2019-08-01T10:05:32.000Z</Time>
            <Position>
              <LatitudeDegrees>40.6914246641099452972412109375</LatitudeDegrees>
              <LongitudeDegrees>-3.80094473250210285186767578125</LongitudeDegrees>
            </Position>
            <AltitudeMeters>928.4000244140625</AltitudeMeters>
            <DistanceMeters>39589.215738424</DistanceMeters>
          </Trackpoint>
          <Trackpoint>
            <Time>2019-08-01T10:05:36.000Z</Time>
            <Position>
              <LatitudeDegrees>40.69142483174800872802734375</LatitudeDegrees>
              <LongitudeDegrees>-3.80139433778822422027587890625</LongitudeDegrees>
            </Position>
            <AltitudeMeters>929</AltitudeMeters>
            <DistanceMeters>39627.159133208</DistanceMeters>
          </Trackpoint>
          <Trackpoint>
            <Time>2019-08-01T10:05:42.000Z</Time>
            <Position>
              <LatitudeDegrees>40.69149515591561794281005859375</LatitudeDegrees>
              <LongitudeDegrees>-3.80209741182625293731689453125</LongitudeDegrees>
            </Position>
            <AltitudeMeters>929.20001220703125</AltitudeMeters>
            <DistanceMeters>39687.007407551</DistanceMeters>
          </Trackpoint>
          <Trackpoint>
            <Time>2019-08-01T10:05:47.000Z</Time>
            <Position>
              <LatitudeDegrees>40.69162331521511077880859375</LatitudeDegrees>
              <LongitudeDegrees>-3.80263586528599262237548828125</LongitudeDegrees>
            </Position>
            <AltitudeMeters>930.20001220703125</AltitudeMeters>
            <DistanceMeters>39734.635039479</DistanceMeters>
          </Trackpoint>
          <Trackpoint>
            <Time>2019-08-01T10:05:50.000Z</Time>
            <Position>
              <LatitudeDegrees>40.691695399582386016845703125</LatitudeDegrees>
              <LongitudeDegrees>-3.80294683389365673065185546875</LongitudeDegrees>
            </Position>
            <AltitudeMeters>931.20001220703125</AltitudeMeters>
            <DistanceMeters>39762.077366005</DistanceMeters>
          </Trackpoint>
          <Trackpoint>
            <Time>2019-08-01T10:05:54.000Z</Time>
            <Position>
              <LatitudeDegrees>40.6917837448418140411376953125</LatitudeDegrees>
              <LongitudeDegrees>-3.80335293710231781005859375</LongitudeDegrees>
            </Position>
            <AltitudeMeters>932.4000244140625</AltitudeMeters>
            <DistanceMeters>39797.73201734</DistanceMeters>
          </Trackpoint>
          <Trackpoint>
            <Time>2019-08-01T10:05:57.000Z</Time>
            <Position>
              <LatitudeDegrees>40.69184049032628536224365234375</LatitudeDegrees>
              <LongitudeDegrees>-3.80366147495806217193603515625</LongitudeDegrees>
            </Position>
            <AltitudeMeters>933.4000244140625</AltitudeMeters>
            <DistanceMeters>39824.52516977</DistanceMeters>
          </Trackpoint>
          <Trackpoint>
            <Time>2019-08-01T10:06:01.000Z</Time>
            <Position>
              <LatitudeDegrees>40.69196018390357494354248046875</LatitudeDegrees>
              <LongitudeDegrees>-3.80407956428825855255126953125</LongitudeDegrees>
            </Position>
            <AltitudeMeters>934.5999755859375</AltitudeMeters>
            <DistanceMeters>39862.240002547</DistanceMeters>
          </Trackpoint>
          <Trackpoint>
            <Time>2019-08-01T10:06:04.000Z</Time>
            <Position>
              <LatitudeDegrees>40.69207032211124897003173828125</LatitudeDegrees>
              <LongitudeDegrees>-3.804372511804103851318359375</LongitudeDegrees>
            </Position>
            <AltitudeMeters>936</AltitudeMeters>
            <DistanceMeters>39889.834752522</DistanceMeters>
          </Trackpoint>
          <Trackpoint>
            <Time>2019-08-01T10:06:07.000Z</Time>
            <Position>
              <LatitudeDegrees>40.69219655357301235198974609375</LatitudeDegrees>
              <LongitudeDegrees>-3.80462254397571086883544921875</LongitudeDegrees>
            </Position>
            <AltitudeMeters>937.20001220703125</AltitudeMeters>
            <DistanceMeters>39915.184987634</DistanceMeters>
          </Trackpoint>
          <Trackpoint>
            <Time>2019-08-01T10:06:10.000Z</Time>
            <Position>
              <LatitudeDegrees>40.69232312031090259552001953125</LatitudeDegrees>
              <LongitudeDegrees>-3.80484516732394695281982421875</LongitudeDegrees>
            </Position>
            <AltitudeMeters>938.20001220703125</AltitudeMeters>
            <DistanceMeters>39938.667355872</DistanceMeters>
          </Trackpoint>
          <Trackpoint>
            <Time>2019-08-01T10:06:14.000Z</Time>
            <Position>
              <LatitudeDegrees>40.69247516803443431854248046875</LatitudeDegrees>
              <LongitudeDegrees>-3.805098049342632293701171875</LongitudeDegrees>
            </Position>
            <AltitudeMeters>939.20001220703125</AltitudeMeters>
            <DistanceMeters>39965.90407447</DistanceMeters>
          </Trackpoint>
          <Trackpoint>
            <Time>2019-08-01T10:06:19.000Z</Time>
            <Position>
              <LatitudeDegrees>40.69263559766113758087158203125</LatitudeDegrees>
              <LongitudeDegrees>-3.80533643066883087158203125</LongitudeDegrees>
            </Position>
            <AltitudeMeters>940.4000244140625</AltitudeMeters>
            <DistanceMeters>39992.803181617</DistanceMeters>
          </Trackpoint>
          <Trackpoint>
            <Time>2019-08-01T10:06:32.000Z</Time>
            <Position>
              <LatitudeDegrees>40.69300607778131961822509765625</LatitudeDegrees>
              <LongitudeDegrees>-3.80585686303675174713134765625</LongitudeDegrees>
            </Position>
            <AltitudeMeters>940.5999755859375</AltitudeMeters>
            <DistanceMeters>40053.046820981</DistanceMeters>
          </Trackpoint>
          <Trackpoint>
            <Time>2019-08-01T10:06:36.000Z</Time>
            <Position>
              <LatitudeDegrees>40.69309643469750881195068359375</LatitudeDegrees>
              <LongitudeDegrees>-3.80606926046311855316162109375</LongitudeDegrees>
            </Position>
            <AltitudeMeters>940.5999755859375</AltitudeMeters>
            <DistanceMeters>40073.599629693</DistanceMeters>
          </Trackpoint>
          <Trackpoint>
            <Time>2019-08-01T10:06:48.000Z</Time>
            <Position>
              <LatitudeDegrees>40.693356357514858245849609375</LatitudeDegrees>
              <LongitudeDegrees>-3.80674199201166629791259765625</LongitudeDegrees>
            </Position>
            <AltitudeMeters>941</AltitudeMeters>
            <DistanceMeters>40137.317858404</DistanceMeters>
          </Trackpoint>
          <Trackpoint>
            <Time>2019-08-01T10:06:53.000Z</Time>
            <Position>
              <LatitudeDegrees>40.69349122233688831329345703125</LatitudeDegrees>
              <LongitudeDegrees>-3.8070009090006351470947265625</LongitudeDegrees>
            </Position>
            <AltitudeMeters>941.79998779296875</AltitudeMeters>
            <DistanceMeters>40163.827075839</DistanceMeters>
          </Trackpoint>
          <Trackpoint>
            <Time>2019-08-01T10:07:04.000Z</Time>
            <Position>
              <LatitudeDegrees>40.69387796334922313690185546875</LatitudeDegrees>
              <LongitudeDegrees>-3.8075541146099567413330078125</LongitudeDegrees>
            </Position>
            <AltitudeMeters>942.79998779296875</AltitudeMeters>
            <DistanceMeters>40227.327962257</DistanceMeters>
          </Trackpoint>
          <Trackpoint>
            <Time>2019-08-01T10:07:09.000Z</Time>
            <Position>
              <LatitudeDegrees>40.69410963915288448333740234375</LatitudeDegrees>
              <LongitudeDegrees>-3.8077623210847377777099609375</LongitudeDegrees>
            </Position>
            <AltitudeMeters>942</AltitudeMeters>
            <DistanceMeters>40258.53118168</DistanceMeters>
          </Trackpoint>
          <Trackpoint>
            <Time>2019-08-01T10:07:16.000Z</Time>
            <Position>
              <LatitudeDegrees>40.694236457347869873046875</LatitudeDegrees>
              <LongitudeDegrees>-3.8082856871187686920166015625</LongitudeDegrees>
            </Position>
            <AltitudeMeters>942</AltitudeMeters>
            <DistanceMeters>40304.898376118</DistanceMeters>
          </Trackpoint>
          <Trackpoint>
            <Time>2019-08-01T10:07:17.000Z</Time>
            <Position>
              <LatitudeDegrees>40.69423151202499866485595703125</LatitudeDegrees>
              <LongitudeDegrees>-3.80837428383529186248779296875</LongitudeDegrees>
            </Position>
            <AltitudeMeters>941.79998779296875</AltitudeMeters>
            <DistanceMeters>40312.395255188</DistanceMeters>
          </Trackpoint>
          <Trackpoint>
            <Time>2019-08-01T10:07:20.000Z</Time>
            <Position>
              <LatitudeDegrees>40.69425296969711780548095703125</LatitudeDegrees>
              <LongitudeDegrees>-3.808630518615245819091796875</LongitudeDegrees>
            </Position>
            <AltitudeMeters>941</AltitudeMeters>
            <DistanceMeters>40334.150147431</DistanceMeters>
          </Trackpoint>
          <Trackpoint>
            <Time>2019-08-01T10:07:24.000Z</Time>
            <Position>
              <LatitudeDegrees>40.69438372738659381866455078125</LatitudeDegrees>
              <LongitudeDegrees>-3.8089210353791713714599609375</LongitudeDegrees>
            </Position>
            <AltitudeMeters>940</AltitudeMeters>
            <DistanceMeters>40362.661012401</DistanceMeters>
          </Trackpoint>
          <Trackpoint>
            <Time>2019-08-01T10:07:25.000Z</Time>
            <Position>
              <LatitudeDegrees>40.69443083368241786956787109375</LatitudeDegrees>
              <LongitudeDegrees>-3.80898565985262393951416015625</LongitudeDegrees>
            </Position>
            <AltitudeMeters>939.79998779296875</AltitudeMeters>
            <DistanceMeters>40370.226237084</DistanceMeters>
          </Trackpoint>
          <Trackpoint>
            <Time>2019-08-01T10:07:28.000Z</Time>
            <Position>
              <LatitudeDegrees>40.69456033408641815185546875</LatitudeDegrees>
              <LongitudeDegrees>-3.80918950773775577545166015625</LongitudeDegrees>
            </Position>
            <AltitudeMeters>939.4000244140625</AltitudeMeters>
            <DistanceMeters>40392.669044482</DistanceMeters>
          </Trackpoint>
          <Trackpoint>
            <Time>2019-08-01T10:07:33.000Z</Time>
            <Position>
              <LatitudeDegrees>40.69465261884033679962158203125</LatitudeDegrees>
              <LongitudeDegrees>-3.80957859568297863006591796875</LongitudeDegrees>
            </Position>
            <AltitudeMeters>939.20001220703125</AltitudeMeters>
            <DistanceMeters>40427.072652429</DistanceMeters>
          </Trackpoint>
          <Trackpoint>
            <Time>2019-08-01T10:07:35.000Z</Time>
            <Position>
              <LatitudeDegrees>40.694660581648349761962890625</LatitudeDegrees>
              <LongitudeDegrees>-3.80973332561552524566650390625</LongitudeDegrees>
            </Position>
            <AltitudeMeters>939</AltitudeMeters>
            <DistanceMeters>40440.160146078</DistanceMeters>
          </Trackpoint>
          <Trackpoint>
            <Time>2019-08-01T10:07:39.000Z</Time>
            <Position>
              <LatitudeDegrees>40.69467273540794849395751953125</LatitudeDegrees>
              <LongitudeDegrees>-3.8100472278892993927001953125</LongitudeDegrees>
            </Position>
            <AltitudeMeters>938</AltitudeMeters>
            <DistanceMeters>40466.684687844</DistanceMeters>
          </Trackpoint>
          <Trackpoint>
            <Time>2019-08-01T10:07:40.000Z</Time>
            <Position>
              <LatitudeDegrees>40.69468312896788120269775390625</LatitudeDegrees>
              <LongitudeDegrees>-3.810129873454570770263671875</LongitudeDegrees>
            </Position>
            <AltitudeMeters>937.79998779296875</AltitudeMeters>
            <DistanceMeters>40473.754445486</DistanceMeters>
          </Trackpoint>
          <Trackpoint>
            <Time>2019-08-01T10:07:42.000Z</Time>
            <Position>
              <LatitudeDegrees>40.6947174109518527984619140625</LatitudeDegrees>
              <LongitudeDegrees>-3.81029742769896984100341796875</LongitudeDegrees>
            </Position>
            <AltitudeMeters>937.5999755859375</AltitudeMeters>
            <DistanceMeters>40488.400278881</DistanceMeters>
          </Trackpoint>
          <Trackpoint>
            <Time>2019-08-01T10:07:45.000Z</Time>
            <Position>
              <LatitudeDegrees>40.694821178913116455078125</LatitudeDegrees>
              <LongitudeDegrees>-3.810508735477924346923828125</LongitudeDegrees>
            </Position>
            <AltitudeMeters>937</AltitudeMeters>
            <DistanceMeters>40509.645923167</DistanceMeters>
          </Trackpoint>
          <Trackpoint>
            <Time>2019-08-01T10:07:48.000Z</Time>
            <Position>
              <LatitudeDegrees>40.6949557922780513763427734375</LatitudeDegrees>
              <LongitudeDegrees>-3.8106451928615570068359375</LongitudeDegrees>
            </Position>
            <AltitudeMeters>937</AltitudeMeters>
            <DistanceMeters>40528.542625073</DistanceMeters>
          </Trackpoint>
          <Trackpoint>
            <Time>2019-08-01T10:07:53.000Z</Time>
            <Position>
              <LatitudeDegrees>40.69509602151811122894287109375</LatitudeDegrees>
              <LongitudeDegrees>-3.8109129108488559722900390625</LongitudeDegrees>
            </Position>
            <AltitudeMeters>935.79998779296875</AltitudeMeters>
            <DistanceMeters>40556.001892781</DistanceMeters>
          </Trackpoint>
          <Trackpoint>
            <Time>2019-08-01T10:07:54.000Z</Time>
            <Position>
              <LatitudeDegrees>40.695111192762851715087890625</LatitudeDegrees>
              <LongitudeDegrees>-3.81098574958741664886474609375</LongitudeDegrees>
            </Position>
            <AltitudeMeters>935.5999755859375</AltitudeMeters>
            <DistanceMeters>40562.376478571</DistanceMeters>
          </Trackpoint>
          <Trackpoint>
            <Time>2019-08-01T10:07:55.000Z</Time>
            <Position>
              <LatitudeDegrees>40.6951321475207805633544921875</LatitudeDegrees>
              <LongitudeDegrees>-3.8110611028969287872314453125</LongitudeDegrees>
            </Position>
            <AltitudeMeters>935.4000244140625</AltitudeMeters>
            <DistanceMeters>40569.149423893</DistanceMeters>
          </Trackpoint>
          <Trackpoint>
            <Time>2019-08-01T10:08:02.000Z</Time>
            <Position>
              <LatitudeDegrees>40.69530791603028774261474609375</LatitudeDegrees>
              <LongitudeDegrees>-3.8116377778351306915283203125</LongitudeDegrees>
            </Position>
            <AltitudeMeters>936</AltitudeMeters>
            <DistanceMeters>40621.598919392</DistanceMeters>
          </Trackpoint>
          <Trackpoint>
            <Time>2019-08-01T10:08:06.000Z</Time>
            <Position>
              <LatitudeDegrees>40.69528897292912006378173828125</LatitudeDegrees>
              <LongitudeDegrees>-3.81199358962476253509521484375</LongitudeDegrees>
            </Position>
            <AltitudeMeters>936</AltitudeMeters>
            <DistanceMeters>40651.699146799</DistanceMeters>
          </Trackpoint>
          <Trackpoint>
            <Time>2019-08-01T10:08:11.000Z</Time>
            <Position>
              <LatitudeDegrees>40.6952250190079212188720703125</LatitudeDegrees>
              <LongitudeDegrees>-3.8124612160027027130126953125</LongitudeDegrees>
            </Position>
            <AltitudeMeters>934.79998779296875</AltitudeMeters>
            <DistanceMeters>40691.797943187</DistanceMeters>
          </Trackpoint>
          <Trackpoint>
            <Time>2019-08-01T10:08:18.000Z</Time>
            <Position>
              <LatitudeDegrees>40.695390142500400543212890625</LatitudeDegrees>
              <LongitudeDegrees>-3.8130546547472476959228515625</LongitudeDegrees>
            </Position>
            <AltitudeMeters>935.20001220703125</AltitudeMeters>
            <DistanceMeters>40745.14289712</DistanceMeters>
          </Trackpoint>
          <Trackpoint>
            <Time>2019-08-01T10:08:22.000Z</Time>
            <Position>
              <LatitudeDegrees>40.6955723650753498077392578125</LatitudeDegrees>
              <LongitudeDegrees>-3.813255988061428070068359375</LongitudeDegrees>
            </Position>
            <AltitudeMeters>935.20001220703125</AltitudeMeters>
            <DistanceMeters>40771.60062805</DistanceMeters>
          </Trackpoint>
          <Trackpoint>
            <Time>2019-08-01T10:08:23.000Z</Time>
            <Position>
              <LatitudeDegrees>40.69562089629471302032470703125</LatitudeDegrees>
              <LongitudeDegrees>-3.8132947124540805816650390625</LongitudeDegrees>
            </Position>
            <AltitudeMeters>935.20001220703125</AltitudeMeters>
            <DistanceMeters>40777.912576819</DistanceMeters>
          </Trackpoint>
          <Trackpoint>
            <Time>2019-08-01T10:08:28.000Z</Time>
            <Position>
              <LatitudeDegrees>40.695706307888031005859375</LatitudeDegrees>
              <LongitudeDegrees>-3.81363795138895511627197265625</LongitudeDegrees>
            </Position>
            <AltitudeMeters>934.4000244140625</AltitudeMeters>
            <DistanceMeters>40808.397644431</DistanceMeters>
          </Trackpoint>
          <Trackpoint>
            <Time>2019-08-01T10:08:29.000Z</Time>
            <Position>
              <LatitudeDegrees>40.6957049667835235595703125</LatitudeDegrees>
              <LongitudeDegrees>-3.81372906267642974853515625</LongitudeDegrees>
            </Position>
            <AltitudeMeters>934.20001220703125</AltitudeMeters>
            <DistanceMeters>40816.087178913</DistanceMeters>
          </Trackpoint>
          <Trackpoint>
            <Time>2019-08-01T10:08:33.000Z</Time>
            <Position>
              <LatitudeDegrees>40.6957098282873630523681640625</LatitudeDegrees>
              <LongitudeDegrees>-3.8141124509274959564208984375</LongitudeDegrees>
            </Position>
            <AltitudeMeters>933.20001220703125</AltitudeMeters>
            <DistanceMeters>40848.444717038</DistanceMeters>
          </Trackpoint>
          <Trackpoint>
            <Time>2019-08-01T10:08:37.000Z</Time>
            <Position>
              <LatitudeDegrees>40.6956960819661617279052734375</LatitudeDegrees>
              <LongitudeDegrees>-3.81450313143432140350341796875</LongitudeDegrees>
            </Position>
            <AltitudeMeters>932</AltitudeMeters>
            <DistanceMeters>40881.448823316</DistanceMeters>
          </Trackpoint>
          <Trackpoint>
            <Time>2019-08-01T10:08:41.000Z</Time>
            <Position>
              <LatitudeDegrees>40.69568283855915069580078125</LatitudeDegrees>
              <LongitudeDegrees>-3.81489238701760768890380859375</LongitudeDegrees>
            </Position>
            <AltitudeMeters>930.79998779296875</AltitudeMeters>
            <DistanceMeters>40914.330126251</DistanceMeters>
          </Trackpoint>
          <Trackpoint>
            <Time>2019-08-01T10:08:45.000Z</Time>
            <Position>
              <LatitudeDegrees>40.6956903822720050811767578125</LatitudeDegrees>
              <LongitudeDegrees>-3.81526404060423374176025390625</LongitudeDegrees>
            </Position>
            <AltitudeMeters>929.5999755859375</AltitudeMeters>
            <DistanceMeters>40945.704344057</DistanceMeters>
          </Trackpoint>
          <Trackpoint>
            <Time>2019-08-01T10:08:50.000Z</Time>
            <Position>
              <LatitudeDegrees>40.69570295512676239013671875</LatitudeDegrees>
              <LongitudeDegrees>-3.81558858789503574371337890625</LongitudeDegrees>
            </Position>
            <AltitudeMeters>928.4000244140625</AltitudeMeters>
            <DistanceMeters>40973.127743306</DistanceMeters>
          </Trackpoint>
          <Trackpoint>
            <Time>2019-08-01T10:08:53.000Z</Time>
            <Position>
              <LatitudeDegrees>40.695592649281024932861328125</LatitudeDegrees>
              <LongitudeDegrees>-3.8157298229634761810302734375</LongitudeDegrees>
            </Position>
            <AltitudeMeters>927.4000244140625</AltitudeMeters>
            <DistanceMeters>40990.238621967</DistanceMeters>
          </Trackpoint>
          <Trackpoint>
            <Time>2019-08-01T10:08:54.000Z</Time>
            <Position>
              <LatitudeDegrees>40.695541016757488250732421875</LatitudeDegrees>
              <LongitudeDegrees>-3.8157749176025390625</LongitudeDegrees>
            </Position>
            <AltitudeMeters>927</AltitudeMeters>
            <DistanceMeters>40997.131171</DistanceMeters>
          </Trackpoint>
          <Trackpoint>
            <Time>2019-08-01T10:08:55.000Z</Time>
            <Position>
              <LatitudeDegrees>40.69548779167234897613525390625</LatitudeDegrees>
              <LongitudeDegrees>-3.81582462228834629058837890625</LongitudeDegrees>
            </Position>
            <AltitudeMeters>926.79998779296875</AltitudeMeters>
            <DistanceMeters>41004.389370913</DistanceMeters>
          </Trackpoint>
          <Trackpoint>
            <Time>2019-08-01T10:08:56.000Z</Time>
            <Position>
              <LatitudeDegrees>40.69543699733912944793701171875</LatitudeDegrees>
              <LongitudeDegrees>-3.81588245742022991180419921875</LongitudeDegrees>
            </Position>
            <AltitudeMeters>926.20001220703125</AltitudeMeters>
            <DistanceMeters>41011.858494842</DistanceMeters>
          </Trackpoint>
          <Trackpoint>
            <Time>2019-08-01T10:08:59.000Z</Time>
            <Position>
              <LatitudeDegrees>40.6953235901892185211181640625</LatitudeDegrees>
              <LongitudeDegrees>-3.81608630530536174774169921875</LongitudeDegrees>
            </Position>
            <AltitudeMeters>925.20001220703125</AltitudeMeters>
            <DistanceMeters>41033.19490208</DistanceMeters>
          </Trackpoint>
          <Trackpoint>
            <Time>2019-08-01T10:09:02.000Z</Time>
            <Position>
              <LatitudeDegrees>40.6953091733157634735107421875</LatitudeDegrees>
              <LongitudeDegrees>-3.81634010933339595794677734375</LongitudeDegrees>
            </Position>
            <AltitudeMeters>924</AltitudeMeters>
            <DistanceMeters>41054.67283157</DistanceMeters>
          </Trackpoint>
          <Trackpoint>
            <Time>2019-08-01T10:09:06.000Z</Time>
            <Position>
              <LatitudeDegrees>40.69532702676951885223388671875</LatitudeDegrees>
              <LongitudeDegrees>-3.81671042181551456451416015625</LongitudeDegrees>
            </Position>
            <AltitudeMeters>922.5999755859375</AltitudeMeters>
            <DistanceMeters>41085.985828239</DistanceMeters>
          </Trackpoint>
          <Trackpoint>
            <Time>2019-08-01T10:09:08.000Z</Time>
            <Position>
              <LatitudeDegrees>40.69533674977719783782958984375</LatitudeDegrees>
              <LongitudeDegrees>-3.81690437905490398406982421875</LongitudeDegrees>
            </Position>
            <AltitudeMeters>921.79998779296875</AltitudeMeters>
            <DistanceMeters>41102.389156798</DistanceMeters>
          </Trackpoint>
          <Trackpoint>
            <Time>2019-08-01T10:09:11.000Z</Time>
            <Position>
              <LatitudeDegrees>40.69535267539322376251220703125</LatitudeDegrees>
              <LongitudeDegrees>-3.81720059551298618316650390625</LongitudeDegrees>
            </Position>
            <AltitudeMeters>920.4000244140625</AltitudeMeters>
            <DistanceMeters>41127.449018455</DistanceMeters>
          </Trackpoint>
          <Trackpoint>
            <Time>2019-08-01T10:09:15.000Z</Time>
            <Position>
              <LatitudeDegrees>40.69536960683763027191162109375</LatitudeDegrees>
              <LongitudeDegrees>-3.81760996766388416290283203125</LongitudeDegrees>
            </Position>
            <AltitudeMeters>919.4000244140625</AltitudeMeters>
            <DistanceMeters>41162.046312467</DistanceMeters>
          </Trackpoint>
          <Trackpoint>
            <Time>2019-08-01T10:09:18.000Z</Time>
            <Position>
              <LatitudeDegrees>40.6953859515488147735595703125</LatitudeDegrees>
              <LongitudeDegrees>-3.81790769286453723907470703125</LongitudeDegrees>
            </Position>
            <AltitudeMeters>918.79998779296875</AltitudeMeters>
            <DistanceMeters>41187.236458789</DistanceMeters>
          </Trackpoint>
          <Trackpoint>
            <Time>2019-08-01T10:09:19.000Z</Time>
            <Position>
              <LatitudeDegrees>40.695402882993221282958984375</LatitudeDegrees>
              <LongitudeDegrees>-3.81800089962780475616455078125</LongitudeDegrees>
            </Position>
            <AltitudeMeters>918.4000244140625</AltitudeMeters>
            <DistanceMeters>41195.32434317</DistanceMeters>
          </Trackpoint>
          <Trackpoint>
            <Time>2019-08-01T10:09:23.000Z</Time>
            <Position>
              <LatitudeDegrees>40.695517547428607940673828125</LatitudeDegrees>
              <LongitudeDegrees>-3.818357884883880615234375</LongitudeDegrees>
            </Position>
            <AltitudeMeters>917.4000244140625</AltitudeMeters>
            <DistanceMeters>41228.041421303</DistanceMeters>
          </Trackpoint>
          <Trackpoint>
            <Time>2019-08-01T10:09:27.000Z</Time>
            <Position>
              <LatitudeDegrees>40.695634223520755767822265625</LatitudeDegrees>
              <LongitudeDegrees>-3.81868922151625156402587890625</LongitudeDegrees>
            </Position>
            <AltitudeMeters>917</AltitudeMeters>
            <DistanceMeters>41258.870524531</DistanceMeters>
          </Trackpoint>
          <Trackpoint>
            <Time>2019-08-01T10:09:32.000Z</Time>
            <Position>
              <LatitudeDegrees>40.69570773281157016754150390625</LatitudeDegrees>
              <LongitudeDegrees>-3.81912767887115478515625</LongitudeDegrees>
            </Position>
            <AltitudeMeters>916.5999755859375</AltitudeMeters>
            <DistanceMeters>41296.764623757</DistanceMeters>
          </Trackpoint>
          <Trackpoint>
            <Time>2019-08-01T10:09:36.000Z</Time>
            <Position>
              <LatitudeDegrees>40.69574092514812946319580078125</LatitudeDegrees>
              <LongitudeDegrees>-3.81948064081370830535888671875</LongitudeDegrees>
            </Position>
            <AltitudeMeters>915.79998779296875</AltitudeMeters>
            <DistanceMeters>41326.778326726</DistanceMeters>
          </Trackpoint>
          <Trackpoint>
            <Time>2019-08-01T10:09:38.000Z</Time>
            <Position>
              <LatitudeDegrees>40.69576472975313663482666015625</LatitudeDegrees>
              <LongitudeDegrees>-3.81965062581002712249755859375</LongitudeDegrees>
            </Position>
            <AltitudeMeters>915.5999755859375</AltitudeMeters>
            <DistanceMeters>41341.365469055</DistanceMeters>
          </Trackpoint>
          <Trackpoint>
            <Time>2019-08-01T10:09:43.000Z</Time>
            <Position>
              <LatitudeDegrees>40.6958308629691600799560546875</LatitudeDegrees>
              <LongitudeDegrees>-3.82005161605775356292724609375</LongitudeDegrees>
            </Position>
            <AltitudeMeters>914.5999755859375</AltitudeMeters>
            <DistanceMeters>41375.995373358</DistanceMeters>
          </Trackpoint>
          <Trackpoint>
            <Time>2019-08-01T10:09:55.000Z</Time>
            <Position>
              <LatitudeDegrees>40.69595097564160823822021484375</LatitudeDegrees>
              <LongitudeDegrees>-3.82076994515955448150634765625</LongitudeDegrees>
            </Position>
            <AltitudeMeters>914.20001220703125</AltitudeMeters>
            <DistanceMeters>41438.069787971</DistanceMeters>
          </Trackpoint>
          <Trackpoint>
            <Time>2019-08-01T10:09:58.000Z</Time>
            <Position>
              <LatitudeDegrees>40.69595566950738430023193359375</LatitudeDegrees>
              <LongitudeDegrees>-3.82090799510478973388671875</LongitudeDegrees>
            </Position>
            <AltitudeMeters>913.5999755859375</AltitudeMeters>
            <DistanceMeters>41449.731002366</DistanceMeters>
          </Trackpoint>
          <Trackpoint>
            <Time>2019-08-01T10:10:02.000Z</Time>
            <Position>
              <LatitudeDegrees>40.69595240056514739990234375</LatitudeDegrees>
              <LongitudeDegrees>-3.82107487879693508148193359375</LongitudeDegrees>
            </Position>
            <AltitudeMeters>912.79998779296875</AltitudeMeters>
            <DistanceMeters>41463.81869274</DistanceMeters>
          </Trackpoint>
          <Trackpoint>
            <Time>2019-08-01T10:10:06.000Z</Time>
            <Position>
              <LatitudeDegrees>40.6959398277103900909423828125</LatitudeDegrees>
              <LongitudeDegrees>-3.821233548223972320556640625</LongitudeDegrees>
            </Position>
            <AltitudeMeters>911.5999755859375</AltitudeMeters>
            <DistanceMeters>41477.281332315</DistanceMeters>
          </Trackpoint>
          <Trackpoint>
            <Time>2019-08-01T10:10:09.000Z</Time>
            <Position>
              <LatitudeDegrees>40.69590621627867221832275390625</LatitudeDegrees>
              <LongitudeDegrees>-3.8213416747748851776123046875</LongitudeDegrees>
            </Position>
            <AltitudeMeters>910.5999755859375</AltitudeMeters>
            <DistanceMeters>41487.143072693</DistanceMeters>
          </Trackpoint>
          <Trackpoint>
            <Time>2019-08-01T10:10:10.000Z</Time>
            <Position>
              <LatitudeDegrees>40.6958838365972042083740234375</LatitudeDegrees>
              <LongitudeDegrees>-3.82136791013181209564208984375</LongitudeDegrees>
            </Position>
            <AltitudeMeters>910.4000244140625</AltitudeMeters>
            <DistanceMeters>41490.475788407</DistanceMeters>
          </Trackpoint>
          <Trackpoint>
            <Time>2019-08-01T10:10:13.000Z</Time>
            <Position>
              <LatitudeDegrees>40.69580865092575550079345703125</LatitudeDegrees>
              <LongitudeDegrees>-3.82137612439692020416259765625</LongitudeDegrees>
            </Position>
            <AltitudeMeters>909.4000244140625</AltitudeMeters>
            <DistanceMeters>41498.872623339</DistanceMeters>
          </Trackpoint>
          <Trackpoint>
            <Time>2019-08-01T10:10:15.000Z</Time>
            <Position>
              <LatitudeDegrees>40.69576523266732692718505859375</LatitudeDegrees>
              <LongitudeDegrees>-3.82135215215384960174560546875</LongitudeDegrees>
            </Position>
            <AltitudeMeters>908.79998779296875</AltitudeMeters>
            <DistanceMeters>41504.111172977</DistanceMeters>
          </Trackpoint>
          <Trackpoint>
            <Time>2019-08-01T10:10:16.000Z</Time>
            <Position>
              <LatitudeDegrees>40.695741511881351470947265625</LatitudeDegrees>
              <LongitudeDegrees>-3.82133941166102886199951171875</LongitudeDegrees>
            </Position>
            <AltitudeMeters>908.5999755859375</AltitudeMeters>
            <DistanceMeters>41506.961974408</DistanceMeters>
          </Trackpoint>
          <Trackpoint>
            <Time>2019-08-01T10:10:19.000Z</Time>
            <Position>
              <LatitudeDegrees>40.6956672482192516326904296875</LatitudeDegrees>
              <LongitudeDegrees>-3.8212907128036022186279296875</LongitudeDegrees>
            </Position>
            <AltitudeMeters>907.4000244140625</AltitudeMeters>
            <DistanceMeters>41516.192781595</DistanceMeters>
          </Trackpoint>
          <Trackpoint>
            <Time>2019-08-01T10:10:22.000Z</Time>
            <Position>
              <LatitudeDegrees>40.69559927098453044891357421875</LatitudeDegrees>
              <LongitudeDegrees>-3.82123053073883056640625</LongitudeDegrees>
            </Position>
            <AltitudeMeters>906.4000244140625</AltitudeMeters>
            <DistanceMeters>41525.304451191</DistanceMeters>
          </Trackpoint>
          <Trackpoint>
            <Time>2019-08-01T10:10:29.000Z</Time>
            <Position>
              <LatitudeDegrees>40.6954815052449703216552734375</LatitudeDegrees>
              <LongitudeDegrees>-3.8211069814860820770263671875</LongitudeDegrees>
            </Position>
            <AltitudeMeters>905.4000244140625</AltitudeMeters>
            <DistanceMeters>41542.05289275</DistanceMeters>
          </Trackpoint>
          <Trackpoint>
            <Time>2019-08-01T10:10:37.000Z</Time>
            <Position>
              <LatitudeDegrees>40.69536457769572734832763671875</LatitudeDegrees>
              <LongitudeDegrees>-3.82097329013049602508544921875</LongitudeDegrees>
            </Position>
            <AltitudeMeters>904.20001220703125</AltitudeMeters>
            <DistanceMeters>41559.276337274</DistanceMeters>
          </Trackpoint>
          <Trackpoint>
            <Time>2019-08-01T10:10:45.000Z</Time>
            <Position>
              <LatitudeDegrees>40.69521437399089336395263671875</LatitudeDegrees>
              <LongitudeDegrees>-3.82085678167641162872314453125</LongitudeDegrees>
            </Position>
            <AltitudeMeters>903.20001220703125</AltitudeMeters>
            <DistanceMeters>41578.671101112</DistanceMeters>
          </Trackpoint>
          <Trackpoint>
            <Time>2019-08-01T10:10:49.000Z</Time>
            <Position>
              <LatitudeDegrees>40.69512317888438701629638671875</LatitudeDegrees>
              <LongitudeDegrees>-3.82082241587340831756591796875</LongitudeDegrees>
            </Position>
            <AltitudeMeters>902.20001220703125</AltitudeMeters>
            <DistanceMeters>41589.227196191</DistanceMeters>
          </Trackpoint>
          <Trackpoint>
            <Time>2019-08-01T10:10:56.000Z</Time>
            <Position>
              <LatitudeDegrees>40.6949534453451633453369140625</LatitudeDegrees>
              <LongitudeDegrees>-3.82077522575855255126953125</LongitudeDegrees>
            </Position>
            <AltitudeMeters>901</AltitudeMeters>
            <DistanceMeters>41608.533996173</DistanceMeters>
          </Trackpoint>
          <Trackpoint>
            <Time>2019-08-01T10:11:02.000Z</Time>
            <Position>
              <LatitudeDegrees>40.69480969570577144622802734375</LatitudeDegrees>
              <LongitudeDegrees>-3.82073842920362949371337890625</LongitudeDegrees>
            </Position>
            <AltitudeMeters>899.5999755859375</AltitudeMeters>
            <DistanceMeters>41624.832116576</DistanceMeters>
          </Trackpoint>
          <Trackpoint>
            <Time>2019-08-01T10:11:07.000Z</Time>
            <Position>
              <LatitudeDegrees>40.69469419308006763458251953125</LatitudeDegrees>
              <LongitudeDegrees>-3.8207123614847660064697265625</LongitudeDegrees>
            </Position>
            <AltitudeMeters>898.79998779296875</AltitudeMeters>
            <DistanceMeters>41637.875030749</DistanceMeters>
          </Trackpoint>
          <Trackpoint>
            <Time>2019-08-01T10:11:12.000Z</Time>
            <Position>
              <LatitudeDegrees>40.6945809535682201385498046875</LatitudeDegrees>
              <LongitudeDegrees>-3.82068763487040996551513671875</LongitudeDegrees>
            </Position>
            <AltitudeMeters>897.79998779296875</AltitudeMeters>
            <DistanceMeters>41650.650382081</DistanceMeters>
          </Trackpoint>
          <Trackpoint>
            <Time>2019-08-01T10:11:16.000Z</Time>
            <Position>
              <LatitudeDegrees>40.6944867409765720367431640625</LatitudeDegrees>
              <LongitudeDegrees>-3.8206878863275051116943359375</LongitudeDegrees>
            </Position>
            <AltitudeMeters>896.79998779296875</AltitudeMeters>
            <DistanceMeters>41661.136096686</DistanceMeters>
          </Trackpoint>
          <Trackpoint>
            <Time>2019-08-01T10:11:21.000Z</Time>
            <Position>
              <LatitudeDegrees>40.69433561526238918304443359375</LatitudeDegrees>
              <LongitudeDegrees>-3.82070087827742099761962890625</LongitudeDegrees>
            </Position>
            <AltitudeMeters>895.5999755859375</AltitudeMeters>
            <DistanceMeters>41677.992293034</DistanceMeters>
          </Trackpoint>
          <Trackpoint>
            <Time>2019-08-01T10:11:23.000Z</Time>
            <Position>
              <LatitudeDegrees>40.6942547298967838287353515625</LatitudeDegrees>
              <LongitudeDegrees>-3.82068428210914134979248046875</LongitudeDegrees>
            </Position>
            <AltitudeMeters>895.20001220703125</AltitudeMeters>
            <DistanceMeters>41687.102971531</DistanceMeters>
          </Trackpoint>
          <Trackpoint>
            <Time>2019-08-01T10:11:26.000Z</Time>
            <Position>
              <LatitudeDegrees>40.69408684037625789642333984375</LatitudeDegrees>
              <LongitudeDegrees>-3.82059778086841106414794921875</LongitudeDegrees>
            </Position>
            <AltitudeMeters>894.4000244140625</AltitudeMeters>
            <DistanceMeters>41707.164414077</DistanceMeters>
          </Trackpoint>
          <Trackpoint>
            <Time>2019-08-01T10:11:32.000Z</Time>
            <Position>
              <LatitudeDegrees>40.69368434138596057891845703125</LatitudeDegrees>
              <LongitudeDegrees>-3.820473812520503997802734375</LongitudeDegrees>
            </Position>
            <AltitudeMeters>893.5999755859375</AltitudeMeters>
            <DistanceMeters>41753.168533633</DistanceMeters>
          </Trackpoint>
          <Trackpoint>
            <Time>2019-08-01T10:11:34.000Z</Time>
            <Position>
              <LatitudeDegrees>40.693590380251407623291015625</LatitudeDegrees>
              <LongitudeDegrees>-3.82048227824270725250244140625</LongitudeDegrees>
            </Position>
            <AltitudeMeters>893.5999755859375</AltitudeMeters>
            <DistanceMeters>41763.650802957</DistanceMeters>
          </Trackpoint>
          <Trackpoint>
            <Time>2019-08-01T10:11:41.000Z</Time>
            <Position>
              <LatitudeDegrees>40.69338996894657611846923828125</LatitudeDegrees>
              <LongitudeDegrees>-3.82055184803903102874755859375</LongitudeDegrees>
            </Position>
            <AltitudeMeters>893.5999755859375</AltitudeMeters>
            <DistanceMeters>41786.71666613</DistanceMeters>
          </Trackpoint>
          <Trackpoint>
            <Time>2019-08-01T10:11:50.000Z</Time>
            <Position>
              <LatitudeDegrees>40.69313918240368366241455078125</LatitudeDegrees>
              <LongitudeDegrees>-3.8206624053418636322021484375</LongitudeDegrees>
            </Position>
            <AltitudeMeters>892.5999755859375</AltitudeMeters>
            <DistanceMeters>41816.147653077</DistanceMeters>
          </Trackpoint>
          <Trackpoint>
            <Time>2019-08-01T10:12:03.000Z</Time>
            <Position>
              <LatitudeDegrees>40.69258597679436206817626953125</LatitudeDegrees>
              <LongitudeDegrees>-3.8209269382059574127197265625</LongitudeDegrees>
            </Position>
            <AltitudeMeters>892.79998779296875</AltitudeMeters>
            <DistanceMeters>41881.642640164</DistanceMeters>
          </Trackpoint>
          <Trackpoint>
            <Time>2019-08-01T10:12:14.000Z</Time>
            <Position>
              <LatitudeDegrees>40.69204232655465602874755859375</LatitudeDegrees>
              <LongitudeDegrees>-3.8212082348763942718505859375</LongitudeDegrees>
            </Position>
            <AltitudeMeters>892.4000244140625</AltitudeMeters>
            <DistanceMeters>41946.642024207</DistanceMeters>
          </Trackpoint>
          <Trackpoint>
            <Time>2019-08-01T10:12:15.000Z</Time>
            <Position>
              <LatitudeDegrees>40.69199354387819766998291015625</LatitudeDegrees>
              <LongitudeDegrees>-3.8212414272129535675048828125</LongitudeDegrees>
            </Position>
            <AltitudeMeters>892.4000244140625</AltitudeMeters>
            <DistanceMeters>41952.751879854</DistanceMeters>
          </Trackpoint>
          <Trackpoint>
            <Time>2019-08-01T10:12:17.000Z</Time>
            <Position>
              <LatitudeDegrees>40.691899918019771575927734375</LatitudeDegrees>
              <LongitudeDegrees>-3.821314685046672821044921875</LongitudeDegrees>
            </Position>
            <AltitudeMeters>892.20001220703125</AltitudeMeters>
            <DistanceMeters>41964.868438062</DistanceMeters>
          </Trackpoint>
          <Trackpoint>
            <Time>2019-08-01T10:12:23.000Z</Time>
            <Position>
              <LatitudeDegrees>40.691680647432804107666015625</LatitudeDegrees>
              <LongitudeDegrees>-3.8215510547161102294921875</LongitudeDegrees>
            </Position>
            <AltitudeMeters>891.4000244140625</AltitudeMeters>
            <DistanceMeters>41996.388671733</DistanceMeters>
          </Trackpoint>
          <Trackpoint>
            <Time>2019-08-01T10:12:33.000Z</Time>
            <Position>
              <LatitudeDegrees>40.69143178872764110565185546875</LatitudeDegrees>
              <LongitudeDegrees>-3.821861185133457183837890625</LongitudeDegrees>
            </Position>
            <AltitudeMeters>890.5999755859375</AltitudeMeters>
            <DistanceMeters>42034.496635385</DistanceMeters>
          </Trackpoint>
          <Trackpoint>
            <Time>2019-08-01T10:12:44.000Z</Time>
            <Position>
              <LatitudeDegrees>40.69118351675570011138916015625</LatitudeDegrees>
              <LongitudeDegrees>-3.82219419814646244049072265625</LongitudeDegrees>
            </Position>
            <AltitudeMeters>889.5999755859375</AltitudeMeters>
            <DistanceMeters>42073.910160862</DistanceMeters>
          </Trackpoint>
          <Trackpoint>
            <Time>2019-08-01T10:12:53.000Z</Time>
            <Position>
              <LatitudeDegrees>40.69101738743484020233154296875</LatitudeDegrees>
              <LongitudeDegrees>-3.82253014482557773590087890625</LongitudeDegrees>
            </Position>
            <AltitudeMeters>888.4000244140625</AltitudeMeters>
            <DistanceMeters>42107.758617829</DistanceMeters>
          </Trackpoint>
          <Trackpoint>
            <Time>2019-08-01T10:12:58.000Z</Time>
            <Position>
              <LatitudeDegrees>40.6909103505313396453857421875</LatitudeDegrees>
              <LongitudeDegrees>-3.8227313943207263946533203125</LongitudeDegrees>
            </Position>
            <AltitudeMeters>887.4000244140625</AltitudeMeters>
            <DistanceMeters>42128.504279385</DistanceMeters>
          </Trackpoint>
          <Trackpoint>
            <Time>2019-08-01T10:13:04.000Z</Time>
            <Position>
              <LatitudeDegrees>40.6907822750508785247802734375</LatitudeDegrees>
              <LongitudeDegrees>-3.8229778222739696502685546875</LongitudeDegrees>
            </Position>
            <AltitudeMeters>886.4000244140625</AltitudeMeters>
            <DistanceMeters>42153.717715915</DistanceMeters>
          </Trackpoint>
          <Trackpoint>
            <Time>2019-08-01T10:13:08.000Z</Time>
            <Position>
              <LatitudeDegrees>40.690695606172084808349609375</LatitudeDegrees>
              <LongitudeDegrees>-3.82317177951335906982421875</LongitudeDegrees>
            </Position>
            <AltitudeMeters>885.4000244140625</AltitudeMeters>
            <DistanceMeters>42172.717118692</DistanceMeters>
          </Trackpoint>
          <Trackpoint>
            <Time>2019-08-01T10:13:14.000Z</Time>
            <Position>
              <LatitudeDegrees>40.6905274651944637298583984375</LatitudeDegrees>
              <LongitudeDegrees>-3.823509402573108673095703125</LongitudeDegrees>
            </Position>
            <AltitudeMeters>884.5999755859375</AltitudeMeters>
            <DistanceMeters>42206.806685977</DistanceMeters>
          </Trackpoint>
          <Trackpoint>
            <Time>2019-08-01T10:13:15.000Z</Time>
            <Position>
              <LatitudeDegrees>40.69049938581883907318115234375</LatitudeDegrees>
              <LongitudeDegrees>-3.8235739432275295257568359375</LongitudeDegrees>
            </Position>
            <AltitudeMeters>884.4000244140625</AltitudeMeters>
            <DistanceMeters>42213.087081976</DistanceMeters>
          </Trackpoint>
          <Trackpoint>
            <Time>2019-08-01T10:13:19.000Z</Time>
            <Position>
              <LatitudeDegrees>40.690382458269596099853515625</LatitudeDegrees>
              <LongitudeDegrees>-3.82383964955806732177734375</LongitudeDegrees>
            </Position>
            <AltitudeMeters>884</AltitudeMeters>
            <DistanceMeters>42239.014228959</DistanceMeters>
          </Trackpoint>
          <Trackpoint>
            <Time>2019-08-01T10:13:22.000Z</Time>
            <Position>
              <LatitudeDegrees>40.690250359475612640380859375</LatitudeDegrees>
              <LongitudeDegrees>-3.82396596483886241912841796875</LongitudeDegrees>
            </Position>
            <AltitudeMeters>883.4000244140625</AltitudeMeters>
            <DistanceMeters>42257.175024978</DistanceMeters>
          </Trackpoint>
          <Trackpoint>
            <Time>2019-08-01T10:13:23.000Z</Time>
            <Position>
              <LatitudeDegrees>40.6902076117694377899169921875</LatitudeDegrees>
              <LongitudeDegrees>-3.82399211637675762176513671875</LongitudeDegrees>
            </Position>
            <AltitudeMeters>883.4000244140625</AltitudeMeters>
            <DistanceMeters>42262.419604355</DistanceMeters>
          </Trackpoint>
          <Trackpoint>
            <Time>2019-08-01T10:13:37.000Z</Time>
            <Position>
              <LatitudeDegrees>40.68968768231570720672607421875</LatitudeDegrees>
              <LongitudeDegrees>-3.82428950630128383636474609375</LongitudeDegrees>
            </Position>
            <AltitudeMeters>882.79998779296875</AltitudeMeters>
            <DistanceMeters>42325.497160604</DistanceMeters>
          </Trackpoint>
          <Trackpoint>
            <Time>2019-08-01T10:13:43.000Z</Time>
            <Position>
              <LatitudeDegrees>40.689438320696353912353515625</LatitudeDegrees>
              <LongitudeDegrees>-3.824403919279575347900390625</LongitudeDegrees>
            </Position>
            <AltitudeMeters>882.4000244140625</AltitudeMeters>
            <DistanceMeters>42354.883317385</DistanceMeters>
          </Trackpoint>
          <Trackpoint>
            <Time>2019-08-01T10:14:05.000Z</Time>
            <Position>
              <LatitudeDegrees>40.68888871930539608001708984375</LatitudeDegrees>
              <LongitudeDegrees>-3.82431783713400363922119140625</LongitudeDegrees>
            </Position>
            <AltitudeMeters>881.5999755859375</AltitudeMeters>
            <DistanceMeters>42416.48496675</DistanceMeters>
          </Trackpoint>
          <Trackpoint>
            <Time>2019-08-01T10:14:08.000Z</Time>
            <Position>
              <LatitudeDegrees>40.68882434628903865814208984375</LatitudeDegrees>
              <LongitudeDegrees>-3.82431146688759326934814453125</LongitudeDegrees>
            </Position>
            <AltitudeMeters>881.4000244140625</AltitudeMeters>
            <DistanceMeters>42423.669388575</DistanceMeters>
          </Trackpoint>
          <Trackpoint>
            <Time>2019-08-01T10:14:18.000Z</Time>
            <Position>
              <LatitudeDegrees>40.68860423751175403594970703125</LatitudeDegrees>
              <LongitudeDegrees>-3.82434097118675708770751953125</LongitudeDegrees>
            </Position>
            <AltitudeMeters>880</AltitudeMeters>
            <DistanceMeters>42448.294329049</DistanceMeters>
          </Trackpoint>
          <Trackpoint>
            <Time>2019-08-01T10:14:24.000Z</Time>
            <Position>
              <LatitudeDegrees>40.68844481371343135833740234375</LatitudeDegrees>
              <LongitudeDegrees>-3.8244049251079559326171875</LongitudeDegrees>
            </Position>
            <AltitudeMeters>879</AltitudeMeters>
            <DistanceMeters>42466.84134315</DistanceMeters>
          </Trackpoint>
          <Trackpoint>
            <Time>2019-08-01T10:14:33.000Z</Time>
            <Position>
              <LatitudeDegrees>40.688217580318450927734375</LatitudeDegrees>
              <LongitudeDegrees>-3.82460265420377254486083984375</LongitudeDegrees>
            </Position>
            <AltitudeMeters>878</AltitudeMeters>
            <DistanceMeters>42497.14220209</DistanceMeters>
          </Trackpoint>
          <Trackpoint>
            <Time>2019-08-01T10:14:38.000Z</Time>
            <Position>
              <LatitudeDegrees>40.68810249678790569305419921875</LatitudeDegrees>
              <LongitudeDegrees>-3.8247437216341495513916015625</LongitudeDegrees>
            </Position>
            <AltitudeMeters>877</AltitudeMeters>
            <DistanceMeters>42514.629957776</DistanceMeters>
          </Trackpoint>
          <Trackpoint>
            <Time>2019-08-01T10:14:46.000Z</Time>
            <Position>
              <LatitudeDegrees>40.68790183402597904205322265625</LatitudeDegrees>
              <LongitudeDegrees>-3.82483215071260929107666015625</LongitudeDegrees>
            </Position>
            <AltitudeMeters>875.79998779296875</AltitudeMeters>
            <DistanceMeters>42538.177991753</DistanceMeters>
          </Trackpoint>
          <Trackpoint>
            <Time>2019-08-01T10:14:49.000Z</Time>
            <Position>
              <LatitudeDegrees>40.687820948660373687744140625</LatitudeDegrees>
              <LongitudeDegrees>-3.82482175715267658233642578125</LongitudeDegrees>
            </Position>
            <AltitudeMeters>874.5999755859375</AltitudeMeters>
            <DistanceMeters>42547.224015893</DistanceMeters>
          </Trackpoint>
          <Trackpoint>
            <Time>2019-08-01T10:14:57.000Z</Time>
            <Position>
              <LatitudeDegrees>40.6876595132052898406982421875</LatitudeDegrees>
              <LongitudeDegrees>-3.82493759505450725555419921875</LongitudeDegrees>
            </Position>
            <AltitudeMeters>873.5999755859375</AltitudeMeters>
            <DistanceMeters>42567.679716376</DistanceMeters>
          </Trackpoint>
          <Trackpoint>
            <Time>2019-08-01T10:15:01.000Z</Time>
            <Position>
              <LatitudeDegrees>40.6877067871391773223876953125</LatitudeDegrees>
              <LongitudeDegrees>-3.8250464759767055511474609375</LongitudeDegrees>
            </Position>
            <AltitudeMeters>873.20001220703125</AltitudeMeters>
            <DistanceMeters>42578.268268172</DistanceMeters>
          </Trackpoint>
          <Trackpoint>
            <Time>2019-08-01T10:15:11.000Z</Time>
            <Position>
              <LatitudeDegrees>40.687890350818634033203125</LatitudeDegrees>
              <LongitudeDegrees>-3.82530204020440578460693359375</LongitudeDegrees>
            </Position>
            <AltitudeMeters>872.5999755859375</AltitudeMeters>
            <DistanceMeters>42607.977607141</DistanceMeters>
          </Trackpoint>
          <Trackpoint>
            <Time>2019-08-01T10:15:29.000Z</Time>
            <Position>
              <LatitudeDegrees>40.688149519264698028564453125</LatitudeDegrees>
              <LongitudeDegrees>-3.82580528967082500457763671875</LongitudeDegrees>
            </Position>
            <AltitudeMeters>873.4000244140625</AltitudeMeters>
            <DistanceMeters>42659.319829485</DistanceMeters>
          </Trackpoint>
          <Trackpoint>
            <Time>2019-08-01T10:15:32.000Z</Time>
            <Position>
              <LatitudeDegrees>40.6881929375231266021728515625</LatitudeDegrees>
              <LongitudeDegrees>-3.82588776759803295135498046875</LongitudeDegrees>
            </Position>
            <AltitudeMeters>874.4000244140625</AltitudeMeters>
            <DistanceMeters>42667.7937405</DistanceMeters>
          </Trackpoint>
          <Trackpoint>
            <Time>2019-08-01T10:15:36.000Z</Time>
            <Position>
              <LatitudeDegrees>40.6882645189762115478515625</LatitudeDegrees>
              <LongitudeDegrees>-3.825987093150615692138671875</LongitudeDegrees>
            </Position>
            <AltitudeMeters>875.5999755859375</AltitudeMeters>
            <DistanceMeters>42679.358534584</DistanceMeters>
          </Trackpoint>
          <Trackpoint>
            <Time>2019-08-01T10:15:40.000Z</Time>
            <Position>
              <LatitudeDegrees>40.68834473378956317901611328125</LatitudeDegrees>
              <LongitudeDegrees>-3.82608876563608646392822265625</LongitudeDegrees>
            </Position>
            <AltitudeMeters>876.79998779296875</AltitudeMeters>
            <DistanceMeters>42691.741576541</DistanceMeters>
          </Trackpoint>
          <Trackpoint>
            <Time>2019-08-01T10:15:53.000Z</Time>
            <Position>
              <LatitudeDegrees>40.68868084810674190521240234375</LatitudeDegrees>
              <LongitudeDegrees>-3.82644650526344776153564453125</LongitudeDegrees>
            </Position>
            <AltitudeMeters>877.5999755859375</AltitudeMeters>
            <DistanceMeters>42739.81513959</DistanceMeters>
          </Trackpoint>
          <Trackpoint>
            <Time>2019-08-01T10:15:58.000Z</Time>
            <Position>
              <LatitudeDegrees>40.68879232741892337799072265625</LatitudeDegrees>
              <LongitudeDegrees>-3.8265766762197017669677734375</LongitudeDegrees>
            </Position>
            <AltitudeMeters>878.5999755859375</AltitudeMeters>
            <DistanceMeters>42756.387700498</DistanceMeters>
          </Trackpoint>
          <Trackpoint>
            <Time>2019-08-01T10:16:04.000Z</Time>
            <Position>
              <LatitudeDegrees>40.68892157636582851409912109375</LatitudeDegrees>
              <LongitudeDegrees>-3.82673014886677265167236328125</LongitudeDegrees>
            </Position>
            <AltitudeMeters>879.79998779296875</AltitudeMeters>
            <DistanceMeters>42775.745181019</DistanceMeters>
          </Trackpoint>
          <Trackpoint>
            <Time>2019-08-01T10:16:09.000Z</Time>
            <Position>
              <LatitudeDegrees>40.68903096020221710205078125</LatitudeDegrees>
              <LongitudeDegrees>-3.82686174474656581878662109375</LongitudeDegrees>
            </Position>
            <AltitudeMeters>880.79998779296875</AltitudeMeters>
            <DistanceMeters>42792.224577822</DistanceMeters>
          </Trackpoint>
          <Trackpoint>
            <Time>2019-08-01T10:16:13.000Z</Time>
            <Position>
              <LatitudeDegrees>40.68911234848201274871826171875</LatitudeDegrees>
              <LongitudeDegrees>-3.8269659318029880523681640625</LongitudeDegrees>
            </Position>
            <AltitudeMeters>881.79998779296875</AltitudeMeters>
            <DistanceMeters>42804.849190657</DistanceMeters>
          </Trackpoint>
          <Trackpoint>
            <Time>2019-08-01T10:16:17.000Z</Time>
            <Position>
              <LatitudeDegrees>40.68918845616281032562255859375</LatitudeDegrees>
              <LongitudeDegrees>-3.8270748965442180633544921875</LongitudeDegrees>
            </Position>
            <AltitudeMeters>883</AltitudeMeters>
            <DistanceMeters>42817.351976479</DistanceMeters>
          </Trackpoint>
          <Trackpoint>
            <Time>2019-08-01T10:16:20.000Z</Time>
            <Position>
              <LatitudeDegrees>40.68924109451472759246826171875</LatitudeDegrees>
              <LongitudeDegrees>-3.82715611718595027923583984375</LongitudeDegrees>
            </Position>
            <AltitudeMeters>884.20001220703125</AltitudeMeters>
            <DistanceMeters>42826.369005275</DistanceMeters>
          </Trackpoint>
          <Trackpoint>
            <Time>2019-08-01T10:16:24.000Z</Time>
            <Position>
              <LatitudeDegrees>40.6893040426075458526611328125</LatitudeDegrees>
              <LongitudeDegrees>-3.82726608775556087493896484375</LongitudeDegrees>
            </Position>
            <AltitudeMeters>885.4000244140625</AltitudeMeters>
            <DistanceMeters>42837.998038976</DistanceMeters>
          </Trackpoint>
          <Trackpoint>
            <Time>2019-08-01T10:16:27.000Z</Time>
            <Position>
              <LatitudeDegrees>40.68934435956180095672607421875</LatitudeDegrees>
              <LongitudeDegrees>-3.82735409773886203765869140625</LongitudeDegrees>
            </Position>
            <AltitudeMeters>886.4000244140625</AltitudeMeters>
            <DistanceMeters>42846.676220672</DistanceMeters>
          </Trackpoint>
          <Trackpoint>
            <Time>2019-08-01T10:16:31.000Z</Time>
            <Position>
              <LatitudeDegrees>40.68938911892473697662353515625</LatitudeDegrees>
              <LongitudeDegrees>-3.82748619653284549713134765625</LongitudeDegrees>
            </Position>
            <AltitudeMeters>888</AltitudeMeters>
            <DistanceMeters>42858.88706103</DistanceMeters>
          </Trackpoint>
          <Trackpoint>
            <Time>2019-08-01T10:16:35.000Z</Time>
            <Position>
              <LatitudeDegrees>40.68942516110837459564208984375</LatitudeDegrees>
              <LongitudeDegrees>-3.82763019762933254241943359375</LongitudeDegrees>
            </Position>
            <AltitudeMeters>889</AltitudeMeters>
            <DistanceMeters>42871.685011121</DistanceMeters>
          </Trackpoint>
          <Trackpoint>
            <Time>2019-08-01T10:16:43.000Z</Time>
            <Position>
              <LatitudeDegrees>40.68949791602790355682373046875</LatitudeDegrees>
              <LongitudeDegrees>-3.82793538272380828857421875</LongitudeDegrees>
            </Position>
            <AltitudeMeters>890</AltitudeMeters>
            <DistanceMeters>42898.684473728</DistanceMeters>
          </Trackpoint>
          <Trackpoint>
            <Time>2019-08-01T10:16:48.000Z</Time>
            <Position>
              <LatitudeDegrees>40.68955340422689914703369140625</LatitudeDegrees>
              <LongitudeDegrees>-3.82814132608473300933837890625</LongitudeDegrees>
            </Position>
            <AltitudeMeters>891.20001220703125</AltitudeMeters>
            <DistanceMeters>42917.129939845</DistanceMeters>
          </Trackpoint>
          <Trackpoint>
            <Time>2019-08-01T10:16:52.000Z</Time>
            <Position>
              <LatitudeDegrees>40.68959279917180538177490234375</LatitudeDegrees>
              <LongitudeDegrees>-3.8283075392246246337890625</LongitudeDegrees>
            </Position>
            <AltitudeMeters>892.20001220703125</AltitudeMeters>
            <DistanceMeters>42931.82685886</DistanceMeters>
          </Trackpoint>
          <Trackpoint>
            <Time>2019-08-01T10:16:55.000Z</Time>
            <Position>
              <LatitudeDegrees>40.68963202647864818572998046875</LatitudeDegrees>
              <LongitudeDegrees>-3.82842698134481906890869140625</LongitudeDegrees>
            </Position>
            <AltitudeMeters>893.4000244140625</AltitudeMeters>
            <DistanceMeters>42942.812210088</DistanceMeters>
          </Trackpoint>
          <Trackpoint>
            <Time>2019-08-01T10:16:58.000Z</Time>
            <Position>
              <LatitudeDegrees>40.68967427127063274383544921875</LatitudeDegrees>
              <LongitudeDegrees>-3.82854533381760120391845703125</LongitudeDegrees>
            </Position>
            <AltitudeMeters>894.4000244140625</AltitudeMeters>
            <DistanceMeters>42953.851680713</DistanceMeters>
          </Trackpoint>
          <Trackpoint>
            <Time>2019-08-01T10:17:02.000Z</Time>
            <Position>
              <LatitudeDegrees>40.68973906338214874267578125</LatitudeDegrees>
              <LongitudeDegrees>-3.82870375178754329681396484375</LongitudeDegrees>
            </Position>
            <AltitudeMeters>895.5999755859375</AltitudeMeters>
            <DistanceMeters>42969.04228878</DistanceMeters>
          </Trackpoint>
          <Trackpoint>
            <Time>2019-08-01T10:17:07.000Z</Time>
            <Position>
              <LatitudeDegrees>40.6898203678429126739501953125</LatitudeDegrees>
              <LongitudeDegrees>-3.8289065100252628326416015625</LongitudeDegrees>
            </Position>
            <AltitudeMeters>896.79998779296875</AltitudeMeters>
            <DistanceMeters>42988.399302805</DistanceMeters>
          </Trackpoint>
          <Trackpoint>
            <Time>2019-08-01T10:17:10.000Z</Time>
            <Position>
              <LatitudeDegrees>40.68986705504357814788818359375</LatitudeDegrees>
              <LongitudeDegrees>-3.8290288858115673065185546875</LongitudeDegrees>
            </Position>
            <AltitudeMeters>898</AltitudeMeters>
            <DistanceMeters>42999.960582645</DistanceMeters>
          </Trackpoint>
          <Trackpoint>
            <Time>2019-08-01T10:17:13.000Z</Time>
            <Position>
              <LatitudeDegrees>40.68991499952971935272216796875</LatitudeDegrees>
              <LongitudeDegrees>-3.82914262823760509490966796875</LongitudeDegrees>
            </Position>
            <AltitudeMeters>899.20001220703125</AltitudeMeters>
            <DistanceMeters>43010.943056458</DistanceMeters>
          </Trackpoint>
          <Trackpoint>
            <Time>2019-08-01T10:17:16.000Z</Time>
            <Position>
              <LatitudeDegrees>40.68996193818747997283935546875</LatitudeDegrees>
              <LongitudeDegrees>-3.82925259880721569061279296875</LongitudeDegrees>
            </Position>
            <AltitudeMeters>900.4000244140625</AltitudeMeters>
            <DistanceMeters>43021.593681805</DistanceMeters>
          </Trackpoint>
          <Trackpoint>
            <Time>2019-08-01T10:17:19.000Z</Time>
            <Position>
              <LatitudeDegrees>40.69000619463622570037841796875</LatitudeDegrees>
              <LongitudeDegrees>-3.82936692796647548675537109375</LongitudeDegrees>
            </Position>
            <AltitudeMeters>901.4000244140625</AltitudeMeters>
            <DistanceMeters>43032.427560779</DistanceMeters>
          </Trackpoint>
          <Trackpoint>
            <Time>2019-08-01T10:17:22.000Z</Time>
            <Position>
              <LatitudeDegrees>40.69005648605525493621826171875</LatitudeDegrees>
              <LongitudeDegrees>-3.82947823964059352874755859375</LongitudeDegrees>
            </Position>
            <AltitudeMeters>902.5999755859375</AltitudeMeters>
            <DistanceMeters>43043.363067276</DistanceMeters>
          </Trackpoint>
          <Trackpoint>
            <Time>2019-08-01T10:17:26.000Z</Time>
            <Position>
              <LatitudeDegrees>40.69012756459414958953857421875</LatitudeDegrees>
              <LongitudeDegrees>-3.8296246714890003204345703125</LongitudeDegrees>
            </Position>
            <AltitudeMeters>903.79998779296875</AltitudeMeters>
            <DistanceMeters>43058.036004357</DistanceMeters>
          </Trackpoint>
          <Trackpoint>
            <Time>2019-08-01T10:17:29.000Z</Time>
            <Position>
              <LatitudeDegrees>40.6901851482689380645751953125</LatitudeDegrees>
              <LongitudeDegrees>-3.829726763069629669189453125</LongitudeDegrees>
            </Position>
            <AltitudeMeters>905</AltitudeMeters>
            <DistanceMeters>43068.774443545</DistanceMeters>
          </Trackpoint>
          <Trackpoint>
            <Time>2019-08-01T10:17:35.000Z</Time>
            <Position>
              <LatitudeDegrees>40.690314732491970062255859375</LatitudeDegrees>
              <LongitudeDegrees>-3.82991996593773365020751953125</LongitudeDegrees>
            </Position>
            <AltitudeMeters>906.20001220703125</AltitudeMeters>
            <DistanceMeters>43090.543236613</DistanceMeters>
          </Trackpoint>
          <Trackpoint>
            <Time>2019-08-01T10:17:40.000Z</Time>
            <Position>
              <LatitudeDegrees>40.69040584377944469451904296875</LatitudeDegrees>
              <LongitudeDegrees>-3.830094896256923675537109375</LongitudeDegrees>
            </Position>
            <AltitudeMeters>907.20001220703125</AltitudeMeters>
            <DistanceMeters>43108.453440562</DistanceMeters>
          </Trackpoint>
          <Trackpoint>
            <Time>2019-08-01T10:17:45.000Z</Time>
            <Position>
              <LatitudeDegrees>40.6904879026114940643310546875</LatitudeDegrees>
              <LongitudeDegrees>-3.83027636446058750152587890625</LongitudeDegrees>
            </Position>
            <AltitudeMeters>908.4000244140625</AltitudeMeters>
            <DistanceMeters>43126.28481801</DistanceMeters>
          </Trackpoint>
          <Trackpoint>
            <Time>2019-08-01T10:17:50.000Z</Time>
            <Position>
              <LatitudeDegrees>40.69057515822350978851318359375</LatitudeDegrees>
              <LongitudeDegrees>-3.830445595085620880126953125</LongitudeDegrees>
            </Position>
            <AltitudeMeters>909.5999755859375</AltitudeMeters>
            <DistanceMeters>43143.555907007</DistanceMeters>
          </Trackpoint>
          <Trackpoint>
            <Time>2019-08-01T10:17:56.000Z</Time>
            <Position>
              <LatitudeDegrees>40.69068881683051586151123046875</LatitudeDegrees>
              <LongitudeDegrees>-3.83062019012868404388427734375</LongitudeDegrees>
            </Position>
            <AltitudeMeters>910.5999755859375</AltitudeMeters>
            <DistanceMeters>43162.976261607</DistanceMeters>
          </Trackpoint>
          <Trackpoint>
            <Time>2019-08-01T10:18:01.000Z</Time>
            <Position>
              <LatitudeDegrees>40.69076224230229854583740234375</LatitudeDegrees>
              <LongitudeDegrees>-3.830770812928676605224609375</LongitudeDegrees>
            </Position>
            <AltitudeMeters>911.79998779296875</AltitudeMeters>
            <DistanceMeters>43178.088795922</DistanceMeters>
          </Trackpoint>
          <Trackpoint>
            <Time>2019-08-01T10:18:07.000Z</Time>
            <Position>
              <LatitudeDegrees>40.69083298556506633758544921875</LatitudeDegrees>
              <LongitudeDegrees>-3.8309567235410213470458984375</LongitudeDegrees>
            </Position>
            <AltitudeMeters>913</AltitudeMeters>
            <DistanceMeters>43195.643550799</DistanceMeters>
          </Trackpoint>
          <Trackpoint>
            <Time>2019-08-01T10:18:13.000Z</Time>
            <Position>
              <LatitudeDegrees>40.6909217499196529388427734375</LatitudeDegrees>
              <LongitudeDegrees>-3.83119652979075908660888671875</LongitudeDegrees>
            </Position>
            <AltitudeMeters>914</AltitudeMeters>
            <DistanceMeters>43218.164280662</DistanceMeters>
          </Trackpoint>
          <Trackpoint>
            <Time>2019-08-01T10:18:19.000Z</Time>
            <Position>
              <LatitudeDegrees>40.69100632332265377044677734375</LatitudeDegrees>
              <LongitudeDegrees>-3.83144446648657321929931640625</LongitudeDegrees>
            </Position>
            <AltitudeMeters>915</AltitudeMeters>
            <DistanceMeters>43241.108460676</DistanceMeters>
          </Trackpoint>
          <Trackpoint>
            <Time>2019-08-01T10:18:24.000Z</Time>
            <Position>
              <LatitudeDegrees>40.69107639603316783905029296875</LatitudeDegrees>
              <LongitudeDegrees>-3.83165652863681316375732421875</LongitudeDegrees>
            </Position>
            <AltitudeMeters>916.20001220703125</AltitudeMeters>
            <DistanceMeters>43260.63061159</DistanceMeters>
          </Trackpoint>
          <Trackpoint>
            <Time>2019-08-01T10:18:29.000Z</Time>
            <Position>
              <LatitudeDegrees>40.691136159002780914306640625</LatitudeDegrees>
              <LongitudeDegrees>-3.8318743743002414703369140625</LongitudeDegrees>
            </Position>
            <AltitudeMeters>917.20001220703125</AltitudeMeters>
            <DistanceMeters>43280.181650843</DistanceMeters>
          </Trackpoint>
          <Trackpoint>
            <Time>2019-08-01T10:18:42.000Z</Time>
            <Position>
              <LatitudeDegrees>40.6913029588758945465087890625</LatitudeDegrees>
              <LongitudeDegrees>-3.83249647915363311767578125</LongitudeDegrees>
            </Position>
            <AltitudeMeters>918.4000244140625</AltitudeMeters>
            <DistanceMeters>43335.8687649</DistanceMeters>
          </Trackpoint>
          <Trackpoint>
            <Time>2019-08-01T10:18:48.000Z</Time>
            <Position>
              <LatitudeDegrees>40.6913965009152889251708984375</LatitudeDegrees>
              <LongitudeDegrees>-3.83277970366179943084716796875</LongitudeDegrees>
            </Position>
            <AltitudeMeters>919.4000244140625</AltitudeMeters>
            <DistanceMeters>43361.94005014</DistanceMeters>
          </Trackpoint>
          <Trackpoint>
            <Time>2019-08-01T10:18:54.000Z</Time>
            <Position>
              <LatitudeDegrees>40.691505968570709228515625</LatitudeDegrees>
              <LongitudeDegrees>-3.83303417824208736419677734375</LongitudeDegrees>
            </Position>
            <AltitudeMeters>920.5999755859375</AltitudeMeters>
            <DistanceMeters>43386.631274918</DistanceMeters>
          </Trackpoint>
          <Trackpoint>
            <Time>2019-08-01T10:19:01.000Z</Time>
            <Position>
              <LatitudeDegrees>40.69164552725851535797119140625</LatitudeDegrees>
              <LongitudeDegrees>-3.8333043269813060760498046875</LongitudeDegrees>
            </Position>
            <AltitudeMeters>921.79998779296875</AltitudeMeters>
            <DistanceMeters>43414.218333707</DistanceMeters>
          </Trackpoint>
          <Trackpoint>
            <Time>2019-08-01T10:19:05.000Z</Time>
            <Position>
              <LatitudeDegrees>40.6917260773479938507080078125</LatitudeDegrees>
              <LongitudeDegrees>-3.83345729671418666839599609375</LongitudeDegrees>
            </Position>
            <AltitudeMeters>922.79998779296875</AltitudeMeters>
            <DistanceMeters>43429.935419035</DistanceMeters>
          </Trackpoint>
          <Trackpoint>
            <Time>2019-08-01T10:19:10.000Z</Time>
            <Position>
              <LatitudeDegrees>40.69181903265416622161865234375</LatitudeDegrees>
              <LongitudeDegrees>-3.8336426205933094024658203125</LongitudeDegrees>
            </Position>
            <AltitudeMeters>923.79998779296875</AltitudeMeters>
            <DistanceMeters>43448.687731876</DistanceMeters>
          </Trackpoint>
          <Trackpoint>
            <Time>2019-08-01T10:19:14.000Z</Time>
            <Position>
              <LatitudeDegrees>40.6918989121913909912109375</LatitudeDegrees>
              <LongitudeDegrees>-3.83378393948078155517578125</LongitudeDegrees>
            </Position>
            <AltitudeMeters>925.20001220703125</AltitudeMeters>
            <DistanceMeters>43463.562979544</DistanceMeters>
          </Trackpoint>
          <Trackpoint>
            <Time>2019-08-01T10:19:17.000Z</Time>
            <Position>
              <LatitudeDegrees>40.6919644586741924285888671875</LatitudeDegrees>
              <LongitudeDegrees>-3.83388519287109375</LongitudeDegrees>
            </Position>
            <AltitudeMeters>926.20001220703125</AltitudeMeters>
            <DistanceMeters>43474.798657925</DistanceMeters>
          </Trackpoint>
          <Trackpoint>
            <Time>2019-08-01T10:19:26.000Z</Time>
            <Position>
              <LatitudeDegrees>40.69217006675899028778076171875</LatitudeDegrees>
              <LongitudeDegrees>-3.83413639850914478302001953125</LongitudeDegrees>
            </Position>
            <AltitudeMeters>927.20001220703125</AltitudeMeters>
            <DistanceMeters>43505.993483744</DistanceMeters>
          </Trackpoint>
          <Trackpoint>
            <Time>2019-08-01T10:19:34.000Z</Time>
            <Position>
              <LatitudeDegrees>40.6923151575028896331787109375</LatitudeDegrees>
              <LongitudeDegrees>-3.83431912399828433990478515625</LongitudeDegrees>
            </Position>
            <AltitudeMeters>928.79998779296875</AltitudeMeters>
            <DistanceMeters>43528.322133068</DistanceMeters>
          </Trackpoint>
          <Trackpoint>
            <Time>2019-08-01T10:19:35.000Z</Time>
            <Position>
              <LatitudeDegrees>40.692331083118915557861328125</LatitudeDegrees>
              <LongitudeDegrees>-3.83433890528976917266845703125</LongitudeDegrees>
            </Position>
            <AltitudeMeters>929.4000244140625</AltitudeMeters>
            <DistanceMeters>43530.7560045</DistanceMeters>
          </Trackpoint>
          <Trackpoint>
            <Time>2019-08-01T10:19:41.000Z</Time>
            <Position>
              <LatitudeDegrees>40.69242521189153194427490234375</LatitudeDegrees>
              <LongitudeDegrees>-3.83445491082966327667236328125</LongitudeDegrees>
            </Position>
            <AltitudeMeters>929.79998779296875</AltitudeMeters>
            <DistanceMeters>43545.094965779</DistanceMeters>
          </Trackpoint>
          <Trackpoint>
            <Time>2019-08-01T10:19:47.000Z</Time>
            <Position>
              <LatitudeDegrees>40.6924968771636486053466796875</LatitudeDegrees>
              <LongitudeDegrees>-3.83457577787339687347412109375</LongitudeDegrees>
            </Position>
            <AltitudeMeters>930.79998779296875</AltitudeMeters>
            <DistanceMeters>43558.043728631</DistanceMeters>
          </Trackpoint>
          <Trackpoint>
            <Time>2019-08-01T10:20:00.000Z</Time>
            <Position>
              <LatitudeDegrees>40.69264926016330718994140625</LatitudeDegrees>
              <LongitudeDegrees>-3.834818936884403228759765625</LongitudeDegrees>
            </Position>
            <AltitudeMeters>932.20001220703125</AltitudeMeters>
            <DistanceMeters>43584.666137236</DistanceMeters>
          </Trackpoint>
          <Trackpoint>
            <Time>2019-08-01T10:20:31.000Z</Time>
            <Position>
              <LatitudeDegrees>40.69284975528717041015625</LatitudeDegrees>
              <LongitudeDegrees>-3.835346661508083343505859375</LongitudeDegrees>
            </Position>
            <AltitudeMeters>931</AltitudeMeters>
            <DistanceMeters>43634.479536097</DistanceMeters>
          </Trackpoint>
          <Trackpoint>
            <Time>2019-08-01T10:20:39.000Z</Time>
            <Position>
              <LatitudeDegrees>40.6928938440978527069091796875</LatitudeDegrees>
              <LongitudeDegrees>-3.83550834842026233673095703125</LongitudeDegrees>
            </Position>
            <AltitudeMeters>930</AltitudeMeters>
            <DistanceMeters>43648.979753334</DistanceMeters>
          </Trackpoint>
          <Trackpoint>
            <Time>2019-08-01T10:20:45.000Z</Time>
            <Position>
              <LatitudeDegrees>40.69293466396629810333251953125</LatitudeDegrees>
              <LongitudeDegrees>-3.8356455601751804351806640625</LongitudeDegrees>
            </Position>
            <AltitudeMeters>928.79998779296875</AltitudeMeters>
            <DistanceMeters>43661.418456232</DistanceMeters>
          </Trackpoint>
          <Trackpoint>
            <Time>2019-08-01T10:21:01.000Z</Time>
            <Position>
              <LatitudeDegrees>40.69306491874158382415771484375</LatitudeDegrees>
              <LongitudeDegrees>-3.836040683090686798095703125</LongitudeDegrees>
            </Position>
            <AltitudeMeters>927.79998779296875</AltitudeMeters>
            <DistanceMeters>43697.778314754</DistanceMeters>
          </Trackpoint>
          <Trackpoint>
            <Time>2019-08-01T10:21:18.000Z</Time>
            <Position>
              <LatitudeDegrees>40.69319249130785465240478515625</LatitudeDegrees>
              <LongitudeDegrees>-3.83648886345326900482177734375</LongitudeDegrees>
            </Position>
            <AltitudeMeters>926.79998779296875</AltitudeMeters>
            <DistanceMeters>43738.177969911</DistanceMeters>
          </Trackpoint>
          <Trackpoint>
            <Time>2019-08-01T10:21:33.000Z</Time>
            <Position>
              <LatitudeDegrees>40.69330849684774875640869140625</LatitudeDegrees>
              <LongitudeDegrees>-3.83686688728630542755126953125</LongitudeDegrees>
            </Position>
            <AltitudeMeters>925.5999755859375</AltitudeMeters>
            <DistanceMeters>43772.593387193</DistanceMeters>
          </Trackpoint>
          <Trackpoint>
            <Time>2019-08-01T10:21:44.000Z</Time>
            <Position>
              <LatitudeDegrees>40.69338913075625896453857421875</LatitudeDegrees>
              <LongitudeDegrees>-3.83713175542652606964111328125</LongitudeDegrees>
            </Position>
            <AltitudeMeters>924.20001220703125</AltitudeMeters>
            <DistanceMeters>43796.680175718</DistanceMeters>
          </Trackpoint>
          <Trackpoint>
            <Time>2019-08-01T10:22:05.000Z</Time>
            <Position>
              <LatitudeDegrees>40.6935784779489040374755859375</LatitudeDegrees>
              <LongitudeDegrees>-3.83770055137574672698974609375</LongitudeDegrees>
            </Position>
            <AltitudeMeters>925.4000244140625</AltitudeMeters>
            <DistanceMeters>43849.103581416</DistanceMeters>
          </Trackpoint>
          <Trackpoint>
            <Time>2019-08-01T10:22:13.000Z</Time>
            <Position>
              <LatitudeDegrees>40.6936730258166790008544921875</LatitudeDegrees>
              <LongitudeDegrees>-3.8379130326211452484130859375</LongitudeDegrees>
            </Position>
            <AltitudeMeters>926.20001220703125</AltitudeMeters>
            <DistanceMeters>43869.894679496</DistanceMeters>
          </Trackpoint>
          <Trackpoint>
            <Time>2019-08-01T10:22:35.000Z</Time>
            <Position>
              <LatitudeDegrees>40.69392926059663295745849609375</LatitudeDegrees>
              <LongitudeDegrees>-3.83853857405483722686767578125</LongitudeDegrees>
            </Position>
            <AltitudeMeters>927.20001220703125</AltitudeMeters>
            <DistanceMeters>43929.895227212</DistanceMeters>
          </Trackpoint>
          <Trackpoint>
            <Time>2019-08-01T10:22:50.000Z</Time>
            <Position>
              <LatitudeDegrees>40.69403504021465778350830078125</LatitudeDegrees>
              <LongitudeDegrees>-3.83899823762476444244384765625</LongitudeDegrees>
            </Position>
            <AltitudeMeters>925.79998779296875</AltitudeMeters>
            <DistanceMeters>43970.433449815</DistanceMeters>
          </Trackpoint>
          <Trackpoint>
            <Time>2019-08-01T10:22:54.000Z</Time>
            <Position>
              <LatitudeDegrees>40.69404694251716136932373046875</LatitudeDegrees>
              <LongitudeDegrees>-3.83912396617233753204345703125</LongitudeDegrees>
            </Position>
            <AltitudeMeters>924.20001220703125</AltitudeMeters>
            <DistanceMeters>43981.126383366</DistanceMeters>
          </Trackpoint>
          <Trackpoint>
            <Time>2019-08-01T10:22:59.000Z</Time>
            <Position>
              <LatitudeDegrees>40.6940579228103160858154296875</LatitudeDegrees>
              <LongitudeDegrees>-3.83928070776164531707763671875</LongitudeDegrees>
            </Position>
            <AltitudeMeters>922.79998779296875</AltitudeMeters>
            <DistanceMeters>43994.409744903</DistanceMeters>
          </Trackpoint>
          <Trackpoint>
            <Time>2019-08-01T10:23:02.000Z</Time>
            <Position>
              <LatitudeDegrees>40.6940642930567264556884765625</LatitudeDegrees>
              <LongitudeDegrees>-3.8393738307058811187744140625</LongitudeDegrees>
            </Position>
            <AltitudeMeters>921.79998779296875</AltitudeMeters>
            <DistanceMeters>44002.299823927</DistanceMeters>
          </Trackpoint>
          <Trackpoint>
            <Time>2019-08-01T10:23:05.000Z</Time>
            <Position>
              <LatitudeDegrees>40.694078542292118072509765625</LatitudeDegrees>
              <LongitudeDegrees>-3.8394650258123874664306640625</LongitudeDegrees>
            </Position>
            <AltitudeMeters>920.79998779296875</AltitudeMeters>
            <DistanceMeters>44010.157792031</DistanceMeters>
          </Trackpoint>
          <Trackpoint>
            <Time>2019-08-01T10:23:08.000Z</Time>
            <Position>
              <LatitudeDegrees>40.69409689866006374359130859375</LatitudeDegrees>
              <LongitudeDegrees>-3.839555047452449798583984375</LongitudeDegrees>
            </Position>
            <AltitudeMeters>919.5999755859375</AltitudeMeters>
            <DistanceMeters>44018.023800154</DistanceMeters>
          </Trackpoint>
          <Trackpoint>
            <Time>2019-08-01T10:23:12.000Z</Time>
            <Position>
              <LatitudeDegrees>40.69410461001098155975341796875</LatitudeDegrees>
              <LongitudeDegrees>-3.83967516012489795684814453125</LongitudeDegrees>
            </Position>
            <AltitudeMeters>918.5999755859375</AltitudeMeters>
            <DistanceMeters>44028.196541969</DistanceMeters>
          </Trackpoint>
          <Trackpoint>
            <Time>2019-08-01T10:23:16.000Z</Time>
            <Position>
              <LatitudeDegrees>40.694120116531848907470703125</LatitudeDegrees>
              <LongitudeDegrees>-3.839795775711536407470703125</LongitudeDegrees>
            </Position>
            <AltitudeMeters>917.5999755859375</AltitudeMeters>
            <DistanceMeters>44038.519960114</DistanceMeters>
          </Trackpoint>
          <Trackpoint>
            <Time>2019-08-01T10:23:20.000Z</Time>
            <Position>
              <LatitudeDegrees>40.69414299912750720977783203125</LatitudeDegrees>
              <LongitudeDegrees>-3.83991069160401821136474609375</LongitudeDegrees>
            </Position>
            <AltitudeMeters>916.20001220703125</AltitudeMeters>
            <DistanceMeters>44048.546967201</DistanceMeters>
          </Trackpoint>
          <Trackpoint>
            <Time>2019-08-01T10:23:23.000Z</Time>
            <Position>
              <LatitudeDegrees>40.69415934383869171142578125</LatitudeDegrees>
              <LongitudeDegrees>-3.8399934209883213043212890625</LongitudeDegrees>
            </Position>
            <AltitudeMeters>915</AltitudeMeters>
            <DistanceMeters>44055.761491484</DistanceMeters>
          </Trackpoint>
          <Trackpoint>
            <Time>2019-08-01T10:23:26.000Z</Time>
            <Position>
              <LatitudeDegrees>40.69417082704603672027587890625</LatitudeDegrees>
              <LongitudeDegrees>-3.84007464163005352020263671875</LongitudeDegrees>
            </Position>
            <AltitudeMeters>914</AltitudeMeters>
            <DistanceMeters>44062.73349991</DistanceMeters>
          </Trackpoint>
          <Trackpoint>
            <Time>2019-08-01T10:23:29.000Z</Time>
            <Position>
              <LatitudeDegrees>40.694183148443698883056640625</LatitudeDegrees>
              <LongitudeDegrees>-3.84015644900500774383544921875</LongitudeDegrees>
            </Position>
            <AltitudeMeters>912.79998779296875</AltitudeMeters>
            <DistanceMeters>44069.771894569</DistanceMeters>
          </Trackpoint>
          <Trackpoint>
            <Time>2019-08-01T10:23:32.000Z</Time>
            <Position>
              <LatitudeDegrees>40.6942017562687397003173828125</LatitudeDegrees>
              <LongitudeDegrees>-3.8402361609041690826416015625</LongitudeDegrees>
            </Position>
            <AltitudeMeters>911.4000244140625</AltitudeMeters>
            <DistanceMeters>44076.810289228</DistanceMeters>
          </Trackpoint>
          <Trackpoint>
            <Time>2019-08-01T10:23:36.000Z</Time>
            <Position>
              <LatitudeDegrees>40.69422782398760318756103515625</LatitudeDegrees>
              <LongitudeDegrees>-3.8403444550931453704833984375</LongitudeDegrees>
            </Position>
            <AltitudeMeters>910.20001220703125</AltitudeMeters>
            <DistanceMeters>44086.398574177</DistanceMeters>
          </Trackpoint>
          <Trackpoint>
            <Time>2019-08-01T10:23:42.000Z</Time>
            <Position>
              <LatitudeDegrees>40.6942721642553806304931640625</LatitudeDegrees>
              <LongitudeDegrees>-3.84052592329680919647216796875</LongitudeDegrees>
            </Position>
            <AltitudeMeters>909</AltitudeMeters>
            <DistanceMeters>44102.488143205</DistanceMeters>
          </Trackpoint>
          <Trackpoint>
            <Time>2019-08-01T10:23:56.000Z</Time>
            <Position>
              <LatitudeDegrees>40.69443468935787677764892578125</LatitudeDegrees>
              <LongitudeDegrees>-3.8409167714416980743408203125</LongitudeDegrees>
            </Position>
            <AltitudeMeters>909.20001220703125</AltitudeMeters>
            <DistanceMeters>44140.106361793</DistanceMeters>
          </Trackpoint>
          <Trackpoint>
            <Time>2019-08-01T10:24:01.000Z</Time>
            <Position>
              <LatitudeDegrees>40.69450962357223033905029296875</LatitudeDegrees>
              <LongitudeDegrees>-3.8410495407879352569580078125</LongitudeDegrees>
            </Position>
            <AltitudeMeters>909.79998779296875</AltitudeMeters>
            <DistanceMeters>44154.074319112</DistanceMeters>
          </Trackpoint>
          <Trackpoint>
            <Time>2019-08-01T10:24:05.000Z</Time>
            <Position>
              <LatitudeDegrees>40.69456301629543304443359375</LatitudeDegrees>
              <LongitudeDegrees>-3.84115825407207012176513671875</LongitudeDegrees>
            </Position>
            <AltitudeMeters>910.79998779296875</AltitudeMeters>
            <DistanceMeters>44165.005282999</DistanceMeters>
          </Trackpoint>
          <Trackpoint>
            <Time>2019-08-01T10:24:09.000Z</Time>
            <Position>
              <LatitudeDegrees>40.69461724720895290374755859375</LatitudeDegrees>
              <LongitudeDegrees>-3.84126059710979461669921875</LongitudeDegrees>
            </Position>
            <AltitudeMeters>912</AltitudeMeters>
            <DistanceMeters>44175.542113162</DistanceMeters>
          </Trackpoint>
          <Trackpoint>
            <Time>2019-08-01T10:24:14.000Z</Time>
            <Position>
              <LatitudeDegrees>40.69468949921429157257080078125</LatitudeDegrees>
              <LongitudeDegrees>-3.84139512665569782257080078125</LongitudeDegrees>
            </Position>
            <AltitudeMeters>913.20001220703125</AltitudeMeters>
            <DistanceMeters>44189.454361668</DistanceMeters>
          </Trackpoint>
          <Trackpoint>
            <Time>2019-08-01T10:24:18.000Z</Time>
            <Position>
              <LatitudeDegrees>40.6947474181652069091796875</LatitudeDegrees>
              <LongitudeDegrees>-3.841505683958530426025390625</LongitudeDegrees>
            </Position>
            <AltitudeMeters>914</AltitudeMeters>
            <DistanceMeters>44200.794437446</DistanceMeters>
          </Trackpoint>
          <Trackpoint>
            <Time>2019-08-01T10:24:21.000Z</Time>
            <Position>
              <LatitudeDegrees>40.69478589110076427459716796875</LatitudeDegrees>
              <LongitudeDegrees>-3.841591514647006988525390625</LongitudeDegrees>
            </Position>
            <AltitudeMeters>915.4000244140625</AltitudeMeters>
            <DistanceMeters>44209.208461413</DistanceMeters>
          </Trackpoint>
          <Trackpoint>
            <Time>2019-08-01T10:24:24.000Z</Time>
            <Position>
              <LatitudeDegrees>40.6948226876556873321533203125</LatitudeDegrees>
              <LongitudeDegrees>-3.841677345335483551025390625</LongitudeDegrees>
            </Position>
            <AltitudeMeters>916.5999755859375</AltitudeMeters>
            <DistanceMeters>44217.529134228</DistanceMeters>
          </Trackpoint>
          <Trackpoint>
            <Time>2019-08-01T10:24:27.000Z</Time>
            <Position>
              <LatitudeDegrees>40.69485512562096118927001953125</LatitudeDegrees>
              <LongitudeDegrees>-3.84176560677587985992431640625</LongitudeDegrees>
            </Position>
            <AltitudeMeters>917.4000244140625</AltitudeMeters>
            <DistanceMeters>44225.80573739</DistanceMeters>
          </Trackpoint>
          <Trackpoint>
            <Time>2019-08-01T10:24:29.000Z</Time>
            <Position>
              <LatitudeDegrees>40.69487758912146091461181640625</LatitudeDegrees>
              <LongitudeDegrees>-3.84182394482195377349853515625</LongitudeDegrees>
            </Position>
            <AltitudeMeters>918.4000244140625</AltitudeMeters>
            <DistanceMeters>44231.327108422</DistanceMeters>
          </Trackpoint>
          <Trackpoint>
            <Time>2019-08-01T10:24:32.000Z</Time>
            <Position>
              <LatitudeDegrees>40.69491212256252765655517578125</LatitudeDegrees>
              <LongitudeDegrees>-3.84191329590976238250732421875</LongitudeDegrees>
            </Position>
            <AltitudeMeters>919.79998779296875</AltitudeMeters>
            <DistanceMeters>44239.790356401</DistanceMeters>
          </Trackpoint>
          <Trackpoint>
            <Time>2019-08-01T10:24:35.000Z</Time>
            <Position>
              <LatitudeDegrees>40.69494984112679958343505859375</LatitudeDegrees>
              <LongitudeDegrees>-3.84200164116919040679931640625</LongitudeDegrees>
            </Position>
            <AltitudeMeters>921</AltitudeMeters>
            <DistanceMeters>44248.345927665</DistanceMeters>
          </Trackpoint>
          <Trackpoint>
            <Time>2019-08-01T10:24:38.000Z</Time>
            <Position>
              <LatitudeDegrees>40.69498185999691486358642578125</LatitudeDegrees>
              <LongitudeDegrees>-3.84209610521793365478515625</LongitudeDegrees>
            </Position>
            <AltitudeMeters>922.4000244140625</AltitudeMeters>
            <DistanceMeters>44257.078050288</DistanceMeters>
          </Trackpoint>
          <Trackpoint>
            <Time>2019-08-01T10:24:41.000Z</Time>
            <Position>
              <LatitudeDegrees>40.6950148008763790130615234375</LatitudeDegrees>
              <LongitudeDegrees>-3.842191994190216064453125</LongitudeDegrees>
            </Position>
            <AltitudeMeters>923.5999755859375</AltitudeMeters>
            <DistanceMeters>44265.961396394</DistanceMeters>
          </Trackpoint>
          <Trackpoint>
            <Time>2019-08-01T10:24:43.000Z</Time>
            <Position>
              <LatitudeDegrees>40.695037432014942169189453125</LatitudeDegrees>
              <LongitudeDegrees>-3.84225510992109775543212890625</LongitudeDegrees>
            </Position>
            <AltitudeMeters>924.79998779296875</AltitudeMeters>
            <DistanceMeters>44271.853818979</DistanceMeters>
          </Trackpoint>
          <Trackpoint>
            <Time>2019-08-01T10:24:46.000Z</Time>
            <Position>
              <LatitudeDegrees>40.695068277418613433837890625</LatitudeDegrees>
              <LongitudeDegrees>-3.8423497416079044342041015625</LongitudeDegrees>
            </Position>
            <AltitudeMeters>925.79998779296875</AltitudeMeters>
            <DistanceMeters>44280.545517291</DistanceMeters>
          </Trackpoint>
          <Trackpoint>
            <Time>2019-08-01T10:24:49.000Z</Time>
            <Position>
              <LatitudeDegrees>40.6951002962887287139892578125</LatitudeDegrees>
              <LongitudeDegrees>-3.8424436189234256744384765625</LongitudeDegrees>
            </Position>
            <AltitudeMeters>927</AltitudeMeters>
            <DistanceMeters>44289.232019392</DistanceMeters>
          </Trackpoint>
          <Trackpoint>
            <Time>2019-08-01T10:24:52.000Z</Time>
            <Position>
              <LatitudeDegrees>40.69512762129306793212890625</LatitudeDegrees>
              <LongitudeDegrees>-3.84254059754312038421630859375</LongitudeDegrees>
            </Position>
            <AltitudeMeters>928.4000244140625</AltitudeMeters>
            <DistanceMeters>44297.963107832</DistanceMeters>
          </Trackpoint>
          <Trackpoint>
            <Time>2019-08-01T10:24:56.000Z</Time>
            <Position>
              <LatitudeDegrees>40.695164166390895843505859375</LatitudeDegrees>
              <LongitudeDegrees>-3.84266112931072711944580078125</LongitudeDegrees>
            </Position>
            <AltitudeMeters>929.5999755859375</AltitudeMeters>
            <DistanceMeters>44308.918002443</DistanceMeters>
          </Trackpoint>
          <Trackpoint>
            <Time>2019-08-01T10:25:00.000Z</Time>
            <Position>
              <LatitudeDegrees>40.69519643671810626983642578125</LatitudeDegrees>
              <LongitudeDegrees>-3.842786438763141632080078125</LongitudeDegrees>
            </Position>
            <AltitudeMeters>930.79998779296875</AltitudeMeters>
            <DistanceMeters>44320.085966261</DistanceMeters>
          </Trackpoint>
          <Trackpoint>
            <Time>2019-08-01T10:25:04.000Z</Time>
            <Position>
              <LatitudeDegrees>40.695231221616268157958984375</LatitudeDegrees>
              <LongitudeDegrees>-3.8429093174636363983154296875</LongitudeDegrees>
            </Position>
            <AltitudeMeters>932</AltitudeMeters>
            <DistanceMeters>44331.154029192</DistanceMeters>
          </Trackpoint>
          <Trackpoint>
            <Time>2019-08-01T10:25:09.000Z</Time>
            <Position>
              <LatitudeDegrees>40.69527137093245983123779296875</LatitudeDegrees>
              <LongitudeDegrees>-3.84304703213274478912353515625</LongitudeDegrees>
            </Position>
            <AltitudeMeters>933.20001220703125</AltitudeMeters>
            <DistanceMeters>44343.605067397</DistanceMeters>
          </Trackpoint>
          <Trackpoint>
            <Time>2019-08-01T10:25:13.000Z</Time>
            <Position>
              <LatitudeDegrees>40.69530104286968708038330078125</LatitudeDegrees>
              <LongitudeDegrees>-3.84315264411270618438720703125</LongitudeDegrees>
            </Position>
            <AltitudeMeters>934.4000244140625</AltitudeMeters>
            <DistanceMeters>44353.109639179</DistanceMeters>
          </Trackpoint>
          <Trackpoint>
            <Time>2019-08-01T10:25:16.000Z</Time>
            <Position>
              <LatitudeDegrees>40.69532208144664764404296875</LatitudeDegrees>
              <LongitudeDegrees>-3.8432362116873264312744140625</LongitudeDegrees>
            </Position>
            <AltitudeMeters>935.79998779296875</AltitudeMeters>
            <DistanceMeters>44360.54058242</DistanceMeters>
          </Trackpoint>
          <Trackpoint>
            <Time>2019-08-01T10:25:20.000Z</Time>
            <Position>
              <LatitudeDegrees>40.69535267539322376251220703125</LatitudeDegrees>
              <LongitudeDegrees>-3.84333788417279720306396484375</LongitudeDegrees>
            </Position>
            <AltitudeMeters>937</AltitudeMeters>
            <DistanceMeters>44369.771389607</DistanceMeters>
          </Trackpoint>
          <Trackpoint>
            <Time>2019-08-01T10:25:23.000Z</Time>
            <Position>
              <LatitudeDegrees>40.6953750550746917724609375</LatitudeDegrees>
              <LongitudeDegrees>-3.84342187084257602691650390625</LongitudeDegrees>
            </Position>
            <AltitudeMeters>938.20001220703125</AltitudeMeters>
            <DistanceMeters>44377.283911006</DistanceMeters>
          </Trackpoint>
          <Trackpoint>
            <Time>2019-08-01T10:25:27.000Z</Time>
            <Position>
              <LatitudeDegrees>40.69540011696517467498779296875</LatitudeDegrees>
              <LongitudeDegrees>-3.84351675398647785186767578125</LongitudeDegrees>
            </Position>
            <AltitudeMeters>939</AltitudeMeters>
            <DistanceMeters>44385.76314851</DistanceMeters>
          </Trackpoint>
          <Trackpoint>
            <Time>2019-08-01T10:25:33.000Z</Time>
            <Position>
              <LatitudeDegrees>40.69543230347335338592529296875</LatitudeDegrees>
              <LongitudeDegrees>-3.84363812394440174102783203125</LongitudeDegrees>
            </Position>
            <AltitudeMeters>940.20001220703125</AltitudeMeters>
            <DistanceMeters>44396.613684749</DistanceMeters>
          </Trackpoint>
          <Trackpoint>
            <Time>2019-08-01T10:26:08.000Z</Time>
            <Position>
              <LatitudeDegrees>40.69554881192743778228759765625</LatitudeDegrees>
              <LongitudeDegrees>-3.84434052743017673492431640625</LongitudeDegrees>
            </Position>
            <AltitudeMeters>940</AltitudeMeters>
            <DistanceMeters>44457.289711534</DistanceMeters>
          </Trackpoint>
          <Trackpoint>
            <Time>2019-08-01T10:26:38.000Z</Time>
            <Position>
              <LatitudeDegrees>40.6957027874886989593505859375</LatitudeDegrees>
              <LongitudeDegrees>-3.8450373150408267974853515625</LongitudeDegrees>
            </Position>
            <AltitudeMeters>940</AltitudeMeters>
            <DistanceMeters>44518.536400958</DistanceMeters>
          </Trackpoint>
          <Trackpoint>
            <Time>2019-08-01T10:26:40.000Z</Time>
            <Position>
              <LatitudeDegrees>40.69571745581924915313720703125</LatitudeDegrees>
              <LongitudeDegrees>-3.84508718736469745635986328125</LongitudeDegrees>
            </Position>
            <AltitudeMeters>940.5999755859375</AltitudeMeters>
            <DistanceMeters>44523.049919813</DistanceMeters>
          </Trackpoint>
          <Trackpoint>
            <Time>2019-08-01T10:26:45.000Z</Time>
            <Position>
              <LatitudeDegrees>40.69575718604028224945068359375</LatitudeDegrees>
              <LongitudeDegrees>-3.84519942104816436767578125</LongitudeDegrees>
            </Position>
            <AltitudeMeters>941.5999755859375</AltitudeMeters>
            <DistanceMeters>44533.502858394</DistanceMeters>
          </Trackpoint>
          <Trackpoint>
            <Time>2019-08-01T10:26:52.000Z</Time>
            <Position>
              <LatitudeDegrees>40.69580781273543834686279296875</LatitudeDegrees>
              <LongitudeDegrees>-3.845370747148990631103515625</LongitudeDegrees>
            </Position>
            <AltitudeMeters>942.5999755859375</AltitudeMeters>
            <DistanceMeters>44549.01987996</DistanceMeters>
          </Trackpoint>
          <Trackpoint>
            <Time>2019-08-01T10:26:59.000Z</Time>
            <Position>
              <LatitudeDegrees>40.69586254656314849853515625</LatitudeDegrees>
              <LongitudeDegrees>-3.84554785676300525665283203125</LongitudeDegrees>
            </Position>
            <AltitudeMeters>943.79998779296875</AltitudeMeters>
            <DistanceMeters>44565.159321869</DistanceMeters>
          </Trackpoint>
          <Trackpoint>
            <Time>2019-08-01T10:27:11.000Z</Time>
            <Position>
              <LatitudeDegrees>40.695919878780841827392578125</LatitudeDegrees>
              <LongitudeDegrees>-3.84587039239704608917236328125</LongitudeDegrees>
            </Position>
            <AltitudeMeters>944.79998779296875</AltitudeMeters>
            <DistanceMeters>44593.11527036</DistanceMeters>
          </Trackpoint>
          <Trackpoint>
            <Time>2019-08-01T10:27:16.000Z</Time>
            <Position>
              <LatitudeDegrees>40.69595952518284320831298828125</LatitudeDegrees>
              <LongitudeDegrees>-3.84600416757166385650634765625</LongitudeDegrees>
            </Position>
            <AltitudeMeters>946</AltitudeMeters>
            <DistanceMeters>44605.236299349</DistanceMeters>
          </Trackpoint>
          <Trackpoint>
            <Time>2019-08-01T10:27:21.000Z</Time>
            <Position>
              <LatitudeDegrees>40.69599020294845104217529296875</LatitudeDegrees>
              <LongitudeDegrees>-3.84614900685846805572509765625</LongitudeDegrees>
            </Position>
            <AltitudeMeters>947</AltitudeMeters>
            <DistanceMeters>44617.926902699</DistanceMeters>
          </Trackpoint>
          <Trackpoint>
            <Time>2019-08-01T10:27:35.000Z</Time>
            <Position>
              <LatitudeDegrees>40.6960440985858440399169921875</LatitudeDegrees>
              <LongitudeDegrees>-3.84655603207647800445556640625</LongitudeDegrees>
            </Position>
            <AltitudeMeters>947.79998779296875</AltitudeMeters>
            <DistanceMeters>44652.794456124</DistanceMeters>
          </Trackpoint>
          <Trackpoint>
            <Time>2019-08-01T10:27:43.000Z</Time>
            <Position>
              <LatitudeDegrees>40.696054659783840179443359375</LatitudeDegrees>
              <LongitudeDegrees>-3.84678787551820278167724609375</LongitudeDegrees>
            </Position>
            <AltitudeMeters>946.5999755859375</AltitudeMeters>
            <DistanceMeters>44672.393931931</DistanceMeters>
          </Trackpoint>
          <Trackpoint>
            <Time>2019-08-01T10:27:54.000Z</Time>
            <Position>
              <LatitudeDegrees>40.69607988931238651275634765625</LatitudeDegrees>
              <LongitudeDegrees>-3.8471800647675991058349609375</LongitudeDegrees>
            </Position>
            <AltitudeMeters>945.4000244140625</AltitudeMeters>
            <DistanceMeters>44705.608317506</DistanceMeters>
          </Trackpoint>
          <Trackpoint>
            <Time>2019-08-01T10:28:03.000Z</Time>
            <Position>
              <LatitudeDegrees>40.69609028287231922149658203125</LatitudeDegrees>
              <LongitudeDegrees>-3.84752967394888401031494140625</LongitudeDegrees>
            </Position>
            <AltitudeMeters>944.20001220703125</AltitudeMeters>
            <DistanceMeters>44735.133348574</DistanceMeters>
          </Trackpoint>
          <Trackpoint>
            <Time>2019-08-01T10:28:16.000Z</Time>
            <Position>
              <LatitudeDegrees>40.696077458560466766357421875</LatitudeDegrees>
              <LongitudeDegrees>-3.84800945408642292022705078125</LongitudeDegrees>
            </Position>
            <AltitudeMeters>943.20001220703125</AltitudeMeters>
            <DistanceMeters>44775.645611951</DistanceMeters>
          </Trackpoint>
          <Trackpoint>
            <Time>2019-08-01T10:28:26.000Z</Time>
            <Position>
              <LatitudeDegrees>40.6960712559521198272705078125</LatitudeDegrees>
              <LongitudeDegrees>-3.8483612425625324249267578125</LongitudeDegrees>
            </Position>
            <AltitudeMeters>941.79998779296875</AltitudeMeters>
            <DistanceMeters>44805.339901713</DistanceMeters>
          </Trackpoint>
          <Trackpoint>
            <Time>2019-08-01T10:28:35.000Z</Time>
            <Position>
              <LatitudeDegrees>40.696075446903705596923828125</LatitudeDegrees>
              <LongitudeDegrees>-3.84868084453046321868896484375</LongitudeDegrees>
            </Position>
            <AltitudeMeters>940.4000244140625</AltitudeMeters>
            <DistanceMeters>44832.314101229</DistanceMeters>
          </Trackpoint>
          <Trackpoint>
            <Time>2019-08-01T10:28:45.000Z</Time>
            <Position>
              <LatitudeDegrees>40.69608986377716064453125</LatitudeDegrees>
              <LongitudeDegrees>-3.84902852587401866912841796875</LongitudeDegrees>
            </Position>
            <AltitudeMeters>939.4000244140625</AltitudeMeters>
            <DistanceMeters>44861.697645928</DistanceMeters>
          </Trackpoint>
          <Trackpoint>
            <Time>2019-08-01T10:28:52.000Z</Time>
            <Position>
              <LatitudeDegrees>40.6960907019674777984619140625</LatitudeDegrees>
              <LongitudeDegrees>-3.84927545674145221710205078125</LongitudeDegrees>
            </Position>
            <AltitudeMeters>937.79998779296875</AltitudeMeters>
            <DistanceMeters>44882.535598223</DistanceMeters>
          </Trackpoint>
          <Trackpoint>
            <Time>2019-08-01T10:28:57.000Z</Time>
            <Position>
              <LatitudeDegrees>40.69608156569302082061767578125</LatitudeDegrees>
              <LongitudeDegrees>-3.84945030324161052703857421875</LongitudeDegrees>
            </Position>
            <AltitudeMeters>936.5999755859375</AltitudeMeters>
            <DistanceMeters>44897.325614173</DistanceMeters>
          </Trackpoint>
          <Trackpoint>
            <Time>2019-08-01T10:29:03.000Z</Time>
            <Position>
              <LatitudeDegrees>40.69607670418918132781982421875</LatitudeDegrees>
              <LongitudeDegrees>-3.84965850971639156341552734375</LongitudeDegrees>
            </Position>
            <AltitudeMeters>935.4000244140625</AltitudeMeters>
            <DistanceMeters>44914.903758437</DistanceMeters>
          </Trackpoint>
          <Trackpoint>
            <Time>2019-08-01T10:29:14.000Z</Time>
            <Position>
              <LatitudeDegrees>40.69609950296580791473388671875</LatitudeDegrees>
              <LongitudeDegrees>-3.8500268943607807159423828125</LongitudeDegrees>
            </Position>
            <AltitudeMeters>934.20001220703125</AltitudeMeters>
            <DistanceMeters>44946.093807577</DistanceMeters>
          </Trackpoint>
          <Trackpoint>
            <Time>2019-08-01T10:29:21.000Z</Time>
            <Position>
              <LatitudeDegrees>40.6961138360202312469482421875</LatitudeDegrees>
              <LongitudeDegrees>-3.8502568937838077545166015625</LongitudeDegrees>
            </Position>
            <AltitudeMeters>932.79998779296875</AltitudeMeters>
            <DistanceMeters>44965.568025161</DistanceMeters>
          </Trackpoint>
          <Trackpoint>
            <Time>2019-08-01T10:29:27.000Z</Time>
            <Position>
              <LatitudeDegrees>40.6961145065724849700927734375</LatitudeDegrees>
              <LongitudeDegrees>-3.8504506833851337432861328125</LongitudeDegrees>
            </Position>
            <AltitudeMeters>932</AltitudeMeters>
            <DistanceMeters>44981.920905146</DistanceMeters>
          </Trackpoint>
          <Trackpoint>
            <Time>2019-08-01T10:29:28.000Z</Time>
            <Position>
              <LatitudeDegrees>40.6961145065724849700927734375</LatitudeDegrees>
              <LongitudeDegrees>-3.85048362426459789276123046875</LongitudeDegrees>
            </Position>
            <AltitudeMeters>931.79998779296875</AltitudeMeters>
            <DistanceMeters>44984.70114712</DistanceMeters>
          </Trackpoint>
          <Trackpoint>
            <Time>2019-08-01T10:29:38.000Z</Time>
            <Position>
              <LatitudeDegrees>40.69612481631338596343994140625</LatitudeDegrees>
              <LongitudeDegrees>-3.85081839747726917266845703125</LongitudeDegrees>
            </Position>
            <AltitudeMeters>930.4000244140625</AltitudeMeters>
            <DistanceMeters>45012.974748717</DistanceMeters>
          </Trackpoint>
          <Trackpoint>
            <Time>2019-08-01T10:29:44.000Z</Time>
            <Position>
              <LatitudeDegrees>40.696129761636257171630859375</LatitudeDegrees>
              <LongitudeDegrees>-3.8510124385356903076171875</LongitudeDegrees>
            </Position>
            <AltitudeMeters>929.20001220703125</AltitudeMeters>
            <DistanceMeters>45029.358522775</DistanceMeters>
          </Trackpoint>
          <Trackpoint>
            <Time>2019-08-01T10:30:06.000Z</Time>
            <Position>
              <LatitudeDegrees>40.69612565450370311737060546875</LatitudeDegrees>
              <LongitudeDegrees>-3.8517232239246368408203125</LongitudeDegrees>
            </Position>
            <AltitudeMeters>928.79998779296875</AltitudeMeters>
            <DistanceMeters>45089.34115833</DistanceMeters>
          </Trackpoint>
          <Trackpoint>
            <Time>2019-08-01T10:30:27.000Z</Time>
            <Position>
              <LatitudeDegrees>40.696127079427242279052734375</LatitudeDegrees>
              <LongitudeDegrees>-3.85245806537568569183349609375</LongitudeDegrees>
            </Position>
            <AltitudeMeters>928.5999755859375</AltitudeMeters>
            <DistanceMeters>45151.352187615</DistanceMeters>
          </Trackpoint>
          <Trackpoint>
            <Time>2019-08-01T10:30:44.000Z</Time>
            <Position>
              <LatitudeDegrees>40.69612733088433742523193359375</LatitudeDegrees>
              <LongitudeDegrees>-3.85304966010153293609619140625</LongitudeDegrees>
            </Position>
            <AltitudeMeters>928.79998779296875</AltitudeMeters>
            <DistanceMeters>45201.274958355</DistanceMeters>
          </Trackpoint>
          <Trackpoint>
            <Time>2019-08-01T10:31:04.000Z</Time>
            <Position>
              <LatitudeDegrees>40.69614149630069732666015625</LatitudeDegrees>
              <LongitudeDegrees>-3.8537705875933170318603515625</LongitudeDegrees>
            </Position>
            <AltitudeMeters>928</AltitudeMeters>
            <DistanceMeters>45262.132131743</DistanceMeters>
          </Trackpoint>
          <Trackpoint>
            <Time>2019-08-01T10:31:06.000Z</Time>
            <Position>
              <LatitudeDegrees>40.69614158011972904205322265625</LatitudeDegrees>
              <LongitudeDegrees>-3.85383118875324726104736328125</LongitudeDegrees>
            </Position>
            <AltitudeMeters>928</AltitudeMeters>
            <DistanceMeters>45267.245946501</DistanceMeters>
          </Trackpoint>
          <Trackpoint>
            <Time>2019-08-01T10:31:18.000Z</Time>
            <Position>
              <LatitudeDegrees>40.6961513869464397430419921875</LatitudeDegrees>
              <LongitudeDegrees>-3.85425598360598087310791015625</LongitudeDegrees>
            </Position>
            <AltitudeMeters>929</AltitudeMeters>
            <DistanceMeters>45303.109688196</DistanceMeters>
          </Trackpoint>
          <Trackpoint>
            <Time>2019-08-01T10:31:23.000Z</Time>
            <Position>
              <LatitudeDegrees>40.69614929147064685821533203125</LatitudeDegrees>
              <LongitudeDegrees>-3.8544283993542194366455078125</LongitudeDegrees>
            </Position>
            <AltitudeMeters>929.79998779296875</AltitudeMeters>
            <DistanceMeters>45317.661191986</DistanceMeters>
          </Trackpoint>
          <Trackpoint>
            <Time>2019-08-01T10:31:29.000Z</Time>
            <Position>
              <LatitudeDegrees>40.6961557455360889434814453125</LatitudeDegrees>
              <LongitudeDegrees>-3.85463316924870014190673828125</LongitudeDegrees>
            </Position>
            <AltitudeMeters>930.79998779296875</AltitudeMeters>
            <DistanceMeters>45334.956054001</DistanceMeters>
          </Trackpoint>
          <Trackpoint>
            <Time>2019-08-01T10:31:37.000Z</Time>
            <Position>
              <LatitudeDegrees>40.69616471417248249053955078125</LatitudeDegrees>
              <LongitudeDegrees>-3.85490021668374538421630859375</LongitudeDegrees>
            </Position>
            <AltitudeMeters>931.5999755859375</AltitudeMeters>
            <DistanceMeters>45357.513242378</DistanceMeters>
          </Trackpoint>
          <Trackpoint>
            <Time>2019-08-01T10:31:51.000Z</Time>
            <Position>
              <LatitudeDegrees>40.6961808912456035614013671875</LatitudeDegrees>
              <LongitudeDegrees>-3.8553535938262939453125</LongitudeDegrees>
            </Position>
            <AltitudeMeters>930.20001220703125</AltitudeMeters>
            <DistanceMeters>45395.814549128</DistanceMeters>
          </Trackpoint>
          <Trackpoint>
            <Time>2019-08-01T10:32:12.000Z</Time>
            <Position>
              <LatitudeDegrees>40.69636948406696319580078125</LatitudeDegrees>
              <LongitudeDegrees>-3.85601014830172061920166015625</LongitudeDegrees>
            </Position>
            <AltitudeMeters>930.4000244140625</AltitudeMeters>
            <DistanceMeters>45455.062009969</DistanceMeters>
          </Trackpoint>
          <Trackpoint>
            <Time>2019-08-01T10:32:14.000Z</Time>
            <Position>
              <LatitudeDegrees>40.6964102201163768768310546875</LatitudeDegrees>
              <LongitudeDegrees>-3.856064043939113616943359375</LongitudeDegrees>
            </Position>
            <AltitudeMeters>930.5999755859375</AltitudeMeters>
            <DistanceMeters>45461.484578707</DistanceMeters>
          </Trackpoint>
          <Trackpoint>
            <Time>2019-08-01T10:32:18.000Z</Time>
            <Position>
              <LatitudeDegrees>40.69648557342588901519775390625</LatitudeDegrees>
              <LongitudeDegrees>-3.8561614416539669036865234375</LongitudeDegrees>
            </Position>
            <AltitudeMeters>931.79998779296875</AltitudeMeters>
            <DistanceMeters>45473.227589282</DistanceMeters>
          </Trackpoint>
          <Trackpoint>
            <Time>2019-08-01T10:32:22.000Z</Time>
            <Position>
              <LatitudeDegrees>40.6965557299554347991943359375</LatitudeDegrees>
              <LongitudeDegrees>-3.8562559895217418670654296875</LongitudeDegrees>
            </Position>
            <AltitudeMeters>932.79998779296875</AltitudeMeters>
            <DistanceMeters>45484.391913944</DistanceMeters>
          </Trackpoint>
          <Trackpoint>
            <Time>2019-08-01T10:32:25.000Z</Time>
            <Position>
              <LatitudeDegrees>40.69660627283155918121337890625</LatitudeDegrees>
              <LongitudeDegrees>-3.85634073056280612945556640625</LongitudeDegrees>
            </Position>
            <AltitudeMeters>933.79998779296875</AltitudeMeters>
            <DistanceMeters>45493.490194593</DistanceMeters>
          </Trackpoint>
          <Trackpoint>
            <Time>2019-08-01T10:32:29.000Z</Time>
            <Position>
              <LatitudeDegrees>40.696670226752758026123046875</LatitudeDegrees>
              <LongitudeDegrees>-3.8564561493694782257080078125</LongitudeDegrees>
            </Position>
            <AltitudeMeters>934.79998779296875</AltitudeMeters>
            <DistanceMeters>45505.553722766</DistanceMeters>
          </Trackpoint>
          <Trackpoint>
            <Time>2019-08-01T10:32:32.000Z</Time>
            <Position>
              <LatitudeDegrees>40.696714818477630615234375</LatitudeDegrees>
              <LongitudeDegrees>-3.856542818248271942138671875</LongitudeDegrees>
            </Position>
            <AltitudeMeters>935.79998779296875</AltitudeMeters>
            <DistanceMeters>45514.392739758</DistanceMeters>
          </Trackpoint>
          <Trackpoint>
            <Time>2019-08-01T10:32:36.000Z</Time>
            <Position>
              <LatitudeDegrees>40.696772821247577667236328125</LatitudeDegrees>
              <LongitudeDegrees>-3.85665404610335826873779296875</LongitudeDegrees>
            </Position>
            <AltitudeMeters>936.79998779296875</AltitudeMeters>
            <DistanceMeters>45525.784853638</DistanceMeters>
          </Trackpoint>
          <Trackpoint>
            <Time>2019-08-01T10:32:39.000Z</Time>
            <Position>
              <LatitudeDegrees>40.69681732915341854095458984375</LatitudeDegrees>
              <LongitudeDegrees>-3.85674188844859600067138671875</LongitudeDegrees>
            </Position>
            <AltitudeMeters>938</AltitudeMeters>
            <DistanceMeters>45534.701175358</DistanceMeters>
          </Trackpoint>
          <Trackpoint>
            <Time>2019-08-01T10:32:43.000Z</Time>
            <Position>
              <LatitudeDegrees>40.69688924588263034820556640625</LatitudeDegrees>
              <LongitudeDegrees>-3.85686166584491729736328125</LongitudeDegrees>
            </Position>
            <AltitudeMeters>939</AltitudeMeters>
            <DistanceMeters>45547.594378112</DistanceMeters>
          </Trackpoint>
          <Trackpoint>
            <Time>2019-08-01T10:32:47.000Z</Time>
            <Position>
              <LatitudeDegrees>40.69697591476142406463623046875</LatitudeDegrees>
              <LongitudeDegrees>-3.8569776713848114013671875</LongitudeDegrees>
            </Position>
            <AltitudeMeters>939.79998779296875</AltitudeMeters>
            <DistanceMeters>45561.337816873</DistanceMeters>
          </Trackpoint>
          <Trackpoint>
            <Time>2019-08-01T10:32:51.000Z</Time>
            <Position>
              <LatitudeDegrees>40.69705386646091938018798828125</LatitudeDegrees>
              <LongitudeDegrees>-3.8571139611303806304931640625</LongitudeDegrees>
            </Position>
            <AltitudeMeters>941</AltitudeMeters>
            <DistanceMeters>45575.744318079</DistanceMeters>
          </Trackpoint>
          <Trackpoint>
            <Time>2019-08-01T10:32:52.000Z</Time>
            <Position>
              <LatitudeDegrees>40.697071887552738189697265625</LatitudeDegrees>
              <LongitudeDegrees>-3.857147656381130218505859375</LongitudeDegrees>
            </Position>
            <AltitudeMeters>941.4000244140625</AltitudeMeters>
            <DistanceMeters>45579.2241647</DistanceMeters>
          </Trackpoint>
          <Trackpoint>
            <Time>2019-08-01T10:32:54.000Z</Time>
            <Position>
              <LatitudeDegrees>40.69710667245090007781982421875</LatitudeDegrees>
              <LongitudeDegrees>-3.8572162203490734100341796875</LongitudeDegrees>
            </Position>
            <AltitudeMeters>942.4000244140625</AltitudeMeters>
            <DistanceMeters>45586.185803895</DistanceMeters>
          </Trackpoint>
          <Trackpoint>
            <Time>2019-08-01T10:32:57.000Z</Time>
            <Position>
              <LatitudeDegrees>40.6971552036702632904052734375</LatitudeDegrees>
              <LongitudeDegrees>-3.85730666108429431915283203125</LongitudeDegrees>
            </Position>
            <AltitudeMeters>943.5999755859375</AltitudeMeters>
            <DistanceMeters>45595.535679298</DistanceMeters>
          </Trackpoint>
          <Trackpoint>
            <Time>2019-08-01T10:32:59.000Z</Time>
            <Position>
              <LatitudeDegrees>40.69718127138912677764892578125</LatitudeDegrees>
              <LongitudeDegrees>-3.85736432857811450958251953125</LongitudeDegrees>
            </Position>
            <AltitudeMeters>944.79998779296875</AltitudeMeters>
            <DistanceMeters>45601.20073814</DistanceMeters>
          </Trackpoint>
          <Trackpoint>
            <Time>2019-08-01T10:33:02.000Z</Time>
            <Position>
              <LatitudeDegrees>40.69722871296107769012451171875</LatitudeDegrees>
              <LongitudeDegrees>-3.85745854116976261138916015625</LongitudeDegrees>
            </Position>
            <AltitudeMeters>946</AltitudeMeters>
            <DistanceMeters>45610.745129748</DistanceMeters>
          </Trackpoint>
          <Trackpoint>
            <Time>2019-08-01T10:33:05.000Z</Time>
            <Position>
              <LatitudeDegrees>40.69728814065456390380859375</LatitudeDegrees>
              <LongitudeDegrees>-3.85754990391433238983154296875</LongitudeDegrees>
            </Position>
            <AltitudeMeters>947.4000244140625</AltitudeMeters>
            <DistanceMeters>45620.902769899</DistanceMeters>
          </Trackpoint>
          <Trackpoint>
            <Time>2019-08-01T10:33:07.000Z</Time>
            <Position>
              <LatitudeDegrees>40.69732929579913616180419921875</LatitudeDegrees>
              <LongitudeDegrees>-3.85761226527392864227294921875</LongitudeDegrees>
            </Position>
            <AltitudeMeters>948.79998779296875</AltitudeMeters>
            <DistanceMeters>45627.879310018</DistanceMeters>
          </Trackpoint>
          <Trackpoint>
            <Time>2019-08-01T10:33:09.000Z</Time>
            <Position>
              <LatitudeDegrees>40.6973714567720890045166015625</LatitudeDegrees>
              <LongitudeDegrees>-3.85767529718577861785888671875</LongitudeDegrees>
            </Position>
            <AltitudeMeters>949.79998779296875</AltitudeMeters>
            <DistanceMeters>45634.971384877</DistanceMeters>
          </Trackpoint>
          <Trackpoint>
            <Time>2019-08-01T10:33:11.000Z</Time>
            <Position>
              <LatitudeDegrees>40.69741143845021724700927734375</LatitudeDegrees>
              <LongitudeDegrees>-3.8577402569353580474853515625</LongitudeDegrees>
            </Position>
            <AltitudeMeters>951</AltitudeMeters>
            <DistanceMeters>45642.031556402</DistanceMeters>
          </Trackpoint>
          <Trackpoint>
            <Time>2019-08-01T10:33:13.000Z</Time>
            <Position>
              <LatitudeDegrees>40.69745033048093318939208984375</LatitudeDegrees>
              <LongitudeDegrees>-3.85780823417007923126220703125</LongitudeDegrees>
            </Position>
            <AltitudeMeters>952.20001220703125</AltitudeMeters>
            <DistanceMeters>45649.217863325</DistanceMeters>
          </Trackpoint>
          <Trackpoint>
            <Time>2019-08-01T10:33:15.000Z</Time>
            <Position>
              <LatitudeDegrees>40.69749073125422000885009765625</LatitudeDegrees>
              <LongitudeDegrees>-3.857877887785434722900390625</LongitudeDegrees>
            </Position>
            <AltitudeMeters>953.5999755859375</AltitudeMeters>
            <DistanceMeters>45656.618974303</DistanceMeters>
          </Trackpoint>
          <Trackpoint>
            <Time>2019-08-01T10:33:17.000Z</Time>
            <Position>
              <LatitudeDegrees>40.69753046147525310516357421875</LatitudeDegrees>
              <LongitudeDegrees>-3.85794972069561481475830078125</LongitudeDegrees>
            </Position>
            <AltitudeMeters>954.4000244140625</AltitudeMeters>
            <DistanceMeters>45664.123076961</DistanceMeters>
          </Trackpoint>
          <Trackpoint>
            <Time>2019-08-01T10:33:19.000Z</Time>
            <Position>
              <LatitudeDegrees>40.6975712813436985015869140625</LatitudeDegrees>
              <LongitudeDegrees>-3.8580205477774143218994140625</LongitudeDegrees>
            </Position>
            <AltitudeMeters>955.5999755859375</AltitudeMeters>
            <DistanceMeters>45671.630788807</DistanceMeters>
          </Trackpoint>
          <Trackpoint>
            <Time>2019-08-01T10:33:21.000Z</Time>
            <Position>
              <LatitudeDegrees>40.6976118497550487518310546875</LatitudeDegrees>
              <LongitudeDegrees>-3.8580912910401821136474609375</LongitudeDegrees>
            </Position>
            <AltitudeMeters>956.79998779296875</AltitudeMeters>
            <DistanceMeters>45679.11561307</DistanceMeters>
          </Trackpoint>
          <Trackpoint>
            <Time>2019-08-01T10:33:23.000Z</Time>
            <Position>
              <LatitudeDegrees>40.697650574147701263427734375</LatitudeDegrees>
              <LongitudeDegrees>-3.85816362686455249786376953125</LongitudeDegrees>
            </Position>
            <AltitudeMeters>957.79998779296875</AltitudeMeters>
            <DistanceMeters>45686.587154583</DistanceMeters>
          </Trackpoint>
          <Trackpoint>
            <Time>2019-08-01T10:33:25.000Z</Time>
            <Position>
              <LatitudeDegrees>40.697688125073909759521484375</LatitudeDegrees>
              <LongitudeDegrees>-3.85823403485119342803955078125</LongitudeDegrees>
            </Position>
            <AltitudeMeters>958.79998779296875</AltitudeMeters>
            <DistanceMeters>45693.850950881</DistanceMeters>
          </Trackpoint>
          <Trackpoint>
            <Time>2019-08-01T10:33:28.000Z</Time>
            <Position>
              <LatitudeDegrees>40.697736404836177825927734375</LatitudeDegrees>
              <LongitudeDegrees>-3.858335874974727630615234375</LongitudeDegrees>
            </Position>
            <AltitudeMeters>960.20001220703125</AltitudeMeters>
            <DistanceMeters>45703.986341827</DistanceMeters>
          </Trackpoint>
          <Trackpoint>
            <Time>2019-08-01T10:33:30.000Z</Time>
            <Position>
              <LatitudeDegrees>40.69776616059243679046630859375</LatitudeDegrees>
              <LongitudeDegrees>-3.8584054447710514068603515625</LongitudeDegrees>
            </Position>
            <AltitudeMeters>961.20001220703125</AltitudeMeters>
            <DistanceMeters>45710.727213037</DistanceMeters>
          </Trackpoint>
          <Trackpoint>
            <Time>2019-08-01T10:33:32.000Z</Time>
            <Position>
              <LatitudeDegrees>40.6977985985577106475830078125</LatitudeDegrees>
              <LongitudeDegrees>-3.8584795407950878143310546875</LongitudeDegrees>
            </Position>
            <AltitudeMeters>962.5999755859375</AltitudeMeters>
            <DistanceMeters>45717.946742193</DistanceMeters>
          </Trackpoint>
          <Trackpoint>
            <Time>2019-08-01T10:33:34.000Z</Time>
            <Position>
              <LatitudeDegrees>40.69783355109393596649169921875</LatitudeDegrees>
              <LongitudeDegrees>-3.858555816113948822021484375</LongitudeDegrees>
            </Position>
            <AltitudeMeters>963.5999755859375</AltitudeMeters>
            <DistanceMeters>45725.46767291</DistanceMeters>
          </Trackpoint>
          <Trackpoint>
            <Time>2019-08-01T10:33:36.000Z</Time>
            <Position>
              <LatitudeDegrees>40.69786489941179752349853515625</LatitudeDegrees>
              <LongitudeDegrees>-3.85862790048122406005859375</LongitudeDegrees>
            </Position>
            <AltitudeMeters>965</AltitudeMeters>
            <DistanceMeters>45732.479717279</DistanceMeters>
          </Trackpoint>
          <Trackpoint>
            <Time>2019-08-01T10:33:38.000Z</Time>
            <Position>
              <LatitudeDegrees>40.6978938169777393341064453125</LatitudeDegrees>
              <LongitudeDegrees>-3.85869923047721385955810546875</LongitudeDegrees>
            </Position>
            <AltitudeMeters>966.20001220703125</AltitudeMeters>
            <DistanceMeters>45739.305123082</DistanceMeters>
          </Trackpoint>
          <Trackpoint>
            <Time>2019-08-01T10:33:40.000Z</Time>
            <Position>
              <LatitudeDegrees>40.697921812534332275390625</LatitudeDegrees>
              <LongitudeDegrees>-3.85876871645450592041015625</LongitudeDegrees>
            </Position>
            <AltitudeMeters>967.4000244140625</AltitudeMeters>
            <DistanceMeters>45745.946124012</DistanceMeters>
          </Trackpoint>
          <Trackpoint>
            <Time>2019-08-01T10:33:42.000Z</Time>
            <Position>
              <LatitudeDegrees>40.69795324467122554779052734375</LatitudeDegrees>
              <LongitudeDegrees>-3.85883216746151447296142578125</LongitudeDegrees>
            </Position>
            <AltitudeMeters>968.5999755859375</AltitudeMeters>
            <DistanceMeters>45752.341923125</DistanceMeters>
          </Trackpoint>
          <Trackpoint>
            <Time>2019-08-01T10:33:44.000Z</Time>
            <Position>
              <LatitudeDegrees>40.69798727519810199737548828125</LatitudeDegrees>
              <LongitudeDegrees>-3.8588983006775379180908203125</LongitudeDegrees>
            </Position>
            <AltitudeMeters>969.79998779296875</AltitudeMeters>
            <DistanceMeters>45759.08681194</DistanceMeters>
          </Trackpoint>
          <Trackpoint>
            <Time>2019-08-01T10:33:46.000Z</Time>
            <Position>
              <LatitudeDegrees>40.6980178691446781158447265625</LatitudeDegrees>
              <LongitudeDegrees>-3.85897180996835231781005859375</LongitudeDegrees>
            </Position>
            <AltitudeMeters>970.5999755859375</AltitudeMeters>
            <DistanceMeters>45766.163591148</DistanceMeters>
          </Trackpoint>
          <Trackpoint>
            <Time>2019-08-01T10:33:48.000Z</Time>
            <Position>
              <LatitudeDegrees>40.69804326631128787994384765625</LatitudeDegrees>
              <LongitudeDegrees>-3.859052360057830810546875</LongitudeDegrees>
            </Position>
            <AltitudeMeters>971.5999755859375</AltitudeMeters>
            <DistanceMeters>45773.524942161</DistanceMeters>
          </Trackpoint>
          <Trackpoint>
            <Time>2019-08-01T10:33:50.000Z</Time>
            <Position>
              <LatitudeDegrees>40.698066987097263336181640625</LatitudeDegrees>
              <LongitudeDegrees>-3.859136514365673065185546875</LongitudeDegrees>
            </Position>
            <AltitudeMeters>972.79998779296875</AltitudeMeters>
            <DistanceMeters>45781.100901894</DistanceMeters>
          </Trackpoint>
          <Trackpoint>
            <Time>2019-08-01T10:33:53.000Z</Time>
            <Position>
              <LatitudeDegrees>40.6981006823480129241943359375</LatitudeDegrees>
              <LongitudeDegrees>-3.8592575490474700927734375</LongitudeDegrees>
            </Position>
            <AltitudeMeters>973.79998779296875</AltitudeMeters>
            <DistanceMeters>45791.980941972</DistanceMeters>
          </Trackpoint>
          <Trackpoint>
            <Time>2019-08-01T10:33:57.000Z</Time>
            <Position>
              <LatitudeDegrees>40.6981355510652065277099609375</LatitudeDegrees>
              <LongitudeDegrees>-3.85939828120172023773193359375</LongitudeDegrees>
            </Position>
            <AltitudeMeters>975</AltitudeMeters>
            <DistanceMeters>45804.474696468</DistanceMeters>
          </Trackpoint>
          <Trackpoint>
            <Time>2019-08-01T10:34:03.000Z</Time>
            <Position>
              <LatitudeDegrees>40.69819648750126361846923828125</LatitudeDegrees>
              <LongitudeDegrees>-3.85961671359837055206298828125</LongitudeDegrees>
            </Position>
            <AltitudeMeters>976.20001220703125</AltitudeMeters>
            <DistanceMeters>45824.115134486</DistanceMeters>
          </Trackpoint>
          <Trackpoint>
            <Time>2019-08-01T10:34:09.000Z</Time>
            <Position>
              <LatitudeDegrees>40.69823764264583587646484375</LatitudeDegrees>
              <LongitudeDegrees>-3.85983514599502086639404296875</LongitudeDegrees>
            </Position>
            <AltitudeMeters>977.20001220703125</AltitudeMeters>
            <DistanceMeters>45843.107644421</DistanceMeters>
          </Trackpoint>
          <Trackpoint>
            <Time>2019-08-01T10:34:28.000Z</Time>
            <Position>
              <LatitudeDegrees>40.69832020439207553863525390625</LatitudeDegrees>
              <LongitudeDegrees>-3.86054106988012790679931640625</LongitudeDegrees>
            </Position>
            <AltitudeMeters>976.20001220703125</AltitudeMeters>
            <DistanceMeters>45903.380955215</DistanceMeters>
          </Trackpoint>
          <Trackpoint>
            <Time>2019-08-01T10:34:41.000Z</Time>
            <Position>
              <LatitudeDegrees>40.6984034366905689239501953125</LatitudeDegrees>
              <LongitudeDegrees>-3.860995285212993621826171875</LongitudeDegrees>
            </Position>
            <AltitudeMeters>976</AltitudeMeters>
            <DistanceMeters>45942.813034324</DistanceMeters>
          </Trackpoint>
          <Trackpoint>
            <Time>2019-08-01T10:35:00.000Z</Time>
            <Position>
              <LatitudeDegrees>40.6985747627913951873779296875</LatitudeDegrees>
              <LongitudeDegrees>-3.8616814278066158294677734375</LongitudeDegrees>
            </Position>
            <AltitudeMeters>976.4000244140625</AltitudeMeters>
            <DistanceMeters>46003.771616143</DistanceMeters>
          </Trackpoint>
          <Trackpoint>
            <Time>2019-08-01T10:35:03.000Z</Time>
            <Position>
              <LatitudeDegrees>40.69860686548054218292236328125</LatitudeDegrees>
              <LongitudeDegrees>-3.86178611777722835540771484375</LongitudeDegrees>
            </Position>
            <AltitudeMeters>977</AltitudeMeters>
            <DistanceMeters>46013.301805484</DistanceMeters>
          </Trackpoint>
          <Trackpoint>
            <Time>2019-08-01T10:35:08.000Z</Time>
            <Position>
              <LatitudeDegrees>40.6986766867339611053466796875</LatitudeDegrees>
              <LongitudeDegrees>-3.861950151622295379638671875</LongitudeDegrees>
            </Position>
            <AltitudeMeters>978.20001220703125</AltitudeMeters>
            <DistanceMeters>46029.175818309</DistanceMeters>
          </Trackpoint>
          <Trackpoint>
            <Time>2019-08-01T10:35:13.000Z</Time>
            <Position>
              <LatitudeDegrees>40.69873519241809844970703125</LatitudeDegrees>
              <LongitudeDegrees>-3.8621229864656925201416015625</LongitudeDegrees>
            </Position>
            <AltitudeMeters>979</AltitudeMeters>
            <DistanceMeters>46045.147657888</DistanceMeters>
          </Trackpoint>
          <Trackpoint>
            <Time>2019-08-01T10:35:18.000Z</Time>
            <Position>
              <LatitudeDegrees>40.69879822432994842529296875</LatitudeDegrees>
              <LongitudeDegrees>-3.86231836862862110137939453125</LongitudeDegrees>
            </Position>
            <AltitudeMeters>980.20001220703125</AltitudeMeters>
            <DistanceMeters>46063.065171045</DistanceMeters>
          </Trackpoint>
          <Trackpoint>
            <Time>2019-08-01T10:35:22.000Z</Time>
            <Position>
              <LatitudeDegrees>40.6988510303199291229248046875</LatitudeDegrees>
              <LongitudeDegrees>-3.8624654710292816162109375</LongitudeDegrees>
            </Position>
            <AltitudeMeters>981.5999755859375</AltitudeMeters>
            <DistanceMeters>46076.799079329</DistanceMeters>
          </Trackpoint>
          <Trackpoint>
            <Time>2019-08-01T10:35:27.000Z</Time>
            <Position>
              <LatitudeDegrees>40.6989107094705104827880859375</LatitudeDegrees>
              <LongitudeDegrees>-3.86265817098319530487060546875</LongitudeDegrees>
            </Position>
            <AltitudeMeters>982.79998779296875</AltitudeMeters>
            <DistanceMeters>46094.364119092</DistanceMeters>
          </Trackpoint>
          <Trackpoint>
            <Time>2019-08-01T10:35:31.000Z</Time>
            <Position>
              <LatitudeDegrees>40.69896309636533260345458984375</LatitudeDegrees>
              <LongitudeDegrees>-3.862818516790866851806640625</LongitudeDegrees>
            </Position>
            <AltitudeMeters>984</AltitudeMeters>
            <DistanceMeters>46109.097244272</DistanceMeters>
          </Trackpoint>
          <Trackpoint>
            <Time>2019-08-01T10:35:35.000Z</Time>
            <Position>
              <LatitudeDegrees>40.69901573471724987030029296875</LatitudeDegrees>
              <LongitudeDegrees>-3.862971402704715728759765625</LongitudeDegrees>
            </Position>
            <AltitudeMeters>985.4000244140625</AltitudeMeters>
            <DistanceMeters>46123.266106594</DistanceMeters>
          </Trackpoint>
          <Trackpoint>
            <Time>2019-08-01T10:35:38.000Z</Time>
            <Position>
              <LatitudeDegrees>40.6990528665482997894287109375</LatitudeDegrees>
              <LongitudeDegrees>-3.863079361617565155029296875</LongitudeDegrees>
            </Position>
            <AltitudeMeters>986.79998779296875</AltitudeMeters>
            <DistanceMeters>46133.269671316</DistanceMeters>
          </Trackpoint>
          <Trackpoint>
            <Time>2019-08-01T10:35:42.000Z</Time>
            <Position>
              <LatitudeDegrees>40.69910743273794651031494140625</LatitudeDegrees>
              <LongitudeDegrees>-3.8632236979901790618896484375</LongitudeDegrees>
            </Position>
            <AltitudeMeters>988</AltitudeMeters>
            <DistanceMeters>46146.879407831</DistanceMeters>
          </Trackpoint>
          <Trackpoint>
            <Time>2019-08-01T10:35:45.000Z</Time>
            <Position>
              <LatitudeDegrees>40.6991423852741718292236328125</LatitudeDegrees>
              <LongitudeDegrees>-3.863326795399188995361328125</LongitudeDegrees>
            </Position>
            <AltitudeMeters>989.20001220703125</AltitudeMeters>
            <DistanceMeters>46156.409597172</DistanceMeters>
          </Trackpoint>
          <Trackpoint>
            <Time>2019-08-01T10:35:49.000Z</Time>
            <Position>
              <LatitudeDegrees>40.699193179607391357421875</LatitudeDegrees>
              <LongitudeDegrees>-3.86345780454576015472412109375</LongitudeDegrees>
            </Position>
            <AltitudeMeters>990.5999755859375</AltitudeMeters>
            <DistanceMeters>46168.826501988</DistanceMeters>
          </Trackpoint>
          <Trackpoint>
            <Time>2019-08-01T10:35:53.000Z</Time>
            <Position>
              <LatitudeDegrees>40.699235089123249053955078125</LatitudeDegrees>
              <LongitudeDegrees>-3.863582946360111236572265625</LongitudeDegrees>
            </Position>
            <AltitudeMeters>991.79998779296875</AltitudeMeters>
            <DistanceMeters>46180.371367873</DistanceMeters>
          </Trackpoint>
          <Trackpoint>
            <Time>2019-08-01T10:35:58.000Z</Time>
            <Position>
              <LatitudeDegrees>40.69928278215229511260986328125</LatitudeDegrees>
              <LongitudeDegrees>-3.86373105458915233612060546875</LongitudeDegrees>
            </Position>
            <AltitudeMeters>992.79998779296875</AltitudeMeters>
            <DistanceMeters>46193.949884023</DistanceMeters>
          </Trackpoint>
          <Trackpoint>
            <Time>2019-08-01T10:36:17.000Z</Time>
            <Position>
              <LatitudeDegrees>40.69943516515195369720458984375</LatitudeDegrees>
              <LongitudeDegrees>-3.86430907063186168670654296875</LongitudeDegrees>
            </Position>
            <AltitudeMeters>991.79998779296875</AltitudeMeters>
            <DistanceMeters>46245.589187797</DistanceMeters>
          </Trackpoint>
          <Trackpoint>
            <Time>2019-08-01T10:36:22.000Z</Time>
            <Position>
              <LatitudeDegrees>40.69946718402206897735595703125</LatitudeDegrees>
              <LongitudeDegrees>-3.864462375640869140625</LongitudeDegrees>
            </Position>
            <AltitudeMeters>990.5999755859375</AltitudeMeters>
            <DistanceMeters>46259.007148303</DistanceMeters>
          </Trackpoint>
          <Trackpoint>
            <Time>2019-08-01T10:36:31.000Z</Time>
            <Position>
              <LatitudeDegrees>40.6995393522083759307861328125</LatitudeDegrees>
              <LongitudeDegrees>-3.8647438399493694305419921875</LongitudeDegrees>
            </Position>
            <AltitudeMeters>989.5999755859375</AltitudeMeters>
            <DistanceMeters>46284.079078452</DistanceMeters>
          </Trackpoint>
          <Trackpoint>
            <Time>2019-08-01T10:36:43.000Z</Time>
            <Position>
              <LatitudeDegrees>40.699613280594348907470703125</LatitudeDegrees>
              <LongitudeDegrees>-3.86508674360811710357666015625</LongitudeDegrees>
            </Position>
            <AltitudeMeters>988.4000244140625</AltitudeMeters>
            <DistanceMeters>46314.161150367</DistanceMeters>
          </Trackpoint>
          <Trackpoint>
            <Time>2019-08-01T10:36:52.000Z</Time>
            <Position>
              <LatitudeDegrees>40.69961939938366413116455078125</LatitudeDegrees>
              <LongitudeDegrees>-3.865382373332977294921875</LongitudeDegrees>
            </Position>
            <AltitudeMeters>987.20001220703125</AltitudeMeters>
            <DistanceMeters>46339.116475491</DistanceMeters>
          </Trackpoint>
          <Trackpoint>
            <Time>2019-08-01T10:37:00.000Z</Time>
            <Position>
              <LatitudeDegrees>40.69959475658833980560302734375</LatitudeDegrees>
              <LongitudeDegrees>-3.86565285734832286834716796875</LongitudeDegrees>
            </Position>
            <AltitudeMeters>985.79998779296875</AltitudeMeters>
            <DistanceMeters>46362.104692769</DistanceMeters>
          </Trackpoint>
          <Trackpoint>
            <Time>2019-08-01T10:37:21.000Z</Time>
            <Position>
              <LatitudeDegrees>40.69947816431522369384765625</LatitudeDegrees>
              <LongitudeDegrees>-3.86636481620371341705322265625</LongitudeDegrees>
            </Position>
            <AltitudeMeters>984.5999755859375</AltitudeMeters>
            <DistanceMeters>46423.567145938</DistanceMeters>
          </Trackpoint>
          <Trackpoint>
            <Time>2019-08-01T10:37:30.000Z</Time>
            <Position>
              <LatitudeDegrees>40.699404068291187286376953125</LatitudeDegrees>
              <LongitudeDegrees>-3.866619206964969635009765625</LongitudeDegrees>
            </Position>
            <AltitudeMeters>983.4000244140625</AltitudeMeters>
            <DistanceMeters>46446.56321814</DistanceMeters>
          </Trackpoint>
          <Trackpoint>
            <Time>2019-08-01T10:37:38.000Z</Time>
            <Position>
              <LatitudeDegrees>40.69933474995195865631103515625</LatitudeDegrees>
              <LongitudeDegrees>-3.86684861965477466583251953125</LongitudeDegrees>
            </Position>
            <AltitudeMeters>982</AltitudeMeters>
            <DistanceMeters>46467.402470438</DistanceMeters>
          </Trackpoint>
          <Trackpoint>
            <Time>2019-08-01T10:37:51.000Z</Time>
            <Position>
              <LatitudeDegrees>40.69920650683343410491943359375</LatitudeDegrees>
              <LongitudeDegrees>-3.86723452247679233551025390625</LongitudeDegrees>
            </Position>
            <AltitudeMeters>983</AltitudeMeters>
            <DistanceMeters>46502.957068333</DistanceMeters>
          </Trackpoint>
          <Trackpoint>
            <Time>2019-08-01T10:38:13.000Z</Time>
            <Position>
              <LatitudeDegrees>40.6990270502865314483642578125</LatitudeDegrees>
              <LongitudeDegrees>-3.86791127733886241912841796875</LongitudeDegrees>
            </Position>
            <AltitudeMeters>982.4000244140625</AltitudeMeters>
            <DistanceMeters>46563.456033322</DistanceMeters>
          </Trackpoint>
          <Trackpoint>
            <Time>2019-08-01T10:38:17.000Z</Time>
            <Position>
              <LatitudeDegrees>40.69899075664579868316650390625</LatitudeDegrees>
              <LongitudeDegrees>-3.8680328987538814544677734375</LongitudeDegrees>
            </Position>
            <AltitudeMeters>981.5999755859375</AltitudeMeters>
            <DistanceMeters>46574.485683808</DistanceMeters>
          </Trackpoint>
          <Trackpoint>
            <Time>2019-08-01T10:38:25.000Z</Time>
            <Position>
              <LatitudeDegrees>40.69890442304313182830810546875</LatitudeDegrees>
              <LongitudeDegrees>-3.8682729564607143402099609375</LongitudeDegrees>
            </Position>
            <AltitudeMeters>980.5999755859375</AltitudeMeters>
            <DistanceMeters>46596.905947753</DistanceMeters>
          </Trackpoint>
          <Trackpoint>
            <Time>2019-08-01T10:38:34.000Z</Time>
            <Position>
              <LatitudeDegrees>40.69862564094364643096923828125</LatitudeDegrees>
              <LongitudeDegrees>-3.868534304201602935791015625</LongitudeDegrees>
            </Position>
            <AltitudeMeters>980</AltitudeMeters>
            <DistanceMeters>46634.973606831</DistanceMeters>
          </Trackpoint>
          <Trackpoint>
            <Time>2019-08-01T10:38:39.000Z</Time>
            <Position>
              <LatitudeDegrees>40.69844995625317096710205078125</LatitudeDegrees>
              <LongitudeDegrees>-3.86879841797053813934326171875</LongitudeDegrees>
            </Position>
            <AltitudeMeters>981</AltitudeMeters>
            <DistanceMeters>46664.622855419</DistanceMeters>
          </Trackpoint>
          <Trackpoint>
            <Time>2019-08-01T10:38:40.000Z</Time>
            <Position>
              <LatitudeDegrees>40.6984232179820537567138671875</LatitudeDegrees>
              <LongitudeDegrees>-3.86885516345500946044921875</LongitudeDegrees>
            </Position>
            <AltitudeMeters>981.20001220703125</AltitudeMeters>
            <DistanceMeters>46670.260751222</DistanceMeters>
          </Trackpoint>
          <Trackpoint>
            <Time>2019-08-01T10:38:43.000Z</Time>
            <Position>
              <LatitudeDegrees>40.6983591802418231964111328125</LatitudeDegrees>
              <LongitudeDegrees>-3.86902757920324802398681640625</LongitudeDegrees>
            </Position>
            <AltitudeMeters>982.4000244140625</AltitudeMeters>
            <DistanceMeters>46686.461621628</DistanceMeters>
          </Trackpoint>
          <Trackpoint>
            <Time>2019-08-01T10:38:47.000Z</Time>
            <Position>
              <LatitudeDegrees>40.69829220883548259735107421875</LatitudeDegrees>
              <LongitudeDegrees>-3.86924215592443943023681640625</LongitudeDegrees>
            </Position>
            <AltitudeMeters>983.4000244140625</AltitudeMeters>
            <DistanceMeters>46706.042659543</DistanceMeters>
          </Trackpoint>
          <Trackpoint>
            <Time>2019-08-01T10:39:01.000Z</Time>
            <Position>
              <LatitudeDegrees>40.6980741955339908599853515625</LatitudeDegrees>
              <LongitudeDegrees>-3.8699201680719852447509765625</LongitudeDegrees>
            </Position>
            <AltitudeMeters>984</AltitudeMeters>
            <DistanceMeters>46768.189186279</DistanceMeters>
          </Trackpoint>
          <Trackpoint>
            <Time>2019-08-01T10:39:14.000Z</Time>
            <Position>
              <LatitudeDegrees>40.69785769097506999969482421875</LatitudeDegrees>
              <LongitudeDegrees>-3.87062936089932918548583984375</LongitudeDegrees>
            </Position>
            <AltitudeMeters>984</AltitudeMeters>
            <DistanceMeters>46832.703367852</DistanceMeters>
          </Trackpoint>
          <Trackpoint>
            <Time>2019-08-01T10:39:18.000Z</Time>
            <Position>
              <LatitudeDegrees>40.6977969221770763397216796875</LatitudeDegrees>
              <LongitudeDegrees>-3.870830945670604705810546875</LongitudeDegrees>
            </Position>
            <AltitudeMeters>984</AltitudeMeters>
            <DistanceMeters>46851.009272277</DistanceMeters>
          </Trackpoint>
          <Trackpoint>
            <Time>2019-08-01T10:39:34.000Z</Time>
            <Position>
              <LatitudeDegrees>40.69774118252098560333251953125</LatitudeDegrees>
              <LongitudeDegrees>-3.87155480682849884033203125</LongitudeDegrees>
            </Position>
            <AltitudeMeters>984.20001220703125</AltitudeMeters>
            <DistanceMeters>46912.406384681</DistanceMeters>
          </Trackpoint>
          <Trackpoint>
            <Time>2019-08-01T10:39:43.000Z</Time>
            <Position>
              <LatitudeDegrees>40.6978158652782440185546875</LatitudeDegrees>
              <LongitudeDegrees>-3.8718433119356632232666015625</LongitudeDegrees>
            </Position>
            <AltitudeMeters>985</AltitudeMeters>
            <DistanceMeters>46938.131609896</DistanceMeters>
          </Trackpoint>
          <Trackpoint>
            <Time>2019-08-01T10:39:52.000Z</Time>
            <Position>
              <LatitudeDegrees>40.69788887165486812591552734375</LatitudeDegrees>
              <LongitudeDegrees>-3.87205495499074459075927734375</LongitudeDegrees>
            </Position>
            <AltitudeMeters>986.20001220703125</AltitudeMeters>
            <DistanceMeters>46957.752728088</DistanceMeters>
          </Trackpoint>
          <Trackpoint>
            <Time>2019-08-01T10:39:56.000Z</Time>
            <Position>
              <LatitudeDegrees>40.69793396629393100738525390625</LatitudeDegrees>
              <LongitudeDegrees>-3.8721299730241298675537109375</LongitudeDegrees>
            </Position>
            <AltitudeMeters>987.20001220703125</AltitudeMeters>
            <DistanceMeters>46965.831675578</DistanceMeters>
          </Trackpoint>
          <Trackpoint>
            <Time>2019-08-01T10:40:00.000Z</Time>
            <Position>
              <LatitudeDegrees>40.69798886775970458984375</LatitudeDegrees>
              <LongitudeDegrees>-3.87219677679240703582763671875</LongitudeDegrees>
            </Position>
            <AltitudeMeters>988.79998779296875</AltitudeMeters>
            <DistanceMeters>46974.145291223</DistanceMeters>
          </Trackpoint>
          <Trackpoint>
            <Time>2019-08-01T10:40:04.000Z</Time>
            <Position>
              <LatitudeDegrees>40.6980560906231403350830078125</LatitudeDegrees>
              <LongitudeDegrees>-3.872207589447498321533203125</LongitudeDegrees>
            </Position>
            <AltitudeMeters>989.79998779296875</AltitudeMeters>
            <DistanceMeters>46981.68301243</DistanceMeters>
          </Trackpoint>
          <Trackpoint>
            <Time>2019-08-01T10:40:17.000Z</Time>
            <Position>
              <LatitudeDegrees>40.6982528977096080780029296875</LatitudeDegrees>
              <LongitudeDegrees>-3.8720357604324817657470703125</LongitudeDegrees>
            </Position>
            <AltitudeMeters>990.5999755859375</AltitudeMeters>
            <DistanceMeters>47007.952356575</DistanceMeters>
          </Trackpoint>
          <Trackpoint>
            <Time>2019-08-01T10:40:24.000Z</Time>
            <Position>
              <LatitudeDegrees>40.69834903813898563385009765625</LatitudeDegrees>
              <LongitudeDegrees>-3.87194213457405567169189453125</LongitudeDegrees>
            </Position>
            <AltitudeMeters>991.5999755859375</AltitudeMeters>
            <DistanceMeters>47021.253720707</DistanceMeters>
          </Trackpoint>
          <Trackpoint>
            <Time>2019-08-01T10:40:27.000Z</Time>
            <Position>
              <LatitudeDegrees>40.698390193283557891845703125</LatitudeDegrees>
              <LongitudeDegrees>-3.8719090260565280914306640625</LongitudeDegrees>
            </Position>
            <AltitudeMeters>992.5999755859375</AltitudeMeters>
            <DistanceMeters>47026.619154865</DistanceMeters>
          </Trackpoint>
          <Trackpoint>
            <Time>2019-08-01T10:40:31.000Z</Time>
            <Position>
              <LatitudeDegrees>40.69844928570091724395751953125</LatitudeDegrees>
              <LongitudeDegrees>-3.87187642045319080352783203125</LongitudeDegrees>
            </Position>
            <AltitudeMeters>993.5999755859375</AltitudeMeters>
            <DistanceMeters>47033.748058724</DistanceMeters>
          </Trackpoint>
          <Trackpoint>
            <Time>2019-08-01T10:40:40.000Z</Time>
            <Position>
              <LatitudeDegrees>40.69858859293162822723388671875</LatitudeDegrees>
              <LongitudeDegrees>-3.87182076461613178253173828125</LongitudeDegrees>
            </Position>
            <AltitudeMeters>994.79998779296875</AltitudeMeters>
            <DistanceMeters>47049.94892913</DistanceMeters>
          </Trackpoint>
          <Trackpoint>
            <Time>2019-08-01T10:40:57.000Z</Time>
            <Position>
              <LatitudeDegrees>40.69885262288153171539306640625</LatitudeDegrees>
              <LongitudeDegrees>-3.87165731750428676605224609375</LongitudeDegrees>
            </Position>
            <AltitudeMeters>995.5999755859375</AltitudeMeters>
            <DistanceMeters>47082.411645917</DistanceMeters>
          </Trackpoint>
          <Trackpoint>
            <Time>2019-08-01T10:41:01.000Z</Time>
            <Position>
              <LatitudeDegrees>40.6989170797169208526611328125</LatitudeDegrees>
              <LongitudeDegrees>-3.87160283513367176055908203125</LongitudeDegrees>
            </Position>
            <AltitudeMeters>996.5999755859375</AltitudeMeters>
            <DistanceMeters>47090.932845638</DistanceMeters>
          </Trackpoint>
          <Trackpoint>
            <Time>2019-08-01T10:41:07.000Z</Time>
            <Position>
              <LatitudeDegrees>40.69901539944112300872802734375</LatitudeDegrees>
              <LongitudeDegrees>-3.8715127296745777130126953125</LongitudeDegrees>
            </Position>
            <AltitudeMeters>997.5999755859375</AltitudeMeters>
            <DistanceMeters>47104.258288339</DistanceMeters>
          </Trackpoint>
          <Trackpoint>
            <Time>2019-08-01T10:41:16.000Z</Time>
            <Position>
              <LatitudeDegrees>40.69915889762341976165771484375</LatitudeDegrees>
              <LongitudeDegrees>-3.87137535028159618377685546875</LongitudeDegrees>
            </Position>
            <AltitudeMeters>998.5999755859375</AltitudeMeters>
            <DistanceMeters>47123.993440406</DistanceMeters>
          </Trackpoint>
          <Trackpoint>
            <Time>2019-08-01T10:41:26.000Z</Time>
            <Position>
              <LatitudeDegrees>40.69932268001139163970947265625</LatitudeDegrees>
              <LongitudeDegrees>-3.87121626175940036773681640625</LongitudeDegrees>
            </Position>
            <AltitudeMeters>999.5999755859375</AltitudeMeters>
            <DistanceMeters>47146.632545486</DistanceMeters>
          </Trackpoint>
          <Trackpoint>
            <Time>2019-08-01T10:41:31.000Z</Time>
            <Position>
              <LatitudeDegrees>40.699399374425411224365234375</LatitudeDegrees>
              <LongitudeDegrees>-3.87113193981349468231201171875</LongitudeDegrees>
            </Position>
            <AltitudeMeters>1000.5999755859375</AltitudeMeters>
            <DistanceMeters>47157.745390551</DistanceMeters>
          </Trackpoint>
          <Trackpoint>
            <Time>2019-08-01T10:41:47.000Z</Time>
            <Position>
              <LatitudeDegrees>40.6996365822851657867431640625</LatitudeDegrees>
              <LongitudeDegrees>-3.87083924375474452972412109375</LongitudeDegrees>
            </Position>
            <AltitudeMeters>1001.4000244140625</AltitudeMeters>
            <DistanceMeters>47193.898653404</DistanceMeters>
          </Trackpoint>
          <Trackpoint>
            <Time>2019-08-01T10:41:56.000Z</Time>
            <Position>
              <LatitudeDegrees>40.69979089312255382537841796875</LatitudeDegrees>
              <LongitudeDegrees>-3.87071485631167888641357421875</LongitudeDegrees>
            </Position>
            <AltitudeMeters>1002.5999755859375</AltitudeMeters>
            <DistanceMeters>47214.026827929</DistanceMeters>
          </Trackpoint>
          <Trackpoint>
            <Time>2019-08-01T10:42:05.000Z</Time>
            <Position>
              <LatitudeDegrees>40.6999413482844829559326171875</LatitudeDegrees>
              <LongitudeDegrees>-3.87060103006660938262939453125</LongitudeDegrees>
            </Position>
            <AltitudeMeters>1003.5999755859375</AltitudeMeters>
            <DistanceMeters>47233.33199084</DistanceMeters>
          </Trackpoint>
          <Trackpoint>
            <Time>2019-08-01T10:42:12.000Z</Time>
            <Position>
              <LatitudeDegrees>40.700056850910186767578125</LatitudeDegrees>
              <LongitudeDegrees>-3.87051100842654705047607421875</LongitudeDegrees>
            </Position>
            <AltitudeMeters>1004.5999755859375</AltitudeMeters>
            <DistanceMeters>47248.264192538</DistanceMeters>
          </Trackpoint>
          <Trackpoint>
            <Time>2019-08-01T10:42:18.000Z</Time>
            <Position>
              <LatitudeDegrees>40.7001535780727863311767578125</LatitudeDegrees>
              <LongitudeDegrees>-3.87043104507029056549072265625</LongitudeDegrees>
            </Position>
            <AltitudeMeters>1005.5999755859375</AltitudeMeters>
            <DistanceMeters>47260.970085134</DistanceMeters>
          </Trackpoint>
          <Trackpoint>
            <Time>2019-08-01T10:42:22.000Z</Time>
            <Position>
              <LatitudeDegrees>40.70021920837461948394775390625</LatitudeDegrees>
              <LongitudeDegrees>-3.8703737966716289520263671875</LongitudeDegrees>
            </Position>
            <AltitudeMeters>1006.79998779296875</AltitudeMeters>
            <DistanceMeters>47269.728022638</DistanceMeters>
          </Trackpoint>
          <Trackpoint>
            <Time>2019-08-01T10:42:26.000Z</Time>
            <Position>
              <LatitudeDegrees>40.7002913765609264373779296875</LatitudeDegrees>
              <LongitudeDegrees>-3.87032778002321720123291015625</LongitudeDegrees>
            </Position>
            <AltitudeMeters>1007.79998779296875</AltitudeMeters>
            <DistanceMeters>47278.649912788</DistanceMeters>
          </Trackpoint>
          <Trackpoint>
            <Time>2019-08-01T10:42:29.000Z</Time>
            <Position>
              <LatitudeDegrees>40.70034585893154144287109375</LatitudeDegrees>
              <LongitudeDegrees>-3.87029819190502166748046875</LongitudeDegrees>
            </Position>
            <AltitudeMeters>1008.79998779296875</AltitudeMeters>
            <DistanceMeters>47285.207444643</DistanceMeters>
          </Trackpoint>
          <Trackpoint>
            <Time>2019-08-01T10:42:32.000Z</Time>
            <Position>
              <LatitudeDegrees>40.7004030235111713409423828125</LatitudeDegrees>
              <LongitudeDegrees>-3.87026793323457241058349609375</LongitudeDegrees>
            </Position>
            <AltitudeMeters>1010.20001220703125</AltitudeMeters>
            <DistanceMeters>47292.063870677</DistanceMeters>
          </Trackpoint>
          <Trackpoint>
            <Time>2019-08-01T10:42:36.000Z</Time>
            <Position>
              <LatitudeDegrees>40.70048072375357151031494140625</LatitudeDegrees>
              <LongitudeDegrees>-3.87023138813674449920654296875</LongitudeDegrees>
            </Position>
            <AltitudeMeters>1011.4000244140625</AltitudeMeters>
            <DistanceMeters>47301.245634869</DistanceMeters>
          </Trackpoint>
          <Trackpoint>
            <Time>2019-08-01T10:42:39.000Z</Time>
            <Position>
              <LatitudeDegrees>40.7005421631038188934326171875</LatitudeDegrees>
              <LongitudeDegrees>-3.8702098466455936431884765625</LongitudeDegrees>
            </Position>
            <AltitudeMeters>1012.4000244140625</AltitudeMeters>
            <DistanceMeters>47308.321776041</DistanceMeters>
          </Trackpoint>
          <Trackpoint>
            <Time>2019-08-01T10:42:42.000Z</Time>
            <Position>
              <LatitudeDegrees>40.70060444064438343048095703125</LatitudeDegrees>
              <LongitudeDegrees>-3.870189227163791656494140625</LongitudeDegrees>
            </Position>
            <AltitudeMeters>1014</AltitudeMeters>
            <DistanceMeters>47315.468391489</DistanceMeters>
          </Trackpoint>
          <Trackpoint>
            <Time>2019-08-01T10:42:45.000Z</Time>
            <Position>
              <LatitudeDegrees>40.7006685622036457061767578125</LatitudeDegrees>
              <LongitudeDegrees>-3.870162069797515869140625</LongitudeDegrees>
            </Position>
            <AltitudeMeters>1015.4000244140625</AltitudeMeters>
            <DistanceMeters>47322.964065951</DistanceMeters>
          </Trackpoint>
          <Trackpoint>
            <Time>2019-08-01T10:42:48.000Z</Time>
            <Position>
              <LatitudeDegrees>40.700733102858066558837890625</LatitudeDegrees>
              <LongitudeDegrees>-3.87011806480586528778076171875</LongitudeDegrees>
            </Position>
            <AltitudeMeters>1016.79998779296875</AltitudeMeters>
            <DistanceMeters>47331.049717035</DistanceMeters>
          </Trackpoint>
          <Trackpoint>
            <Time>2019-08-01T10:42:50.000Z</Time>
            <Position>
              <LatitudeDegrees>40.70077635347843170166015625</LatitudeDegrees>
              <LongitudeDegrees>-3.87008705176413059234619140625</LongitudeDegrees>
            </Position>
            <AltitudeMeters>1018</AltitudeMeters>
            <DistanceMeters>47336.528400645</DistanceMeters>
          </Trackpoint>
          <Trackpoint>
            <Time>2019-08-01T10:42:53.000Z</Time>
            <Position>
              <LatitudeDegrees>40.700847096741199493408203125</LatitudeDegrees>
              <LongitudeDegrees>-3.87003608979284763336181640625</LongitudeDegrees>
            </Position>
            <AltitudeMeters>1019.79998779296875</AltitudeMeters>
            <DistanceMeters>47345.500251147</DistanceMeters>
          </Trackpoint>
          <Trackpoint>
            <Time>2019-08-01T10:42:55.000Z</Time>
            <Position>
              <LatitudeDegrees>40.70089864544570446014404296875</LatitudeDegrees>
              <LongitudeDegrees>-3.8699986226856708526611328125</LongitudeDegrees>
            </Position>
            <AltitudeMeters>1021</AltitudeMeters>
            <DistanceMeters>47352.051583327</DistanceMeters>
          </Trackpoint>
          <Trackpoint>
            <Time>2019-08-01T10:42:58.000Z</Time>
            <Position>
              <LatitudeDegrees>40.70098296739161014556884765625</LatitudeDegrees>
              <LongitudeDegrees>-3.8699381053447723388671875</LongitudeDegrees>
            </Position>
            <AltitudeMeters>1022.20001220703125</AltitudeMeters>
            <DistanceMeters>47362.736491211</DistanceMeters>
          </Trackpoint>
          <Trackpoint>
            <Time>2019-08-01T10:43:01.000Z</Time>
            <Position>
              <LatitudeDegrees>40.70107349194586277008056640625</LatitudeDegrees>
              <LongitudeDegrees>-3.8698775880038738250732421875</LongitudeDegrees>
            </Position>
            <AltitudeMeters>1023.5999755859375</AltitudeMeters>
            <DistanceMeters>47374.03228601</DistanceMeters>
          </Trackpoint>
          <Trackpoint>
            <Time>2019-08-01T10:43:04.000Z</Time>
            <Position>
              <LatitudeDegrees>40.7011674530804157257080078125</LatitudeDegrees>
              <LongitudeDegrees>-3.86980692856013774871826171875</LongitudeDegrees>
            </Position>
            <AltitudeMeters>1025</AltitudeMeters>
            <DistanceMeters>47386.070336798</DistanceMeters>
          </Trackpoint>
          <Trackpoint>
            <Time>2019-08-01T10:43:07.000Z</Time>
            <Position>
              <LatitudeDegrees>40.7012609951198101043701171875</LatitudeDegrees>
              <LongitudeDegrees>-3.86973895132541656494140625</LongitudeDegrees>
            </Position>
            <AltitudeMeters>1026.800048828125</AltitudeMeters>
            <DistanceMeters>47397.957035504</DistanceMeters>
          </Trackpoint>
          <Trackpoint>
            <Time>2019-08-01T10:43:09.000Z</Time>
            <Position>
              <LatitudeDegrees>40.70132461376488208770751953125</LatitudeDegrees>
              <LongitudeDegrees>-3.86969997547566890716552734375</LongitudeDegrees>
            </Position>
            <AltitudeMeters>1028.199951171875</AltitudeMeters>
            <DistanceMeters>47405.76485505</DistanceMeters>
          </Trackpoint>
          <Trackpoint>
            <Time>2019-08-01T10:43:13.000Z</Time>
            <Position>
              <LatitudeDegrees>40.7014383561909198760986328125</LatitudeDegrees>
              <LongitudeDegrees>-3.86963107623159885406494140625</LongitudeDegrees>
            </Position>
            <AltitudeMeters>1029.4000244140625</AltitudeMeters>
            <DistanceMeters>47419.695589879</DistanceMeters>
          </Trackpoint>
          <Trackpoint>
            <Time>2019-08-01T10:43:16.000Z</Time>
            <Position>
              <LatitudeDegrees>40.7015178166329860687255859375</LatitudeDegrees>
              <LongitudeDegrees>-3.8695832155644893646240234375</LongitudeDegrees>
            </Position>
            <AltitudeMeters>1031.199951171875</AltitudeMeters>
            <DistanceMeters>47429.41808134</DistanceMeters>
          </Trackpoint>
          <Trackpoint>
            <Time>2019-08-01T10:43:18.000Z</Time>
            <Position>
              <LatitudeDegrees>40.7015728019177913665771484375</LatitudeDegrees>
              <LongitudeDegrees>-3.8695483468472957611083984375</LongitudeDegrees>
            </Position>
            <AltitudeMeters>1032.4000244140625</AltitudeMeters>
            <DistanceMeters>47436.208336882</DistanceMeters>
          </Trackpoint>
          <Trackpoint>
            <Time>2019-08-01T10:43:21.000Z</Time>
            <Position>
              <LatitudeDegrees>40.7016529329121112823486328125</LatitudeDegrees>
              <LongitudeDegrees>-3.8695094548165798187255859375</LongitudeDegrees>
            </Position>
            <AltitudeMeters>1033.800048828125</AltitudeMeters>
            <DistanceMeters>47445.711958539</DistanceMeters>
          </Trackpoint>
          <Trackpoint>
            <Time>2019-08-01T10:43:23.000Z</Time>
            <Position>
              <LatitudeDegrees>40.7017035596072673797607421875</LatitudeDegrees>
              <LongitudeDegrees>-3.86947785504162311553955078125</LongitudeDegrees>
            </Position>
            <AltitudeMeters>1034.800048828125</AltitudeMeters>
            <DistanceMeters>47451.946174529</DistanceMeters>
          </Trackpoint>
          <Trackpoint>
            <Time>2019-08-01T10:43:25.000Z</Time>
            <Position>
              <LatitudeDegrees>40.701755695044994354248046875</LatitudeDegrees>
              <LongitudeDegrees>-3.86944298632442951202392578125</LongitudeDegrees>
            </Position>
            <AltitudeMeters>1036.199951171875</AltitudeMeters>
            <DistanceMeters>47458.452555886</DistanceMeters>
          </Trackpoint>
          <Trackpoint>
            <Time>2019-08-01T10:43:27.000Z</Time>
            <Position>
              <LatitudeDegrees>40.70181026123464107513427734375</LatitudeDegrees>
              <LongitudeDegrees>-3.8694152422249317169189453125</LongitudeDegrees>
            </Position>
            <AltitudeMeters>1037.4000244140625</AltitudeMeters>
            <DistanceMeters>47464.961712412</DistanceMeters>
          </Trackpoint>
          <Trackpoint>
            <Time>2019-08-01T10:43:30.000Z</Time>
            <Position>
              <LatitudeDegrees>40.7018943317234516143798828125</LatitudeDegrees>
              <LongitudeDegrees>-3.869385905563831329345703125</LongitudeDegrees>
            </Position>
            <AltitudeMeters>1038.4000244140625</AltitudeMeters>
            <DistanceMeters>47474.640919152</DistanceMeters>
          </Trackpoint>
          <Trackpoint>
            <Time>2019-08-01T10:43:33.000Z</Time>
            <Position>
              <LatitudeDegrees>40.70197856985032558441162109375</LatitudeDegrees>
              <LongitudeDegrees>-3.8693676330149173736572265625</LongitudeDegrees>
            </Position>
            <AltitudeMeters>1039.800048828125</AltitudeMeters>
            <DistanceMeters>47484.142640274</DistanceMeters>
          </Trackpoint>
          <Trackpoint>
            <Time>2019-08-01T10:43:36.000Z</Time>
            <Position>
              <LatitudeDegrees>40.702062807977199554443359375</LatitudeDegrees>
              <LongitudeDegrees>-3.8693480193614959716796875</LongitudeDegrees>
            </Position>
            <AltitudeMeters>1040.800048828125</AltitudeMeters>
            <DistanceMeters>47493.663349667</DistanceMeters>
          </Trackpoint>
          <Trackpoint>
            <Time>2019-08-01T10:43:40.000Z</Time>
            <Position>
              <LatitudeDegrees>40.70217353291809558868408203125</LatitudeDegrees>
              <LongitudeDegrees>-3.8693300820887088775634765625</LongitudeDegrees>
            </Position>
            <AltitudeMeters>1042.199951171875</AltitudeMeters>
            <DistanceMeters>47506.079527221</DistanceMeters>
          </Trackpoint>
          <Trackpoint>
            <Time>2019-08-01T10:43:43.000Z</Time>
            <Position>
              <LatitudeDegrees>40.70225399918854236602783203125</LatitudeDegrees>
              <LongitudeDegrees>-3.8693149946630001068115234375</LongitudeDegrees>
            </Position>
            <AltitudeMeters>1043.199951171875</AltitudeMeters>
            <DistanceMeters>47515.12555136</DistanceMeters>
          </Trackpoint>
          <Trackpoint>
            <Time>2019-08-01T10:43:49.000Z</Time>
            <Position>
              <LatitudeDegrees>40.702416189014911651611328125</LatitudeDegrees>
              <LongitudeDegrees>-3.86926495470106601715087890625</LongitudeDegrees>
            </Position>
            <AltitudeMeters>1044.199951171875</AltitudeMeters>
            <DistanceMeters>47533.664773825</DistanceMeters>
          </Trackpoint>
          <Trackpoint>
            <Time>2019-08-01T10:43:55.000Z</Time>
            <Position>
              <LatitudeDegrees>40.7025927118957042694091796875</LatitudeDegrees>
              <LongitudeDegrees>-3.8692040182650089263916015625</LongitudeDegrees>
            </Position>
            <AltitudeMeters>1045.4000244140625</AltitudeMeters>
            <DistanceMeters>47553.97383022</DistanceMeters>
          </Trackpoint>
          <Trackpoint>
            <Time>2019-08-01T10:43:59.000Z</Time>
            <Position>
              <LatitudeDegrees>40.7027484476566314697265625</LatitudeDegrees>
              <LongitudeDegrees>-3.8691775314509868621826171875</LongitudeDegrees>
            </Position>
            <AltitudeMeters>1046</AltitudeMeters>
            <DistanceMeters>47571.450738864</DistanceMeters>
          </Trackpoint>
          <Trackpoint>
            <Time>2019-08-01T10:44:04.000Z</Time>
            <Position>
              <LatitudeDegrees>40.70299261249601840972900390625</LatitudeDegrees>
              <LongitudeDegrees>-3.86919236741960048675537109375</LongitudeDegrees>
            </Position>
            <AltitudeMeters>1046.5999755859375</AltitudeMeters>
            <DistanceMeters>47598.655610952</DistanceMeters>
          </Trackpoint>
          <Trackpoint>
            <Time>2019-08-01T10:44:10.000Z</Time>
            <Position>
              <LatitudeDegrees>40.7033286429941654205322265625</LatitudeDegrees>
              <LongitudeDegrees>-3.869273923337459564208984375</LongitudeDegrees>
            </Position>
            <AltitudeMeters>1047.800048828125</AltitudeMeters>
            <DistanceMeters>47636.68434749</DistanceMeters>
          </Trackpoint>
          <Trackpoint>
            <Time>2019-08-01T10:44:13.000Z</Time>
            <Position>
              <LatitudeDegrees>40.70351446978747844696044921875</LatitudeDegrees>
              <LongitudeDegrees>-3.869314491748809814453125</LongitudeDegrees>
            </Position>
            <AltitudeMeters>1047.800048828125</AltitudeMeters>
            <DistanceMeters>47657.648886137</DistanceMeters>
          </Trackpoint>
          <Trackpoint>
            <Time>2019-08-01T10:44:22.000Z</Time>
            <Position>
              <LatitudeDegrees>40.70409181527793407440185546875</LatitudeDegrees>
              <LongitudeDegrees>-3.86920175515115261077880859375</LongitudeDegrees>
            </Position>
            <AltitudeMeters>1049</AltitudeMeters>
            <DistanceMeters>47722.608942346</DistanceMeters>
          </Trackpoint>
          <Trackpoint>
            <Time>2019-08-01T10:44:28.000Z</Time>
            <Position>
              <LatitudeDegrees>40.7045125029981136322021484375</LatitudeDegrees>
              <LongitudeDegrees>-3.86914576403796672821044921875</LongitudeDegrees>
            </Position>
            <AltitudeMeters>1049.199951171875</AltitudeMeters>
            <DistanceMeters>47769.670101161</DistanceMeters>
          </Trackpoint>
          <Trackpoint>
            <Time>2019-08-01T10:44:36.000Z</Time>
            <Position>
              <LatitudeDegrees>40.705052129924297332763671875</LatitudeDegrees>
              <LongitudeDegrees>-3.86918239295482635498046875</LongitudeDegrees>
            </Position>
            <AltitudeMeters>1049</AltitudeMeters>
            <DistanceMeters>47829.811126586</DistanceMeters>
          </Trackpoint>
          <Trackpoint>
            <Time>2019-08-01T10:44:37.000Z</Time>
            <Position>
              <LatitudeDegrees>40.705111138522624969482421875</LatitudeDegrees>
              <LongitudeDegrees>-3.86919421143829822540283203125</LongitudeDegrees>
            </Position>
            <AltitudeMeters>1049</AltitudeMeters>
            <DistanceMeters>47836.454846452</DistanceMeters>
          </Trackpoint>
          <Trackpoint>
            <Time>2019-08-01T10:44:43.000Z</Time>
            <Position>
              <LatitudeDegrees>40.7054237835109233856201171875</LatitudeDegrees>
              <LongitudeDegrees>-3.869458995759487152099609375</LongitudeDegrees>
            </Position>
            <AltitudeMeters>1049.800048828125</AltitudeMeters>
            <DistanceMeters>47877.807301956</DistanceMeters>
          </Trackpoint>
          <Trackpoint>
            <Time>2019-08-01T10:44:49.000Z</Time>
            <Position>
              <LatitudeDegrees>40.7056801021099090576171875</LatitudeDegrees>
              <LongitudeDegrees>-3.869865350425243377685546875</LongitudeDegrees>
            </Position>
            <AltitudeMeters>1050.800048828125</AltitudeMeters>
            <DistanceMeters>47922.410375858</DistanceMeters>
          </Trackpoint>
          <Trackpoint>
            <Time>2019-08-01T10:44:53.000Z</Time>
            <Position>
              <LatitudeDegrees>40.70580893196165561676025390625</LatitudeDegrees>
              <LongitudeDegrees>-3.870143629610538482666015625</LongitudeDegrees>
            </Position>
            <AltitudeMeters>1052</AltitudeMeters>
            <DistanceMeters>47949.922045699</DistanceMeters>
          </Trackpoint>
          <Trackpoint>
            <Time>2019-08-01T10:44:54.000Z</Time>
            <Position>
              <LatitudeDegrees>40.7058438844978809356689453125</LatitudeDegrees>
              <LongitudeDegrees>-3.87020154856145381927490234375</LongitudeDegrees>
            </Position>
            <AltitudeMeters>1052.4000244140625</AltitudeMeters>
            <DistanceMeters>47956.167838702</DistanceMeters>
          </Trackpoint>
          <Trackpoint>
            <Time>2019-08-01T10:44:56.000Z</Time>
            <Position>
              <LatitudeDegrees>40.7059139572083950042724609375</LatitudeDegrees>
              <LongitudeDegrees>-3.87030892074108123779296875</LongitudeDegrees>
            </Position>
            <AltitudeMeters>1053</AltitudeMeters>
            <DistanceMeters>47968.121957646</DistanceMeters>
          </Trackpoint>
          <Trackpoint>
            <Time>2019-08-01T10:45:00.000Z</Time>
            <Position>
              <LatitudeDegrees>40.70605896413326263427734375</LatitudeDegrees>
              <LongitudeDegrees>-3.870482929050922393798828125</LongitudeDegrees>
            </Position>
            <AltitudeMeters>1053.4000244140625</AltitudeMeters>
            <DistanceMeters>47989.940472031</DistanceMeters>
          </Trackpoint>
          <Trackpoint>
            <Time>2019-08-01T10:45:01.000Z</Time>
            <Position>
              <LatitudeDegrees>40.7060980238020420074462890625</LatitudeDegrees>
              <LongitudeDegrees>-3.8705174624919891357421875</LongitudeDegrees>
            </Position>
            <AltitudeMeters>1053.4000244140625</AltitudeMeters>
            <DistanceMeters>47995.17471046</DistanceMeters>
          </Trackpoint>
          <Trackpoint>
            <Time>2019-08-01T10:45:05.000Z</Time>
            <Position>
              <LatitudeDegrees>40.7062770612537860870361328125</LatitudeDegrees>
              <LongitudeDegrees>-3.8706301152706146240234375</LongitudeDegrees>
            </Position>
            <AltitudeMeters>1053.800048828125</AltitudeMeters>
            <DistanceMeters>48017.252833715</DistanceMeters>
          </Trackpoint>
          <Trackpoint>
            <Time>2019-08-01T10:45:11.000Z</Time>
            <Position>
              <LatitudeDegrees>40.70648677647113800048828125</LatitudeDegrees>
              <LongitudeDegrees>-3.87087545357644557952880859375</LongitudeDegrees>
            </Position>
            <AltitudeMeters>1054.800048828125</AltitudeMeters>
            <DistanceMeters>48048.451133024</DistanceMeters>
          </Trackpoint>
          <Trackpoint>
            <Time>2019-08-01T10:45:29.000Z</Time>
            <Position>
              <LatitudeDegrees>40.70689640007913112640380859375</LatitudeDegrees>
              <LongitudeDegrees>-3.87134584598243236541748046875</LongitudeDegrees>
            </Position>
            <AltitudeMeters>1056.199951171875</AltitudeMeters>
            <DistanceMeters>48108.897834433</DistanceMeters>
          </Trackpoint>
          <Trackpoint>
            <Time>2019-08-01T10:45:30.000Z</Time>
            <Position>
              <LatitudeDegrees>40.70691567845642566680908203125</LatitudeDegrees>
              <LongitudeDegrees>-3.8713631965219974517822265625</LongitudeDegrees>
            </Position>
            <AltitudeMeters>1056.199951171875</AltitudeMeters>
            <DistanceMeters>48111.495038141</DistanceMeters>
          </Trackpoint>
          <Trackpoint>
            <Time>2019-08-01T10:45:39.000Z</Time>
            <Position>
              <LatitudeDegrees>40.70704844780266284942626953125</LatitudeDegrees>
              <LongitudeDegrees>-3.87152404524385929107666015625</LongitudeDegrees>
            </Position>
            <AltitudeMeters>1055.5999755859375</AltitudeMeters>
            <DistanceMeters>48131.559181231</DistanceMeters>
          </Trackpoint>
          <Trackpoint>
            <Time>2019-08-01T10:45:45.000Z</Time>
            <Position>
              <LatitudeDegrees>40.70708164013922214508056640625</LatitudeDegrees>
              <LongitudeDegrees>-3.87161515653133392333984375</LongitudeDegrees>
            </Position>
            <AltitudeMeters>1054</AltitudeMeters>
            <DistanceMeters>48140.088325141</DistanceMeters>
          </Trackpoint>
          <Trackpoint>
            <Time>2019-08-01T10:45:48.000Z</Time>
            <Position>
              <LatitudeDegrees>40.70708884857594966888427734375</LatitudeDegrees>
              <LongitudeDegrees>-3.87166880071163177490234375</LongitudeDegrees>
            </Position>
            <AltitudeMeters>1053</AltitudeMeters>
            <DistanceMeters>48144.685104326</DistanceMeters>
          </Trackpoint>
          <Trackpoint>
            <Time>2019-08-01T10:45:51.000Z</Time>
            <Position>
              <LatitudeDegrees>40.70709387771785259246826171875</LatitudeDegrees>
              <LongitudeDegrees>-3.87172169052064418792724609375</LongitudeDegrees>
            </Position>
            <AltitudeMeters>1051.4000244140625</AltitudeMeters>
            <DistanceMeters>48149.182589316</DistanceMeters>
          </Trackpoint>
          <Trackpoint>
            <Time>2019-08-01T10:45:52.000Z</Time>
            <Position>
              <LatitudeDegrees>40.7071016728878021240234375</LatitudeDegrees>
              <LongitudeDegrees>-3.87173560447990894317626953125</LongitudeDegrees>
            </Position>
            <AltitudeMeters>1050.800048828125</AltitudeMeters>
            <DistanceMeters>48150.642417402</DistanceMeters>
          </Trackpoint>
          <Trackpoint>
            <Time>2019-08-01T10:45:53.000Z</Time>
            <Position>
              <LatitudeDegrees>40.70711080916225910186767578125</LatitudeDegrees>
              <LongitudeDegrees>-3.87175002135336399078369140625</LongitudeDegrees>
            </Position>
            <AltitudeMeters>1050.5999755859375</AltitudeMeters>
            <DistanceMeters>48152.22682936</DistanceMeters>
          </Trackpoint>
          <Trackpoint>
            <Time>2019-08-01T10:45:56.000Z</Time>
            <Position>
              <LatitudeDegrees>40.70712891407310962677001953125</LatitudeDegrees>
              <LongitudeDegrees>-3.871800564229488372802734375</LongitudeDegrees>
            </Position>
            <AltitudeMeters>1049.199951171875</AltitudeMeters>
            <DistanceMeters>48156.943831412</DistanceMeters>
          </Trackpoint>
          <Trackpoint>
            <Time>2019-08-01T10:45:57.000Z</Time>
            <Position>
              <LatitudeDegrees>40.7071313448250293731689453125</LatitudeDegrees>
              <LongitudeDegrees>-3.87181858532130718231201171875</LongitudeDegrees>
            </Position>
            <AltitudeMeters>1048.5999755859375</AltitudeMeters>
            <DistanceMeters>48158.487832766</DistanceMeters>
          </Trackpoint>
          <Trackpoint>
            <Time>2019-08-01T10:45:58.000Z</Time>
            <Position>
              <LatitudeDegrees>40.70713360793888568878173828125</LatitudeDegrees>
              <LongitudeDegrees>-3.8718356005847454071044921875</LongitudeDegrees>
            </Position>
            <AltitudeMeters>1048.199951171875</AltitudeMeters>
            <DistanceMeters>48159.947660852</DistanceMeters>
          </Trackpoint>
          <Trackpoint>
            <Time>2019-08-01T10:45:59.000Z</Time>
            <Position>
              <LatitudeDegrees>40.70713327266275882720947265625</LatitudeDegrees>
              <LongitudeDegrees>-3.87185521423816680908203125</LongitudeDegrees>
            </Position>
            <AltitudeMeters>1047.5999755859375</AltitudeMeters>
            <DistanceMeters>48161.601780909</DistanceMeters>
          </Trackpoint>
          <Trackpoint>
            <Time>2019-08-01T10:46:01.000Z</Time>
            <Position>
              <LatitudeDegrees>40.70712757296860218048095703125</LatitudeDegrees>
              <LongitudeDegrees>-3.87189502827823162078857421875</LongitudeDegrees>
            </Position>
            <AltitudeMeters>1046.800048828125</AltitudeMeters>
            <DistanceMeters>48165.020101976</DistanceMeters>
          </Trackpoint>
          <Trackpoint>
            <Time>2019-08-01T10:46:03.000Z</Time>
            <Position>
              <LatitudeDegrees>40.70712790824472904205322265625</LatitudeDegrees>
              <LongitudeDegrees>-3.87192972935736179351806640625</LongitudeDegrees>
            </Position>
            <AltitudeMeters>1045.800048828125</AltitudeMeters>
            <DistanceMeters>48167.947480077</DistanceMeters>
          </Trackpoint>
          <Trackpoint>
            <Time>2019-08-01T10:46:06.000Z</Time>
            <Position>
              <LatitudeDegrees>40.70712991990149021148681640625</LatitudeDegrees>
              <LongitudeDegrees>-3.87198806740343570709228515625</LongitudeDegrees>
            </Position>
            <AltitudeMeters>1044.199951171875</AltitudeMeters>
            <DistanceMeters>48172.874228039</DistanceMeters>
          </Trackpoint>
          <Trackpoint>
            <Time>2019-08-01T10:46:08.000Z</Time>
            <Position>
              <LatitudeDegrees>40.7071330212056636810302734375</LatitudeDegrees>
              <LongitudeDegrees>-3.87202494777739048004150390625</LongitudeDegrees>
            </Position>
            <AltitudeMeters>1042.800048828125</AltitudeMeters>
            <DistanceMeters>48176.002902337</DistanceMeters>
          </Trackpoint>
          <Trackpoint>
            <Time>2019-08-01T10:46:11.000Z</Time>
            <Position>
              <LatitudeDegrees>40.70713729597628116607666015625</LatitudeDegrees>
              <LongitudeDegrees>-3.87207272462546825408935546875</LongitudeDegrees>
            </Position>
            <AltitudeMeters>1041.5999755859375</AltitudeMeters>
            <DistanceMeters>48180.061332999</DistanceMeters>
          </Trackpoint>
          <Trackpoint>
            <Time>2019-08-01T10:46:12.000Z</Time>
            <Position>
              <LatitudeDegrees>40.70713721215724945068359375</LatitudeDegrees>
              <LongitudeDegrees>-3.87207590974867343902587890625</LongitudeDegrees>
            </Position>
            <AltitudeMeters>1041.199951171875</AltitudeMeters>
            <DistanceMeters>48180.330109135</DistanceMeters>
          </Trackpoint>
          <Trackpoint>
            <Time>2019-08-01T10:47:32.000Z</Time>
            <Position>
              <LatitudeDegrees>40.70714986883103847503662109375</LatitudeDegrees>
              <LongitudeDegrees>-3.87211329303681850433349609375</LongitudeDegrees>
            </Position>
            <AltitudeMeters>1047.5999755859375</AltitudeMeters>
            <DistanceMeters>48183.783908635</DistanceMeters>
          </Trackpoint>
          <Trackpoint>
            <Time>2019-08-01T10:47:38.000Z</Time>
            <Position>
              <LatitudeDegrees>40.70722010917961597442626953125</LatitudeDegrees>
              <LongitudeDegrees>-3.87230121530592441558837890625</LongitudeDegrees>
            </Position>
            <AltitudeMeters>1046.4000244140625</AltitudeMeters>
            <DistanceMeters>48201.46194262</DistanceMeters>
          </Trackpoint>
          <Trackpoint>
            <Time>2019-08-01T10:47:43.000Z</Time>
            <Position>
              <LatitudeDegrees>40.707305856049060821533203125</LatitudeDegrees>
              <LongitudeDegrees>-3.8725490681827068328857421875</LongitudeDegrees>
            </Position>
            <AltitudeMeters>1045.5999755859375</AltitudeMeters>
            <DistanceMeters>48224.448981428</DistanceMeters>
          </Trackpoint>
          <Trackpoint>
            <Time>2019-08-01T10:47:46.000Z</Time>
            <Position>
              <LatitudeDegrees>40.707362182438373565673828125</LatitudeDegrees>
              <LongitudeDegrees>-3.87271461077034473419189453125</LongitudeDegrees>
            </Position>
            <AltitudeMeters>1044.800048828125</AltitudeMeters>
            <DistanceMeters>48239.758607948</DistanceMeters>
          </Trackpoint>
          <Trackpoint>
            <Time>2019-08-01T10:47:47.000Z</Time>
            <Position>
              <LatitudeDegrees>40.70739202201366424560546875</LatitudeDegrees>
              <LongitudeDegrees>-3.87276045978069305419921875</LongitudeDegrees>
            </Position>
            <AltitudeMeters>1044.4000244140625</AltitudeMeters>
            <DistanceMeters>48244.856505555</DistanceMeters>
          </Trackpoint>
          <Trackpoint>
            <Time>2019-08-01T10:47:50.000Z</Time>
            <Position>
              <LatitudeDegrees>40.70747843943536281585693359375</LatitudeDegrees>
              <LongitudeDegrees>-3.8728994317352771759033203125</LongitudeDegrees>
            </Position>
            <AltitudeMeters>1044</AltitudeMeters>
            <DistanceMeters>48260.022126117</DistanceMeters>
          </Trackpoint>
          <Trackpoint>
            <Time>2019-08-01T10:47:51.000Z</Time>
            <Position>
              <LatitudeDegrees>40.707508362829685211181640625</LatitudeDegrees>
              <LongitudeDegrees>-3.87294477783143520355224609375</LongitudeDegrees>
            </Position>
            <AltitudeMeters>1044</AltitudeMeters>
            <DistanceMeters>48265.094274359</DistanceMeters>
          </Trackpoint>
          <Trackpoint>
            <Time>2019-08-01T10:48:01.000Z</Time>
            <Position>
              <LatitudeDegrees>40.70775772444903850555419921875</LatitudeDegrees>
              <LongitudeDegrees>-3.8734704069793224334716796875</LongitudeDegrees>
            </Position>
            <AltitudeMeters>1044.800048828125</AltitudeMeters>
            <DistanceMeters>48317.411551054</DistanceMeters>
          </Trackpoint>
          <Trackpoint>
            <Time>2019-08-01T10:48:07.000Z</Time>
            <Position>
              <LatitudeDegrees>40.70794397033751010894775390625</LatitudeDegrees>
              <LongitudeDegrees>-3.87373988516628742218017578125</LongitudeDegrees>
            </Position>
            <AltitudeMeters>1046</AltitudeMeters>
            <DistanceMeters>48348.179375708</DistanceMeters>
          </Trackpoint>
          <Trackpoint>
            <Time>2019-08-01T10:48:12.000Z</Time>
            <Position>
              <LatitudeDegrees>40.7080587185919284820556640625</LatitudeDegrees>
              <LongitudeDegrees>-3.87389780022203922271728515625</LongitudeDegrees>
            </Position>
            <AltitudeMeters>1047</AltitudeMeters>
            <DistanceMeters>48366.6356089</DistanceMeters>
          </Trackpoint>
          <Trackpoint>
            <Time>2019-08-01T10:48:27.000Z</Time>
            <Position>
              <LatitudeDegrees>40.7084910571575164794921875</LatitudeDegrees>
              <LongitudeDegrees>-3.87430264614522457122802734375</LongitudeDegrees>
            </Position>
            <AltitudeMeters>1048.199951171875</AltitudeMeters>
            <DistanceMeters>48425.646356896</DistanceMeters>
          </Trackpoint>
          <Trackpoint>
            <Time>2019-08-01T10:48:33.000Z</Time>
            <Position>
              <LatitudeDegrees>40.7086920551955699920654296875</LatitudeDegrees>
              <LongitudeDegrees>-3.8745855353772640228271484375</LongitudeDegrees>
            </Position>
            <AltitudeMeters>1048.800048828125</AltitudeMeters>
            <DistanceMeters>48458.359294692</DistanceMeters>
          </Trackpoint>
          <Trackpoint>
            <Time>2019-08-01T10:48:37.000Z</Time>
            <Position>
              <LatitudeDegrees>40.7088332064449787139892578125</LatitudeDegrees>
              <LongitudeDegrees>-3.87481058947741985321044921875</LongitudeDegrees>
            </Position>
            <AltitudeMeters>1049.800048828125</AltitudeMeters>
            <DistanceMeters>48483.004029254</DistanceMeters>
          </Trackpoint>
          <Trackpoint>
            <Time>2019-08-01T10:48:40.000Z</Time>
            <Position>
              <LatitudeDegrees>40.7089475356042385101318359375</LatitudeDegrees>
              <LongitudeDegrees>-3.8749868609011173248291015625</LongitudeDegrees>
            </Position>
            <AltitudeMeters>1050.4000244140625</AltitudeMeters>
            <DistanceMeters>48502.577225804</DistanceMeters>
          </Trackpoint>
          <Trackpoint>
            <Time>2019-08-01T10:48:42.000Z</Time>
            <Position>
              <LatitudeDegrees>40.7090176083147525787353515625</LatitudeDegrees>
              <LongitudeDegrees>-3.87510261498391628265380859375</LongitudeDegrees>
            </Position>
            <AltitudeMeters>1051</AltitudeMeters>
            <DistanceMeters>48515.076038647</DistanceMeters>
          </Trackpoint>
          <Trackpoint>
            <Time>2019-08-01T10:48:44.000Z</Time>
            <Position>
              <LatitudeDegrees>40.70908851921558380126953125</LatitudeDegrees>
              <LongitudeDegrees>-3.875200934708118438720703125</LongitudeDegrees>
            </Position>
            <AltitudeMeters>1051.800048828125</AltitudeMeters>
            <DistanceMeters>48526.525870516</DistanceMeters>
          </Trackpoint>
          <Trackpoint>
            <Time>2019-08-01T10:48:45.000Z</Time>
            <Position>
              <LatitudeDegrees>40.70912565104663372039794921875</LatitudeDegrees>
              <LongitudeDegrees>-3.8752450235188007354736328125</LongitudeDegrees>
            </Position>
            <AltitudeMeters>1052.199951171875</AltitudeMeters>
            <DistanceMeters>48532.086354464</DistanceMeters>
          </Trackpoint>
          <Trackpoint>
            <Time>2019-08-01T10:48:49.000Z</Time>
            <Position>
              <LatitudeDegrees>40.7092529721558094024658203125</LatitudeDegrees>
              <LongitudeDegrees>-3.875408135354518890380859375</LongitudeDegrees>
            </Position>
            <AltitudeMeters>1053.199951171875</AltitudeMeters>
            <DistanceMeters>48551.840029143</DistanceMeters>
          </Trackpoint>
          <Trackpoint>
            <Time>2019-08-01T10:48:57.000Z</Time>
            <Position>
              <LatitudeDegrees>40.70939068682491779327392578125</LatitudeDegrees>
              <LongitudeDegrees>-3.8756775297224521636962890625</LongitudeDegrees>
            </Position>
            <AltitudeMeters>1054.800048828125</AltitudeMeters>
            <DistanceMeters>48579.2542069</DistanceMeters>
          </Trackpoint>
          <Trackpoint>
            <Time>2019-08-01T10:49:09.000Z</Time>
            <Position>
              <LatitudeDegrees>40.709629990160465240478515625</LatitudeDegrees>
              <LongitudeDegrees>-3.87602378614246845245361328125</LongitudeDegrees>
            </Position>
            <AltitudeMeters>1056</AltitudeMeters>
            <DistanceMeters>48618.787147473</DistanceMeters>
          </Trackpoint>
          <Trackpoint>
            <Time>2019-08-01T10:49:21.000Z</Time>
            <Position>
              <LatitudeDegrees>40.710088312625885009765625</LatitudeDegrees>
              <LongitudeDegrees>-3.8764644227921962738037109375</LongitudeDegrees>
            </Position>
            <AltitudeMeters>1056.800048828125</AltitudeMeters>
            <DistanceMeters>48681.908566493</DistanceMeters>
          </Trackpoint>
          <Trackpoint>
            <Time>2019-08-01T10:49:24.000Z</Time>
            <Position>
              <LatitudeDegrees>40.710221417248249053955078125</LatitudeDegrees>
              <LongitudeDegrees>-3.87655913829803466796875</LongitudeDegrees>
            </Position>
            <AltitudeMeters>1057.199951171875</AltitudeMeters>
            <DistanceMeters>48698.741443213</DistanceMeters>
          </Trackpoint>
          <Trackpoint>
            <Time>2019-08-01T10:49:29.000Z</Time>
            <Position>
              <LatitudeDegrees>40.71046222932636737823486328125</LatitudeDegrees>
              <LongitudeDegrees>-3.87652250938117504119873046875</LongitudeDegrees>
            </Position>
            <AltitudeMeters>1057</AltitudeMeters>
            <DistanceMeters>48725.722002556</DistanceMeters>
          </Trackpoint>
          <Trackpoint>
            <Time>2019-08-01T10:49:30.000Z</Time>
            <Position>
              <LatitudeDegrees>40.7105105929076671600341796875</LatitudeDegrees>
              <LongitudeDegrees>-3.876496441662311553955078125</LongitudeDegrees>
            </Position>
            <AltitudeMeters>1056.800048828125</AltitudeMeters>
            <DistanceMeters>48731.538072222</DistanceMeters>
          </Trackpoint>
          <Trackpoint>
            <Time>2019-08-01T10:49:35.000Z</Time>
            <Position>
              <LatitudeDegrees>40.71070346049964427947998046875</LatitudeDegrees>
              <LongitudeDegrees>-3.876279853284358978271484375</LongitudeDegrees>
            </Position>
            <AltitudeMeters>1056</AltitudeMeters>
            <DistanceMeters>48759.728832546</DistanceMeters>
          </Trackpoint>
          <Trackpoint>
            <Time>2019-08-01T10:49:36.000Z</Time>
            <Position>
              <LatitudeDegrees>40.710738413035869598388671875</LatitudeDegrees>
              <LongitudeDegrees>-3.8762230239808559417724609375</LongitudeDegrees>
            </Position>
            <AltitudeMeters>1055.4000244140625</AltitudeMeters>
            <DistanceMeters>48765.903375667</DistanceMeters>
          </Trackpoint>
          <Trackpoint>
            <Time>2019-08-01T10:49:40.000Z</Time>
            <Position>
              <LatitudeDegrees>40.7109050452709197998046875</LatitudeDegrees>
              <LongitudeDegrees>-3.87600216083228588104248046875</LongitudeDegrees>
            </Position>
            <AltitudeMeters>1054.4000244140625</AltitudeMeters>
            <DistanceMeters>48792.194023649</DistanceMeters>
          </Trackpoint>
          <Trackpoint>
            <Time>2019-08-01T10:49:44.000Z</Time>
            <Position>
              <LatitudeDegrees>40.7110782153904438018798828125</LatitudeDegrees>
              <LongitudeDegrees>-3.8757921941578388214111328125</LongitudeDegrees>
            </Position>
            <AltitudeMeters>1053.4000244140625</AltitudeMeters>
            <DistanceMeters>48818.37211566</DistanceMeters>
          </Trackpoint>
          <Trackpoint>
            <Time>2019-08-01T10:49:46.000Z</Time>
            <Position>
              <LatitudeDegrees>40.7111616991460323333740234375</LatitudeDegrees>
              <LongitudeDegrees>-3.87569370679557323455810546875</LongitudeDegrees>
            </Position>
            <AltitudeMeters>1052.199951171875</AltitudeMeters>
            <DistanceMeters>48830.837288157</DistanceMeters>
          </Trackpoint>
          <Trackpoint>
            <Time>2019-08-01T10:49:48.000Z</Time>
            <Position>
              <LatitudeDegrees>40.71124157868325710296630859375</LatitudeDegrees>
              <LongitudeDegrees>-3.8755997456610202789306640625</LongitudeDegrees>
            </Position>
            <AltitudeMeters>1051.199951171875</AltitudeMeters>
            <DistanceMeters>48842.748650845</DistanceMeters>
          </Trackpoint>
          <Trackpoint>
            <Time>2019-08-01T10:49:49.000Z</Time>
            <Position>
              <LatitudeDegrees>40.71127912960946559906005859375</LatitudeDegrees>
              <LongitudeDegrees>-3.87555423192679882049560546875</LongitudeDegrees>
            </Position>
            <AltitudeMeters>1050.800048828125</AltitudeMeters>
            <DistanceMeters>48848.424856686</DistanceMeters>
          </Trackpoint>
          <Trackpoint>
            <Time>2019-08-01T10:49:52.000Z</Time>
            <Position>
              <LatitudeDegrees>40.7113665528595447540283203125</LatitudeDegrees>
              <LongitudeDegrees>-3.8754230551421642303466796875</LongitudeDegrees>
            </Position>
            <AltitudeMeters>1050.199951171875</AltitudeMeters>
            <DistanceMeters>48863.161352484</DistanceMeters>
          </Trackpoint>
          <Trackpoint>
            <Time>2019-08-01T10:49:53.000Z</Time>
            <Position>
              <LatitudeDegrees>40.711381472647190093994140625</LatitudeDegrees>
              <LongitudeDegrees>-3.87536999769508838653564453125</LongitudeDegrees>
            </Position>
            <AltitudeMeters>1050.199951171875</AltitudeMeters>
            <DistanceMeters>48867.936385784</DistanceMeters>
          </Trackpoint>
          <Trackpoint>
            <Time>2019-08-01T10:49:56.000Z</Time>
            <Position>
              <LatitudeDegrees>40.7114101387560367584228515625</LatitudeDegrees>
              <LongitudeDegrees>-3.8751890324056148529052734375</LongitudeDegrees>
            </Position>
            <AltitudeMeters>1049.199951171875</AltitudeMeters>
            <DistanceMeters>48883.533509218</DistanceMeters>
          </Trackpoint>
          <Trackpoint>
            <Time>2019-08-01T10:49:57.000Z</Time>
            <Position>
              <LatitudeDegrees>40.71141424588859081268310546875</LatitudeDegrees>
              <LongitudeDegrees>-3.8751243241131305694580078125</LongitudeDegrees>
            </Position>
            <AltitudeMeters>1049</AltitudeMeters>
            <DistanceMeters>48889.01054436</DistanceMeters>
          </Trackpoint>
          <Trackpoint>
            <Time>2019-08-01T10:50:01.000Z</Time>
            <Position>
              <LatitudeDegrees>40.71142195723950862884521484375</LatitudeDegrees>
              <LongitudeDegrees>-3.8748675025999546051025390625</LongitudeDegrees>
            </Position>
            <AltitudeMeters>1048</AltitudeMeters>
            <DistanceMeters>48910.694549535</DistanceMeters>
          </Trackpoint>
          <Trackpoint>
            <Time>2019-08-01T10:50:03.000Z</Time>
            <Position>
              <LatitudeDegrees>40.71142606437206268310546875</LatitudeDegrees>
              <LongitudeDegrees>-3.8747618906199932098388671875</LongitudeDegrees>
            </Position>
            <AltitudeMeters>1047.199951171875</AltitudeMeters>
            <DistanceMeters>48919.615933608</DistanceMeters>
          </Trackpoint>
          <Trackpoint>
            <Time>2019-08-01T10:50:04.000Z</Time>
            <Position>
              <LatitudeDegrees>40.71143318898975849151611328125</LatitudeDegrees>
              <LongitudeDegrees>-3.87470464222133159637451171875</LongitudeDegrees>
            </Position>
            <AltitudeMeters>1046.800048828125</AltitudeMeters>
            <DistanceMeters>48924.509578745</DistanceMeters>
          </Trackpoint>
          <Trackpoint>
            <Time>2019-08-01T10:50:07.000Z</Time>
            <Position>
              <LatitudeDegrees>40.7114775292575359344482421875</LatitudeDegrees>
              <LongitudeDegrees>-3.87453767471015453338623046875</LongitudeDegrees>
            </Position>
            <AltitudeMeters>1045.4000244140625</AltitudeMeters>
            <DistanceMeters>48939.435429339</DistanceMeters>
          </Trackpoint>
          <Trackpoint>
            <Time>2019-08-01T10:50:12.000Z</Time>
            <Position>
              <LatitudeDegrees>40.71165044791996479034423828125</LatitudeDegrees>
              <LongitudeDegrees>-3.874347992241382598876953125</LongitudeDegrees>
            </Position>
            <AltitudeMeters>1044.4000244140625</AltitudeMeters>
            <DistanceMeters>48964.465545273</DistanceMeters>
          </Trackpoint>
          <Trackpoint>
            <Time>2019-08-01T10:50:13.000Z</Time>
            <Position>
              <LatitudeDegrees>40.71169571019709110260009765625</LatitudeDegrees>
              <LongitudeDegrees>-3.87431706301867961883544921875</LongitudeDegrees>
            </Position>
            <AltitudeMeters>1044.199951171875</AltitudeMeters>
            <DistanceMeters>48970.139364316</DistanceMeters>
          </Trackpoint>
          <Trackpoint>
            <Time>2019-08-01T10:50:14.000Z</Time>
            <Position>
              <LatitudeDegrees>40.711738206446170806884765625</LatitudeDegrees>
              <LongitudeDegrees>-3.87428320012986660003662109375</LongitudeDegrees>
            </Position>
            <AltitudeMeters>1043.800048828125</AltitudeMeters>
            <DistanceMeters>48975.665639601</DistanceMeters>
          </Trackpoint>
          <Trackpoint>
            <Time>2019-08-01T10:50:16.000Z</Time>
            <Position>
              <LatitudeDegrees>40.71179981343448162078857421875</LatitudeDegrees>
              <LongitudeDegrees>-3.8741915859282016754150390625</LongitudeDegrees>
            </Position>
            <AltitudeMeters>1043.4000244140625</AltitudeMeters>
            <DistanceMeters>48985.9982382</DistanceMeters>
          </Trackpoint>
          <Trackpoint>
            <Time>2019-08-01T10:50:19.000Z</Time>
            <Position>
              <LatitudeDegrees>40.71183887310326099395751953125</LatitudeDegrees>
              <LongitudeDegrees>-3.87400039471685886383056640625</LongitudeDegrees>
            </Position>
            <AltitudeMeters>1042.199951171875</AltitudeMeters>
            <DistanceMeters>49002.704031883</DistanceMeters>
          </Trackpoint>
          <Trackpoint>
            <Time>2019-08-01T10:50:21.000Z</Time>
            <Position>
              <LatitudeDegrees>40.71185521781444549560546875</LatitudeDegrees>
              <LongitudeDegrees>-3.873855136334896087646484375</LongitudeDegrees>
            </Position>
            <AltitudeMeters>1041.199951171875</AltitudeMeters>
            <DistanceMeters>49015.093270737</DistanceMeters>
          </Trackpoint>
          <Trackpoint>
            <Time>2019-08-01T10:50:24.000Z</Time>
            <Position>
              <LatitudeDegrees>40.71185588836669921875</LatitudeDegrees>
              <LongitudeDegrees>-3.8736551441252231597900390625</LongitudeDegrees>
            </Position>
            <AltitudeMeters>1040</AltitudeMeters>
            <DistanceMeters>49031.966333593</DistanceMeters>
          </Trackpoint>
          <Trackpoint>
            <Time>2019-08-01T10:50:27.000Z</Time>
            <Position>
              <LatitudeDegrees>40.71179914288222789764404296875</LatitudeDegrees>
              <LongitudeDegrees>-3.8734968937933444976806640625</LongitudeDegrees>
            </Position>
            <AltitudeMeters>1038.800048828125</AltitudeMeters>
            <DistanceMeters>49046.735881882</DistanceMeters>
          </Trackpoint>
          <Trackpoint>
            <Time>2019-08-01T10:50:29.000Z</Time>
            <Position>
              <LatitudeDegrees>40.711722113192081451416015625</LatitudeDegrees>
              <LongitudeDegrees>-3.873427323997020721435546875</LongitudeDegrees>
            </Position>
            <AltitudeMeters>1038.4000244140625</AltitudeMeters>
            <DistanceMeters>49057.126000451</DistanceMeters>
          </Trackpoint>
          <Trackpoint>
            <Time>2019-08-01T10:50:30.000Z</Time>
            <Position>
              <LatitudeDegrees>40.71168489754199981689453125</LatitudeDegrees>
              <LongitudeDegrees>-3.8733936287462711334228515625</LongitudeDegrees>
            </Position>
            <AltitudeMeters>1038.199951171875</AltitudeMeters>
            <DistanceMeters>49062.150748578</DistanceMeters>
          </Trackpoint>
          <Trackpoint>
            <Time>2019-08-01T10:50:31.000Z</Time>
            <Position>
              <LatitudeDegrees>40.71165514178574085235595703125</LatitudeDegrees>
              <LongitudeDegrees>-3.8733547367155551910400390625</LongitudeDegrees>
            </Position>
            <AltitudeMeters>1037.800048828125</AltitudeMeters>
            <DistanceMeters>49066.811903362</DistanceMeters>
          </Trackpoint>
          <Trackpoint>
            <Time>2019-08-01T10:50:34.000Z</Time>
            <Position>
              <LatitudeDegrees>40.71164994500577449798583984375</LatitudeDegrees>
              <LongitudeDegrees>-3.87322154827415943145751953125</LongitudeDegrees>
            </Position>
            <AltitudeMeters>1036.5999755859375</AltitudeMeters>
            <DistanceMeters>49078.063644194</DistanceMeters>
          </Trackpoint>
          <Trackpoint>
            <Time>2019-08-01T10:50:37.000Z</Time>
            <Position>
              <LatitudeDegrees>40.71172337047755718231201171875</LatitudeDegrees>
              <LongitudeDegrees>-3.87311476282775402069091796875</LongitudeDegrees>
            </Position>
            <AltitudeMeters>1035.5999755859375</AltitudeMeters>
            <DistanceMeters>49090.227806007</DistanceMeters>
          </Trackpoint>
          <Trackpoint>
            <Time>2019-08-01T10:50:39.000Z</Time>
            <Position>
              <LatitudeDegrees>40.711799897253513336181640625</LatitudeDegrees>
              <LongitudeDegrees>-3.87306162156164646148681640625</LongitudeDegrees>
            </Position>
            <AltitudeMeters>1034.199951171875</AltitudeMeters>
            <DistanceMeters>49099.853219469</DistanceMeters>
          </Trackpoint>
          <Trackpoint>
            <Time>2019-08-01T10:50:42.000Z</Time>
            <Position>
              <LatitudeDegrees>40.7119309902191162109375</LatitudeDegrees>
              <LongitudeDegrees>-3.87296807952225208282470703125</LongitudeDegrees>
            </Position>
            <AltitudeMeters>1033.199951171875</AltitudeMeters>
            <DistanceMeters>49116.441302221</DistanceMeters>
          </Trackpoint>
          <Trackpoint>
            <Time>2019-08-01T10:50:44.000Z</Time>
            <Position>
              <LatitudeDegrees>40.71202327497303485870361328125</LatitudeDegrees>
              <LongitudeDegrees>-3.8728944025933742523193359375</LongitudeDegrees>
            </Position>
            <AltitudeMeters>1032.199951171875</AltitudeMeters>
            <DistanceMeters>49128.447054184</DistanceMeters>
          </Trackpoint>
          <Trackpoint>
            <Time>2019-08-01T10:50:47.000Z</Time>
            <Position>
              <LatitudeDegrees>40.71216777898371219635009765625</LatitudeDegrees>
              <LongitudeDegrees>-3.8727713562548160552978515625</LongitudeDegrees>
            </Position>
            <AltitudeMeters>1030.800048828125</AltitudeMeters>
            <DistanceMeters>49147.58992576</DistanceMeters>
          </Trackpoint>
          <Trackpoint>
            <Time>2019-08-01T10:50:51.000Z</Time>
            <Position>
              <LatitudeDegrees>40.71237481199204921722412109375</LatitudeDegrees>
              <LongitudeDegrees>-3.87261033989489078521728515625</LongitudeDegrees>
            </Position>
            <AltitudeMeters>1029.4000244140625</AltitudeMeters>
            <DistanceMeters>49174.339566083</DistanceMeters>
          </Trackpoint>
          <Trackpoint>
            <Time>2019-08-01T10:50:54.000Z</Time>
            <Position>
              <LatitudeDegrees>40.7125453837215900421142578125</LatitudeDegrees>
              <LongitudeDegrees>-3.87247421778738498687744140625</LongitudeDegrees>
            </Position>
            <AltitudeMeters>1028.5999755859375</AltitudeMeters>
            <DistanceMeters>49196.527846047</DistanceMeters>
          </Trackpoint>
          <Trackpoint>
            <Time>2019-08-01T10:50:59.000Z</Time>
            <Position>
              <LatitudeDegrees>40.7127623073756694793701171875</LatitudeDegrees>
              <LongitudeDegrees>-3.87224405072629451751708984375</LongitudeDegrees>
            </Position>
            <AltitudeMeters>1027.5999755859375</AltitudeMeters>
            <DistanceMeters>49227.511801361</DistanceMeters>
          </Trackpoint>
          <Trackpoint>
            <Time>2019-08-01T10:51:03.000Z</Time>
            <Position>
              <LatitudeDegrees>40.71282751858234405517578125</LatitudeDegrees>
              <LongitudeDegrees>-3.87211136519908905029296875</LongitudeDegrees>
            </Position>
            <AltitudeMeters>1026.4000244140625</AltitudeMeters>
            <DistanceMeters>49240.852821064</DistanceMeters>
          </Trackpoint>
          <Trackpoint>
            <Time>2019-08-01T10:51:06.000Z</Time>
            <Position>
              <LatitudeDegrees>40.712850652635097503662109375</LatitudeDegrees>
              <LongitudeDegrees>-3.8720478303730487823486328125</LongitudeDegrees>
            </Position>
            <AltitudeMeters>1025.4000244140625</AltitudeMeters>
            <DistanceMeters>49246.799398176</DistanceMeters>
          </Trackpoint>
          <Trackpoint>
            <Time>2019-08-01T10:51:09.000Z</Time>
            <Position>
              <LatitudeDegrees>40.71292399428784847259521484375</LatitudeDegrees>
              <LongitudeDegrees>-3.87196007184684276580810546875</LongitudeDegrees>
            </Position>
            <AltitudeMeters>1024.199951171875</AltitudeMeters>
            <DistanceMeters>49257.820039181</DistanceMeters>
          </Trackpoint>
          <Trackpoint>
            <Time>2019-08-01T10:51:10.000Z</Time>
            <Position>
              <LatitudeDegrees>40.7129587791860103607177734375</LatitudeDegrees>
              <LongitudeDegrees>-3.87192352674901485443115234375</LongitudeDegrees>
            </Position>
            <AltitudeMeters>1023.79998779296875</AltitudeMeters>
            <DistanceMeters>49262.769644963</DistanceMeters>
          </Trackpoint>
          <Trackpoint>
            <Time>2019-08-01T10:51:12.000Z</Time>
            <Position>
              <LatitudeDegrees>40.71304745972156524658203125</LatitudeDegrees>
              <LongitudeDegrees>-3.87186552397906780242919921875</LongitudeDegrees>
            </Position>
            <AltitudeMeters>1022.5999755859375</AltitudeMeters>
            <DistanceMeters>49273.786188314</DistanceMeters>
          </Trackpoint>
          <Trackpoint>
            <Time>2019-08-01T10:51:14.000Z</Time>
            <Position>
              <LatitudeDegrees>40.71314745582640171051025390625</LatitudeDegrees>
              <LongitudeDegrees>-3.87182445265352725982666015625</LongitudeDegrees>
            </Position>
            <AltitudeMeters>1021.4000244140625</AltitudeMeters>
            <DistanceMeters>49285.442368228</DistanceMeters>
          </Trackpoint>
          <Trackpoint>
            <Time>2019-08-01T10:51:17.000Z</Time>
            <Position>
              <LatitudeDegrees>40.71330000646412372589111328125</LatitudeDegrees>
              <LongitudeDegrees>-3.8717685453593730926513671875</LongitudeDegrees>
            </Position>
            <AltitudeMeters>1020.4000244140625</AltitudeMeters>
            <DistanceMeters>49303.064636212</DistanceMeters>
          </Trackpoint>
          <Trackpoint>
            <Time>2019-08-01T10:51:19.000Z</Time>
            <Position>
              <LatitudeDegrees>40.71340142749249935150146484375</LatitudeDegrees>
              <LongitudeDegrees>-3.8717169128358364105224609375</LongitudeDegrees>
            </Position>
            <AltitudeMeters>1019.20001220703125</AltitudeMeters>
            <DistanceMeters>49315.164041127</DistanceMeters>
          </Trackpoint>
          <Trackpoint>
            <Time>2019-08-01T10:51:21.000Z</Time>
            <Position>
              <LatitudeDegrees>40.71351961232721805572509765625</LatitudeDegrees>
              <LongitudeDegrees>-3.871669806540012359619140625</LongitudeDegrees>
            </Position>
            <AltitudeMeters>1017.79998779296875</AltitudeMeters>
            <DistanceMeters>49328.905508608</DistanceMeters>
          </Trackpoint>
          <Trackpoint>
            <Time>2019-08-01T10:51:24.000Z</Time>
            <Position>
              <LatitudeDegrees>40.71370854042470455169677734375</LatitudeDegrees>
              <LongitudeDegrees>-3.871606774628162384033203125</LongitudeDegrees>
            </Position>
            <AltitudeMeters>1016.5999755859375</AltitudeMeters>
            <DistanceMeters>49350.595551315</DistanceMeters>
          </Trackpoint>
          <Trackpoint>
            <Time>2019-08-01T10:51:27.000Z</Time>
            <Position>
              <LatitudeDegrees>40.71390149183571338653564453125</LatitudeDegrees>
              <LongitudeDegrees>-3.87159596197307109832763671875</LongitudeDegrees>
            </Position>
            <AltitudeMeters>1015.79998779296875</AltitudeMeters>
            <DistanceMeters>49372.090921782</DistanceMeters>
          </Trackpoint>
          <Trackpoint>
            <Time>2019-08-01T10:51:29.000Z</Time>
            <Position>
              <LatitudeDegrees>40.71403191424906253814697265625</LatitudeDegrees>
              <LongitudeDegrees>-3.87159763835370540618896484375</LongitudeDegrees>
            </Position>
            <AltitudeMeters>1014.5999755859375</AltitudeMeters>
            <DistanceMeters>49386.607943654</DistanceMeters>
          </Trackpoint>
          <Trackpoint>
            <Time>2019-08-01T10:51:30.000Z</Time>
            <Position>
              <LatitudeDegrees>40.71409813128411769866943359375</LatitudeDegrees>
              <LongitudeDegrees>-3.87160501442849636077880859375</LongitudeDegrees>
            </Position>
            <AltitudeMeters>1013.4000244140625</AltitudeMeters>
            <DistanceMeters>49394.004172632</DistanceMeters>
          </Trackpoint>
          <Trackpoint>
            <Time>2019-08-01T10:51:33.000Z</Time>
            <Position>
              <LatitudeDegrees>40.71430365554988384246826171875</LatitudeDegrees>
              <LongitudeDegrees>-3.8716491870582103729248046875</LongitudeDegrees>
            </Position>
            <AltitudeMeters>1012.20001220703125</AltitudeMeters>
            <DistanceMeters>49417.18095255</DistanceMeters>
          </Trackpoint>
          <Trackpoint>
            <Time>2019-08-01T10:51:35.000Z</Time>
            <Position>
              <LatitudeDegrees>40.71444111876189708709716796875</LatitudeDegrees>
              <LongitudeDegrees>-3.8716788589954376220703125</LongitudeDegrees>
            </Position>
            <AltitudeMeters>1011.20001220703125</AltitudeMeters>
            <DistanceMeters>49432.684001109</DistanceMeters>
          </Trackpoint>
          <Trackpoint>
            <Time>2019-08-01T10:51:37.000Z</Time>
            <Position>
              <LatitudeDegrees>40.71457355283200740814208984375</LatitudeDegrees>
              <LongitudeDegrees>-3.8717048428952693939208984375</LongitudeDegrees>
            </Position>
            <AltitudeMeters>1010.20001220703125</AltitudeMeters>
            <DistanceMeters>49447.586541163</DistanceMeters>
          </Trackpoint>
          <Trackpoint>
            <Time>2019-08-01T10:51:39.000Z</Time>
            <Position>
              <LatitudeDegrees>40.71470933966338634490966796875</LatitudeDegrees>
              <LongitudeDegrees>-3.87172353453934192657470703125</LongitudeDegrees>
            </Position>
            <AltitudeMeters>1009</AltitudeMeters>
            <DistanceMeters>49462.781904097</DistanceMeters>
          </Trackpoint>
          <Trackpoint>
            <Time>2019-08-01T10:51:42.000Z</Time>
            <Position>
              <LatitudeDegrees>40.71491000242531299591064453125</LatitudeDegrees>
              <LongitudeDegrees>-3.8717149011790752410888671875</LongitudeDegrees>
            </Position>
            <AltitudeMeters>1007.5999755859375</AltitudeMeters>
            <DistanceMeters>49485.128138618</DistanceMeters>
          </Trackpoint>
          <Trackpoint>
            <Time>2019-08-01T10:51:45.000Z</Time>
            <Position>
              <LatitudeDegrees>40.7150938175618648529052734375</LatitudeDegrees>
              <LongitudeDegrees>-3.87160308659076690673828125</LongitudeDegrees>
            </Position>
            <AltitudeMeters>1006.5999755859375</AltitudeMeters>
            <DistanceMeters>49507.657086811</DistanceMeters>
          </Trackpoint>
          <Trackpoint>
            <Time>2019-08-01T10:51:47.000Z</Time>
            <Position>
              <LatitudeDegrees>40.715220384299755096435546875</LatitudeDegrees>
              <LongitudeDegrees>-3.8715422339737415313720703125</LongitudeDegrees>
            </Position>
            <AltitudeMeters>1006</AltitudeMeters>
            <DistanceMeters>49522.650242683</DistanceMeters>
          </Trackpoint>
          <Trackpoint>
            <Time>2019-08-01T10:51:49.000Z</Time>
            <Position>
              <LatitudeDegrees>40.71534485556185245513916015625</LatitudeDegrees>
              <LongitudeDegrees>-3.871486745774745941162109375</LongitudeDegrees>
            </Position>
            <AltitudeMeters>1005.5999755859375</AltitudeMeters>
            <DistanceMeters>49537.273862971</DistanceMeters>
          </Trackpoint>
          <Trackpoint>
            <Time>2019-08-01T10:51:52.000Z</Time>
            <Position>
              <LatitudeDegrees>40.71552925743162631988525390625</LatitudeDegrees>
              <LongitudeDegrees>-3.87141860090196132659912109375</LongitudeDegrees>
            </Position>
            <AltitudeMeters>1004.4000244140625</AltitudeMeters>
            <DistanceMeters>49558.588039376</DistanceMeters>
          </Trackpoint>
          <Trackpoint>
            <Time>2019-08-01T10:51:53.000Z</Time>
            <Position>
              <LatitudeDegrees>40.71558809839189052581787109375</LatitudeDegrees>
              <LongitudeDegrees>-3.87140669859945774078369140625</LongitudeDegrees>
            </Position>
            <AltitudeMeters>1004.20001220703125</AltitudeMeters>
            <DistanceMeters>49565.212703256</DistanceMeters>
          </Trackpoint>
          <Trackpoint>
            <Time>2019-08-01T10:51:55.000Z</Time>
            <Position>
              <LatitudeDegrees>40.71570276282727718353271484375</LatitudeDegrees>
              <LongitudeDegrees>-3.87141424231231212615966796875</LongitudeDegrees>
            </Position>
            <AltitudeMeters>1003.4000244140625</AltitudeMeters>
            <DistanceMeters>49577.990881618</DistanceMeters>
          </Trackpoint>
          <Trackpoint>
            <Time>2019-08-01T10:51:57.000Z</Time>
            <Position>
              <LatitudeDegrees>40.71581055410206317901611328125</LatitudeDegrees>
              <LongitudeDegrees>-3.8714322634041309356689453125</LongitudeDegrees>
            </Position>
            <AltitudeMeters>1002.79998779296875</AltitudeMeters>
            <DistanceMeters>49590.084314468</DistanceMeters>
          </Trackpoint>
          <Trackpoint>
            <Time>2019-08-01T10:51:58.000Z</Time>
            <Position>
              <LatitudeDegrees>40.7158629409968852996826171875</LatitudeDegrees>
              <LongitudeDegrees>-3.87142161838710308074951171875</LongitudeDegrees>
            </Position>
            <AltitudeMeters>1002.5999755859375</AltitudeMeters>
            <DistanceMeters>49595.983629226</DistanceMeters>
          </Trackpoint>
          <Trackpoint>
            <Time>2019-08-01T10:52:02.000Z</Time>
            <Position>
              <LatitudeDegrees>40.71602093987166881561279296875</LatitudeDegrees>
              <LongitudeDegrees>-3.87123696506023406982421875</LongitudeDegrees>
            </Position>
            <AltitudeMeters>1001.20001220703125</AltitudeMeters>
            <DistanceMeters>49619.476570128</DistanceMeters>
          </Trackpoint>
          <Trackpoint>
            <Time>2019-08-01T10:52:03.000Z</Time>
            <Position>
              <LatitudeDegrees>40.71604826487600803375244140625</LatitudeDegrees>
              <LongitudeDegrees>-3.8711673952639102935791015625</LongitudeDegrees>
            </Position>
            <AltitudeMeters>1000.79998779296875</AltitudeMeters>
            <DistanceMeters>49626.08758896</DistanceMeters>
          </Trackpoint>
          <Trackpoint>
            <Time>2019-08-01T10:52:05.000Z</Time>
            <Position>
              <LatitudeDegrees>40.71609822101891040802001953125</LatitudeDegrees>
              <LongitudeDegrees>-3.87103336863219738006591796875</LongitudeDegrees>
            </Position>
            <AltitudeMeters>1000</AltitudeMeters>
            <DistanceMeters>49638.687142281</DistanceMeters>
          </Trackpoint>
          <Trackpoint>
            <Time>2019-08-01T10:52:08.000Z</Time>
            <Position>
              <LatitudeDegrees>40.71616955101490020751953125</LatitudeDegrees>
              <LongitudeDegrees>-3.8708393275737762451171875</LongitudeDegrees>
            </Position>
            <AltitudeMeters>999</AltitudeMeters>
            <DistanceMeters>49656.880477655</DistanceMeters>
          </Trackpoint>
          <Trackpoint>
            <Time>2019-08-01T10:52:11.000Z</Time>
            <Position>
              <LatitudeDegrees>40.71621959097683429718017578125</LatitudeDegrees>
              <LongitudeDegrees>-3.8706329651176929473876953125</LongitudeDegrees>
            </Position>
            <AltitudeMeters>997.79998779296875</AltitudeMeters>
            <DistanceMeters>49675.158737098</DistanceMeters>
          </Trackpoint>
          <Trackpoint>
            <Time>2019-08-01T10:52:14.000Z</Time>
            <Position>
              <LatitudeDegrees>40.71626535616815090179443359375</LatitudeDegrees>
              <LongitudeDegrees>-3.87044982053339481353759765625</LongitudeDegrees>
            </Position>
            <AltitudeMeters>996.4000244140625</AltitudeMeters>
            <DistanceMeters>49691.426910949</DistanceMeters>
          </Trackpoint>
          <Trackpoint>
            <Time>2019-08-01T10:52:16.000Z</Time>
            <Position>
              <LatitudeDegrees>40.71633450686931610107421875</LatitudeDegrees>
              <LongitudeDegrees>-3.8703801669180393218994140625</LongitudeDegrees>
            </Position>
            <AltitudeMeters>995.20001220703125</AltitudeMeters>
            <DistanceMeters>49701.110314988</DistanceMeters>
          </Trackpoint>
          <Trackpoint>
            <Time>2019-08-01T10:52:20.000Z</Time>
            <Position>
              <LatitudeDegrees>40.71654179133474826812744140625</LatitudeDegrees>
              <LongitudeDegrees>-3.8704090006649494171142578125</LongitudeDegrees>
            </Position>
            <AltitudeMeters>994.20001220703125</AltitudeMeters>
            <DistanceMeters>49724.309292467</DistanceMeters>
          </Trackpoint>
          <Trackpoint>
            <Time>2019-08-01T10:52:22.000Z</Time>
            <Position>
              <LatitudeDegrees>40.7166488282382488250732421875</LatitudeDegrees>
              <LongitudeDegrees>-3.87045568786561489105224609375</LongitudeDegrees>
            </Position>
            <AltitudeMeters>993</AltitudeMeters>
            <DistanceMeters>49736.856777585</DistanceMeters>
          </Trackpoint>
          <Trackpoint>
            <Time>2019-08-01T10:52:24.000Z</Time>
            <Position>
              <LatitudeDegrees>40.71675569750368595123291015625</LatitudeDegrees>
              <LongitudeDegrees>-3.87049340642988681793212890625</LongitudeDegrees>
            </Position>
            <AltitudeMeters>992</AltitudeMeters>
            <DistanceMeters>49749.169614522</DistanceMeters>
          </Trackpoint>
          <Trackpoint>
            <Time>2019-08-01T10:52:25.000Z</Time>
            <Position>
              <LatitudeDegrees>40.71680925786495208740234375</LatitudeDegrees>
              <LongitudeDegrees>-3.87050497345626354217529296875</LongitudeDegrees>
            </Position>
            <AltitudeMeters>991.5999755859375</AltitudeMeters>
            <DistanceMeters>49755.210354452</DistanceMeters>
          </Trackpoint>
          <Trackpoint>
            <Time>2019-08-01T10:52:26.000Z</Time>
            <Position>
              <LatitudeDegrees>40.71686558425426483154296875</LatitudeDegrees>
              <LongitudeDegrees>-3.87050606310367584228515625</LongitudeDegrees>
            </Position>
            <AltitudeMeters>991</AltitudeMeters>
            <DistanceMeters>49761.480677637</DistanceMeters>
          </Trackpoint>
          <Trackpoint>
            <Time>2019-08-01T10:52:28.000Z</Time>
            <Position>
              <LatitudeDegrees>40.71698226034641265869140625</LatitudeDegrees>
              <LongitudeDegrees>-3.870475552976131439208984375</LongitudeDegrees>
            </Position>
            <AltitudeMeters>990</AltitudeMeters>
            <DistanceMeters>49774.719778202</DistanceMeters>
          </Trackpoint>
          <Trackpoint>
            <Time>2019-08-01T10:52:31.000Z</Time>
            <Position>
              <LatitudeDegrees>40.71713120676577091217041015625</LatitudeDegrees>
              <LongitudeDegrees>-3.8703261874616146087646484375</LongitudeDegrees>
            </Position>
            <AltitudeMeters>988.79998779296875</AltitudeMeters>
            <DistanceMeters>49795.542774639</DistanceMeters>
          </Trackpoint>
          <Trackpoint>
            <Time>2019-08-01T10:52:32.000Z</Time>
            <Position>
              <LatitudeDegrees>40.71716875769197940826416015625</LatitudeDegrees>
              <LongitudeDegrees>-3.87025586329400539398193359375</LongitudeDegrees>
            </Position>
            <AltitudeMeters>988.4000244140625</AltitudeMeters>
            <DistanceMeters>49802.799730324</DistanceMeters>
          </Trackpoint>
          <Trackpoint>
            <Time>2019-08-01T10:52:34.000Z</Time>
            <Position>
              <LatitudeDegrees>40.71724503301084041595458984375</LatitudeDegrees>
              <LongitudeDegrees>-3.87011320330202579498291015625</LongitudeDegrees>
            </Position>
            <AltitudeMeters>987.79998779296875</AltitudeMeters>
            <DistanceMeters>49817.527338283</DistanceMeters>
          </Trackpoint>
          <Trackpoint>
            <Time>2019-08-01T10:52:36.000Z</Time>
            <Position>
              <LatitudeDegrees>40.7173348031938076019287109375</LatitudeDegrees>
              <LongitudeDegrees>-3.86998261325061321258544921875</LongitudeDegrees>
            </Position>
            <AltitudeMeters>987</AltitudeMeters>
            <DistanceMeters>49832.399853958</DistanceMeters>
          </Trackpoint>
          <Trackpoint>
            <Time>2019-08-01T10:52:37.000Z</Time>
            <Position>
              <LatitudeDegrees>40.717386268079280853271484375</LatitudeDegrees>
              <LongitudeDegrees>-3.8699268735945224761962890625</LongitudeDegrees>
            </Position>
            <AltitudeMeters>986.5999755859375</AltitudeMeters>
            <DistanceMeters>49839.810719287</DistanceMeters>
          </Trackpoint>
          <Trackpoint>
            <Time>2019-08-01T10:52:40.000Z</Time>
            <Position>
              <LatitudeDegrees>40.71754686534404754638671875</LatitudeDegrees>
              <LongitudeDegrees>-3.8698457367718219757080078125</LongitudeDegrees>
            </Position>
            <AltitudeMeters>985.79998779296875</AltitudeMeters>
            <DistanceMeters>49858.950996227</DistanceMeters>
          </Trackpoint>
          <Trackpoint>
            <Time>2019-08-01T10:52:42.000Z</Time>
            <Position>
              <LatitudeDegrees>40.71765138767659664154052734375</LatitudeDegrees>
              <LongitudeDegrees>-3.86983408592641353607177734375</LongitudeDegrees>
            </Position>
            <AltitudeMeters>985</AltitudeMeters>
            <DistanceMeters>49870.625754205</DistanceMeters>
          </Trackpoint>
          <Trackpoint>
            <Time>2019-08-01T10:52:44.000Z</Time>
            <Position>
              <LatitudeDegrees>40.71774937212467193603515625</LatitudeDegrees>
              <LongitudeDegrees>-3.86982134543359279632568359375</LongitudeDegrees>
            </Position>
            <AltitudeMeters>984.5999755859375</AltitudeMeters>
            <DistanceMeters>49881.584357521</DistanceMeters>
          </Trackpoint>
          <Trackpoint>
            <Time>2019-08-01T10:52:48.000Z</Time>
            <Position>
              <LatitudeDegrees>40.71793000213801860809326171875</LatitudeDegrees>
              <LongitudeDegrees>-3.8697967864573001861572265625</LongitudeDegrees>
            </Position>
            <AltitudeMeters>983.5999755859375</AltitudeMeters>
            <DistanceMeters>49901.795357942</DistanceMeters>
          </Trackpoint>
          <Trackpoint>
            <Time>2019-08-01T10:52:53.000Z</Time>
            <Position>
              <LatitudeDegrees>40.7181428186595439910888671875</LatitudeDegrees>
              <LongitudeDegrees>-3.869767449796199798583984375</LongitudeDegrees>
            </Position>
            <AltitudeMeters>982.4000244140625</AltitudeMeters>
            <DistanceMeters>49925.611259386</DistanceMeters>
          </Trackpoint>
          <Trackpoint>
            <Time>2019-08-01T10:52:58.000Z</Time>
            <Position>
              <LatitudeDegrees>40.7183446548879146575927734375</LatitudeDegrees>
              <LongitudeDegrees>-3.8697451539337635040283203125</LongitudeDegrees>
            </Position>
            <AltitudeMeters>981.4000244140625</AltitudeMeters>
            <DistanceMeters>49948.154632518</DistanceMeters>
          </Trackpoint>
          <Trackpoint>
            <Time>2019-08-01T10:53:12.000Z</Time>
            <Position>
              <LatitudeDegrees>40.71890682913362979888916015625</LatitudeDegrees>
              <LongitudeDegrees>-3.86965789832174777984619140625</LongitudeDegrees>
            </Position>
            <AltitudeMeters>981</AltitudeMeters>
            <DistanceMeters>50011.157200817</DistanceMeters>
          </Trackpoint>
          <Trackpoint>
            <Time>2019-08-01T10:53:13.000Z</Time>
            <Position>
              <LatitudeDegrees>40.71894773282110691070556640625</LatitudeDegrees>
              <LongitudeDegrees>-3.8696506060659885406494140625</LongitudeDegrees>
            </Position>
            <AltitudeMeters>980.79998779296875</AltitudeMeters>
            <DistanceMeters>50015.750049451</DistanceMeters>
          </Trackpoint>
          <Trackpoint>
            <Time>2019-08-01T10:53:20.000Z</Time>
            <Position>
              <LatitudeDegrees>40.71923674084246158599853515625</LatitudeDegrees>
              <LongitudeDegrees>-3.8696137256920337677001953125</LongitudeDegrees>
            </Position>
            <AltitudeMeters>980.20001220703125</AltitudeMeters>
            <DistanceMeters>50048.06723654</DistanceMeters>
          </Trackpoint>
          <Trackpoint>
            <Time>2019-08-01T10:53:21.000Z</Time>
            <Position>
              <LatitudeDegrees>40.71927689015865325927734375</LatitudeDegrees>
              <LongitudeDegrees>-3.86960685253143310546875</LongitudeDegrees>
            </Position>
            <AltitudeMeters>980</AltitudeMeters>
            <DistanceMeters>50052.572745595</DistanceMeters>
          </Trackpoint>
          <Trackpoint>
            <Time>2019-08-01T10:53:25.000Z</Time>
            <Position>
              <LatitudeDegrees>40.71943807415664196014404296875</LatitudeDegrees>
              <LongitudeDegrees>-3.86957525275647640228271484375</LongitudeDegrees>
            </Position>
            <AltitudeMeters>979.20001220703125</AltitudeMeters>
            <DistanceMeters>50070.71015679</DistanceMeters>
          </Trackpoint>
          <Trackpoint>
            <Time>2019-08-01T10:53:29.000Z</Time>
            <Position>
              <LatitudeDegrees>40.7195999287068843841552734375</LatitudeDegrees>
              <LongitudeDegrees>-3.8695624284446239471435546875</LongitudeDegrees>
            </Position>
            <AltitudeMeters>978.20001220703125</AltitudeMeters>
            <DistanceMeters>50088.757728852</DistanceMeters>
          </Trackpoint>
          <Trackpoint>
            <Time>2019-08-01T10:53:34.000Z</Time>
            <Position>
              <LatitudeDegrees>40.7197947241365909576416015625</LatitudeDegrees>
              <LongitudeDegrees>-3.86953166685998439788818359375</LongitudeDegrees>
            </Position>
            <AltitudeMeters>977.20001220703125</AltitudeMeters>
            <DistanceMeters>50110.593825721</DistanceMeters>
          </Trackpoint>
          <Trackpoint>
            <Time>2019-08-01T10:53:39.000Z</Time>
            <Position>
              <LatitudeDegrees>40.71998122148215770721435546875</LatitudeDegrees>
              <LongitudeDegrees>-3.86950484476983547210693359375</LongitudeDegrees>
            </Position>
            <AltitudeMeters>976.4000244140625</AltitudeMeters>
            <DistanceMeters>50131.474202894</DistanceMeters>
          </Trackpoint>
          <Trackpoint>
            <Time>2019-08-01T10:53:55.000Z</Time>
            <Position>
              <LatitudeDegrees>40.720553956925868988037109375</LatitudeDegrees>
              <LongitudeDegrees>-3.8694658689200878143310546875</LongitudeDegrees>
            </Position>
            <AltitudeMeters>976.4000244140625</AltitudeMeters>
            <DistanceMeters>50195.30556456</DistanceMeters>
          </Trackpoint>
          <Trackpoint>
            <Time>2019-08-01T10:54:03.000Z</Time>
            <Position>
              <LatitudeDegrees>40.72089828550815582275390625</LatitudeDegrees>
              <LongitudeDegrees>-3.8694380410015583038330078125</LongitudeDegrees>
            </Position>
            <AltitudeMeters>976</AltitudeMeters>
            <DistanceMeters>50233.701766721</DistanceMeters>
          </Trackpoint>
          <Trackpoint>
            <Time>2019-08-01T10:54:07.000Z</Time>
            <Position>
              <LatitudeDegrees>40.721060894429683685302734375</LatitudeDegrees>
              <LongitudeDegrees>-3.86942924000322818756103515625</LongitudeDegrees>
            </Position>
            <AltitudeMeters>974.5999755859375</AltitudeMeters>
            <DistanceMeters>50251.815513644</DistanceMeters>
          </Trackpoint>
          <Trackpoint>
            <Time>2019-08-01T10:54:10.000Z</Time>
            <Position>
              <LatitudeDegrees>40.72118083946406841278076171875</LatitudeDegrees>
              <LongitudeDegrees>-3.8694236241281032562255859375</LongitudeDegrees>
            </Position>
            <AltitudeMeters>973.5999755859375</AltitudeMeters>
            <DistanceMeters>50265.174120259</DistanceMeters>
          </Trackpoint>
          <Trackpoint>
            <Time>2019-08-01T10:54:13.000Z</Time>
            <Position>
              <LatitudeDegrees>40.72129215113818645477294921875</LatitudeDegrees>
              <LongitudeDegrees>-3.869425468146800994873046875</LongitudeDegrees>
            </Position>
            <AltitudeMeters>972.4000244140625</AltitudeMeters>
            <DistanceMeters>50277.564452362</DistanceMeters>
          </Trackpoint>
          <Trackpoint>
            <Time>2019-08-01T10:54:16.000Z</Time>
            <Position>
              <LatitudeDegrees>40.72140128351747989654541015625</LatitudeDegrees>
              <LongitudeDegrees>-3.86942991055548191070556640625</LongitudeDegrees>
            </Position>
            <AltitudeMeters>971.20001220703125</AltitudeMeters>
            <DistanceMeters>50289.71747381</DistanceMeters>
          </Trackpoint>
          <Trackpoint>
            <Time>2019-08-01T10:54:21.000Z</Time>
            <Position>
              <LatitudeDegrees>40.7215740345418453216552734375</LatitudeDegrees>
              <LongitudeDegrees>-3.86944030411541461944580078125</LongitudeDegrees>
            </Position>
            <AltitudeMeters>970.4000244140625</AltitudeMeters>
            <DistanceMeters>50308.965251507</DistanceMeters>
          </Trackpoint>
          <Trackpoint>
            <Time>2019-08-01T10:54:37.000Z</Time>
            <Position>
              <LatitudeDegrees>40.722141824662685394287109375</LatitudeDegrees>
              <LongitudeDegrees>-3.86944432742893695831298828125</LongitudeDegrees>
            </Position>
            <AltitudeMeters>970.20001220703125</AltitudeMeters>
            <DistanceMeters>50372.162374781</DistanceMeters>
          </Trackpoint>
          <Trackpoint>
            <Time>2019-08-01T10:54:40.000Z</Time>
            <Position>
              <LatitudeDegrees>40.7222536392509937286376953125</LatitudeDegrees>
              <LongitudeDegrees>-3.86944818310439586639404296875</LongitudeDegrees>
            </Position>
            <AltitudeMeters>969.79998779296875</AltitudeMeters>
            <DistanceMeters>50384.611962408</DistanceMeters>
          </Trackpoint>
          <Trackpoint>
            <Time>2019-08-01T10:54:44.000Z</Time>
            <Position>
              <LatitudeDegrees>40.72239856235682964324951171875</LatitudeDegrees>
              <LongitudeDegrees>-3.86944114230573177337646484375</LongitudeDegrees>
            </Position>
            <AltitudeMeters>968.5999755859375</AltitudeMeters>
            <DistanceMeters>50400.75336246</DistanceMeters>
          </Trackpoint>
          <Trackpoint>
            <Time>2019-08-01T10:54:52.000Z</Time>
            <Position>
              <LatitudeDegrees>40.72268639691174030303955078125</LatitudeDegrees>
              <LongitudeDegrees>-3.86941549368202686309814453125</LongitudeDegrees>
            </Position>
            <AltitudeMeters>967.79998779296875</AltitudeMeters>
            <DistanceMeters>50432.862831594</DistanceMeters>
          </Trackpoint>
          <Trackpoint>
            <Time>2019-08-01T10:55:01.000Z</Time>
            <Position>
              <LatitudeDegrees>40.7229935936629772186279296875</LatitudeDegrees>
              <LongitudeDegrees>-3.86941985227167606353759765625</LongitudeDegrees>
            </Position>
            <AltitudeMeters>966.79998779296875</AltitudeMeters>
            <DistanceMeters>50467.056475271</DistanceMeters>
          </Trackpoint>
          <Trackpoint>
            <Time>2019-08-01T10:55:09.000Z</Time>
            <Position>
              <LatitudeDegrees>40.72327950038015842437744140625</LatitudeDegrees>
              <LongitudeDegrees>-3.86944248341023921966552734375</LongitudeDegrees>
            </Position>
            <AltitudeMeters>966</AltitudeMeters>
            <DistanceMeters>50498.935636541</DistanceMeters>
          </Trackpoint>
          <Trackpoint>
            <Time>2019-08-01T10:55:16.000Z</Time>
            <Position>
              <LatitudeDegrees>40.7235253416001796722412109375</LatitudeDegrees>
              <LongitudeDegrees>-3.86941985227167606353759765625</LongitudeDegrees>
            </Position>
            <AltitudeMeters>965</AltitudeMeters>
            <DistanceMeters>50526.364962256</DistanceMeters>
          </Trackpoint>
          <Trackpoint>
            <Time>2019-08-01T10:55:22.000Z</Time>
            <Position>
              <LatitudeDegrees>40.723697841167449951171875</LatitudeDegrees>
              <LongitudeDegrees>-3.86924676597118377685546875</LongitudeDegrees>
            </Position>
            <AltitudeMeters>964</AltitudeMeters>
            <DistanceMeters>50550.485280768</DistanceMeters>
          </Trackpoint>
          <Trackpoint>
            <Time>2019-08-01T10:55:26.000Z</Time>
            <Position>
              <LatitudeDegrees>40.723808147013187408447265625</LatitudeDegrees>
              <LongitudeDegrees>-3.869123719632625579833984375</LongitudeDegrees>
            </Position>
            <AltitudeMeters>963</AltitudeMeters>
            <DistanceMeters>50566.561936141</DistanceMeters>
          </Trackpoint>
          <Trackpoint>
            <Time>2019-08-01T10:55:40.000Z</Time>
            <Position>
              <LatitudeDegrees>40.724200420081615447998046875</LatitudeDegrees>
              <LongitudeDegrees>-3.8686954043805599212646484375</LongitudeDegrees>
            </Position>
            <AltitudeMeters>962.20001220703125</AltitudeMeters>
            <DistanceMeters>50623.23260534</DistanceMeters>
          </Trackpoint>
          <Trackpoint>
            <Time>2019-08-01T10:55:56.000Z</Time>
            <Position>
              <LatitudeDegrees>40.7246632687747478485107421875</LatitudeDegrees>
              <LongitudeDegrees>-3.86829433031380176544189453125</LongitudeDegrees>
            </Position>
            <AltitudeMeters>962</AltitudeMeters>
            <DistanceMeters>50684.864004931</DistanceMeters>
          </Trackpoint>
          <Trackpoint>
            <Time>2019-08-01T10:56:00.000Z</Time>
            <Position>
              <LatitudeDegrees>40.7247755862772464752197265625</LatitudeDegrees>
              <LongitudeDegrees>-3.86824093759059906005859375</LongitudeDegrees>
            </Position>
            <AltitudeMeters>961.4000244140625</AltitudeMeters>
            <DistanceMeters>50698.151444663</DistanceMeters>
          </Trackpoint>
          <Trackpoint>
            <Time>2019-08-01T10:56:09.000Z</Time>
            <Position>
              <LatitudeDegrees>40.72490005753934383392333984375</LatitudeDegrees>
              <LongitudeDegrees>-3.868059553205966949462890625</LongitudeDegrees>
            </Position>
            <AltitudeMeters>960.4000244140625</AltitudeMeters>
            <DistanceMeters>50718.791719527</DistanceMeters>
          </Trackpoint>
          <Trackpoint>
            <Time>2019-08-01T10:56:12.000Z</Time>
            <Position>
              <LatitudeDegrees>40.724981613457202911376953125</LatitudeDegrees>
              <LongitudeDegrees>-3.8679809309542179107666015625</LongitudeDegrees>
            </Position>
            <AltitudeMeters>959.4000244140625</AltitudeMeters>
            <DistanceMeters>50730.033825643</DistanceMeters>
          </Trackpoint>
          <Trackpoint>
            <Time>2019-08-01T10:56:16.000Z</Time>
            <Position>
              <LatitudeDegrees>40.72511949576437473297119140625</LatitudeDegrees>
              <LongitudeDegrees>-3.8679326511919498443603515625</LongitudeDegrees>
            </Position>
            <AltitudeMeters>958.20001220703125</AltitudeMeters>
            <DistanceMeters>50745.911535621</DistanceMeters>
          </Trackpoint>
          <Trackpoint>
            <Time>2019-08-01T10:56:20.000Z</Time>
            <Position>
              <LatitudeDegrees>40.7252520136535167694091796875</LatitudeDegrees>
              <LongitudeDegrees>-3.86794983409345149993896484375</LongitudeDegrees>
            </Position>
            <AltitudeMeters>957.20001220703125</AltitudeMeters>
            <DistanceMeters>50760.732047739</DistanceMeters>
          </Trackpoint>
          <Trackpoint>
            <Time>2019-08-01T10:56:25.000Z</Time>
            <Position>
              <LatitudeDegrees>40.72540967725217342376708984375</LatitudeDegrees>
              <LongitudeDegrees>-3.8680030591785907745361328125</LongitudeDegrees>
            </Position>
            <AltitudeMeters>956.20001220703125</AltitudeMeters>
            <DistanceMeters>50778.8455454</DistanceMeters>
          </Trackpoint>
          <Trackpoint>
            <Time>2019-08-01T10:56:34.000Z</Time>
            <Position>
              <LatitudeDegrees>40.72569809854030609130859375</LatitudeDegrees>
              <LongitudeDegrees>-3.86794547550380229949951171875</LongitudeDegrees>
            </Position>
            <AltitudeMeters>955.20001220703125</AltitudeMeters>
            <DistanceMeters>50811.312990691</DistanceMeters>
          </Trackpoint>
          <Trackpoint>
            <Time>2019-08-01T10:56:36.000Z</Time>
            <Position>
              <LatitudeDegrees>40.72576339356601238250732421875</LatitudeDegrees>
              <LongitudeDegrees>-3.8678942620754241943359375</LongitudeDegrees>
            </Position>
            <AltitudeMeters>954.79998779296875</AltitudeMeters>
            <DistanceMeters>50819.767164516</DistanceMeters>
          </Trackpoint>
          <Trackpoint>
            <Time>2019-08-01T10:56:40.000Z</Time>
            <Position>
              <LatitudeDegrees>40.725852660834789276123046875</LatitudeDegrees>
              <LongitudeDegrees>-3.86771430261433124542236328125</LongitudeDegrees>
            </Position>
            <AltitudeMeters>954.20001220703125</AltitudeMeters>
            <DistanceMeters>50837.909304861</DistanceMeters>
          </Trackpoint>
          <Trackpoint>
            <Time>2019-08-01T10:56:41.000Z</Time>
            <Position>
              <LatitudeDegrees>40.72587470524013042449951171875</LatitudeDegrees>
              <LongitudeDegrees>-3.867670632898807525634765625</LongitudeDegrees>
            </Position>
            <AltitudeMeters>954.20001220703125</AltitudeMeters>
            <DistanceMeters>50842.333918486</DistanceMeters>
          </Trackpoint>
          <Trackpoint>
            <Time>2019-08-01T10:56:57.000Z</Time>
            <Position>
              <LatitudeDegrees>40.726063549518585205078125</LatitudeDegrees>
              <LongitudeDegrees>-3.86699647642672061920166015625</LongitudeDegrees>
            </Position>
            <AltitudeMeters>953.4000244140625</AltitudeMeters>
            <DistanceMeters>50902.958579092</DistanceMeters>
          </Trackpoint>
          <Trackpoint>
            <Time>2019-08-01T10:56:58.000Z</Time>
            <Position>
              <LatitudeDegrees>40.72606245987117290496826171875</LatitudeDegrees>
              <LongitudeDegrees>-3.86695255525410175323486328125</LongitudeDegrees>
            </Position>
            <AltitudeMeters>953.20001220703125</AltitudeMeters>
            <DistanceMeters>50906.665839044</DistanceMeters>
          </Trackpoint>
          <Trackpoint>
            <Time>2019-08-01T10:57:02.000Z</Time>
            <Position>
              <LatitudeDegrees>40.7260630466043949127197265625</LatitudeDegrees>
              <LongitudeDegrees>-3.86678927578032016754150390625</LongitudeDegrees>
            </Position>
            <AltitudeMeters>952</AltitudeMeters>
            <DistanceMeters>50920.438485332</DistanceMeters>
          </Trackpoint>
          <Trackpoint>
            <Time>2019-08-01T10:57:06.000Z</Time>
            <Position>
              <LatitudeDegrees>40.72607017122209072113037109375</LatitudeDegrees>
              <LongitudeDegrees>-3.866666145622730255126953125</LongitudeDegrees>
            </Position>
            <AltitudeMeters>950.79998779296875</AltitudeMeters>
            <DistanceMeters>50930.854210866</DistanceMeters>
          </Trackpoint>
          <Trackpoint>
            <Time>2019-08-01T10:57:11.000Z</Time>
            <Position>
              <LatitudeDegrees>40.7260943949222564697265625</LatitudeDegrees>
              <LongitudeDegrees>-3.86651451699435710906982421875</LongitudeDegrees>
            </Position>
            <AltitudeMeters>949.79998779296875</AltitudeMeters>
            <DistanceMeters>50943.925134564</DistanceMeters>
          </Trackpoint>
          <Trackpoint>
            <Time>2019-08-01T10:57:18.000Z</Time>
            <Position>
              <LatitudeDegrees>40.72609313763678073883056640625</LatitudeDegrees>
              <LongitudeDegrees>-3.8662287779152393341064453125</LongitudeDegrees>
            </Position>
            <AltitudeMeters>948.79998779296875</AltitudeMeters>
            <DistanceMeters>50968.027288985</DistanceMeters>
          </Trackpoint>
          <Trackpoint>
            <Time>2019-08-01T10:57:20.000Z</Time>
            <Position>
              <LatitudeDegrees>40.72609632275998592376708984375</LatitudeDegrees>
              <LongitudeDegrees>-3.86618100106716156005859375</LongitudeDegrees>
            </Position>
            <AltitudeMeters>948.5999755859375</AltitudeMeters>
            <DistanceMeters>50972.072347515</DistanceMeters>
          </Trackpoint>
          <Trackpoint>
            <Time>2019-08-01T10:57:23.000Z</Time>
            <Position>
              <LatitudeDegrees>40.7261200435459613800048828125</LatitudeDegrees>
              <LongitudeDegrees>-3.86609508655965328216552734375</LongitudeDegrees>
            </Position>
            <AltitudeMeters>947.5999755859375</AltitudeMeters>
            <DistanceMeters>50979.784747501</DistanceMeters>
          </Trackpoint>
          <Trackpoint>
            <Time>2019-08-01T10:57:24.000Z</Time>
            <Position>
              <LatitudeDegrees>40.7261176966130733489990234375</LatitudeDegrees>
              <LongitudeDegrees>-3.866061307489871978759765625</LongitudeDegrees>
            </Position>
            <AltitudeMeters>947.4000244140625</AltitudeMeters>
            <DistanceMeters>50982.645035818</DistanceMeters>
          </Trackpoint>
          <Trackpoint>
            <Time>2019-08-01T10:57:27.000Z</Time>
            <Position>
              <LatitudeDegrees>40.726108141243457794189453125</LatitudeDegrees>
              <LongitudeDegrees>-3.86595343239605426788330078125</LongitudeDegrees>
            </Position>
            <AltitudeMeters>946.5999755859375</AltitudeMeters>
            <DistanceMeters>50991.805630799</DistanceMeters>
          </Trackpoint>
          <Trackpoint>
            <Time>2019-08-01T10:57:30.000Z</Time>
            <Position>
              <LatitudeDegrees>40.72611325420439243316650390625</LatitudeDegrees>
              <LongitudeDegrees>-3.8658408634364604949951171875</LongitudeDegrees>
            </Position>
            <AltitudeMeters>945.5999755859375</AltitudeMeters>
            <DistanceMeters>51001.317325489</DistanceMeters>
          </Trackpoint>
          <Trackpoint>
            <Time>2019-08-01T10:57:34.000Z</Time>
            <Position>
              <LatitudeDegrees>40.7261190377175807952880859375</LatitudeDegrees>
              <LongitudeDegrees>-3.86570147238671779632568359375</LongitudeDegrees>
            </Position>
            <AltitudeMeters>944.4000244140625</AltitudeMeters>
            <DistanceMeters>51013.092205265</DistanceMeters>
          </Trackpoint>
          <Trackpoint>
            <Time>2019-08-01T10:57:38.000Z</Time>
            <Position>
              <LatitudeDegrees>40.72612783871591091156005859375</LatitudeDegrees>
              <LongitudeDegrees>-3.8655776716768741607666015625</LongitudeDegrees>
            </Position>
            <AltitudeMeters>943.4000244140625</AltitudeMeters>
            <DistanceMeters>51023.580933563</DistanceMeters>
          </Trackpoint>
          <Trackpoint>
            <Time>2019-08-01T10:57:43.000Z</Time>
            <Position>
              <LatitudeDegrees>40.72617712430655956268310546875</LatitudeDegrees>
              <LongitudeDegrees>-3.86543828062713146209716796875</LongitudeDegrees>
            </Position>
            <AltitudeMeters>942.20001220703125</AltitudeMeters>
            <DistanceMeters>51036.554777439</DistanceMeters>
          </Trackpoint>
          <Trackpoint>
            <Time>2019-08-01T10:57:48.000Z</Time>
            <Position>
              <LatitudeDegrees>40.7262719236314296722412109375</LatitudeDegrees>
              <LongitudeDegrees>-3.8653097860515117645263671875</LongitudeDegrees>
            </Position>
            <AltitudeMeters>941.20001220703125</AltitudeMeters>
            <DistanceMeters>51051.681048524</DistanceMeters>
          </Trackpoint>
          <Trackpoint>
            <Time>2019-08-01T10:58:03.000Z</Time>
            <Position>
              <LatitudeDegrees>40.72641433216631412506103515625</LatitudeDegrees>
              <LongitudeDegrees>-3.86512077413499355316162109375</LongitudeDegrees>
            </Position>
            <AltitudeMeters>940</AltitudeMeters>
            <DistanceMeters>51074.162449249</DistanceMeters>
          </Trackpoint>
          <Trackpoint>
            <Time>2019-08-01T10:58:04.000Z</Time>
            <Position>
              <LatitudeDegrees>40.72642363607883453369140625</LatitudeDegrees>
              <LongitudeDegrees>-3.86510719545185565948486328125</LongitudeDegrees>
            </Position>
            <AltitudeMeters>939.79998779296875</AltitudeMeters>
            <DistanceMeters>51075.706450603</DistanceMeters>
          </Trackpoint>
          <Trackpoint>
            <Time>2019-08-01T10:58:31.000Z</Time>
            <Position>
              <LatitudeDegrees>40.72666528634727001190185546875</LatitudeDegrees>
              <LongitudeDegrees>-3.864555917680263519287109375</LongitudeDegrees>
            </Position>
            <AltitudeMeters>939.79998779296875</AltitudeMeters>
            <DistanceMeters>51129.424120116</DistanceMeters>
          </Trackpoint>
          <Trackpoint>
            <Time>2019-08-01T10:58:38.000Z</Time>
            <Position>
              <LatitudeDegrees>40.7265522144734859466552734375</LatitudeDegrees>
              <LongitudeDegrees>-3.86441032402217388153076171875</LongitudeDegrees>
            </Position>
            <AltitudeMeters>940</AltitudeMeters>
            <DistanceMeters>51147.007914287</DistanceMeters>
          </Trackpoint>
          <Trackpoint>
            <Time>2019-08-01T10:58:48.000Z</Time>
            <Position>
              <LatitudeDegrees>40.72632933966815471649169921875</LatitudeDegrees>
              <LongitudeDegrees>-3.86427034623920917510986328125</LongitudeDegrees>
            </Position>
            <AltitudeMeters>938.79998779296875</AltitudeMeters>
            <DistanceMeters>51174.48066168</DistanceMeters>
          </Trackpoint>
          <Trackpoint>
            <Time>2019-08-01T10:58:49.000Z</Time>
            <Position>
              <LatitudeDegrees>40.7263145036995410919189453125</LatitudeDegrees>
              <LongitudeDegrees>-3.864270262420177459716796875</LongitudeDegrees>
            </Position>
            <AltitudeMeters>938.5999755859375</AltitudeMeters>
            <DistanceMeters>51176.13204991</DistanceMeters>
          </Trackpoint>
          <Trackpoint>
            <Time>2019-08-01T10:58:53.000Z</Time>
            <Position>
              <LatitudeDegrees>40.72627670131623744964599609375</LatitudeDegrees>
              <LongitudeDegrees>-3.86431309394538402557373046875</LongitudeDegrees>
            </Position>
            <AltitudeMeters>937.5999755859375</AltitudeMeters>
            <DistanceMeters>51181.677898841</DistanceMeters>
          </Trackpoint>
          <Trackpoint>
            <Time>2019-08-01T10:58:56.000Z</Time>
            <Position>
              <LatitudeDegrees>40.7262306846678256988525390625</LatitudeDegrees>
              <LongitudeDegrees>-3.86433321051299571990966796875</LongitudeDegrees>
            </Position>
            <AltitudeMeters>936.5999755859375</AltitudeMeters>
            <DistanceMeters>51187.074378855</DistanceMeters>
          </Trackpoint>
          <Trackpoint>
            <Time>2019-08-01T10:58:59.000Z</Time>
            <Position>
              <LatitudeDegrees>40.72620159946382045745849609375</LatitudeDegrees>
              <LongitudeDegrees>-3.864368163049221038818359375</LongitudeDegrees>
            </Position>
            <AltitudeMeters>935.4000244140625</AltitudeMeters>
            <DistanceMeters>51191.453863113</DistanceMeters>
          </Trackpoint>
          <Trackpoint>
            <Time>2019-08-01T10:59:00.000Z</Time>
            <Position>
              <LatitudeDegrees>40.72619606740772724151611328125</LatitudeDegrees>
              <LongitudeDegrees>-3.86438819579780101776123046875</LongitudeDegrees>
            </Position>
            <AltitudeMeters>935.20001220703125</AltitudeMeters>
            <DistanceMeters>51193.251852925</DistanceMeters>
          </Trackpoint>
          <Trackpoint>
            <Time>2019-08-01T10:59:02.000Z</Time>
            <Position>
              <LatitudeDegrees>40.72619221173226833343505859375</LatitudeDegrees>
              <LongitudeDegrees>-3.86444158852100372314453125</LongitudeDegrees>
            </Position>
            <AltitudeMeters>934.4000244140625</AltitudeMeters>
            <DistanceMeters>51197.775364086</DistanceMeters>
          </Trackpoint>
          <Trackpoint>
            <Time>2019-08-01T10:59:05.000Z</Time>
            <Position>
              <LatitudeDegrees>40.72618433274328708648681640625</LatitudeDegrees>
              <LongitudeDegrees>-3.86453856714069843292236328125</LongitudeDegrees>
            </Position>
            <AltitudeMeters>933.20001220703125</AltitudeMeters>
            <DistanceMeters>51206.002175312</DistanceMeters>
          </Trackpoint>
          <Trackpoint>
            <Time>2019-08-01T10:59:08.000Z</Time>
            <Position>
              <LatitudeDegrees>40.726185925304889678955078125</LatitudeDegrees>
              <LongitudeDegrees>-3.86463680304586887359619140625</LongitudeDegrees>
            </Position>
            <AltitudeMeters>931.5999755859375</AltitudeMeters>
            <DistanceMeters>51214.290226441</DistanceMeters>
          </Trackpoint>
          <Trackpoint>
            <Time>2019-08-01T10:59:11.000Z</Time>
            <Position>
              <LatitudeDegrees>40.72619422338902950286865234375</LatitudeDegrees>
              <LongitudeDegrees>-3.86473068036139011383056640625</LongitudeDegrees>
            </Position>
            <AltitudeMeters>930.5999755859375</AltitudeMeters>
            <DistanceMeters>51222.262282513</DistanceMeters>
          </Trackpoint>
          <Trackpoint>
            <Time>2019-08-01T10:59:13.000Z</Time>
            <Position>
              <LatitudeDegrees>40.72619640268385410308837890625</LatitudeDegrees>
              <LongitudeDegrees>-3.86479220353066921234130859375</LongitudeDegrees>
            </Position>
            <AltitudeMeters>930</AltitudeMeters>
            <DistanceMeters>51227.45668993</DistanceMeters>
          </Trackpoint>
          <Trackpoint>
            <Time>2019-08-01T10:59:15.000Z</Time>
            <Position>
              <LatitudeDegrees>40.72619489394128322601318359375</LatitudeDegrees>
              <LongitudeDegrees>-3.86484970338642597198486328125</LongitudeDegrees>
            </Position>
            <AltitudeMeters>929.4000244140625</AltitudeMeters>
            <DistanceMeters>51232.309569422</DistanceMeters>
          </Trackpoint>
          <Trackpoint>
            <Time>2019-08-01T10:59:18.000Z</Time>
            <Position>
              <LatitudeDegrees>40.72619355283677577972412109375</LatitudeDegrees>
              <LongitudeDegrees>-3.86493243277072906494140625</LongitudeDegrees>
            </Position>
            <AltitudeMeters>928</AltitudeMeters>
            <DistanceMeters>51239.288697758</DistanceMeters>
          </Trackpoint>
          <Trackpoint>
            <Time>2019-08-01T10:59:24.000Z</Time>
            <Position>
              <LatitudeDegrees>40.726154409348964691162109375</LatitudeDegrees>
              <LongitudeDegrees>-3.8650251366198062896728515625</LongitudeDegrees>
            </Position>
            <AltitudeMeters>927.4000244140625</AltitudeMeters>
            <DistanceMeters>51248.24039583</DistanceMeters>
          </Trackpoint>
          <Trackpoint>
            <Time>2019-08-01T10:59:30.000Z</Time>
            <Position>
              <LatitudeDegrees>40.72602809406816959381103515625</LatitudeDegrees>
              <LongitudeDegrees>-3.86502102948725223541259765625</LongitudeDegrees>
            </Position>
            <AltitudeMeters>926.79998779296875</AltitudeMeters>
            <DistanceMeters>51262.304028517</DistanceMeters>
          </Trackpoint>
          <Trackpoint>
            <Time>2019-08-01T10:59:35.000Z</Time>
            <Position>
              <LatitudeDegrees>40.7259705103933811187744140625</LatitudeDegrees>
              <LongitudeDegrees>-3.86500694788992404937744140625</LongitudeDegrees>
            </Position>
            <AltitudeMeters>926.20001220703125</AltitudeMeters>
            <DistanceMeters>51268.821503457</DistanceMeters>
          </Trackpoint>
          <Trackpoint>
            <Time>2019-08-01T11:23:56.000Z</Time>
            <Position>
              <LatitudeDegrees>40.72595148347318172454833984375</LatitudeDegrees>
              <LongitudeDegrees>-3.86486697010695934295654296875</LongitudeDegrees>
            </Position>
            <AltitudeMeters>878</AltitudeMeters>
            <DistanceMeters>51280.816720756</DistanceMeters>
          </Trackpoint>
          <Trackpoint>
            <Time>2019-08-01T11:24:09.000Z</Time>
            <Position>
              <LatitudeDegrees>40.72616253979504108428955078125</LatitudeDegrees>
              <LongitudeDegrees>-3.86501197703182697296142578125</LongitudeDegrees>
            </Position>
            <AltitudeMeters>878.20001220703125</AltitudeMeters>
            <DistanceMeters>51307.301230341</DistanceMeters>
          </Trackpoint>
          <Trackpoint>
            <Time>2019-08-01T11:24:29.000Z</Time>
            <Position>
              <LatitudeDegrees>40.72614963166415691375732421875</LatitudeDegrees>
              <LongitudeDegrees>-3.86576333083212375640869140625</LongitudeDegrees>
            </Position>
            <AltitudeMeters>877.5999755859375</AltitudeMeters>
            <DistanceMeters>51370.693379848</DistanceMeters>
          </Trackpoint>
          <Trackpoint>
            <Time>2019-08-01T11:24:30.000Z</Time>
            <Position>
              <LatitudeDegrees>40.7261455245316028594970703125</LatitudeDegrees>
              <LongitudeDegrees>-3.865818567574024200439453125</LongitudeDegrees>
            </Position>
            <AltitudeMeters>878</AltitudeMeters>
            <DistanceMeters>51375.375796489</DistanceMeters>
          </Trackpoint>
          <Trackpoint>
            <Time>2019-08-01T11:24:36.000Z</Time>
            <Position>
              <LatitudeDegrees>40.7261267490684986114501953125</LatitudeDegrees>
              <LongitudeDegrees>-3.86607396416366100311279296875</LongitudeDegrees>
            </Position>
            <AltitudeMeters>878.79998779296875</AltitudeMeters>
            <DistanceMeters>51397.019160727</DistanceMeters>
          </Trackpoint>
          <Trackpoint>
            <Time>2019-08-01T11:24:47.000Z</Time>
            <Position>
              <LatitudeDegrees>40.72610042989253997802734375</LatitudeDegrees>
              <LongitudeDegrees>-3.86648987419903278350830078125</LongitudeDegrees>
            </Position>
            <AltitudeMeters>879.5999755859375</AltitudeMeters>
            <DistanceMeters>51432.222678892</DistanceMeters>
          </Trackpoint>
          <Trackpoint>
            <Time>2019-08-01T11:24:51.000Z</Time>
            <Position>
              <LatitudeDegrees>40.72609238326549530029296875</LatitudeDegrees>
              <LongitudeDegrees>-3.866626918315887451171875</LongitudeDegrees>
            </Position>
            <AltitudeMeters>880.5999755859375</AltitudeMeters>
            <DistanceMeters>51443.816716926</DistanceMeters>
          </Trackpoint>
          <Trackpoint>
            <Time>2019-08-01T11:24:54.000Z</Time>
            <Position>
              <LatitudeDegrees>40.7260808162391185760498046875</LatitudeDegrees>
              <LongitudeDegrees>-3.8667316921055316925048828125</LongitudeDegrees>
            </Position>
            <AltitudeMeters>881.4000244140625</AltitudeMeters>
            <DistanceMeters>51452.747711565</DistanceMeters>
          </Trackpoint>
          <Trackpoint>
            <Time>2019-08-01T11:24:59.000Z</Time>
            <Position>
              <LatitudeDegrees>40.72606966830790042877197265625</LatitudeDegrees>
              <LongitudeDegrees>-3.86688885278999805450439453125</LongitudeDegrees>
            </Position>
            <AltitudeMeters>882.5999755859375</AltitudeMeters>
            <DistanceMeters>51466.062307343</DistanceMeters>
          </Trackpoint>
          <Trackpoint>
            <Time>2019-08-01T11:25:07.000Z</Time>
            <Position>
              <LatitudeDegrees>40.7260560058057308197021484375</LatitudeDegrees>
              <LongitudeDegrees>-3.86713930405676364898681640625</LongitudeDegrees>
            </Position>
            <AltitudeMeters>883.20001220703125</AltitudeMeters>
            <DistanceMeters>51487.242182402</DistanceMeters>
          </Trackpoint>
          <Trackpoint>
            <Time>2019-08-01T11:25:14.000Z</Time>
            <Position>
              <LatitudeDegrees>40.72602340020239353179931640625</LatitudeDegrees>
              <LongitudeDegrees>-3.86740920133888721466064453125</LongitudeDegrees>
            </Position>
            <AltitudeMeters>884.20001220703125</AltitudeMeters>
            <DistanceMeters>51510.295122754</DistanceMeters>
          </Trackpoint>
          <Trackpoint>
            <Time>2019-08-01T11:25:19.000Z</Time>
            <Position>
              <LatitudeDegrees>40.72595559060573577880859375</LatitudeDegrees>
              <LongitudeDegrees>-3.867594860494136810302734375</LongitudeDegrees>
            </Position>
            <AltitudeMeters>885.20001220703125</AltitudeMeters>
            <DistanceMeters>51527.678519376</DistanceMeters>
          </Trackpoint>
          <Trackpoint>
            <Time>2019-08-01T11:25:23.000Z</Time>
            <Position>
              <LatitudeDegrees>40.72588275186717510223388671875</LatitudeDegrees>
              <LongitudeDegrees>-3.867741711437702178955078125</LongitudeDegrees>
            </Position>
            <AltitudeMeters>886.20001220703125</AltitudeMeters>
            <DistanceMeters>51542.48196138</DistanceMeters>
          </Trackpoint>
          <Trackpoint>
            <Time>2019-08-01T11:25:27.000Z</Time>
            <Position>
              <LatitudeDegrees>40.72580873966217041015625</LatitudeDegrees>
              <LongitudeDegrees>-3.86789065785706043243408203125</LongitudeDegrees>
            </Position>
            <AltitudeMeters>887.5999755859375</AltitudeMeters>
            <DistanceMeters>51557.504900525</DistanceMeters>
          </Trackpoint>
          <Trackpoint>
            <Time>2019-08-01T11:25:31.000Z</Time>
            <Position>
              <LatitudeDegrees>40.72573791258037090301513671875</LatitudeDegrees>
              <LongitudeDegrees>-3.86802443303167819976806640625</LongitudeDegrees>
            </Position>
            <AltitudeMeters>888.5999755859375</AltitudeMeters>
            <DistanceMeters>51571.269676729</DistanceMeters>
          </Trackpoint>
          <Trackpoint>
            <Time>2019-08-01T11:25:35.000Z</Time>
            <Position>
              <LatitudeDegrees>40.72564311325550079345703125</LatitudeDegrees>
              <LongitudeDegrees>-3.8680912367999553680419921875</LongitudeDegrees>
            </Position>
            <AltitudeMeters>889.79998779296875</AltitudeMeters>
            <DistanceMeters>51583.230969768</DistanceMeters>
          </Trackpoint>
          <Trackpoint>
            <Time>2019-08-01T11:25:39.000Z</Time>
            <Position>
              <LatitudeDegrees>40.7255306281149387359619140625</LatitudeDegrees>
              <LongitudeDegrees>-3.86814898811280727386474609375</LongitudeDegrees>
            </Position>
            <AltitudeMeters>890.79998779296875</AltitudeMeters>
            <DistanceMeters>51596.665072188</DistanceMeters>
          </Trackpoint>
          <Trackpoint>
            <Time>2019-08-01T11:25:44.000Z</Time>
            <Position>
              <LatitudeDegrees>40.7254156284034252166748046875</LatitudeDegrees>
              <LongitudeDegrees>-3.868235237896442413330078125</LongitudeDegrees>
            </Position>
            <AltitudeMeters>891.79998779296875</AltitudeMeters>
            <DistanceMeters>51611.387774214</DistanceMeters>
          </Trackpoint>
          <Trackpoint>
            <Time>2019-08-01T11:25:46.000Z</Time>
            <Position>
              <LatitudeDegrees>40.7253901474177837371826171875</LatitudeDegrees>
              <LongitudeDegrees>-3.86827488429844379425048828125</LongitudeDegrees>
            </Position>
            <AltitudeMeters>892.20001220703125</AltitudeMeters>
            <DistanceMeters>51615.773439822</DistanceMeters>
          </Trackpoint>
          <Trackpoint>
            <Time>2019-08-01T11:25:49.000Z</Time>
            <Position>
              <LatitudeDegrees>40.7253582961857318878173828125</LatitudeDegrees>
              <LongitudeDegrees>-3.86836222372949123382568359375</LongitudeDegrees>
            </Position>
            <AltitudeMeters>892.5999755859375</AltitudeMeters>
            <DistanceMeters>51623.949051471</DistanceMeters>
          </Trackpoint>
          <Trackpoint>
            <Time>2019-08-01T11:26:09.000Z</Time>
            <Position>
              <LatitudeDegrees>40.725139193236827850341796875</LatitudeDegrees>
              <LongitudeDegrees>-3.86900159530341625213623046875</LongitudeDegrees>
            </Position>
            <AltitudeMeters>891.79998779296875</AltitudeMeters>
            <DistanceMeters>51683.137270288</DistanceMeters>
          </Trackpoint>
          <Trackpoint>
            <Time>2019-08-01T11:26:18.000Z</Time>
            <Position>
              <LatitudeDegrees>40.725092925131320953369140625</LatitudeDegrees>
              <LongitudeDegrees>-3.86930770240724086761474609375</LongitudeDegrees>
            </Position>
            <AltitudeMeters>890.79998779296875</AltitudeMeters>
            <DistanceMeters>51709.466015953</DistanceMeters>
          </Trackpoint>
          <Trackpoint>
            <Time>2019-08-01T11:26:27.000Z</Time>
            <Position>
              <LatitudeDegrees>40.7250250317156314849853515625</LatitudeDegrees>
              <LongitudeDegrees>-3.86959754861891269683837890625</LongitudeDegrees>
            </Position>
            <AltitudeMeters>889.4000244140625</AltitudeMeters>
            <DistanceMeters>51735.055917937</DistanceMeters>
          </Trackpoint>
          <Trackpoint>
            <Time>2019-08-01T11:26:39.000Z</Time>
            <Position>
              <LatitudeDegrees>40.724897123873233795166015625</LatitudeDegrees>
              <LongitudeDegrees>-3.86999107897281646728515625</LongitudeDegrees>
            </Position>
            <AltitudeMeters>888</AltitudeMeters>
            <DistanceMeters>51771.174320775</DistanceMeters>
          </Trackpoint>
          <Trackpoint>
            <Time>2019-08-01T11:26:45.000Z</Time>
            <Position>
              <LatitudeDegrees>40.7248205132782459259033203125</LatitudeDegrees>
              <LongitudeDegrees>-3.87020523659884929656982421875</LongitudeDegrees>
            </Position>
            <AltitudeMeters>886.5999755859375</AltitudeMeters>
            <DistanceMeters>51791.150057257</DistanceMeters>
          </Trackpoint>
          <Trackpoint>
            <Time>2019-08-01T11:26:52.000Z</Time>
            <Position>
              <LatitudeDegrees>40.724731497466564178466796875</LatitudeDegrees>
              <LongitudeDegrees>-3.87046976946294307708740234375</LongitudeDegrees>
            </Position>
            <AltitudeMeters>885.4000244140625</AltitudeMeters>
            <DistanceMeters>51815.564156786</DistanceMeters>
          </Trackpoint>
          <Trackpoint>
            <Time>2019-08-01T11:27:10.000Z</Time>
            <Position>
              <LatitudeDegrees>40.72447995655238628387451171875</LatitudeDegrees>
              <LongitudeDegrees>-3.871142752468585968017578125</LongitudeDegrees>
            </Position>
            <AltitudeMeters>885.5999755859375</AltitudeMeters>
            <DistanceMeters>51878.859296292</DistanceMeters>
          </Trackpoint>
          <Trackpoint>
            <Time>2019-08-01T11:27:12.000Z</Time>
            <Position>
              <LatitudeDegrees>40.7244502007961273193359375</LatitudeDegrees>
              <LongitudeDegrees>-3.87121726758778095245361328125</LongitudeDegrees>
            </Position>
            <AltitudeMeters>885.79998779296875</AltitudeMeters>
            <DistanceMeters>51885.964092371</DistanceMeters>
          </Trackpoint>
          <Trackpoint>
            <Time>2019-08-01T11:27:16.000Z</Time>
            <Position>
              <LatitudeDegrees>40.7243938744068145751953125</LatitudeDegrees>
              <LongitudeDegrees>-3.87137333862483501434326171875</LongitudeDegrees>
            </Position>
            <AltitudeMeters>887</AltitudeMeters>
            <DistanceMeters>51900.54504295</DistanceMeters>
          </Trackpoint>
          <Trackpoint>
            <Time>2019-08-01T11:27:21.000Z</Time>
            <Position>
              <LatitudeDegrees>40.72431986220180988311767578125</LatitudeDegrees>
              <LongitudeDegrees>-3.87157090008258819580078125</LongitudeDegrees>
            </Position>
            <AltitudeMeters>888</AltitudeMeters>
            <DistanceMeters>51919.134366912</DistanceMeters>
          </Trackpoint>
          <Trackpoint>
            <Time>2019-08-01T11:27:25.000Z</Time>
            <Position>
              <LatitudeDegrees>40.724264793097972869873046875</LatitudeDegrees>
              <LongitudeDegrees>-3.87173325754702091217041015625</LongitudeDegrees>
            </Position>
            <AltitudeMeters>888.79998779296875</AltitudeMeters>
            <DistanceMeters>51934.138359906</DistanceMeters>
          </Trackpoint>
          <Trackpoint>
            <Time>2019-08-01T11:27:30.000Z</Time>
            <Position>
              <LatitudeDegrees>40.724202096462249755859375</LatitudeDegrees>
              <LongitudeDegrees>-3.871946074068546295166015625</LongitudeDegrees>
            </Position>
            <AltitudeMeters>889.79998779296875</AltitudeMeters>
            <DistanceMeters>51953.398331615</DistanceMeters>
          </Trackpoint>
          <Trackpoint>
            <Time>2019-08-01T11:27:34.000Z</Time>
            <Position>
              <LatitudeDegrees>40.7241570018231868743896484375</LatitudeDegrees>
              <LongitudeDegrees>-3.8721162267029285430908203125</LongitudeDegrees>
            </Position>
            <AltitudeMeters>890.79998779296875</AltitudeMeters>
            <DistanceMeters>51968.60319982</DistanceMeters>
          </Trackpoint>
          <Trackpoint>
            <Time>2019-08-01T11:27:38.000Z</Time>
            <Position>
              <LatitudeDegrees>40.724124647676944732666015625</LatitudeDegrees>
              <LongitudeDegrees>-3.8722902350127696990966796875</LongitudeDegrees>
            </Position>
            <AltitudeMeters>892</AltitudeMeters>
            <DistanceMeters>51983.716331645</DistanceMeters>
          </Trackpoint>
          <Trackpoint>
            <Time>2019-08-01T11:27:42.000Z</Time>
            <Position>
              <LatitudeDegrees>40.72410025633871555328369140625</LatitudeDegrees>
              <LongitudeDegrees>-3.87246809899806976318359375</LongitudeDegrees>
            </Position>
            <AltitudeMeters>893.20001220703125</AltitudeMeters>
            <DistanceMeters>51998.96301187</DistanceMeters>
          </Trackpoint>
          <Trackpoint>
            <Time>2019-08-01T11:27:46.000Z</Time>
            <Position>
              <LatitudeDegrees>40.7240795530378818511962890625</LatitudeDegrees>
              <LongitudeDegrees>-3.8726432807743549346923828125</LongitudeDegrees>
            </Position>
            <AltitudeMeters>894</AltitudeMeters>
            <DistanceMeters>52013.918779772</DistanceMeters>
          </Trackpoint>
          <Trackpoint>
            <Time>2019-08-01T11:27:51.000Z</Time>
            <Position>
              <LatitudeDegrees>40.72407041676342487335205078125</LatitudeDegrees>
              <LongitudeDegrees>-3.87286162935197353363037109375</LongitudeDegrees>
            </Position>
            <AltitudeMeters>895</AltitudeMeters>
            <DistanceMeters>52032.364735437</DistanceMeters>
          </Trackpoint>
          <Trackpoint>
            <Time>2019-08-01T11:28:00.000Z</Time>
            <Position>
              <LatitudeDegrees>40.7240678183734416961669921875</LatitudeDegrees>
              <LongitudeDegrees>-3.8732826523482799530029296875</LongitudeDegrees>
            </Position>
            <AltitudeMeters>895.79998779296875</AltitudeMeters>
            <DistanceMeters>52067.879690704</DistanceMeters>
          </Trackpoint>
          <Trackpoint>
            <Time>2019-08-01T11:28:06.000Z</Time>
            <Position>
              <LatitudeDegrees>40.72407762520015239715576171875</LatitudeDegrees>
              <LongitudeDegrees>-3.8736051879823207855224609375</LongitudeDegrees>
            </Position>
            <AltitudeMeters>896</AltitudeMeters>
            <DistanceMeters>52095.107953706</DistanceMeters>
          </Trackpoint>
          <Trackpoint>
            <Time>2019-08-01T11:28:17.000Z</Time>
            <Position>
              <LatitudeDegrees>40.72411802597343921661376953125</LatitudeDegrees>
              <LongitudeDegrees>-3.8743873871862888336181640625</LongitudeDegrees>
            </Position>
            <AltitudeMeters>895.4000244140625</AltitudeMeters>
            <DistanceMeters>52161.240539199</DistanceMeters>
          </Trackpoint>
          <Trackpoint>
            <Time>2019-08-01T11:28:19.000Z</Time>
            <Position>
              <LatitudeDegrees>40.7241385616362094879150390625</LatitudeDegrees>
              <LongitudeDegrees>-3.874559216201305389404296875</LongitudeDegrees>
            </Position>
            <AltitudeMeters>895.5999755859375</AltitudeMeters>
            <DistanceMeters>52175.91347628</DistanceMeters>
          </Trackpoint>
          <Trackpoint>
            <Time>2019-08-01T11:28:23.000Z</Time>
            <Position>
              <LatitudeDegrees>40.724258758127689361572265625</LatitudeDegrees>
              <LongitudeDegrees>-3.8748691789805889129638671875</LongitudeDegrees>
            </Position>
            <AltitudeMeters>896.20001220703125</AltitudeMeters>
            <DistanceMeters>52205.283034705</DistanceMeters>
          </Trackpoint>
          <Trackpoint>
            <Time>2019-08-01T11:28:29.000Z</Time>
            <Position>
              <LatitudeDegrees>40.72437669150531291961669921875</LatitudeDegrees>
              <LongitudeDegrees>-3.87524561025202274322509765625</LongitudeDegrees>
            </Position>
            <AltitudeMeters>897.20001220703125</AltitudeMeters>
            <DistanceMeters>52239.641467346</DistanceMeters>
          </Trackpoint>
          <Trackpoint>
            <Time>2019-08-01T11:28:35.000Z</Time>
            <Position>
              <LatitudeDegrees>40.72443167679011821746826171875</LatitudeDegrees>
              <LongitudeDegrees>-3.87551953084766864776611328125</LongitudeDegrees>
            </Position>
            <AltitudeMeters>898.20001220703125</AltitudeMeters>
            <DistanceMeters>52263.543283518</DistanceMeters>
          </Trackpoint>
          <Trackpoint>
            <Time>2019-08-01T11:28:41.000Z</Time>
            <Position>
              <LatitudeDegrees>40.72443167679011821746826171875</LatitudeDegrees>
              <LongitudeDegrees>-3.87578741647303104400634765625</LongitudeDegrees>
            </Position>
            <AltitudeMeters>899.20001220703125</AltitudeMeters>
            <DistanceMeters>52286.139669123</DistanceMeters>
          </Trackpoint>
          <Trackpoint>
            <Time>2019-08-01T11:28:59.000Z</Time>
            <Position>
              <LatitudeDegrees>40.724568553268909454345703125</LatitudeDegrees>
              <LongitudeDegrees>-3.87638906948268413543701171875</LongitudeDegrees>
            </Position>
            <AltitudeMeters>897.79998779296875</AltitudeMeters>
            <DistanceMeters>52339.126926347</DistanceMeters>
          </Trackpoint>
          <Trackpoint>
            <Time>2019-08-01T11:29:08.000Z</Time>
            <Position>
              <LatitudeDegrees>40.724785812199115753173828125</LatitudeDegrees>
              <LongitudeDegrees>-3.87642494402825832366943359375</LongitudeDegrees>
            </Position>
            <AltitudeMeters>896.20001220703125</AltitudeMeters>
            <DistanceMeters>52363.496786166</DistanceMeters>
          </Trackpoint>
          <Trackpoint>
            <Time>2019-08-01T11:29:16.000Z</Time>
            <Position>
              <LatitudeDegrees>40.72498655878007411956787109375</LatitudeDegrees>
              <LongitudeDegrees>-3.876440115272998809814453125</LongitudeDegrees>
            </Position>
            <AltitudeMeters>895</AltitudeMeters>
            <DistanceMeters>52385.876737462</DistanceMeters>
          </Trackpoint>
          <Trackpoint>
            <Time>2019-08-01T11:29:30.000Z</Time>
            <Position>
              <LatitudeDegrees>40.7253621518611907958984375</LatitudeDegrees>
              <LongitudeDegrees>-3.87644757516682147979736328125</LongitudeDegrees>
            </Position>
            <AltitudeMeters>893.4000244140625</AltitudeMeters>
            <DistanceMeters>52427.685684084</DistanceMeters>
          </Trackpoint>
          <Trackpoint>
            <Time>2019-08-01T11:29:50.000Z</Time>
            <Position>
              <LatitudeDegrees>40.72590320371091365814208984375</LatitudeDegrees>
              <LongitudeDegrees>-3.8764443062245845794677734375</LongitudeDegrees>
            </Position>
            <AltitudeMeters>892.79998779296875</AltitudeMeters>
            <DistanceMeters>52487.90653546</DistanceMeters>
          </Trackpoint>
          <Trackpoint>
            <Time>2019-08-01T11:29:56.000Z</Time>
            <Position>
              <LatitudeDegrees>40.72605483233928680419921875</LatitudeDegrees>
              <LongitudeDegrees>-3.87643014080822467803955078125</LongitudeDegrees>
            </Position>
            <AltitudeMeters>892.5999755859375</AltitudeMeters>
            <DistanceMeters>52504.825560943</DistanceMeters>
          </Trackpoint>
          <Trackpoint>
            <Time>2019-08-01T11:30:04.000Z</Time>
            <Position>
              <LatitudeDegrees>40.72626647539436817169189453125</LatitudeDegrees>
              <LongitudeDegrees>-3.8764412887394428253173828125</LongitudeDegrees>
            </Position>
            <AltitudeMeters>891.4000244140625</AltitudeMeters>
            <DistanceMeters>52528.400614388</DistanceMeters>
          </Trackpoint>
          <Trackpoint>
            <Time>2019-08-01T11:30:22.000Z</Time>
            <Position>
              <LatitudeDegrees>40.72655581869184970855712890625</LatitudeDegrees>
              <LongitudeDegrees>-3.8769173808395862579345703125</LongitudeDegrees>
            </Position>
            <AltitudeMeters>890.20001220703125</AltitudeMeters>
            <DistanceMeters>52579.876332076</DistanceMeters>
          </Trackpoint>
          <Trackpoint>
            <Time>2019-08-01T11:30:30.000Z</Time>
            <Position>
              <LatitudeDegrees>40.72655397467315196990966796875</LatitudeDegrees>
              <LongitudeDegrees>-3.87731753289699554443359375</LongitudeDegrees>
            </Position>
            <AltitudeMeters>891.79998779296875</AltitudeMeters>
            <DistanceMeters>52613.629146837</DistanceMeters>
          </Trackpoint>
          <Trackpoint>
            <Time>2019-08-01T11:30:33.000Z</Time>
            <Position>
              <LatitudeDegrees>40.726553387939929962158203125</LatitudeDegrees>
              <LongitudeDegrees>-3.877460025250911712646484375</LongitudeDegrees>
            </Position>
            <AltitudeMeters>892.79998779296875</AltitudeMeters>
            <DistanceMeters>52625.648054145</DistanceMeters>
          </Trackpoint>
          <Trackpoint>
            <Time>2019-08-01T11:30:37.000Z</Time>
            <Position>
              <LatitudeDegrees>40.72654969990253448486328125</LatitudeDegrees>
              <LongitudeDegrees>-3.8776419125497341156005859375</LongitudeDegrees>
            </Position>
            <AltitudeMeters>893.79998779296875</AltitudeMeters>
            <DistanceMeters>52640.995383358</DistanceMeters>
          </Trackpoint>
          <Trackpoint>
            <Time>2019-08-01T11:30:40.000Z</Time>
            <Position>
              <LatitudeDegrees>40.7265481911599636077880859375</LatitudeDegrees>
              <LongitudeDegrees>-3.877777867019176483154296875</LongitudeDegrees>
            </Position>
            <AltitudeMeters>894.79998779296875</AltitudeMeters>
            <DistanceMeters>52652.464127556</DistanceMeters>
          </Trackpoint>
          <Trackpoint>
            <Time>2019-08-01T11:30:43.000Z</Time>
            <Position>
              <LatitudeDegrees>40.72654567658901214599609375</LatitudeDegrees>
              <LongitudeDegrees>-3.87791298329830169677734375</LongitudeDegrees>
            </Position>
            <AltitudeMeters>895.79998779296875</AltitudeMeters>
            <DistanceMeters>52663.864957365</DistanceMeters>
          </Trackpoint>
          <Trackpoint>
            <Time>2019-08-01T11:30:46.000Z</Time>
            <Position>
              <LatitudeDegrees>40.72654441930353641510009765625</LatitudeDegrees>
              <LongitudeDegrees>-3.87804751284420490264892578125</LongitudeDegrees>
            </Position>
            <AltitudeMeters>897</AltitudeMeters>
            <DistanceMeters>52675.213391188</DistanceMeters>
          </Trackpoint>
          <Trackpoint>
            <Time>2019-08-01T11:30:49.000Z</Time>
            <Position>
              <LatitudeDegrees>40.72654324583709239959716796875</LatitudeDegrees>
              <LongitudeDegrees>-3.878172822296619415283203125</LongitudeDegrees>
            </Position>
            <AltitudeMeters>897.79998779296875</AltitudeMeters>
            <DistanceMeters>52685.784018697</DistanceMeters>
          </Trackpoint>
          <Trackpoint>
            <Time>2019-08-01T11:30:54.000Z</Time>
            <Position>
              <LatitudeDegrees>40.72654022835195064544677734375</LatitudeDegrees>
              <LongitudeDegrees>-3.8783778436481952667236328125</LongitudeDegrees>
            </Position>
            <AltitudeMeters>899</AltitudeMeters>
            <DistanceMeters>52703.080447015</DistanceMeters>
          </Trackpoint>
          <Trackpoint>
            <Time>2019-08-01T11:30:57.000Z</Time>
            <Position>
              <LatitudeDegrees>40.7265421561896800994873046875</LatitudeDegrees>
              <LongitudeDegrees>-3.878498710691928863525390625</LongitudeDegrees>
            </Position>
            <AltitudeMeters>900</AltitudeMeters>
            <DistanceMeters>52713.277570642</DistanceMeters>
          </Trackpoint>
          <Trackpoint>
            <Time>2019-08-01T11:31:01.000Z</Time>
            <Position>
              <LatitudeDegrees>40.72654257528483867645263671875</LatitudeDegrees>
              <LongitudeDegrees>-3.87864950112998485565185546875</LongitudeDegrees>
            </Position>
            <AltitudeMeters>901.20001220703125</AltitudeMeters>
            <DistanceMeters>52725.99660439</DistanceMeters>
          </Trackpoint>
          <Trackpoint>
            <Time>2019-08-01T11:31:04.000Z</Time>
            <Position>
              <LatitudeDegrees>40.72653788141906261444091796875</LatitudeDegrees>
              <LongitudeDegrees>-3.8787613995373249053955078125</LongitudeDegrees>
            </Position>
            <AltitudeMeters>902.20001220703125</AltitudeMeters>
            <DistanceMeters>52735.449732787</DistanceMeters>
          </Trackpoint>
          <Trackpoint>
            <Time>2019-08-01T11:31:08.000Z</Time>
            <Position>
              <LatitudeDegrees>40.72653402574360370635986328125</LatitudeDegrees>
              <LongitudeDegrees>-3.87891017831861972808837890625</LongitudeDegrees>
            </Position>
            <AltitudeMeters>903.5999755859375</AltitudeMeters>
            <DistanceMeters>52748.006570159</DistanceMeters>
          </Trackpoint>
          <Trackpoint>
            <Time>2019-08-01T11:31:12.000Z</Time>
            <Position>
              <LatitudeDegrees>40.726532600820064544677734375</LatitudeDegrees>
              <LongitudeDegrees>-3.879051916301250457763671875</LongitudeDegrees>
            </Position>
            <AltitudeMeters>904.5999755859375</AltitudeMeters>
            <DistanceMeters>52759.962955072</DistanceMeters>
          </Trackpoint>
          <Trackpoint>
            <Time>2019-08-01T11:31:16.000Z</Time>
            <Position>
              <LatitudeDegrees>40.726533941924571990966796875</LatitudeDegrees>
              <LongitudeDegrees>-3.87919650413095951080322265625</LongitudeDegrees>
            </Position>
            <AltitudeMeters>905.5999755859375</AltitudeMeters>
            <DistanceMeters>52772.159736588</DistanceMeters>
          </Trackpoint>
          <Trackpoint>
            <Time>2019-08-01T11:31:20.000Z</Time>
            <Position>
              <LatitudeDegrees>40.72652916423976421356201171875</LatitudeDegrees>
              <LongitudeDegrees>-3.87933899648487567901611328125</LongitudeDegrees>
            </Position>
            <AltitudeMeters>906.79998779296875</AltitudeMeters>
            <DistanceMeters>52784.190283759</DistanceMeters>
          </Trackpoint>
          <Trackpoint>
            <Time>2019-08-01T11:31:24.000Z</Time>
            <Position>
              <LatitudeDegrees>40.72652757167816162109375</LatitudeDegrees>
              <LongitudeDegrees>-3.87948132120072841644287109375</LongitudeDegrees>
            </Position>
            <AltitudeMeters>908</AltitudeMeters>
            <DistanceMeters>52796.196035722</DistanceMeters>
          </Trackpoint>
          <Trackpoint>
            <Time>2019-08-01T11:31:31.000Z</Time>
            <Position>
              <LatitudeDegrees>40.726519189774990081787109375</LatitudeDegrees>
              <LongitudeDegrees>-3.8797216303646564483642578125</LongitudeDegrees>
            </Position>
            <AltitudeMeters>908.79998779296875</AltitudeMeters>
            <DistanceMeters>52816.487299003</DistanceMeters>
          </Trackpoint>
          <Trackpoint>
            <Time>2019-08-01T11:31:36.000Z</Time>
            <Position>
              <LatitudeDegrees>40.72651080787181854248046875</LatitudeDegrees>
              <LongitudeDegrees>-3.8798879273235797882080078125</LongitudeDegrees>
            </Position>
            <AltitudeMeters>909.79998779296875</AltitudeMeters>
            <DistanceMeters>52830.545472891</DistanceMeters>
          </Trackpoint>
          <Trackpoint>
            <Time>2019-08-01T11:31:40.000Z</Time>
            <Position>
              <LatitudeDegrees>40.72648842819035053253173828125</LatitudeDegrees>
              <LongitudeDegrees>-3.8800294138491153717041015625</LongitudeDegrees>
            </Position>
            <AltitudeMeters>911.4000244140625</AltitudeMeters>
            <DistanceMeters>52842.737070746</DistanceMeters>
          </Trackpoint>
          <Trackpoint>
            <Time>2019-08-01T11:31:42.000Z</Time>
            <Position>
              <LatitudeDegrees>40.72647283785045146942138671875</LatitudeDegrees>
              <LongitudeDegrees>-3.88012421317398548126220703125</LongitudeDegrees>
            </Position>
            <AltitudeMeters>912.5999755859375</AltitudeMeters>
            <DistanceMeters>52850.919858586</DistanceMeters>
          </Trackpoint>
          <Trackpoint>
            <Time>2019-08-01T11:31:45.000Z</Time>
            <Position>
              <LatitudeDegrees>40.7264345325529575347900390625</LatitudeDegrees>
              <LongitudeDegrees>-3.88029738329350948333740234375</LongitudeDegrees>
            </Position>
            <AltitudeMeters>913.5999755859375</AltitudeMeters>
            <DistanceMeters>52866.136006588</DistanceMeters>
          </Trackpoint>
          <Trackpoint>
            <Time>2019-08-01T11:31:49.000Z</Time>
            <Position>
              <LatitudeDegrees>40.726364292204380035400390625</LatitudeDegrees>
              <LongitudeDegrees>-3.88057314790785312652587890625</LongitudeDegrees>
            </Position>
            <AltitudeMeters>915</AltitudeMeters>
            <DistanceMeters>52890.675172174</DistanceMeters>
          </Trackpoint>
          <Trackpoint>
            <Time>2019-08-01T11:31:52.000Z</Time>
            <Position>
              <LatitudeDegrees>40.7262980751693248748779296875</LatitudeDegrees>
              <LongitudeDegrees>-3.880810104310512542724609375</LongitudeDegrees>
            </Position>
            <AltitudeMeters>916.20001220703125</AltitudeMeters>
            <DistanceMeters>52911.977694598</DistanceMeters>
          </Trackpoint>
          <Trackpoint>
            <Time>2019-08-01T11:31:54.000Z</Time>
            <Position>
              <LatitudeDegrees>40.72625054977834224700927734375</LatitudeDegrees>
              <LongitudeDegrees>-3.88098956085741519927978515625</LongitudeDegrees>
            </Position>
            <AltitudeMeters>917.4000244140625</AltitudeMeters>
            <DistanceMeters>52928.012449557</DistanceMeters>
          </Trackpoint>
          <Trackpoint>
            <Time>2019-08-01T11:31:56.000Z</Time>
            <Position>
              <LatitudeDegrees>40.7261934690177440643310546875</LatitudeDegrees>
              <LongitudeDegrees>-3.88118066824972629547119140625</LongitudeDegrees>
            </Position>
            <AltitudeMeters>918.5999755859375</AltitudeMeters>
            <DistanceMeters>52945.338871328</DistanceMeters>
          </Trackpoint>
          <Trackpoint>
            <Time>2019-08-01T11:31:58.000Z</Time>
            <Position>
              <LatitudeDegrees>40.72613337077200412750244140625</LatitudeDegrees>
              <LongitudeDegrees>-3.88138644397258758544921875</LongitudeDegrees>
            </Position>
            <AltitudeMeters>919.5999755859375</AltitudeMeters>
            <DistanceMeters>52963.940335495</DistanceMeters>
          </Trackpoint>
          <Trackpoint>
            <Time>2019-08-01T11:32:01.000Z</Time>
            <Position>
              <LatitudeDegrees>40.72604133747518062591552734375</LatitudeDegrees>
              <LongitudeDegrees>-3.881711661815643310546875</LongitudeDegrees>
            </Position>
            <AltitudeMeters>920.79998779296875</AltitudeMeters>
            <DistanceMeters>52993.222289811</DistanceMeters>
          </Trackpoint>
          <Trackpoint>
            <Time>2019-08-01T11:32:03.000Z</Time>
            <Position>
              <LatitudeDegrees>40.72598182596266269683837890625</LatitudeDegrees>
              <LongitudeDegrees>-3.88193227350711822509765625</LongitudeDegrees>
            </Position>
            <AltitudeMeters>921.79998779296875</AltitudeMeters>
            <DistanceMeters>53012.974364456</DistanceMeters>
          </Trackpoint>
          <Trackpoint>
            <Time>2019-08-01T11:32:05.000Z</Time>
            <Position>
              <LatitudeDegrees>40.72592097334563732147216796875</LatitudeDegrees>
              <LongitudeDegrees>-3.88215213082730770111083984375</LongitudeDegrees>
            </Position>
            <AltitudeMeters>922.79998779296875</AltitudeMeters>
            <DistanceMeters>53032.717293562</DistanceMeters>
          </Trackpoint>
          <Trackpoint>
            <Time>2019-08-01T11:32:07.000Z</Time>
            <Position>
              <LatitudeDegrees>40.7258602045476436614990234375</LatitudeDegrees>
              <LongitudeDegrees>-3.8823696412146091461181640625</LongitudeDegrees>
            </Position>
            <AltitudeMeters>924.4000244140625</AltitudeMeters>
            <DistanceMeters>53052.271103851</DistanceMeters>
          </Trackpoint>
          <Trackpoint>
            <Time>2019-08-01T11:32:09.000Z</Time>
            <Position>
              <LatitudeDegrees>40.725801698863506317138671875</LatitudeDegrees>
              <LongitudeDegrees>-3.88258849270641803741455078125</LongitudeDegrees>
            </Position>
            <AltitudeMeters>926</AltitudeMeters>
            <DistanceMeters>53071.8456844</DistanceMeters>
          </Trackpoint>
          <Trackpoint>
            <Time>2019-08-01T11:32:11.000Z</Time>
            <Position>
              <LatitudeDegrees>40.7257455401122570037841796875</LatitudeDegrees>
              <LongitudeDegrees>-3.88280390761792659759521484375</LongitudeDegrees>
            </Position>
            <AltitudeMeters>927.20001220703125</AltitudeMeters>
            <DistanceMeters>53091.060828574</DistanceMeters>
          </Trackpoint>
          <Trackpoint>
            <Time>2019-08-01T11:32:13.000Z</Time>
            <Position>
              <LatitudeDegrees>40.72568845935165882110595703125</LatitudeDegrees>
              <LongitudeDegrees>-3.88301429338753223419189453125</LongitudeDegrees>
            </Position>
            <AltitudeMeters>929</AltitudeMeters>
            <DistanceMeters>53109.909443842</DistanceMeters>
          </Trackpoint>
          <Trackpoint>
            <Time>2019-08-01T11:32:15.000Z</Time>
            <Position>
              <LatitudeDegrees>40.7256359048187732696533203125</LatitudeDegrees>
              <LongitudeDegrees>-3.8832202367484569549560546875</LongitudeDegrees>
            </Position>
            <AltitudeMeters>930.4000244140625</AltitudeMeters>
            <DistanceMeters>53128.239010782</DistanceMeters>
          </Trackpoint>
          <Trackpoint>
            <Time>2019-08-01T11:32:17.000Z</Time>
            <Position>
              <LatitudeDegrees>40.7255929894745349884033203125</LatitudeDegrees>
              <LongitudeDegrees>-3.8834230788052082061767578125</LongitudeDegrees>
            </Position>
            <AltitudeMeters>931.4000244140625</AltitudeMeters>
            <DistanceMeters>53146.003161519</DistanceMeters>
          </Trackpoint>
          <Trackpoint>
            <Time>2019-08-01T11:32:19.000Z</Time>
            <Position>
              <LatitudeDegrees>40.72555954568088054656982421875</LatitudeDegrees>
              <LongitudeDegrees>-3.88362382538616657257080078125</LongitudeDegrees>
            </Position>
            <AltitudeMeters>932.79998779296875</AltitudeMeters>
            <DistanceMeters>53163.34026406</DistanceMeters>
          </Trackpoint>
          <Trackpoint>
            <Time>2019-08-01T11:32:21.000Z</Time>
            <Position>
              <LatitudeDegrees>40.72553289122879505157470703125</LatitudeDegrees>
              <LongitudeDegrees>-3.88382482342422008514404296875</LongitudeDegrees>
            </Position>
            <AltitudeMeters>934</AltitudeMeters>
            <DistanceMeters>53180.551645693</DistanceMeters>
          </Trackpoint>
          <Trackpoint>
            <Time>2019-08-01T11:32:23.000Z</Time>
            <Position>
              <LatitudeDegrees>40.72550690732896327972412109375</LatitudeDegrees>
              <LongitudeDegrees>-3.88402682729065418243408203125</LongitudeDegrees>
            </Position>
            <AltitudeMeters>935.20001220703125</AltitudeMeters>
            <DistanceMeters>53197.834494666</DistanceMeters>
          </Trackpoint>
          <Trackpoint>
            <Time>2019-08-01T11:32:26.000Z</Time>
            <Position>
              <LatitudeDegrees>40.72546566836535930633544921875</LatitudeDegrees>
              <LongitudeDegrees>-3.8843201100826263427734375</LongitudeDegrees>
            </Position>
            <AltitudeMeters>936.5999755859375</AltitudeMeters>
            <DistanceMeters>53222.995049292</DistanceMeters>
          </Trackpoint>
          <Trackpoint>
            <Time>2019-08-01T11:32:28.000Z</Time>
            <Position>
              <LatitudeDegrees>40.7254421152174472808837890625</LatitudeDegrees>
              <LongitudeDegrees>-3.88450241647660732269287109375</LongitudeDegrees>
            </Position>
            <AltitudeMeters>938</AltitudeMeters>
            <DistanceMeters>53238.594488385</DistanceMeters>
          </Trackpoint>
          <Trackpoint>
            <Time>2019-08-01T11:32:30.000Z</Time>
            <Position>
              <LatitudeDegrees>40.7254189811646938323974609375</LatitudeDegrees>
              <LongitudeDegrees>-3.88467055745422840118408203125</LongitudeDegrees>
            </Position>
            <AltitudeMeters>939.20001220703125</AltitudeMeters>
            <DistanceMeters>53253.008822532</DistanceMeters>
          </Trackpoint>
          <Trackpoint>
            <Time>2019-08-01T11:32:32.000Z</Time>
            <Position>
              <LatitudeDegrees>40.725397355854511260986328125</LatitudeDegrees>
              <LongitudeDegrees>-3.884823359549045562744140625</LongitudeDegrees>
            </Position>
            <AltitudeMeters>940.20001220703125</AltitudeMeters>
            <DistanceMeters>53266.120443154</DistanceMeters>
          </Trackpoint>
          <Trackpoint>
            <Time>2019-08-01T11:32:35.000Z</Time>
            <Position>
              <LatitudeDegrees>40.72536609135568141937255859375</LatitudeDegrees>
              <LongitudeDegrees>-3.88502343557775020599365234375</LongitudeDegrees>
            </Position>
            <AltitudeMeters>941.79998779296875</AltitudeMeters>
            <DistanceMeters>53283.352012254</DistanceMeters>
          </Trackpoint>
          <Trackpoint>
            <Time>2019-08-01T11:32:38.000Z</Time>
            <Position>
              <LatitudeDegrees>40.72534480132162570953369140625</LatitudeDegrees>
              <LongitudeDegrees>-3.88519794680178165435791015625</LongitudeDegrees>
            </Position>
            <AltitudeMeters>942.79998779296875</AltitudeMeters>
            <DistanceMeters>53298.261519014</DistanceMeters>
          </Trackpoint>
          <Trackpoint>
            <Time>2019-08-01T11:32:41.000Z</Time>
            <Position>
              <LatitudeDegrees>40.7253214158117771148681640625</LatitudeDegrees>
              <LongitudeDegrees>-3.88534865342080593109130859375</LongitudeDegrees>
            </Position>
            <AltitudeMeters>943.79998779296875</AltitudeMeters>
            <DistanceMeters>53311.237450787</DistanceMeters>
          </Trackpoint>
          <Trackpoint>
            <Time>2019-08-01T11:32:49.000Z</Time>
            <Position>
              <LatitudeDegrees>40.7252748124301433563232421875</LatitudeDegrees>
              <LongitudeDegrees>-3.885706476867198944091796875</LongitudeDegrees>
            </Position>
            <AltitudeMeters>945</AltitudeMeters>
            <DistanceMeters>53341.862159268</DistanceMeters>
          </Trackpoint>
          <Trackpoint>
            <Time>2019-08-01T11:32:56.000Z</Time>
            <Position>
              <LatitudeDegrees>40.72525243274867534637451171875</LatitudeDegrees>
              <LongitudeDegrees>-3.8859963230788707733154296875</LongitudeDegrees>
            </Position>
            <AltitudeMeters>946.20001220703125</AltitudeMeters>
            <DistanceMeters>53366.437177326</DistanceMeters>
          </Trackpoint>
          <Trackpoint>
            <Time>2019-08-01T11:33:05.000Z</Time>
            <Position>
              <LatitudeDegrees>40.7252292148768901824951171875</LatitudeDegrees>
              <LongitudeDegrees>-3.8863585889339447021484375</LongitudeDegrees>
            </Position>
            <AltitudeMeters>947.4000244140625</AltitudeMeters>
            <DistanceMeters>53397.103433229</DistanceMeters>
          </Trackpoint>
          <Trackpoint>
            <Time>2019-08-01T11:33:24.000Z</Time>
            <Position>
              <LatitudeDegrees>40.72520800866186618804931640625</LatitudeDegrees>
              <LongitudeDegrees>-3.88707180507481098175048828125</LongitudeDegrees>
            </Position>
            <AltitudeMeters>948.4000244140625</AltitudeMeters>
            <DistanceMeters>53457.309512785</DistanceMeters>
          </Trackpoint>
          <Trackpoint>
            <Time>2019-08-01T11:33:32.000Z</Time>
            <Position>
              <LatitudeDegrees>40.7249777577817440032958984375</LatitudeDegrees>
              <LongitudeDegrees>-3.88735528104007244110107421875</LongitudeDegrees>
            </Position>
            <AltitudeMeters>949.5999755859375</AltitudeMeters>
            <DistanceMeters>53492.35968839</DistanceMeters>
          </Trackpoint>
          <Trackpoint>
            <Time>2019-08-01T11:33:51.000Z</Time>
            <Position>
              <LatitudeDegrees>40.724832080304622650146484375</LatitudeDegrees>
              <LongitudeDegrees>-3.88795726932585239410400390625</LongitudeDegrees>
            </Position>
            <AltitudeMeters>949.5999755859375</AltitudeMeters>
            <DistanceMeters>53545.663492128</DistanceMeters>
          </Trackpoint>
          <Trackpoint>
            <Time>2019-08-01T11:34:00.000Z</Time>
            <Position>
              <LatitudeDegrees>40.72469537146389484405517578125</LatitudeDegrees>
              <LongitudeDegrees>-3.88815860264003276824951171875</LongitudeDegrees>
            </Position>
            <AltitudeMeters>948.20001220703125</AltitudeMeters>
            <DistanceMeters>53568.465349759</DistanceMeters>
          </Trackpoint>
          <Trackpoint>
            <Time>2019-08-01T11:34:06.000Z</Time>
            <Position>
              <LatitudeDegrees>40.72461809031665325164794921875</LatitudeDegrees>
              <LongitudeDegrees>-3.88832020573318004608154296875</LongitudeDegrees>
            </Position>
            <AltitudeMeters>947.20001220703125</AltitudeMeters>
            <DistanceMeters>53584.583516506</DistanceMeters>
          </Trackpoint>
          <Trackpoint>
            <Time>2019-08-01T11:34:12.000Z</Time>
            <Position>
              <LatitudeDegrees>40.72453862987458705902099609375</LatitudeDegrees>
              <LongitudeDegrees>-3.8884777016937732696533203125</LongitudeDegrees>
            </Position>
            <AltitudeMeters>946.20001220703125</AltitudeMeters>
            <DistanceMeters>53600.542912992</DistanceMeters>
          </Trackpoint>
          <Trackpoint>
            <Time>2019-08-01T11:34:27.000Z</Time>
            <Position>
              <LatitudeDegrees>40.72437669150531291961669921875</LatitudeDegrees>
              <LongitudeDegrees>-3.88882999308407306671142578125</LongitudeDegrees>
            </Position>
            <AltitudeMeters>945.20001220703125</AltitudeMeters>
            <DistanceMeters>53635.297756474</DistanceMeters>
          </Trackpoint>
          <Trackpoint>
            <Time>2019-08-01T11:34:32.000Z</Time>
            <Position>
              <LatitudeDegrees>40.72433545254170894622802734375</LatitudeDegrees>
              <LongitudeDegrees>-3.88893191702663898468017578125</LongitudeDegrees>
            </Position>
            <AltitudeMeters>944</AltitudeMeters>
            <DistanceMeters>53645.043439828</DistanceMeters>
          </Trackpoint>
          <Trackpoint>
            <Time>2019-08-01T11:34:37.000Z</Time>
            <Position>
              <LatitudeDegrees>40.7242951355874538421630859375</LatitudeDegrees>
              <LongitudeDegrees>-3.88903610408306121826171875</LongitudeDegrees>
            </Position>
            <AltitudeMeters>943</AltitudeMeters>
            <DistanceMeters>53654.911587798</DistanceMeters>
          </Trackpoint>
          <Trackpoint>
            <Time>2019-08-01T11:34:40.000Z</Time>
            <Position>
              <LatitudeDegrees>40.72426772676408290863037109375</LatitudeDegrees>
              <LongitudeDegrees>-3.8890969567000865936279296875</LongitudeDegrees>
            </Position>
            <AltitudeMeters>941.79998779296875</AltitudeMeters>
            <DistanceMeters>53660.883168148</DistanceMeters>
          </Trackpoint>
          <Trackpoint>
            <Time>2019-08-01T11:34:45.000Z</Time>
            <Position>
              <LatitudeDegrees>40.72422363795340061187744140625</LatitudeDegrees>
              <LongitudeDegrees>-3.8891982100903987884521484375</LongitudeDegrees>
            </Position>
            <AltitudeMeters>940.5999755859375</AltitudeMeters>
            <DistanceMeters>53670.733456032</DistanceMeters>
          </Trackpoint>
          <Trackpoint>
            <Time>2019-08-01T11:34:50.000Z</Time>
            <Position>
              <LatitudeDegrees>40.7241846621036529541015625</LatitudeDegrees>
              <LongitudeDegrees>-3.8893009722232818603515625</LongitudeDegrees>
            </Position>
            <AltitudeMeters>939.20001220703125</AltitudeMeters>
            <DistanceMeters>53680.426180898</DistanceMeters>
          </Trackpoint>
          <Trackpoint>
            <Time>2019-08-01T11:34:55.000Z</Time>
            <Position>
              <LatitudeDegrees>40.724142752587795257568359375</LatitudeDegrees>
              <LongitudeDegrees>-3.88940013013780117034912109375</LongitudeDegrees>
            </Position>
            <AltitudeMeters>938.20001220703125</AltitudeMeters>
            <DistanceMeters>53690.002686334</DistanceMeters>
          </Trackpoint>
          <Trackpoint>
            <Time>2019-08-01T11:34:58.000Z</Time>
            <Position>
              <LatitudeDegrees>40.7241228036582469940185546875</LatitudeDegrees>
              <LongitudeDegrees>-3.889463245868682861328125</LongitudeDegrees>
            </Position>
            <AltitudeMeters>937.20001220703125</AltitudeMeters>
            <DistanceMeters>53695.771989738</DistanceMeters>
          </Trackpoint>
          <Trackpoint>
            <Time>2019-08-01T11:35:02.000Z</Time>
            <Position>
              <LatitudeDegrees>40.724096484482288360595703125</LatitudeDegrees>
              <LongitudeDegrees>-3.88954647816717624664306640625</LongitudeDegrees>
            </Position>
            <AltitudeMeters>936.20001220703125</AltitudeMeters>
            <DistanceMeters>53703.380063739</DistanceMeters>
          </Trackpoint>
          <Trackpoint>
            <Time>2019-08-01T11:35:08.000Z</Time>
            <Position>
              <LatitudeDegrees>40.72404912672936916351318359375</LatitudeDegrees>
              <LongitudeDegrees>-3.88968109153211116790771484375</LongitudeDegrees>
            </Position>
            <AltitudeMeters>935</AltitudeMeters>
            <DistanceMeters>53715.898368201</DistanceMeters>
          </Trackpoint>
          <Trackpoint>
            <Time>2019-08-01T11:35:23.000Z</Time>
            <Position>
              <LatitudeDegrees>40.72396011091768741607666015625</LatitudeDegrees>
              <LongitudeDegrees>-3.890044279396533966064453125</LongitudeDegrees>
            </Position>
            <AltitudeMeters>933.79998779296875</AltitudeMeters>
            <DistanceMeters>53748.096021782</DistanceMeters>
          </Trackpoint>
          <Trackpoint>
            <Time>2019-08-01T11:35:29.000Z</Time>
            <Position>
              <LatitudeDegrees>40.72393932379782199859619140625</LatitudeDegrees>
              <LongitudeDegrees>-3.8901941478252410888671875</LongitudeDegrees>
            </Position>
            <AltitudeMeters>932.4000244140625</AltitudeMeters>
            <DistanceMeters>53760.947484662</DistanceMeters>
          </Trackpoint>
          <Trackpoint>
            <Time>2019-08-01T11:35:32.000Z</Time>
            <Position>
              <LatitudeDegrees>40.72393312118947505950927734375</LatitudeDegrees>
              <LongitudeDegrees>-3.8902767933905124664306640625</LongitudeDegrees>
            </Position>
            <AltitudeMeters>931.4000244140625</AltitudeMeters>
            <DistanceMeters>53767.952442577</DistanceMeters>
          </Trackpoint>
          <Trackpoint>
            <Time>2019-08-01T11:35:36.000Z</Time>
            <Position>
              <LatitudeDegrees>40.72392490692436695098876953125</LatitudeDegrees>
              <LongitudeDegrees>-3.8903894461691379547119140625</LongitudeDegrees>
            </Position>
            <AltitudeMeters>930.20001220703125</AltitudeMeters>
            <DistanceMeters>53777.498726224</DistanceMeters>
          </Trackpoint>
          <Trackpoint>
            <Time>2019-08-01T11:35:40.000Z</Time>
            <Position>
              <LatitudeDegrees>40.7239239849150180816650390625</LatitudeDegrees>
              <LongitudeDegrees>-3.89049765653908252716064453125</LongitudeDegrees>
            </Position>
            <AltitudeMeters>928.79998779296875</AltitudeMeters>
            <DistanceMeters>53786.62623877</DistanceMeters>
          </Trackpoint>
          <Trackpoint>
            <Time>2019-08-01T11:35:43.000Z</Time>
            <Position>
              <LatitudeDegrees>40.72392457164824008941650390625</LatitudeDegrees>
              <LongitudeDegrees>-3.8905768655240535736083984375</LongitudeDegrees>
            </Position>
            <AltitudeMeters>927.79998779296875</AltitudeMeters>
            <DistanceMeters>53793.3072318</DistanceMeters>
          </Trackpoint>
          <Trackpoint>
            <Time>2019-08-01T11:35:47.000Z</Time>
            <Position>
              <LatitudeDegrees>40.7239298522472381591796875</LatitudeDegrees>
              <LongitudeDegrees>-3.89068591408431529998779296875</LongitudeDegrees>
            </Position>
            <AltitudeMeters>926.5999755859375</AltitudeMeters>
            <DistanceMeters>53802.524823094</DistanceMeters>
          </Trackpoint>
          <Trackpoint>
            <Time>2019-08-01T11:35:51.000Z</Time>
            <Position>
              <LatitudeDegrees>40.72394032962620258331298828125</LatitudeDegrees>
              <LongitudeDegrees>-3.89080510474741458892822265625</LongitudeDegrees>
            </Position>
            <AltitudeMeters>925</AltitudeMeters>
            <DistanceMeters>53812.64639497</DistanceMeters>
          </Trackpoint>
          <Trackpoint>
            <Time>2019-08-01T11:35:54.000Z</Time>
            <Position>
              <LatitudeDegrees>40.7239474542438983917236328125</LatitudeDegrees>
              <LongitudeDegrees>-3.8909004069864749908447265625</LongitudeDegrees>
            </Position>
            <AltitudeMeters>924</AltitudeMeters>
            <DistanceMeters>53820.724224653</DistanceMeters>
          </Trackpoint>
          <Trackpoint>
            <Time>2019-08-01T11:35:58.000Z</Time>
            <Position>
              <LatitudeDegrees>40.72395910508930683135986328125</LatitudeDegrees>
              <LongitudeDegrees>-3.89102471061050891876220703125</LongitudeDegrees>
            </Position>
            <AltitudeMeters>922.79998779296875</AltitudeMeters>
            <DistanceMeters>53831.288870641</DistanceMeters>
          </Trackpoint>
          <Trackpoint>
            <Time>2019-08-01T11:36:03.000Z</Time>
            <Position>
              <LatitudeDegrees>40.72397000156342983245849609375</LatitudeDegrees>
              <LongitudeDegrees>-3.8911753334105014801025390625</LongitudeDegrees>
            </Position>
            <AltitudeMeters>921.4000244140625</AltitudeMeters>
            <DistanceMeters>53844.052200107</DistanceMeters>
          </Trackpoint>
          <Trackpoint>
            <Time>2019-08-01T11:36:08.000Z</Time>
            <Position>
              <LatitudeDegrees>40.7239687442779541015625</LatitudeDegrees>
              <LongitudeDegrees>-3.89130969531834125518798828125</LongitudeDegrees>
            </Position>
            <AltitudeMeters>920.20001220703125</AltitudeMeters>
            <DistanceMeters>53855.38670043</DistanceMeters>
          </Trackpoint>
          <Trackpoint>
            <Time>2019-08-01T11:36:12.000Z</Time>
            <Position>
              <LatitudeDegrees>40.72396145202219486236572265625</LatitudeDegrees>
              <LongitudeDegrees>-3.89141128398478031158447265625</LongitudeDegrees>
            </Position>
            <AltitudeMeters>918.79998779296875</AltitudeMeters>
            <DistanceMeters>53863.993833933</DistanceMeters>
          </Trackpoint>
          <Trackpoint>
            <Time>2019-08-01T11:36:16.000Z</Time>
            <Position>
              <LatitudeDegrees>40.72394887916743755340576171875</LatitudeDegrees>
              <LongitudeDegrees>-3.89150910079479217529296875</LongitudeDegrees>
            </Position>
            <AltitudeMeters>917.5999755859375</AltitudeMeters>
            <DistanceMeters>53872.362661384</DistanceMeters>
          </Trackpoint>
          <Trackpoint>
            <Time>2019-08-01T11:36:21.000Z</Time>
            <Position>
              <LatitudeDegrees>40.7239259965717792510986328125</LatitudeDegrees>
              <LongitudeDegrees>-3.89163424260914325714111328125</LongitudeDegrees>
            </Position>
            <AltitudeMeters>916.20001220703125</AltitudeMeters>
            <DistanceMeters>53883.221516673</DistanceMeters>
          </Trackpoint>
          <Trackpoint>
            <Time>2019-08-01T11:36:25.000Z</Time>
            <Position>
              <LatitudeDegrees>40.72390504181385040283203125</LatitudeDegrees>
              <LongitudeDegrees>-3.8917389325797557830810546875</LongitudeDegrees>
            </Position>
            <AltitudeMeters>915</AltitudeMeters>
            <DistanceMeters>53892.35496324</DistanceMeters>
          </Trackpoint>
          <Trackpoint>
            <Time>2019-08-01T11:36:52.000Z</Time>
            <Position>
              <LatitudeDegrees>40.7237623818218708038330078125</LatitudeDegrees>
              <LongitudeDegrees>-3.89243823476135730743408203125</LongitudeDegrees>
            </Position>
            <AltitudeMeters>913.4000244140625</AltitudeMeters>
            <DistanceMeters>53953.441990587</DistanceMeters>
          </Trackpoint>
          <Trackpoint>
            <Time>2019-08-01T11:36:55.000Z</Time>
            <Position>
              <LatitudeDegrees>40.72374637238681316375732421875</LatitudeDegrees>
              <LongitudeDegrees>-3.89251132495701313018798828125</LongitudeDegrees>
            </Position>
            <AltitudeMeters>913.20001220703125</AltitudeMeters>
            <DistanceMeters>53959.858932895</DistanceMeters>
          </Trackpoint>
          <Trackpoint>
            <Time>2019-08-01T11:37:10.000Z</Time>
            <Position>
              <LatitudeDegrees>40.7236509025096893310546875</LatitudeDegrees>
              <LongitudeDegrees>-3.89287526719272136688232421875</LongitudeDegrees>
            </Position>
            <AltitudeMeters>911.79998779296875</AltitudeMeters>
            <DistanceMeters>53992.345007358</DistanceMeters>
          </Trackpoint>
          <Trackpoint>
            <Time>2019-08-01T11:37:17.000Z</Time>
            <Position>
              <LatitudeDegrees>40.723609663546085357666015625</LatitudeDegrees>
              <LongitudeDegrees>-3.893060423433780670166015625</LongitudeDegrees>
            </Position>
            <AltitudeMeters>910.5999755859375</AltitudeMeters>
            <DistanceMeters>54008.62372424</DistanceMeters>
          </Trackpoint>
          <Trackpoint>
            <Time>2019-08-01T11:37:21.000Z</Time>
            <Position>
              <LatitudeDegrees>40.72359063662588596343994140625</LatitudeDegrees>
              <LongitudeDegrees>-3.89316427521407604217529296875</LongitudeDegrees>
            </Position>
            <AltitudeMeters>910</AltitudeMeters>
            <DistanceMeters>54017.635744409</DistanceMeters>
          </Trackpoint>
          <Trackpoint>
            <Time>2019-08-01T11:37:28.000Z</Time>
            <Position>
              <LatitudeDegrees>40.7235672511160373687744140625</LatitudeDegrees>
              <LongitudeDegrees>-3.8933442346751689910888671875</LongitudeDegrees>
            </Position>
            <AltitudeMeters>909</AltitudeMeters>
            <DistanceMeters>54033.037109545</DistanceMeters>
          </Trackpoint>
          <Trackpoint>
            <Time>2019-08-01T11:37:43.000Z</Time>
            <Position>
              <LatitudeDegrees>40.7235270179808139801025390625</LatitudeDegrees>
              <LongitudeDegrees>-3.893722593784332275390625</LongitudeDegrees>
            </Position>
            <AltitudeMeters>909.5999755859375</AltitudeMeters>
            <DistanceMeters>54065.265038311</DistanceMeters>
          </Trackpoint>
          <Trackpoint>
            <Time>2019-08-01T11:37:47.000Z</Time>
            <Position>
              <LatitudeDegrees>40.72351704351603984832763671875</LatitudeDegrees>
              <LongitudeDegrees>-3.893825523555278778076171875</LongitudeDegrees>
            </Position>
            <AltitudeMeters>910.5999755859375</AltitudeMeters>
            <DistanceMeters>54074.017818929</DistanceMeters>
          </Trackpoint>
          <Trackpoint>
            <Time>2019-08-01T11:38:12.000Z</Time>
            <Position>
              <LatitudeDegrees>40.72345887310802936553955078125</LatitudeDegrees>
              <LongitudeDegrees>-3.89453404583036899566650390625</LongitudeDegrees>
            </Position>
            <AltitudeMeters>909</AltitudeMeters>
            <DistanceMeters>54134.132863076</DistanceMeters>
          </Trackpoint>
          <Trackpoint>
            <Time>2019-08-01T11:38:29.000Z</Time>
            <Position>
              <LatitudeDegrees>40.72340212762355804443359375</LatitudeDegrees>
              <LongitudeDegrees>-3.89528430998325347900390625</LongitudeDegrees>
            </Position>
            <AltitudeMeters>909</AltitudeMeters>
            <DistanceMeters>54197.733640299</DistanceMeters>
          </Trackpoint>
          <Trackpoint>
            <Time>2019-08-01T11:38:31.000Z</Time>
            <Position>
              <LatitudeDegrees>40.72339299134910106658935546875</LatitudeDegrees>
              <LongitudeDegrees>-3.89539704658091068267822265625</LongitudeDegrees>
            </Position>
            <AltitudeMeters>909</AltitudeMeters>
            <DistanceMeters>54207.297407564</DistanceMeters>
          </Trackpoint>
          <Trackpoint>
            <Time>2019-08-01T11:38:38.000Z</Time>
            <Position>
              <LatitudeDegrees>40.7233764789998531341552734375</LatitudeDegrees>
              <LongitudeDegrees>-3.89586911536753177642822265625</LongitudeDegrees>
            </Position>
            <AltitudeMeters>910</AltitudeMeters>
            <DistanceMeters>54247.159953291</DistanceMeters>
          </Trackpoint>
          <Trackpoint>
            <Time>2019-08-01T11:38:41.000Z</Time>
            <Position>
              <LatitudeDegrees>40.723360888659954071044921875</LatitudeDegrees>
              <LongitudeDegrees>-3.89609995298087596893310546875</LongitudeDegrees>
            </Position>
            <AltitudeMeters>911.20001220703125</AltitudeMeters>
            <DistanceMeters>54266.70891401</DistanceMeters>
          </Trackpoint>
          <Trackpoint>
            <Time>2019-08-01T11:38:44.000Z</Time>
            <Position>
              <LatitudeDegrees>40.72334806434810161590576171875</LatitudeDegrees>
              <LongitudeDegrees>-3.8963617198169231414794921875</LongitudeDegrees>
            </Position>
            <AltitudeMeters>912.4000244140625</AltitudeMeters>
            <DistanceMeters>54288.835655403</DistanceMeters>
          </Trackpoint>
          <Trackpoint>
            <Time>2019-08-01T11:38:47.000Z</Time>
            <Position>
              <LatitudeDegrees>40.72333884425461292266845703125</LatitudeDegrees>
              <LongitudeDegrees>-3.8966475427150726318359375</LongitudeDegrees>
            </Position>
            <AltitudeMeters>913.5999755859375</AltitudeMeters>
            <DistanceMeters>54312.967202591</DistanceMeters>
          </Trackpoint>
          <Trackpoint>
            <Time>2019-08-01T11:38:50.000Z</Time>
            <Position>
              <LatitudeDegrees>40.72332828305661678314208984375</LatitudeDegrees>
              <LongitudeDegrees>-3.89696178026497364044189453125</LongitudeDegrees>
            </Position>
            <AltitudeMeters>914.79998779296875</AltitudeMeters>
            <DistanceMeters>54339.499913715</DistanceMeters>
          </Trackpoint>
          <Trackpoint>
            <Time>2019-08-01T11:38:52.000Z</Time>
            <Position>
              <LatitudeDegrees>40.723319314420223236083984375</LatitudeDegrees>
              <LongitudeDegrees>-3.89717853628098964691162109375</LongitudeDegrees>
            </Position>
            <AltitudeMeters>916.4000244140625</AltitudeMeters>
            <DistanceMeters>54357.810996928</DistanceMeters>
          </Trackpoint>
          <Trackpoint>
            <Time>2019-08-01T11:38:54.000Z</Time>
            <Position>
              <LatitudeDegrees>40.72330766357481479644775390625</LatitudeDegrees>
              <LongitudeDegrees>-3.8973983936011791229248046875</LongitudeDegrees>
            </Position>
            <AltitudeMeters>917.79998779296875</AltitudeMeters>
            <DistanceMeters>54376.401778133</DistanceMeters>
          </Trackpoint>
          <Trackpoint>
            <Time>2019-08-01T11:38:56.000Z</Time>
            <Position>
              <LatitudeDegrees>40.72330162860453128814697265625</LatitudeDegrees>
              <LongitudeDegrees>-3.89762378297746181488037109375</LongitudeDegrees>
            </Position>
            <AltitudeMeters>918.79998779296875</AltitudeMeters>
            <DistanceMeters>54395.425642192</DistanceMeters>
          </Trackpoint>
          <Trackpoint>
            <Time>2019-08-01T11:38:57.000Z</Time>
            <Position>
              <LatitudeDegrees>40.7233074121177196502685546875</LatitudeDegrees>
              <LongitudeDegrees>-3.897734843194484710693359375</LongitudeDegrees>
            </Position>
            <AltitudeMeters>919.20001220703125</AltitudeMeters>
            <DistanceMeters>54404.815512606</DistanceMeters>
          </Trackpoint>
          <Trackpoint>
            <Time>2019-08-01T11:38:58.000Z</Time>
            <Position>
              <LatitudeDegrees>40.723319984972476959228515625</LatitudeDegrees>
              <LongitudeDegrees>-3.89784305356442928314208984375</LongitudeDegrees>
            </Position>
            <AltitudeMeters>920</AltitudeMeters>
            <DistanceMeters>54414.050231981</DistanceMeters>
          </Trackpoint>
          <Trackpoint>
            <Time>2019-08-01T11:39:00.000Z</Time>
            <Position>
              <LatitudeDegrees>40.72335208766162395477294921875</LatitudeDegrees>
              <LongitudeDegrees>-3.8980557024478912353515625</LongitudeDegrees>
            </Position>
            <AltitudeMeters>921.4000244140625</AltitudeMeters>
            <DistanceMeters>54432.33985067</DistanceMeters>
          </Trackpoint>
          <Trackpoint>
            <Time>2019-08-01T11:39:02.000Z</Time>
            <Position>
              <LatitudeDegrees>40.72338796220719814300537109375</LatitudeDegrees>
              <LongitudeDegrees>-3.8982691057026386260986328125</LongitudeDegrees>
            </Position>
            <AltitudeMeters>922.5999755859375</AltitudeMeters>
            <DistanceMeters>54450.778461738</DistanceMeters>
          </Trackpoint>
          <Trackpoint>
            <Time>2019-08-01T11:39:04.000Z</Time>
            <Position>
              <LatitudeDegrees>40.7234147004783153533935546875</LatitudeDegrees>
              <LongitudeDegrees>-3.898478485643863677978515625</LongitudeDegrees>
            </Position>
            <AltitudeMeters>923.79998779296875</AltitudeMeters>
            <DistanceMeters>54468.688917779</DistanceMeters>
          </Trackpoint>
          <Trackpoint>
            <Time>2019-08-01T11:39:06.000Z</Time>
            <Position>
              <LatitudeDegrees>40.72339273989200592041015625</LatitudeDegrees>
              <LongitudeDegrees>-3.89866833575069904327392578125</LongitudeDegrees>
            </Position>
            <AltitudeMeters>925</AltitudeMeters>
            <DistanceMeters>54484.888952091</DistanceMeters>
          </Trackpoint>
          <Trackpoint>
            <Time>2019-08-01T11:39:08.000Z</Time>
            <Position>
              <LatitudeDegrees>40.72331436909735202789306640625</LatitudeDegrees>
              <LongitudeDegrees>-3.89880395494401454925537109375</LongitudeDegrees>
            </Position>
            <AltitudeMeters>926.5999755859375</AltitudeMeters>
            <DistanceMeters>54499.274753839</DistanceMeters>
          </Trackpoint>
          <Trackpoint>
            <Time>2019-08-01T11:39:09.000Z</Time>
            <Position>
              <LatitudeDegrees>40.72327983565628528594970703125</LatitudeDegrees>
              <LongitudeDegrees>-3.89886463992297649383544921875</LongitudeDegrees>
            </Position>
            <AltitudeMeters>927.5999755859375</AltitudeMeters>
            <DistanceMeters>54505.676197965</DistanceMeters>
          </Trackpoint>
          <Trackpoint>
            <Time>2019-08-01T11:39:11.000Z</Time>
            <Position>
              <LatitudeDegrees>40.7232239283621311187744140625</LatitudeDegrees>
              <LongitudeDegrees>-3.898981399834156036376953125</LongitudeDegrees>
            </Position>
            <AltitudeMeters>929.20001220703125</AltitudeMeters>
            <DistanceMeters>54517.326178607</DistanceMeters>
          </Trackpoint>
          <Trackpoint>
            <Time>2019-08-01T11:39:13.000Z</Time>
            <Position>
              <LatitudeDegrees>40.723188221454620361328125</LatitudeDegrees>
              <LongitudeDegrees>-3.89907971955835819244384765625</LongitudeDegrees>
            </Position>
            <AltitudeMeters>930.5999755859375</AltitudeMeters>
            <DistanceMeters>54526.522683159</DistanceMeters>
          </Trackpoint>
          <Trackpoint>
            <Time>2019-08-01T11:39:15.000Z</Time>
            <Position>
              <LatitudeDegrees>40.72316399775445461273193359375</LatitudeDegrees>
              <LongitudeDegrees>-3.89916689135134220123291015625</LongitudeDegrees>
            </Position>
            <AltitudeMeters>932.20001220703125</AltitudeMeters>
            <DistanceMeters>54534.355328904</DistanceMeters>
          </Trackpoint>
          <Trackpoint>
            <Time>2019-08-01T11:39:17.000Z</Time>
            <Position>
              <LatitudeDegrees>40.72314119897782802581787109375</LatitudeDegrees>
              <LongitudeDegrees>-3.8992466032505035400390625</LongitudeDegrees>
            </Position>
            <AltitudeMeters>933.5999755859375</AltitudeMeters>
            <DistanceMeters>54541.542264082</DistanceMeters>
          </Trackpoint>
          <Trackpoint>
            <Time>2019-08-01T11:39:20.000Z</Time>
            <Position>
              <LatitudeDegrees>40.723114125430583953857421875</LatitudeDegrees>
              <LongitudeDegrees>-3.899355567991733551025390625</LongitudeDegrees>
            </Position>
            <AltitudeMeters>935</AltitudeMeters>
            <DistanceMeters>54551.214471274</DistanceMeters>
          </Trackpoint>
          <Trackpoint>
            <Time>2019-08-01T11:39:23.000Z</Time>
            <Position>
              <LatitudeDegrees>40.72308738715946674346923828125</LatitudeDegrees>
              <LongitudeDegrees>-3.899466879665851593017578125</LongitudeDegrees>
            </Position>
            <AltitudeMeters>936.20001220703125</AltitudeMeters>
            <DistanceMeters>54561.064300781</DistanceMeters>
          </Trackpoint>
          <Trackpoint>
            <Time>2019-08-01T11:39:26.000Z</Time>
            <Position>
              <LatitudeDegrees>40.7230609841644763946533203125</LatitudeDegrees>
              <LongitudeDegrees>-3.89958523213863372802734375</LongitudeDegrees>
            </Position>
            <AltitudeMeters>937.5999755859375</AltitudeMeters>
            <DistanceMeters>54571.471353047</DistanceMeters>
          </Trackpoint>
          <Trackpoint>
            <Time>2019-08-01T11:39:29.000Z</Time>
            <Position>
              <LatitudeDegrees>40.7230344973504543304443359375</LatitudeDegrees>
              <LongitudeDegrees>-3.89972194097936153411865234375</LongitudeDegrees>
            </Position>
            <AltitudeMeters>938.79998779296875</AltitudeMeters>
            <DistanceMeters>54583.374373647</DistanceMeters>
          </Trackpoint>
          <Trackpoint>
            <Time>2019-08-01T11:39:32.000Z</Time>
            <Position>
              <LatitudeDegrees>40.72301412932574748992919921875</LatitudeDegrees>
              <LongitudeDegrees>-3.89986845664680004119873046875</LongitudeDegrees>
            </Position>
            <AltitudeMeters>940</AltitudeMeters>
            <DistanceMeters>54595.939478364</DistanceMeters>
          </Trackpoint>
          <Trackpoint>
            <Time>2019-08-01T11:39:35.000Z</Time>
            <Position>
              <LatitudeDegrees>40.72300574742257595062255859375</LatitudeDegrees>
              <LongitudeDegrees>-3.900015391409397125244140625</LongitudeDegrees>
            </Position>
            <AltitudeMeters>941.20001220703125</AltitudeMeters>
            <DistanceMeters>54608.36874012</DistanceMeters>
          </Trackpoint>
          <Trackpoint>
            <Time>2019-08-01T11:39:37.000Z</Time>
            <Position>
              <LatitudeDegrees>40.72299778461456298828125</LatitudeDegrees>
              <LongitudeDegrees>-3.90011488460004329681396484375</LongitudeDegrees>
            </Position>
            <AltitudeMeters>942.4000244140625</AltitudeMeters>
            <DistanceMeters>54616.807947009</DistanceMeters>
          </Trackpoint>
          <Trackpoint>
            <Time>2019-08-01T11:39:40.000Z</Time>
            <Position>
              <LatitudeDegrees>40.72298772633075714111328125</LatitudeDegrees>
              <LongitudeDegrees>-3.9002656750380992889404296875</LongitudeDegrees>
            </Position>
            <AltitudeMeters>943.5999755859375</AltitudeMeters>
            <DistanceMeters>54629.576935233</DistanceMeters>
          </Trackpoint>
          <Trackpoint>
            <Time>2019-08-01T11:39:43.000Z</Time>
            <Position>
              <LatitudeDegrees>40.7229764945805072784423828125</LatitudeDegrees>
              <LongitudeDegrees>-3.90040942467749118804931640625</LongitudeDegrees>
            </Position>
            <AltitudeMeters>945</AltitudeMeters>
            <DistanceMeters>54641.767051638</DistanceMeters>
          </Trackpoint>
          <Trackpoint>
            <Time>2019-08-01T11:39:46.000Z</Time>
            <Position>
              <LatitudeDegrees>40.72296735830605030059814453125</LatitudeDegrees>
              <LongitudeDegrees>-3.90055174939334392547607421875</LongitudeDegrees>
            </Position>
            <AltitudeMeters>946</AltitudeMeters>
            <DistanceMeters>54653.815599638</DistanceMeters>
          </Trackpoint>
          <Trackpoint>
            <Time>2019-08-01T11:39:49.000Z</Time>
            <Position>
              <LatitudeDegrees>40.72296090424060821533203125</LatitudeDegrees>
              <LongitudeDegrees>-3.90069105662405490875244140625</LongitudeDegrees>
            </Position>
            <AltitudeMeters>947.20001220703125</AltitudeMeters>
            <DistanceMeters>54665.588178508</DistanceMeters>
          </Trackpoint>
          <Trackpoint>
            <Time>2019-08-01T11:39:52.000Z</Time>
            <Position>
              <LatitudeDegrees>40.72295713238418102264404296875</LatitudeDegrees>
              <LongitudeDegrees>-3.90083053149282932281494140625</LongitudeDegrees>
            </Position>
            <AltitudeMeters>948.20001220703125</AltitudeMeters>
            <DistanceMeters>54677.360757379</DistanceMeters>
          </Trackpoint>
          <Trackpoint>
            <Time>2019-08-01T11:39:55.000Z</Time>
            <Position>
              <LatitudeDegrees>40.722947828471660614013671875</LatitudeDegrees>
              <LongitudeDegrees>-3.90096346847712993621826171875</LongitudeDegrees>
            </Position>
            <AltitudeMeters>949.5999755859375</AltitudeMeters>
            <DistanceMeters>54688.622124684</DistanceMeters>
          </Trackpoint>
          <Trackpoint>
            <Time>2019-08-01T11:39:58.000Z</Time>
            <Position>
              <LatitudeDegrees>40.7229379378259181976318359375</LatitudeDegrees>
              <LongitudeDegrees>-3.90109389089047908782958984375</LongitudeDegrees>
            </Position>
            <AltitudeMeters>950.5999755859375</AltitudeMeters>
            <DistanceMeters>54699.678759565</DistanceMeters>
          </Trackpoint>
          <Trackpoint>
            <Time>2019-08-01T11:40:01.000Z</Time>
            <Position>
              <LatitudeDegrees>40.72292561642825603485107421875</LatitudeDegrees>
              <LongitudeDegrees>-3.901223726570606231689453125</LongitudeDegrees>
            </Position>
            <AltitudeMeters>951.79998779296875</AltitudeMeters>
            <DistanceMeters>54710.716594107</DistanceMeters>
          </Trackpoint>
          <Trackpoint>
            <Time>2019-08-01T11:40:04.000Z</Time>
            <Position>
              <LatitudeDegrees>40.72291195392608642578125</LatitudeDegrees>
              <LongitudeDegrees>-3.90134803019464015960693359375</LongitudeDegrees>
            </Position>
            <AltitudeMeters>953</AltitudeMeters>
            <DistanceMeters>54721.311540085</DistanceMeters>
          </Trackpoint>
          <Trackpoint>
            <Time>2019-08-01T11:40:07.000Z</Time>
            <Position>
              <LatitudeDegrees>40.722902901470661163330078125</LatitudeDegrees>
              <LongitudeDegrees>-3.90146655030548572540283203125</LongitudeDegrees>
            </Position>
            <AltitudeMeters>954.4000244140625</AltitudeMeters>
            <DistanceMeters>54731.359688408</DistanceMeters>
          </Trackpoint>
          <Trackpoint>
            <Time>2019-08-01T11:40:12.000Z</Time>
            <Position>
              <LatitudeDegrees>40.7228866405785083770751953125</LatitudeDegrees>
              <LongitudeDegrees>-3.90165966935455799102783203125</LongitudeDegrees>
            </Position>
            <AltitudeMeters>955.5999755859375</AltitudeMeters>
            <DistanceMeters>54747.749799577</DistanceMeters>
          </Trackpoint>
          <Trackpoint>
            <Time>2019-08-01T11:40:16.000Z</Time>
            <Position>
              <LatitudeDegrees>40.72288043797016143798828125</LatitudeDegrees>
              <LongitudeDegrees>-3.90181104652583599090576171875</LongitudeDegrees>
            </Position>
            <AltitudeMeters>956.5999755859375</AltitudeMeters>
            <DistanceMeters>54760.537867625</DistanceMeters>
          </Trackpoint>
          <Trackpoint>
            <Time>2019-08-01T11:40:21.000Z</Time>
            <Position>
              <LatitudeDegrees>40.72286660782992839813232421875</LatitudeDegrees>
              <LongitudeDegrees>-3.901995532214641571044921875</LongitudeDegrees>
            </Position>
            <AltitudeMeters>957.5999755859375</AltitudeMeters>
            <DistanceMeters>54776.17546559</DistanceMeters>
          </Trackpoint>
          <Trackpoint>
            <Time>2019-08-01T11:40:25.000Z</Time>
            <Position>
              <LatitudeDegrees>40.72286074049770832061767578125</LatitudeDegrees>
              <LongitudeDegrees>-3.90214062295854091644287109375</LongitudeDegrees>
            </Position>
            <AltitudeMeters>958.5999755859375</AltitudeMeters>
            <DistanceMeters>54788.432070002</DistanceMeters>
          </Trackpoint>
          <Trackpoint>
            <Time>2019-08-01T11:40:29.000Z</Time>
            <Position>
              <LatitudeDegrees>40.722855627536773681640625</LatitudeDegrees>
              <LongitudeDegrees>-3.90229082666337490081787109375</LongitudeDegrees>
            </Position>
            <AltitudeMeters>960</AltitudeMeters>
            <DistanceMeters>54801.115199812</DistanceMeters>
          </Trackpoint>
          <Trackpoint>
            <Time>2019-08-01T11:40:32.000Z</Time>
            <Position>
              <LatitudeDegrees>40.72285361588001251220703125</LatitudeDegrees>
              <LongitudeDegrees>-3.9023981988430023193359375</LongitudeDegrees>
            </Position>
            <AltitudeMeters>961</AltitudeMeters>
            <DistanceMeters>54810.175188492</DistanceMeters>
          </Trackpoint>
          <Trackpoint>
            <Time>2019-08-01T11:40:36.000Z</Time>
            <Position>
              <LatitudeDegrees>40.72285939939320087432861328125</LatitudeDegrees>
              <LongitudeDegrees>-3.902542032301425933837890625</LongitudeDegrees>
            </Position>
            <AltitudeMeters>962.20001220703125</AltitudeMeters>
            <DistanceMeters>54822.324865838</DistanceMeters>
          </Trackpoint>
          <Trackpoint>
            <Time>2019-08-01T11:40:47.000Z</Time>
            <Position>
              <LatitudeDegrees>40.7228651829063892364501953125</LatitudeDegrees>
              <LongitudeDegrees>-3.90294092707335948944091796875</LongitudeDegrees>
            </Position>
            <AltitudeMeters>963.20001220703125</AltitudeMeters>
            <DistanceMeters>54855.978949365</DistanceMeters>
          </Trackpoint>
          <Trackpoint>
            <Time>2019-08-01T11:40:54.000Z</Time>
            <Position>
              <LatitudeDegrees>40.72286543436348438262939453125</LatitudeDegrees>
              <LongitudeDegrees>-3.903196156024932861328125</LongitudeDegrees>
            </Position>
            <AltitudeMeters>964.20001220703125</AltitudeMeters>
            <DistanceMeters>54877.508110839</DistanceMeters>
          </Trackpoint>
          <Trackpoint>
            <Time>2019-08-01T11:41:01.000Z</Time>
            <Position>
              <LatitudeDegrees>40.72288219816982746124267578125</LatitudeDegrees>
              <LongitudeDegrees>-3.903445936739444732666015625</LongitudeDegrees>
            </Position>
            <AltitudeMeters>965.20001220703125</AltitudeMeters>
            <DistanceMeters>54898.660468335</DistanceMeters>
          </Trackpoint>
          <Trackpoint>
            <Time>2019-08-01T11:41:21.000Z</Time>
            <Position>
              <LatitudeDegrees>40.72291170246899127960205078125</LatitudeDegrees>
              <LongitudeDegrees>-3.90416778624057769775390625</LongitudeDegrees>
            </Position>
            <AltitudeMeters>965</AltitudeMeters>
            <DistanceMeters>54959.638971005</DistanceMeters>
          </Trackpoint>
          <Trackpoint>
            <Time>2019-08-01T11:41:25.000Z</Time>
            <Position>
              <LatitudeDegrees>40.7229101099073886871337890625</LatitudeDegrees>
              <LongitudeDegrees>-3.90431086532771587371826171875</LongitudeDegrees>
            </Position>
            <AltitudeMeters>964.20001220703125</AltitudeMeters>
            <DistanceMeters>54971.70923419</DistanceMeters>
          </Trackpoint>
          <Trackpoint>
            <Time>2019-08-01T11:41:34.000Z</Time>
            <Position>
              <LatitudeDegrees>40.72290726006031036376953125</LatitudeDegrees>
              <LongitudeDegrees>-3.9046225883066654205322265625</LongitudeDegrees>
            </Position>
            <AltitudeMeters>963</AltitudeMeters>
            <DistanceMeters>54998.005892229</DistanceMeters>
          </Trackpoint>
          <Trackpoint>
            <Time>2019-08-01T11:41:55.000Z</Time>
            <Position>
              <LatitudeDegrees>40.72294414043426513671875</LatitudeDegrees>
              <LongitudeDegrees>-3.9053608663380146026611328125</LongitudeDegrees>
            </Position>
            <AltitudeMeters>963.20001220703125</AltitudeMeters>
            <DistanceMeters>55060.416816546</DistanceMeters>
          </Trackpoint>
          <Trackpoint>
            <Time>2019-08-01T11:42:16.000Z</Time>
            <Position>
              <LatitudeDegrees>40.72304145433008670806884765625</LatitudeDegrees>
              <LongitudeDegrees>-3.90608816407620906829833984375</LongitudeDegrees>
            </Position>
            <AltitudeMeters>963</AltitudeMeters>
            <DistanceMeters>55122.71521729</DistanceMeters>
          </Trackpoint>
          <Trackpoint>
            <Time>2019-08-01T11:42:33.000Z</Time>
            <Position>
              <LatitudeDegrees>40.7229664362967014312744140625</LatitudeDegrees>
              <LongitudeDegrees>-3.90680884011089801788330078125</LongitudeDegrees>
            </Position>
            <AltitudeMeters>963.5999755859375</AltitudeMeters>
            <DistanceMeters>55184.076947585</DistanceMeters>
          </Trackpoint>
          <Trackpoint>
            <Time>2019-08-01T11:42:40.000Z</Time>
            <Position>
              <LatitudeDegrees>40.72295746766030788421630859375</LatitudeDegrees>
              <LongitudeDegrees>-3.90715065412223339080810546875</LongitudeDegrees>
            </Position>
            <AltitudeMeters>963.5999755859375</AltitudeMeters>
            <DistanceMeters>55212.927064328</DistanceMeters>
          </Trackpoint>
          <Trackpoint>
            <Time>2019-08-01T11:42:49.000Z</Time>
            <Position>
              <LatitudeDegrees>40.72312183678150177001953125</LatitudeDegrees>
              <LongitudeDegrees>-3.90789345838129520416259765625</LongitudeDegrees>
            </Position>
            <AltitudeMeters>963.5999755859375</AltitudeMeters>
            <DistanceMeters>55278.200803064</DistanceMeters>
          </Trackpoint>
          <Trackpoint>
            <Time>2019-08-01T11:42:54.000Z</Time>
            <Position>
              <LatitudeDegrees>40.7232638262212276458740234375</LatitudeDegrees>
              <LongitudeDegrees>-3.9083746634423732757568359375</LongitudeDegrees>
            </Position>
            <AltitudeMeters>964.20001220703125</AltitudeMeters>
            <DistanceMeters>55321.759747063</DistanceMeters>
          </Trackpoint>
          <Trackpoint>
            <Time>2019-08-01T11:42:57.000Z</Time>
            <Position>
              <LatitudeDegrees>40.72338108904659748077392578125</LatitudeDegrees>
              <LongitudeDegrees>-3.90866316854953765869140625</LongitudeDegrees>
            </Position>
            <AltitudeMeters>965</AltitudeMeters>
            <DistanceMeters>55349.374778399</DistanceMeters>
          </Trackpoint>
          <Trackpoint>
            <Time>2019-08-01T11:42:58.000Z</Time>
            <Position>
              <LatitudeDegrees>40.72343154810369014739990234375</LatitudeDegrees>
              <LongitudeDegrees>-3.90875310637056827545166015625</LongitudeDegrees>
            </Position>
            <AltitudeMeters>965.4000244140625</AltitudeMeters>
            <DistanceMeters>55358.813567209</DistanceMeters>
          </Trackpoint>
          <Trackpoint>
            <Time>2019-08-01T11:43:02.000Z</Time>
            <Position>
              <LatitudeDegrees>40.72366607375442981719970703125</LatitudeDegrees>
              <LongitudeDegrees>-3.9090795814990997314453125</LongitudeDegrees>
            </Position>
            <AltitudeMeters>966.5999755859375</AltitudeMeters>
            <DistanceMeters>55396.757794942</DistanceMeters>
          </Trackpoint>
          <Trackpoint>
            <Time>2019-08-01T11:43:05.000Z</Time>
            <Position>
              <LatitudeDegrees>40.72385332547128200531005859375</LatitudeDegrees>
              <LongitudeDegrees>-3.90931050293147563934326171875</LongitudeDegrees>
            </Position>
            <AltitudeMeters>967.5999755859375</AltitudeMeters>
            <DistanceMeters>55425.284649992</DistanceMeters>
          </Trackpoint>
          <Trackpoint>
            <Time>2019-08-01T11:43:08.000Z</Time>
            <Position>
              <LatitudeDegrees>40.72403973899781703948974609375</LatitudeDegrees>
              <LongitudeDegrees>-3.90954469330608844757080078125</LongitudeDegrees>
            </Position>
            <AltitudeMeters>968.79998779296875</AltitudeMeters>
            <DistanceMeters>55453.932801028</DistanceMeters>
          </Trackpoint>
          <Trackpoint>
            <Time>2019-08-01T11:43:10.000Z</Time>
            <Position>
              <LatitudeDegrees>40.72416211478412151336669921875</LatitudeDegrees>
              <LongitudeDegrees>-3.90970378182828426361083984375</LongitudeDegrees>
            </Position>
            <AltitudeMeters>970</AltitudeMeters>
            <DistanceMeters>55473.053252773</DistanceMeters>
          </Trackpoint>
          <Trackpoint>
            <Time>2019-08-01T11:43:13.000Z</Time>
            <Position>
              <LatitudeDegrees>40.72433285415172576904296875</LatitudeDegrees>
              <LongitudeDegrees>-3.90994794666767120361328125</LongitudeDegrees>
            </Position>
            <AltitudeMeters>971.20001220703125</AltitudeMeters>
            <DistanceMeters>55501.076790345</DistanceMeters>
          </Trackpoint>
          <Trackpoint>
            <Time>2019-08-01T11:43:16.000Z</Time>
            <Position>
              <LatitudeDegrees>40.7245110534131526947021484375</LatitudeDegrees>
              <LongitudeDegrees>-3.9101583324372768402099609375</LongitudeDegrees>
            </Position>
            <AltitudeMeters>972</AltitudeMeters>
            <DistanceMeters>55527.691057126</DistanceMeters>
          </Trackpoint>
          <Trackpoint>
            <Time>2019-08-01T11:43:17.000Z</Time>
            <Position>
              <LatitudeDegrees>40.72457701899111270904541015625</LatitudeDegrees>
              <LongitudeDegrees>-3.9102129824459552764892578125</LongitudeDegrees>
            </Position>
            <AltitudeMeters>972.20001220703125</AltitudeMeters>
            <DistanceMeters>55536.36091043</DistanceMeters>
          </Trackpoint>
          <Trackpoint>
            <Time>2019-08-01T11:43:20.000Z</Time>
            <Position>
              <LatitudeDegrees>40.7247799448668956756591796875</LatitudeDegrees>
              <LongitudeDegrees>-3.91034365631639957427978515625</LongitudeDegrees>
            </Position>
            <AltitudeMeters>973.5999755859375</AltitudeMeters>
            <DistanceMeters>55561.493275761</DistanceMeters>
          </Trackpoint>
          <Trackpoint>
            <Time>2019-08-01T11:43:21.000Z</Time>
            <Position>
              <LatitudeDegrees>40.7248436473309993743896484375</LatitudeDegrees>
              <LongitudeDegrees>-3.91038673929870128631591796875</LongitudeDegrees>
            </Position>
            <AltitudeMeters>974.20001220703125</AltitudeMeters>
            <DistanceMeters>55569.46079968</DistanceMeters>
          </Trackpoint>
          <Trackpoint>
            <Time>2019-08-01T11:43:23.000Z</Time>
            <Position>
              <LatitudeDegrees>40.72495420463383197784423828125</LatitudeDegrees>
              <LongitudeDegrees>-3.91049469821155071258544921875</LongitudeDegrees>
            </Position>
            <AltitudeMeters>974.79998779296875</AltitudeMeters>
            <DistanceMeters>55584.769246494</DistanceMeters>
          </Trackpoint>
          <Trackpoint>
            <Time>2019-08-01T11:43:26.000Z</Time>
            <Position>
              <LatitudeDegrees>40.7250823639333248138427734375</LatitudeDegrees>
              <LongitudeDegrees>-3.9106957800686359405517578125</LongitudeDegrees>
            </Position>
            <AltitudeMeters>976</AltitudeMeters>
            <DistanceMeters>55606.931057291</DistanceMeters>
          </Trackpoint>
          <Trackpoint>
            <Time>2019-08-01T11:43:34.000Z</Time>
            <Position>
              <LatitudeDegrees>40.7254119403660297393798828125</LatitudeDegrees>
              <LongitudeDegrees>-3.91135367564857006072998046875</LongitudeDegrees>
            </Position>
            <AltitudeMeters>977</AltitudeMeters>
            <DistanceMeters>55673.452608091</DistanceMeters>
          </Trackpoint>
          <Trackpoint>
            <Time>2019-08-01T11:43:36.000Z</Time>
            <Position>
              <LatitudeDegrees>40.72551026009023189544677734375</LatitudeDegrees>
              <LongitudeDegrees>-3.9115292765200138092041015625</LongitudeDegrees>
            </Position>
            <AltitudeMeters>977.20001220703125</AltitudeMeters>
            <DistanceMeters>55691.868677462</DistanceMeters>
          </Trackpoint>
          <Trackpoint>
            <Time>2019-08-01T11:43:40.000Z</Time>
            <Position>
              <LatitudeDegrees>40.72572148405015468597412109375</LatitudeDegrees>
              <LongitudeDegrees>-3.9119118265807628631591796875</LongitudeDegrees>
            </Position>
            <AltitudeMeters>978.79998779296875</AltitudeMeters>
            <DistanceMeters>55731.792565715</DistanceMeters>
          </Trackpoint>
          <Trackpoint>
            <Time>2019-08-01T11:43:45.000Z</Time>
            <Position>
              <LatitudeDegrees>40.72599909268319606781005859375</LatitudeDegrees>
              <LongitudeDegrees>-3.91237995587289333343505859375</LongitudeDegrees>
            </Position>
            <AltitudeMeters>979.79998779296875</AltitudeMeters>
            <DistanceMeters>55781.931113273</DistanceMeters>
          </Trackpoint>
          <Trackpoint>
            <Time>2019-08-01T11:43:50.000Z</Time>
            <Position>
              <LatitudeDegrees>40.72620662860572338104248046875</LatitudeDegrees>
              <LongitudeDegrees>-3.91284649260342121124267578125</LongitudeDegrees>
            </Position>
            <AltitudeMeters>980.79998779296875</AltitudeMeters>
            <DistanceMeters>55827.561354409</DistanceMeters>
          </Trackpoint>
          <Trackpoint>
            <Time>2019-08-01T11:43:54.000Z</Time>
            <Position>
              <LatitudeDegrees>40.72637108154594898223876953125</LatitudeDegrees>
              <LongitudeDegrees>-3.91315075568854808807373046875</LongitudeDegrees>
            </Position>
            <AltitudeMeters>982</AltitudeMeters>
            <DistanceMeters>55859.084023109</DistanceMeters>
          </Trackpoint>
          <Trackpoint>
            <Time>2019-08-01T11:43:59.000Z</Time>
            <Position>
              <LatitudeDegrees>40.72657383978366851806640625</LatitudeDegrees>
              <LongitudeDegrees>-3.9134554378688335418701171875</LongitudeDegrees>
            </Position>
            <AltitudeMeters>983.4000244140625</AltitudeMeters>
            <DistanceMeters>55893.285456447</DistanceMeters>
          </Trackpoint>
          <Trackpoint>
            <Time>2019-08-01T11:44:02.000Z</Time>
            <Position>
              <LatitudeDegrees>40.72668473236262798309326171875</LatitudeDegrees>
              <LongitudeDegrees>-3.91360052861273288726806640625</LongitudeDegrees>
            </Position>
            <AltitudeMeters>983.79998779296875</AltitudeMeters>
            <DistanceMeters>55910.666775083</DistanceMeters>
          </Trackpoint>
          <Trackpoint>
            <Time>2019-08-01T11:44:07.000Z</Time>
            <Position>
              <LatitudeDegrees>40.72683527134358882904052734375</LatitudeDegrees>
              <LongitudeDegrees>-3.91378006897866725921630859375</LongitudeDegrees>
            </Position>
            <AltitudeMeters>984.5999755859375</AltitudeMeters>
            <DistanceMeters>55933.251568596</DistanceMeters>
          </Trackpoint>
          <Trackpoint>
            <Time>2019-08-01T11:44:17.000Z</Time>
            <Position>
              <LatitudeDegrees>40.7270573079586029052734375</LatitudeDegrees>
              <LongitudeDegrees>-3.91411970369517803192138671875</LongitudeDegrees>
            </Position>
            <AltitudeMeters>984.79998779296875</AltitudeMeters>
            <DistanceMeters>55971.085449807</DistanceMeters>
          </Trackpoint>
          <Trackpoint>
            <Time>2019-08-01T11:44:25.000Z</Time>
            <Position>
              <LatitudeDegrees>40.72721295990049839019775390625</LatitudeDegrees>
              <LongitudeDegrees>-3.91438356600701808929443359375</LongitudeDegrees>
            </Position>
            <AltitudeMeters>983.5999755859375</AltitudeMeters>
            <DistanceMeters>55999.289340212</DistanceMeters>
          </Trackpoint>
          <Trackpoint>
            <Time>2019-08-01T11:44:29.000Z</Time>
            <Position>
              <LatitudeDegrees>40.72729527018964290618896484375</LatitudeDegrees>
              <LongitudeDegrees>-3.91450393013656139373779296875</LongitudeDegrees>
            </Position>
            <AltitudeMeters>982.4000244140625</AltitudeMeters>
            <DistanceMeters>56012.963945252</DistanceMeters>
          </Trackpoint>
          <Trackpoint>
            <Time>2019-08-01T11:44:33.000Z</Time>
            <Position>
              <LatitudeDegrees>40.7273759879171848297119140625</LatitudeDegrees>
              <LongitudeDegrees>-3.91462697647511959075927734375</LongitudeDegrees>
            </Position>
            <AltitudeMeters>981.20001220703125</AltitudeMeters>
            <DistanceMeters>56026.691276938</DistanceMeters>
          </Trackpoint>
          <Trackpoint>
            <Time>2019-08-01T11:44:38.000Z</Time>
            <Position>
              <LatitudeDegrees>40.72747011668980121612548828125</LatitudeDegrees>
              <LongitudeDegrees>-3.91478455625474452972412109375</LongitudeDegrees>
            </Position>
            <AltitudeMeters>980</AltitudeMeters>
            <DistanceMeters>56043.615372031</DistanceMeters>
          </Trackpoint>
          <Trackpoint>
            <Time>2019-08-01T11:44:43.000Z</Time>
            <Position>
              <LatitudeDegrees>40.727565251290798187255859375</LatitudeDegrees>
              <LongitudeDegrees>-3.91493693925440311431884765625</LongitudeDegrees>
            </Position>
            <AltitudeMeters>979.20001220703125</AltitudeMeters>
            <DistanceMeters>56060.268380098</DistanceMeters>
          </Trackpoint>
          <Trackpoint>
            <Time>2019-08-01T11:44:47.000Z</Time>
            <Position>
              <LatitudeDegrees>40.72764529846608638763427734375</LatitudeDegrees>
              <LongitudeDegrees>-3.915041796863079071044921875</LongitudeDegrees>
            </Position>
            <AltitudeMeters>978</AltitudeMeters>
            <DistanceMeters>56072.822700241</DistanceMeters>
          </Trackpoint>
          <Trackpoint>
            <Time>2019-08-01T11:44:51.000Z</Time>
            <Position>
              <LatitudeDegrees>40.72773029096424579620361328125</LatitudeDegrees>
              <LongitudeDegrees>-3.9151485823094844818115234375</LongitudeDegrees>
            </Position>
            <AltitudeMeters>977.20001220703125</AltitudeMeters>
            <DistanceMeters>56085.884639773</DistanceMeters>
          </Trackpoint>
          <Trackpoint>
            <Time>2019-08-01T11:44:55.000Z</Time>
            <Position>
              <LatitudeDegrees>40.72780455462634563446044921875</LatitudeDegrees>
              <LongitudeDegrees>-3.91527104191482067108154296875</LongitudeDegrees>
            </Position>
            <AltitudeMeters>975.79998779296875</AltitudeMeters>
            <DistanceMeters>56099.113846535</DistanceMeters>
          </Trackpoint>
          <Trackpoint>
            <Time>2019-08-01T11:44:58.000Z</Time>
            <Position>
              <LatitudeDegrees>40.72785501368343830108642578125</LatitudeDegrees>
              <LongitudeDegrees>-3.91537028364837169647216796875</LongitudeDegrees>
            </Position>
            <AltitudeMeters>974.5999755859375</AltitudeMeters>
            <DistanceMeters>56109.193847535</DistanceMeters>
          </Trackpoint>
          <Trackpoint>
            <Time>2019-08-01T11:45:01.000Z</Time>
            <Position>
              <LatitudeDegrees>40.7279053889214992523193359375</LatitudeDegrees>
              <LongitudeDegrees>-3.9154721237719058990478515625</LongitudeDegrees>
            </Position>
            <AltitudeMeters>973.4000244140625</AltitudeMeters>
            <DistanceMeters>56119.451452066</DistanceMeters>
          </Trackpoint>
          <Trackpoint>
            <Time>2019-08-01T11:45:05.000Z</Time>
            <Position>
              <LatitudeDegrees>40.72797168977558612823486328125</LatitudeDegrees>
              <LongitudeDegrees>-3.9155948348343372344970703125</LongitudeDegrees>
            </Position>
            <AltitudeMeters>972.4000244140625</AltitudeMeters>
            <DistanceMeters>56132.16302899</DistanceMeters>
          </Trackpoint>
          <Trackpoint>
            <Time>2019-08-01T11:45:09.000Z</Time>
            <Position>
              <LatitudeDegrees>40.7280388288199901580810546875</LatitudeDegrees>
              <LongitudeDegrees>-3.91570857726037502288818359375</LongitudeDegrees>
            </Position>
            <AltitudeMeters>971.20001220703125</AltitudeMeters>
            <DistanceMeters>56144.323478482</DistanceMeters>
          </Trackpoint>
          <Trackpoint>
            <Time>2019-08-01T11:45:15.000Z</Time>
            <Position>
              <LatitudeDegrees>40.7281414233148097991943359375</LatitudeDegrees>
              <LongitudeDegrees>-3.915866911411285400390625</LongitudeDegrees>
            </Position>
            <AltitudeMeters>970.20001220703125</AltitudeMeters>
            <DistanceMeters>56161.894686286</DistanceMeters>
          </Trackpoint>
          <Trackpoint>
            <Time>2019-08-01T11:45:18.000Z</Time>
            <Position>
              <LatitudeDegrees>40.7281863503158092498779296875</LatitudeDegrees>
              <LongitudeDegrees>-3.91595768742263317108154296875</LongitudeDegrees>
            </Position>
            <AltitudeMeters>969.20001220703125</AltitudeMeters>
            <DistanceMeters>56171.03900189</DistanceMeters>
          </Trackpoint>
          <Trackpoint>
            <Time>2019-08-01T11:45:24.000Z</Time>
            <Position>
              <LatitudeDegrees>40.72827410884201526641845703125</LatitudeDegrees>
              <LongitudeDegrees>-3.91614460386335849761962890625</LongitudeDegrees>
            </Position>
            <AltitudeMeters>967.79998779296875</AltitudeMeters>
            <DistanceMeters>56189.585042216</DistanceMeters>
          </Trackpoint>
          <Trackpoint>
            <Time>2019-08-01T11:45:29.000Z</Time>
            <Position>
              <LatitudeDegrees>40.7283342070877552032470703125</LatitudeDegrees>
              <LongitudeDegrees>-3.91630922444164752960205078125</LongitudeDegrees>
            </Position>
            <AltitudeMeters>966.79998779296875</AltitudeMeters>
            <DistanceMeters>56204.997543341</DistanceMeters>
          </Trackpoint>
          <Trackpoint>
            <Time>2019-08-01T11:45:34.000Z</Time>
            <Position>
              <LatitudeDegrees>40.72838944382965564727783203125</LatitudeDegrees>
              <LongitudeDegrees>-3.91648155637085437774658203125</LongitudeDegrees>
            </Position>
            <AltitudeMeters>965.5999755859375</AltitudeMeters>
            <DistanceMeters>56220.77970411</DistanceMeters>
          </Trackpoint>
          <Trackpoint>
            <Time>2019-08-01T11:45:37.000Z</Time>
            <Position>
              <LatitudeDegrees>40.728423558175563812255859375</LatitudeDegrees>
              <LongitudeDegrees>-3.9165812171995639801025390625</LongitudeDegrees>
            </Position>
            <AltitudeMeters>964.5999755859375</AltitudeMeters>
            <DistanceMeters>56230.003660976</DistanceMeters>
          </Trackpoint>
          <Trackpoint>
            <Time>2019-08-01T11:45:40.000Z</Time>
            <Position>
              <LatitudeDegrees>40.7284585945308208465576171875</LatitudeDegrees>
              <LongitudeDegrees>-3.916678614914417266845703125</LongitudeDegrees>
            </Position>
            <AltitudeMeters>963.4000244140625</AltitudeMeters>
            <DistanceMeters>56239.097474261</DistanceMeters>
          </Trackpoint>
          <Trackpoint>
            <Time>2019-08-01T11:45:45.000Z</Time>
            <Position>
              <LatitudeDegrees>40.7285098917782306671142578125</LatitudeDegrees>
              <LongitudeDegrees>-3.91683912836015224456787109375</LongitudeDegrees>
            </Position>
            <AltitudeMeters>962.20001220703125</AltitudeMeters>
            <DistanceMeters>56253.790706296</DistanceMeters>
          </Trackpoint>
          <Trackpoint>
            <Time>2019-08-01T11:45:50.000Z</Time>
            <Position>
              <LatitudeDegrees>40.7285571657121181488037109375</LatitudeDegrees>
              <LongitudeDegrees>-3.917001150548458099365234375</LongitudeDegrees>
            </Position>
            <AltitudeMeters>961.20001220703125</AltitudeMeters>
            <DistanceMeters>56268.434689886</DistanceMeters>
          </Trackpoint>
          <Trackpoint>
            <Time>2019-08-01T11:45:55.000Z</Time>
            <Position>
              <LatitudeDegrees>40.72860334999859333038330078125</LatitudeDegrees>
              <LongitudeDegrees>-3.91716484911739826202392578125</LongitudeDegrees>
            </Position>
            <AltitudeMeters>960</AltitudeMeters>
            <DistanceMeters>56283.167508608</DistanceMeters>
          </Trackpoint>
          <Trackpoint>
            <Time>2019-08-01T11:46:00.000Z</Time>
            <Position>
              <LatitudeDegrees>40.72865682654082775115966796875</LatitudeDegrees>
              <LongitudeDegrees>-3.91732293181121349334716796875</LongitudeDegrees>
            </Position>
            <AltitudeMeters>958.79998779296875</AltitudeMeters>
            <DistanceMeters>56297.768881997</DistanceMeters>
          </Trackpoint>
          <Trackpoint>
            <Time>2019-08-01T11:46:14.000Z</Time>
            <Position>
              <LatitudeDegrees>40.72879797779023647308349609375</LatitudeDegrees>
              <LongitudeDegrees>-3.9177587069571018218994140625</LongitudeDegrees>
            </Position>
            <AltitudeMeters>957.5999755859375</AltitudeMeters>
            <DistanceMeters>56337.741369862</DistanceMeters>
          </Trackpoint>
          <Trackpoint>
            <Time>2019-08-01T11:46:19.000Z</Time>
            <Position>
              <LatitudeDegrees>40.72885103523731231689453125</LatitudeDegrees>
              <LongitudeDegrees>-3.91790547408163547515869140625</LongitudeDegrees>
            </Position>
            <AltitudeMeters>956.4000244140625</AltitudeMeters>
            <DistanceMeters>56351.456855726</DistanceMeters>
          </Trackpoint>
          <Trackpoint>
            <Time>2019-08-01T11:46:23.000Z</Time>
            <Position>
              <LatitudeDegrees>40.7288874126970767974853515625</LatitudeDegrees>
              <LongitudeDegrees>-3.918025083839893341064453125</LongitudeDegrees>
            </Position>
            <AltitudeMeters>955.20001220703125</AltitudeMeters>
            <DistanceMeters>56362.327762331</DistanceMeters>
          </Trackpoint>
          <Trackpoint>
            <Time>2019-08-01T11:46:31.000Z</Time>
            <Position>
              <LatitudeDegrees>40.72896259836852550506591796875</LatitudeDegrees>
              <LongitudeDegrees>-3.9182554185390472412109375</LongitudeDegrees>
            </Position>
            <AltitudeMeters>954.20001220703125</AltitudeMeters>
            <DistanceMeters>56383.481187066</DistanceMeters>
          </Trackpoint>
          <Trackpoint>
            <Time>2019-08-01T11:46:55.000Z</Time>
            <Position>
              <LatitudeDegrees>40.72917583398520946502685546875</LatitudeDegrees>
              <LongitudeDegrees>-3.91892127692699432373046875</LongitudeDegrees>
            </Position>
            <AltitudeMeters>953.4000244140625</AltitudeMeters>
            <DistanceMeters>56444.451914714</DistanceMeters>
          </Trackpoint>
          <Trackpoint>
            <Time>2019-08-01T11:46:59.000Z</Time>
            <Position>
              <LatitudeDegrees>40.72921288199722766876220703125</LatitudeDegrees>
              <LongitudeDegrees>-3.91903652809560298919677734375</LongitudeDegrees>
            </Position>
            <AltitudeMeters>952.79998779296875</AltitudeMeters>
            <DistanceMeters>56455.011003399</DistanceMeters>
          </Trackpoint>
          <Trackpoint>
            <Time>2019-08-01T11:47:07.000Z</Time>
            <Position>
              <LatitudeDegrees>40.7292833738029003143310546875</LatitudeDegrees>
              <LongitudeDegrees>-3.91927507705986499786376953125</LongitudeDegrees>
            </Position>
            <AltitudeMeters>951.79998779296875</AltitudeMeters>
            <DistanceMeters>56476.60696108</DistanceMeters>
          </Trackpoint>
          <Trackpoint>
            <Time>2019-08-01T11:47:08.000Z</Time>
            <Position>
              <LatitudeDegrees>40.72929284535348415374755859375</LatitudeDegrees>
              <LongitudeDegrees>-3.9193039946258068084716796875</LongitudeDegrees>
            </Position>
            <AltitudeMeters>951.79998779296875</AltitudeMeters>
            <DistanceMeters>56479.264313104</DistanceMeters>
          </Trackpoint>
          <Trackpoint>
            <Time>2019-08-01T11:47:15.000Z</Time>
            <Position>
              <LatitudeDegrees>40.7293621636927127838134765625</LatitudeDegrees>
              <LongitudeDegrees>-3.9195041544735431671142578125</LongitudeDegrees>
            </Position>
            <AltitudeMeters>950.79998779296875</AltitudeMeters>
            <DistanceMeters>56497.826170951</DistanceMeters>
          </Trackpoint>
          <Trackpoint>
            <Time>2019-08-01T11:47:20.000Z</Time>
            <Position>
              <LatitudeDegrees>40.72941170074045658111572265625</LatitudeDegrees>
              <LongitudeDegrees>-3.91966533847153186798095703125</LongitudeDegrees>
            </Position>
            <AltitudeMeters>949.20001220703125</AltitudeMeters>
            <DistanceMeters>56512.496646129</DistanceMeters>
          </Trackpoint>
          <Trackpoint>
            <Time>2019-08-01T11:47:28.000Z</Time>
            <Position>
              <LatitudeDegrees>40.7294992916285991668701171875</LatitudeDegrees>
              <LongitudeDegrees>-3.9199182204902172088623046875</LongitudeDegrees>
            </Position>
            <AltitudeMeters>948.20001220703125</AltitudeMeters>
            <DistanceMeters>56535.948422947</DistanceMeters>
          </Trackpoint>
          <Trackpoint>
            <Time>2019-08-01T11:47:49.000Z</Time>
            <Position>
              <LatitudeDegrees>40.72971965186297893524169921875</LatitudeDegrees>
              <LongitudeDegrees>-3.92060059122741222381591796875</LongitudeDegrees>
            </Position>
            <AltitudeMeters>948.4000244140625</AltitudeMeters>
            <DistanceMeters>56598.510507264</DistanceMeters>
          </Trackpoint>
          <Trackpoint>
            <Time>2019-08-01T11:47:57.000Z</Time>
            <Position>
              <LatitudeDegrees>40.7297970168292522430419921875</LatitudeDegrees>
              <LongitudeDegrees>-3.92085825093090534210205078125</LongitudeDegrees>
            </Position>
            <AltitudeMeters>949</AltitudeMeters>
            <DistanceMeters>56621.886306411</DistanceMeters>
          </Trackpoint>
          <Trackpoint>
            <Time>2019-08-01T11:48:05.000Z</Time>
            <Position>
              <LatitudeDegrees>40.7298791594803333282470703125</LatitudeDegrees>
              <LongitudeDegrees>-3.92111155204474925994873046875</LongitudeDegrees>
            </Position>
            <AltitudeMeters>950</AltitudeMeters>
            <DistanceMeters>56645.124564338</DistanceMeters>
          </Trackpoint>
          <Trackpoint>
            <Time>2019-08-01T11:48:10.000Z</Time>
            <Position>
              <LatitudeDegrees>40.72992567904293537139892578125</LatitudeDegrees>
              <LongitudeDegrees>-3.9212573133409023284912109375</LongitudeDegrees>
            </Position>
            <AltitudeMeters>951.20001220703125</AltitudeMeters>
            <DistanceMeters>56658.464230241</DistanceMeters>
          </Trackpoint>
          <Trackpoint>
            <Time>2019-08-01T11:48:17.000Z</Time>
            <Position>
              <LatitudeDegrees>40.72998963296413421630859375</LatitudeDegrees>
              <LongitudeDegrees>-3.92144448123872280120849609375</LongitudeDegrees>
            </Position>
            <AltitudeMeters>952.4000244140625</AltitudeMeters>
            <DistanceMeters>56675.781268343</DistanceMeters>
          </Trackpoint>
          <Trackpoint>
            <Time>2019-08-01T11:48:20.000Z</Time>
            <Position>
              <LatitudeDegrees>40.73001620359718799591064453125</LatitudeDegrees>
              <LongitudeDegrees>-3.921518661081790924072265625</LongitudeDegrees>
            </Position>
            <AltitudeMeters>953.79998779296875</AltitudeMeters>
            <DistanceMeters>56682.701275235</DistanceMeters>
          </Trackpoint>
          <Trackpoint>
            <Time>2019-08-01T11:48:23.000Z</Time>
            <Position>
              <LatitudeDegrees>40.73004235513508319854736328125</LatitudeDegrees>
              <LongitudeDegrees>-3.92159116454422473907470703125</LongitudeDegrees>
            </Position>
            <AltitudeMeters>954.79998779296875</AltitudeMeters>
            <DistanceMeters>56689.474220557</DistanceMeters>
          </Trackpoint>
          <Trackpoint>
            <Time>2019-08-01T11:48:26.000Z</Time>
            <Position>
              <LatitudeDegrees>40.73006884194910526275634765625</LatitudeDegrees>
              <LongitudeDegrees>-3.9216591417789459228515625</LongitudeDegrees>
            </Position>
            <AltitudeMeters>956.4000244140625</AltitudeMeters>
            <DistanceMeters>56695.920646838</DistanceMeters>
          </Trackpoint>
          <Trackpoint>
            <Time>2019-08-01T11:48:29.000Z</Time>
            <Position>
              <LatitudeDegrees>40.73009013198316097259521484375</LatitudeDegrees>
              <LongitudeDegrees>-3.92172812484204769134521484375</LongitudeDegrees>
            </Position>
            <AltitudeMeters>957.4000244140625</AltitudeMeters>
            <DistanceMeters>56702.203199197</DistanceMeters>
          </Trackpoint>
          <Trackpoint>
            <Time>2019-08-01T11:48:32.000Z</Time>
            <Position>
              <LatitudeDegrees>40.7301058061420917510986328125</LatitudeDegrees>
              <LongitudeDegrees>-3.92178797163069248199462890625</LongitudeDegrees>
            </Position>
            <AltitudeMeters>958.4000244140625</AltitudeMeters>
            <DistanceMeters>56707.54332854</DistanceMeters>
          </Trackpoint>
          <Trackpoint>
            <Time>2019-08-01T11:48:37.000Z</Time>
            <Position>
              <LatitudeDegrees>40.7301302812993526458740234375</LatitudeDegrees>
              <LongitudeDegrees>-3.92184999771416187286376953125</LongitudeDegrees>
            </Position>
            <AltitudeMeters>959.5999755859375</AltitudeMeters>
            <DistanceMeters>56713.441877899</DistanceMeters>
          </Trackpoint>
          <Trackpoint>
            <Time>2019-08-01T11:48:51.000Z</Time>
            <Position>
              <LatitudeDegrees>40.730140171945095062255859375</LatitudeDegrees>
              <LongitudeDegrees>-3.92208217643201351165771484375</LongitudeDegrees>
            </Position>
            <AltitudeMeters>958.4000244140625</AltitudeMeters>
            <DistanceMeters>56733.055631152</DistanceMeters>
          </Trackpoint>
          <Trackpoint>
            <Time>2019-08-01T11:48:59.000Z</Time>
            <Position>
              <LatitudeDegrees>40.73015618138015270233154296875</LatitudeDegrees>
              <LongitudeDegrees>-3.92224646173417568206787109375</LongitudeDegrees>
            </Position>
            <AltitudeMeters>957.20001220703125</AltitudeMeters>
            <DistanceMeters>56747.025850985</DistanceMeters>
          </Trackpoint>
          <Trackpoint>
            <Time>2019-08-01T11:49:04.000Z</Time>
            <Position>
              <LatitudeDegrees>40.7301688380539417266845703125</LatitudeDegrees>
              <LongitudeDegrees>-3.92237730324268341064453125</LongitudeDegrees>
            </Position>
            <AltitudeMeters>956.20001220703125</AltitudeMeters>
            <DistanceMeters>56758.151283912</DistanceMeters>
          </Trackpoint>
          <Trackpoint>
            <Time>2019-08-01T11:49:09.000Z</Time>
            <Position>
              <LatitudeDegrees>40.7301793992519378662109375</LatitudeDegrees>
              <LongitudeDegrees>-3.922531865537166595458984375</LongitudeDegrees>
            </Position>
            <AltitudeMeters>955</AltitudeMeters>
            <DistanceMeters>56771.240502391</DistanceMeters>
          </Trackpoint>
          <Trackpoint>
            <Time>2019-08-01T11:49:25.000Z</Time>
            <Position>
              <LatitudeDegrees>40.7302129268646240234375</LatitudeDegrees>
              <LongitudeDegrees>-3.92307576723396778106689453125</LongitudeDegrees>
            </Position>
            <AltitudeMeters>956</AltitudeMeters>
            <DistanceMeters>56817.266601001</DistanceMeters>
          </Trackpoint>
          <Trackpoint>
            <Time>2019-08-01T11:49:35.000Z</Time>
            <Position>
              <LatitudeDegrees>40.73026078753173351287841796875</LatitudeDegrees>
              <LongitudeDegrees>-3.92337081022560596466064453125</LongitudeDegrees>
            </Position>
            <AltitudeMeters>957</AltitudeMeters>
            <DistanceMeters>56842.715315754</DistanceMeters>
          </Trackpoint>
          <Trackpoint>
            <Time>2019-08-01T11:49:39.000Z</Time>
            <Position>
              <LatitudeDegrees>40.73028610087931156158447265625</LatitudeDegrees>
              <LongitudeDegrees>-3.92346896231174468994140625</LongitudeDegrees>
            </Position>
            <AltitudeMeters>957.79998779296875</AltitudeMeters>
            <DistanceMeters>56851.45983903</DistanceMeters>
          </Trackpoint>
          <Trackpoint>
            <Time>2019-08-01T11:49:43.000Z</Time>
            <Position>
              <LatitudeDegrees>40.73030889965593814849853515625</LatitudeDegrees>
              <LongitudeDegrees>-3.92356493510305881500244140625</LongitudeDegrees>
            </Position>
            <AltitudeMeters>959</AltitudeMeters>
            <DistanceMeters>56859.943335317</DistanceMeters>
          </Trackpoint>
          <Trackpoint>
            <Time>2019-08-01T11:49:48.000Z</Time>
            <Position>
              <LatitudeDegrees>40.7303404994308948516845703125</LatitudeDegrees>
              <LongitudeDegrees>-3.92369024455547332763671875</LongitudeDegrees>
            </Position>
            <AltitudeMeters>960.20001220703125</AltitudeMeters>
            <DistanceMeters>56871.082152595</DistanceMeters>
          </Trackpoint>
          <Trackpoint>
            <Time>2019-08-01T11:49:58.000Z</Time>
            <Position>
              <LatitudeDegrees>40.73040680028498172760009765625</LatitudeDegrees>
              <LongitudeDegrees>-3.9239522628486156463623046875</LongitudeDegrees>
            </Position>
            <AltitudeMeters>961.20001220703125</AltitudeMeters>
            <DistanceMeters>56894.38133875</DistanceMeters>
          </Trackpoint>
          <Trackpoint>
            <Time>2019-08-01T11:50:27.000Z</Time>
            <Position>
              <LatitudeDegrees>40.73054677806794643402099609375</LatitudeDegrees>
              <LongitudeDegrees>-3.92465592361986637115478515625</LongitudeDegrees>
            </Position>
            <AltitudeMeters>960.79998779296875</AltitudeMeters>
            <DistanceMeters>56955.7412295</DistanceMeters>
          </Trackpoint>
          <Trackpoint>
            <Time>2019-08-01T11:50:52.000Z</Time>
            <Position>
              <LatitudeDegrees>40.730791278183460235595703125</LatitudeDegrees>
              <LongitudeDegrees>-3.92532211728394031524658203125</LongitudeDegrees>
            </Position>
            <AltitudeMeters>960</AltitudeMeters>
            <DistanceMeters>57018.17312997</DistanceMeters>
          </Trackpoint>
          <Trackpoint>
            <Time>2019-08-01T11:51:06.000Z</Time>
            <Position>
              <LatitudeDegrees>40.73091759346425533294677734375</LatitudeDegrees>
              <LongitudeDegrees>-3.925744481384754180908203125</LongitudeDegrees>
            </Position>
            <AltitudeMeters>961.4000244140625</AltitudeMeters>
            <DistanceMeters>57056.47042852</DistanceMeters>
          </Trackpoint>
          <Trackpoint>
            <Time>2019-08-01T11:51:12.000Z</Time>
            <Position>
              <LatitudeDegrees>40.7309651188552379608154296875</LatitudeDegrees>
              <LongitudeDegrees>-3.925903737545013427734375</LongitudeDegrees>
            </Position>
            <AltitudeMeters>962.4000244140625</AltitudeMeters>
            <DistanceMeters>57070.906985046</DistanceMeters>
          </Trackpoint>
          <Trackpoint>
            <Time>2019-08-01T11:51:16.000Z</Time>
            <Position>
              <LatitudeDegrees>40.7309932820498943328857421875</LatitudeDegrees>
              <LongitudeDegrees>-3.926001973450183868408203125</LongitudeDegrees>
            </Position>
            <AltitudeMeters>963.4000244140625</AltitudeMeters>
            <DistanceMeters>57079.765391466</DistanceMeters>
          </Trackpoint>
          <Trackpoint>
            <Time>2019-08-01T11:51:22.000Z</Time>
            <Position>
              <LatitudeDegrees>40.7310242950916290283203125</LatitudeDegrees>
              <LongitudeDegrees>-3.92613239586353302001953125</LongitudeDegrees>
            </Position>
            <AltitudeMeters>964.5999755859375</AltitudeMeters>
            <DistanceMeters>57091.293820027</DistanceMeters>
          </Trackpoint>
          <Trackpoint>
            <Time>2019-08-01T11:51:44.000Z</Time>
            <Position>
              <LatitudeDegrees>40.73130433447659015655517578125</LatitudeDegrees>
              <LongitudeDegrees>-3.92675726674497127532958984375</LongitudeDegrees>
            </Position>
            <AltitudeMeters>965.4000244140625</AltitudeMeters>
            <DistanceMeters>57152.523772975</DistanceMeters>
          </Trackpoint>
          <Trackpoint>
            <Time>2019-08-01T11:51:45.000Z</Time>
            <Position>
              <LatitudeDegrees>40.7313154824078083038330078125</LatitudeDegrees>
              <LongitudeDegrees>-3.92678593285381793975830078125</LongitudeDegrees>
            </Position>
            <AltitudeMeters>965.5999755859375</AltitudeMeters>
            <DistanceMeters>57155.241603458</DistanceMeters>
          </Trackpoint>
          <Trackpoint>
            <Time>2019-08-01T11:51:50.000Z</Time>
            <Position>
              <LatitudeDegrees>40.73135529644787311553955078125</LatitudeDegrees>
              <LongitudeDegrees>-3.92692121677100658416748046875</LongitudeDegrees>
            </Position>
            <AltitudeMeters>966.5999755859375</AltitudeMeters>
            <DistanceMeters>57167.481988597</DistanceMeters>
          </Trackpoint>
          <Trackpoint>
            <Time>2019-08-01T11:51:54.000Z</Time>
            <Position>
              <LatitudeDegrees>40.73138094507157802581787109375</LatitudeDegrees>
              <LongitudeDegrees>-3.9270227216184139251708984375</LongitudeDegrees>
            </Position>
            <AltitudeMeters>967.5999755859375</AltitudeMeters>
            <DistanceMeters>57176.507025413</DistanceMeters>
          </Trackpoint>
          <Trackpoint>
            <Time>2019-08-01T11:51:59.000Z</Time>
            <Position>
              <LatitudeDegrees>40.7314348407089710235595703125</LatitudeDegrees>
              <LongitudeDegrees>-3.92713964916765689849853515625</LongitudeDegrees>
            </Position>
            <AltitudeMeters>968.5999755859375</AltitudeMeters>
            <DistanceMeters>57188.049935701</DistanceMeters>
          </Trackpoint>
          <Trackpoint>
            <Time>2019-08-01T11:52:02.000Z</Time>
            <Position>
              <LatitudeDegrees>40.73145906440913677215576171875</LatitudeDegrees>
              <LongitudeDegrees>-3.9272004179656505584716796875</LongitudeDegrees>
            </Position>
            <AltitudeMeters>969.5999755859375</AltitudeMeters>
            <DistanceMeters>57193.841110359</DistanceMeters>
          </Trackpoint>
          <Trackpoint>
            <Time>2019-08-01T11:52:04.000Z</Time>
            <Position>
              <LatitudeDegrees>40.73147163726389408111572265625</LatitudeDegrees>
              <LongitudeDegrees>-3.92724911682307720184326171875</LongitudeDegrees>
            </Position>
            <AltitudeMeters>970.79998779296875</AltitudeMeters>
            <DistanceMeters>57198.181241631</DistanceMeters>
          </Trackpoint>
          <Trackpoint>
            <Time>2019-08-01T11:52:06.000Z</Time>
            <Position>
              <LatitudeDegrees>40.73148705996572971343994140625</LatitudeDegrees>
              <LongitudeDegrees>-3.92729588784277439117431640625</LongitudeDegrees>
            </Position>
            <AltitudeMeters>972</AltitudeMeters>
            <DistanceMeters>57202.482709594</DistanceMeters>
          </Trackpoint>
          <Trackpoint>
            <Time>2019-08-01T11:52:13.000Z</Time>
            <Position>
              <LatitudeDegrees>40.73152653872966766357421875</LatitudeDegrees>
              <LongitudeDegrees>-3.92744240351021289825439453125</LongitudeDegrees>
            </Position>
            <AltitudeMeters>973</AltitudeMeters>
            <DistanceMeters>57215.598117562</DistanceMeters>
          </Trackpoint>
          <Trackpoint>
            <Time>2019-08-01T11:52:17.000Z</Time>
            <Position>
              <LatitudeDegrees>40.731544978916645050048828125</LatitudeDegrees>
              <LongitudeDegrees>-3.927518092095851898193359375</LongitudeDegrees>
            </Position>
            <AltitudeMeters>974.20001220703125</AltitudeMeters>
            <DistanceMeters>57222.30339538</DistanceMeters>
          </Trackpoint>
          <Trackpoint>
            <Time>2019-08-01T11:52:22.000Z</Time>
            <Position>
              <LatitudeDegrees>40.73158093728125095367431640625</LatitudeDegrees>
              <LongitudeDegrees>-3.9276151545345783233642578125</LongitudeDegrees>
            </Position>
            <AltitudeMeters>975.5999755859375</AltitudeMeters>
            <DistanceMeters>57231.416055968</DistanceMeters>
          </Trackpoint>
          <Trackpoint>
            <Time>2019-08-01T11:52:26.000Z</Time>
            <Position>
              <LatitudeDegrees>40.73160306550562381744384765625</LatitudeDegrees>
              <LongitudeDegrees>-3.9276879094541072845458984375</LongitudeDegrees>
            </Position>
            <AltitudeMeters>976.79998779296875</AltitudeMeters>
            <DistanceMeters>57238.028440571</DistanceMeters>
          </Trackpoint>
          <Trackpoint>
            <Time>2019-08-01T11:52:28.000Z</Time>
            <Position>
              <LatitudeDegrees>40.73161614127457141876220703125</LatitudeDegrees>
              <LongitudeDegrees>-3.92771850340068340301513671875</LongitudeDegrees>
            </Position>
            <AltitudeMeters>977.79998779296875</AltitudeMeters>
            <DistanceMeters>57240.991080323</DistanceMeters>
          </Trackpoint>
          <Trackpoint>
            <Time>2019-08-01T11:52:31.000Z</Time>
            <Position>
              <LatitudeDegrees>40.73163122870028018951416015625</LatitudeDegrees>
              <LongitudeDegrees>-3.9277656935155391693115234375</LongitudeDegrees>
            </Position>
            <AltitudeMeters>979.20001220703125</AltitudeMeters>
            <DistanceMeters>57245.310355486</DistanceMeters>
          </Trackpoint>
          <Trackpoint>
            <Time>2019-08-01T11:52:35.000Z</Time>
            <Position>
              <LatitudeDegrees>40.731657631695270538330078125</LatitudeDegrees>
              <LongitudeDegrees>-3.92783350311219692230224609375</LongitudeDegrees>
            </Position>
            <AltitudeMeters>980.20001220703125</AltitudeMeters>
            <DistanceMeters>57251.739950338</DistanceMeters>
          </Trackpoint>
          <Trackpoint>
            <Time>2019-08-01T11:52:38.000Z</Time>
            <Position>
              <LatitudeDegrees>40.7316826097667217254638671875</LatitudeDegrees>
              <LongitudeDegrees>-3.92787859775125980377197265625</LongitudeDegrees>
            </Position>
            <AltitudeMeters>980.79998779296875</AltitudeMeters>
            <DistanceMeters>57256.451205787</DistanceMeters>
          </Trackpoint>
          <Trackpoint>
            <Time>2019-08-01T11:52:41.000Z</Time>
            <Position>
              <LatitudeDegrees>40.73170314542949199676513671875</LatitudeDegrees>
              <LongitudeDegrees>-3.927930481731891632080078125</LongitudeDegrees>
            </Position>
            <AltitudeMeters>981.20001220703125</AltitudeMeters>
            <DistanceMeters>57261.388024228</DistanceMeters>
          </Trackpoint>
          <Trackpoint>
            <Time>2019-08-01T11:52:42.000Z</Time>
            <Position>
              <LatitudeDegrees>40.7317097671329975128173828125</LatitudeDegrees>
              <LongitudeDegrees>-3.9279464073479175567626953125</LongitudeDegrees>
            </Position>
            <AltitudeMeters>981.4000244140625</AltitudeMeters>
            <DistanceMeters>57262.920283956</DistanceMeters>
          </Trackpoint>
          <Trackpoint>
            <Time>2019-08-01T11:52:54.000Z</Time>
            <Position>
              <LatitudeDegrees>40.7317806780338287353515625</LatitudeDegrees>
              <LongitudeDegrees>-3.92813022248446941375732421875</LongitudeDegrees>
            </Position>
            <AltitudeMeters>982.4000244140625</AltitudeMeters>
            <DistanceMeters>57280.317181441</DistanceMeters>
          </Trackpoint>
          <Trackpoint>
            <Time>2019-08-01T11:53:24.000Z</Time>
            <Position>
              <LatitudeDegrees>40.731947980821132659912109375</LatitudeDegrees>
              <LongitudeDegrees>-3.92847656272351741790771484375</LongitudeDegrees>
            </Position>
            <AltitudeMeters>981.20001220703125</AltitudeMeters>
            <DistanceMeters>57314.958296588</DistanceMeters>
          </Trackpoint>
          <Trackpoint>
            <Time>2019-08-01T11:53:47.000Z</Time>
            <Position>
              <LatitudeDegrees>40.73206256143748760223388671875</LatitudeDegrees>
              <LongitudeDegrees>-3.928725421428680419921875</LongitudeDegrees>
            </Position>
            <AltitudeMeters>980</AltitudeMeters>
            <DistanceMeters>57339.517876922</DistanceMeters>
          </Trackpoint>
          <Trackpoint>
            <Time>2019-08-01T11:54:20.000Z</Time>
            <Position>
              <LatitudeDegrees>40.732271857559680938720703125</LatitudeDegrees>
              <LongitudeDegrees>-3.92918114550411701202392578125</LongitudeDegrees>
            </Position>
            <AltitudeMeters>980.79998779296875</AltitudeMeters>
            <DistanceMeters>57384.462398728</DistanceMeters>
          </Trackpoint>
          <Trackpoint>
            <Time>2019-08-01T11:54:27.000Z</Time>
            <Position>
              <LatitudeDegrees>40.732308737933635711669921875</LatitudeDegrees>
              <LongitudeDegrees>-3.9292637072503566741943359375</LongitudeDegrees>
            </Position>
            <AltitudeMeters>982</AltitudeMeters>
            <DistanceMeters>57392.545257323</DistanceMeters>
          </Trackpoint>
          <Trackpoint>
            <Time>2019-08-01T11:54:32.000Z</Time>
            <Position>
              <LatitudeDegrees>40.7323293574154376983642578125</LatitudeDegrees>
              <LongitudeDegrees>-3.92932279966771602630615234375</LongitudeDegrees>
            </Position>
            <AltitudeMeters>983.4000244140625</AltitudeMeters>
            <DistanceMeters>57398.03135291</DistanceMeters>
          </Trackpoint>
          <Trackpoint>
            <Time>2019-08-01T11:54:36.000Z</Time>
            <Position>
              <LatitudeDegrees>40.7323380745947360992431640625</LatitudeDegrees>
              <LongitudeDegrees>-3.929374516010284423828125</LongitudeDegrees>
            </Position>
            <AltitudeMeters>984.4000244140625</AltitudeMeters>
            <DistanceMeters>57402.500640224</DistanceMeters>
          </Trackpoint>
          <Trackpoint>
            <Time>2019-08-01T11:54:39.000Z</Time>
            <Position>
              <LatitudeDegrees>40.73234704323112964630126953125</LatitudeDegrees>
              <LongitudeDegrees>-3.92940745688974857330322265625</LongitudeDegrees>
            </Position>
            <AltitudeMeters>985.4000244140625</AltitudeMeters>
            <DistanceMeters>57405.454121872</DistanceMeters>
          </Trackpoint>
          <Trackpoint>
            <Time>2019-08-01T11:54:42.000Z</Time>
            <Position>
              <LatitudeDegrees>40.73236338794231414794921875</LatitudeDegrees>
              <LongitudeDegrees>-3.92943578772246837615966796875</LongitudeDegrees>
            </Position>
            <AltitudeMeters>986.79998779296875</AltitudeMeters>
            <DistanceMeters>57408.459130431</DistanceMeters>
          </Trackpoint>
          <Trackpoint>
            <Time>2019-08-01T11:54:45.000Z</Time>
            <Position>
              <LatitudeDegrees>40.7323655672371387481689453125</LatitudeDegrees>
              <LongitudeDegrees>-3.929468058049678802490234375</LongitudeDegrees>
            </Position>
            <AltitudeMeters>987.79998779296875</AltitudeMeters>
            <DistanceMeters>57411.193523105</DistanceMeters>
          </Trackpoint>
          <Trackpoint>
            <Time>2019-08-01T11:54:48.000Z</Time>
            <Position>
              <LatitudeDegrees>40.7323702611029148101806640625</LatitudeDegrees>
              <LongitudeDegrees>-3.92950720153748989105224609375</LongitudeDegrees>
            </Position>
            <AltitudeMeters>989</AltitudeMeters>
            <DistanceMeters>57414.535708702</DistanceMeters>
          </Trackpoint>
          <Trackpoint>
            <Time>2019-08-01T11:54:51.000Z</Time>
            <Position>
              <LatitudeDegrees>40.7323773019015789031982421875</LatitudeDegrees>
              <LongitudeDegrees>-3.92953754402697086334228515625</LongitudeDegrees>
            </Position>
            <AltitudeMeters>990</AltitudeMeters>
            <DistanceMeters>57417.209997494</DistanceMeters>
          </Trackpoint>
          <Trackpoint>
            <Time>2019-08-01T11:54:54.000Z</Time>
            <Position>
              <LatitudeDegrees>40.7323779724538326263427734375</LatitudeDegrees>
              <LongitudeDegrees>-3.92956503666937351226806640625</LongitudeDegrees>
            </Position>
            <AltitudeMeters>991.20001220703125</AltitudeMeters>
            <DistanceMeters>57419.529895242</DistanceMeters>
          </Trackpoint>
          <Trackpoint>
            <Time>2019-08-01T11:54:57.000Z</Time>
            <Position>
              <LatitudeDegrees>40.73238241486251354217529296875</LatitudeDegrees>
              <LongitudeDegrees>-3.9295976422727108001708984375</LongitudeDegrees>
            </Position>
            <AltitudeMeters>992.4000244140625</AltitudeMeters>
            <DistanceMeters>57422.323098787</DistanceMeters>
          </Trackpoint>
          <Trackpoint>
            <Time>2019-08-01T11:55:01.000Z</Time>
            <Position>
              <LatitudeDegrees>40.7323806546628475189208984375</LatitudeDegrees>
              <LongitudeDegrees>-3.92963209189474582672119140625</LongitudeDegrees>
            </Position>
            <AltitudeMeters>993.5999755859375</AltitudeMeters>
            <DistanceMeters>57425.236562681</DistanceMeters>
          </Trackpoint>
          <Trackpoint>
            <Time>2019-08-01T11:55:02.000Z</Time>
            <Position>
              <LatitudeDegrees>40.7323789782822132110595703125</LatitudeDegrees>
              <LongitudeDegrees>-3.92963209189474582672119140625</LongitudeDegrees>
            </Position>
            <AltitudeMeters>994</AltitudeMeters>
            <DistanceMeters>57425.42661611</DistanceMeters>
          </Trackpoint>
          <Trackpoint>
            <Time>2019-08-01T11:57:24.000Z</Time>
            <Position>
              <LatitudeDegrees>40.7323337160050868988037109375</LatitudeDegrees>
              <LongitudeDegrees>-3.93032376654446125030517578125</LongitudeDegrees>
            </Position>
            <AltitudeMeters>1017</AltitudeMeters>
            <DistanceMeters>57483.980192978</DistanceMeters>
          </Trackpoint>
          <Trackpoint>
            <Time>2019-08-01T11:57:51.000Z</Time>
            <Position>
              <LatitudeDegrees>40.73239414952695369720458984375</LatitudeDegrees>
              <LongitudeDegrees>-3.93085174262523651123046875</LongitudeDegrees>
            </Position>
            <AltitudeMeters>1016.20001220703125</AltitudeMeters>
            <DistanceMeters>57529.01523677</DistanceMeters>
          </Trackpoint>
          <Trackpoint>
            <Time>2019-08-01T11:57:57.000Z</Time>
            <Position>
              <LatitudeDegrees>40.73242382146418094635009765625</LatitudeDegrees>
              <LongitudeDegrees>-3.930962048470973968505859375</LongitudeDegrees>
            </Position>
            <AltitudeMeters>1015.20001220703125</AltitudeMeters>
            <DistanceMeters>57538.887044354</DistanceMeters>
          </Trackpoint>
          <Trackpoint>
            <Time>2019-08-01T11:58:01.000Z</Time>
            <Position>
              <LatitudeDegrees>40.73244594968855381011962890625</LatitudeDegrees>
              <LongitudeDegrees>-3.9310312829911708831787109375</LongitudeDegrees>
            </Position>
            <AltitudeMeters>1014</AltitudeMeters>
            <DistanceMeters>57545.224692185</DistanceMeters>
          </Trackpoint>
          <Trackpoint>
            <Time>2019-08-01T11:58:06.000Z</Time>
            <Position>
              <LatitudeDegrees>40.73247746564447879791259765625</LatitudeDegrees>
              <LongitudeDegrees>-3.93111568875610828399658203125</LongitudeDegrees>
            </Position>
            <AltitudeMeters>1013.20001220703125</AltitudeMeters>
            <DistanceMeters>57553.160418561</DistanceMeters>
          </Trackpoint>
          <Trackpoint>
            <Time>2019-08-01T11:58:12.000Z</Time>
            <Position>
              <LatitudeDegrees>40.73251920752227306365966796875</LatitudeDegrees>
              <LongitudeDegrees>-3.93121526576578617095947265625</LongitudeDegrees>
            </Position>
            <AltitudeMeters>1012.20001220703125</AltitudeMeters>
            <DistanceMeters>57562.757646272</DistanceMeters>
          </Trackpoint>
          <Trackpoint>
            <Time>2019-08-01T11:58:17.000Z</Time>
            <Position>
              <LatitudeDegrees>40.73256723582744598388671875</LatitudeDegrees>
              <LongitudeDegrees>-3.93129137344658374786376953125</LongitudeDegrees>
            </Position>
            <AltitudeMeters>1011</AltitudeMeters>
            <DistanceMeters>57571.111353877</DistanceMeters>
          </Trackpoint>
          <Trackpoint>
            <Time>2019-08-01T11:58:24.000Z</Time>
            <Position>
              <LatitudeDegrees>40.73262532241642475128173828125</LatitudeDegrees>
              <LongitudeDegrees>-3.9314116537570953369140625</LongitudeDegrees>
            </Position>
            <AltitudeMeters>1009.79998779296875</AltitudeMeters>
            <DistanceMeters>57583.140775102</DistanceMeters>
          </Trackpoint>
          <Trackpoint>
            <Time>2019-08-01T11:58:31.000Z</Time>
            <Position>
              <LatitudeDegrees>40.732676200568675994873046875</LatitudeDegrees>
              <LongitudeDegrees>-3.9315284974873065948486328125</LongitudeDegrees>
            </Position>
            <AltitudeMeters>1008.79998779296875</AltitudeMeters>
            <DistanceMeters>57594.506701092</DistanceMeters>
          </Trackpoint>
          <Trackpoint>
            <Time>2019-08-01T11:58:36.000Z</Time>
            <Position>
              <LatitudeDegrees>40.7327092252671718597412109375</LatitudeDegrees>
              <LongitudeDegrees>-3.93161214888095855712890625</LongitudeDegrees>
            </Position>
            <AltitudeMeters>1007.5999755859375</AltitudeMeters>
            <DistanceMeters>57602.462315826</DistanceMeters>
          </Trackpoint>
          <Trackpoint>
            <Time>2019-08-01T11:58:40.000Z</Time>
            <Position>
              <LatitudeDegrees>40.73272959329187870025634765625</LatitudeDegrees>
              <LongitudeDegrees>-3.9316830597817897796630859375</LongitudeDegrees>
            </Position>
            <AltitudeMeters>1006.4000244140625</AltitudeMeters>
            <DistanceMeters>57608.858820838</DistanceMeters>
          </Trackpoint>
          <Trackpoint>
            <Time>2019-08-01T11:58:44.000Z</Time>
            <Position>
              <LatitudeDegrees>40.73274669237434864044189453125</LatitudeDegrees>
              <LongitudeDegrees>-3.9317588321864604949951171875</LongitudeDegrees>
            </Position>
            <AltitudeMeters>1005</AltitudeMeters>
            <DistanceMeters>57615.526961239</DistanceMeters>
          </Trackpoint>
          <Trackpoint>
            <Time>2019-08-01T11:58:51.000Z</Time>
            <Position>
              <LatitudeDegrees>40.73278089053928852081298828125</LatitudeDegrees>
              <LongitudeDegrees>-3.93188296817243099212646484375</LongitudeDegrees>
            </Position>
            <AltitudeMeters>1004</AltitudeMeters>
            <DistanceMeters>57626.66739977</DistanceMeters>
          </Trackpoint>
          <Trackpoint>
            <Time>2019-08-01T11:58:56.000Z</Time>
            <Position>
              <LatitudeDegrees>40.73280000127851963043212890625</LatitudeDegrees>
              <LongitudeDegrees>-3.9319695532321929931640625</LongitudeDegrees>
            </Position>
            <AltitudeMeters>1002.79998779296875</AltitudeMeters>
            <DistanceMeters>57634.274286771</DistanceMeters>
          </Trackpoint>
          <Trackpoint>
            <Time>2019-08-01T11:59:01.000Z</Time>
            <Position>
              <LatitudeDegrees>40.73281425051391124725341796875</LatitudeDegrees>
              <LongitudeDegrees>-3.93205747939646244049072265625</LongitudeDegrees>
            </Position>
            <AltitudeMeters>1001.79998779296875</AltitudeMeters>
            <DistanceMeters>57641.857394761</DistanceMeters>
          </Trackpoint>
          <Trackpoint>
            <Time>2019-08-01T11:59:05.000Z</Time>
            <Position>
              <LatitudeDegrees>40.73282472789287567138671875</LatitudeDegrees>
              <LongitudeDegrees>-3.9321269653737545013427734375</LongitudeDegrees>
            </Position>
            <AltitudeMeters>1000.4000244140625</AltitudeMeters>
            <DistanceMeters>57647.834265382</DistanceMeters>
          </Trackpoint>
          <Trackpoint>
            <Time>2019-08-01T11:59:08.000Z</Time>
            <Position>
              <LatitudeDegrees>40.73283419944345951080322265625</LatitudeDegrees>
              <LongitudeDegrees>-3.93217868171632289886474609375</LongitudeDegrees>
            </Position>
            <AltitudeMeters>999.20001220703125</AltitudeMeters>
            <DistanceMeters>57652.321700113</DistanceMeters>
          </Trackpoint>
          <Trackpoint>
            <Time>2019-08-01T11:59:12.000Z</Time>
            <Position>
              <LatitudeDegrees>40.73283604346215724945068359375</LatitudeDegrees>
              <LongitudeDegrees>-3.93225043080747127532958984375</LongitudeDegrees>
            </Position>
            <AltitudeMeters>998</AltitudeMeters>
            <DistanceMeters>57658.375878859</DistanceMeters>
          </Trackpoint>
          <Trackpoint>
            <Time>2019-08-01T11:59:16.000Z</Time>
            <Position>
              <LatitudeDegrees>40.73283839039504528045654296875</LatitudeDegrees>
              <LongitudeDegrees>-3.93232067115604877471923828125</LongitudeDegrees>
            </Position>
            <AltitudeMeters>997</AltitudeMeters>
            <DistanceMeters>57664.305728577</DistanceMeters>
          </Trackpoint>
          <Trackpoint>
            <Time>2019-08-01T11:59:20.000Z</Time>
            <Position>
              <LatitudeDegrees>40.73283168487250804901123046875</LatitudeDegrees>
              <LongitudeDegrees>-3.93238923512399196624755859375</LongitudeDegrees>
            </Position>
            <AltitudeMeters>995.5999755859375</AltitudeMeters>
            <DistanceMeters>57670.135754969</DistanceMeters>
          </Trackpoint>
          <Trackpoint>
            <Time>2019-08-01T11:59:23.000Z</Time>
            <Position>
              <LatitudeDegrees>40.73281810618937015533447265625</LatitudeDegrees>
              <LongitudeDegrees>-3.93244170583784580230712890625</LongitudeDegrees>
            </Position>
            <AltitudeMeters>994.4000244140625</AltitudeMeters>
            <DistanceMeters>57674.812382509</DistanceMeters>
          </Trackpoint>
          <Trackpoint>
            <Time>2019-08-01T11:59:42.000Z</Time>
            <Position>
              <LatitudeDegrees>40.73271936737000942230224609375</LatitudeDegrees>
              <LongitudeDegrees>-3.932771198451519012451171875</LongitudeDegrees>
            </Position>
            <AltitudeMeters>995.20001220703125</AltitudeMeters>
            <DistanceMeters>57704.695980183</DistanceMeters>
          </Trackpoint>
          <Trackpoint>
            <Time>2019-08-01T11:59:47.000Z</Time>
            <Position>
              <LatitudeDegrees>40.73268282227218151092529296875</LatitudeDegrees>
              <LongitudeDegrees>-3.93285292200744152069091796875</LongitudeDegrees>
            </Position>
            <AltitudeMeters>996.4000244140625</AltitudeMeters>
            <DistanceMeters>57712.69856115</DistanceMeters>
          </Trackpoint>
          <Trackpoint>
            <Time>2019-08-01T11:59:48.000Z</Time>
            <Position>
              <LatitudeDegrees>40.7326763682067394256591796875</LatitudeDegrees>
              <LongitudeDegrees>-3.9328696019947528839111328125</LongitudeDegrees>
            </Position>
            <AltitudeMeters>996.79998779296875</AltitudeMeters>
            <DistanceMeters>57714.277263497</DistanceMeters>
          </Trackpoint>
          <Trackpoint>
            <Time>2019-08-01T11:59:52.000Z</Time>
            <Position>
              <LatitudeDegrees>40.7326528988778591156005859375</LatitudeDegrees>
              <LongitudeDegrees>-3.932938836514949798583984375</LongitudeDegrees>
            </Position>
            <AltitudeMeters>997.5999755859375</AltitudeMeters>
            <DistanceMeters>57720.67447433</DistanceMeters>
          </Trackpoint>
          <Trackpoint>
            <Time>2019-08-01T11:59:57.000Z</Time>
            <Position>
              <LatitudeDegrees>40.73262699879705905914306640625</LatitudeDegrees>
              <LongitudeDegrees>-3.93302458338439464569091796875</LongitudeDegrees>
            </Position>
            <AltitudeMeters>998.5999755859375</AltitudeMeters>
            <DistanceMeters>57728.459708629</DistanceMeters>
          </Trackpoint>
          <Trackpoint>
            <Time>2019-08-01T12:00:05.000Z</Time>
            <Position>
              <LatitudeDegrees>40.73260939680039882659912109375</LatitudeDegrees>
              <LongitudeDegrees>-3.93317990005016326904296875</LongitudeDegrees>
            </Position>
            <AltitudeMeters>999.79998779296875</AltitudeMeters>
            <DistanceMeters>57741.704946458</DistanceMeters>
          </Trackpoint>
          <Trackpoint>
            <Time>2019-08-01T12:00:08.000Z</Time>
            <Position>
              <LatitudeDegrees>40.73261107318103313446044921875</LatitudeDegrees>
              <LongitudeDegrees>-3.93323815427720546722412109375</LongitudeDegrees>
            </Position>
            <AltitudeMeters>1001.20001220703125</AltitudeMeters>
            <DistanceMeters>57746.620684914</DistanceMeters>
          </Trackpoint>
          <Trackpoint>
            <Time>2019-08-01T12:00:10.000Z</Time>
            <Position>
              <LatitudeDegrees>40.73262347839772701263427734375</LatitudeDegrees>
              <LongitudeDegrees>-3.93327855505049228668212890625</LongitudeDegrees>
            </Position>
            <AltitudeMeters>1002.4000244140625</AltitudeMeters>
            <DistanceMeters>57750.298599338</DistanceMeters>
          </Trackpoint>
          <Trackpoint>
            <Time>2019-08-01T12:00:12.000Z</Time>
            <Position>
              <LatitudeDegrees>40.7326344586908817291259765625</LatitudeDegrees>
              <LongitudeDegrees>-3.93331912346184253692626953125</LongitudeDegrees>
            </Position>
            <AltitudeMeters>1004</AltitudeMeters>
            <DistanceMeters>57753.933293526</DistanceMeters>
          </Trackpoint>
          <Trackpoint>
            <Time>2019-08-01T12:00:14.000Z</Time>
            <Position>
              <LatitudeDegrees>40.73264501988887786865234375</LatitudeDegrees>
              <LongitudeDegrees>-3.93335734494030475616455078125</LongitudeDegrees>
            </Position>
            <AltitudeMeters>1005</AltitudeMeters>
            <DistanceMeters>57757.364797523</DistanceMeters>
          </Trackpoint>
          <Trackpoint>
            <Time>2019-08-01T12:00:17.000Z</Time>
            <Position>
              <LatitudeDegrees>40.7326596044003963470458984375</LatitudeDegrees>
              <LongitudeDegrees>-3.93341585062444210052490234375</LongitudeDegrees>
            </Position>
            <AltitudeMeters>1006.20001220703125</AltitudeMeters>
            <DistanceMeters>57762.558335656</DistanceMeters>
          </Trackpoint>
          <Trackpoint>
            <Time>2019-08-01T12:00:22.000Z</Time>
            <Position>
              <LatitudeDegrees>40.73268148116767406463623046875</LatitudeDegrees>
              <LongitudeDegrees>-3.93350888974964618682861328125</LongitudeDegrees>
            </Position>
            <AltitudeMeters>1007.4000244140625</AltitudeMeters>
            <DistanceMeters>57770.774712686</DistanceMeters>
          </Trackpoint>
          <Trackpoint>
            <Time>2019-08-01T12:00:24.000Z</Time>
            <Position>
              <LatitudeDegrees>40.7326901145279407501220703125</LatitudeDegrees>
              <LongitudeDegrees>-3.9335451833903789520263671875</LongitudeDegrees>
            </Position>
            <AltitudeMeters>1008.4000244140625</AltitudeMeters>
            <DistanceMeters>57773.98318384</DistanceMeters>
          </Trackpoint>
          <Trackpoint>
            <Time>2019-08-01T12:00:27.000Z</Time>
            <Position>
              <LatitudeDegrees>40.732699669897556304931640625</LatitudeDegrees>
              <LongitudeDegrees>-3.9336001686751842498779296875</LongitudeDegrees>
            </Position>
            <AltitudeMeters>1009.4000244140625</AltitudeMeters>
            <DistanceMeters>57778.741166778</DistanceMeters>
          </Trackpoint>
          <Trackpoint>
            <Time>2019-08-01T12:00:29.000Z</Time>
            <Position>
              <LatitudeDegrees>40.7327058725059032440185546875</LatitudeDegrees>
              <LongitudeDegrees>-3.93363612703979015350341796875</LongitudeDegrees>
            </Position>
            <AltitudeMeters>1010.4000244140625</AltitudeMeters>
            <DistanceMeters>57781.852475498</DistanceMeters>
          </Trackpoint>
          <Trackpoint>
            <Time>2019-08-01T12:00:31.000Z</Time>
            <Position>
              <LatitudeDegrees>40.7327140867710113525390625</LatitudeDegrees>
              <LongitudeDegrees>-3.933671414852142333984375</LongitudeDegrees>
            </Position>
            <AltitudeMeters>1012.20001220703125</AltitudeMeters>
            <DistanceMeters>57784.966685205</DistanceMeters>
          </Trackpoint>
          <Trackpoint>
            <Time>2019-08-01T12:00:33.000Z</Time>
            <Position>
              <LatitudeDegrees>40.73271970264613628387451171875</LatitudeDegrees>
              <LongitudeDegrees>-3.9337084628641605377197265625</LongitudeDegrees>
            </Position>
            <AltitudeMeters>1013.4000244140625</AltitudeMeters>
            <DistanceMeters>57788.1539781</DistanceMeters>
          </Trackpoint>
          <Trackpoint>
            <Time>2019-08-01T12:00:36.000Z</Time>
            <Position>
              <LatitudeDegrees>40.732726491987705230712890625</LatitudeDegrees>
              <LongitudeDegrees>-3.9337641187012195587158203125</LongitudeDegrees>
            </Position>
            <AltitudeMeters>1014.5999755859375</AltitudeMeters>
            <DistanceMeters>57792.908163765</DistanceMeters>
          </Trackpoint>
          <Trackpoint>
            <Time>2019-08-01T12:00:39.000Z</Time>
            <Position>
              <LatitudeDegrees>40.73273177258670330047607421875</LatitudeDegrees>
              <LongitudeDegrees>-3.93382237292826175689697265625</LongitudeDegrees>
            </Position>
            <AltitudeMeters>1015.79998779296875</AltitudeMeters>
            <DistanceMeters>57797.855944807</DistanceMeters>
          </Trackpoint>
          <Trackpoint>
            <Time>2019-08-01T12:00:43.000Z</Time>
            <Position>
              <LatitudeDegrees>40.73273462243378162384033203125</LatitudeDegrees>
              <LongitudeDegrees>-3.93390300683677196502685546875</LongitudeDegrees>
            </Position>
            <AltitudeMeters>1016.79998779296875</AltitudeMeters>
            <DistanceMeters>57804.664129763</DistanceMeters>
          </Trackpoint>
          <Trackpoint>
            <Time>2019-08-01T12:00:47.000Z</Time>
            <Position>
              <LatitudeDegrees>40.73274132795631885528564453125</LatitudeDegrees>
              <LongitudeDegrees>-3.9339838922023773193359375</LongitudeDegrees>
            </Position>
            <AltitudeMeters>1018.20001220703125</AltitudeMeters>
            <DistanceMeters>57811.52582187</DistanceMeters>
          </Trackpoint>
          <Trackpoint>
            <Time>2019-08-01T12:00:49.000Z</Time>
            <Position>
              <LatitudeDegrees>40.732741244137287139892578125</LatitudeDegrees>
              <LongitudeDegrees>-3.934022448956966400146484375</LongitudeDegrees>
            </Position>
            <AltitudeMeters>1019.20001220703125</AltitudeMeters>
            <DistanceMeters>57814.779012549</DistanceMeters>
          </Trackpoint>
          <Trackpoint>
            <Time>2019-08-01T12:00:52.000Z</Time>
            <Position>
              <LatitudeDegrees>40.73274233378469944000244140625</LatitudeDegrees>
              <LongitudeDegrees>-3.93408087082207202911376953125</LongitudeDegrees>
            </Position>
            <AltitudeMeters>1020.5999755859375</AltitudeMeters>
            <DistanceMeters>57819.708509046</DistanceMeters>
          </Trackpoint>
          <Trackpoint>
            <Time>2019-08-01T12:00:54.000Z</Time>
            <Position>
              <LatitudeDegrees>40.7327435910701751708984375</LatitudeDegrees>
              <LongitudeDegrees>-3.93411942757666110992431640625</LongitudeDegrees>
            </Position>
            <AltitudeMeters>1022.20001220703125</AltitudeMeters>
            <DistanceMeters>57822.964474301</DistanceMeters>
          </Trackpoint>
          <Trackpoint>
            <Time>2019-08-01T12:00:56.000Z</Time>
            <Position>
              <LatitudeDegrees>40.7327497936785221099853515625</LatitudeDegrees>
              <LongitudeDegrees>-3.93415848724544048309326171875</LongitudeDegrees>
            </Position>
            <AltitudeMeters>1023.4000244140625</AltitudeMeters>
            <DistanceMeters>57826.329547237</DistanceMeters>
          </Trackpoint>
          <Trackpoint>
            <Time>2019-08-01T12:01:00.000Z</Time>
            <Position>
              <LatitudeDegrees>40.7327611930668354034423828125</LatitudeDegrees>
              <LongitudeDegrees>-3.93423794768750667572021484375</LongitudeDegrees>
            </Position>
            <AltitudeMeters>1024.4000244140625</AltitudeMeters>
            <DistanceMeters>57833.150320935</DistanceMeters>
          </Trackpoint>
          <Trackpoint>
            <Time>2019-08-01T12:01:06.000Z</Time>
            <Position>
              <LatitudeDegrees>40.732764713466167449951171875</LatitudeDegrees>
              <LongitudeDegrees>-3.93435529433190822601318359375</LongitudeDegrees>
            </Position>
            <AltitudeMeters>1025.800048828125</AltitudeMeters>
            <DistanceMeters>57843.054548336</DistanceMeters>
          </Trackpoint>
          <Trackpoint>
            <Time>2019-08-01T12:01:09.000Z</Time>
            <Position>
              <LatitudeDegrees>40.7327682338654994964599609375</LatitudeDegrees>
              <LongitudeDegrees>-3.93441262654960155487060546875</LongitudeDegrees>
            </Position>
            <AltitudeMeters>1027.199951171875</AltitudeMeters>
            <DistanceMeters>57847.905566704</DistanceMeters>
          </Trackpoint>
          <Trackpoint>
            <Time>2019-08-01T12:01:21.000Z</Time>
            <Position>
              <LatitudeDegrees>40.73279430158436298370361328125</LatitudeDegrees>
              <LongitudeDegrees>-3.93464304506778717041015625</LongitudeDegrees>
            </Position>
            <AltitudeMeters>1028.199951171875</AltitudeMeters>
            <DistanceMeters>57867.554738403</DistanceMeters>
          </Trackpoint>
          <Trackpoint>
            <Time>2019-08-01T12:02:00.000Z</Time>
            <Position>
              <LatitudeDegrees>40.732823722064495086669921875</LatitudeDegrees>
              <LongitudeDegrees>-3.9353620447218418121337890625</LongitudeDegrees>
            </Position>
            <AltitudeMeters>1028.800048828125</AltitudeMeters>
            <DistanceMeters>57928.283723581</DistanceMeters>
          </Trackpoint>
          <Trackpoint>
            <Time>2019-08-01T12:02:10.000Z</Time>
            <Position>
              <LatitudeDegrees>40.73281274177134037017822265625</LatitudeDegrees>
              <LongitudeDegrees>-3.935532867908477783203125</LongitudeDegrees>
            </Position>
            <AltitudeMeters>1029.5999755859375</AltitudeMeters>
            <DistanceMeters>57942.742780599</DistanceMeters>
          </Trackpoint>
          <Trackpoint>
            <Time>2019-08-01T12:02:25.000Z</Time>
            <Position>
              <LatitudeDegrees>40.732778124511241912841796875</LatitudeDegrees>
              <LongitudeDegrees>-3.93578776158392429351806640625</LongitudeDegrees>
            </Position>
            <AltitudeMeters>1028.5999755859375</AltitudeMeters>
            <DistanceMeters>57964.583219195</DistanceMeters>
          </Trackpoint>
          <Trackpoint>
            <Time>2019-08-01T12:02:36.000Z</Time>
            <Position>
              <LatitudeDegrees>40.73276571929454803466796875</LatitudeDegrees>
              <LongitudeDegrees>-3.93599211238324642181396484375</LongitudeDegrees>
            </Position>
            <AltitudeMeters>1027.5999755859375</AltitudeMeters>
            <DistanceMeters>57981.873381448</DistanceMeters>
          </Trackpoint>
          <Trackpoint>
            <Time>2019-08-01T12:02:48.000Z</Time>
            <Position>
              <LatitudeDegrees>40.7327196188271045684814453125</LatitudeDegrees>
              <LongitudeDegrees>-3.93619210459291934967041015625</LongitudeDegrees>
            </Position>
            <AltitudeMeters>1026.5999755859375</AltitudeMeters>
            <DistanceMeters>57999.503846313</DistanceMeters>
          </Trackpoint>
          <Trackpoint>
            <Time>2019-08-01T12:03:31.000Z</Time>
            <Position>
              <LatitudeDegrees>40.732597410678863525390625</LatitudeDegrees>
              <LongitudeDegrees>-3.93688998185098171234130859375</LongitudeDegrees>
            </Position>
            <AltitudeMeters>1026.800048828125</AltitudeMeters>
            <DistanceMeters>58059.91438475</DistanceMeters>
          </Trackpoint>
          <Trackpoint>
            <Time>2019-08-01T12:03:36.000Z</Time>
            <Position>
              <LatitudeDegrees>40.73259280063211917877197265625</LatitudeDegrees>
              <LongitudeDegrees>-3.9369713701307773590087890625</LongitudeDegrees>
            </Position>
            <AltitudeMeters>1027.5999755859375</AltitudeMeters>
            <DistanceMeters>58066.797756824</DistanceMeters>
          </Trackpoint>
          <Trackpoint>
            <Time>2019-08-01T12:03:37.000Z</Time>
            <Position>
              <LatitudeDegrees>40.7325938902795314788818359375</LatitudeDegrees>
              <LongitudeDegrees>-3.936986625194549560546875</LongitudeDegrees>
            </Position>
            <AltitudeMeters>1027.5999755859375</AltitudeMeters>
            <DistanceMeters>58068.086761892</DistanceMeters>
          </Trackpoint>
          <Trackpoint>
            <Time>2019-08-01T12:03:50.000Z</Time>
            <Position>
              <LatitudeDegrees>40.7325855083763599395751953125</LatitudeDegrees>
              <LongitudeDegrees>-3.93720614723861217498779296875</LongitudeDegrees>
            </Position>
            <AltitudeMeters>1026.4000244140625</AltitudeMeters>
            <DistanceMeters>58086.624523061</DistanceMeters>
          </Trackpoint>
          <Trackpoint>
            <Time>2019-08-01T12:03:55.000Z</Time>
            <Position>
              <LatitudeDegrees>40.732576288282871246337890625</LatitudeDegrees>
              <LongitudeDegrees>-3.937292397022247314453125</LongitudeDegrees>
            </Position>
            <AltitudeMeters>1025.4000244140625</AltitudeMeters>
            <DistanceMeters>58093.970524478</DistanceMeters>
          </Trackpoint>
          <Trackpoint>
            <Time>2019-08-01T12:03:59.000Z</Time>
            <Position>
              <LatitudeDegrees>40.7325741089880466461181640625</LatitudeDegrees>
              <LongitudeDegrees>-3.93736221827566623687744140625</LongitudeDegrees>
            </Position>
            <AltitudeMeters>1024.4000244140625</AltitudeMeters>
            <DistanceMeters>58099.863713259</DistanceMeters>
          </Trackpoint>
          <Trackpoint>
            <Time>2019-08-01T12:04:03.000Z</Time>
            <Position>
              <LatitudeDegrees>40.73256782256066799163818359375</LatitudeDegrees>
              <LongitudeDegrees>-3.9374323748052120208740234375</LongitudeDegrees>
            </Position>
            <AltitudeMeters>1023.20001220703125</AltitudeMeters>
            <DistanceMeters>58105.821668487</DistanceMeters>
          </Trackpoint>
          <Trackpoint>
            <Time>2019-08-01T12:04:08.000Z</Time>
            <Position>
              <LatitudeDegrees>40.7325546629726886749267578125</LatitudeDegrees>
              <LongitudeDegrees>-3.93752398900687694549560546875</LongitudeDegrees>
            </Position>
            <AltitudeMeters>1022</AltitudeMeters>
            <DistanceMeters>58113.685954441</DistanceMeters>
          </Trackpoint>
          <Trackpoint>
            <Time>2019-08-01T12:04:24.000Z</Time>
            <Position>
              <LatitudeDegrees>40.73254921473562717437744140625</LatitudeDegrees>
              <LongitudeDegrees>-3.9378176070749759674072265625</LongitudeDegrees>
            </Position>
            <AltitudeMeters>1020.79998779296875</AltitudeMeters>
            <DistanceMeters>58138.457142433</DistanceMeters>
          </Trackpoint>
          <Trackpoint>
            <Time>2019-08-01T12:04:32.000Z</Time>
            <Position>
              <LatitudeDegrees>40.73254753835499286651611328125</LatitudeDegrees>
              <LongitudeDegrees>-3.93795381300151348114013671875</LongitudeDegrees>
            </Position>
            <AltitudeMeters>1019.5999755859375</AltitudeMeters>
            <DistanceMeters>58149.946339857</DistanceMeters>
          </Trackpoint>
          <Trackpoint>
            <Time>2019-08-01T12:04:42.000Z</Time>
            <Position>
              <LatitudeDegrees>40.7325492985546588897705078125</LatitudeDegrees>
              <LongitudeDegrees>-3.938124887645244598388671875</LongitudeDegrees>
            </Position>
            <AltitudeMeters>1018.5999755859375</AltitudeMeters>
            <DistanceMeters>58164.376327131</DistanceMeters>
          </Trackpoint>
          <Trackpoint>
            <Time>2019-08-01T12:04:43.000Z</Time>
            <Position>
              <LatitudeDegrees>40.73255156166851520538330078125</LatitudeDegrees>
              <LongitudeDegrees>-3.938142322003841400146484375</LongitudeDegrees>
            </Position>
            <AltitudeMeters>1018.4000244140625</AltitudeMeters>
            <DistanceMeters>58165.866762908</DistanceMeters>
          </Trackpoint>
          <Trackpoint>
            <Time>2019-08-01T12:04:46.000Z</Time>
            <Position>
              <LatitudeDegrees>40.732554830610752105712890625</LatitudeDegrees>
              <LongitudeDegrees>-3.9381934516131877899169921875</LongitudeDegrees>
            </Position>
            <AltitudeMeters>1018</AltitudeMeters>
            <DistanceMeters>58170.194392576</DistanceMeters>
          </Trackpoint>
          <Trackpoint>
            <Time>2019-08-01T12:04:55.000Z</Time>
            <Position>
              <LatitudeDegrees>40.73256245814263820648193359375</LatitudeDegrees>
              <LongitudeDegrees>-3.9383688010275363922119140625</LongitudeDegrees>
            </Position>
            <AltitudeMeters>1017.79998779296875</AltitudeMeters>
            <DistanceMeters>58185.007591339</DistanceMeters>
          </Trackpoint>
          <Trackpoint>
            <Time>2019-08-01T12:05:27.000Z</Time>
            <Position>
              <LatitudeDegrees>40.732584334909915924072265625</LatitudeDegrees>
              <LongitudeDegrees>-3.93894505687057971954345703125</LongitudeDegrees>
            </Position>
            <AltitudeMeters>1017.20001220703125</AltitudeMeters>
            <DistanceMeters>58233.6703626</DistanceMeters>
          </Trackpoint>
          <Trackpoint>
            <Time>2019-08-01T12:05:35.000Z</Time>
            <Position>
              <LatitudeDegrees>40.73260344564914703369140625</LatitudeDegrees>
              <LongitudeDegrees>-3.9390631578862667083740234375</LongitudeDegrees>
            </Position>
            <AltitudeMeters>1016.20001220703125</AltitudeMeters>
            <DistanceMeters>58243.855524268</DistanceMeters>
          </Trackpoint>
          <Trackpoint>
            <Time>2019-08-01T12:05:36.000Z</Time>
            <Position>
              <LatitudeDegrees>40.73260302655398845672607421875</LatitudeDegrees>
              <LongitudeDegrees>-3.93907883204519748687744140625</LongitudeDegrees>
            </Position>
            <AltitudeMeters>1015.79998779296875</AltitudeMeters>
            <DistanceMeters>58245.179093242</DistanceMeters>
          </Trackpoint>
          <Trackpoint>
            <Time>2019-08-01T12:05:43.000Z</Time>
            <Position>
              <LatitudeDegrees>40.732607133686542510986328125</LatitudeDegrees>
              <LongitudeDegrees>-3.939195759594440460205078125</LongitudeDegrees>
            </Position>
            <AltitudeMeters>1014.79998779296875</AltitudeMeters>
            <DistanceMeters>58255.051815518</DistanceMeters>
          </Trackpoint>
          <Trackpoint>
            <Time>2019-08-01T12:05:54.000Z</Time>
            <Position>
              <LatitudeDegrees>40.73264426551759243011474609375</LatitudeDegrees>
              <LongitudeDegrees>-3.9393724501132965087890625</LongitudeDegrees>
            </Position>
            <AltitudeMeters>1013.79998779296875</AltitudeMeters>
            <DistanceMeters>58270.516373208</DistanceMeters>
          </Trackpoint>
          <Trackpoint>
            <Time>2019-08-01T12:06:13.000Z</Time>
            <Position>
              <LatitudeDegrees>40.73265365324914455413818359375</LatitudeDegrees>
              <LongitudeDegrees>-3.939686603844165802001953125</LongitudeDegrees>
            </Position>
            <AltitudeMeters>1013.4000244140625</AltitudeMeters>
            <DistanceMeters>58297.032743099</DistanceMeters>
          </Trackpoint>
          <Trackpoint>
            <Time>2019-08-01T12:06:19.000Z</Time>
            <Position>
              <LatitudeDegrees>40.73264627717435359954833984375</LatitudeDegrees>
              <LongitudeDegrees>-3.93978752195835113525390625</LongitudeDegrees>
            </Position>
            <AltitudeMeters>1013.4000244140625</AltitudeMeters>
            <DistanceMeters>58305.583563467</DistanceMeters>
          </Trackpoint>
          <Trackpoint>
            <Time>2019-08-01T12:06:27.000Z</Time>
            <Position>
              <LatitudeDegrees>40.73264636099338531494140625</LatitudeDegrees>
              <LongitudeDegrees>-3.9399218000471591949462890625</LongitudeDegrees>
            </Position>
            <AltitudeMeters>1012.20001220703125</AltitudeMeters>
            <DistanceMeters>58316.908898156</DistanceMeters>
          </Trackpoint>
          <Trackpoint>
            <Time>2019-08-01T12:06:28.000Z</Time>
            <Position>
              <LatitudeDegrees>40.7326445169746875762939453125</LatitudeDegrees>
              <LongitudeDegrees>-3.939940072596073150634765625</LongitudeDegrees>
            </Position>
            <AltitudeMeters>1012</AltitudeMeters>
            <DistanceMeters>58318.461647463</DistanceMeters>
          </Trackpoint>
          <Trackpoint>
            <Time>2019-08-01T12:06:57.000Z</Time>
            <Position>
              <LatitudeDegrees>40.73261409066617488861083984375</LatitudeDegrees>
              <LongitudeDegrees>-3.94039772450923919677734375</LongitudeDegrees>
            </Position>
            <AltitudeMeters>1012.79998779296875</AltitudeMeters>
            <DistanceMeters>58357.208549912</DistanceMeters>
          </Trackpoint>
          <Trackpoint>
            <Time>2019-08-01T12:07:02.000Z</Time>
            <Position>
              <LatitudeDegrees>40.73261124081909656524658203125</LatitudeDegrees>
              <LongitudeDegrees>-3.94048078916966915130615234375</LongitudeDegrees>
            </Position>
            <AltitudeMeters>1013.5999755859375</AltitudeMeters>
            <DistanceMeters>58364.22123815</DistanceMeters>
          </Trackpoint>
          <Trackpoint>
            <Time>2019-08-01T12:07:09.000Z</Time>
            <Position>
              <LatitudeDegrees>40.73260403238236904144287109375</LatitudeDegrees>
              <LongitudeDegrees>-3.94059444777667522430419921875</LongitudeDegrees>
            </Position>
            <AltitudeMeters>1014.79998779296875</AltitudeMeters>
            <DistanceMeters>58373.841021068</DistanceMeters>
          </Trackpoint>
          <Trackpoint>
            <Time>2019-08-01T12:07:13.000Z</Time>
            <Position>
              <LatitudeDegrees>40.73259271681308746337890625</LatitudeDegrees>
              <LongitudeDegrees>-3.94065697677433490753173828125</LongitudeDegrees>
            </Position>
            <AltitudeMeters>1016</AltitudeMeters>
            <DistanceMeters>58379.263375622</DistanceMeters>
          </Trackpoint>
          <Trackpoint>
            <Time>2019-08-01T12:07:18.000Z</Time>
            <Position>
              <LatitudeDegrees>40.7325808145105838775634765625</LatitudeDegrees>
              <LongitudeDegrees>-3.94073492847383022308349609375</LongitudeDegrees>
            </Position>
            <AltitudeMeters>1017.20001220703125</AltitudeMeters>
            <DistanceMeters>58385.970673203</DistanceMeters>
          </Trackpoint>
          <Trackpoint>
            <Time>2019-08-01T12:07:22.000Z</Time>
            <Position>
              <LatitudeDegrees>40.7325697503983974456787109375</LatitudeDegrees>
              <LongitudeDegrees>-3.94080298952758312225341796875</LongitudeDegrees>
            </Position>
            <AltitudeMeters>1018.4000244140625</AltitudeMeters>
            <DistanceMeters>58391.842370731</DistanceMeters>
          </Trackpoint>
          <Trackpoint>
            <Time>2019-08-01T12:07:25.000Z</Time>
            <Position>
              <LatitudeDegrees>40.73255491442978382110595703125</LatitudeDegrees>
              <LongitudeDegrees>-3.94085931591689586639404296875</LongitudeDegrees>
            </Position>
            <AltitudeMeters>1019.5999755859375</AltitudeMeters>
            <DistanceMeters>58396.870711814</DistanceMeters>
          </Trackpoint>
          <Trackpoint>
            <Time>2019-08-01T12:07:27.000Z</Time>
            <Position>
              <LatitudeDegrees>40.7325479574501514434814453125</LatitudeDegrees>
              <LongitudeDegrees>-3.9408974535763263702392578125</LongitudeDegrees>
            </Position>
            <AltitudeMeters>1020.79998779296875</AltitudeMeters>
            <DistanceMeters>58400.178951927</DistanceMeters>
          </Trackpoint>
          <Trackpoint>
            <Time>2019-08-01T12:07:30.000Z</Time>
            <Position>
              <LatitudeDegrees>40.732535384595394134521484375</LatitudeDegrees>
              <LongitudeDegrees>-3.940953277051448822021484375</LongitudeDegrees>
            </Position>
            <AltitudeMeters>1022</AltitudeMeters>
            <DistanceMeters>58405.091015064</DistanceMeters>
          </Trackpoint>
          <Trackpoint>
            <Time>2019-08-01T12:07:33.000Z</Time>
            <Position>
              <LatitudeDegrees>40.73252574540674686431884765625</LatitudeDegrees>
              <LongitudeDegrees>-3.94101253710687160491943359375</LongitudeDegrees>
            </Position>
            <AltitudeMeters>1023.20001220703125</AltitudeMeters>
            <DistanceMeters>58410.203063697</DistanceMeters>
          </Trackpoint>
          <Trackpoint>
            <Time>2019-08-01T12:07:36.000Z</Time>
            <Position>
              <LatitudeDegrees>40.7325144298374652862548828125</LatitudeDegrees>
              <LongitudeDegrees>-3.9410764910280704498291015625</LongitudeDegrees>
            </Position>
            <AltitudeMeters>1024.4000244140625</AltitudeMeters>
            <DistanceMeters>58415.742395765</DistanceMeters>
          </Trackpoint>
          <Trackpoint>
            <Time>2019-08-01T12:07:39.000Z</Time>
            <Position>
              <LatitudeDegrees>40.73249355889856815338134765625</LatitudeDegrees>
              <LongitudeDegrees>-3.94114228896796703338623046875</LongitudeDegrees>
            </Position>
            <AltitudeMeters>1025.5999755859375</AltitudeMeters>
            <DistanceMeters>58421.758419899</DistanceMeters>
          </Trackpoint>
          <Trackpoint>
            <Time>2019-08-01T12:07:41.000Z</Time>
            <Position>
              <LatitudeDegrees>40.73248014785349369049072265625</LatitudeDegrees>
              <LongitudeDegrees>-3.94118738360702991485595703125</LongitudeDegrees>
            </Position>
            <AltitudeMeters>1026.5999755859375</AltitudeMeters>
            <DistanceMeters>58425.843463506</DistanceMeters>
          </Trackpoint>
          <Trackpoint>
            <Time>2019-08-01T12:07:43.000Z</Time>
            <Position>
              <LatitudeDegrees>40.73246589861810207366943359375</LatitudeDegrees>
              <LongitudeDegrees>-3.94122661091387271881103515625</LongitudeDegrees>
            </Position>
            <AltitudeMeters>1028</AltitudeMeters>
            <DistanceMeters>58429.511543917</DistanceMeters>
          </Trackpoint>
          <Trackpoint>
            <Time>2019-08-01T12:07:46.000Z</Time>
            <Position>
              <LatitudeDegrees>40.73244812898337841033935546875</LatitudeDegrees>
              <LongitudeDegrees>-3.941293917596340179443359375</LongitudeDegrees>
            </Position>
            <AltitudeMeters>1029.199951171875</AltitudeMeters>
            <DistanceMeters>58435.523063353</DistanceMeters>
          </Trackpoint>
          <Trackpoint>
            <Time>2019-08-01T12:07:49.000Z</Time>
            <Position>
              <LatitudeDegrees>40.73243153281509876251220703125</LatitudeDegrees>
              <LongitudeDegrees>-3.9413760602474212646484375</LongitudeDegrees>
            </Position>
            <AltitudeMeters>1030.4000244140625</AltitudeMeters>
            <DistanceMeters>58442.692386551</DistanceMeters>
          </Trackpoint>
          <Trackpoint>
            <Time>2019-08-01T12:07:52.000Z</Time>
            <Position>
              <LatitudeDegrees>40.73242113925516605377197265625</LatitudeDegrees>
              <LongitudeDegrees>-3.941468931734561920166015625</LongitudeDegrees>
            </Position>
            <AltitudeMeters>1031.4000244140625</AltitudeMeters>
            <DistanceMeters>58450.610455808</DistanceMeters>
          </Trackpoint>
          <Trackpoint>
            <Time>2019-08-01T12:07:55.000Z</Time>
            <Position>
              <LatitudeDegrees>40.73241627775132656097412109375</LatitudeDegrees>
              <LongitudeDegrees>-3.94156792201101779937744140625</LongitudeDegrees>
            </Position>
            <AltitudeMeters>1032.800048828125</AltitudeMeters>
            <DistanceMeters>58458.977124953</DistanceMeters>
          </Trackpoint>
          <Trackpoint>
            <Time>2019-08-01T12:07:58.000Z</Time>
            <Position>
              <LatitudeDegrees>40.7323997654020786285400390625</LatitudeDegrees>
              <LongitudeDegrees>-3.94166012294590473175048828125</LongitudeDegrees>
            </Position>
            <AltitudeMeters>1033.800048828125</AltitudeMeters>
            <DistanceMeters>58466.967283929</DistanceMeters>
          </Trackpoint>
          <Trackpoint>
            <Time>2019-08-01T12:08:00.000Z</Time>
            <Position>
              <LatitudeDegrees>40.7323675788938999176025390625</LatitudeDegrees>
              <LongitudeDegrees>-3.94170085899531841278076171875</LongitudeDegrees>
            </Position>
            <AltitudeMeters>1034.800048828125</AltitudeMeters>
            <DistanceMeters>58471.930553873</DistanceMeters>
          </Trackpoint>
          <Trackpoint>
            <Time>2019-08-01T12:08:03.000Z</Time>
            <Position>
              <LatitudeDegrees>40.73231485672295093536376953125</LatitudeDegrees>
              <LongitudeDegrees>-3.94172566942870616912841796875</LongitudeDegrees>
            </Position>
            <AltitudeMeters>1035.800048828125</AltitudeMeters>
            <DistanceMeters>58478.160422938</DistanceMeters>
          </Trackpoint>
          <Trackpoint>
            <Time>2019-08-01T12:08:04.000Z</Time>
            <Position>
              <LatitudeDegrees>40.73229792527854442596435546875</LatitudeDegrees>
              <LongitudeDegrees>-3.94172600470483303070068359375</LongitudeDegrees>
            </Position>
            <AltitudeMeters>1036</AltitudeMeters>
            <DistanceMeters>58480.041855893</DistanceMeters>
          </Trackpoint>
          <Trackpoint>
            <Time>2019-08-01T12:08:07.000Z</Time>
            <Position>
              <LatitudeDegrees>40.7322502322494983673095703125</LatitudeDegrees>
              <LongitudeDegrees>-3.94171711988747119903564453125</LongitudeDegrees>
            </Position>
            <AltitudeMeters>1036.800048828125</AltitudeMeters>
            <DistanceMeters>58485.402238645</DistanceMeters>
          </Trackpoint>
          <Trackpoint>
            <Time>2019-08-01T12:08:08.000Z</Time>
            <Position>
              <LatitudeDegrees>40.732238329946994781494140625</LatitudeDegrees>
              <LongitudeDegrees>-3.94170488230884075164794921875</LongitudeDegrees>
            </Position>
            <AltitudeMeters>1037.199951171875</AltitudeMeters>
            <DistanceMeters>58487.080745079</DistanceMeters>
          </Trackpoint>
          <Trackpoint>
            <Time>2019-08-01T12:08:11.000Z</Time>
            <Position>
              <LatitudeDegrees>40.7322044670581817626953125</LatitudeDegrees>
              <LongitudeDegrees>-3.94166615791618824005126953125</LongitudeDegrees>
            </Position>
            <AltitudeMeters>1039.199951171875</AltitudeMeters>
            <DistanceMeters>58492.067610881</DistanceMeters>
          </Trackpoint>
          <Trackpoint>
            <Time>2019-08-01T12:08:13.000Z</Time>
            <Position>
              <LatitudeDegrees>40.73217831552028656005859375</LatitudeDegrees>
              <LongitudeDegrees>-3.941642940044403076171875</LongitudeDegrees>
            </Position>
            <AltitudeMeters>1040.4000244140625</AltitudeMeters>
            <DistanceMeters>58495.577172716</DistanceMeters>
          </Trackpoint>
          <Trackpoint>
            <Time>2019-08-01T12:08:16.000Z</Time>
            <Position>
              <LatitudeDegrees>40.7321328856050968170166015625</LatitudeDegrees>
              <LongitudeDegrees>-3.9416504837572574615478515625</LongitudeDegrees>
            </Position>
            <AltitudeMeters>1041.800048828125</AltitudeMeters>
            <DistanceMeters>58500.672412629</DistanceMeters>
          </Trackpoint>
          <Trackpoint>
            <Time>2019-08-01T12:08:21.000Z</Time>
            <Position>
              <LatitudeDegrees>40.73213682509958744049072265625</LatitudeDegrees>
              <LongitudeDegrees>-3.94172885455191135406494140625</LongitudeDegrees>
            </Position>
            <AltitudeMeters>1042.800048828125</AltitudeMeters>
            <DistanceMeters>58507.297076509</DistanceMeters>
          </Trackpoint>
          <Trackpoint>
            <Time>2019-08-01T12:08:26.000Z</Time>
            <Position>
              <LatitudeDegrees>40.73217353783547878265380859375</LatitudeDegrees>
              <LongitudeDegrees>-3.9417973347008228302001953125</LongitudeDegrees>
            </Position>
            <AltitudeMeters>1044.199951171875</AltitudeMeters>
            <DistanceMeters>58514.371303226</DistanceMeters>
          </Trackpoint>
          <Trackpoint>
            <Time>2019-08-01T12:08:28.000Z</Time>
            <Position>
              <LatitudeDegrees>40.7321821711957454681396484375</LatitudeDegrees>
              <LongitudeDegrees>-3.9418322034180164337158203125</LongitudeDegrees>
            </Position>
            <AltitudeMeters>1045.4000244140625</AltitudeMeters>
            <DistanceMeters>58517.465148896</DistanceMeters>
          </Trackpoint>
          <Trackpoint>
            <Time>2019-08-01T12:08:31.000Z</Time>
            <Position>
              <LatitudeDegrees>40.732196085155010223388671875</LatitudeDegrees>
              <LongitudeDegrees>-3.94188542850315570831298828125</LongitudeDegrees>
            </Position>
            <AltitudeMeters>1046.5999755859375</AltitudeMeters>
            <DistanceMeters>58522.213632958</DistanceMeters>
          </Trackpoint>
          <Trackpoint>
            <Time>2019-08-01T12:08:37.000Z</Time>
            <Position>
              <LatitudeDegrees>40.73224193416535854339599609375</LatitudeDegrees>
              <LongitudeDegrees>-3.94197310321033000946044921875</LongitudeDegrees>
            </Position>
            <AltitudeMeters>1047.800048828125</AltitudeMeters>
            <DistanceMeters>58531.1985583</DistanceMeters>
          </Trackpoint>
          <Trackpoint>
            <Time>2019-08-01T12:08:43.000Z</Time>
            <Position>
              <LatitudeDegrees>40.73227982036769390106201171875</LatitudeDegrees>
              <LongitudeDegrees>-3.942056335508823394775390625</LongitudeDegrees>
            </Position>
            <AltitudeMeters>1048.800048828125</AltitudeMeters>
            <DistanceMeters>58539.387413389</DistanceMeters>
          </Trackpoint>
          <Trackpoint>
            <Time>2019-08-01T12:08:44.000Z</Time>
            <Position>
              <LatitudeDegrees>40.73228082619607448577880859375</LatitudeDegrees>
              <LongitudeDegrees>-3.94207100383937358856201171875</LongitudeDegrees>
            </Position>
            <AltitudeMeters>1048.800048828125</AltitudeMeters>
            <DistanceMeters>58540.626410159</DistanceMeters>
          </Trackpoint>
          <Trackpoint>
            <Time>2019-08-01T12:08:51.000Z</Time>
            <Position>
              <LatitudeDegrees>40.7322401739656925201416015625</LatitudeDegrees>
              <LongitudeDegrees>-3.94214007072150707244873046875</LongitudeDegrees>
            </Position>
            <AltitudeMeters>1048.800048828125</AltitudeMeters>
            <DistanceMeters>58548.003078828</DistanceMeters>
          </Trackpoint>
          <Trackpoint>
            <Time>2019-08-01T12:13:41.000Z</Time>
            <Position>
              <LatitudeDegrees>40.732896812260150909423828125</LatitudeDegrees>
              <LongitudeDegrees>-3.94409422762691974639892578125</LongitudeDegrees>
            </Position>
            <AltitudeMeters>1083.800048828125</AltitudeMeters>
            <DistanceMeters>58728.295453668</DistanceMeters>
          </Trackpoint>
          <Trackpoint>
            <Time>2019-08-01T12:13:43.000Z</Time>
            <Position>
              <LatitudeDegrees>40.7329100556671619415283203125</LatitudeDegrees>
              <LongitudeDegrees>-3.94412331283092498779296875</LongitudeDegrees>
            </Position>
            <AltitudeMeters>1082.800048828125</AltitudeMeters>
            <DistanceMeters>58731.158897296</DistanceMeters>
          </Trackpoint>
          <Trackpoint>
            <Time>2019-08-01T12:13:45.000Z</Time>
            <Position>
              <LatitudeDegrees>40.7329224608838558197021484375</LatitudeDegrees>
              <LongitudeDegrees>-3.9441539905965328216552734375</LongitudeDegrees>
            </Position>
            <AltitudeMeters>1081.800048828125</AltitudeMeters>
            <DistanceMeters>58734.092438305</DistanceMeters>
          </Trackpoint>
          <Trackpoint>
            <Time>2019-08-01T12:13:47.000Z</Time>
            <Position>
              <LatitudeDegrees>40.73293226771056652069091796875</LatitudeDegrees>
              <LongitudeDegrees>-3.9441855065524578094482421875</LongitudeDegrees>
            </Position>
            <AltitudeMeters>1080.5999755859375</AltitudeMeters>
            <DistanceMeters>58736.96846856</DistanceMeters>
          </Trackpoint>
          <Trackpoint>
            <Time>2019-08-01T12:13:50.000Z</Time>
            <Position>
              <LatitudeDegrees>40.7329476065933704376220703125</LatitudeDegrees>
              <LongitudeDegrees>-3.94423663616180419921875</LongitudeDegrees>
            </Position>
            <AltitudeMeters>1079.199951171875</AltitudeMeters>
            <DistanceMeters>58741.606317424</DistanceMeters>
          </Trackpoint>
          <Trackpoint>
            <Time>2019-08-01T12:13:53.000Z</Time>
            <Position>
              <LatitudeDegrees>40.73296696878969669342041015625</LatitudeDegrees>
              <LongitudeDegrees>-3.944281227886676788330078125</LongitudeDegrees>
            </Position>
            <AltitudeMeters>1077.800048828125</AltitudeMeters>
            <DistanceMeters>58745.9422855</DistanceMeters>
          </Trackpoint>
          <Trackpoint>
            <Time>2019-08-01T12:13:55.000Z</Time>
            <Position>
              <LatitudeDegrees>40.73297895491123199462890625</LatitudeDegrees>
              <LongitudeDegrees>-3.9443105645477771759033203125</LongitudeDegrees>
            </Position>
            <AltitudeMeters>1076.5999755859375</AltitudeMeters>
            <DistanceMeters>58748.753213619</DistanceMeters>
          </Trackpoint>
          <Trackpoint>
            <Time>2019-08-01T12:13:56.000Z</Time>
            <Position>
              <LatitudeDegrees>40.732983313500881195068359375</LatitudeDegrees>
              <LongitudeDegrees>-3.944326825439929962158203125</LongitudeDegrees>
            </Position>
            <AltitudeMeters>1076</AltitudeMeters>
            <DistanceMeters>58750.206842831</DistanceMeters>
          </Trackpoint>
          <Trackpoint>
            <Time>2019-08-01T12:13:58.000Z</Time>
            <Position>
              <LatitudeDegrees>40.7329903542995452880859375</LatitudeDegrees>
              <LongitudeDegrees>-3.94436194561421871185302734375</LongitudeDegrees>
            </Position>
            <AltitudeMeters>1075.5999755859375</AltitudeMeters>
            <DistanceMeters>58753.271362288</DistanceMeters>
          </Trackpoint>
          <Trackpoint>
            <Time>2019-08-01T12:14:02.000Z</Time>
            <Position>
              <LatitudeDegrees>40.733012147247791290283203125</LatitudeDegrees>
              <LongitudeDegrees>-3.9444255642592906951904296875</LongitudeDegrees>
            </Position>
            <AltitudeMeters>1074.4000244140625</AltitudeMeters>
            <DistanceMeters>58759.159952403</DistanceMeters>
          </Trackpoint>
          <Trackpoint>
            <Time>2019-08-01T12:14:15.000Z</Time>
            <Position>
              <LatitudeDegrees>40.7330632768571376800537109375</LatitudeDegrees>
              <LongitudeDegrees>-3.94464374519884586334228515625</LongitudeDegrees>
            </Position>
            <AltitudeMeters>1073.4000244140625</AltitudeMeters>
            <DistanceMeters>58778.421330617</DistanceMeters>
          </Trackpoint>
          <Trackpoint>
            <Time>2019-08-01T12:14:20.000Z</Time>
            <Position>
              <LatitudeDegrees>40.73308532126247882843017578125</LatitudeDegrees>
              <LongitudeDegrees>-3.944730497896671295166015625</LongitudeDegrees>
            </Position>
            <AltitudeMeters>1072.199951171875</AltitudeMeters>
            <DistanceMeters>58786.138412588</DistanceMeters>
          </Trackpoint>
          <Trackpoint>
            <Time>2019-08-01T12:14:24.000Z</Time>
            <Position>
              <LatitudeDegrees>40.73310309089720249176025390625</LatitudeDegrees>
              <LongitudeDegrees>-3.94479646347463130950927734375</LongitudeDegrees>
            </Position>
            <AltitudeMeters>1071</AltitudeMeters>
            <DistanceMeters>58792.042317658</DistanceMeters>
          </Trackpoint>
          <Trackpoint>
            <Time>2019-08-01T12:14:28.000Z</Time>
            <Position>
              <LatitudeDegrees>40.73311247862875461578369140625</LatitudeDegrees>
              <LongitudeDegrees>-3.94486787728965282440185546875</LongitudeDegrees>
            </Position>
            <AltitudeMeters>1070</AltitudeMeters>
            <DistanceMeters>58798.155128495</DistanceMeters>
          </Trackpoint>
          <Trackpoint>
            <Time>2019-08-01T12:14:33.000Z</Time>
            <Position>
              <LatitudeDegrees>40.73313452303409576416015625</LatitudeDegrees>
              <LongitudeDegrees>-3.94495479762554168701171875</LongitudeDegrees>
            </Position>
            <AltitudeMeters>1069</AltitudeMeters>
            <DistanceMeters>58805.88623941</DistanceMeters>
          </Trackpoint>
          <Trackpoint>
            <Time>2019-08-01T12:14:42.000Z</Time>
            <Position>
              <LatitudeDegrees>40.7331407256424427032470703125</LatitudeDegrees>
              <LongitudeDegrees>-3.94511170685291290283203125</LongitudeDegrees>
            </Position>
            <AltitudeMeters>1068</AltitudeMeters>
            <DistanceMeters>58819.137611661</DistanceMeters>
          </Trackpoint>
          <Trackpoint>
            <Time>2019-08-01T12:15:05.000Z</Time>
            <Position>
              <LatitudeDegrees>40.733175091445446014404296875</LatitudeDegrees>
              <LongitudeDegrees>-3.94550154916942119598388671875</LongitudeDegrees>
            </Position>
            <AltitudeMeters>1067</AltitudeMeters>
            <DistanceMeters>58852.238568677</DistanceMeters>
          </Trackpoint>
          <Trackpoint>
            <Time>2019-08-01T12:15:29.000Z</Time>
            <Position>
              <LatitudeDegrees>40.7331846468150615692138671875</LatitudeDegrees>
              <LongitudeDegrees>-3.9458843506872653961181640625</LongitudeDegrees>
            </Position>
            <AltitudeMeters>1067.5999755859375</AltitudeMeters>
            <DistanceMeters>58884.541502191</DistanceMeters>
          </Trackpoint>
          <Trackpoint>
            <Time>2019-08-01T12:15:30.000Z</Time>
            <Position>
              <LatitudeDegrees>40.73318774811923503875732421875</LatitudeDegrees>
              <LongitudeDegrees>-3.9459004439413547515869140625</LongitudeDegrees>
            </Position>
            <AltitudeMeters>1067.800048828125</AltitudeMeters>
            <DistanceMeters>58885.944554814</DistanceMeters>
          </Trackpoint>
          <Trackpoint>
            <Time>2019-08-01T12:15:42.000Z</Time>
            <Position>
              <LatitudeDegrees>40.73319487273693084716796875</LatitudeDegrees>
              <LongitudeDegrees>-3.94608979113399982452392578125</LongitudeDegrees>
            </Position>
            <AltitudeMeters>1067</AltitudeMeters>
            <DistanceMeters>58901.933911408</DistanceMeters>
          </Trackpoint>
          <Trackpoint>
            <Time>2019-08-01T12:15:44.000Z</Time>
            <Position>
              <LatitudeDegrees>40.73319696821272373199462890625</LatitudeDegrees>
              <LongitudeDegrees>-3.9461190439760684967041015625</LongitudeDegrees>
            </Position>
            <AltitudeMeters>1066.800048828125</AltitudeMeters>
            <DistanceMeters>58904.411904948</DistanceMeters>
          </Trackpoint>
          <Trackpoint>
            <Time>2019-08-01T12:15:45.000Z</Time>
            <Position>
              <LatitudeDegrees>40.7331980578601360321044921875</LatitudeDegrees>
              <LongitudeDegrees>-3.94613371230661869049072265625</LongitudeDegrees>
            </Position>
            <AltitudeMeters>1066.800048828125</AltitudeMeters>
            <DistanceMeters>58905.650901717</DistanceMeters>
          </Trackpoint>
          <Trackpoint>
            <Time>2019-08-01T12:15:50.000Z</Time>
            <Position>
              <LatitudeDegrees>40.73319889605045318603515625</LatitudeDegrees>
              <LongitudeDegrees>-3.94620864652097225189208984375</LongitudeDegrees>
            </Position>
            <AltitudeMeters>1066.5999755859375</AltitudeMeters>
            <DistanceMeters>58911.971428451</DistanceMeters>
          </Trackpoint>
          <Trackpoint>
            <Time>2019-08-01T12:16:02.000Z</Time>
            <Position>
              <LatitudeDegrees>40.73320635594427585601806640625</LatitudeDegrees>
              <LongitudeDegrees>-3.9463852532207965850830078125</LongitudeDegrees>
            </Position>
            <AltitudeMeters>1066.800048828125</AltitudeMeters>
            <DistanceMeters>58926.889714681</DistanceMeters>
          </Trackpoint>
          <Trackpoint>
            <Time>2019-08-01T12:16:04.000Z</Time>
            <Position>
              <LatitudeDegrees>40.7332014106214046478271484375</LatitudeDegrees>
              <LongitudeDegrees>-3.94641417078673839569091796875</LongitudeDegrees>
            </Position>
            <AltitudeMeters>1067</AltitudeMeters>
            <DistanceMeters>58929.393087017</DistanceMeters>
          </Trackpoint>
          <Trackpoint>
            <Time>2019-08-01T12:16:07.000Z</Time>
            <Position>
              <LatitudeDegrees>40.733205936849117279052734375</LatitudeDegrees>
              <LongitudeDegrees>-3.946460522711277008056640625</LongitudeDegrees>
            </Position>
            <AltitudeMeters>1067</AltitudeMeters>
            <DistanceMeters>58933.335264278</DistanceMeters>
          </Trackpoint>
          <Trackpoint>
            <Time>2019-08-01T12:16:10.000Z</Time>
            <Position>
              <LatitudeDegrees>40.73321222327649593353271484375</LatitudeDegrees>
              <LongitudeDegrees>-3.946503102779388427734375</LongitudeDegrees>
            </Position>
            <AltitudeMeters>1066.5999755859375</AltitudeMeters>
            <DistanceMeters>58936.99348424</DistanceMeters>
          </Trackpoint>
          <Trackpoint>
            <Time>2019-08-01T12:16:15.000Z</Time>
            <Position>
              <LatitudeDegrees>40.733223371207714080810546875</LatitudeDegrees>
              <LongitudeDegrees>-3.9465777017176151275634765625</LongitudeDegrees>
            </Position>
            <AltitudeMeters>1065.4000244140625</AltitudeMeters>
            <DistanceMeters>58943.405499372</DistanceMeters>
          </Trackpoint>
          <Trackpoint>
            <Time>2019-08-01T12:16:20.000Z</Time>
            <Position>
              <LatitudeDegrees>40.73322781361639499664306640625</LatitudeDegrees>
              <LongitudeDegrees>-3.9466618560254573822021484375</LongitudeDegrees>
            </Position>
            <AltitudeMeters>1064.4000244140625</AltitudeMeters>
            <DistanceMeters>58950.520456051</DistanceMeters>
          </Trackpoint>
          <Trackpoint>
            <Time>2019-08-01T12:16:34.000Z</Time>
            <Position>
              <LatitudeDegrees>40.7332376204431056976318359375</LatitudeDegrees>
              <LongitudeDegrees>-3.9468787796795368194580078125</LongitudeDegrees>
            </Position>
            <AltitudeMeters>1065.5999755859375</AltitudeMeters>
            <DistanceMeters>58968.848298631</DistanceMeters>
          </Trackpoint>
          <Trackpoint>
            <Time>2019-08-01T12:16:38.000Z</Time>
            <Position>
              <LatitudeDegrees>40.73324122466146945953369140625</LatitudeDegrees>
              <LongitudeDegrees>-3.9469389617443084716796875</LongitudeDegrees>
            </Position>
            <AltitudeMeters>1066.5999755859375</AltitudeMeters>
            <DistanceMeters>58973.939105973</DistanceMeters>
          </Trackpoint>
          <Trackpoint>
            <Time>2019-08-01T12:16:45.000Z</Time>
            <Position>
              <LatitudeDegrees>40.733246169984340667724609375</LatitudeDegrees>
              <LongitudeDegrees>-3.94704951904714107513427734375</LongitudeDegrees>
            </Position>
            <AltitudeMeters>1067.800048828125</AltitudeMeters>
            <DistanceMeters>58983.279801803</DistanceMeters>
          </Trackpoint>
          <Trackpoint>
            <Time>2019-08-01T12:16:52.000Z</Time>
            <Position>
              <LatitudeDegrees>40.73325228877365589141845703125</LatitudeDegrees>
              <LongitudeDegrees>-3.94715831615030765533447265625</LongitudeDegrees>
            </Position>
            <AltitudeMeters>1068.800048828125</AltitudeMeters>
            <DistanceMeters>58992.480723858</DistanceMeters>
          </Trackpoint>
          <Trackpoint>
            <Time>2019-08-01T12:17:05.000Z</Time>
            <Position>
              <LatitudeDegrees>40.733266957104206085205078125</LatitudeDegrees>
              <LongitudeDegrees>-3.94735126756131649017333984375</LongitudeDegrees>
            </Position>
            <AltitudeMeters>1067.4000244140625</AltitudeMeters>
            <DistanceMeters>59008.835812498</DistanceMeters>
          </Trackpoint>
          <Trackpoint>
            <Time>2019-08-01T12:17:09.000Z</Time>
            <Position>
              <LatitudeDegrees>40.733279027044773101806640625</LatitudeDegrees>
              <LongitudeDegrees>-3.9474065043032169342041015625</LongitudeDegrees>
            </Position>
            <AltitudeMeters>1066</AltitudeMeters>
            <DistanceMeters>59013.684969029</DistanceMeters>
          </Trackpoint>
          <Trackpoint>
            <Time>2019-08-01T12:17:14.000Z</Time>
            <Position>
              <LatitudeDegrees>40.73329570703208446502685546875</LatitudeDegrees>
              <LongitudeDegrees>-3.947478421032428741455078125</LongitudeDegrees>
            </Position>
            <AltitudeMeters>1065</AltitudeMeters>
            <DistanceMeters>59020.028313623</DistanceMeters>
          </Trackpoint>
          <Trackpoint>
            <Time>2019-08-01T12:17:27.000Z</Time>
            <Position>
              <LatitudeDegrees>40.7333586551249027252197265625</LatitudeDegrees>
              <LongitudeDegrees>-3.94765083678066730499267578125</LongitudeDegrees>
            </Position>
            <AltitudeMeters>1066</AltitudeMeters>
            <DistanceMeters>59036.169433955</DistanceMeters>
          </Trackpoint>
          <Trackpoint>
            <Time>2019-08-01T12:17:33.000Z</Time>
            <Position>
              <LatitudeDegrees>40.73339201509952545166015625</LatitudeDegrees>
              <LongitudeDegrees>-3.9477333985269069671630859375</LongitudeDegrees>
            </Position>
            <AltitudeMeters>1067.199951171875</AltitudeMeters>
            <DistanceMeters>59044.0600852</DistanceMeters>
          </Trackpoint>
          <Trackpoint>
            <Time>2019-08-01T12:17:35.000Z</Time>
            <Position>
              <LatitudeDegrees>40.7334005646407604217529296875</LatitudeDegrees>
              <LongitudeDegrees>-3.947760723531246185302734375</LongitudeDegrees>
            </Position>
            <AltitudeMeters>1067.800048828125</AltitudeMeters>
            <DistanceMeters>59046.552612551</DistanceMeters>
          </Trackpoint>
          <Trackpoint>
            <Time>2019-08-01T12:17:37.000Z</Time>
            <Position>
              <LatitudeDegrees>40.73341405950486660003662109375</LatitudeDegrees>
              <LongitudeDegrees>-3.9477857016026973724365234375</LongitudeDegrees>
            </Position>
            <AltitudeMeters>1068.199951171875</AltitudeMeters>
            <DistanceMeters>59049.137618657</DistanceMeters>
          </Trackpoint>
          <Trackpoint>
            <Time>2019-08-01T12:17:41.000Z</Time>
            <Position>
              <LatitudeDegrees>40.733441971242427825927734375</LatitudeDegrees>
              <LongitudeDegrees>-3.94783289171755313873291015625</LongitudeDegrees>
            </Position>
            <AltitudeMeters>1069.4000244140625</AltitudeMeters>
            <DistanceMeters>59054.186569617</DistanceMeters>
          </Trackpoint>
          <Trackpoint>
            <Time>2019-08-01T12:17:49.000Z</Time>
            <Position>
              <LatitudeDegrees>40.73349972255527973175048828125</LatitudeDegrees>
              <LongitudeDegrees>-3.94792811013758182525634765625</LongitudeDegrees>
            </Position>
            <AltitudeMeters>1070</AltitudeMeters>
            <DistanceMeters>59064.473184015</DistanceMeters>
          </Trackpoint>
          <Trackpoint>
            <Time>2019-08-01T12:18:08.000Z</Time>
            <Position>
              <LatitudeDegrees>40.7336416281759738922119140625</LatitudeDegrees>
              <LongitudeDegrees>-3.94814796745777130126953125</LongitudeDegrees>
            </Position>
            <AltitudeMeters>1070.199951171875</AltitudeMeters>
            <DistanceMeters>59088.830812851</DistanceMeters>
          </Trackpoint>
          <Trackpoint>
            <Time>2019-08-01T12:18:15.000Z</Time>
            <Position>
              <LatitudeDegrees>40.73369049467146396636962890625</LatitudeDegrees>
              <LongitudeDegrees>-3.9482262544333934783935546875</LongitudeDegrees>
            </Position>
            <AltitudeMeters>1071.4000244140625</AltitudeMeters>
            <DistanceMeters>59097.385328589</DistanceMeters>
          </Trackpoint>
          <Trackpoint>
            <Time>2019-08-01T12:18:25.000Z</Time>
            <Position>
              <LatitudeDegrees>40.73377154767513275146484375</LatitudeDegrees>
              <LongitudeDegrees>-3.94832340069115161895751953125</LongitudeDegrees>
            </Position>
            <AltitudeMeters>1072</AltitudeMeters>
            <DistanceMeters>59109.572481552</DistanceMeters>
          </Trackpoint>
          <Trackpoint>
            <Time>2019-08-01T12:18:26.000Z</Time>
            <Position>
              <LatitudeDegrees>40.7337789237499237060546875</LatitudeDegrees>
              <LongitudeDegrees>-3.948335386812686920166015625</LongitudeDegrees>
            </Position>
            <AltitudeMeters>1072.4000244140625</AltitudeMeters>
            <DistanceMeters>59110.875422215</DistanceMeters>
          </Trackpoint>
          <Trackpoint>
            <Time>2019-08-01T12:18:30.000Z</Time>
            <Position>
              <LatitudeDegrees>40.7338119484484195709228515625</LatitudeDegrees>
              <LongitudeDegrees>-3.94837771542370319366455078125</LongitudeDegrees>
            </Position>
            <AltitudeMeters>1072.800048828125</AltitudeMeters>
            <DistanceMeters>59115.999820941</DistanceMeters>
          </Trackpoint>
          <Trackpoint>
            <Time>2019-08-01T12:18:41.000Z</Time>
            <Position>
              <LatitudeDegrees>40.73388881050050258636474609375</LatitudeDegrees>
              <LongitudeDegrees>-3.94851802848279476165771484375</LongitudeDegrees>
            </Position>
            <AltitudeMeters>1072.199951171875</AltitudeMeters>
            <DistanceMeters>59130.601812757</DistanceMeters>
          </Trackpoint>
          <Trackpoint>
            <Time>2019-08-01T12:18:49.000Z</Time>
            <Position>
              <LatitudeDegrees>40.733866430819034576416015625</LatitudeDegrees>
              <LongitudeDegrees>-3.948671333491802215576171875</LongitudeDegrees>
            </Position>
            <AltitudeMeters>1072.4000244140625</AltitudeMeters>
            <DistanceMeters>59143.769100546</DistanceMeters>
          </Trackpoint>
          <Trackpoint>
            <Time>2019-08-01T12:18:54.000Z</Time>
            <Position>
              <LatitudeDegrees>40.73380398564040660858154296875</LatitudeDegrees>
              <LongitudeDegrees>-3.948756493628025054931640625</LongitudeDegrees>
            </Position>
            <AltitudeMeters>1073.4000244140625</AltitudeMeters>
            <DistanceMeters>59153.764086074</DistanceMeters>
          </Trackpoint>
          <Trackpoint>
            <Time>2019-08-01T12:18:56.000Z</Time>
            <Position>
              <LatitudeDegrees>40.73378135450184345245361328125</LatitudeDegrees>
              <LongitudeDegrees>-3.9487942121922969818115234375</LongitudeDegrees>
            </Position>
            <AltitudeMeters>1074</AltitudeMeters>
            <DistanceMeters>59157.822516735</DistanceMeters>
          </Trackpoint>
          <Trackpoint>
            <Time>2019-08-01T12:18:59.000Z</Time>
            <Position>
              <LatitudeDegrees>40.73374464176595211029052734375</LatitudeDegrees>
              <LongitudeDegrees>-3.94885095767676830291748046875</LongitudeDegrees>
            </Position>
            <AltitudeMeters>1074.5999755859375</AltitudeMeters>
            <DistanceMeters>59164.115839807</DistanceMeters>
          </Trackpoint>
          <Trackpoint>
            <Time>2019-08-01T12:19:03.000Z</Time>
            <Position>
              <LatitudeDegrees>40.73369418270885944366455078125</LatitudeDegrees>
              <LongitudeDegrees>-3.9489222876727581024169921875</LongitudeDegrees>
            </Position>
            <AltitudeMeters>1075.800048828125</AltitudeMeters>
            <DistanceMeters>59172.346491876</DistanceMeters>
          </Trackpoint>
          <Trackpoint>
            <Time>2019-08-01T12:19:07.000Z</Time>
            <Position>
              <LatitudeDegrees>40.7336483336985111236572265625</LatitudeDegrees>
              <LongitudeDegrees>-3.94899210892617702484130859375</LongitudeDegrees>
            </Position>
            <AltitudeMeters>1076.800048828125</AltitudeMeters>
            <DistanceMeters>59180.138682454</DistanceMeters>
          </Trackpoint>
          <Trackpoint>
            <Time>2019-08-01T12:19:10.000Z</Time>
            <Position>
              <LatitudeDegrees>40.7336081005632877349853515625</LatitudeDegrees>
              <LongitudeDegrees>-3.949039466679096221923828125</LongitudeDegrees>
            </Position>
            <AltitudeMeters>1078</AltitudeMeters>
            <DistanceMeters>59186.138925348</DistanceMeters>
          </Trackpoint>
          <Trackpoint>
            <Time>2019-08-01T12:19:13.000Z</Time>
            <Position>
              <LatitudeDegrees>40.73356275446712970733642578125</LatitudeDegrees>
              <LongitudeDegrees>-3.94908271729946136474609375</LongitudeDegrees>
            </Position>
            <AltitudeMeters>1079.199951171875</AltitudeMeters>
            <DistanceMeters>59192.365169655</DistanceMeters>
          </Trackpoint>
          <Trackpoint>
            <Time>2019-08-01T12:19:18.000Z</Time>
            <Position>
              <LatitudeDegrees>40.73347248136997222900390625</LatitudeDegrees>
              <LongitudeDegrees>-3.94914709031581878662109375</LongitudeDegrees>
            </Position>
            <AltitudeMeters>1080.199951171875</AltitudeMeters>
            <DistanceMeters>59203.785388308</DistanceMeters>
          </Trackpoint>
          <Trackpoint>
            <Time>2019-08-01T12:19:22.000Z</Time>
            <Position>
              <LatitudeDegrees>40.73339746333658695220947265625</LatitudeDegrees>
              <LongitudeDegrees>-3.949184976518154144287109375</LongitudeDegrees>
            </Position>
            <AltitudeMeters>1081.5999755859375</AltitudeMeters>
            <DistanceMeters>59212.725478162</DistanceMeters>
          </Trackpoint>
          <Trackpoint>
            <Time>2019-08-01T12:19:24.000Z</Time>
            <Position>
              <LatitudeDegrees>40.7333589904010295867919921875</LatitudeDegrees>
              <LongitudeDegrees>-3.9492054283618927001953125</LongitudeDegrees>
            </Position>
            <AltitudeMeters>1083</AltitudeMeters>
            <DistanceMeters>59217.341859907</DistanceMeters>
          </Trackpoint>
          <Trackpoint>
            <Time>2019-08-01T12:19:27.000Z</Time>
            <Position>
              <LatitudeDegrees>40.7333043403923511505126953125</LatitudeDegrees>
              <LongitudeDegrees>-3.94922914914786815643310546875</LongitudeDegrees>
            </Position>
            <AltitudeMeters>1084.5999755859375</AltitudeMeters>
            <DistanceMeters>59223.744714509</DistanceMeters>
          </Trackpoint>
          <Trackpoint>
            <Time>2019-08-01T12:19:29.000Z</Time>
            <Position>
              <LatitudeDegrees>40.7332693040370941162109375</LatitudeDegrees>
              <LongitudeDegrees>-3.94924071617424488067626953125</LongitudeDegrees>
            </Position>
            <AltitudeMeters>1085.5999755859375</AltitudeMeters>
            <DistanceMeters>59227.765141953</DistanceMeters>
          </Trackpoint>
          <Trackpoint>
            <Time>2019-08-01T12:19:31.000Z</Time>
            <Position>
              <LatitudeDegrees>40.73323309421539306640625</LatitudeDegrees>
              <LongitudeDegrees>-3.9492458291351795196533203125</LongitudeDegrees>
            </Position>
            <AltitudeMeters>1086.5999755859375</AltitudeMeters>
            <DistanceMeters>59231.819120138</DistanceMeters>
          </Trackpoint>
          <Trackpoint>
            <Time>2019-08-01T12:19:34.000Z</Time>
            <Position>
              <LatitudeDegrees>40.73318037204444408416748046875</LatitudeDegrees>
              <LongitudeDegrees>-3.9492568932473659515380859375</LongitudeDegrees>
            </Position>
            <AltitudeMeters>1087.800048828125</AltitudeMeters>
            <DistanceMeters>59237.761139904</DistanceMeters>
          </Trackpoint>
          <Trackpoint>
            <Time>2019-08-01T12:19:37.000Z</Time>
            <Position>
              <LatitudeDegrees>40.73313175700604915618896484375</LatitudeDegrees>
              <LongitudeDegrees>-3.9492726512253284454345703125</LongitudeDegrees>
            </Position>
            <AltitudeMeters>1088.800048828125</AltitudeMeters>
            <DistanceMeters>59243.332980068</DistanceMeters>
          </Trackpoint>
          <Trackpoint>
            <Time>2019-08-01T12:19:40.000Z</Time>
            <Position>
              <LatitudeDegrees>40.73308221995830535888671875</LatitudeDegrees>
              <LongitudeDegrees>-3.949292935431003570556640625</LongitudeDegrees>
            </Position>
            <AltitudeMeters>1090</AltitudeMeters>
            <DistanceMeters>59249.105413011</DistanceMeters>
          </Trackpoint>
          <Trackpoint>
            <Time>2019-08-01T12:19:43.000Z</Time>
            <Position>
              <LatitudeDegrees>40.73303134180605411529541015625</LatitudeDegrees>
              <LongitudeDegrees>-3.9493081904947757720947265625</LongitudeDegrees>
            </Position>
            <AltitudeMeters>1091.199951171875</AltitudeMeters>
            <DistanceMeters>59254.912159556</DistanceMeters>
          </Trackpoint>
          <Trackpoint>
            <Time>2019-08-01T12:19:45.000Z</Time>
            <Position>
              <LatitudeDegrees>40.7329978980123996734619140625</LatitudeDegrees>
              <LongitudeDegrees>-3.94932067953050136566162109375</LongitudeDegrees>
            </Position>
            <AltitudeMeters>1092.4000244140625</AltitudeMeters>
            <DistanceMeters>59258.780342162</DistanceMeters>
          </Trackpoint>
          <Trackpoint>
            <Time>2019-08-01T12:19:47.000Z</Time>
            <Position>
              <LatitudeDegrees>40.7329643703997135162353515625</LatitudeDegrees>
              <LongitudeDegrees>-3.94933274947106838226318359375</LongitudeDegrees>
            </Position>
            <AltitudeMeters>1093.5999755859375</AltitudeMeters>
            <DistanceMeters>59262.648524767</DistanceMeters>
          </Trackpoint>
          <Trackpoint>
            <Time>2019-08-01T12:19:49.000Z</Time>
            <Position>
              <LatitudeDegrees>40.73293008841574192047119140625</LatitudeDegrees>
              <LongitudeDegrees>-3.94934264011681079864501953125</LongitudeDegrees>
            </Position>
            <AltitudeMeters>1094.800048828125</AltitudeMeters>
            <DistanceMeters>59266.553879951</DistanceMeters>
          </Trackpoint>
          <Trackpoint>
            <Time>2019-08-01T12:19:51.000Z</Time>
            <Position>
              <LatitudeDegrees>40.7328951358795166015625</LatitudeDegrees>
              <LongitudeDegrees>-3.9493529498577117919921875</LongitudeDegrees>
            </Position>
            <AltitudeMeters>1095.800048828125</AltitudeMeters>
            <DistanceMeters>59270.539341588</DistanceMeters>
          </Trackpoint>
          <Trackpoint>
            <Time>2019-08-01T12:19:53.000Z</Time>
            <Position>
              <LatitudeDegrees>40.7328597642481327056884765625</LatitudeDegrees>
              <LongitudeDegrees>-3.9493638463318347930908203125</LongitudeDegrees>
            </Position>
            <AltitudeMeters>1097</AltitudeMeters>
            <DistanceMeters>59274.582167131</DistanceMeters>
          </Trackpoint>
          <Trackpoint>
            <Time>2019-08-01T12:19:56.000Z</Time>
            <Position>
              <LatitudeDegrees>40.73280570097267627716064453125</LatitudeDegrees>
              <LongitudeDegrees>-3.94938220269978046417236328125</LongitudeDegrees>
            </Position>
            <AltitudeMeters>1098.4000244140625</AltitudeMeters>
            <DistanceMeters>59280.794618074</DistanceMeters>
          </Trackpoint>
          <Trackpoint>
            <Time>2019-08-01T12:19:59.000Z</Time>
            <Position>
              <LatitudeDegrees>40.732751972973346710205078125</LatitudeDegrees>
              <LongitudeDegrees>-3.94939896650612354278564453125</LongitudeDegrees>
            </Position>
            <AltitudeMeters>1099.5999755859375</AltitudeMeters>
            <DistanceMeters>59286.93984221</DistanceMeters>
          </Trackpoint>
          <Trackpoint>
            <Time>2019-08-01T12:20:02.000Z</Time>
            <Position>
              <LatitudeDegrees>40.73269790969789028167724609375</LatitudeDegrees>
              <LongitudeDegrees>-3.94941086880862712860107421875</LongitudeDegrees>
            </Position>
            <AltitudeMeters>1100.800048828125</AltitudeMeters>
            <DistanceMeters>59293.039343415</DistanceMeters>
          </Trackpoint>
          <Trackpoint>
            <Time>2019-08-01T12:20:04.000Z</Time>
            <Position>
              <LatitudeDegrees>40.73266186751425266265869140625</LatitudeDegrees>
              <LongitudeDegrees>-3.94942327402532100677490234375</LongitudeDegrees>
            </Position>
            <AltitudeMeters>1102</AltitudeMeters>
            <DistanceMeters>59297.185819696</DistanceMeters>
          </Trackpoint>
          <Trackpoint>
            <Time>2019-08-01T12:20:07.000Z</Time>
            <Position>
              <LatitudeDegrees>40.73261057026684284210205078125</LatitudeDegrees>
              <LongitudeDegrees>-3.94944607280194759368896484375</LongitudeDegrees>
            </Position>
            <AltitudeMeters>1103.4000244140625</AltitudeMeters>
            <DistanceMeters>59303.210093696</DistanceMeters>
          </Trackpoint>
          <Trackpoint>
            <Time>2019-08-01T12:20:10.000Z</Time>
            <Position>
              <LatitudeDegrees>40.7325620390474796295166015625</LatitudeDegrees>
              <LongitudeDegrees>-3.94946501590311527252197265625</LongitudeDegrees>
            </Position>
            <AltitudeMeters>1104.5999755859375</AltitudeMeters>
            <DistanceMeters>59308.843182425</DistanceMeters>
          </Trackpoint>
          <Trackpoint>
            <Time>2019-08-01T12:20:12.000Z</Time>
            <Position>
              <LatitudeDegrees>40.7325308583676815032958984375</LatitudeDegrees>
              <LongitudeDegrees>-3.9494751580059528350830078125</LongitudeDegrees>
            </Position>
            <AltitudeMeters>1105.5999755859375</AltitudeMeters>
            <DistanceMeters>59312.417753472</DistanceMeters>
          </Trackpoint>
          <Trackpoint>
            <Time>2019-08-01T12:20:15.000Z</Time>
            <Position>
              <LatitudeDegrees>40.73248350061476230621337890625</LatitudeDegrees>
              <LongitudeDegrees>-3.949492089450359344482421875</LongitudeDegrees>
            </Position>
            <AltitudeMeters>1107</AltitudeMeters>
            <DistanceMeters>59317.878276562</DistanceMeters>
          </Trackpoint>
          <Trackpoint>
            <Time>2019-08-01T12:20:19.000Z</Time>
            <Position>
              <LatitudeDegrees>40.7324192114174365997314453125</LatitudeDegrees>
              <LongitudeDegrees>-3.949514217674732208251953125</LongitudeDegrees>
            </Position>
            <AltitudeMeters>1108.199951171875</AltitudeMeters>
            <DistanceMeters>59325.273284536</DistanceMeters>
          </Trackpoint>
          <Trackpoint>
            <Time>2019-08-01T12:20:21.000Z</Time>
            <Position>
              <LatitudeDegrees>40.7323876954615116119384765625</LatitudeDegrees>
              <LongitudeDegrees>-3.94952528178691864013671875</LongitudeDegrees>
            </Position>
            <AltitudeMeters>1109.199951171875</AltitudeMeters>
            <DistanceMeters>59328.904250194</DistanceMeters>
          </Trackpoint>
          <Trackpoint>
            <Time>2019-08-01T12:20:26.000Z</Time>
            <Position>
              <LatitudeDegrees>40.732307396829128265380859375</LatitudeDegrees>
              <LongitudeDegrees>-3.94954715855419635772705078125</LongitudeDegrees>
            </Position>
            <AltitudeMeters>1110.199951171875</AltitudeMeters>
            <DistanceMeters>59338.030278632</DistanceMeters>
          </Trackpoint>
          <Trackpoint>
            <Time>2019-08-01T12:20:32.000Z</Time>
            <Position>
              <LatitudeDegrees>40.732213519513607025146484375</LatitudeDegrees>
              <LongitudeDegrees>-3.949579261243343353271484375</LongitudeDegrees>
            </Position>
            <AltitudeMeters>1111.800048828125</AltitudeMeters>
            <DistanceMeters>59348.824075289</DistanceMeters>
          </Trackpoint>
          <Trackpoint>
            <Time>2019-08-01T12:20:37.000Z</Time>
            <Position>
              <LatitudeDegrees>40.73213565163314342498779296875</LatitudeDegrees>
              <LongitudeDegrees>-3.9496079273521900177001953125</LongitudeDegrees>
            </Position>
            <AltitudeMeters>1112.800048828125</AltitudeMeters>
            <DistanceMeters>59357.821554676</DistanceMeters>
          </Trackpoint>
          <Trackpoint>
            <Time>2019-08-01T12:20:41.000Z</Time>
            <Position>
              <LatitudeDegrees>40.73207463137805461883544921875</LatitudeDegrees>
              <LongitudeDegrees>-3.949632905423641204833984375</LongitudeDegrees>
            </Position>
            <AltitudeMeters>1114.199951171875</AltitudeMeters>
            <DistanceMeters>59364.932702831</DistanceMeters>
          </Trackpoint>
          <Trackpoint>
            <Time>2019-08-01T12:20:46.000Z</Time>
            <Position>
              <LatitudeDegrees>40.7319987751543521881103515625</LatitudeDegrees>
              <LongitudeDegrees>-3.94966869615018367767333984375</LongitudeDegrees>
            </Position>
            <AltitudeMeters>1115.199951171875</AltitudeMeters>
            <DistanceMeters>59373.89851236</DistanceMeters>
          </Trackpoint>
          <Trackpoint>
            <Time>2019-08-01T12:20:52.000Z</Time>
            <Position>
              <LatitudeDegrees>40.7319206558167934417724609375</LatitudeDegrees>
              <LongitudeDegrees>-3.9497336558997631072998046875</LongitudeDegrees>
            </Position>
            <AltitudeMeters>1116.199951171875</AltitudeMeters>
            <DistanceMeters>59384.175465901</DistanceMeters>
          </Trackpoint>
          <Trackpoint>
            <Time>2019-08-01T12:20:54.000Z</Time>
            <Position>
              <LatitudeDegrees>40.73191135190427303314208984375</LatitudeDegrees>
              <LongitudeDegrees>-3.94977279938757419586181640625</LongitudeDegrees>
            </Position>
            <AltitudeMeters>1116.5999755859375</AltitudeMeters>
            <DistanceMeters>59387.634490516</DistanceMeters>
          </Trackpoint>
          <Trackpoint>
            <Time>2019-08-01T12:20:57.000Z</Time>
            <Position>
              <LatitudeDegrees>40.73191017843782901763916015625</LatitudeDegrees>
              <LongitudeDegrees>-3.9498317241668701171875</LongitudeDegrees>
            </Position>
            <AltitudeMeters>1117.5999755859375</AltitudeMeters>
            <DistanceMeters>59392.605032655</DistanceMeters>
          </Trackpoint>
          <Trackpoint>
            <Time>2019-08-01T12:21:01.000Z</Time>
            <Position>
              <LatitudeDegrees>40.73192610405385494232177734375</LatitudeDegrees>
              <LongitudeDegrees>-3.9499012939631938934326171875</LongitudeDegrees>
            </Position>
            <AltitudeMeters>1118.800048828125</AltitudeMeters>
            <DistanceMeters>59398.734808188</DistanceMeters>
          </Trackpoint>
          <Trackpoint>
            <Time>2019-08-01T12:21:06.000Z</Time>
            <Position>
              <LatitudeDegrees>40.73196164332330226898193359375</LatitudeDegrees>
              <LongitudeDegrees>-3.9499720372259616851806640625</LongitudeDegrees>
            </Position>
            <AltitudeMeters>1119.800048828125</AltitudeMeters>
            <DistanceMeters>59405.894047945</DistanceMeters>
          </Trackpoint>
          <Trackpoint>
            <Time>2019-08-01T12:21:15.000Z</Time>
            <Position>
              <LatitudeDegrees>40.73201511986553668975830078125</LatitudeDegrees>
              <LongitudeDegrees>-3.95009349100291728973388671875</LongitudeDegrees>
            </Position>
            <AltitudeMeters>1120.5999755859375</AltitudeMeters>
            <DistanceMeters>59417.74155858</DistanceMeters>
          </Trackpoint>
          <Trackpoint>
            <Time>2019-08-01T12:21:22.000Z</Time>
            <Position>
              <LatitudeDegrees>40.73205300606787204742431640625</LatitudeDegrees>
              <LongitudeDegrees>-3.9501799084246158599853515625</LongitudeDegrees>
            </Position>
            <AltitudeMeters>1120.4000244140625</AltitudeMeters>
            <DistanceMeters>59426.162019389</DistanceMeters>
          </Trackpoint>
          <Trackpoint>
            <Time>2019-08-01T12:21:26.000Z</Time>
            <Position>
              <LatitudeDegrees>40.73206909932196140289306640625</LatitudeDegrees>
              <LongitudeDegrees>-3.95023279823362827301025390625</LongitudeDegrees>
            </Position>
            <AltitudeMeters>1119.800048828125</AltitudeMeters>
            <DistanceMeters>59430.968154587</DistanceMeters>
          </Trackpoint>
          <Trackpoint>
            <Time>2019-08-01T12:21:29.000Z</Time>
            <Position>
              <LatitudeDegrees>40.7320866174995899200439453125</LatitudeDegrees>
              <LongitudeDegrees>-3.95026934333145618438720703125</LongitudeDegrees>
            </Position>
            <AltitudeMeters>1119.199951171875</AltitudeMeters>
            <DistanceMeters>59434.61648745</DistanceMeters>
          </Trackpoint>
          <Trackpoint>
            <Time>2019-08-01T12:21:32.000Z</Time>
            <Position>
              <LatitudeDegrees>40.73210463859140872955322265625</LatitudeDegrees>
              <LongitudeDegrees>-3.95030639134347438812255859375</LongitudeDegrees>
            </Position>
            <AltitudeMeters>1117.800048828125</AltitudeMeters>
            <DistanceMeters>59438.329831863</DistanceMeters>
          </Trackpoint>
          <Trackpoint>
            <Time>2019-08-01T12:21:34.000Z</Time>
            <Position>
              <LatitudeDegrees>40.732113607227802276611328125</LatitudeDegrees>
              <LongitudeDegrees>-3.95033187232911586761474609375</LongitudeDegrees>
            </Position>
            <AltitudeMeters>1117.199951171875</AltitudeMeters>
            <DistanceMeters>59440.699791261</DistanceMeters>
          </Trackpoint>
          <Trackpoint>
            <Time>2019-08-01T12:21:36.000Z</Time>
            <Position>
              <LatitudeDegrees>40.73212425224483013153076171875</LatitudeDegrees>
              <LongitudeDegrees>-3.9503596164286136627197265625</LongitudeDegrees>
            </Position>
            <AltitudeMeters>1116.5999755859375</AltitudeMeters>
            <DistanceMeters>59443.322941705</DistanceMeters>
          </Trackpoint>
          <Trackpoint>
            <Time>2019-08-01T12:21:38.000Z</Time>
            <Position>
              <LatitudeDegrees>40.732141435146331787109375</LatitudeDegrees>
              <LongitudeDegrees>-3.95037956535816192626953125</LongitudeDegrees>
            </Position>
            <AltitudeMeters>1116.199951171875</AltitudeMeters>
            <DistanceMeters>59445.871004687</DistanceMeters>
          </Trackpoint>
          <Trackpoint>
            <Time>2019-08-01T12:21:40.000Z</Time>
            <Position>
              <LatitudeDegrees>40.7321561872959136962890625</LatitudeDegrees>
              <LongitudeDegrees>-3.95040102303028106689453125</LongitudeDegrees>
            </Position>
            <AltitudeMeters>1115.800048828125</AltitudeMeters>
            <DistanceMeters>59448.315981294</DistanceMeters>
          </Trackpoint>
          <Trackpoint>
            <Time>2019-08-01T12:21:41.000Z</Time>
            <Position>
              <LatitudeDegrees>40.732161886990070343017578125</LatitudeDegrees>
              <LongitudeDegrees>-3.95041435025632381439208984375</LongitudeDegrees>
            </Position>
            <AltitudeMeters>1115.5999755859375</AltitudeMeters>
            <DistanceMeters>59449.604986362</DistanceMeters>
          </Trackpoint>
          <Trackpoint>
            <Time>2019-08-01T12:21:45.000Z</Time>
            <Position>
              <LatitudeDegrees>40.7321841828525066375732421875</LatitudeDegrees>
              <LongitudeDegrees>-3.9504675753414630889892578125</LongitudeDegrees>
            </Position>
            <AltitudeMeters>1114.800048828125</AltitudeMeters>
            <DistanceMeters>59454.732908222</DistanceMeters>
          </Trackpoint>
          <Trackpoint>
            <Time>2019-08-01T12:21:46.000Z</Time>
            <Position>
              <LatitudeDegrees>40.73219013400375843048095703125</LatitudeDegrees>
              <LongitudeDegrees>-3.950480483472347259521484375</LongitudeDegrees>
            </Position>
            <AltitudeMeters>1114.5999755859375</AltitudeMeters>
            <DistanceMeters>59456.00782538</DistanceMeters>
          </Trackpoint>
          <Trackpoint>
            <Time>2019-08-01T12:21:50.000Z</Time>
            <Position>
              <LatitudeDegrees>40.732212178409099578857421875</LatitudeDegrees>
              <LongitudeDegrees>-3.95052918232977390289306640625</LongitudeDegrees>
            </Position>
            <AltitudeMeters>1113.800048828125</AltitudeMeters>
            <DistanceMeters>59460.791361071</DistanceMeters>
          </Trackpoint>
          <Trackpoint>
            <Time>2019-08-01T12:21:56.000Z</Time>
            <Position>
              <LatitudeDegrees>40.7322421856224536895751953125</LatitudeDegrees>
              <LongitudeDegrees>-3.95060948096215724945068359375</LongitudeDegrees>
            </Position>
            <AltitudeMeters>1112.4000244140625</AltitudeMeters>
            <DistanceMeters>59468.342248613</DistanceMeters>
          </Trackpoint>
          <Trackpoint>
            <Time>2019-08-01T12:21:59.000Z</Time>
            <Position>
              <LatitudeDegrees>40.73225400410592555999755859375</LatitudeDegrees>
              <LongitudeDegrees>-3.9506516419351100921630859375</LongitudeDegrees>
            </Position>
            <AltitudeMeters>1111.800048828125</AltitudeMeters>
            <DistanceMeters>59472.13618349</DistanceMeters>
          </Trackpoint>
          <Trackpoint>
            <Time>2019-08-01T12:22:01.000Z</Time>
            <Position>
              <LatitudeDegrees>40.7322653196752071380615234375</LatitudeDegrees>
              <LongitudeDegrees>-3.9506781287491321563720703125</LongitudeDegrees>
            </Position>
            <AltitudeMeters>1111.199951171875</AltitudeMeters>
            <DistanceMeters>59474.70014442</DistanceMeters>
          </Trackpoint>
          <Trackpoint>
            <Time>2019-08-01T12:22:06.000Z</Time>
            <Position>
              <LatitudeDegrees>40.732297338545322418212890625</LatitudeDegrees>
              <LongitudeDegrees>-3.95073386840522289276123046875</LongitudeDegrees>
            </Position>
            <AltitudeMeters>1110.199951171875</AltitudeMeters>
            <DistanceMeters>59480.599459178</DistanceMeters>
          </Trackpoint>
          <Trackpoint>
            <Time>2019-08-01T12:22:11.000Z</Time>
            <Position>
              <LatitudeDegrees>40.7323226518929004669189453125</LatitudeDegrees>
              <LongitudeDegrees>-3.95079103298485279083251953125</LongitudeDegrees>
            </Position>
            <AltitudeMeters>1109.199951171875</AltitudeMeters>
            <DistanceMeters>59486.182632459</DistanceMeters>
          </Trackpoint>
          <Trackpoint>
            <Time>2019-08-01T12:22:12.000Z</Time>
            <Position>
              <LatitudeDegrees>40.7323286868631839752197265625</LatitudeDegrees>
              <LongitudeDegrees>-3.9508018456399440765380859375</LongitudeDegrees>
            </Position>
            <AltitudeMeters>1108.800048828125</AltitudeMeters>
            <DistanceMeters>59487.31500645</DistanceMeters>
          </Trackpoint>
          <Trackpoint>
            <Time>2019-08-01T12:22:16.000Z</Time>
            <Position>
              <LatitudeDegrees>40.73234821669757366180419921875</LatitudeDegrees>
              <LongitudeDegrees>-3.9508471079170703887939453125</LongitudeDegrees>
            </Position>
            <AltitudeMeters>1108</AltitudeMeters>
            <DistanceMeters>59491.706844708</DistanceMeters>
          </Trackpoint>
          <Trackpoint>
            <Time>2019-08-01T12:22:18.000Z</Time>
            <Position>
              <LatitudeDegrees>40.7323581911623477935791015625</LatitudeDegrees>
              <LongitudeDegrees>-3.9508695714175701141357421875</LongitudeDegrees>
            </Position>
            <AltitudeMeters>1107.5999755859375</AltitudeMeters>
            <DistanceMeters>59493.902763837</DistanceMeters>
          </Trackpoint>
          <Trackpoint>
            <Time>2019-08-01T12:22:21.000Z</Time>
            <Position>
              <LatitudeDegrees>40.73236699216067790985107421875</LatitudeDegrees>
              <LongitudeDegrees>-3.95090125501155853271484375</LongitudeDegrees>
            </Position>
            <AltitudeMeters>1107.4000244140625</AltitudeMeters>
            <DistanceMeters>59496.750395949</DistanceMeters>
          </Trackpoint>
          <Trackpoint>
            <Time>2019-08-01T12:22:25.000Z</Time>
            <Position>
              <LatitudeDegrees>40.73238627053797245025634765625</LatitudeDegrees>
              <LongitudeDegrees>-3.950950540602207183837890625</LongitudeDegrees>
            </Position>
            <AltitudeMeters>1107.199951171875</AltitudeMeters>
            <DistanceMeters>59501.427988837</DistanceMeters>
          </Trackpoint>
          <Trackpoint>
            <Time>2019-08-01T12:22:27.000Z</Time>
            <Position>
              <LatitudeDegrees>40.7324002683162689208984375</LatitudeDegrees>
              <LongitudeDegrees>-3.95097325555980205535888671875</LongitudeDegrees>
            </Position>
            <AltitudeMeters>1107</AltitudeMeters>
            <DistanceMeters>59503.898683411</DistanceMeters>
          </Trackpoint>
          <Trackpoint>
            <Time>2019-08-01T12:22:41.000Z</Time>
            <Position>
              <LatitudeDegrees>40.73246237821877002716064453125</LatitudeDegrees>
              <LongitudeDegrees>-3.951136283576488494873046875</LongitudeDegrees>
            </Position>
            <AltitudeMeters>1106</AltitudeMeters>
            <DistanceMeters>59519.288904498</DistanceMeters>
          </Trackpoint>
          <Trackpoint>
            <Time>2019-08-01T12:22:49.000Z</Time>
            <Position>
              <LatitudeDegrees>40.73250143788754940032958984375</LatitudeDegrees>
              <LongitudeDegrees>-3.95122488029301166534423828125</LongitudeDegrees>
            </Position>
            <AltitudeMeters>1104.800048828125</AltitudeMeters>
            <DistanceMeters>59527.933724488</DistanceMeters>
          </Trackpoint>
          <Trackpoint>
            <Time>2019-08-01T12:22:54.000Z</Time>
            <Position>
              <LatitudeDegrees>40.73253110982477664947509765625</LatitudeDegrees>
              <LongitudeDegrees>-3.9512769319117069244384765625</LongitudeDegrees>
            </Position>
            <AltitudeMeters>1103.5999755859375</AltitudeMeters>
            <DistanceMeters>59533.427222051</DistanceMeters>
          </Trackpoint>
          <Trackpoint>
            <Time>2019-08-01T12:22:58.000Z</Time>
            <Position>
              <LatitudeDegrees>40.732547454535961151123046875</LatitudeDegrees>
              <LongitudeDegrees>-3.9513221941888332366943359375</LongitudeDegrees>
            </Position>
            <AltitudeMeters>1102.199951171875</AltitudeMeters>
            <DistanceMeters>59537.655643903</DistanceMeters>
          </Trackpoint>
          <Trackpoint>
            <Time>2019-08-01T12:23:02.000Z</Time>
            <Position>
              <LatitudeDegrees>40.7325612008571624755859375</LatitudeDegrees>
              <LongitudeDegrees>-3.95136804319918155670166015625</LongitudeDegrees>
            </Position>
            <AltitudeMeters>1101</AltitudeMeters>
            <DistanceMeters>59541.814080675</DistanceMeters>
          </Trackpoint>
          <Trackpoint>
            <Time>2019-08-01T12:23:13.000Z</Time>
            <Position>
              <LatitudeDegrees>40.7326042838394641876220703125</LatitudeDegrees>
              <LongitudeDegrees>-3.95149544812738895416259765625</LongitudeDegrees>
            </Position>
            <AltitudeMeters>1100</AltitudeMeters>
            <DistanceMeters>59553.5805216</DistanceMeters>
          </Trackpoint>
          <Trackpoint>
            <Time>2019-08-01T12:23:15.000Z</Time>
            <Position>
              <LatitudeDegrees>40.73261610232293605804443359375</LatitudeDegrees>
              <LongitudeDegrees>-3.9515183307230472564697265625</LongitudeDegrees>
            </Position>
            <AltitudeMeters>1099.5999755859375</AltitudeMeters>
            <DistanceMeters>59555.915937232</DistanceMeters>
          </Trackpoint>
          <Trackpoint>
            <Time>2019-08-01T12:23:20.000Z</Time>
            <Position>
              <LatitudeDegrees>40.73264661245048046112060546875</LatitudeDegrees>
              <LongitudeDegrees>-3.951583206653594970703125</LongitudeDegrees>
            </Position>
            <AltitudeMeters>1099</AltitudeMeters>
            <DistanceMeters>59562.356056882</DistanceMeters>
          </Trackpoint>
          <Trackpoint>
            <Time>2019-08-01T12:23:35.000Z</Time>
            <Position>
              <LatitudeDegrees>40.73272255249321460723876953125</LatitudeDegrees>
              <LongitudeDegrees>-3.95175025798380374908447265625</LongitudeDegrees>
            </Position>
            <AltitudeMeters>1098.199951171875</AltitudeMeters>
            <DistanceMeters>59578.786337929</DistanceMeters>
          </Trackpoint>
          <Trackpoint>
            <Time>2019-08-01T12:23:40.000Z</Time>
            <Position>
              <LatitudeDegrees>40.73275255970656871795654296875</LatitudeDegrees>
              <LongitudeDegrees>-3.95181027241051197052001953125</LongitudeDegrees>
            </Position>
            <AltitudeMeters>1098.199951171875</AltitudeMeters>
            <DistanceMeters>59584.850203963</DistanceMeters>
          </Trackpoint>
          <Trackpoint>
            <Time>2019-08-01T12:23:45.000Z</Time>
            <Position>
              <LatitudeDegrees>40.732774436473846435546875</LatitudeDegrees>
              <LongitudeDegrees>-3.95187464542686939239501953125</LongitudeDegrees>
            </Position>
            <AltitudeMeters>1097.800048828125</AltitudeMeters>
            <DistanceMeters>59590.799817367</DistanceMeters>
          </Trackpoint>
          <Trackpoint>
            <Time>2019-08-01T12:23:50.000Z</Time>
            <Position>
              <LatitudeDegrees>40.7328051142394542694091796875</LatitudeDegrees>
              <LongitudeDegrees>-3.9519310556352138519287109375</LongitudeDegrees>
            </Position>
            <AltitudeMeters>1098</AltitudeMeters>
            <DistanceMeters>59596.655344693</DistanceMeters>
          </Trackpoint>
          <Trackpoint>
            <Time>2019-08-01T12:23:55.000Z</Time>
            <Position>
              <LatitudeDegrees>40.732824392616748809814453125</LatitudeDegrees>
              <LongitudeDegrees>-3.95199693739414215087890625</LongitudeDegrees>
            </Position>
            <AltitudeMeters>1097.4000244140625</AltitudeMeters>
            <DistanceMeters>59602.611026037</DistanceMeters>
          </Trackpoint>
          <Trackpoint>
            <Time>2019-08-01T12:23:56.000Z</Time>
            <Position>
              <LatitudeDegrees>40.732829757034778594970703125</LatitudeDegrees>
              <LongitudeDegrees>-3.9520083367824554443359375</LongitudeDegrees>
            </Position>
            <AltitudeMeters>1097.4000244140625</AltitudeMeters>
            <DistanceMeters>59603.739405751</DistanceMeters>
          </Trackpoint>
          <Trackpoint>
            <Time>2019-08-01T12:24:00.000Z</Time>
            <Position>
              <LatitudeDegrees>40.7328483648598194122314453125</LatitudeDegrees>
              <LongitudeDegrees>-3.9520581252872943878173828125</LongitudeDegrees>
            </Position>
            <AltitudeMeters>1096.5999755859375</AltitudeMeters>
            <DistanceMeters>59608.421822392</DistanceMeters>
          </Trackpoint>
          <Trackpoint>
            <Time>2019-08-01T12:24:01.000Z</Time>
            <Position>
              <LatitudeDegrees>40.7328520528972148895263671875</LatitudeDegrees>
              <LongitudeDegrees>-3.95207128487527370452880859375</LongitudeDegrees>
            </Position>
            <AltitudeMeters>1096.4000244140625</AltitudeMeters>
            <DistanceMeters>59609.608705674</DistanceMeters>
          </Trackpoint>
          <Trackpoint>
            <Time>2019-08-01T12:24:05.000Z</Time>
            <Position>
              <LatitudeDegrees>40.73286487720906734466552734375</LatitudeDegrees>
              <LongitudeDegrees>-3.952126689255237579345703125</LongitudeDegrees>
            </Position>
            <AltitudeMeters>1095.4000244140625</AltitudeMeters>
            <DistanceMeters>59614.494964173</DistanceMeters>
          </Trackpoint>
          <Trackpoint>
            <Time>2019-08-01T12:24:06.000Z</Time>
            <Position>
              <LatitudeDegrees>40.73287032544612884521484375</LatitudeDegrees>
              <LongitudeDegrees>-3.952138759195804595947265625</LongitudeDegrees>
            </Position>
            <AltitudeMeters>1095.4000244140625</AltitudeMeters>
            <DistanceMeters>59615.681847455</DistanceMeters>
          </Trackpoint>
          <Trackpoint>
            <Time>2019-08-01T12:24:10.000Z</Time>
            <Position>
              <LatitudeDegrees>40.73288373649120330810546875</LatitudeDegrees>
              <LongitudeDegrees>-3.95219299010932445526123046875</LongitudeDegrees>
            </Position>
            <AltitudeMeters>1095</AltitudeMeters>
            <DistanceMeters>59620.493615945</DistanceMeters>
          </Trackpoint>
          <Trackpoint>
            <Time>2019-08-01T12:24:19.000Z</Time>
            <Position>
              <LatitudeDegrees>40.7328956387937068939208984375</LatitudeDegrees>
              <LongitudeDegrees>-3.95233514718711376190185546875</LongitudeDegrees>
            </Position>
            <AltitudeMeters>1096.199951171875</AltitudeMeters>
            <DistanceMeters>59632.556395551</DistanceMeters>
          </Trackpoint>
          <Trackpoint>
            <Time>2019-08-01T12:24:32.000Z</Time>
            <Position>
              <LatitudeDegrees>40.73287527076900005340576171875</LatitudeDegrees>
              <LongitudeDegrees>-3.9525275118649005889892578125</LongitudeDegrees>
            </Position>
            <AltitudeMeters>1094.800048828125</AltitudeMeters>
            <DistanceMeters>59648.937964821</DistanceMeters>
          </Trackpoint>
          <Trackpoint>
            <Time>2019-08-01T12:24:49.000Z</Time>
            <Position>
              <LatitudeDegrees>40.732822380959987640380859375</LatitudeDegrees>
              <LongitudeDegrees>-3.95277075469493865966796875</LongitudeDegrees>
            </Position>
            <AltitudeMeters>1095.800048828125</AltitudeMeters>
            <DistanceMeters>59670.281142567</DistanceMeters>
          </Trackpoint>
          <Trackpoint>
            <Time>2019-08-01T12:24:56.000Z</Time>
            <Position>
              <LatitudeDegrees>40.73278290219604969024658203125</LatitudeDegrees>
              <LongitudeDegrees>-3.9528639614582061767578125</LongitudeDegrees>
            </Position>
            <AltitudeMeters>1097</AltitudeMeters>
            <DistanceMeters>59679.287148709</DistanceMeters>
          </Trackpoint>
          <Trackpoint>
            <Time>2019-08-01T12:24:59.000Z</Time>
            <Position>
              <LatitudeDegrees>40.73277032934129238128662109375</LatitudeDegrees>
              <LongitudeDegrees>-3.95290813408792018890380859375</LongitudeDegrees>
            </Position>
            <AltitudeMeters>1097.5999755859375</AltitudeMeters>
            <DistanceMeters>59683.26694193</DistanceMeters>
          </Trackpoint>
          <Trackpoint>
            <Time>2019-08-01T12:25:02.000Z</Time>
            <Position>
              <LatitudeDegrees>40.7327487878501415252685546875</LatitudeDegrees>
              <LongitudeDegrees>-3.9529479481279850006103515625</LongitudeDegrees>
            </Position>
            <AltitudeMeters>1097.800048828125</AltitudeMeters>
            <DistanceMeters>59687.393771727</DistanceMeters>
          </Trackpoint>
          <Trackpoint>
            <Time>2019-08-01T12:25:04.000Z</Time>
            <Position>
              <LatitudeDegrees>40.73273998685181140899658203125</LatitudeDegrees>
              <LongitudeDegrees>-3.95297619514167308807373046875</LongitudeDegrees>
            </Position>
            <AltitudeMeters>1098.199951171875</AltitudeMeters>
            <DistanceMeters>59689.971781863</DistanceMeters>
          </Trackpoint>
          <Trackpoint>
            <Time>2019-08-01T12:25:08.000Z</Time>
            <Position>
              <LatitudeDegrees>40.73272012174129486083984375</LatitudeDegrees>
              <LongitudeDegrees>-3.95302749238908290863037109375</LongitudeDegrees>
            </Position>
            <AltitudeMeters>1099</AltitudeMeters>
            <DistanceMeters>59694.830240448</DistanceMeters>
          </Trackpoint>
          <Trackpoint>
            <Time>2019-08-01T12:25:14.000Z</Time>
            <Position>
              <LatitudeDegrees>40.73268525302410125732421875</LatitudeDegrees>
              <LongitudeDegrees>-3.95311567001044750213623046875</LongitudeDegrees>
            </Position>
            <AltitudeMeters>1099.800048828125</AltitudeMeters>
            <DistanceMeters>59703.218467654</DistanceMeters>
          </Trackpoint>
          <Trackpoint>
            <Time>2019-08-01T12:25:15.000Z</Time>
            <Position>
              <LatitudeDegrees>40.73267645202577114105224609375</LatitudeDegrees>
              <LongitudeDegrees>-3.95312908105552196502685546875</LongitudeDegrees>
            </Position>
            <AltitudeMeters>1100</AltitudeMeters>
            <DistanceMeters>59704.714949848</DistanceMeters>
          </Trackpoint>
          <Trackpoint>
            <Time>2019-08-01T12:25:19.000Z</Time>
            <Position>
              <LatitudeDegrees>40.732654072344303131103515625</LatitudeDegrees>
              <LongitudeDegrees>-3.95318783819675445556640625</LongitudeDegrees>
            </Position>
            <AltitudeMeters>1101</AltitudeMeters>
            <DistanceMeters>59710.261612849</DistanceMeters>
          </Trackpoint>
          <Trackpoint>
            <Time>2019-08-01T12:25:21.000Z</Time>
            <Position>
              <LatitudeDegrees>40.732645355165004730224609375</LatitudeDegrees>
              <LongitudeDegrees>-3.95321859978139400482177734375</LongitudeDegrees>
            </Position>
            <AltitudeMeters>1101.4000244140625</AltitudeMeters>
            <DistanceMeters>59713.03209385</DistanceMeters>
          </Trackpoint>
          <Trackpoint>
            <Time>2019-08-01T12:25:23.000Z</Time>
            <Position>
              <LatitudeDegrees>40.7326307706534862518310546875</LatitudeDegrees>
              <LongitudeDegrees>-3.95324818789958953857421875</LongitudeDegrees>
            </Position>
            <AltitudeMeters>1102</AltitudeMeters>
            <DistanceMeters>59716.009934522</DistanceMeters>
          </Trackpoint>
          <Trackpoint>
            <Time>2019-08-01T12:25:27.000Z</Time>
            <Position>
              <LatitudeDegrees>40.73261073790490627288818359375</LatitudeDegrees>
              <LongitudeDegrees>-3.9533038437366485595703125</LongitudeDegrees>
            </Position>
            <AltitudeMeters>1103</AltitudeMeters>
            <DistanceMeters>59721.206080071</DistanceMeters>
          </Trackpoint>
          <Trackpoint>
            <Time>2019-08-01T12:25:34.000Z</Time>
            <Position>
              <LatitudeDegrees>40.732582993805408477783203125</LatitudeDegrees>
              <LongitudeDegrees>-3.9533982239663600921630859375</LongitudeDegrees>
            </Position>
            <AltitudeMeters>1104.4000244140625</AltitudeMeters>
            <DistanceMeters>59729.744747251</DistanceMeters>
          </Trackpoint>
          <Trackpoint>
            <Time>2019-08-01T12:25:37.000Z</Time>
            <Position>
              <LatitudeDegrees>40.73256413452327251434326171875</LatitudeDegrees>
              <LongitudeDegrees>-3.9534381218254566192626953125</LongitudeDegrees>
            </Position>
            <AltitudeMeters>1105.199951171875</AltitudeMeters>
            <DistanceMeters>59733.71090322</DistanceMeters>
          </Trackpoint>
          <Trackpoint>
            <Time>2019-08-01T12:25:40.000Z</Time>
            <Position>
              <LatitudeDegrees>40.73254988528788089752197265625</LatitudeDegrees>
              <LongitudeDegrees>-3.95347676239907741546630859375</LongitudeDegrees>
            </Position>
            <AltitudeMeters>1106.4000244140625</AltitudeMeters>
            <DistanceMeters>59737.335646138</DistanceMeters>
          </Trackpoint>
          <Trackpoint>
            <Time>2019-08-01T12:25:41.000Z</Time>
            <Position>
              <LatitudeDegrees>40.73254443705081939697265625</LatitudeDegrees>
              <LongitudeDegrees>-3.95348615013062953948974609375</LongitudeDegrees>
            </Position>
            <AltitudeMeters>1107</AltitudeMeters>
            <DistanceMeters>59738.327754163</DistanceMeters>
          </Trackpoint>
          <Trackpoint>
            <Time>2019-08-01T12:25:42.000Z</Time>
            <Position>
              <LatitudeDegrees>40.7325389049947261810302734375</LatitudeDegrees>
              <LongitudeDegrees>-3.95349754951894283294677734375</LongitudeDegrees>
            </Position>
            <AltitudeMeters>1107.5999755859375</AltitudeMeters>
            <DistanceMeters>59739.468074735</DistanceMeters>
          </Trackpoint>
          <Trackpoint>
            <Time>2019-08-01T12:25:44.000Z</Time>
            <Position>
              <LatitudeDegrees>40.7325288467109203338623046875</LatitudeDegrees>
              <LongitudeDegrees>-3.95351816900074481964111328125</LongitudeDegrees>
            </Position>
            <AltitudeMeters>1108.800048828125</AltitudeMeters>
            <DistanceMeters>59741.536952749</DistanceMeters>
          </Trackpoint>
          <Trackpoint>
            <Time>2019-08-01T12:25:47.000Z</Time>
            <Position>
              <LatitudeDegrees>40.73251401074230670928955078125</LatitudeDegrees>
              <LongitudeDegrees>-3.95355655811727046966552734375</LongitudeDegrees>
            </Position>
            <AltitudeMeters>1110.199951171875</AltitudeMeters>
            <DistanceMeters>59745.171646936</DistanceMeters>
          </Trackpoint>
          <Trackpoint>
            <Time>2019-08-01T12:25:50.000Z</Time>
            <Position>
              <LatitudeDegrees>40.732501186430454254150390625</LatitudeDegrees>
              <LongitudeDegrees>-3.95359712652862071990966796875</LongitudeDegrees>
            </Position>
            <AltitudeMeters>1111.4000244140625</AltitudeMeters>
            <DistanceMeters>59748.880124579</DistanceMeters>
          </Trackpoint>
          <Trackpoint>
            <Time>2019-08-01T12:25:52.000Z</Time>
            <Position>
              <LatitudeDegrees>40.73249221779406070709228515625</LatitudeDegrees>
              <LongitudeDegrees>-3.953624032437801361083984375</LongitudeDegrees>
            </Position>
            <AltitudeMeters>1112.4000244140625</AltitudeMeters>
            <DistanceMeters>59751.358118118</DistanceMeters>
          </Trackpoint>
          <Trackpoint>
            <Time>2019-08-01T12:25:54.000Z</Time>
            <Position>
              <LatitudeDegrees>40.73248551227152347564697265625</LatitudeDegrees>
              <LongitudeDegrees>-3.95365177653729915618896484375</LongitudeDegrees>
            </Position>
            <AltitudeMeters>1113.5999755859375</AltitudeMeters>
            <DistanceMeters>59753.814149686</DistanceMeters>
          </Trackpoint>
          <Trackpoint>
            <Time>2019-08-01T12:25:57.000Z</Time>
            <Position>
              <LatitudeDegrees>40.73247042484581470489501953125</LatitudeDegrees>
              <LongitudeDegrees>-3.95369402132928371429443359375</LongitudeDegrees>
            </Position>
            <AltitudeMeters>1114.800048828125</AltitudeMeters>
            <DistanceMeters>59757.752889501</DistanceMeters>
          </Trackpoint>
          <Trackpoint>
            <Time>2019-08-01T12:26:00.000Z</Time>
            <Position>
              <LatitudeDegrees>40.73245919309556484222412109375</LatitudeDegrees>
              <LongitudeDegrees>-3.9537331648170948028564453125</LongitudeDegrees>
            </Position>
            <AltitudeMeters>1116.199951171875</AltitudeMeters>
            <DistanceMeters>59761.282975264</DistanceMeters>
          </Trackpoint>
          <Trackpoint>
            <Time>2019-08-01T12:26:04.000Z</Time>
            <Position>
              <LatitudeDegrees>40.7324443571269512176513671875</LatitudeDegrees>
              <LongitudeDegrees>-3.9537847973406314849853515625</LongitudeDegrees>
            </Position>
            <AltitudeMeters>1117.199951171875</AltitudeMeters>
            <DistanceMeters>59765.940253828</DistanceMeters>
          </Trackpoint>
          <Trackpoint>
            <Time>2019-08-01T12:26:06.000Z</Time>
            <Position>
              <LatitudeDegrees>40.7324383221566677093505859375</LatitudeDegrees>
              <LongitudeDegrees>-3.95380952395498752593994140625</LongitudeDegrees>
            </Position>
            <AltitudeMeters>1117.800048828125</AltitudeMeters>
            <DistanceMeters>59768.132056891</DistanceMeters>
          </Trackpoint>
          <Trackpoint>
            <Time>2019-08-01T12:26:08.000Z</Time>
            <Position>
              <LatitudeDegrees>40.73243170045316219329833984375</LatitudeDegrees>
              <LongitudeDegrees>-3.9538367651402950286865234375</LongitudeDegrees>
            </Position>
            <AltitudeMeters>1118.4000244140625</AltitudeMeters>
            <DistanceMeters>59770.547306233</DistanceMeters>
          </Trackpoint>
          <Trackpoint>
            <Time>2019-08-01T12:26:12.000Z</Time>
            <Position>
              <LatitudeDegrees>40.7324161939322948455810546875</LatitudeDegrees>
              <LongitudeDegrees>-3.95389049313962459564208984375</LongitudeDegrees>
            </Position>
            <AltitudeMeters>1119.5999755859375</AltitudeMeters>
            <DistanceMeters>59775.396462764</DistanceMeters>
          </Trackpoint>
          <Trackpoint>
            <Time>2019-08-01T12:26:17.000Z</Time>
            <Position>
              <LatitudeDegrees>40.73240219615399837493896484375</LatitudeDegrees>
              <LongitudeDegrees>-3.9539604820311069488525390625</LongitudeDegrees>
            </Position>
            <AltitudeMeters>1120.5999755859375</AltitudeMeters>
            <DistanceMeters>59781.501882942</DistanceMeters>
          </Trackpoint>
          <Trackpoint>
            <Time>2019-08-01T12:26:18.000Z</Time>
            <Position>
              <LatitudeDegrees>40.73240227997303009033203125</LatitudeDegrees>
              <LongitudeDegrees>-3.95397481508553028106689453125</LongitudeDegrees>
            </Position>
            <AltitudeMeters>1120.800048828125</AltitudeMeters>
            <DistanceMeters>59782.715102816</DistanceMeters>
          </Trackpoint>
          <Trackpoint>
            <Time>2019-08-01T12:26:25.000Z</Time>
            <Position>
              <LatitudeDegrees>40.732391886413097381591796875</LatitudeDegrees>
              <LongitudeDegrees>-3.95408059470355510711669921875</LongitudeDegrees>
            </Position>
            <AltitudeMeters>1122</AltitudeMeters>
            <DistanceMeters>59791.711076642</DistanceMeters>
          </Trackpoint>
          <Trackpoint>
            <Time>2019-08-01T12:26:31.000Z</Time>
            <Position>
              <LatitudeDegrees>40.7323786430060863494873046875</LatitudeDegrees>
              <LongitudeDegrees>-3.954163827002048492431640625</LongitudeDegrees>
            </Position>
            <AltitudeMeters>1123.199951171875</AltitudeMeters>
            <DistanceMeters>59798.882918485</DistanceMeters>
          </Trackpoint>
          <Trackpoint>
            <Time>2019-08-01T12:26:32.000Z</Time>
            <Position>
              <LatitudeDegrees>40.7323783077299594879150390625</LatitudeDegrees>
              <LongitudeDegrees>-3.9541782438755035400390625</LongitudeDegrees>
            </Position>
            <AltitudeMeters>1123.4000244140625</AltitudeMeters>
            <DistanceMeters>59800.099854201</DistanceMeters>
          </Trackpoint>
          <Trackpoint>
            <Time>2019-08-01T12:26:36.000Z</Time>
            <Position>
              <LatitudeDegrees>40.7323773019015789031982421875</LatitudeDegrees>
              <LongitudeDegrees>-3.95423465408384799957275390625</LongitudeDegrees>
            </Position>
            <AltitudeMeters>1123.800048828125</AltitudeMeters>
            <DistanceMeters>59804.856888106</DistanceMeters>
          </Trackpoint>
          <Trackpoint>
            <Time>2019-08-01T12:26:39.000Z</Time>
            <Position>
              <LatitudeDegrees>40.732379816472530364990234375</LatitudeDegrees>
              <LongitudeDegrees>-3.95427589304745197296142578125</LongitudeDegrees>
            </Position>
            <AltitudeMeters>1124.4000244140625</AltitudeMeters>
            <DistanceMeters>59808.34580528</DistanceMeters>
          </Trackpoint>
          <Trackpoint>
            <Time>2019-08-01T12:26:43.000Z</Time>
            <Position>
              <LatitudeDegrees>40.73237973265349864959716796875</LatitudeDegrees>
              <LongitudeDegrees>-3.95433573983609676361083984375</LongitudeDegrees>
            </Position>
            <AltitudeMeters>1125.4000244140625</AltitudeMeters>
            <DistanceMeters>59813.393861908</DistanceMeters>
          </Trackpoint>
          <Trackpoint>
            <Time>2019-08-01T12:26:46.000Z</Time>
            <Position>
              <LatitudeDegrees>40.73237369768321514129638671875</LatitudeDegrees>
              <LongitudeDegrees>-3.95438049919903278350830078125</LongitudeDegrees>
            </Position>
            <AltitudeMeters>1126.5999755859375</AltitudeMeters>
            <DistanceMeters>59817.228045583</DistanceMeters>
          </Trackpoint>
          <Trackpoint>
            <Time>2019-08-01T12:26:56.000Z</Time>
            <Position>
              <LatitudeDegrees>40.73237814009189605712890625</LatitudeDegrees>
              <LongitudeDegrees>-3.9545327983796596527099609375</LongitudeDegrees>
            </Position>
            <AltitudeMeters>1127.5999755859375</AltitudeMeters>
            <DistanceMeters>59830.082318755</DistanceMeters>
          </Trackpoint>
          <Trackpoint>
            <Time>2019-08-01T12:27:04.000Z</Time>
            <Position>
              <LatitudeDegrees>40.7323746196925640106201171875</LatitudeDegrees>
              <LongitudeDegrees>-3.9546555094420909881591796875</LongitudeDegrees>
            </Position>
            <AltitudeMeters>1128.800048828125</AltitudeMeters>
            <DistanceMeters>59840.438922831</DistanceMeters>
          </Trackpoint>
          <Trackpoint>
            <Time>2019-08-01T12:27:11.000Z</Time>
            <Position>
              <LatitudeDegrees>40.7323712669312953948974609375</LatitudeDegrees>
              <LongitudeDegrees>-3.95476874895393848419189453125</LongitudeDegrees>
            </Position>
            <AltitudeMeters>1129.800048828125</AltitudeMeters>
            <DistanceMeters>59849.996550848</DistanceMeters>
          </Trackpoint>
          <Trackpoint>
            <Time>2019-08-01T12:27:12.000Z</Time>
            <Position>
              <LatitudeDegrees>40.732369758188724517822265625</LatitudeDegrees>
              <LongitudeDegrees>-3.9547855965793132781982421875</LongitudeDegrees>
            </Position>
            <AltitudeMeters>1129.800048828125</AltitudeMeters>
            <DistanceMeters>59851.428272662</DistanceMeters>
          </Trackpoint>
          <Trackpoint>
            <Time>2019-08-01T12:27:26.000Z</Time>
            <Position>
              <LatitudeDegrees>40.7323625497519969940185546875</LatitudeDegrees>
              <LongitudeDegrees>-3.95501618273556232452392578125</LongitudeDegrees>
            </Position>
            <AltitudeMeters>1131</AltitudeMeters>
            <DistanceMeters>59870.892750238</DistanceMeters>
          </Trackpoint>
          <Trackpoint>
            <Time>2019-08-01T12:27:31.000Z</Time>
            <Position>
              <LatitudeDegrees>40.7323652319610118865966796875</LatitudeDegrees>
              <LongitudeDegrees>-3.9550893567502498626708984375</LongitudeDegrees>
            </Position>
            <AltitudeMeters>1132</AltitudeMeters>
            <DistanceMeters>59877.071679207</DistanceMeters>
          </Trackpoint>
          <Trackpoint>
            <Time>2019-08-01T12:27:36.000Z</Time>
            <Position>
              <LatitudeDegrees>40.7323679141700267791748046875</LatitudeDegrees>
              <LongitudeDegrees>-3.9551617763936519622802734375</LongitudeDegrees>
            </Position>
            <AltitudeMeters>1133.199951171875</AltitudeMeters>
            <DistanceMeters>59883.185967103</DistanceMeters>
          </Trackpoint>
          <Trackpoint>
            <Time>2019-08-01T12:28:08.000Z</Time>
            <Position>
              <LatitudeDegrees>40.7323615439236164093017578125</LatitudeDegrees>
              <LongitudeDegrees>-3.95571104250848293304443359375</LongitudeDegrees>
            </Position>
            <AltitudeMeters>1132.199951171875</AltitudeMeters>
            <DistanceMeters>59929.516923619</DistanceMeters>
          </Trackpoint>
          <Trackpoint>
            <Time>2019-08-01T12:28:47.000Z</Time>
            <Position>
              <LatitudeDegrees>40.73235802352428436279296875</LatitudeDegrees>
              <LongitudeDegrees>-3.95643473602831363677978515625</LongitudeDegrees>
            </Position>
            <AltitudeMeters>1131.199951171875</AltitudeMeters>
            <DistanceMeters>59990.555297776</DistanceMeters>
          </Trackpoint>
          <Trackpoint>
            <Time>2019-08-01T12:28:48.000Z</Time>
            <Position>
              <LatitudeDegrees>40.73235743679106235504150390625</LatitudeDegrees>
              <LongitudeDegrees>-3.95645250566303730010986328125</LongitudeDegrees>
            </Position>
            <AltitudeMeters>1131</AltitudeMeters>
            <DistanceMeters>59992.057802055</DistanceMeters>
          </Trackpoint>
          <Trackpoint>
            <Time>2019-08-01T12:29:14.000Z</Time>
            <Position>
              <LatitudeDegrees>40.7323625497519969940185546875</LatitudeDegrees>
              <LongitudeDegrees>-3.95688635297119617462158203125</LongitudeDegrees>
            </Position>
            <AltitudeMeters>1132</AltitudeMeters>
            <DistanceMeters>60028.653328794</DistanceMeters>
          </Trackpoint>
          <Trackpoint>
            <Time>2019-08-01T12:29:33.000Z</Time>
            <Position>
              <LatitudeDegrees>40.73235995136201381683349609375</LatitudeDegrees>
              <LongitudeDegrees>-3.95719296298921108245849609375</LongitudeDegrees>
            </Position>
            <AltitudeMeters>1133</AltitudeMeters>
            <DistanceMeters>60054.51474043</DistanceMeters>
          </Trackpoint>
          <Trackpoint>
            <Time>2019-08-01T12:29:37.000Z</Time>
            <Position>
              <LatitudeDegrees>40.732362382113933563232421875</LatitudeDegrees>
              <LongitudeDegrees>-3.9572627842426300048828125</LongitudeDegrees>
            </Position>
            <AltitudeMeters>1134.199951171875</AltitudeMeters>
            <DistanceMeters>60060.409461302</DistanceMeters>
          </Trackpoint>
          <Trackpoint>
            <Time>2019-08-01T12:29:42.000Z</Time>
            <Position>
              <LatitudeDegrees>40.7323672436177730560302734375</LatitudeDegrees>
              <LongitudeDegrees>-3.9573507942259311676025390625</LongitudeDegrees>
            </Position>
            <AltitudeMeters>1135.199951171875</AltitudeMeters>
            <DistanceMeters>60067.852546615</DistanceMeters>
          </Trackpoint>
          <Trackpoint>
            <Time>2019-08-01T12:29:53.000Z</Time>
            <Position>
              <LatitudeDegrees>40.73236548341810703277587890625</LatitudeDegrees>
              <LongitudeDegrees>-3.95752631127834320068359375</LongitudeDegrees>
            </Position>
            <AltitudeMeters>1136.199951171875</AltitudeMeters>
            <DistanceMeters>60082.657208565</DistanceMeters>
          </Trackpoint>
          <Trackpoint>
            <Time>2019-08-01T12:29:55.000Z</Time>
            <Position>
              <LatitudeDegrees>40.73235894553363323211669921875</LatitudeDegrees>
              <LongitudeDegrees>-3.95755791105329990386962890625</LongitudeDegrees>
            </Position>
            <AltitudeMeters>1136.199951171875</AltitudeMeters>
            <DistanceMeters>60085.4211631</DistanceMeters>
          </Trackpoint>
          <Trackpoint>
            <Time>2019-08-01T12:29:59.000Z</Time>
            <Position>
              <LatitudeDegrees>40.73236514814198017120361328125</LatitudeDegrees>
              <LongitudeDegrees>-3.957622535526752471923828125</LongitudeDegrees>
            </Position>
            <AltitudeMeters>1137.199951171875</AltitudeMeters>
            <DistanceMeters>60090.914660663</DistanceMeters>
          </Trackpoint>
          <Trackpoint>
            <Time>2019-08-01T12:30:00.000Z</Time>
            <Position>
              <LatitudeDegrees>40.73236749507486820220947265625</LatitudeDegrees>
              <LongitudeDegrees>-3.95763888023793697357177734375</LongitudeDegrees>
            </Position>
            <AltitudeMeters>1137.4000244140625</AltitudeMeters>
            <DistanceMeters>60092.317713287</DistanceMeters>
          </Trackpoint>
          <Trackpoint>
            <Time>2019-08-01T12:30:08.000Z</Time>
            <Position>
              <LatitudeDegrees>40.7323679141700267791748046875</LatitudeDegrees>
              <LongitudeDegrees>-3.957762680947780609130859375</LongitudeDegrees>
            </Position>
            <AltitudeMeters>1138.4000244140625</AltitudeMeters>
            <DistanceMeters>60102.759415398</DistanceMeters>
          </Trackpoint>
          <Trackpoint>
            <Time>2019-08-01T12:30:13.000Z</Time>
            <Position>
              <LatitudeDegrees>40.73237151838839054107666015625</LatitudeDegrees>
              <LongitudeDegrees>-3.95784155465662479400634765625</LongitudeDegrees>
            </Position>
            <AltitudeMeters>1139.5999755859375</AltitudeMeters>
            <DistanceMeters>60109.424846825</DistanceMeters>
          </Trackpoint>
          <Trackpoint>
            <Time>2019-08-01T12:30:17.000Z</Time>
            <Position>
              <LatitudeDegrees>40.7323702611029148101806640625</LatitudeDegrees>
              <LongitudeDegrees>-3.9579066820442676544189453125</LongitudeDegrees>
            </Position>
            <AltitudeMeters>1141</AltitudeMeters>
            <DistanceMeters>60114.919987918</DistanceMeters>
          </Trackpoint>
          <Trackpoint>
            <Time>2019-08-01T12:30:21.000Z</Time>
            <Position>
              <LatitudeDegrees>40.73236967436969280242919921875</LatitudeDegrees>
              <LongitudeDegrees>-3.95797365345060825347900390625</LongitudeDegrees>
            </Position>
            <AltitudeMeters>1142.4000244140625</AltitudeMeters>
            <DistanceMeters>60120.568285013</DistanceMeters>
          </Trackpoint>
          <Trackpoint>
            <Time>2019-08-01T12:30:24.000Z</Time>
            <Position>
              <LatitudeDegrees>40.73236984200775623321533203125</LatitudeDegrees>
              <LongitudeDegrees>-3.95802562125027179718017578125</LongitudeDegrees>
            </Position>
            <AltitudeMeters>1143.5999755859375</AltitudeMeters>
            <DistanceMeters>60124.94983069</DistanceMeters>
          </Trackpoint>
          <Trackpoint>
            <Time>2019-08-01T12:30:28.000Z</Time>
            <Position>
              <LatitudeDegrees>40.7323756255209445953369140625</LatitudeDegrees>
              <LongitudeDegrees>-3.9580967836081981658935546875</LongitudeDegrees>
            </Position>
            <AltitudeMeters>1144.800048828125</AltitudeMeters>
            <DistanceMeters>60130.985336334</DistanceMeters>
          </Trackpoint>
          <Trackpoint>
            <Time>2019-08-01T12:30:33.000Z</Time>
            <Position>
              <LatitudeDegrees>40.7323801517486572265625</LatitudeDegrees>
              <LongitudeDegrees>-3.9581822790205478668212890625</LongitudeDegrees>
            </Position>
            <AltitudeMeters>1146</AltitudeMeters>
            <DistanceMeters>60138.21361568</DistanceMeters>
          </Trackpoint>
          <Trackpoint>
            <Time>2019-08-01T12:30:38.000Z</Time>
            <Position>
              <LatitudeDegrees>40.73238694109022617340087890625</LatitudeDegrees>
              <LongitudeDegrees>-3.9582728035748004913330078125</LongitudeDegrees>
            </Position>
            <AltitudeMeters>1147.199951171875</AltitudeMeters>
            <DistanceMeters>60145.88551494</DistanceMeters>
          </Trackpoint>
          <Trackpoint>
            <Time>2019-08-01T12:30:48.000Z</Time>
            <Position>
              <LatitudeDegrees>40.73240353725850582122802734375</LatitudeDegrees>
              <LongitudeDegrees>-3.958456702530384063720703125</LongitudeDegrees>
            </Position>
            <AltitudeMeters>1148.4000244140625</AltitudeMeters>
            <DistanceMeters>60161.505201408</DistanceMeters>
          </Trackpoint>
          <Trackpoint>
            <Time>2019-08-01T12:30:57.000Z</Time>
            <Position>
              <LatitudeDegrees>40.7324228994548320770263671875</LatitudeDegrees>
              <LongitudeDegrees>-3.9586172997951507568359375</LongitudeDegrees>
            </Position>
            <AltitudeMeters>1149.800048828125</AltitudeMeters>
            <DistanceMeters>60175.220358075</DistanceMeters>
          </Trackpoint>
          <Trackpoint>
            <Time>2019-08-01T12:31:00.000Z</Time>
            <Position>
              <LatitudeDegrees>40.73242968879640102386474609375</LatitudeDegrees>
              <LongitudeDegrees>-3.9586694352328777313232421875</LongitudeDegrees>
            </Position>
            <AltitudeMeters>1151.199951171875</AltitudeMeters>
            <DistanceMeters>60179.681556175</DistanceMeters>
          </Trackpoint>
          <Trackpoint>
            <Time>2019-08-01T12:31:02.000Z</Time>
            <Position>
              <LatitudeDegrees>40.73243471793830394744873046875</LatitudeDegrees>
              <LongitudeDegrees>-3.958707153797149658203125</LongitudeDegrees>
            </Position>
            <AltitudeMeters>1152.4000244140625</AltitudeMeters>
            <DistanceMeters>60182.911066709</DistanceMeters>
          </Trackpoint>
          <Trackpoint>
            <Time>2019-08-01T12:31:04.000Z</Time>
            <Position>
              <LatitudeDegrees>40.73244092054665088653564453125</LatitudeDegrees>
              <LongitudeDegrees>-3.95874545909464359283447265625</LongitudeDegrees>
            </Position>
            <AltitudeMeters>1153.5999755859375</AltitudeMeters>
            <DistanceMeters>60186.213843169</DistanceMeters>
          </Trackpoint>
          <Trackpoint>
            <Time>2019-08-01T12:31:07.000Z</Time>
            <Position>
              <LatitudeDegrees>40.73244896717369556427001953125</LatitudeDegrees>
              <LongitudeDegrees>-3.958802036941051483154296875</LongitudeDegrees>
            </Position>
            <AltitudeMeters>1154.5999755859375</AltitudeMeters>
            <DistanceMeters>60191.068583072</DistanceMeters>
          </Trackpoint>
          <Trackpoint>
            <Time>2019-08-01T12:31:09.000Z</Time>
            <Position>
              <LatitudeDegrees>40.73245198465883731842041015625</LatitudeDegrees>
              <LongitudeDegrees>-3.95883916877210140228271484375</LongitudeDegrees>
            </Position>
            <AltitudeMeters>1155.5999755859375</AltitudeMeters>
            <DistanceMeters>60194.218829731</DistanceMeters>
          </Trackpoint>
          <Trackpoint>
            <Time>2019-08-01T12:31:12.000Z</Time>
            <Position>
              <LatitudeDegrees>40.73246053420007228851318359375</LatitudeDegrees>
              <LongitudeDegrees>-3.95889566279947757720947265625</LongitudeDegrees>
            </Position>
            <AltitudeMeters>1157.199951171875</AltitudeMeters>
            <DistanceMeters>60199.077288316</DistanceMeters>
          </Trackpoint>
          <Trackpoint>
            <Time>2019-08-01T12:31:15.000Z</Time>
            <Position>
              <LatitudeDegrees>40.7324726879596710205078125</LatitudeDegrees>
              <LongitudeDegrees>-3.95895349793136119842529296875</LongitudeDegrees>
            </Position>
            <AltitudeMeters>1158.800048828125</AltitudeMeters>
            <DistanceMeters>60204.139635296</DistanceMeters>
          </Trackpoint>
          <Trackpoint>
            <Time>2019-08-01T12:31:18.000Z</Time>
            <Position>
              <LatitudeDegrees>40.73248450644314289093017578125</LatitudeDegrees>
              <LongitudeDegrees>-3.959003202617168426513671875</LongitudeDegrees>
            </Position>
            <AltitudeMeters>1160.5999755859375</AltitudeMeters>
            <DistanceMeters>60208.533529177</DistanceMeters>
          </Trackpoint>
          <Trackpoint>
            <Time>2019-08-01T12:31:20.000Z</Time>
            <Position>
              <LatitudeDegrees>40.7324835844337940216064453125</LatitudeDegrees>
              <LongitudeDegrees>-3.959014602005481719970703125</LongitudeDegrees>
            </Position>
            <AltitudeMeters>1161.4000244140625</AltitudeMeters>
            <DistanceMeters>60209.497944997</DistanceMeters>
          </Trackpoint>
          <Trackpoint>
            <Time>2019-08-01T12:35:52.000Z</Time>
            <Position>
              <LatitudeDegrees>40.73269841261208057403564453125</LatitudeDegrees>
              <LongitudeDegrees>-3.95908241160213947296142578125</LongitudeDegrees>
            </Position>
            <AltitudeMeters>1217</AltitudeMeters>
            <DistanceMeters>60234.083249487</DistanceMeters>
          </Trackpoint>
          <Trackpoint>
            <Time>2019-08-01T12:35:58.000Z</Time>
            <Position>
              <LatitudeDegrees>40.7325647212564945220947265625</LatitudeDegrees>
              <LongitudeDegrees>-3.95909565500915050506591796875</LongitudeDegrees>
            </Position>
            <AltitudeMeters>1217</AltitudeMeters>
            <DistanceMeters>60249.00516709</DistanceMeters>
          </Trackpoint>
          <Trackpoint>
            <Time>2019-08-01T12:36:01.000Z</Time>
            <Position>
              <LatitudeDegrees>40.73250881396234035491943359375</LatitudeDegrees>
              <LongitudeDegrees>-3.9591361396014690399169921875</LongitudeDegrees>
            </Position>
            <AltitudeMeters>1217</AltitudeMeters>
            <DistanceMeters>60256.102333172</DistanceMeters>
          </Trackpoint>
          <Trackpoint>
            <Time>2019-08-01T12:36:12.000Z</Time>
            <Position>
              <LatitudeDegrees>40.7325389049947261810302734375</LatitudeDegrees>
              <LongitudeDegrees>-3.9594060368835926055908203125</LongitudeDegrees>
            </Position>
            <AltitudeMeters>1218.800048828125</AltitudeMeters>
            <DistanceMeters>60279.11077144</DistanceMeters>
          </Trackpoint>
          <Trackpoint>
            <Time>2019-08-01T12:36:15.000Z</Time>
            <Position>
              <LatitudeDegrees>40.73255248367786407470703125</LatitudeDegrees>
              <LongitudeDegrees>-3.959475271403789520263671875</LongitudeDegrees>
            </Position>
            <AltitudeMeters>1220</AltitudeMeters>
            <DistanceMeters>60285.141786937</DistanceMeters>
          </Trackpoint>
          <Trackpoint>
            <Time>2019-08-01T12:36:17.000Z</Time>
            <Position>
              <LatitudeDegrees>40.7325563393533229827880859375</LatitudeDegrees>
              <LongitudeDegrees>-3.9595270715653896331787109375</LongitudeDegrees>
            </Position>
            <AltitudeMeters>1220.5999755859375</AltitudeMeters>
            <DistanceMeters>60289.531568609</DistanceMeters>
          </Trackpoint>
          <Trackpoint>
            <Time>2019-08-01T12:36:19.000Z</Time>
            <Position>
              <LatitudeDegrees>40.73255918920040130615234375</LatitudeDegrees>
              <LongitudeDegrees>-3.95957979373633861541748046875</LongitudeDegrees>
            </Position>
            <AltitudeMeters>1221.5999755859375</AltitudeMeters>
            <DistanceMeters>60293.988716596</DistanceMeters>
          </Trackpoint>
          <Trackpoint>
            <Time>2019-08-01T12:36:23.000Z</Time>
            <Position>
              <LatitudeDegrees>40.73256790637969970703125</LatitudeDegrees>
              <LongitudeDegrees>-3.95968683063983917236328125</LongitudeDegrees>
            </Position>
            <AltitudeMeters>1222.800048828125</AltitudeMeters>
            <DistanceMeters>60303.068617363</DistanceMeters>
          </Trackpoint>
          <Trackpoint>
            <Time>2019-08-01T12:36:26.000Z</Time>
            <Position>
              <LatitudeDegrees>40.73257863521575927734375</LatitudeDegrees>
              <LongitudeDegrees>-3.9597711525857448577880859375</LongitudeDegrees>
            </Position>
            <AltitudeMeters>1224</AltitudeMeters>
            <DistanceMeters>60310.27938571</DistanceMeters>
          </Trackpoint>
          <Trackpoint>
            <Time>2019-08-01T12:36:29.000Z</Time>
            <Position>
              <LatitudeDegrees>40.73258961550891399383544921875</LatitudeDegrees>
              <LongitudeDegrees>-3.95985857583582401275634765625</LongitudeDegrees>
            </Position>
            <AltitudeMeters>1225.4000244140625</AltitudeMeters>
            <DistanceMeters>60317.753344024</DistanceMeters>
          </Trackpoint>
          <Trackpoint>
            <Time>2019-08-01T12:36:32.000Z</Time>
            <Position>
              <LatitudeDegrees>40.7325985841453075408935546875</LatitudeDegrees>
              <LongitudeDegrees>-3.9599478431046009063720703125</LongitudeDegrees>
            </Position>
            <AltitudeMeters>1227</AltitudeMeters>
            <DistanceMeters>60325.348350827</DistanceMeters>
          </Trackpoint>
          <Trackpoint>
            <Time>2019-08-01T12:36:35.000Z</Time>
            <Position>
              <LatitudeDegrees>40.73261073790490627288818359375</LatitudeDegrees>
              <LongitudeDegrees>-3.96004549227654933929443359375</LongitudeDegrees>
            </Position>
            <AltitudeMeters>1228.4000244140625</AltitudeMeters>
            <DistanceMeters>60333.694488238</DistanceMeters>
          </Trackpoint>
          <Trackpoint>
            <Time>2019-08-01T12:36:37.000Z</Time>
            <Position>
              <LatitudeDegrees>40.73261962272226810455322265625</LatitudeDegrees>
              <LongitudeDegrees>-3.9601139724254608154296875</LongitudeDegrees>
            </Position>
            <AltitudeMeters>1229.5999755859375</AltitudeMeters>
            <DistanceMeters>60339.553869659</DistanceMeters>
          </Trackpoint>
          <Trackpoint>
            <Time>2019-08-01T12:36:40.000Z</Time>
            <Position>
              <LatitudeDegrees>40.73262884281575679779052734375</LatitudeDegrees>
              <LongitudeDegrees>-3.96021815948188304901123046875</LongitudeDegrees>
            </Position>
            <AltitudeMeters>1230.800048828125</AltitudeMeters>
            <DistanceMeters>60348.4010558</DistanceMeters>
          </Trackpoint>
          <Trackpoint>
            <Time>2019-08-01T12:36:42.000Z</Time>
            <Position>
              <LatitudeDegrees>40.732635296881198883056640625</LatitudeDegrees>
              <LongitudeDegrees>-3.96028772927820682525634765625</LongitudeDegrees>
            </Position>
            <AltitudeMeters>1232</AltitudeMeters>
            <DistanceMeters>60354.312603469</DistanceMeters>
          </Trackpoint>
          <Trackpoint>
            <Time>2019-08-01T12:36:46.000Z</Time>
            <Position>
              <LatitudeDegrees>40.732646696269512176513671875</LatitudeDegrees>
              <LongitudeDegrees>-3.9604269526898860931396484375</LongitudeDegrees>
            </Position>
            <AltitudeMeters>1233.199951171875</AltitudeMeters>
            <DistanceMeters>60366.123089946</DistanceMeters>
          </Trackpoint>
          <Trackpoint>
            <Time>2019-08-01T12:36:50.000Z</Time>
            <Position>
              <LatitudeDegrees>40.7326666451990604400634765625</LatitudeDegrees>
              <LongitudeDegrees>-3.9605645835399627685546875</LongitudeDegrees>
            </Position>
            <AltitudeMeters>1234.5999755859375</AltitudeMeters>
            <DistanceMeters>60377.940837713</DistanceMeters>
          </Trackpoint>
          <Trackpoint>
            <Time>2019-08-01T12:36:54.000Z</Time>
            <Position>
              <LatitudeDegrees>40.7326793856918811798095703125</LatitudeDegrees>
              <LongitudeDegrees>-3.96070699207484722137451171875</LongitudeDegrees>
            </Position>
            <AltitudeMeters>1236</AltitudeMeters>
            <DistanceMeters>60390.035017232</DistanceMeters>
          </Trackpoint>
          <Trackpoint>
            <Time>2019-08-01T12:36:57.000Z</Time>
            <Position>
              <LatitudeDegrees>40.73268868960440158843994140625</LatitudeDegrees>
              <LongitudeDegrees>-3.9608158729970455169677734375</LongitudeDegrees>
            </Position>
            <AltitudeMeters>1236.5999755859375</AltitudeMeters>
            <DistanceMeters>60399.276578951</DistanceMeters>
          </Trackpoint>
          <Trackpoint>
            <Time>2019-08-01T12:37:03.000Z</Time>
            <Position>
              <LatitudeDegrees>40.73271333239972591400146484375</LatitudeDegrees>
              <LongitudeDegrees>-3.961037658154964447021484375</LongitudeDegrees>
            </Position>
            <AltitudeMeters>1237.5999755859375</AltitudeMeters>
            <DistanceMeters>60418.182358115</DistanceMeters>
          </Trackpoint>
          <Trackpoint>
            <Time>2019-08-01T12:37:21.000Z</Time>
            <Position>
              <LatitudeDegrees>40.732794888317584991455078125</LatitudeDegrees>
              <LongitudeDegrees>-3.96176378242671489715576171875</LongitudeDegrees>
            </Position>
            <AltitudeMeters>1237.5999755859375</AltitudeMeters>
            <DistanceMeters>60480.09311944</DistanceMeters>
          </Trackpoint>
          <Trackpoint>
            <Time>2019-08-01T12:37:23.000Z</Time>
            <Position>
              <LatitudeDegrees>40.7328064553439617156982421875</LatitudeDegrees>
              <LongitudeDegrees>-3.96184843964874744415283203125</LongitudeDegrees>
            </Position>
            <AltitudeMeters>1237.4000244140625</AltitudeMeters>
            <DistanceMeters>60487.348208384</DistanceMeters>
          </Trackpoint>
          <Trackpoint>
            <Time>2019-08-01T12:37:40.000Z</Time>
            <Position>
              <LatitudeDegrees>40.7328862510621547698974609375</LatitudeDegrees>
              <LongitudeDegrees>-3.9625831134617328643798828125</LongitudeDegrees>
            </Position>
            <AltitudeMeters>1238.5999755859375</AltitudeMeters>
            <DistanceMeters>60549.944058644</DistanceMeters>
          </Trackpoint>
          <Trackpoint>
            <Time>2019-08-01T12:37:43.000Z</Time>
            <Position>
              <LatitudeDegrees>40.7328999973833560943603515625</LatitudeDegrees>
              <LongitudeDegrees>-3.96271278150379657745361328125</LongitudeDegrees>
            </Position>
            <AltitudeMeters>1239.4000244140625</AltitudeMeters>
            <DistanceMeters>60560.986800709</DistanceMeters>
          </Trackpoint>
          <Trackpoint>
            <Time>2019-08-01T12:37:45.000Z</Time>
            <Position>
              <LatitudeDegrees>40.7329093851149082183837890625</LatitudeDegrees>
              <LongitudeDegrees>-3.962799869477748870849609375</LongitudeDegrees>
            </Position>
            <AltitudeMeters>1239.5999755859375</AltitudeMeters>
            <DistanceMeters>60568.405582005</DistanceMeters>
          </Trackpoint>
          <Trackpoint>
            <Time>2019-08-01T12:37:54.000Z</Time>
            <Position>
              <LatitudeDegrees>40.73295003734529018402099609375</LatitudeDegrees>
              <LongitudeDegrees>-3.96319792605936527252197265625</LongitudeDegrees>
            </Position>
            <AltitudeMeters>1241</AltitudeMeters>
            <DistanceMeters>60602.281239558</DistanceMeters>
          </Trackpoint>
          <Trackpoint>
            <Time>2019-08-01T12:38:00.000Z</Time>
            <Position>
              <LatitudeDegrees>40.732978619635105133056640625</LatitudeDegrees>
              <LongitudeDegrees>-3.9634669013321399688720703125</LongitudeDegrees>
            </Position>
            <AltitudeMeters>1242.4000244140625</AltitudeMeters>
            <DistanceMeters>60625.188591484</DistanceMeters>
          </Trackpoint>
          <Trackpoint>
            <Time>2019-08-01T12:38:11.000Z</Time>
            <Position>
              <LatitudeDegrees>40.73300753720104694366455078125</LatitudeDegrees>
              <LongitudeDegrees>-3.9639604277908802032470703125</LongitudeDegrees>
            </Position>
            <AltitudeMeters>1243.800048828125</AltitudeMeters>
            <DistanceMeters>60666.937018697</DistanceMeters>
          </Trackpoint>
          <Trackpoint>
            <Time>2019-08-01T12:38:28.000Z</Time>
            <Position>
              <LatitudeDegrees>40.73296830989420413970947265625</LatitudeDegrees>
              <LongitudeDegrees>-3.96470800973474979400634765625</LongitudeDegrees>
            </Position>
            <AltitudeMeters>1243.4000244140625</AltitudeMeters>
            <DistanceMeters>60730.139142834</DistanceMeters>
          </Trackpoint>
          <Trackpoint>
            <Time>2019-08-01T12:38:32.000Z</Time>
            <Position>
              <LatitudeDegrees>40.732944421470165252685546875</LatitudeDegrees>
              <LongitudeDegrees>-3.9648831076920032501220703125</LongitudeDegrees>
            </Position>
            <AltitudeMeters>1242.4000244140625</AltitudeMeters>
            <DistanceMeters>60745.144339469</DistanceMeters>
          </Trackpoint>
          <Trackpoint>
            <Time>2019-08-01T12:38:35.000Z</Time>
            <Position>
              <LatitudeDegrees>40.73291986249387264251708984375</LatitudeDegrees>
              <LongitudeDegrees>-3.965014703571796417236328125</LongitudeDegrees>
            </Position>
            <AltitudeMeters>1241.4000244140625</AltitudeMeters>
            <DistanceMeters>60756.574437719</DistanceMeters>
          </Trackpoint>
          <Trackpoint>
            <Time>2019-08-01T12:38:38.000Z</Time>
            <Position>
              <LatitudeDegrees>40.7328922860324382781982421875</LatitudeDegrees>
              <LongitudeDegrees>-3.96514940075576305389404296875</LongitudeDegrees>
            </Position>
            <AltitudeMeters>1240.4000244140625</AltitudeMeters>
            <DistanceMeters>60768.341646062</DistanceMeters>
          </Trackpoint>
          <Trackpoint>
            <Time>2019-08-01T12:38:44.000Z</Time>
            <Position>
              <LatitudeDegrees>40.73284693993628025054931640625</LatitudeDegrees>
              <LongitudeDegrees>-3.96543321199715137481689453125</LongitudeDegrees>
            </Position>
            <AltitudeMeters>1239.5999755859375</AltitudeMeters>
            <DistanceMeters>60792.804704458</DistanceMeters>
          </Trackpoint>
          <Trackpoint>
            <Time>2019-08-01T12:38:50.000Z</Time>
            <Position>
              <LatitudeDegrees>40.732785165309906005859375</LatitudeDegrees>
              <LongitudeDegrees>-3.9657454378902912139892578125</LongitudeDegrees>
            </Position>
            <AltitudeMeters>1238.800048828125</AltitudeMeters>
            <DistanceMeters>60820.02085978</DistanceMeters>
          </Trackpoint>
          <Trackpoint>
            <Time>2019-08-01T12:38:54.000Z</Time>
            <Position>
              <LatitudeDegrees>40.73273814283311367034912109375</LatitudeDegrees>
              <LongitudeDegrees>-3.96597552113234996795654296875</LongitudeDegrees>
            </Position>
            <AltitudeMeters>1238</AltitudeMeters>
            <DistanceMeters>60840.119403002</DistanceMeters>
          </Trackpoint>
          <Trackpoint>
            <Time>2019-08-01T12:38:57.000Z</Time>
            <Position>
              <LatitudeDegrees>40.7326974906027317047119140625</LatitudeDegrees>
              <LongitudeDegrees>-3.966157324612140655517578125</LongitudeDegrees>
            </Position>
            <AltitudeMeters>1237</AltitudeMeters>
            <DistanceMeters>60856.10678283</DistanceMeters>
          </Trackpoint>
          <Trackpoint>
            <Time>2019-08-01T12:39:00.000Z</Time>
            <Position>
              <LatitudeDegrees>40.73265130631625652313232421875</LatitudeDegrees>
              <LongitudeDegrees>-3.966351784765720367431640625</LongitudeDegrees>
            </Position>
            <AltitudeMeters>1236</AltitudeMeters>
            <DistanceMeters>60873.29427598</DistanceMeters>
          </Trackpoint>
          <Trackpoint>
            <Time>2019-08-01T12:39:03.000Z</Time>
            <Position>
              <LatitudeDegrees>40.73260612785816192626953125</LatitudeDegrees>
              <LongitudeDegrees>-3.96655873395502567291259765625</LongitudeDegrees>
            </Position>
            <AltitudeMeters>1235.199951171875</AltitudeMeters>
            <DistanceMeters>60891.458055129</DistanceMeters>
          </Trackpoint>
          <Trackpoint>
            <Time>2019-08-01T12:39:06.000Z</Time>
            <Position>
              <LatitudeDegrees>40.73255189694464206695556640625</LatitudeDegrees>
              <LongitudeDegrees>-3.96677364595234394073486328125</LongitudeDegrees>
            </Position>
            <AltitudeMeters>1234.199951171875</AltitudeMeters>
            <DistanceMeters>60910.562442837</DistanceMeters>
          </Trackpoint>
          <Trackpoint>
            <Time>2019-08-01T12:39:10.000Z</Time>
            <Position>
              <LatitudeDegrees>40.732475705444812774658203125</LatitudeDegrees>
              <LongitudeDegrees>-3.96708243526518344879150390625</LongitudeDegrees>
            </Position>
            <AltitudeMeters>1233</AltitudeMeters>
            <DistanceMeters>60937.95157518</DistanceMeters>
          </Trackpoint>
          <Trackpoint>
            <Time>2019-08-01T12:39:15.000Z</Time>
            <Position>
              <LatitudeDegrees>40.73236665688455104827880859375</LatitudeDegrees>
              <LongitudeDegrees>-3.96749901585280895233154296875</LongitudeDegrees>
            </Position>
            <AltitudeMeters>1232.4000244140625</AltitudeMeters>
            <DistanceMeters>60975.123664673</DistanceMeters>
          </Trackpoint>
          <Trackpoint>
            <Time>2019-08-01T12:39:18.000Z</Time>
            <Position>
              <LatitudeDegrees>40.73229230940341949462890625</LatitudeDegrees>
              <LongitudeDegrees>-3.9677636325359344482421875</LongitudeDegrees>
            </Position>
            <AltitudeMeters>1231.199951171875</AltitudeMeters>
            <DistanceMeters>60998.926291761</DistanceMeters>
          </Trackpoint>
          <Trackpoint>
            <Time>2019-08-01T12:39:26.000Z</Time>
            <Position>
              <LatitudeDegrees>40.73208041489124298095703125</LatitudeDegrees>
              <LongitudeDegrees>-3.96852412261068820953369140625</LongitudeDegrees>
            </Position>
            <AltitudeMeters>1231.4000244140625</AltitudeMeters>
            <DistanceMeters>61067.26536635</DistanceMeters>
          </Trackpoint>
          <Trackpoint>
            <Time>2019-08-01T12:39:33.000Z</Time>
            <Position>
              <LatitudeDegrees>40.7318854518234729766845703125</LatitudeDegrees>
              <LongitudeDegrees>-3.9692195691168308258056640625</LongitudeDegrees>
            </Position>
            <AltitudeMeters>1231.199951171875</AltitudeMeters>
            <DistanceMeters>61129.805579661</DistanceMeters>
          </Trackpoint>
          <Trackpoint>
            <Time>2019-08-01T12:39:40.000Z</Time>
            <Position>
              <LatitudeDegrees>40.73160340078175067901611328125</LatitudeDegrees>
              <LongitudeDegrees>-3.9698569290339946746826171875</LongitudeDegrees>
            </Position>
            <AltitudeMeters>1233</AltitudeMeters>
            <DistanceMeters>61192.056854231</DistanceMeters>
          </Trackpoint>
          <Trackpoint>
            <Time>2019-08-01T12:39:45.000Z</Time>
            <Position>
              <LatitudeDegrees>40.7313248701393604278564453125</LatitudeDegrees>
              <LongitudeDegrees>-3.97022095508873462677001953125</LongitudeDegrees>
            </Position>
            <AltitudeMeters>1233.800048828125</AltitudeMeters>
            <DistanceMeters>61235.688502331</DistanceMeters>
          </Trackpoint>
          <Trackpoint>
            <Time>2019-08-01T12:39:52.000Z</Time>
            <Position>
              <LatitudeDegrees>40.7308767735958099365234375</LatitudeDegrees>
              <LongitudeDegrees>-3.9706176705658435821533203125</LongitudeDegrees>
            </Position>
            <AltitudeMeters>1235</AltitudeMeters>
            <DistanceMeters>61295.746739026</DistanceMeters>
          </Trackpoint>
          <Trackpoint>
            <Time>2019-08-01T12:39:53.000Z</Time>
            <Position>
              <LatitudeDegrees>40.7308098860085010528564453125</LatitudeDegrees>
              <LongitudeDegrees>-3.9706719852983951568603515625</LongitudeDegrees>
            </Position>
            <AltitudeMeters>1235.199951171875</AltitudeMeters>
            <DistanceMeters>61304.488163788</DistanceMeters>
          </Trackpoint>
          <Trackpoint>
            <Time>2019-08-01T12:40:00.000Z</Time>
            <Position>
              <LatitudeDegrees>40.730341337621212005615234375</LatitudeDegrees>
              <LongitudeDegrees>-3.971080519258975982666015625</LongitudeDegrees>
            </Position>
            <AltitudeMeters>1235.800048828125</AltitudeMeters>
            <DistanceMeters>61366.99378653</DistanceMeters>
          </Trackpoint>
          <Trackpoint>
            <Time>2019-08-01T12:40:07.000Z</Time>
            <Position>
              <LatitudeDegrees>40.72997831739485263824462890625</LatitudeDegrees>
              <LongitudeDegrees>-3.9717234112322330474853515625</LongitudeDegrees>
            </Position>
            <AltitudeMeters>1235.800048828125</AltitudeMeters>
            <DistanceMeters>61434.616094467</DistanceMeters>
          </Trackpoint>
          <Trackpoint>
            <Time>2019-08-01T12:40:13.000Z</Time>
            <Position>
              <LatitudeDegrees>40.729871280491352081298828125</LatitudeDegrees>
              <LongitudeDegrees>-3.9724268205463886260986328125</LongitudeDegrees>
            </Position>
            <AltitudeMeters>1235.5999755859375</AltitudeMeters>
            <DistanceMeters>61495.128715206</DistanceMeters>
          </Trackpoint>
          <Trackpoint>
            <Time>2019-08-01T12:40:16.000Z</Time>
            <Position>
              <LatitudeDegrees>40.72987974621355533599853515625</LatitudeDegrees>
              <LongitudeDegrees>-3.97277860902249813079833984375</LongitudeDegrees>
            </Position>
            <AltitudeMeters>1235.800048828125</AltitudeMeters>
            <DistanceMeters>61524.815097278</DistanceMeters>
          </Trackpoint>
          <Trackpoint>
            <Time>2019-08-01T12:40:23.000Z</Time>
            <Position>
              <LatitudeDegrees>40.72985175065696239471435546875</LatitudeDegrees>
              <LongitudeDegrees>-3.973497189581394195556640625</LongitudeDegrees>
            </Position>
            <AltitudeMeters>1236.199951171875</AltitudeMeters>
            <DistanceMeters>61585.503177646</DistanceMeters>
          </Trackpoint>
          <Trackpoint>
            <Time>2019-08-01T12:40:32.000Z</Time>
            <Position>
              <LatitudeDegrees>40.72964572347700595855712890625</LatitudeDegrees>
              <LongitudeDegrees>-3.97416765801608562469482421875</LongitudeDegrees>
            </Position>
            <AltitudeMeters>1238.199951171875</AltitudeMeters>
            <DistanceMeters>61646.525720065</DistanceMeters>
          </Trackpoint>
          <Trackpoint>
            <Time>2019-08-01T12:40:41.000Z</Time>
            <Position>
              <LatitudeDegrees>40.72939259000122547149658203125</LatitudeDegrees>
              <LongitudeDegrees>-3.97465732879936695098876953125</LongitudeDegrees>
            </Position>
            <AltitudeMeters>1239</AltitudeMeters>
            <DistanceMeters>61696.521332673</DistanceMeters>
          </Trackpoint>
          <Trackpoint>
            <Time>2019-08-01T12:40:53.000Z</Time>
            <Position>
              <LatitudeDegrees>40.72914733551442623138427734375</LatitudeDegrees>
              <LongitudeDegrees>-3.9752937667071819305419921875</LongitudeDegrees>
            </Position>
            <AltitudeMeters>1239.800048828125</AltitudeMeters>
            <DistanceMeters>61756.743383632</DistanceMeters>
          </Trackpoint>
          <Trackpoint>
            <Time>2019-08-01T12:41:02.000Z</Time>
            <Position>
              <LatitudeDegrees>40.7290600799024105072021484375</LatitudeDegrees>
              <LongitudeDegrees>-3.975811265408992767333984375</LongitudeDegrees>
            </Position>
            <AltitudeMeters>1240</AltitudeMeters>
            <DistanceMeters>61801.459284236</DistanceMeters>
          </Trackpoint>
          <Trackpoint>
            <Time>2019-08-01T12:41:13.000Z</Time>
            <Position>
              <LatitudeDegrees>40.728978775441646575927734375</LatitudeDegrees>
              <LongitudeDegrees>-3.9763810671865940093994140625</LongitudeDegrees>
            </Position>
            <AltitudeMeters>1239.5999755859375</AltitudeMeters>
            <DistanceMeters>61850.363709766</DistanceMeters>
          </Trackpoint>
          <Trackpoint>
            <Time>2019-08-01T12:41:23.000Z</Time>
            <Position>
              <LatitudeDegrees>40.72892404161393642425537109375</LatitudeDegrees>
              <LongitudeDegrees>-3.976829834282398223876953125</LongitudeDegrees>
            </Position>
            <AltitudeMeters>1239.199951171875</AltitudeMeters>
            <DistanceMeters>61888.702013626</DistanceMeters>
          </Trackpoint>
          <Trackpoint>
            <Time>2019-08-01T12:41:30.000Z</Time>
            <Position>
              <LatitudeDegrees>40.72888322174549102783203125</LatitudeDegrees>
              <LongitudeDegrees>-3.9771428145468235015869140625</LongitudeDegrees>
            </Position>
            <AltitudeMeters>1238.5999755859375</AltitudeMeters>
            <DistanceMeters>61915.488424622</DistanceMeters>
          </Trackpoint>
          <Trackpoint>
            <Time>2019-08-01T12:41:35.000Z</Time>
            <Position>
              <LatitudeDegrees>40.72885572910308837890625</LatitudeDegrees>
              <LongitudeDegrees>-3.97736501879990100860595703125</LongitudeDegrees>
            </Position>
            <AltitudeMeters>1237.5999755859375</AltitudeMeters>
            <DistanceMeters>61934.478557135</DistanceMeters>
          </Trackpoint>
          <Trackpoint>
            <Time>2019-08-01T12:41:42.000Z</Time>
            <Position>
              <LatitudeDegrees>40.72881423868238925933837890625</LatitudeDegrees>
              <LongitudeDegrees>-3.97767313756048679351806640625</LongitudeDegrees>
            </Position>
            <AltitudeMeters>1237</AltitudeMeters>
            <DistanceMeters>61960.873926957</DistanceMeters>
          </Trackpoint>
          <Trackpoint>
            <Time>2019-08-01T12:41:48.000Z</Time>
            <Position>
              <LatitudeDegrees>40.7287791185081005096435546875</LatitudeDegrees>
              <LongitudeDegrees>-3.9779478125274181365966796875</LongitudeDegrees>
            </Position>
            <AltitudeMeters>1236.4000244140625</AltitudeMeters>
            <DistanceMeters>61984.368981822</DistanceMeters>
          </Trackpoint>
          <Trackpoint>
            <Time>2019-08-01T12:41:54.000Z</Time>
            <Position>
              <LatitudeDegrees>40.7287497818470001220703125</LatitudeDegrees>
              <LongitudeDegrees>-3.97822449915111064910888671875</LongitudeDegrees>
            </Position>
            <AltitudeMeters>1235.4000244140625</AltitudeMeters>
            <DistanceMeters>62007.933691047</DistanceMeters>
          </Trackpoint>
          <Trackpoint>
            <Time>2019-08-01T12:41:58.000Z</Time>
            <Position>
              <LatitudeDegrees>40.72872740216553211212158203125</LatitudeDegrees>
              <LongitudeDegrees>-3.978405296802520751953125</LongitudeDegrees>
            </Position>
            <AltitudeMeters>1234.5999755859375</AltitudeMeters>
            <DistanceMeters>62023.385397139</DistanceMeters>
          </Trackpoint>
          <Trackpoint>
            <Time>2019-08-01T12:42:02.000Z</Time>
            <Position>
              <LatitudeDegrees>40.72869353927671909332275390625</LatitudeDegrees>
              <LongitudeDegrees>-3.978586010634899139404296875</LongitudeDegrees>
            </Position>
            <AltitudeMeters>1234</AltitudeMeters>
            <DistanceMeters>62039.087249806</DistanceMeters>
          </Trackpoint>
          <Trackpoint>
            <Time>2019-08-01T12:42:06.000Z</Time>
            <Position>
              <LatitudeDegrees>40.72865045629441738128662109375</LatitudeDegrees>
              <LongitudeDegrees>-3.97876312024891376495361328125</LongitudeDegrees>
            </Position>
            <AltitudeMeters>1233</AltitudeMeters>
            <DistanceMeters>62054.776445253</DistanceMeters>
          </Trackpoint>
          <Trackpoint>
            <Time>2019-08-01T12:42:09.000Z</Time>
            <Position>
              <LatitudeDegrees>40.728609301149845123291015625</LatitudeDegrees>
              <LongitudeDegrees>-3.97888918407261371612548828125</LongitudeDegrees>
            </Position>
            <AltitudeMeters>1232</AltitudeMeters>
            <DistanceMeters>62066.353725791</DistanceMeters>
          </Trackpoint>
          <Trackpoint>
            <Time>2019-08-01T12:42:13.000Z</Time>
            <Position>
              <LatitudeDegrees>40.72853009216487407684326171875</LatitudeDegrees>
              <LongitudeDegrees>-3.9790475182235240936279296875</LongitudeDegrees>
            </Position>
            <AltitudeMeters>1231</AltitudeMeters>
            <DistanceMeters>62082.356066489</DistanceMeters>
          </Trackpoint>
          <Trackpoint>
            <Time>2019-08-01T12:42:17.000Z</Time>
            <Position>
              <LatitudeDegrees>40.7284552417695522308349609375</LatitudeDegrees>
              <LongitudeDegrees>-3.979194872081279754638671875</LongitudeDegrees>
            </Position>
            <AltitudeMeters>1230</AltitudeMeters>
            <DistanceMeters>62097.318474557</DistanceMeters>
          </Trackpoint>
          <Trackpoint>
            <Time>2019-08-01T12:42:21.000Z</Time>
            <Position>
              <LatitudeDegrees>40.72838156484067440032958984375</LatitudeDegrees>
              <LongitudeDegrees>-3.9793274737894535064697265625</LongitudeDegrees>
            </Position>
            <AltitudeMeters>1229.199951171875</AltitudeMeters>
            <DistanceMeters>62111.187166934</DistanceMeters>
          </Trackpoint>
          <Trackpoint>
            <Time>2019-08-01T12:42:28.000Z</Time>
            <Position>
              <LatitudeDegrees>40.72825466282665729522705078125</LatitudeDegrees>
              <LongitudeDegrees>-3.97954850457608699798583984375</LongitudeDegrees>
            </Position>
            <AltitudeMeters>1228.4000244140625</AltitudeMeters>
            <DistanceMeters>62134.576482681</DistanceMeters>
          </Trackpoint>
          <Trackpoint>
            <Time>2019-08-01T12:42:30.000Z</Time>
            <Position>
              <LatitudeDegrees>40.7282373122870922088623046875</LatitudeDegrees>
              <LongitudeDegrees>-3.97960734553635120391845703125</LongitudeDegrees>
            </Position>
            <AltitudeMeters>1227.800048828125</AltitudeMeters>
            <DistanceMeters>62139.90306697</DistanceMeters>
          </Trackpoint>
          <Trackpoint>
            <Time>2019-08-01T12:42:32.000Z</Time>
            <Position>
              <LatitudeDegrees>40.72820185683667659759521484375</LatitudeDegrees>
              <LongitudeDegrees>-3.9796553738415241241455078125</LongitudeDegrees>
            </Position>
            <AltitudeMeters>1227.5999755859375</AltitudeMeters>
            <DistanceMeters>62145.560150222</DistanceMeters>
          </Trackpoint>
          <Trackpoint>
            <Time>2019-08-01T12:42:37.000Z</Time>
            <Position>
              <LatitudeDegrees>40.72809859178960323333740234375</LatitudeDegrees>
              <LongitudeDegrees>-3.9797826111316680908203125</LongitudeDegrees>
            </Position>
            <AltitudeMeters>1226.5999755859375</AltitudeMeters>
            <DistanceMeters>62161.285277037</DistanceMeters>
          </Trackpoint>
          <Trackpoint>
            <Time>2019-08-01T12:42:41.000Z</Time>
            <Position>
              <LatitudeDegrees>40.7280032895505428314208984375</LatitudeDegrees>
              <LongitudeDegrees>-3.9798954315483570098876953125</LongitudeDegrees>
            </Position>
            <AltitudeMeters>1225.5999755859375</AltitudeMeters>
            <DistanceMeters>62175.535482617</DistanceMeters>
          </Trackpoint>
          <Trackpoint>
            <Time>2019-08-01T12:42:47.000Z</Time>
            <Position>
              <LatitudeDegrees>40.7278725318610668182373046875</LatitudeDegrees>
              <LongitudeDegrees>-3.980023674666881561279296875</LongitudeDegrees>
            </Position>
            <AltitudeMeters>1224.800048828125</AltitudeMeters>
            <DistanceMeters>62193.668412426</DistanceMeters>
          </Trackpoint>
          <Trackpoint>
            <Time>2019-08-01T12:42:53.000Z</Time>
            <Position>
              <LatitudeDegrees>40.72769257239997386932373046875</LatitudeDegrees>
              <LongitudeDegrees>-3.9801022969186305999755859375</LongitudeDegrees>
            </Position>
            <AltitudeMeters>1224</AltitudeMeters>
            <DistanceMeters>62214.767553134</DistanceMeters>
          </Trackpoint>
          <Trackpoint>
            <Time>2019-08-01T12:42:58.000Z</Time>
            <Position>
              <LatitudeDegrees>40.7275181449949741363525390625</LatitudeDegrees>
              <LongitudeDegrees>-3.980062566697597503662109375</LongitudeDegrees>
            </Position>
            <AltitudeMeters>1223</AltitudeMeters>
            <DistanceMeters>62234.468587262</DistanceMeters>
          </Trackpoint>
          <Trackpoint>
            <Time>2019-08-01T12:43:02.000Z</Time>
            <Position>
              <LatitudeDegrees>40.7273729704320430755615234375</LatitudeDegrees>
              <LongitudeDegrees>-3.97998419590294361114501953125</LongitudeDegrees>
            </Position>
            <AltitudeMeters>1222</AltitudeMeters>
            <DistanceMeters>62251.926626675</DistanceMeters>
          </Trackpoint>
          <Trackpoint>
            <Time>2019-08-01T12:43:05.000Z</Time>
            <Position>
              <LatitudeDegrees>40.727263502776622772216796875</LatitudeDegrees>
              <LongitudeDegrees>-3.97991127334535121917724609375</LongitudeDegrees>
            </Position>
            <AltitudeMeters>1221</AltitudeMeters>
            <DistanceMeters>62265.574792005</DistanceMeters>
          </Trackpoint>
          <Trackpoint>
            <Time>2019-08-01T12:43:10.000Z</Time>
            <Position>
              <LatitudeDegrees>40.727073736488819122314453125</LatitudeDegrees>
              <LongitudeDegrees>-3.979772217571735382080078125</LongitudeDegrees>
            </Position>
            <AltitudeMeters>1220.4000244140625</AltitudeMeters>
            <DistanceMeters>62289.734014282</DistanceMeters>
          </Trackpoint>
          <Trackpoint>
            <Time>2019-08-01T12:43:11.000Z</Time>
            <Position>
              <LatitudeDegrees>40.7270373590290546417236328125</LatitudeDegrees>
              <LongitudeDegrees>-3.979746401309967041015625</LongitudeDegrees>
            </Position>
            <AltitudeMeters>1220.199951171875</AltitudeMeters>
            <DistanceMeters>62294.330793468</DistanceMeters>
          </Trackpoint>
          <Trackpoint>
            <Time>2019-08-01T12:43:15.000Z</Time>
            <Position>
              <LatitudeDegrees>40.72689545340836048126220703125</LatitudeDegrees>
              <LongitudeDegrees>-3.97960893809795379638671875</LongitudeDegrees>
            </Position>
            <AltitudeMeters>1219.4000244140625</AltitudeMeters>
            <DistanceMeters>62313.924278863</DistanceMeters>
          </Trackpoint>
          <Trackpoint>
            <Time>2019-08-01T12:43:20.000Z</Time>
            <Position>
              <LatitudeDegrees>40.72672194801270961761474609375</LatitudeDegrees>
              <LongitudeDegrees>-3.97942520678043365478515625</LongitudeDegrees>
            </Position>
            <AltitudeMeters>1218.4000244140625</AltitudeMeters>
            <DistanceMeters>62338.685257645</DistanceMeters>
          </Trackpoint>
          <Trackpoint>
            <Time>2019-08-01T12:43:27.000Z</Time>
            <Position>
              <LatitudeDegrees>40.72656906209886074066162109375</LatitudeDegrees>
              <LongitudeDegrees>-3.979268632829189300537109375</LongitudeDegrees>
            </Position>
            <AltitudeMeters>1217.5999755859375</AltitudeMeters>
            <DistanceMeters>62360.22553127</DistanceMeters>
          </Trackpoint>
          <Trackpoint>
            <Time>2019-08-01T12:43:28.000Z</Time>
            <Position>
              <LatitudeDegrees>40.72655749507248401641845703125</LatitudeDegrees>
              <LongitudeDegrees>-3.97927290759980678558349609375</LongitudeDegrees>
            </Position>
            <AltitudeMeters>1217.4000244140625</AltitudeMeters>
            <DistanceMeters>62361.562675666</DistanceMeters>
          </Trackpoint>
          <Trackpoint>
            <Time>2019-08-01T12:43:30.000Z</Time>
            <Position>
              <LatitudeDegrees>40.72653285227715969085693359375</LatitudeDegrees>
              <LongitudeDegrees>-3.97929268889129161834716796875</LongitudeDegrees>
            </Position>
            <AltitudeMeters>1217</AltitudeMeters>
            <DistanceMeters>62364.772553736</DistanceMeters>
          </Trackpoint>
          <Trackpoint>
            <Time>2019-08-01T12:43:34.000Z</Time>
            <Position>
              <LatitudeDegrees>40.72656788863241672515869140625</LatitudeDegrees>
              <LongitudeDegrees>-3.9793583191931247711181640625</LongitudeDegrees>
            </Position>
            <AltitudeMeters>1216.4000244140625</AltitudeMeters>
            <DistanceMeters>62371.544832397</DistanceMeters>
          </Trackpoint>
          <Trackpoint>
            <Time>2019-08-01T12:43:35.000Z</Time>
            <Position>
              <LatitudeDegrees>40.72658322751522064208984375</LatitudeDegrees>
              <LongitudeDegrees>-3.9793693833053112030029296875</LongitudeDegrees>
            </Position>
            <AltitudeMeters>1216.199951171875</AltitudeMeters>
            <DistanceMeters>62373.489980728</DistanceMeters>
          </Trackpoint>
          <Trackpoint>
            <Time>2019-08-01T12:43:39.000Z</Time>
            <Position>
              <LatitudeDegrees>40.7266246341168880462646484375</LatitudeDegrees>
              <LongitudeDegrees>-3.97941573522984981536865234375</LongitudeDegrees>
            </Position>
            <AltitudeMeters>1215.4000244140625</AltitudeMeters>
            <DistanceMeters>62379.532962536</DistanceMeters>
          </Trackpoint>
          <Trackpoint>
            <Time>2019-08-01T12:43:42.000Z</Time>
            <Position>
              <LatitudeDegrees>40.72666662745177745819091796875</LatitudeDegrees>
              <LongitudeDegrees>-3.979453705251216888427734375</LongitudeDegrees>
            </Position>
            <AltitudeMeters>1214.4000244140625</AltitudeMeters>
            <DistanceMeters>62385.199615149</DistanceMeters>
          </Trackpoint>
          <Trackpoint>
            <Time>2019-08-01T12:43:46.000Z</Time>
            <Position>
              <LatitudeDegrees>40.72671792469918727874755859375</LatitudeDegrees>
              <LongitudeDegrees>-3.97951648570597171783447265625</LongitudeDegrees>
            </Position>
            <AltitudeMeters>1213.199951171875</AltitudeMeters>
            <DistanceMeters>62392.986589101</DistanceMeters>
          </Trackpoint>
          <Trackpoint>
            <Time>2019-08-01T12:43:49.000Z</Time>
            <Position>
              <LatitudeDegrees>40.72675212286412715911865234375</LatitudeDegrees>
              <LongitudeDegrees>-3.97956342436373233795166015625</LongitudeDegrees>
            </Position>
            <AltitudeMeters>1212.4000244140625</AltitudeMeters>
            <DistanceMeters>62398.479264715</DistanceMeters>
          </Trackpoint>
          <Trackpoint>
            <Time>2019-08-01T12:43:50.000Z</Time>
            <Position>
              <LatitudeDegrees>40.726763270795345306396484375</LatitudeDegrees>
              <LongitudeDegrees>-3.97958052344620227813720703125</LongitudeDegrees>
            </Position>
            <AltitudeMeters>1212</AltitudeMeters>
            <DistanceMeters>62400.379799002</DistanceMeters>
          </Trackpoint>
          <Trackpoint>
            <Time>2019-08-01T12:43:53.000Z</Time>
            <Position>
              <LatitudeDegrees>40.72679520584642887115478515625</LatitudeDegrees>
              <LongitudeDegrees>-3.97963383235037326812744140625</LongitudeDegrees>
            </Position>
            <AltitudeMeters>1211.4000244140625</AltitudeMeters>
            <DistanceMeters>62406.110626868</DistanceMeters>
          </Trackpoint>
          <Trackpoint>
            <Time>2019-08-01T12:43:57.000Z</Time>
            <Position>
              <LatitudeDegrees>40.72683803737163543701171875</LatitudeDegrees>
              <LongitudeDegrees>-3.97969745099544525146484375</LongitudeDegrees>
            </Position>
            <AltitudeMeters>1210.4000244140625</AltitudeMeters>
            <DistanceMeters>62413.288761458</DistanceMeters>
          </Trackpoint>
          <Trackpoint>
            <Time>2019-08-01T12:44:00.000Z</Time>
            <Position>
              <LatitudeDegrees>40.72686561383306980133056640625</LatitudeDegrees>
              <LongitudeDegrees>-3.97975151427090167999267578125</LongitudeDegrees>
            </Position>
            <AltitudeMeters>1209.199951171875</AltitudeMeters>
            <DistanceMeters>62418.785545589</DistanceMeters>
          </Trackpoint>
          <Trackpoint>
            <Time>2019-08-01T12:44:04.000Z</Time>
            <Position>
              <LatitudeDegrees>40.72690241038799285888671875</LatitudeDegrees>
              <LongitudeDegrees>-3.9798236824572086334228515625</LongitudeDegrees>
            </Position>
            <AltitudeMeters>1208.199951171875</AltitudeMeters>
            <DistanceMeters>62426.12170641</DistanceMeters>
          </Trackpoint>
          <Trackpoint>
            <Time>2019-08-01T12:44:08.000Z</Time>
            <Position>
              <LatitudeDegrees>40.7269397936761379241943359375</LatitudeDegrees>
              <LongitudeDegrees>-3.9799001254141330718994140625</LongitudeDegrees>
            </Position>
            <AltitudeMeters>1207.199951171875</AltitudeMeters>
            <DistanceMeters>62433.795959375</DistanceMeters>
          </Trackpoint>
          <Trackpoint>
            <Time>2019-08-01T12:44:12.000Z</Time>
            <Position>
              <LatitudeDegrees>40.72697105817496776580810546875</LatitudeDegrees>
              <LongitudeDegrees>-3.9799732156097888946533203125</LongitudeDegrees>
            </Position>
            <AltitudeMeters>1206.199951171875</AltitudeMeters>
            <DistanceMeters>62440.875290153</DistanceMeters>
          </Trackpoint>
          <Trackpoint>
            <Time>2019-08-01T12:44:16.000Z</Time>
            <Position>
              <LatitudeDegrees>40.72700223885476589202880859375</LatitudeDegrees>
              <LongitudeDegrees>-3.98003767244517803192138671875</LongitudeDegrees>
            </Position>
            <AltitudeMeters>1205.4000244140625</AltitudeMeters>
            <DistanceMeters>62447.325917429</DistanceMeters>
          </Trackpoint>
          <Trackpoint>
            <Time>2019-08-01T12:44:21.000Z</Time>
            <Position>
              <LatitudeDegrees>40.7270383648574352264404296875</LatitudeDegrees>
              <LongitudeDegrees>-3.98012333549559116363525390625</LongitudeDegrees>
            </Position>
            <AltitudeMeters>1204.4000244140625</AltitudeMeters>
            <DistanceMeters>62455.594333768</DistanceMeters>
          </Trackpoint>
          <Trackpoint>
            <Time>2019-08-01T12:44:25.000Z</Time>
            <Position>
              <LatitudeDegrees>40.72707004845142364501953125</LatitudeDegrees>
              <LongitudeDegrees>-3.98019558750092983245849609375</LongitudeDegrees>
            </Position>
            <AltitudeMeters>1203.4000244140625</AltitudeMeters>
            <DistanceMeters>62462.635293907</DistanceMeters>
          </Trackpoint>
          <Trackpoint>
            <Time>2019-08-01T12:44:31.000Z</Time>
            <Position>
              <LatitudeDegrees>40.72711003012955188751220703125</LatitudeDegrees>
              <LongitudeDegrees>-3.98030673153698444366455078125</LongitudeDegrees>
            </Position>
            <AltitudeMeters>1202.4000244140625</AltitudeMeters>
            <DistanceMeters>62473.012802841</DistanceMeters>
          </Trackpoint>
          <Trackpoint>
            <Time>2019-08-01T12:44:36.000Z</Time>
            <Position>
              <LatitudeDegrees>40.7271426357328891754150390625</LatitudeDegrees>
              <LongitudeDegrees>-3.98039541207253932952880859375</LongitudeDegrees>
            </Position>
            <AltitudeMeters>1201.4000244140625</AltitudeMeters>
            <DistanceMeters>62481.326961558</DistanceMeters>
          </Trackpoint>
          <Trackpoint>
            <Time>2019-08-01T12:44:40.000Z</Time>
            <Position>
              <LatitudeDegrees>40.72716669179499149322509765625</LatitudeDegrees>
              <LongitudeDegrees>-3.98046665824949741363525390625</LongitudeDegrees>
            </Position>
            <AltitudeMeters>1200.199951171875</AltitudeMeters>
            <DistanceMeters>62487.905116795</DistanceMeters>
          </Trackpoint>
          <Trackpoint>
            <Time>2019-08-01T12:44:42.000Z</Time>
            <Position>
              <LatitudeDegrees>40.7271795161068439483642578125</LatitudeDegrees>
              <LongitudeDegrees>-3.980501778423786163330078125</LongitudeDegrees>
            </Position>
            <AltitudeMeters>1199.199951171875</AltitudeMeters>
            <DistanceMeters>62491.194194414</DistanceMeters>
          </Trackpoint>
          <Trackpoint>
            <Time>2019-08-01T12:44:44.000Z</Time>
            <Position>
              <LatitudeDegrees>40.7271895743906497955322265625</LatitudeDegrees>
              <LongitudeDegrees>-3.98053740151226520538330078125</LongitudeDegrees>
            </Position>
            <AltitudeMeters>1198</AltitudeMeters>
            <DistanceMeters>62494.402665568</DistanceMeters>
          </Trackpoint>
          <Trackpoint>
            <Time>2019-08-01T12:44:47.000Z</Time>
            <Position>
              <LatitudeDegrees>40.7272036559879779815673828125</LatitudeDegrees>
              <LongitudeDegrees>-3.98058953694999217987060546875</LongitudeDegrees>
            </Position>
            <AltitudeMeters>1197</AltitudeMeters>
            <DistanceMeters>62499.071563139</DistanceMeters>
          </Trackpoint>
          <Trackpoint>
            <Time>2019-08-01T12:44:49.000Z</Time>
            <Position>
              <LatitudeDegrees>40.7272127084434032440185546875</LatitudeDegrees>
              <LongitudeDegrees>-3.98062415421009063720703125</LongitudeDegrees>
            </Position>
            <AltitudeMeters>1195.5999755859375</AltitudeMeters>
            <DistanceMeters>62502.161027624</DistanceMeters>
          </Trackpoint>
          <Trackpoint>
            <Time>2019-08-01T12:44:51.000Z</Time>
            <Position>
              <LatitudeDegrees>40.727221257984638214111328125</LatitudeDegrees>
              <LongitudeDegrees>-3.98065927438437938690185546875</LongitudeDegrees>
            </Position>
            <AltitudeMeters>1194</AltitudeMeters>
            <DistanceMeters>62505.272336343</DistanceMeters>
          </Trackpoint>
          <Trackpoint>
            <Time>2019-08-01T12:44:53.000Z</Time>
            <Position>
              <LatitudeDegrees>40.72723156772553920745849609375</LatitudeDegrees>
              <LongitudeDegrees>-3.98069464601576328277587890625</LongitudeDegrees>
            </Position>
            <AltitudeMeters>1192.800048828125</AltitudeMeters>
            <DistanceMeters>62508.466704259</DistanceMeters>
          </Trackpoint>
          <Trackpoint>
            <Time>2019-08-01T12:44:55.000Z</Time>
            <Position>
              <LatitudeDegrees>40.72724095545709133148193359375</LatitudeDegrees>
              <LongitudeDegrees>-3.98073018528521060943603515625</LongitudeDegrees>
            </Position>
            <AltitudeMeters>1191.4000244140625</AltitudeMeters>
            <DistanceMeters>62511.641222382</DistanceMeters>
          </Trackpoint>
          <Trackpoint>
            <Time>2019-08-01T12:44:57.000Z</Time>
            <Position>
              <LatitudeDegrees>40.727251432836055755615234375</LatitudeDegrees>
              <LongitudeDegrees>-3.9807637967169284820556640625</LongitudeDegrees>
            </Position>
            <AltitudeMeters>1190.199951171875</AltitudeMeters>
            <DistanceMeters>62514.707214812</DistanceMeters>
          </Trackpoint>
          <Trackpoint>
            <Time>2019-08-01T12:44:59.000Z</Time>
            <Position>
              <LatitudeDegrees>40.72726140730082988739013671875</LatitudeDegrees>
              <LongitudeDegrees>-3.9807969890534877777099609375</LongitudeDegrees>
            </Position>
            <AltitudeMeters>1188.4000244140625</AltitudeMeters>
            <DistanceMeters>62517.71822739</DistanceMeters>
          </Trackpoint>
          <Trackpoint>
            <Time>2019-08-01T12:45:01.000Z</Time>
            <Position>
              <LatitudeDegrees>40.72726995684206485748291015625</LatitudeDegrees>
              <LongitudeDegrees>-3.98083177395164966583251953125</LongitudeDegrees>
            </Position>
            <AltitudeMeters>1187</AltitudeMeters>
            <DistanceMeters>62520.801840611</DistanceMeters>
          </Trackpoint>
          <Trackpoint>
            <Time>2019-08-01T12:45:03.000Z</Time>
            <Position>
              <LatitudeDegrees>40.72727699764072895050048828125</LatitudeDegrees>
              <LongitudeDegrees>-3.9808670617640018463134765625</LongitudeDegrees>
            </Position>
            <AltitudeMeters>1185.5999755859375</AltitudeMeters>
            <DistanceMeters>62523.881058087</DistanceMeters>
          </Trackpoint>
          <Trackpoint>
            <Time>2019-08-01T12:45:05.000Z</Time>
            <Position>
              <LatitudeDegrees>40.7272854633629322052001953125</LatitudeDegrees>
              <LongitudeDegrees>-3.9809010922908782958984375</LongitudeDegrees>
            </Position>
            <AltitudeMeters>1184.199951171875</AltitudeMeters>
            <DistanceMeters>62526.90404293</DistanceMeters>
          </Trackpoint>
          <Trackpoint>
            <Time>2019-08-01T12:45:07.000Z</Time>
            <Position>
              <LatitudeDegrees>40.72729325853288173675537109375</LatitudeDegrees>
              <LongitudeDegrees>-3.9809361286461353302001953125</LongitudeDegrees>
            </Position>
            <AltitudeMeters>1182.800048828125</AltitudeMeters>
            <DistanceMeters>62529.984726352</DistanceMeters>
          </Trackpoint>
          <Trackpoint>
            <Time>2019-08-01T12:45:08.000Z</Time>
            <Position>
              <LatitudeDegrees>40.72729694657027721405029296875</LatitudeDegrees>
              <LongitudeDegrees>-3.98095364682376384735107421875</LongitudeDegrees>
            </Position>
            <AltitudeMeters>1181.800048828125</AltitudeMeters>
            <DistanceMeters>62531.519929906</DistanceMeters>
          </Trackpoint>
          <Trackpoint>
            <Time>2019-08-01T12:45:10.000Z</Time>
            <Position>
              <LatitudeDegrees>40.72730398736894130706787109375</LatitudeDegrees>
              <LongitudeDegrees>-3.9809887669980525970458984375</LongitudeDegrees>
            </Position>
            <AltitudeMeters>1180.5999755859375</AltitudeMeters>
            <DistanceMeters>62534.584449363</DistanceMeters>
          </Trackpoint>
          <Trackpoint>
            <Time>2019-08-01T12:45:12.000Z</Time>
            <Position>
              <LatitudeDegrees>40.72731136344373226165771484375</LatitudeDegrees>
              <LongitudeDegrees>-3.98102573119103908538818359375</LongitudeDegrees>
            </Position>
            <AltitudeMeters>1179.199951171875</AltitudeMeters>
            <DistanceMeters>62537.806962033</DistanceMeters>
          </Trackpoint>
          <Trackpoint>
            <Time>2019-08-01T12:45:14.000Z</Time>
            <Position>
              <LatitudeDegrees>40.727317817509174346923828125</LatitudeDegrees>
              <LongitudeDegrees>-3.9810628630220890045166015625</LongitudeDegrees>
            </Position>
            <AltitudeMeters>1177.800048828125</AltitudeMeters>
            <DistanceMeters>62541.021057155</DistanceMeters>
          </Trackpoint>
          <Trackpoint>
            <Time>2019-08-01T12:45:16.000Z</Time>
            <Position>
              <LatitudeDegrees>40.7273243553936481475830078125</LatitudeDegrees>
              <LongitudeDegrees>-3.98109898902475833892822265625</LongitudeDegrees>
            </Position>
            <AltitudeMeters>1176.5999755859375</AltitudeMeters>
            <DistanceMeters>62544.152616354</DistanceMeters>
          </Trackpoint>
          <Trackpoint>
            <Time>2019-08-01T12:45:18.000Z</Time>
            <Position>
              <LatitudeDegrees>40.727332569658756256103515625</LatitudeDegrees>
              <LongitudeDegrees>-3.98113318718969821929931640625</LongitudeDegrees>
            </Position>
            <AltitudeMeters>1175.199951171875</AltitudeMeters>
            <DistanceMeters>62547.178586862</DistanceMeters>
          </Trackpoint>
          <Trackpoint>
            <Time>2019-08-01T12:45:20.000Z</Time>
            <Position>
              <LatitudeDegrees>40.72733986191451549530029296875</LatitudeDegrees>
              <LongitudeDegrees>-3.9811654575169086456298828125</LongitudeDegrees>
            </Position>
            <AltitudeMeters>1174</AltitudeMeters>
            <DistanceMeters>62550.019869731</DistanceMeters>
          </Trackpoint>
          <Trackpoint>
            <Time>2019-08-01T12:45:22.000Z</Time>
            <Position>
              <LatitudeDegrees>40.7273464836180210113525390625</LatitudeDegrees>
              <LongitudeDegrees>-3.9811999909579753875732421875</LongitudeDegrees>
            </Position>
            <AltitudeMeters>1172.5999755859375</AltitudeMeters>
            <DistanceMeters>62553.02487829</DistanceMeters>
          </Trackpoint>
          <Trackpoint>
            <Time>2019-08-01T12:45:24.000Z</Time>
            <Position>
              <LatitudeDegrees>40.7273498363792896270751953125</LatitudeDegrees>
              <LongitudeDegrees>-3.98123678751289844512939453125</LongitudeDegrees>
            </Position>
            <AltitudeMeters>1171.199951171875</AltitudeMeters>
            <DistanceMeters>62556.150665025</DistanceMeters>
          </Trackpoint>
          <Trackpoint>
            <Time>2019-08-01T12:45:26.000Z</Time>
            <Position>
              <LatitudeDegrees>40.7273501716554164886474609375</LatitudeDegrees>
              <LongitudeDegrees>-3.98127232678234577178955078125</LongitudeDegrees>
            </Position>
            <AltitudeMeters>1169.4000244140625</AltitudeMeters>
            <DistanceMeters>62559.146644996</DistanceMeters>
          </Trackpoint>
          <Trackpoint>
            <Time>2019-08-01T12:45:28.000Z</Time>
            <Position>
              <LatitudeDegrees>40.72735193185508251190185546875</LatitudeDegrees>
              <LongitudeDegrees>-3.98130811750888824462890625</LongitudeDegrees>
            </Position>
            <AltitudeMeters>1167.800048828125</AltitudeMeters>
            <DistanceMeters>62562.17112304</DistanceMeters>
          </Trackpoint>
          <Trackpoint>
            <Time>2019-08-01T12:45:30.000Z</Time>
            <Position>
              <LatitudeDegrees>40.727354027330875396728515625</LatitudeDegrees>
              <LongitudeDegrees>-3.9813431538641452789306640625</LongitudeDegrees>
            </Position>
            <AltitudeMeters>1166</AltitudeMeters>
            <DistanceMeters>62565.133762792</DistanceMeters>
          </Trackpoint>
          <Trackpoint>
            <Time>2019-08-01T12:45:32.000Z</Time>
            <Position>
              <LatitudeDegrees>40.72735478170216083526611328125</LatitudeDegrees>
              <LongitudeDegrees>-3.981378860771656036376953125</LongitudeDegrees>
            </Position>
            <AltitudeMeters>1164.5999755859375</AltitudeMeters>
            <DistanceMeters>62568.144775371</DistanceMeters>
          </Trackpoint>
          <Trackpoint>
            <Time>2019-08-01T12:45:34.000Z</Time>
            <Position>
              <LatitudeDegrees>40.72735595516860485076904296875</LatitudeDegrees>
              <LongitudeDegrees>-3.98141448386013507843017578125</LongitudeDegrees>
            </Position>
            <AltitudeMeters>1163.199951171875</AltitudeMeters>
            <DistanceMeters>62571.152787439</DistanceMeters>
          </Trackpoint>
          <Trackpoint>
            <Time>2019-08-01T12:45:36.000Z</Time>
            <Position>
              <LatitudeDegrees>40.7273602299392223358154296875</LatitudeDegrees>
              <LongitudeDegrees>-3.98144893348217010498046875</LongitudeDegrees>
            </Position>
            <AltitudeMeters>1161.800048828125</AltitudeMeters>
            <DistanceMeters>62574.097082496</DistanceMeters>
          </Trackpoint>
          <Trackpoint>
            <Time>2019-08-01T12:45:38.000Z</Time>
            <Position>
              <LatitudeDegrees>40.7273622415959835052490234375</LatitudeDegrees>
              <LongitudeDegrees>-3.981482796370983123779296875</LongitudeDegrees>
            </Position>
            <AltitudeMeters>1160.4000244140625</AltitudeMeters>
            <DistanceMeters>62576.960526124</DistanceMeters>
          </Trackpoint>
          <Trackpoint>
            <Time>2019-08-01T12:45:40.000Z</Time>
            <Position>
              <LatitudeDegrees>40.7273642532527446746826171875</LatitudeDegrees>
              <LongitudeDegrees>-3.98151624016463756561279296875</LongitudeDegrees>
            </Position>
            <AltitudeMeters>1159</AltitudeMeters>
            <DistanceMeters>62579.78906775</DistanceMeters>
          </Trackpoint>
          <Trackpoint>
            <Time>2019-08-01T12:45:42.000Z</Time>
            <Position>
              <LatitudeDegrees>40.7273666001856327056884765625</LatitudeDegrees>
              <LongitudeDegrees>-3.9815490134060382843017578125</LongitudeDegrees>
            </Position>
            <AltitudeMeters>1157.4000244140625</AltitudeMeters>
            <DistanceMeters>62582.566059879</DistanceMeters>
          </Trackpoint>
          <Trackpoint>
            <Time>2019-08-01T12:45:44.000Z</Time>
            <Position>
              <LatitudeDegrees>40.72736869566142559051513671875</LatitudeDegrees>
              <LongitudeDegrees>-3.9815818704664707183837890625</LongitudeDegrees>
            </Position>
            <AltitudeMeters>1156</AltitudeMeters>
            <DistanceMeters>62585.346301853</DistanceMeters>
          </Trackpoint>
          <Trackpoint>
            <Time>2019-08-01T12:45:46.000Z</Time>
            <Position>
              <LatitudeDegrees>40.72736903093755245208740234375</LatitudeDegrees>
              <LongitudeDegrees>-3.9816164039075374603271484375</LongitudeDegrees>
            </Position>
            <AltitudeMeters>1154.5999755859375</AltitudeMeters>
            <DistanceMeters>62588.258215619</DistanceMeters>
          </Trackpoint>
          <Trackpoint>
            <Time>2019-08-01T12:45:48.000Z</Time>
            <Position>
              <LatitudeDegrees>40.7273712940514087677001953125</LatitudeDegrees>
              <LongitudeDegrees>-3.98165102116763591766357421875</LongitudeDegrees>
            </Position>
            <AltitudeMeters>1153</AltitudeMeters>
            <DistanceMeters>62591.190217116</DistanceMeters>
          </Trackpoint>
          <Trackpoint>
            <Time>2019-08-01T12:45:50.000Z</Time>
            <Position>
              <LatitudeDegrees>40.7273753173649311065673828125</LatitudeDegrees>
              <LongitudeDegrees>-3.98168438114225864410400390625</LongitudeDegrees>
            </Position>
            <AltitudeMeters>1151.800048828125</AltitudeMeters>
            <DistanceMeters>62594.039434328</DistanceMeters>
          </Trackpoint>
          <Trackpoint>
            <Time>2019-08-01T12:45:52.000Z</Time>
            <Position>
              <LatitudeDegrees>40.7273769937455654144287109375</LatitudeDegrees>
              <LongitudeDegrees>-3.9817193336784839630126953125</LongitudeDegrees>
            </Position>
            <AltitudeMeters>1150.199951171875</AltitudeMeters>
            <DistanceMeters>62596.994444298</DistanceMeters>
          </Trackpoint>
          <Trackpoint>
            <Time>2019-08-01T12:45:54.000Z</Time>
            <Position>
              <LatitudeDegrees>40.72737774811685085296630859375</LatitudeDegrees>
              <LongitudeDegrees>-3.9817538671195507049560546875</LongitudeDegrees>
            </Position>
            <AltitudeMeters>1148.5999755859375</AltitudeMeters>
            <DistanceMeters>62599.907908191</DistanceMeters>
          </Trackpoint>
          <Trackpoint>
            <Time>2019-08-01T12:45:56.000Z</Time>
            <Position>
              <LatitudeDegrees>40.72737774811685085296630859375</LatitudeDegrees>
              <LongitudeDegrees>-3.98178781382739543914794921875</LongitudeDegrees>
            </Position>
            <AltitudeMeters>1147.199951171875</AltitudeMeters>
            <DistanceMeters>62602.769774599</DistanceMeters>
          </Trackpoint>
          <Trackpoint>
            <Time>2019-08-01T12:45:58.000Z</Time>
            <Position>
              <LatitudeDegrees>40.72737841866910457611083984375</LatitudeDegrees>
              <LongitudeDegrees>-3.98182536475360393524169921875</LongitudeDegrees>
            </Position>
            <AltitudeMeters>1145.5999755859375</AltitudeMeters>
            <DistanceMeters>62605.937173362</DistanceMeters>
          </Trackpoint>
          <Trackpoint>
            <Time>2019-08-01T12:46:00.000Z</Time>
            <Position>
              <LatitudeDegrees>40.727377831935882568359375</LatitudeDegrees>
              <LongitudeDegrees>-3.98186266422271728515625</LongitudeDegrees>
            </Position>
            <AltitudeMeters>1144.199951171875</AltitudeMeters>
            <DistanceMeters>62609.083117383</DistanceMeters>
          </Trackpoint>
          <Trackpoint>
            <Time>2019-08-01T12:46:01.000Z</Time>
            <Position>
              <LatitudeDegrees>40.72737758047878742218017578125</LatitudeDegrees>
              <LongitudeDegrees>-3.98188152350485324859619140625</LongitudeDegrees>
            </Position>
            <AltitudeMeters>1143.199951171875</AltitudeMeters>
            <DistanceMeters>62610.673218451</DistanceMeters>
          </Trackpoint>
          <Trackpoint>
            <Time>2019-08-01T12:46:03.000Z</Time>
            <Position>
              <LatitudeDegrees>40.72737674228847026824951171875</LatitudeDegrees>
              <LongitudeDegrees>-3.9819188229739665985107421875</LongitudeDegrees>
            </Position>
            <AltitudeMeters>1142</AltitudeMeters>
            <DistanceMeters>62613.820597338</DistanceMeters>
          </Trackpoint>
          <Trackpoint>
            <Time>2019-08-01T12:46:05.000Z</Time>
            <Position>
              <LatitudeDegrees>40.72737623937427997589111328125</LatitudeDegrees>
              <LongitudeDegrees>-3.9819543622434139251708984375</LongitudeDegrees>
            </Position>
            <AltitudeMeters>1141</AltitudeMeters>
            <DistanceMeters>62616.819589858</DistanceMeters>
          </Trackpoint>
          <Trackpoint>
            <Time>2019-08-01T12:46:07.000Z</Time>
            <Position>
              <LatitudeDegrees>40.72737556882202625274658203125</LatitudeDegrees>
              <LongitudeDegrees>-3.981989733874797821044921875</LongitudeDegrees>
            </Position>
            <AltitudeMeters>1139.5999755859375</AltitudeMeters>
            <DistanceMeters>62619.803489215</DistanceMeters>
          </Trackpoint>
          <Trackpoint>
            <Time>2019-08-01T12:46:09.000Z</Time>
            <Position>
              <LatitudeDegrees>40.7273749820888042449951171875</LatitudeDegrees>
              <LongitudeDegrees>-3.9820244349539279937744140625</LongitudeDegrees>
            </Position>
            <AltitudeMeters>1138.199951171875</AltitudeMeters>
            <DistanceMeters>62622.732409259</DistanceMeters>
          </Trackpoint>
          <Trackpoint>
            <Time>2019-08-01T12:46:11.000Z</Time>
            <Position>
              <LatitudeDegrees>40.7273736409842967987060546875</LatitudeDegrees>
              <LongitudeDegrees>-3.98205854929983615875244140625</LongitudeDegrees>
            </Position>
            <AltitudeMeters>1136.5999755859375</AltitudeMeters>
            <DistanceMeters>62625.614712215</DistanceMeters>
          </Trackpoint>
          <Trackpoint>
            <Time>2019-08-01T12:46:13.000Z</Time>
            <Position>
              <LatitudeDegrees>40.72737322188913822174072265625</LatitudeDegrees>
              <LongitudeDegrees>-3.9820955134928226470947265625</LongitudeDegrees>
            </Position>
            <AltitudeMeters>1135.5999755859375</AltitudeMeters>
            <DistanceMeters>62628.73182021</DistanceMeters>
          </Trackpoint>
          <Trackpoint>
            <Time>2019-08-01T12:46:15.000Z</Time>
            <Position>
              <LatitudeDegrees>40.72737121023237705230712890625</LatitudeDegrees>
              <LongitudeDegrees>-3.9821323938667774200439453125</LongitudeDegrees>
            </Position>
            <AltitudeMeters>1134.199951171875</AltitudeMeters>
            <DistanceMeters>62631.851823801</DistanceMeters>
          </Trackpoint>
          <Trackpoint>
            <Time>2019-08-01T12:46:17.000Z</Time>
            <Position>
              <LatitudeDegrees>40.7273676060140132904052734375</LatitudeDegrees>
              <LongitudeDegrees>-3.98216902278363704681396484375</LongitudeDegrees>
            </Position>
            <AltitudeMeters>1133.199951171875</AltitudeMeters>
            <DistanceMeters>62634.968931796</DistanceMeters>
          </Trackpoint>
          <Trackpoint>
            <Time>2019-08-01T12:46:19.000Z</Time>
            <Position>
              <LatitudeDegrees>40.72736375033855438232421875</LatitudeDegrees>
              <LongitudeDegrees>-3.9822058193385601043701171875</LongitudeDegrees>
            </Position>
            <AltitudeMeters>1132</AltitudeMeters>
            <DistanceMeters>62638.100490995</DistanceMeters>
          </Trackpoint>
          <Trackpoint>
            <Time>2019-08-01T12:46:22.000Z</Time>
            <Position>
              <LatitudeDegrees>40.72736148722469806671142578125</LatitudeDegrees>
              <LongitudeDegrees>-3.9822611398994922637939453125</LongitudeDegrees>
            </Position>
            <AltitudeMeters>1130.4000244140625</AltitudeMeters>
            <DistanceMeters>62642.773255149</DistanceMeters>
          </Trackpoint>
          <Trackpoint>
            <Time>2019-08-01T12:46:24.000Z</Time>
            <Position>
              <LatitudeDegrees>40.7273568771779537200927734375</LatitudeDegrees>
              <LongitudeDegrees>-3.982295505702495574951171875</LongitudeDegrees>
            </Position>
            <AltitudeMeters>1129.4000244140625</AltitudeMeters>
            <DistanceMeters>62645.71601632</DistanceMeters>
          </Trackpoint>
          <Trackpoint>
            <Time>2019-08-01T12:46:26.000Z</Time>
            <Position>
              <LatitudeDegrees>40.7273511774837970733642578125</LatitudeDegrees>
              <LongitudeDegrees>-3.98233029060065746307373046875</LongitudeDegrees>
            </Position>
            <AltitudeMeters>1128.199951171875</AltitudeMeters>
            <DistanceMeters>62648.718018368</DistanceMeters>
          </Trackpoint>
          <Trackpoint>
            <Time>2019-08-01T12:46:28.000Z</Time>
            <Position>
              <LatitudeDegrees>40.727347992360591888427734375</LatitudeDegrees>
              <LongitudeDegrees>-3.98236582987010478973388671875</LongitudeDegrees>
            </Position>
            <AltitudeMeters>1126.800048828125</AltitudeMeters>
            <DistanceMeters>62651.735023017</DistanceMeters>
          </Trackpoint>
          <Trackpoint>
            <Time>2019-08-01T12:46:29.000Z</Time>
            <Position>
              <LatitudeDegrees>40.72734438814222812652587890625</LatitudeDegrees>
              <LongitudeDegrees>-3.98238393478095531463623046875</LongitudeDegrees>
            </Position>
            <AltitudeMeters>1126.199951171875</AltitudeMeters>
            <DistanceMeters>62653.313725363</DistanceMeters>
          </Trackpoint>
          <Trackpoint>
            <Time>2019-08-01T12:46:30.000Z</Time>
            <Position>
              <LatitudeDegrees>40.7273391075432300567626953125</LatitudeDegrees>
              <LongitudeDegrees>-3.98240245878696441650390625</LongitudeDegrees>
            </Position>
            <AltitudeMeters>1125.800048828125</AltitudeMeters>
            <DistanceMeters>62654.981437432</DistanceMeters>
          </Trackpoint>
          <Trackpoint>
            <Time>2019-08-01T12:46:33.000Z</Time>
            <Position>
              <LatitudeDegrees>40.72733449749648571014404296875</LatitudeDegrees>
              <LongitudeDegrees>-3.9824626408517360687255859375</LongitudeDegrees>
            </Position>
            <AltitudeMeters>1124.199951171875</AltitudeMeters>
            <DistanceMeters>62660.083761451</DistanceMeters>
          </Trackpoint>
          <Trackpoint>
            <Time>2019-08-01T12:46:35.000Z</Time>
            <Position>
              <LatitudeDegrees>40.7273283787071704864501953125</LatitudeDegrees>
              <LongitudeDegrees>-3.98249910213053226470947265625</LongitudeDegrees>
            </Position>
            <AltitudeMeters>1123</AltitudeMeters>
            <DistanceMeters>62663.23400811</DistanceMeters>
          </Trackpoint>
          <Trackpoint>
            <Time>2019-08-01T12:46:37.000Z</Time>
            <Position>
              <LatitudeDegrees>40.7273263670504093170166015625</LatitudeDegrees>
              <LongitudeDegrees>-3.98253547959029674530029296875</LongitudeDegrees>
            </Position>
            <AltitudeMeters>1121.5999755859375</AltitudeMeters>
            <DistanceMeters>62666.308823557</DistanceMeters>
          </Trackpoint>
          <Trackpoint>
            <Time>2019-08-01T12:46:39.000Z</Time>
            <Position>
              <LatitudeDegrees>40.72732058353722095489501953125</LatitudeDegrees>
              <LongitudeDegrees>-3.98256984539330005645751953125</LongitudeDegrees>
            </Position>
            <AltitudeMeters>1120.4000244140625</AltitudeMeters>
            <DistanceMeters>62669.277553018</DistanceMeters>
          </Trackpoint>
          <Trackpoint>
            <Time>2019-08-01T12:46:41.000Z</Time>
            <Position>
              <LatitudeDegrees>40.7273148000240325927734375</LatitudeDegrees>
              <LongitudeDegrees>-3.98260404355823993682861328125</LongitudeDegrees>
            </Position>
            <AltitudeMeters>1119</AltitudeMeters>
            <DistanceMeters>62672.232562987</DistanceMeters>
          </Trackpoint>
          <Trackpoint>
            <Time>2019-08-01T12:46:43.000Z</Time>
            <Position>
              <LatitudeDegrees>40.72730700485408306121826171875</LatitudeDegrees>
              <LongitudeDegrees>-3.98263907991349697113037109375</LongitudeDegrees>
            </Position>
            <AltitudeMeters>1117.800048828125</AltitudeMeters>
            <DistanceMeters>62675.313246409</DistanceMeters>
          </Trackpoint>
          <Trackpoint>
            <Time>2019-08-01T12:46:45.000Z</Time>
            <Position>
              <LatitudeDegrees>40.72730247862637042999267578125</LatitudeDegrees>
              <LongitudeDegrees>-3.98267269134521484375</LongitudeDegrees>
            </Position>
            <AltitudeMeters>1116.800048828125</AltitudeMeters>
            <DistanceMeters>62678.192414722</DistanceMeters>
          </Trackpoint>
          <Trackpoint>
            <Time>2019-08-01T12:46:47.000Z</Time>
            <Position>
              <LatitudeDegrees>40.727295689284801483154296875</LatitudeDegrees>
              <LongitudeDegrees>-3.98270647041499614715576171875</LongitudeDegrees>
            </Position>
            <AltitudeMeters>1115.5999755859375</AltitudeMeters>
            <DistanceMeters>62681.139775158</DistanceMeters>
          </Trackpoint>
          <Trackpoint>
            <Time>2019-08-01T12:46:50.000Z</Time>
            <Position>
              <LatitudeDegrees>40.72728588245809078216552734375</LatitudeDegrees>
              <LongitudeDegrees>-3.9827563427388668060302734375</LongitudeDegrees>
            </Position>
            <AltitudeMeters>1114.4000244140625</AltitudeMeters>
            <DistanceMeters>62685.486143748</DistanceMeters>
          </Trackpoint>
          <Trackpoint>
            <Time>2019-08-01T12:46:53.000Z</Time>
            <Position>
              <LatitudeDegrees>40.7272760756313800811767578125</LatitudeDegrees>
              <LongitudeDegrees>-3.982804119586944580078125</LongitudeDegrees>
            </Position>
            <AltitudeMeters>1112.800048828125</AltitudeMeters>
            <DistanceMeters>62689.659753392</DistanceMeters>
          </Trackpoint>
          <Trackpoint>
            <Time>2019-08-01T12:46:55.000Z</Time>
            <Position>
              <LatitudeDegrees>40.72726987302303314208984375</LatitudeDegrees>
              <LongitudeDegrees>-3.9828358031809329986572265625</LongitudeDegrees>
            </Position>
            <AltitudeMeters>1111.5999755859375</AltitudeMeters>
            <DistanceMeters>62692.418802946</DistanceMeters>
          </Trackpoint>
          <Trackpoint>
            <Time>2019-08-01T12:47:00.000Z</Time>
            <Position>
              <LatitudeDegrees>40.727249421179294586181640625</LatitudeDegrees>
              <LongitudeDegrees>-3.98291350342333316802978515625</LongitudeDegrees>
            </Position>
            <AltitudeMeters>1110.199951171875</AltitudeMeters>
            <DistanceMeters>62699.356403932</DistanceMeters>
          </Trackpoint>
          <Trackpoint>
            <Time>2019-08-01T12:47:04.000Z</Time>
            <Position>
              <LatitudeDegrees>40.72723366320133209228515625</LatitudeDegrees>
              <LongitudeDegrees>-3.9829756133258342742919921875</LongitudeDegrees>
            </Position>
            <AltitudeMeters>1109</AltitudeMeters>
            <DistanceMeters>62704.880227636</DistanceMeters>
          </Trackpoint>
          <Trackpoint>
            <Time>2019-08-01T12:47:07.000Z</Time>
            <Position>
              <LatitudeDegrees>40.72721664793789386749267578125</LatitudeDegrees>
              <LongitudeDegrees>-3.98302095942199230194091796875</LongitudeDegrees>
            </Position>
            <AltitudeMeters>1107.4000244140625</AltitudeMeters>
            <DistanceMeters>62709.147974604</DistanceMeters>
          </Trackpoint>
          <Trackpoint>
            <Time>2019-08-01T12:47:08.000Z</Time>
            <Position>
              <LatitudeDegrees>40.72721178643405437469482421875</LatitudeDegrees>
              <LongitudeDegrees>-3.98303638212382793426513671875</LongitudeDegrees>
            </Position>
            <AltitudeMeters>1107.199951171875</AltitudeMeters>
            <DistanceMeters>62710.557448555</DistanceMeters>
          </Trackpoint>
          <Trackpoint>
            <Time>2019-08-01T12:47:11.000Z</Time>
            <Position>
              <LatitudeDegrees>40.72719787247478961944580078125</LatitudeDegrees>
              <LongitudeDegrees>-3.98308248259127140045166015625</LongitudeDegrees>
            </Position>
            <AltitudeMeters>1106</AltitudeMeters>
            <DistanceMeters>62714.742941154</DistanceMeters>
          </Trackpoint>
          <Trackpoint>
            <Time>2019-08-01T12:47:14.000Z</Time>
            <Position>
              <LatitudeDegrees>40.72718194685876369476318359375</LatitudeDegrees>
              <LongitudeDegrees>-3.98312808014452457427978515625</LongitudeDegrees>
            </Position>
            <AltitudeMeters>1104.5999755859375</AltitudeMeters>
            <DistanceMeters>62718.97776486</DistanceMeters>
          </Trackpoint>
          <Trackpoint>
            <Time>2019-08-01T12:47:18.000Z</Time>
            <Position>
              <LatitudeDegrees>40.7271637581288814544677734375</LatitudeDegrees>
              <LongitudeDegrees>-3.9831918664276599884033203125</LongitudeDegrees>
            </Position>
            <AltitudeMeters>1103</AltitudeMeters>
            <DistanceMeters>62724.72668474</DistanceMeters>
          </Trackpoint>
          <Trackpoint>
            <Time>2019-08-01T12:47:21.000Z</Time>
            <Position>
              <LatitudeDegrees>40.72714875452220439910888671875</LatitudeDegrees>
              <LongitudeDegrees>-3.98323939181864261627197265625</LongitudeDegrees>
            </Position>
            <AltitudeMeters>1101.800048828125</AltitudeMeters>
            <DistanceMeters>62729.068896114</DistanceMeters>
          </Trackpoint>
          <Trackpoint>
            <Time>2019-08-01T12:47:27.000Z</Time>
            <Position>
              <LatitudeDegrees>40.7271168194711208343505859375</LatitudeDegrees>
              <LongitudeDegrees>-3.98334148339927196502685546875</LongitudeDegrees>
            </Position>
            <AltitudeMeters>1100.4000244140625</AltitudeMeters>
            <DistanceMeters>62738.384422649</DistanceMeters>
          </Trackpoint>
          <Trackpoint>
            <Time>2019-08-01T12:47:33.000Z</Time>
            <Position>
              <LatitudeDegrees>40.72708236984908580780029296875</LatitudeDegrees>
              <LongitudeDegrees>-3.98344642482697963714599609375</LongitudeDegrees>
            </Position>
            <AltitudeMeters>1099</AltitudeMeters>
            <DistanceMeters>62748.030921379</DistanceMeters>
          </Trackpoint>
          <Trackpoint>
            <Time>2019-08-01T12:47:54.000Z</Time>
            <Position>
              <LatitudeDegrees>40.726963765919208526611328125</LatitudeDegrees>
              <LongitudeDegrees>-3.98379343561828136444091796875</LongitudeDegrees>
            </Position>
            <AltitudeMeters>1097.199951171875</AltitudeMeters>
            <DistanceMeters>62780.139546819</DistanceMeters>
          </Trackpoint>
          <Trackpoint>
            <Time>2019-08-01T12:48:01.000Z</Time>
            <Position>
              <LatitudeDegrees>40.7269277237355709075927734375</LatitudeDegrees>
              <LongitudeDegrees>-3.9839060045778751373291015625</LongitudeDegrees>
            </Position>
            <AltitudeMeters>1096.199951171875</AltitudeMeters>
            <DistanceMeters>62790.44720802</DistanceMeters>
          </Trackpoint>
          <Trackpoint>
            <Time>2019-08-01T12:48:21.000Z</Time>
            <Position>
              <LatitudeDegrees>40.72681599296629428863525390625</LatitudeDegrees>
              <LongitudeDegrees>-3.98423097096383571624755859375</LongitudeDegrees>
            </Position>
            <AltitudeMeters>1095.199951171875</AltitudeMeters>
            <DistanceMeters>62820.546535412</DistanceMeters>
          </Trackpoint>
          <Trackpoint>
            <Time>2019-08-01T12:48:28.000Z</Time>
            <Position>
              <LatitudeDegrees>40.72677643038332462310791015625</LatitudeDegrees>
              <LongitudeDegrees>-3.98434932343661785125732421875</LongitudeDegrees>
            </Position>
            <AltitudeMeters>1093.5999755859375</AltitudeMeters>
            <DistanceMeters>62831.457241061</DistanceMeters>
          </Trackpoint>
          <Trackpoint>
            <Time>2019-08-01T12:48:36.000Z</Time>
            <Position>
              <LatitudeDegrees>40.72673209011554718017578125</LatitudeDegrees>
              <LongitudeDegrees>-3.9844836853444576263427734375</LongitudeDegrees>
            </Position>
            <AltitudeMeters>1093</AltitudeMeters>
            <DistanceMeters>62843.818386781</DistanceMeters>
          </Trackpoint>
          <Trackpoint>
            <Time>2019-08-01T12:48:49.000Z</Time>
            <Position>
              <LatitudeDegrees>40.72666562162339687347412109375</LatitudeDegrees>
              <LongitudeDegrees>-3.984696753323078155517578125</LongitudeDegrees>
            </Position>
            <AltitudeMeters>1094</AltitudeMeters>
            <DistanceMeters>62863.253615045</DistanceMeters>
          </Trackpoint>
          <Trackpoint>
            <Time>2019-08-01T12:48:54.000Z</Time>
            <Position>
              <LatitudeDegrees>40.726640559732913970947265625</LatitudeDegrees>
              <LongitudeDegrees>-3.9847750402987003326416015625</LongitudeDegrees>
            </Position>
            <AltitudeMeters>1094.800048828125</AltitudeMeters>
            <DistanceMeters>62870.422938243</DistanceMeters>
          </Trackpoint>
          <Trackpoint>
            <Time>2019-08-01T12:48:58.000Z</Time>
            <Position>
              <LatitudeDegrees>40.7266229577362537384033203125</LatitudeDegrees>
              <LongitudeDegrees>-3.98483446799218654632568359375</LongitudeDegrees>
            </Position>
            <AltitudeMeters>1095.800048828125</AltitudeMeters>
            <DistanceMeters>62875.805176182</DistanceMeters>
          </Trackpoint>
          <Trackpoint>
            <Time>2019-08-01T12:49:01.000Z</Time>
            <Position>
              <LatitudeDegrees>40.7266105525195598602294921875</LatitudeDegrees>
              <LongitudeDegrees>-3.98487688042223453521728515625</LongitudeDegrees>
            </Position>
            <AltitudeMeters>1096.800048828125</AltitudeMeters>
            <DistanceMeters>62879.639359856</DistanceMeters>
          </Trackpoint>
          <Trackpoint>
            <Time>2019-08-01T12:49:05.000Z</Time>
            <Position>
              <LatitudeDegrees>40.72659336961805820465087890625</LatitudeDegrees>
              <LongitudeDegrees>-3.98493270389735698699951171875</LongitudeDegrees>
            </Position>
            <AltitudeMeters>1097.800048828125</AltitudeMeters>
            <DistanceMeters>62884.721290457</DistanceMeters>
          </Trackpoint>
          <Trackpoint>
            <Time>2019-08-01T12:49:08.000Z</Time>
            <Position>
              <LatitudeDegrees>40.726579539477825164794921875</LatitudeDegrees>
              <LongitudeDegrees>-3.98497511632740497589111328125</LongitudeDegrees>
            </Position>
            <AltitudeMeters>1098.5999755859375</AltitudeMeters>
            <DistanceMeters>62888.615067332</DistanceMeters>
          </Trackpoint>
          <Trackpoint>
            <Time>2019-08-01T12:49:10.000Z</Time>
            <Position>
              <LatitudeDegrees>40.72657090611755847930908203125</LatitudeDegrees>
              <LongitudeDegrees>-3.98500420153141021728515625</LongitudeDegrees>
            </Position>
            <AltitudeMeters>1099.4000244140625</AltitudeMeters>
            <DistanceMeters>62891.248524889</DistanceMeters>
          </Trackpoint>
          <Trackpoint>
            <Time>2019-08-01T12:49:11.000Z</Time>
            <Position>
              <LatitudeDegrees>40.72656587697565555572509765625</LatitudeDegrees>
              <LongitudeDegrees>-3.985017947852611541748046875</LongitudeDegrees>
            </Position>
            <AltitudeMeters>1099.4000244140625</AltitudeMeters>
            <DistanceMeters>62892.537529958</DistanceMeters>
          </Trackpoint>
          <Trackpoint>
            <Time>2019-08-01T12:49:13.000Z</Time>
            <Position>
              <LatitudeDegrees>40.72655783034861087799072265625</LatitudeDegrees>
              <LongitudeDegrees>-3.98504535667598247528076171875</LongitudeDegrees>
            </Position>
            <AltitudeMeters>1100</AltitudeMeters>
            <DistanceMeters>62895.01916493</DistanceMeters>
          </Trackpoint>
          <Trackpoint>
            <Time>2019-08-01T12:49:16.000Z</Time>
            <Position>
              <LatitudeDegrees>40.72654307819902896881103515625</LatitudeDegrees>
              <LongitudeDegrees>-3.98508869111537933349609375</LongitudeDegrees>
            </Position>
            <AltitudeMeters>1100.800048828125</AltitudeMeters>
            <DistanceMeters>62899.024966453</DistanceMeters>
          </Trackpoint>
          <Trackpoint>
            <Time>2019-08-01T12:49:19.000Z</Time>
            <Position>
              <LatitudeDegrees>40.72652824223041534423828125</LatitudeDegrees>
              <LongitudeDegrees>-3.98513085208833217620849609375</LongitudeDegrees>
            </Position>
            <AltitudeMeters>1101.199951171875</AltitudeMeters>
            <DistanceMeters>62902.947625023</DistanceMeters>
          </Trackpoint>
          <Trackpoint>
            <Time>2019-08-01T12:49:21.000Z</Time>
            <Position>
              <LatitudeDegrees>40.72651843540370464324951171875</LatitudeDegrees>
              <LongitudeDegrees>-3.9851602725684642791748046875</LongitudeDegrees>
            </Position>
            <AltitudeMeters>1101.5999755859375</AltitudeMeters>
            <DistanceMeters>62905.660467131</DistanceMeters>
          </Trackpoint>
          <Trackpoint>
            <Time>2019-08-01T12:49:24.000Z</Time>
            <Position>
              <LatitudeDegrees>40.72650670073926448822021484375</LatitudeDegrees>
              <LongitudeDegrees>-3.985205031931400299072265625</LongitudeDegrees>
            </Position>
            <AltitudeMeters>1102.4000244140625</AltitudeMeters>
            <DistanceMeters>62909.653851034</DistanceMeters>
          </Trackpoint>
          <Trackpoint>
            <Time>2019-08-01T12:49:26.000Z</Time>
            <Position>
              <LatitudeDegrees>40.72649647481739521026611328125</LatitudeDegrees>
              <LongitudeDegrees>-3.985236547887325286865234375</LongitudeDegrees>
            </Position>
            <AltitudeMeters>1103.5999755859375</AltitudeMeters>
            <DistanceMeters>62912.54553753</DistanceMeters>
          </Trackpoint>
          <Trackpoint>
            <Time>2019-08-01T12:49:29.000Z</Time>
            <Position>
              <LatitudeDegrees>40.7264806330204010009765625</LatitudeDegrees>
              <LongitudeDegrees>-3.98528222925961017608642578125</LongitudeDegrees>
            </Position>
            <AltitudeMeters>1104.800048828125</AltitudeMeters>
            <DistanceMeters>62916.782493037</DistanceMeters>
          </Trackpoint>
          <Trackpoint>
            <Time>2019-08-01T12:49:31.000Z</Time>
            <Position>
              <LatitudeDegrees>40.7264720834791660308837890625</LatitudeDegrees>
              <LongitudeDegrees>-3.98531240411102771759033203125</LongitudeDegrees>
            </Position>
            <AltitudeMeters>1105.800048828125</AltitudeMeters>
            <DistanceMeters>62919.500323519</DistanceMeters>
          </Trackpoint>
          <Trackpoint>
            <Time>2019-08-01T12:49:33.000Z</Time>
            <Position>
              <LatitudeDegrees>40.72646177373826503753662109375</LatitudeDegrees>
              <LongitudeDegrees>-3.9853419922292232513427734375</LongitudeDegrees>
            </Position>
            <AltitudeMeters>1106.800048828125</AltitudeMeters>
            <DistanceMeters>62922.247894066</DistanceMeters>
          </Trackpoint>
          <Trackpoint>
            <Time>2019-08-01T12:49:35.000Z</Time>
            <Position>
              <LatitudeDegrees>40.72645205073058605194091796875</LatitudeDegrees>
              <LongitudeDegrees>-3.98537174798548221588134765625</LongitudeDegrees>
            </Position>
            <AltitudeMeters>1108</AltitudeMeters>
            <DistanceMeters>62924.98228674</DistanceMeters>
          </Trackpoint>
          <Trackpoint>
            <Time>2019-08-01T12:49:37.000Z</Time>
            <Position>
              <LatitudeDegrees>40.726440735161304473876953125</LatitudeDegrees>
              <LongitudeDegrees>-3.98540007881820201873779296875</LongitudeDegrees>
            </Position>
            <AltitudeMeters>1109.199951171875</AltitudeMeters>
            <DistanceMeters>62927.683453481</DistanceMeters>
          </Trackpoint>
          <Trackpoint>
            <Time>2019-08-01T12:49:39.000Z</Time>
            <Position>
              <LatitudeDegrees>40.72643293999135494232177734375</LatitudeDegrees>
              <LongitudeDegrees>-3.98542924784123897552490234375</LongitudeDegrees>
            </Position>
            <AltitudeMeters>1110</AltitudeMeters>
            <DistanceMeters>62930.291066866</DistanceMeters>
          </Trackpoint>
          <Trackpoint>
            <Time>2019-08-01T12:49:42.000Z</Time>
            <Position>
              <LatitudeDegrees>40.7264194451272487640380859375</LatitudeDegrees>
              <LongitudeDegrees>-3.98547249846160411834716796875</LongitudeDegrees>
            </Position>
            <AltitudeMeters>1111.5999755859375</AltitudeMeters>
            <DistanceMeters>62934.236678579</DistanceMeters>
          </Trackpoint>
          <Trackpoint>
            <Time>2019-08-01T12:49:46.000Z</Time>
            <Position>
              <LatitudeDegrees>40.72640008293092250823974609375</LatitudeDegrees>
              <LongitudeDegrees>-3.98552916012704372406005859375</LongitudeDegrees>
            </Position>
            <AltitudeMeters>1112.4000244140625</AltitudeMeters>
            <DistanceMeters>62939.479535881</DistanceMeters>
          </Trackpoint>
          <Trackpoint>
            <Time>2019-08-01T12:49:52.000Z</Time>
            <Position>
              <LatitudeDegrees>40.72636873461306095123291015625</LatitudeDegrees>
              <LongitudeDegrees>-3.9856202714145183563232421875</LongitudeDegrees>
            </Position>
            <AltitudeMeters>1113.4000244140625</AltitudeMeters>
            <DistanceMeters>62947.919277761</DistanceMeters>
          </Trackpoint>
          <Trackpoint>
            <Time>2019-08-01T12:49:57.000Z</Time>
            <Position>
              <LatitudeDegrees>40.7263438403606414794921875</LatitudeDegrees>
              <LongitudeDegrees>-3.98570216260850429534912109375</LongitudeDegrees>
            </Position>
            <AltitudeMeters>1114.4000244140625</AltitudeMeters>
            <DistanceMeters>62955.362363074</DistanceMeters>
          </Trackpoint>
          <Trackpoint>
            <Time>2019-08-01T12:50:00.000Z</Time>
            <Position>
              <LatitudeDegrees>40.7263292558491230010986328125</LatitudeDegrees>
              <LongitudeDegrees>-3.9857446588575839996337890625</LongitudeDegrees>
            </Position>
            <AltitudeMeters>1115.4000244140625</AltitudeMeters>
            <DistanceMeters>62959.29766244</DistanceMeters>
          </Trackpoint>
          <Trackpoint>
            <Time>2019-08-01T12:50:04.000Z</Time>
            <Position>
              <LatitudeDegrees>40.72631299495697021484375</LatitudeDegrees>
              <LongitudeDegrees>-3.98579704575240612030029296875</LongitudeDegrees>
            </Position>
            <AltitudeMeters>1116.199951171875</AltitudeMeters>
            <DistanceMeters>62964.071750096</DistanceMeters>
          </Trackpoint>
          <Trackpoint>
            <Time>2019-08-01T12:50:05.000Z</Time>
            <Position>
              <LatitudeDegrees>40.72630830109119415283203125</LatitudeDegrees>
              <LongitudeDegrees>-3.9858107082545757293701171875</LongitudeDegrees>
            </Position>
            <AltitudeMeters>1116.4000244140625</AltitudeMeters>
            <DistanceMeters>62965.332421922</DistanceMeters>
          </Trackpoint>
          <Trackpoint>
            <Time>2019-08-01T12:50:09.000Z</Time>
            <Position>
              <LatitudeDegrees>40.7262863405048847198486328125</LatitudeDegrees>
              <LongitudeDegrees>-3.98587030358612537384033203125</LongitudeDegrees>
            </Position>
            <AltitudeMeters>1117.800048828125</AltitudeMeters>
            <DistanceMeters>62970.922060953</DistanceMeters>
          </Trackpoint>
          <Trackpoint>
            <Time>2019-08-01T12:50:13.000Z</Time>
            <Position>
              <LatitudeDegrees>40.72626748122274875640869140625</LatitudeDegrees>
              <LongitudeDegrees>-3.98592662997543811798095703125</LongitudeDegrees>
            </Position>
            <AltitudeMeters>1118.5999755859375</AltitudeMeters>
            <DistanceMeters>62976.115599086</DistanceMeters>
          </Trackpoint>
          <Trackpoint>
            <Time>2019-08-01T12:50:17.000Z</Time>
            <Position>
              <LatitudeDegrees>40.7262511365115642547607421875</LatitudeDegrees>
              <LongitudeDegrees>-3.985978849232196807861328125</LongitudeDegrees>
            </Position>
            <AltitudeMeters>1119.800048828125</AltitudeMeters>
            <DistanceMeters>62980.88211483</DistanceMeters>
          </Trackpoint>
          <Trackpoint>
            <Time>2019-08-01T12:50:20.000Z</Time>
            <Position>
              <LatitudeDegrees>40.72623797692358493804931640625</LatitudeDegrees>
              <LongitudeDegrees>-3.98602101020514965057373046875</LongitudeDegrees>
            </Position>
            <AltitudeMeters>1121.4000244140625</AltitudeMeters>
            <DistanceMeters>62984.728056225</DistanceMeters>
          </Trackpoint>
          <Trackpoint>
            <Time>2019-08-01T12:50:23.000Z</Time>
            <Position>
              <LatitudeDegrees>40.72622255422174930572509765625</LatitudeDegrees>
              <LongitudeDegrees>-3.986063338816165924072265625</LongitudeDegrees>
            </Position>
            <AltitudeMeters>1122.800048828125</AltitudeMeters>
            <DistanceMeters>62988.68965601</DistanceMeters>
          </Trackpoint>
          <Trackpoint>
            <Time>2019-08-01T12:50:26.000Z</Time>
            <Position>
              <LatitudeDegrees>40.72620830498635768890380859375</LatitudeDegrees>
              <LongitudeDegrees>-3.9861047454178333282470703125</LongitudeDegrees>
            </Position>
            <AltitudeMeters>1124</AltitudeMeters>
            <DistanceMeters>62992.525017079</DistanceMeters>
          </Trackpoint>
          <Trackpoint>
            <Time>2019-08-01T12:50:29.000Z</Time>
            <Position>
              <LatitudeDegrees>40.726193971931934356689453125</LatitudeDegrees>
              <LongitudeDegrees>-3.98614724166691303253173828125</LongitudeDegrees>
            </Position>
            <AltitudeMeters>1125</AltitudeMeters>
            <DistanceMeters>62996.448826496</DistanceMeters>
          </Trackpoint>
          <Trackpoint>
            <Time>2019-08-01T12:50:35.000Z</Time>
            <Position>
              <LatitudeDegrees>40.726165808737277984619140625</LatitudeDegrees>
              <LongitudeDegrees>-3.9862341620028018951416015625</LongitudeDegrees>
            </Position>
            <AltitudeMeters>1125.800048828125</AltitudeMeters>
            <DistanceMeters>63004.422581461</DistanceMeters>
          </Trackpoint>
          <Trackpoint>
            <Time>2019-08-01T12:50:42.000Z</Time>
            <Position>
              <LatitudeDegrees>40.7261292636394500732421875</LatitudeDegrees>
              <LongitudeDegrees>-3.98633918724954128265380859375</LongitudeDegrees>
            </Position>
            <AltitudeMeters>1126.5999755859375</AltitudeMeters>
            <DistanceMeters>63014.170580969</DistanceMeters>
          </Trackpoint>
          <Trackpoint>
            <Time>2019-08-01T12:50:59.000Z</Time>
            <Position>
              <LatitudeDegrees>40.72604066692292690277099609375</LatitudeDegrees>
              <LongitudeDegrees>-3.98658427409827709197998046875</LongitudeDegrees>
            </Position>
            <AltitudeMeters>1127.4000244140625</AltitudeMeters>
            <DistanceMeters>63037.074779078</DistanceMeters>
          </Trackpoint>
          <Trackpoint>
            <Time>2019-08-01T12:51:10.000Z</Time>
            <Position>
              <LatitudeDegrees>40.7259889505803585052490234375</LatitudeDegrees>
              <LongitudeDegrees>-3.98674487136304378509521484375</LongitudeDegrees>
            </Position>
            <AltitudeMeters>1128.199951171875</AltitudeMeters>
            <DistanceMeters>63051.793187072</DistanceMeters>
          </Trackpoint>
          <Trackpoint>
            <Time>2019-08-01T12:51:16.000Z</Time>
            <Position>
              <LatitudeDegrees>40.7259597815573215484619140625</LatitudeDegrees>
              <LongitudeDegrees>-3.9868262596428394317626953125</LongitudeDegrees>
            </Position>
            <AltitudeMeters>1129.199951171875</AltitudeMeters>
            <DistanceMeters>63059.387004832</DistanceMeters>
          </Trackpoint>
          <Trackpoint>
            <Time>2019-08-01T12:51:23.000Z</Time>
            <Position>
              <LatitudeDegrees>40.725929103791713714599609375</LatitudeDegrees>
              <LongitudeDegrees>-3.9869228191673755645751953125</LongitudeDegrees>
            </Position>
            <AltitudeMeters>1130</AltitudeMeters>
            <DistanceMeters>63068.218867621</DistanceMeters>
          </Trackpoint>
          <Trackpoint>
            <Time>2019-08-01T12:51:28.000Z</Time>
            <Position>
              <LatitudeDegrees>40.72590521536767482757568359375</LatitudeDegrees>
              <LongitudeDegrees>-3.986997418105602264404296875</LongitudeDegrees>
            </Position>
            <AltitudeMeters>1131</AltitudeMeters>
            <DistanceMeters>63075.049563412</DistanceMeters>
          </Trackpoint>
          <Trackpoint>
            <Time>2019-08-01T12:51:34.000Z</Time>
            <Position>
              <LatitudeDegrees>40.7258752919733524322509765625</LatitudeDegrees>
              <LongitudeDegrees>-3.98708919994533061981201171875</LongitudeDegrees>
            </Position>
            <AltitudeMeters>1132</AltitudeMeters>
            <DistanceMeters>63083.476456146</DistanceMeters>
          </Trackpoint>
          <Trackpoint>
            <Time>2019-08-01T12:51:41.000Z</Time>
            <Position>
              <LatitudeDegrees>40.725839249789714813232421875</LatitudeDegrees>
              <LongitudeDegrees>-3.98719422519207000732421875</LongitudeDegrees>
            </Position>
            <AltitudeMeters>1132.800048828125</AltitudeMeters>
            <DistanceMeters>63093.200804995</DistanceMeters>
          </Trackpoint>
          <Trackpoint>
            <Time>2019-08-01T12:51:45.000Z</Time>
            <Position>
              <LatitudeDegrees>40.72581821121275424957275390625</LatitudeDegrees>
              <LongitudeDegrees>-3.98725264705717563629150390625</LongitudeDegrees>
            </Position>
            <AltitudeMeters>1133.800048828125</AltitudeMeters>
            <DistanceMeters>63098.656364724</DistanceMeters>
          </Trackpoint>
          <Trackpoint>
            <Time>2019-08-01T12:51:51.000Z</Time>
            <Position>
              <LatitudeDegrees>40.7257881201803684234619140625</LatitudeDegrees>
              <LongitudeDegrees>-3.9873491227626800537109375</LongitudeDegrees>
            </Position>
            <AltitudeMeters>1134.800048828125</AltitudeMeters>
            <DistanceMeters>63107.456474699</DistanceMeters>
          </Trackpoint>
          <Trackpoint>
            <Time>2019-08-01T12:52:02.000Z</Time>
            <Position>
              <LatitudeDegrees>40.72572668083012104034423828125</LatitudeDegrees>
              <LongitudeDegrees>-3.98753930814564228057861328125</LongitudeDegrees>
            </Position>
            <AltitudeMeters>1135.5999755859375</AltitudeMeters>
            <DistanceMeters>63124.894847741</DistanceMeters>
          </Trackpoint>
          <Trackpoint>
            <Time>2019-08-01T12:52:27.000Z</Time>
            <Position>
              <LatitudeDegrees>40.72559240274131298065185546875</LatitudeDegrees>
              <LongitudeDegrees>-3.9879501052200794219970703125</LongitudeDegrees>
            </Position>
            <AltitudeMeters>1136</AltitudeMeters>
            <DistanceMeters>63162.631103451</DistanceMeters>
          </Trackpoint>
          <Trackpoint>
            <Time>2019-08-01T12:52:43.000Z</Time>
            <Position>
              <LatitudeDegrees>40.72552107274532318115234375</LatitudeDegrees>
              <LongitudeDegrees>-3.98817566223442554473876953125</LongitudeDegrees>
            </Position>
            <AltitudeMeters>1136.800048828125</AltitudeMeters>
            <DistanceMeters>63183.246863877</DistanceMeters>
          </Trackpoint>
          <Trackpoint>
            <Time>2019-08-01T12:52:49.000Z</Time>
            <Position>
              <LatitudeDegrees>40.7254967652261257171630859375</LatitudeDegrees>
              <LongitudeDegrees>-3.98825881071388721466064453125</LongitudeDegrees>
            </Position>
            <AltitudeMeters>1137.5999755859375</AltitudeMeters>
            <DistanceMeters>63190.764191752</DistanceMeters>
          </Trackpoint>
          <Trackpoint>
            <Time>2019-08-01T12:52:52.000Z</Time>
            <Position>
              <LatitudeDegrees>40.7254843600094318389892578125</LatitudeDegrees>
              <LongitudeDegrees>-3.9883014746010303497314453125</LongitudeDegrees>
            </Position>
            <AltitudeMeters>1138.5999755859375</AltitudeMeters>
            <DistanceMeters>63194.61834221</DistanceMeters>
          </Trackpoint>
          <Trackpoint>
            <Time>2019-08-01T12:52:56.000Z</Time>
            <Position>
              <LatitudeDegrees>40.72547011077404022216796875</LatitudeDegrees>
              <LongitudeDegrees>-3.98835989646613597869873046875</LongitudeDegrees>
            </Position>
            <AltitudeMeters>1139.5999755859375</AltitudeMeters>
            <DistanceMeters>63199.795336211</DistanceMeters>
          </Trackpoint>
          <Trackpoint>
            <Time>2019-08-01T12:53:00.000Z</Time>
            <Position>
              <LatitudeDegrees>40.72545762173831462860107421875</LatitudeDegrees>
              <LongitudeDegrees>-3.9884198270738124847412109375</LongitudeDegrees>
            </Position>
            <AltitudeMeters>1140.800048828125</AltitudeMeters>
            <DistanceMeters>63205.038193513</DistanceMeters>
          </Trackpoint>
          <Trackpoint>
            <Time>2019-08-01T12:53:05.000Z</Time>
            <Position>
              <LatitudeDegrees>40.72544119320809841156005859375</LatitudeDegrees>
              <LongitudeDegrees>-3.9884979464113712310791015625</LongitudeDegrees>
            </Position>
            <AltitudeMeters>1141.800048828125</AltitudeMeters>
            <DistanceMeters>63211.876156355</DistanceMeters>
          </Trackpoint>
          <Trackpoint>
            <Time>2019-08-01T12:53:13.000Z</Time>
            <Position>
              <LatitudeDegrees>40.7254219986498355865478515625</LatitudeDegrees>
              <LongitudeDegrees>-3.988614119589328765869140625</LongitudeDegrees>
            </Position>
            <AltitudeMeters>1142.5999755859375</AltitudeMeters>
            <DistanceMeters>63221.905864805</DistanceMeters>
          </Trackpoint>
          <Trackpoint>
            <Time>2019-08-01T12:53:49.000Z</Time>
            <Position>
              <LatitudeDegrees>40.72535838000476360321044921875</LatitudeDegrees>
              <LongitudeDegrees>-3.98918970488011837005615234375</LongitudeDegrees>
            </Position>
            <AltitudeMeters>1142.800048828125</AltitudeMeters>
            <DistanceMeters>63270.97002646</DistanceMeters>
          </Trackpoint>
          <Trackpoint>
            <Time>2019-08-01T12:53:58.000Z</Time>
            <Position>
              <LatitudeDegrees>40.7253458909690380096435546875</LatitudeDegrees>
              <LongitudeDegrees>-3.98933052085340023040771484375</LongitudeDegrees>
            </Position>
            <AltitudeMeters>1143.800048828125</AltitudeMeters>
            <DistanceMeters>63282.929431997</DistanceMeters>
          </Trackpoint>
          <Trackpoint>
            <Time>2019-08-01T12:54:03.000Z</Time>
            <Position>
              <LatitudeDegrees>40.7253358326852321624755859375</LatitudeDegrees>
              <LongitudeDegrees>-3.9894152618944644927978515625</LongitudeDegrees>
            </Position>
            <AltitudeMeters>1144.800048828125</AltitudeMeters>
            <DistanceMeters>63290.164579068</DistanceMeters>
          </Trackpoint>
          <Trackpoint>
            <Time>2019-08-01T12:54:06.000Z</Time>
            <Position>
              <LatitudeDegrees>40.72533130645751953125</LatitudeDegrees>
              <LongitudeDegrees>-3.98946664296090602874755859375</LongitudeDegrees>
            </Position>
            <AltitudeMeters>1146.199951171875</AltitudeMeters>
            <DistanceMeters>63294.527536912</DistanceMeters>
          </Trackpoint>
          <Trackpoint>
            <Time>2019-08-01T12:54:08.000Z</Time>
            <Position>
              <LatitudeDegrees>40.72532669641077518463134765625</LatitudeDegrees>
              <LongitudeDegrees>-3.989499919116497039794921875</LongitudeDegrees>
            </Position>
            <AltitudeMeters>1147.5999755859375</AltitudeMeters>
            <DistanceMeters>63297.378338343</DistanceMeters>
          </Trackpoint>
          <Trackpoint>
            <Time>2019-08-01T12:54:10.000Z</Time>
            <Position>
              <LatitudeDegrees>40.7253237627446651458740234375</LatitudeDegrees>
              <LongitudeDegrees>-3.98953453637659549713134765625</LongitudeDegrees>
            </Position>
            <AltitudeMeters>1148.800048828125</AltitudeMeters>
            <DistanceMeters>63300.316493049</DistanceMeters>
          </Trackpoint>
          <Trackpoint>
            <Time>2019-08-01T12:54:12.000Z</Time>
            <Position>
              <LatitudeDegrees>40.72532183490693569183349609375</LatitudeDegrees>
              <LongitudeDegrees>-3.9895688183605670928955078125</LongitudeDegrees>
            </Position>
            <AltitudeMeters>1149.800048828125</AltitudeMeters>
            <DistanceMeters>63303.217532733</DistanceMeters>
          </Trackpoint>
          <Trackpoint>
            <Time>2019-08-01T12:54:14.000Z</Time>
            <Position>
              <LatitudeDegrees>40.72532015852630138397216796875</LatitudeDegrees>
              <LongitudeDegrees>-3.98960226215422153472900390625</LongitudeDegrees>
            </Position>
            <AltitudeMeters>1151</AltitudeMeters>
            <DistanceMeters>63306.046074359</DistanceMeters>
          </Trackpoint>
          <Trackpoint>
            <Time>2019-08-01T12:54:17.000Z</Time>
            <Position>
              <LatitudeDegrees>40.72531563229858875274658203125</LatitudeDegrees>
              <LongitudeDegrees>-3.98965381085872650146484375</LongitudeDegrees>
            </Position>
            <AltitudeMeters>1152.4000244140625</AltitudeMeters>
            <DistanceMeters>63310.423496227</DistanceMeters>
          </Trackpoint>
          <Trackpoint>
            <Time>2019-08-01T12:54:19.000Z</Time>
            <Position>
              <LatitudeDegrees>40.7253123633563518524169921875</LatitudeDegrees>
              <LongitudeDegrees>-3.9896888472139835357666015625</LongitudeDegrees>
            </Position>
            <AltitudeMeters>1153.5999755859375</AltitudeMeters>
            <DistanceMeters>63313.399820301</DistanceMeters>
          </Trackpoint>
          <Trackpoint>
            <Time>2019-08-01T12:54:21.000Z</Time>
            <Position>
              <LatitudeDegrees>40.72530842386186122894287109375</LatitudeDegrees>
              <LongitudeDegrees>-3.98972463794052600860595703125</LongitudeDegrees>
            </Position>
            <AltitudeMeters>1154.800048828125</AltitudeMeters>
            <DistanceMeters>63316.449570903</DistanceMeters>
          </Trackpoint>
          <Trackpoint>
            <Time>2019-08-01T12:54:23.000Z</Time>
            <Position>
              <LatitudeDegrees>40.72530540637671947479248046875</LatitudeDegrees>
              <LongitudeDegrees>-3.9897595904767513275146484375</LongitudeDegrees>
            </Position>
            <AltitudeMeters>1156.199951171875</AltitudeMeters>
            <DistanceMeters>63319.418300364</DistanceMeters>
          </Trackpoint>
          <Trackpoint>
            <Time>2019-08-01T12:54:25.000Z</Time>
            <Position>
              <LatitudeDegrees>40.7253019697964191436767578125</LatitudeDegrees>
              <LongitudeDegrees>-3.98979404009878635406494140625</LongitudeDegrees>
            </Position>
            <AltitudeMeters>1157.800048828125</AltitudeMeters>
            <DistanceMeters>63322.347220407</DistanceMeters>
          </Trackpoint>
          <Trackpoint>
            <Time>2019-08-01T12:54:27.000Z</Time>
            <Position>
              <LatitudeDegrees>40.7252996228635311126708984375</LatitudeDegrees>
              <LongitudeDegrees>-3.9898286573588848114013671875</LongitudeDegrees>
            </Position>
            <AltitudeMeters>1159</AltitudeMeters>
            <DistanceMeters>63325.279221904</DistanceMeters>
          </Trackpoint>
          <Trackpoint>
            <Time>2019-08-01T12:54:29.000Z</Time>
            <Position>
              <LatitudeDegrees>40.72529350407421588897705078125</LatitudeDegrees>
              <LongitudeDegrees>-3.98986344225704669952392578125</LongitudeDegrees>
            </Position>
            <AltitudeMeters>1160</AltitudeMeters>
            <DistanceMeters>63328.290234483</DistanceMeters>
          </Trackpoint>
          <Trackpoint>
            <Time>2019-08-01T12:54:32.000Z</Time>
            <Position>
              <LatitudeDegrees>40.72528646327555179595947265625</LatitudeDegrees>
              <LongitudeDegrees>-3.98991490714251995086669921875</LongitudeDegrees>
            </Position>
            <AltitudeMeters>1161.4000244140625</AltitudeMeters>
            <DistanceMeters>63332.700538855</DistanceMeters>
          </Trackpoint>
          <Trackpoint>
            <Time>2019-08-01T12:54:38.000Z</Time>
            <Position>
              <LatitudeDegrees>40.7252798415720462799072265625</LatitudeDegrees>
              <LongitudeDegrees>-3.99001465179026126861572265625</LongitudeDegrees>
            </Position>
            <AltitudeMeters>1162.199951171875</AltitudeMeters>
            <DistanceMeters>63341.146697977</DistanceMeters>
          </Trackpoint>
          <Trackpoint>
            <Time>2019-08-01T12:54:44.000Z</Time>
            <Position>
              <LatitudeDegrees>40.7252768240869045257568359375</LatitudeDegrees>
              <LongitudeDegrees>-3.99011523462831974029541015625</LongitudeDegrees>
            </Position>
            <AltitudeMeters>1163</AltitudeMeters>
            <DistanceMeters>63349.637641996</DistanceMeters>
          </Trackpoint>
          <Trackpoint>
            <Time>2019-08-01T12:54:51.000Z</Time>
            <Position>
              <LatitudeDegrees>40.72526735253632068634033203125</LatitudeDegrees>
              <LongitudeDegrees>-3.9902326650917530059814453125</LongitudeDegrees>
            </Position>
            <AltitudeMeters>1164</AltitudeMeters>
            <DistanceMeters>63359.599143391</DistanceMeters>
          </Trackpoint>
          <Trackpoint>
            <Time>2019-08-01T12:55:20.000Z</Time>
            <Position>
              <LatitudeDegrees>40.7252288796007633209228515625</LatitudeDegrees>
              <LongitudeDegrees>-3.99071722291409969329833984375</LongitudeDegrees>
            </Position>
            <AltitudeMeters>1164.800048828125</AltitudeMeters>
            <DistanceMeters>63400.695313496</DistanceMeters>
          </Trackpoint>
          <Trackpoint>
            <Time>2019-08-01T12:55:43.000Z</Time>
            <Position>
              <LatitudeDegrees>40.72519116103649139404296875</LatitudeDegrees>
              <LongitudeDegrees>-3.9911255054175853729248046875</LongitudeDegrees>
            </Position>
            <AltitudeMeters>1165.4000244140625</AltitudeMeters>
            <DistanceMeters>63435.388914915</DistanceMeters>
          </Trackpoint>
          <Trackpoint>
            <Time>2019-08-01T12:55:52.000Z</Time>
            <Position>
              <LatitudeDegrees>40.72517515160143375396728515625</LatitudeDegrees>
              <LongitudeDegrees>-3.9912985078990459442138671875</LongitudeDegrees>
            </Position>
            <AltitudeMeters>1166.5999755859375</AltitudeMeters>
            <DistanceMeters>63450.090134239</DistanceMeters>
          </Trackpoint>
          <Trackpoint>
            <Time>2019-08-01T12:56:00.000Z</Time>
            <Position>
              <LatitudeDegrees>40.72516509331762790679931640625</LatitudeDegrees>
              <LongitudeDegrees>-3.991465307772159576416015625</LongitudeDegrees>
            </Position>
            <AltitudeMeters>1167.5999755859375</AltitudeMeters>
            <DistanceMeters>63464.204080759</DistanceMeters>
          </Trackpoint>
          <Trackpoint>
            <Time>2019-08-01T12:56:05.000Z</Time>
            <Position>
              <LatitudeDegrees>40.72516207583248615264892578125</LatitudeDegrees>
              <LongitudeDegrees>-3.991551809012889862060546875</LongitudeDegrees>
            </Position>
            <AltitudeMeters>1168.4000244140625</AltitudeMeters>
            <DistanceMeters>63471.508168082</DistanceMeters>
          </Trackpoint>
          <Trackpoint>
            <Time>2019-08-01T12:56:09.000Z</Time>
            <Position>
              <LatitudeDegrees>40.725154615938663482666015625</LatitudeDegrees>
              <LongitudeDegrees>-3.9916272461414337158203125</LongitudeDegrees>
            </Position>
            <AltitudeMeters>1169.5999755859375</AltitudeMeters>
            <DistanceMeters>63477.92511039</DistanceMeters>
          </Trackpoint>
          <Trackpoint>
            <Time>2019-08-01T12:56:14.000Z</Time>
            <Position>
              <LatitudeDegrees>40.72514958679676055908203125</LatitudeDegrees>
              <LongitudeDegrees>-3.991719447076320648193359375</LongitudeDegrees>
            </Position>
            <AltitudeMeters>1170.800048828125</AltitudeMeters>
            <DistanceMeters>63485.72193504</DistanceMeters>
          </Trackpoint>
          <Trackpoint>
            <Time>2019-08-01T12:56:17.000Z</Time>
            <Position>
              <LatitudeDegrees>40.72514698840677738189697265625</LatitudeDegrees>
              <LongitudeDegrees>-3.9917769469320774078369140625</LongitudeDegrees>
            </Position>
            <AltitudeMeters>1171.800048828125</AltitudeMeters>
            <DistanceMeters>63490.580393625</DistanceMeters>
          </Trackpoint>
          <Trackpoint>
            <Time>2019-08-01T12:56:20.000Z</Time>
            <Position>
              <LatitudeDegrees>40.72514413855969905853271484375</LatitudeDegrees>
              <LongitudeDegrees>-3.99183754809200763702392578125</LongitudeDegrees>
            </Position>
            <AltitudeMeters>1173</AltitudeMeters>
            <DistanceMeters>63495.701266792</DistanceMeters>
          </Trackpoint>
          <Trackpoint>
            <Time>2019-08-01T12:56:22.000Z</Time>
            <Position>
              <LatitudeDegrees>40.7251390255987644195556640625</LatitudeDegrees>
              <LongitudeDegrees>-3.9918788708746433258056640625</LongitudeDegrees>
            </Position>
            <AltitudeMeters>1174</AltitudeMeters>
            <DistanceMeters>63499.233909662</DistanceMeters>
          </Trackpoint>
          <Trackpoint>
            <Time>2019-08-01T12:56:25.000Z</Time>
            <Position>
              <LatitudeDegrees>40.7251413725316524505615234375</LatitudeDegrees>
              <LongitudeDegrees>-3.99194240570068359375</LongitudeDegrees>
            </Position>
            <AltitudeMeters>1175.4000244140625</AltitudeMeters>
            <DistanceMeters>63504.59934382</DistanceMeters>
          </Trackpoint>
          <Trackpoint>
            <Time>2019-08-01T12:56:27.000Z</Time>
            <Position>
              <LatitudeDegrees>40.72514212690293788909912109375</LatitudeDegrees>
              <LongitudeDegrees>-3.9919848181307315826416015625</LongitudeDegrees>
            </Position>
            <AltitudeMeters>1176.4000244140625</AltitudeMeters>
            <DistanceMeters>63508.177702159</DistanceMeters>
          </Trackpoint>
          <Trackpoint>
            <Time>2019-08-01T12:56:29.000Z</Time>
            <Position>
              <LatitudeDegrees>40.72514019906520843505859375</LatitudeDegrees>
              <LongitudeDegrees>-3.99202622473239898681640625</LongitudeDegrees>
            </Position>
            <AltitudeMeters>1177.4000244140625</AltitudeMeters>
            <DistanceMeters>63511.676956887</DistanceMeters>
          </Trackpoint>
          <Trackpoint>
            <Time>2019-08-01T12:56:32.000Z</Time>
            <Position>
              <LatitudeDegrees>40.72513726539909839630126953125</LatitudeDegrees>
              <LongitudeDegrees>-3.99208095856010913848876953125</LongitudeDegrees>
            </Position>
            <AltitudeMeters>1178.5999755859375</AltitudeMeters>
            <DistanceMeters>63516.306035781</DistanceMeters>
          </Trackpoint>
          <Trackpoint>
            <Time>2019-08-01T12:56:34.000Z</Time>
            <Position>
              <LatitudeDegrees>40.7251339964568614959716796875</LatitudeDegrees>
              <LongitudeDegrees>-3.99212152697145938873291015625</LongitudeDegrees>
            </Position>
            <AltitudeMeters>1179.4000244140625</AltitudeMeters>
            <DistanceMeters>63519.748049769</DistanceMeters>
          </Trackpoint>
          <Trackpoint>
            <Time>2019-08-01T12:56:37.000Z</Time>
            <Position>
              <LatitudeDegrees>40.72512871585786342620849609375</LatitudeDegrees>
              <LongitudeDegrees>-3.99218874983489513397216796875</LongitudeDegrees>
            </Position>
            <AltitudeMeters>1180.800048828125</AltitudeMeters>
            <DistanceMeters>63525.448068633</DistanceMeters>
          </Trackpoint>
          <Trackpoint>
            <Time>2019-08-01T12:56:41.000Z</Time>
            <Position>
              <LatitudeDegrees>40.72512754239141941070556640625</LatitudeDegrees>
              <LongitudeDegrees>-3.99228715337812900543212890625</LongitudeDegrees>
            </Position>
            <AltitudeMeters>1181.800048828125</AltitudeMeters>
            <DistanceMeters>63533.748639894</DistanceMeters>
          </Trackpoint>
          <Trackpoint>
            <Time>2019-08-01T12:56:44.000Z</Time>
            <Position>
              <LatitudeDegrees>40.7251225970685482025146484375</LatitudeDegrees>
              <LongitudeDegrees>-3.9923576451838016510009765625</LongitudeDegrees>
            </Position>
            <AltitudeMeters>1183</AltitudeMeters>
            <DistanceMeters>63539.719464109</DistanceMeters>
          </Trackpoint>
          <Trackpoint>
            <Time>2019-08-01T12:56:47.000Z</Time>
            <Position>
              <LatitudeDegrees>40.72512016631662845611572265625</LatitudeDegrees>
              <LongitudeDegrees>-3.9924226887524127960205078125</LongitudeDegrees>
            </Position>
            <AltitudeMeters>1184</AltitudeMeters>
            <DistanceMeters>63545.212139722</DistanceMeters>
          </Trackpoint>
          <Trackpoint>
            <Time>2019-08-01T12:57:13.000Z</Time>
            <Position>
              <LatitudeDegrees>40.725115723907947540283203125</LatitudeDegrees>
              <LongitudeDegrees>-3.993147052824497222900390625</LongitudeDegrees>
            </Position>
            <AltitudeMeters>1183.800048828125</AltitudeMeters>
            <DistanceMeters>63606.314243169</DistanceMeters>
          </Trackpoint>
          <Trackpoint>
            <Time>2019-08-01T12:57:25.000Z</Time>
            <Position>
              <LatitudeDegrees>40.72511480189859867095947265625</LatitudeDegrees>
              <LongitudeDegrees>-3.993523903191089630126953125</LongitudeDegrees>
            </Position>
            <AltitudeMeters>1182.800048828125</AltitudeMeters>
            <DistanceMeters>63638.10177994</DistanceMeters>
          </Trackpoint>
          <Trackpoint>
            <Time>2019-08-01T12:57:45.000Z</Time>
            <Position>
              <LatitudeDegrees>40.72512955404818058013916015625</LatitudeDegrees>
              <LongitudeDegrees>-3.99424315430223941802978515625</LongitudeDegrees>
            </Position>
            <AltitudeMeters>1182</AltitudeMeters>
            <DistanceMeters>63698.792836133</DistanceMeters>
          </Trackpoint>
          <Trackpoint>
            <Time>2019-08-01T12:58:04.000Z</Time>
            <Position>
              <LatitudeDegrees>40.72525008581578731536865234375</LatitudeDegrees>
              <LongitudeDegrees>-3.994956202805042266845703125</LongitudeDegrees>
            </Position>
            <AltitudeMeters>1182.4000244140625</AltitudeMeters>
            <DistanceMeters>63760.416469809</DistanceMeters>
          </Trackpoint>
          <Trackpoint>
            <Time>2019-08-01T12:58:09.000Z</Time>
            <Position>
              <LatitudeDegrees>40.7253023050725460052490234375</LatitudeDegrees>
              <LongitudeDegrees>-3.9951468072831630706787109375</LongitudeDegrees>
            </Position>
            <AltitudeMeters>1181.199951171875</AltitudeMeters>
            <DistanceMeters>63777.512301295</DistanceMeters>
          </Trackpoint>
          <Trackpoint>
            <Time>2019-08-01T12:58:14.000Z</Time>
            <Position>
              <LatitudeDegrees>40.725365169346332550048828125</LatitudeDegrees>
              <LongitudeDegrees>-3.9953241683542728424072265625</LongitudeDegrees>
            </Position>
            <AltitudeMeters>1180.199951171875</AltitudeMeters>
            <DistanceMeters>63794.027823965</DistanceMeters>
          </Trackpoint>
          <Trackpoint>
            <Time>2019-08-01T12:58:35.000Z</Time>
            <Position>
              <LatitudeDegrees>40.725654847919940948486328125</LatitudeDegrees>
              <LongitudeDegrees>-3.99592992849647998809814453125</LongitudeDegrees>
            </Position>
            <AltitudeMeters>1180.5999755859375</AltitudeMeters>
            <DistanceMeters>63854.445462213</DistanceMeters>
          </Trackpoint>
          <Trackpoint>
            <Time>2019-08-01T12:58:39.000Z</Time>
            <Position>
              <LatitudeDegrees>40.7257215678691864013671875</LatitudeDegrees>
              <LongitudeDegrees>-3.99603771977126598358154296875</LongitudeDegrees>
            </Position>
            <AltitudeMeters>1181</AltitudeMeters>
            <DistanceMeters>63866.185011893</DistanceMeters>
          </Trackpoint>
          <Trackpoint>
            <Time>2019-08-01T12:58:44.000Z</Time>
            <Position>
              <LatitudeDegrees>40.72581100277602672576904296875</LatitudeDegrees>
              <LongitudeDegrees>-3.99617015384137630462646484375</LongitudeDegrees>
            </Position>
            <AltitudeMeters>1182.4000244140625</AltitudeMeters>
            <DistanceMeters>63881.147419961</DistanceMeters>
          </Trackpoint>
          <Trackpoint>
            <Time>2019-08-01T12:58:47.000Z</Time>
            <Position>
              <LatitudeDegrees>40.72586850263178348541259765625</LatitudeDegrees>
              <LongitudeDegrees>-3.99624525569379329681396484375</LongitudeDegrees>
            </Position>
            <AltitudeMeters>1183.5999755859375</AltitudeMeters>
            <DistanceMeters>63890.152423374</DistanceMeters>
          </Trackpoint>
          <Trackpoint>
            <Time>2019-08-01T12:58:51.000Z</Time>
            <Position>
              <LatitudeDegrees>40.72594326920807361602783203125</LatitudeDegrees>
              <LongitudeDegrees>-3.99634248577058315277099609375</LongitudeDegrees>
            </Position>
            <AltitudeMeters>1184.800048828125</AltitudeMeters>
            <DistanceMeters>63901.835686425</DistanceMeters>
          </Trackpoint>
          <Trackpoint>
            <Time>2019-08-01T12:58:55.000Z</Time>
            <Position>
              <LatitudeDegrees>40.726015269756317138671875</LatitudeDegrees>
              <LongitudeDegrees>-3.996434770524501800537109375</LongitudeDegrees>
            </Position>
            <AltitudeMeters>1186</AltitudeMeters>
            <DistanceMeters>63913.00769236</DistanceMeters>
          </Trackpoint>
          <Trackpoint>
            <Time>2019-08-01T12:59:04.000Z</Time>
            <Position>
              <LatitudeDegrees>40.7261824049055576324462890625</LatitudeDegrees>
              <LongitudeDegrees>-3.99663216434419155120849609375</LongitudeDegrees>
            </Position>
            <AltitudeMeters>1186.800048828125</AltitudeMeters>
            <DistanceMeters>63937.973147219</DistanceMeters>
          </Trackpoint>
          <Trackpoint>
            <Time>2019-08-01T12:59:24.000Z</Time>
            <Position>
              <LatitudeDegrees>40.72652019560337066650390625</LatitudeDegrees>
              <LongitudeDegrees>-3.99703927338123321533203125</LongitudeDegrees>
            </Position>
            <AltitudeMeters>1185.800048828125</AltitudeMeters>
            <DistanceMeters>63988.891507643</DistanceMeters>
          </Trackpoint>
          <Trackpoint>
            <Time>2019-08-01T12:59:28.000Z</Time>
            <Position>
              <LatitudeDegrees>40.72658616118133068084716796875</LatitudeDegrees>
              <LongitudeDegrees>-3.99711429141461849212646484375</LongitudeDegrees>
            </Position>
            <AltitudeMeters>1184.5999755859375</AltitudeMeters>
            <DistanceMeters>63998.584232509</DistanceMeters>
          </Trackpoint>
          <Trackpoint>
            <Time>2019-08-01T12:59:31.000Z</Time>
            <Position>
              <LatitudeDegrees>40.72663226164877414703369140625</LatitudeDegrees>
              <LongitudeDegrees>-3.99717338383197784423828125</LongitudeDegrees>
            </Position>
            <AltitudeMeters>1183.4000244140625</AltitudeMeters>
            <DistanceMeters>64005.737794084</DistanceMeters>
          </Trackpoint>
          <Trackpoint>
            <Time>2019-08-01T12:59:35.000Z</Time>
            <Position>
              <LatitudeDegrees>40.72669210843741893768310546875</LatitudeDegrees>
              <LongitudeDegrees>-3.99725208990275859832763671875</LongitudeDegrees>
            </Position>
            <AltitudeMeters>1182</AltitudeMeters>
            <DistanceMeters>64015.142078676</DistanceMeters>
          </Trackpoint>
          <Trackpoint>
            <Time>2019-08-01T12:59:38.000Z</Time>
            <Position>
              <LatitudeDegrees>40.72674022056162357330322265625</LatitudeDegrees>
              <LongitudeDegrees>-3.99731042794883251190185546875</LongitudeDegrees>
            </Position>
            <AltitudeMeters>1180.5999755859375</AltitudeMeters>
            <DistanceMeters>64022.413951039</DistanceMeters>
          </Trackpoint>
          <Trackpoint>
            <Time>2019-08-01T12:59:42.000Z</Time>
            <Position>
              <LatitudeDegrees>40.72680308483541011810302734375</LatitudeDegrees>
              <LongitudeDegrees>-3.9973877929151058197021484375</LongitudeDegrees>
            </Position>
            <AltitudeMeters>1179.5999755859375</AltitudeMeters>
            <DistanceMeters>64031.981022421</DistanceMeters>
          </Trackpoint>
          <Trackpoint>
            <Time>2019-08-01T12:59:45.000Z</Time>
            <Position>
              <LatitudeDegrees>40.72685102932155132293701171875</LatitudeDegrees>
              <LongitudeDegrees>-3.99744135327637195587158203125</LongitudeDegrees>
            </Position>
            <AltitudeMeters>1178.4000244140625</AltitudeMeters>
            <DistanceMeters>64038.971785879</DistanceMeters>
          </Trackpoint>
          <Trackpoint>
            <Time>2019-08-01T12:59:49.000Z</Time>
            <Position>
              <LatitudeDegrees>40.72691624052822589874267578125</LatitudeDegrees>
              <LongitudeDegrees>-3.99751804769039154052734375</LongitudeDegrees>
            </Position>
            <AltitudeMeters>1177.199951171875</AltitudeMeters>
            <DistanceMeters>64048.693812938</DistanceMeters>
          </Trackpoint>
          <Trackpoint>
            <Time>2019-08-01T12:59:53.000Z</Time>
            <Position>
              <LatitudeDegrees>40.72698128409683704376220703125</LatitudeDegrees>
              <LongitudeDegrees>-3.99759717285633087158203125</LongitudeDegrees>
            </Position>
            <AltitudeMeters>1175.800048828125</AltitudeMeters>
            <DistanceMeters>64058.54043321</DistanceMeters>
          </Trackpoint>
          <Trackpoint>
            <Time>2019-08-01T12:59:56.000Z</Time>
            <Position>
              <LatitudeDegrees>40.72703115642070770263671875</LatitudeDegrees>
              <LongitudeDegrees>-3.9976506493985652923583984375</LongitudeDegrees>
            </Position>
            <AltitudeMeters>1174.5999755859375</AltitudeMeters>
            <DistanceMeters>64065.693363597</DistanceMeters>
          </Trackpoint>
          <Trackpoint>
            <Time>2019-08-01T13:00:00.000Z</Time>
            <Position>
              <LatitudeDegrees>40.7270956970751285552978515625</LatitudeDegrees>
              <LongitudeDegrees>-3.99772449396550655364990234375</LongitudeDegrees>
            </Position>
            <AltitudeMeters>1173.199951171875</AltitudeMeters>
            <DistanceMeters>64075.200785183</DistanceMeters>
          </Trackpoint>
          <Trackpoint>
            <Time>2019-08-01T13:00:04.000Z</Time>
            <Position>
              <LatitudeDegrees>40.727160908281803131103515625</LatitudeDegrees>
              <LongitudeDegrees>-3.99780244566500186920166015625</LongitudeDegrees>
            </Position>
            <AltitudeMeters>1172</AltitudeMeters>
            <DistanceMeters>64084.99360969</DistanceMeters>
          </Trackpoint>
          <Trackpoint>
            <Time>2019-08-01T13:00:09.000Z</Time>
            <Position>
              <LatitudeDegrees>40.72724212892353534698486328125</LatitudeDegrees>
              <LongitudeDegrees>-3.99789900518953800201416015625</LongitudeDegrees>
            </Position>
            <AltitudeMeters>1170.800048828125</AltitudeMeters>
            <DistanceMeters>64097.161482692</DistanceMeters>
          </Trackpoint>
          <Trackpoint>
            <Time>2019-08-01T13:00:14.000Z</Time>
            <Position>
              <LatitudeDegrees>40.72732293047010898590087890625</LatitudeDegrees>
              <LongitudeDegrees>-3.99799472652375698089599609375</LongitudeDegrees>
            </Position>
            <AltitudeMeters>1169.800048828125</AltitudeMeters>
            <DistanceMeters>64109.247446309</DistanceMeters>
          </Trackpoint>
          <Trackpoint>
            <Time>2019-08-01T13:00:21.000Z</Time>
            <Position>
              <LatitudeDegrees>40.7274296320974826812744140625</LatitudeDegrees>
              <LongitudeDegrees>-3.99813503958284854888916015625</LongitudeDegrees>
            </Position>
            <AltitudeMeters>1168.5999755859375</AltitudeMeters>
            <DistanceMeters>64126.013670681</DistanceMeters>
          </Trackpoint>
          <Trackpoint>
            <Time>2019-08-01T13:00:26.000Z</Time>
            <Position>
              <LatitudeDegrees>40.72750247083604335784912109375</LatitudeDegrees>
              <LongitudeDegrees>-3.99822757579386234283447265625</LongitudeDegrees>
            </Position>
            <AltitudeMeters>1167.4000244140625</AltitudeMeters>
            <DistanceMeters>64137.267818903</DistanceMeters>
          </Trackpoint>
          <Trackpoint>
            <Time>2019-08-01T13:00:44.000Z</Time>
            <Position>
              <LatitudeDegrees>40.72778812609612941741943359375</LatitudeDegrees>
              <LongitudeDegrees>-3.99858028627932071685791015625</LongitudeDegrees>
            </Position>
            <AltitudeMeters>1168</AltitudeMeters>
            <DistanceMeters>64180.810175179</DistanceMeters>
          </Trackpoint>
          <Trackpoint>
            <Time>2019-08-01T13:01:11.000Z</Time>
            <Position>
              <LatitudeDegrees>40.72819632478058338165283203125</LatitudeDegrees>
              <LongitudeDegrees>-3.99907565675675868988037109375</LongitudeDegrees>
            </Position>
            <AltitudeMeters>1168.800048828125</AltitudeMeters>
            <DistanceMeters>64242.53527472</DistanceMeters>
          </Trackpoint>
          <Trackpoint>
            <Time>2019-08-01T13:01:21.000Z</Time>
            <Position>
              <LatitudeDegrees>40.72833378799259662628173828125</LatitudeDegrees>
              <LongitudeDegrees>-3.9992308057844638824462890625</LongitudeDegrees>
            </Position>
            <AltitudeMeters>1169.5999755859375</AltitudeMeters>
            <DistanceMeters>64262.668159296</DistanceMeters>
          </Trackpoint>
          <Trackpoint>
            <Time>2019-08-01T13:01:28.000Z</Time>
            <Position>
              <LatitudeDegrees>40.728420875966548919677734375</LatitudeDegrees>
              <LongitudeDegrees>-3.99933717213571071624755859375</LongitudeDegrees>
            </Position>
            <AltitudeMeters>1170.4000244140625</AltitudeMeters>
            <DistanceMeters>64275.875847085</DistanceMeters>
          </Trackpoint>
          <Trackpoint>
            <Time>2019-08-01T13:01:34.000Z</Time>
            <Position>
              <LatitudeDegrees>40.7284988276660442352294921875</LatitudeDegrees>
              <LongitudeDegrees>-3.9994353242218494415283203125</LongitudeDegrees>
            </Position>
            <AltitudeMeters>1171.4000244140625</AltitudeMeters>
            <DistanceMeters>64287.867676277</DistanceMeters>
          </Trackpoint>
          <Trackpoint>
            <Time>2019-08-01T13:01:44.000Z</Time>
            <Position>
              <LatitudeDegrees>40.72863754816353321075439453125</LatitudeDegrees>
              <LongitudeDegrees>-3.999623917043209075927734375</LongitudeDegrees>
            </Position>
            <AltitudeMeters>1172.4000244140625</AltitudeMeters>
            <DistanceMeters>64310.035598148</DistanceMeters>
          </Trackpoint>
          <Trackpoint>
            <Time>2019-08-01T13:01:55.000Z</Time>
            <Position>
              <LatitudeDegrees>40.728791691362857818603515625</LatitudeDegrees>
              <LongitudeDegrees>-3.999834470450878143310546875</LongitudeDegrees>
            </Position>
            <AltitudeMeters>1171.5999755859375</AltitudeMeters>
            <DistanceMeters>64334.728285763</DistanceMeters>
          </Trackpoint>
          <Trackpoint>
            <Time>2019-08-01T13:01:59.000Z</Time>
            <Position>
              <LatitudeDegrees>40.72884692810475826263427734375</LatitudeDegrees>
              <LongitudeDegrees>-3.99991183541715145111083984375</LongitudeDegrees>
            </Position>
            <AltitudeMeters>1171</AltitudeMeters>
            <DistanceMeters>64343.693088067</DistanceMeters>
          </Trackpoint>
          <Trackpoint>
            <Time>2019-08-01T13:02:07.000Z</Time>
            <Position>
              <LatitudeDegrees>40.728959329426288604736328125</LatitudeDegrees>
              <LongitudeDegrees>-4.00007343851029872894287109375</LongitudeDegrees>
            </Position>
            <AltitudeMeters>1169.5999755859375</AltitudeMeters>
            <DistanceMeters>64362.194279318</DistanceMeters>
          </Trackpoint>
          <Trackpoint>
            <Time>2019-08-01T13:02:34.000Z</Time>
            <Position>
              <LatitudeDegrees>40.729336850345134735107421875</LatitudeDegrees>
              <LongitudeDegrees>-4.00059998966753482818603515625</LongitudeDegrees>
            </Position>
            <AltitudeMeters>1168.199951171875</AltitudeMeters>
            <DistanceMeters>64423.333539815</DistanceMeters>
          </Trackpoint>
          <Trackpoint>
            <Time>2019-08-01T13:02:36.000Z</Time>
            <Position>
              <LatitudeDegrees>40.7293668575584888458251953125</LatitudeDegrees>
              <LongitudeDegrees>-4.000640474259853363037109375</LongitudeDegrees>
            </Position>
            <AltitudeMeters>1168</AltitudeMeters>
            <DistanceMeters>64428.111408926</DistanceMeters>
          </Trackpoint>
          <Trackpoint>
            <Time>2019-08-01T13:02:42.000Z</Time>
            <Position>
              <LatitudeDegrees>40.72945243678987026214599609375</LatitudeDegrees>
              <LongitudeDegrees>-4.0007630176842212677001953125</LongitudeDegrees>
            </Position>
            <AltitudeMeters>1166.800048828125</AltitudeMeters>
            <DistanceMeters>64442.166692003</DistanceMeters>
          </Trackpoint>
          <Trackpoint>
            <Time>2019-08-01T13:02:46.000Z</Time>
            <Position>
              <LatitudeDegrees>40.7295073382556438446044921875</LatitudeDegrees>
              <LongitudeDegrees>-4.0008408017456531524658203125</LongitudeDegrees>
            </Position>
            <AltitudeMeters>1165.4000244140625</AltitudeMeters>
            <DistanceMeters>64451.132501532</DistanceMeters>
          </Trackpoint>
          <Trackpoint>
            <Time>2019-08-01T13:02:51.000Z</Time>
            <Position>
              <LatitudeDegrees>40.72957850061357021331787109375</LatitudeDegrees>
              <LongitudeDegrees>-4.0009373612701892852783203125</LongitudeDegrees>
            </Position>
            <AltitudeMeters>1164.199951171875</AltitudeMeters>
            <DistanceMeters>64462.493262185</DistanceMeters>
          </Trackpoint>
          <Trackpoint>
            <Time>2019-08-01T13:02:57.000Z</Time>
            <Position>
              <LatitudeDegrees>40.729677490890026092529296875</LatitudeDegrees>
              <LongitudeDegrees>-4.001074992120265960693359375</LongitudeDegrees>
            </Position>
            <AltitudeMeters>1163</AltitudeMeters>
            <DistanceMeters>64478.498142018</DistanceMeters>
          </Trackpoint>
          <Trackpoint>
            <Time>2019-08-01T13:03:07.000Z</Time>
            <Position>
              <LatitudeDegrees>40.7298224978148937225341796875</LatitudeDegrees>
              <LongitudeDegrees>-4.00127724744379520416259765625</LongitudeDegrees>
            </Position>
            <AltitudeMeters>1163.800048828125</AltitudeMeters>
            <DistanceMeters>64501.982240654</DistanceMeters>
          </Trackpoint>
          <Trackpoint>
            <Time>2019-08-01T13:03:13.000Z</Time>
            <Position>
              <LatitudeDegrees>40.72990237735211849212646484375</LatitudeDegrees>
              <LongitudeDegrees>-4.00138721801340579986572265625</LongitudeDegrees>
            </Position>
            <AltitudeMeters>1164.5999755859375</AltitudeMeters>
            <DistanceMeters>64514.830189805</DistanceMeters>
          </Trackpoint>
          <Trackpoint>
            <Time>2019-08-01T13:03:34.000Z</Time>
            <Position>
              <LatitudeDegrees>40.73017462156713008880615234375</LatitudeDegrees>
              <LongitudeDegrees>-4.00176406837999820709228515625</LongitudeDegrees>
            </Position>
            <AltitudeMeters>1165.4000244140625</AltitudeMeters>
            <DistanceMeters>64558.74435717</DistanceMeters>
          </Trackpoint>
          <Trackpoint>
            <Time>2019-08-01T13:03:40.000Z</Time>
            <Position>
              <LatitudeDegrees>40.7302546687424182891845703125</LatitudeDegrees>
              <LongitudeDegrees>-4.001873619854450225830078125</LongitudeDegrees>
            </Position>
            <AltitudeMeters>1166.199951171875</AltitudeMeters>
            <DistanceMeters>64571.580352449</DistanceMeters>
          </Trackpoint>
          <Trackpoint>
            <Time>2019-08-01T13:03:41.000Z</Time>
            <Position>
              <LatitudeDegrees>40.73026732541620731353759765625</LatitudeDegrees>
              <LongitudeDegrees>-4.0018955804407596588134765625</LongitudeDegrees>
            </Position>
            <AltitudeMeters>1166.4000244140625</AltitudeMeters>
            <DistanceMeters>64573.906081536</DistanceMeters>
          </Trackpoint>
          <Trackpoint>
            <Time>2019-08-01T13:04:09.000Z</Time>
            <Position>
              <LatitudeDegrees>40.73063931427896022796630859375</LatitudeDegrees>
              <LongitudeDegrees>-4.00241634808480739593505859375</LongitudeDegrees>
            </Position>
            <AltitudeMeters>1164.4000244140625</AltitudeMeters>
            <DistanceMeters>64634.267197113</DistanceMeters>
          </Trackpoint>
          <Trackpoint>
            <Time>2019-08-01T13:04:17.000Z</Time>
            <Position>
              <LatitudeDegrees>40.7307453453540802001953125</LatitudeDegrees>
              <LongitudeDegrees>-4.002561271190643310546875</LongitudeDegrees>
            </Position>
            <AltitudeMeters>1163.199951171875</AltitudeMeters>
            <DistanceMeters>64651.258122454</DistanceMeters>
          </Trackpoint>
          <Trackpoint>
            <Time>2019-08-01T13:04:36.000Z</Time>
            <Position>
              <LatitudeDegrees>40.730998478829860687255859375</LatitudeDegrees>
              <LongitudeDegrees>-4.00292295031249523162841796875</LongitudeDegrees>
            </Position>
            <AltitudeMeters>1163.5999755859375</AltitudeMeters>
            <DistanceMeters>64692.783274438</DistanceMeters>
          </Trackpoint>
          <Trackpoint>
            <Time>2019-08-01T13:05:04.000Z</Time>
            <Position>
              <LatitudeDegrees>40.73136451654136180877685546875</LatitudeDegrees>
              <LongitudeDegrees>-4.00344631634652614593505859375</LongitudeDegrees>
            </Position>
            <AltitudeMeters>1163.5999755859375</AltitudeMeters>
            <DistanceMeters>64752.852486071</DistanceMeters>
          </Trackpoint>
          <Trackpoint>
            <Time>2019-08-01T13:05:33.000Z</Time>
            <Position>
              <LatitudeDegrees>40.7317458093166351318359375</LatitudeDegrees>
              <LongitudeDegrees>-4.0039841830730438232421875</LongitudeDegrees>
            </Position>
            <AltitudeMeters>1163.199951171875</AltitudeMeters>
            <DistanceMeters>64814.973361534</DistanceMeters>
          </Trackpoint>
          <Trackpoint>
            <Time>2019-08-01T13:05:34.000Z</Time>
            <Position>
              <LatitudeDegrees>40.73175947181880474090576171875</LatitudeDegrees>
              <LongitudeDegrees>-4.00400220416486263275146484375</LongitudeDegrees>
            </Position>
            <AltitudeMeters>1163.199951171875</AltitudeMeters>
            <DistanceMeters>64817.121469786</DistanceMeters>
          </Trackpoint>
          <Trackpoint>
            <Time>2019-08-01T13:05:40.000Z</Time>
            <Position>
              <LatitudeDegrees>40.73184714652597904205322265625</LatitudeDegrees>
              <LongitudeDegrees>-4.00412566959857940673828125</LongitudeDegrees>
            </Position>
            <AltitudeMeters>1164</AltitudeMeters>
            <DistanceMeters>64831.3925715</DistanceMeters>
          </Trackpoint>
          <Trackpoint>
            <Time>2019-08-01T13:05:44.000Z</Time>
            <Position>
              <LatitudeDegrees>40.73190950788557529449462890625</LatitudeDegrees>
              <LongitudeDegrees>-4.00421225465834140777587890625</LongitudeDegrees>
            </Position>
            <AltitudeMeters>1165.199951171875</AltitudeMeters>
            <DistanceMeters>64841.46719602</DistanceMeters>
          </Trackpoint>
          <Trackpoint>
            <Time>2019-08-01T13:05:47.000Z</Time>
            <Position>
              <LatitudeDegrees>40.7319474779069423675537109375</LatitudeDegrees>
              <LongitudeDegrees>-4.00427277199923992156982421875</LongitudeDegrees>
            </Position>
            <AltitudeMeters>1166.199951171875</AltitudeMeters>
            <DistanceMeters>64848.093904234</DistanceMeters>
          </Trackpoint>
          <Trackpoint>
            <Time>2019-08-01T13:05:53.000Z</Time>
            <Position>
              <LatitudeDegrees>40.7320205681025981903076171875</LatitudeDegrees>
              <LongitudeDegrees>-4.0043766237795352935791015625</LongitudeDegrees>
            </Position>
            <AltitudeMeters>1167</AltitudeMeters>
            <DistanceMeters>64860.048023178</DistanceMeters>
          </Trackpoint>
          <Trackpoint>
            <Time>2019-08-01T13:05:58.000Z</Time>
            <Position>
              <LatitudeDegrees>40.73207731358706951141357421875</LatitudeDegrees>
              <LongitudeDegrees>-4.00445298291742801666259765625</LongitudeDegrees>
            </Position>
            <AltitudeMeters>1168</AltitudeMeters>
            <DistanceMeters>64869.068055814</DistanceMeters>
          </Trackpoint>
          <Trackpoint>
            <Time>2019-08-01T13:06:35.000Z</Time>
            <Position>
              <LatitudeDegrees>40.7324513979256153106689453125</LatitudeDegrees>
              <LongitudeDegrees>-4.00497014634311199188232421875</LongitudeDegrees>
            </Position>
            <AltitudeMeters>1167.5999755859375</AltitudeMeters>
            <DistanceMeters>64929.368327966</DistanceMeters>
          </Trackpoint>
          <Trackpoint>
            <Time>2019-08-01T13:06:52.000Z</Time>
            <Position>
              <LatitudeDegrees>40.73259900324046611785888671875</LatitudeDegrees>
              <LongitudeDegrees>-4.0051839686930179595947265625</LongitudeDegrees>
            </Position>
            <AltitudeMeters>1165.199951171875</AltitudeMeters>
            <DistanceMeters>64953.763556762</DistanceMeters>
          </Trackpoint>
          <Trackpoint>
            <Time>2019-08-01T13:06:59.000Z</Time>
            <Position>
              <LatitudeDegrees>40.73266706429421901702880859375</LatitudeDegrees>
              <LongitudeDegrees>-4.0052811987698078155517578125</LongitudeDegrees>
            </Position>
            <AltitudeMeters>1164</AltitudeMeters>
            <DistanceMeters>64964.927477</DistanceMeters>
          </Trackpoint>
          <Trackpoint>
            <Time>2019-08-01T13:07:07.000Z</Time>
            <Position>
              <LatitudeDegrees>40.73275306262075901031494140625</LatitudeDegrees>
              <LongitudeDegrees>-4.0053908340632915496826171875</LongitudeDegrees>
            </Position>
            <AltitudeMeters>1162.800048828125</AltitudeMeters>
            <DistanceMeters>64978.2359675</DistanceMeters>
          </Trackpoint>
          <Trackpoint>
            <Time>2019-08-01T13:07:10.000Z</Time>
            <Position>
              <LatitudeDegrees>40.73278248310089111328125</LatitudeDegrees>
              <LongitudeDegrees>-4.00543249212205410003662109375</LongitudeDegrees>
            </Position>
            <AltitudeMeters>1162.4000244140625</AltitudeMeters>
            <DistanceMeters>64983.038343499</DistanceMeters>
          </Trackpoint>
          <Trackpoint>
            <Time>2019-08-01T13:07:21.000Z</Time>
            <Position>
              <LatitudeDegrees>40.73289337567985057830810546875</LatitudeDegrees>
              <LongitudeDegrees>-4.005582444369792938232421875</LongitudeDegrees>
            </Position>
            <AltitudeMeters>1163.199951171875</AltitudeMeters>
            <DistanceMeters>65000.710246728</DistanceMeters>
          </Trackpoint>
          <Trackpoint>
            <Time>2019-08-01T13:07:26.000Z</Time>
            <Position>
              <LatitudeDegrees>40.7329409010708332061767578125</LatitudeDegrees>
              <LongitudeDegrees>-4.00564371608197689056396484375</LongitudeDegrees>
            </Position>
            <AltitudeMeters>1163.199951171875</AltitudeMeters>
            <DistanceMeters>65008.105254702</DistanceMeters>
          </Trackpoint>
          <Trackpoint>
            <Time>2019-08-01T13:07:42.000Z</Time>
            <Position>
              <LatitudeDegrees>40.73310459963977336883544921875</LatitudeDegrees>
              <LongitudeDegrees>-4.00584898889064788818359375</LongitudeDegrees>
            </Position>
            <AltitudeMeters>1163.800048828125</AltitudeMeters>
            <DistanceMeters>65033.238877554</DistanceMeters>
          </Trackpoint>
          <Trackpoint>
            <Time>2019-08-01T13:07:45.000Z</Time>
            <Position>
              <LatitudeDegrees>40.73313460685312747955322265625</LatitudeDegrees>
              <LongitudeDegrees>-4.00588410906493663787841796875</LongitudeDegrees>
            </Position>
            <AltitudeMeters>1164.800048828125</AltitudeMeters>
            <DistanceMeters>65037.702099331</DistanceMeters>
          </Trackpoint>
          <Trackpoint>
            <Time>2019-08-01T13:07:48.000Z</Time>
            <Position>
              <LatitudeDegrees>40.73316209949553012847900390625</LatitudeDegrees>
              <LongitudeDegrees>-4.0059198997914791107177734375</LongitudeDegrees>
            </Position>
            <AltitudeMeters>1165.800048828125</AltitudeMeters>
            <DistanceMeters>65042.000417189</DistanceMeters>
          </Trackpoint>
          <Trackpoint>
            <Time>2019-08-01T13:07:52.000Z</Time>
            <Position>
              <LatitudeDegrees>40.7332076132297515869140625</LatitudeDegrees>
              <LongitudeDegrees>-4.00595501996576786041259765625</LongitudeDegrees>
            </Position>
            <AltitudeMeters>1166.5999755859375</AltitudeMeters>
            <DistanceMeters>65047.869038114</DistanceMeters>
          </Trackpoint>
          <Trackpoint>
            <Time>2019-08-01T13:07:56.000Z</Time>
            <Position>
              <LatitudeDegrees>40.73323317803442478179931640625</LatitudeDegrees>
              <LongitudeDegrees>-4.0059581212699413299560546875</LongitudeDegrees>
            </Position>
            <AltitudeMeters>1167.5999755859375</AltitudeMeters>
            <DistanceMeters>65050.726167636</DistanceMeters>
          </Trackpoint>
          <Trackpoint>
            <Time>2019-08-01T13:21:42.000Z</Time>
            <Position>
              <LatitudeDegrees>40.733352117240428924560546875</LatitudeDegrees>
              <LongitudeDegrees>-4.00596960447728633880615234375</LongitudeDegrees>
            </Position>
            <AltitudeMeters>1285.5999755859375</AltitudeMeters>
            <DistanceMeters>65064.000008511</DistanceMeters>
          </Trackpoint>
          <Trackpoint>
            <Time>2019-08-01T13:21:49.000Z</Time>
            <Position>
              <LatitudeDegrees>40.73341556824743747711181640625</LatitudeDegrees>
              <LongitudeDegrees>-4.00606147013604640960693359375</LongitudeDegrees>
            </Position>
            <AltitudeMeters>1284.5999755859375</AltitudeMeters>
            <DistanceMeters>65074.483569947</DistanceMeters>
          </Trackpoint>
          <Trackpoint>
            <Time>2019-08-01T13:21:50.000Z</Time>
            <Position>
              <LatitudeDegrees>40.73342545889317989349365234375</LatitudeDegrees>
              <LongitudeDegrees>-4.00607563555240631103515625</LongitudeDegrees>
            </Position>
            <AltitudeMeters>1284.4000244140625</AltitudeMeters>
            <DistanceMeters>65076.107387154</DistanceMeters>
          </Trackpoint>
          <Trackpoint>
            <Time>2019-08-01T13:21:53.000Z</Time>
            <Position>
              <LatitudeDegrees>40.73345714248716831207275390625</LatitudeDegrees>
              <LongitudeDegrees>-4.00612131692469120025634765625</LongitudeDegrees>
            </Position>
            <AltitudeMeters>1283.5999755859375</AltitudeMeters>
            <DistanceMeters>65081.330399785</DistanceMeters>
          </Trackpoint>
          <Trackpoint>
            <Time>2019-08-01T13:21:57.000Z</Time>
            <Position>
              <LatitudeDegrees>40.73350911028683185577392578125</LatitudeDegrees>
              <LongitudeDegrees>-4.0061854384839534759521484375</LongitudeDegrees>
            </Position>
            <AltitudeMeters>1282.800048828125</AltitudeMeters>
            <DistanceMeters>65089.24903924</DistanceMeters>
          </Trackpoint>
          <Trackpoint>
            <Time>2019-08-01T13:21:58.000Z</Time>
            <Position>
              <LatitudeDegrees>40.73352403007447719573974609375</LatitudeDegrees>
              <LongitudeDegrees>-4.006198681890964508056640625</LongitudeDegrees>
            </Position>
            <AltitudeMeters>1282.4000244140625</AltitudeMeters>
            <DistanceMeters>65091.25137636</DistanceMeters>
          </Trackpoint>
          <Trackpoint>
            <Time>2019-08-01T13:22:00.000Z</Time>
            <Position>
              <LatitudeDegrees>40.7335574738681316375732421875</LatitudeDegrees>
              <LongitudeDegrees>-4.006209075450897216796875</LongitudeDegrees>
            </Position>
            <AltitudeMeters>1281.5999755859375</AltitudeMeters>
            <DistanceMeters>65095.073766147</DistanceMeters>
          </Trackpoint>
          <Trackpoint>
            <Time>2019-08-01T13:22:02.000Z</Time>
            <Position>
              <LatitudeDegrees>40.73359259404242038726806640625</LatitudeDegrees>
              <LongitudeDegrees>-4.0062243305146694183349609375</LongitudeDegrees>
            </Position>
            <AltitudeMeters>1281.199951171875</AltitudeMeters>
            <DistanceMeters>65099.187446161</DistanceMeters>
          </Trackpoint>
          <Trackpoint>
            <Time>2019-08-01T13:22:04.000Z</Time>
            <Position>
              <LatitudeDegrees>40.7336302287876605987548828125</LatitudeDegrees>
              <LongitudeDegrees>-4.0062340535223484039306640625</LongitudeDegrees>
            </Position>
            <AltitudeMeters>1280.199951171875</AltitudeMeters>
            <DistanceMeters>65103.456250943</DistanceMeters>
          </Trackpoint>
          <Trackpoint>
            <Time>2019-08-01T13:22:08.000Z</Time>
            <Position>
              <LatitudeDegrees>40.7337023131549358367919921875</LatitudeDegrees>
              <LongitudeDegrees>-4.0062199719250202178955078125</LongitudeDegrees>
            </Position>
            <AltitudeMeters>1279.4000244140625</AltitudeMeters>
            <DistanceMeters>65111.566991161</DistanceMeters>
          </Trackpoint>
          <Trackpoint>
            <Time>2019-08-01T13:22:12.000Z</Time>
            <Position>
              <LatitudeDegrees>40.733767859637737274169921875</LatitudeDegrees>
              <LongitudeDegrees>-4.006178565323352813720703125</LongitudeDegrees>
            </Position>
            <AltitudeMeters>1278.4000244140625</AltitudeMeters>
            <DistanceMeters>65119.654875542</DistanceMeters>
          </Trackpoint>
          <Trackpoint>
            <Time>2019-08-01T13:22:15.000Z</Time>
            <Position>
              <LatitudeDegrees>40.73381622321903705596923828125</LatitudeDegrees>
              <LongitudeDegrees>-4.0061468817293643951416015625</LongitudeDegrees>
            </Position>
            <AltitudeMeters>1277.4000244140625</AltitudeMeters>
            <DistanceMeters>65125.664892662</DistanceMeters>
          </Trackpoint>
          <Trackpoint>
            <Time>2019-08-01T13:22:23.000Z</Time>
            <Position>
              <LatitudeDegrees>40.73395259678363800048828125</LatitudeDegrees>
              <LongitudeDegrees>-4.00616758503019809722900390625</LongitudeDegrees>
            </Position>
            <AltitudeMeters>1276.4000244140625</AltitudeMeters>
            <DistanceMeters>65140.943817239</DistanceMeters>
          </Trackpoint>
          <Trackpoint>
            <Time>2019-08-01T13:22:27.000Z</Time>
            <Position>
              <LatitudeDegrees>40.733956284821033477783203125</LatitudeDegrees>
              <LongitudeDegrees>-4.00629113428294658660888671875</LongitudeDegrees>
            </Position>
            <AltitudeMeters>1275.199951171875</AltitudeMeters>
            <DistanceMeters>65151.372106198</DistanceMeters>
          </Trackpoint>
          <Trackpoint>
            <Time>2019-08-01T13:22:28.000Z</Time>
            <Position>
              <LatitudeDegrees>40.73394949547946453094482421875</LatitudeDegrees>
              <LongitudeDegrees>-4.0063269250094890594482421875</LongitudeDegrees>
            </Position>
            <AltitudeMeters>1275</AltitudeMeters>
            <DistanceMeters>65154.483414917</DistanceMeters>
          </Trackpoint>
          <Trackpoint>
            <Time>2019-08-01T13:22:31.000Z</Time>
            <Position>
              <LatitudeDegrees>40.73392351157963275909423828125</LatitudeDegrees>
              <LongitudeDegrees>-4.00643966160714626312255859375</LongitudeDegrees>
            </Position>
            <AltitudeMeters>1274.199951171875</AltitudeMeters>
            <DistanceMeters>65164.421319428</DistanceMeters>
          </Trackpoint>
          <Trackpoint>
            <Time>2019-08-01T13:22:40.000Z</Time>
            <Position>
              <LatitudeDegrees>40.73389492928981781005859375</LatitudeDegrees>
              <LongitudeDegrees>-4.0067430026829242706298828125</LongitudeDegrees>
            </Position>
            <AltitudeMeters>1273.199951171875</AltitudeMeters>
            <DistanceMeters>65190.201771062</DistanceMeters>
          </Trackpoint>
          <Trackpoint>
            <Time>2019-08-01T13:22:48.000Z</Time>
            <Position>
              <LatitudeDegrees>40.73396039195358753204345703125</LatitudeDegrees>
              <LongitudeDegrees>-4.00695682503283023834228515625</LongitudeDegrees>
            </Position>
            <AltitudeMeters>1272.199951171875</AltitudeMeters>
            <DistanceMeters>65209.651629479</DistanceMeters>
          </Trackpoint>
          <Trackpoint>
            <Time>2019-08-01T13:22:55.000Z</Time>
            <Position>
              <LatitudeDegrees>40.7340432889759540557861328125</LatitudeDegrees>
              <LongitudeDegrees>-4.00711339898407459259033203125</LongitudeDegrees>
            </Position>
            <AltitudeMeters>1271.199951171875</AltitudeMeters>
            <DistanceMeters>65225.760829858</DistanceMeters>
          </Trackpoint>
          <Trackpoint>
            <Time>2019-08-01T13:23:04.000Z</Time>
            <Position>
              <LatitudeDegrees>40.73414764367043972015380859375</LatitudeDegrees>
              <LongitudeDegrees>-4.00730685330927371978759765625</LongitudeDegrees>
            </Position>
            <AltitudeMeters>1270.199951171875</AltitudeMeters>
            <DistanceMeters>65245.788710316</DistanceMeters>
          </Trackpoint>
          <Trackpoint>
            <Time>2019-08-01T13:23:10.000Z</Time>
            <Position>
              <LatitudeDegrees>40.73421671055257320404052734375</LatitudeDegrees>
              <LongitudeDegrees>-4.00742956437170505523681640625</LongitudeDegrees>
            </Position>
            <AltitudeMeters>1269.199951171875</AltitudeMeters>
            <DistanceMeters>65258.680162014</DistanceMeters>
          </Trackpoint>
          <Trackpoint>
            <Time>2019-08-01T13:23:14.000Z</Time>
            <Position>
              <LatitudeDegrees>40.73426532559096813201904296875</LatitudeDegrees>
              <LongitudeDegrees>-4.0075084380805492401123046875</LongitudeDegrees>
            </Position>
            <AltitudeMeters>1268.199951171875</AltitudeMeters>
            <DistanceMeters>65267.255237086</DistanceMeters>
          </Trackpoint>
          <Trackpoint>
            <Time>2019-08-01T13:23:17.000Z</Time>
            <Position>
              <LatitudeDegrees>40.7343021221458911895751953125</LatitudeDegrees>
              <LongitudeDegrees>-4.0075697936117649078369140625</LongitudeDegrees>
            </Position>
            <AltitudeMeters>1266.800048828125</AltitudeMeters>
            <DistanceMeters>65273.853951249</DistanceMeters>
          </Trackpoint>
          <Trackpoint>
            <Time>2019-08-01T13:23:20.000Z</Time>
            <Position>
              <LatitudeDegrees>40.73434160090982913970947265625</LatitudeDegrees>
              <LongitudeDegrees>-4.00762821547687053680419921875</LongitudeDegrees>
            </Position>
            <AltitudeMeters>1265.199951171875</AltitudeMeters>
            <DistanceMeters>65280.455401766</DistanceMeters>
          </Trackpoint>
          <Trackpoint>
            <Time>2019-08-01T13:23:23.000Z</Time>
            <Position>
              <LatitudeDegrees>40.7343802414834499359130859375</LatitudeDegrees>
              <LongitudeDegrees>-4.00768571533262729644775390625</LongitudeDegrees>
            </Position>
            <AltitudeMeters>1263.800048828125</AltitudeMeters>
            <DistanceMeters>65286.936056481</DistanceMeters>
          </Trackpoint>
          <Trackpoint>
            <Time>2019-08-01T13:23:26.000Z</Time>
            <Position>
              <LatitudeDegrees>40.73442089371383190155029296875</LatitudeDegrees>
              <LongitudeDegrees>-4.0077424608170986175537109375</LongitudeDegrees>
            </Position>
            <AltitudeMeters>1262.5999755859375</AltitudeMeters>
            <DistanceMeters>65293.522442989</DistanceMeters>
          </Trackpoint>
          <Trackpoint>
            <Time>2019-08-01T13:23:31.000Z</Time>
            <Position>
              <LatitudeDegrees>40.7344882003962993621826171875</LatitudeDegrees>
              <LongitudeDegrees>-4.00783709250390529632568359375</LongitudeDegrees>
            </Position>
            <AltitudeMeters>1261.4000244140625</AltitudeMeters>
            <DistanceMeters>65304.468266588</DistanceMeters>
          </Trackpoint>
          <Trackpoint>
            <Time>2019-08-01T13:23:35.000Z</Time>
            <Position>
              <LatitudeDegrees>40.73454075492918491363525390625</LatitudeDegrees>
              <LongitudeDegrees>-4.0079121105372905731201171875</LongitudeDegrees>
            </Position>
            <AltitudeMeters>1260.4000244140625</AltitudeMeters>
            <DistanceMeters>65313.084837166</DistanceMeters>
          </Trackpoint>
          <Trackpoint>
            <Time>2019-08-01T13:23:40.000Z</Time>
            <Position>
              <LatitudeDegrees>40.734608061611652374267578125</LatitudeDegrees>
              <LongitudeDegrees>-4.008004479110240936279296875</LongitudeDegrees>
            </Position>
            <AltitudeMeters>1259.4000244140625</AltitudeMeters>
            <DistanceMeters>65323.892846644</DistanceMeters>
          </Trackpoint>
          <Trackpoint>
            <Time>2019-08-01T13:23:48.000Z</Time>
            <Position>
              <LatitudeDegrees>40.734710991382598876953125</LatitudeDegrees>
              <LongitudeDegrees>-4.00815359316766262054443359375</LongitudeDegrees>
            </Position>
            <AltitudeMeters>1258.199951171875</AltitudeMeters>
            <DistanceMeters>65340.904486479</DistanceMeters>
          </Trackpoint>
          <Trackpoint>
            <Time>2019-08-01T13:24:02.000Z</Time>
            <Position>
              <LatitudeDegrees>40.73489111848175525665283203125</LatitudeDegrees>
              <LongitudeDegrees>-4.00840706191956996917724609375</LongitudeDegrees>
            </Position>
            <AltitudeMeters>1257.199951171875</AltitudeMeters>
            <DistanceMeters>65370.211871405</DistanceMeters>
          </Trackpoint>
          <Trackpoint>
            <Time>2019-08-01T13:24:31.000Z</Time>
            <Position>
              <LatitudeDegrees>40.735268555581569671630859375</LatitudeDegrees>
              <LongitudeDegrees>-4.008941240608692169189453125</LongitudeDegrees>
            </Position>
            <AltitudeMeters>1256.5999755859375</AltitudeMeters>
            <DistanceMeters>65431.810735531</DistanceMeters>
          </Trackpoint>
          <Trackpoint>
            <Time>2019-08-01T13:24:42.000Z</Time>
            <Position>
              <LatitudeDegrees>40.73539587669074535369873046875</LatitudeDegrees>
              <LongitudeDegrees>-4.00919345207512378692626953125</LongitudeDegrees>
            </Position>
            <AltitudeMeters>1256</AltitudeMeters>
            <DistanceMeters>65457.369918817</DistanceMeters>
          </Trackpoint>
          <Trackpoint>
            <Time>2019-08-01T13:25:02.000Z</Time>
            <Position>
              <LatitudeDegrees>40.7355718128383159637451171875</LatitudeDegrees>
              <LongitudeDegrees>-4.00976635515689849853515625</LongitudeDegrees>
            </Position>
            <AltitudeMeters>1255</AltitudeMeters>
            <DistanceMeters>65509.504175972</DistanceMeters>
          </Trackpoint>
          <Trackpoint>
            <Time>2019-08-01T13:25:22.000Z</Time>
            <Position>
              <LatitudeDegrees>40.735593773424625396728515625</LatitudeDegrees>
              <LongitudeDegrees>-4.01048091240227222442626953125</LongitudeDegrees>
            </Position>
            <AltitudeMeters>1255.5999755859375</AltitudeMeters>
            <DistanceMeters>65569.817175686</DistanceMeters>
          </Trackpoint>
          <Trackpoint>
            <Time>2019-08-01T13:25:25.000Z</Time>
            <Position>
              <LatitudeDegrees>40.73558203876018524169921875</LatitudeDegrees>
              <LongitudeDegrees>-4.01059172116219997406005859375</LongitudeDegrees>
            </Position>
            <AltitudeMeters>1255.800048828125</AltitudeMeters>
            <DistanceMeters>65579.253572446</DistanceMeters>
          </Trackpoint>
          <Trackpoint>
            <Time>2019-08-01T13:25:33.000Z</Time>
            <Position>
              <LatitudeDegrees>40.735524035990238189697265625</LatitudeDegrees>
              <LongitudeDegrees>-4.01087670587003231048583984375</LongitudeDegrees>
            </Position>
            <AltitudeMeters>1256.800048828125</AltitudeMeters>
            <DistanceMeters>65604.140414012</DistanceMeters>
          </Trackpoint>
          <Trackpoint>
            <Time>2019-08-01T13:25:43.000Z</Time>
            <Position>
              <LatitudeDegrees>40.7354177534580230712890625</LatitudeDegrees>
              <LongitudeDegrees>-4.01119287125766277313232421875</LongitudeDegrees>
            </Position>
            <AltitudeMeters>1257.800048828125</AltitudeMeters>
            <DistanceMeters>65633.311293732</DistanceMeters>
          </Trackpoint>
          <Trackpoint>
            <Time>2019-08-01T13:25:49.000Z</Time>
            <Position>
              <LatitudeDegrees>40.7353522069752216339111328125</LatitudeDegrees>
              <LongitudeDegrees>-4.01136763393878936767578125</LongitudeDegrees>
            </Position>
            <AltitudeMeters>1258.800048828125</AltitudeMeters>
            <DistanceMeters>65649.75723091</DistanceMeters>
          </Trackpoint>
          <Trackpoint>
            <Time>2019-08-01T13:26:04.000Z</Time>
            <Position>
              <LatitudeDegrees>40.73517275042831897735595703125</LatitudeDegrees>
              <LongitudeDegrees>-4.01171766221523284912109375</LongitudeDegrees>
            </Position>
            <AltitudeMeters>1259.800048828125</AltitudeMeters>
            <DistanceMeters>65685.400103475</DistanceMeters>
          </Trackpoint>
          <Trackpoint>
            <Time>2019-08-01T13:26:14.000Z</Time>
            <Position>
              <LatitudeDegrees>40.7350393943488597869873046875</LatitudeDegrees>
              <LongitudeDegrees>-4.01187951676547527313232421875</LongitudeDegrees>
            </Position>
            <AltitudeMeters>1261</AltitudeMeters>
            <DistanceMeters>65705.565479802</DistanceMeters>
          </Trackpoint>
          <Trackpoint>
            <Time>2019-08-01T13:26:23.000Z</Time>
            <Position>
              <LatitudeDegrees>40.7349066250026226043701171875</LatitudeDegrees>
              <LongitudeDegrees>-4.012000970542430877685546875</LongitudeDegrees>
            </Position>
            <AltitudeMeters>1262</AltitudeMeters>
            <DistanceMeters>65723.545880155</DistanceMeters>
          </Trackpoint>
          <Trackpoint>
            <Time>2019-08-01T13:26:44.000Z</Time>
            <Position>
              <LatitudeDegrees>40.73459498584270477294921875</LatitudeDegrees>
              <LongitudeDegrees>-4.0122536011040210723876953125</LongitudeDegrees>
            </Position>
            <AltitudeMeters>1262.800048828125</AltitudeMeters>
            <DistanceMeters>65764.253044241</DistanceMeters>
          </Trackpoint>
          <Trackpoint>
            <Time>2019-08-01T13:26:51.000Z</Time>
            <Position>
              <LatitudeDegrees>40.73449431918561458587646484375</LatitudeDegrees>
              <LongitudeDegrees>-4.0123407728970050811767578125</LongitudeDegrees>
            </Position>
            <AltitudeMeters>1263.800048828125</AltitudeMeters>
            <DistanceMeters>65777.654169579</DistanceMeters>
          </Trackpoint>
          <Trackpoint>
            <Time>2019-08-01T13:27:11.000Z</Time>
            <Position>
              <LatitudeDegrees>40.7342394255101680755615234375</LatitudeDegrees>
              <LongitudeDegrees>-4.0126074850559234619140625</LongitudeDegrees>
            </Position>
            <AltitudeMeters>1265</AltitudeMeters>
            <DistanceMeters>65813.859721873</DistanceMeters>
          </Trackpoint>
          <Trackpoint>
            <Time>2019-08-01T13:27:17.000Z</Time>
            <Position>
              <LatitudeDegrees>40.7341797463595867156982421875</LatitudeDegrees>
              <LongitudeDegrees>-4.01269541122019290924072265625</LongitudeDegrees>
            </Position>
            <AltitudeMeters>1265.800048828125</AltitudeMeters>
            <DistanceMeters>65823.81532929</DistanceMeters>
          </Trackpoint>
          <Trackpoint>
            <Time>2019-08-01T13:27:25.000Z</Time>
            <Position>
              <LatitudeDegrees>40.73410707525908946990966796875</LatitudeDegrees>
              <LongitudeDegrees>-4.01281678117811679840087890625</LongitudeDegrees>
            </Position>
            <AltitudeMeters>1267</AltitudeMeters>
            <DistanceMeters>65836.862050754</DistanceMeters>
          </Trackpoint>
          <Trackpoint>
            <Time>2019-08-01T13:27:43.000Z</Time>
            <Position>
              <LatitudeDegrees>40.73398419655859470367431640625</LatitudeDegrees>
              <LongitudeDegrees>-4.0131293423473834991455078125</LongitudeDegrees>
            </Position>
            <AltitudeMeters>1268</AltitudeMeters>
            <DistanceMeters>65866.559989509</DistanceMeters>
          </Trackpoint>
          <Trackpoint>
            <Time>2019-08-01T13:28:20.000Z</Time>
            <Position>
              <LatitudeDegrees>40.73386416770517826080322265625</LatitudeDegrees>
              <LongitudeDegrees>-4.01382143609225749969482421875</LongitudeDegrees>
            </Position>
            <AltitudeMeters>1266.5999755859375</AltitudeMeters>
            <DistanceMeters>65926.439639254</DistanceMeters>
          </Trackpoint>
          <Trackpoint>
            <Time>2019-08-01T13:28:25.000Z</Time>
            <Position>
              <LatitudeDegrees>40.7338620722293853759765625</LatitudeDegrees>
              <LongitudeDegrees>-4.01391816325485706329345703125</LongitudeDegrees>
            </Position>
            <AltitudeMeters>1266.5999755859375</AltitudeMeters>
            <DistanceMeters>65934.600879592</DistanceMeters>
          </Trackpoint>
          <Trackpoint>
            <Time>2019-08-01T13:28:44.000Z</Time>
            <Position>
              <LatitudeDegrees>40.7338781654834747314453125</LatitudeDegrees>
              <LongitudeDegrees>-4.01427975855767726898193359375</LongitudeDegrees>
            </Position>
            <AltitudeMeters>1265.199951171875</AltitudeMeters>
            <DistanceMeters>65965.150157824</DistanceMeters>
          </Trackpoint>
          <Trackpoint>
            <Time>2019-08-01T13:28:55.000Z</Time>
            <Position>
              <LatitudeDegrees>40.733907334506511688232421875</LatitudeDegrees>
              <LongitudeDegrees>-4.014480672776699066162109375</LongitudeDegrees>
            </Position>
            <AltitudeMeters>1264.199951171875</AltitudeMeters>
            <DistanceMeters>65982.403460985</DistanceMeters>
          </Trackpoint>
          <Trackpoint>
            <Time>2019-08-01T13:28:59.000Z</Time>
            <Position>
              <LatitudeDegrees>40.73391445912420749664306640625</LatitudeDegrees>
              <LongitudeDegrees>-4.01455409824848175048828125</LongitudeDegrees>
            </Position>
            <AltitudeMeters>1262.800048828125</AltitudeMeters>
            <DistanceMeters>65988.646361748</DistanceMeters>
          </Trackpoint>
          <Trackpoint>
            <Time>2019-08-01T13:29:03.000Z</Time>
            <Position>
              <LatitudeDegrees>40.7339303009212017059326171875</LatitudeDegrees>
              <LongitudeDegrees>-4.01462509296834468841552734375</LongitudeDegrees>
            </Position>
            <AltitudeMeters>1261.5999755859375</AltitudeMeters>
            <DistanceMeters>65994.887815888</DistanceMeters>
          </Trackpoint>
          <Trackpoint>
            <Time>2019-08-01T13:29:06.000Z</Time>
            <Position>
              <LatitudeDegrees>40.7339433766901493072509765625</LatitudeDegrees>
              <LongitudeDegrees>-4.01467957533895969390869140625</LongitudeDegrees>
            </Position>
            <AltitudeMeters>1260.4000244140625</AltitudeMeters>
            <DistanceMeters>65999.708021972</DistanceMeters>
          </Trackpoint>
          <Trackpoint>
            <Time>2019-08-01T13:29:09.000Z</Time>
            <Position>
              <LatitudeDegrees>40.7339551113545894622802734375</LatitudeDegrees>
              <LongitudeDegrees>-4.01473355479538440704345703125</LongitudeDegrees>
            </Position>
            <AltitudeMeters>1259</AltitudeMeters>
            <DistanceMeters>66004.444129011</DistanceMeters>
          </Trackpoint>
          <Trackpoint>
            <Time>2019-08-01T13:29:12.000Z</Time>
            <Position>
              <LatitudeDegrees>40.73396491818130016326904296875</LatitudeDegrees>
              <LongitudeDegrees>-4.01478736661374568939208984375</LongitudeDegrees>
            </Position>
            <AltitudeMeters>1257.5999755859375</AltitudeMeters>
            <DistanceMeters>66009.11109209</DistanceMeters>
          </Trackpoint>
          <Trackpoint>
            <Time>2019-08-01T13:29:15.000Z</Time>
            <Position>
              <LatitudeDegrees>40.73397732339799404144287109375</LatitudeDegrees>
              <LongitudeDegrees>-4.0148392505943775177001953125</LongitudeDegrees>
            </Position>
            <AltitudeMeters>1255.800048828125</AltitudeMeters>
            <DistanceMeters>66013.699022799</DistanceMeters>
          </Trackpoint>
          <Trackpoint>
            <Time>2019-08-01T13:29:17.000Z</Time>
            <Position>
              <LatitudeDegrees>40.7339859567582607269287109375</LatitudeDegrees>
              <LongitudeDegrees>-4.01487462222576141357421875</LongitudeDegrees>
            </Position>
            <AltitudeMeters>1254.5999755859375</AltitudeMeters>
            <DistanceMeters>66016.832023452</DistanceMeters>
          </Trackpoint>
          <Trackpoint>
            <Time>2019-08-01T13:29:20.000Z</Time>
            <Position>
              <LatitudeDegrees>40.733997523784637451171875</LatitudeDegrees>
              <LongitudeDegrees>-4.01492499746382236480712890625</LongitudeDegrees>
            </Position>
            <AltitudeMeters>1253.4000244140625</AltitudeMeters>
            <DistanceMeters>66021.270900202</DistanceMeters>
          </Trackpoint>
          <Trackpoint>
            <Time>2019-08-01T13:29:22.000Z</Time>
            <Position>
              <LatitudeDegrees>40.7340033911168575286865234375</LatitudeDegrees>
              <LongitudeDegrees>-4.014957435429096221923828125</LongitudeDegrees>
            </Position>
            <AltitudeMeters>1252.199951171875</AltitudeMeters>
            <DistanceMeters>66024.083434107</DistanceMeters>
          </Trackpoint>
          <Trackpoint>
            <Time>2019-08-01T13:29:25.000Z</Time>
            <Position>
              <LatitudeDegrees>40.73401286266744136810302734375</LatitudeDegrees>
              <LongitudeDegrees>-4.01500898413360118865966796875</LongitudeDegrees>
            </Position>
            <AltitudeMeters>1250.5999755859375</AltitudeMeters>
            <DistanceMeters>66028.555751104</DistanceMeters>
          </Trackpoint>
          <Trackpoint>
            <Time>2019-08-01T13:29:27.000Z</Time>
            <Position>
              <LatitudeDegrees>40.73401889763772487640380859375</LatitudeDegrees>
              <LongitudeDegrees>-4.01504133827984333038330078125</LongitudeDegrees>
            </Position>
            <AltitudeMeters>1249.5999755859375</AltitudeMeters>
            <DistanceMeters>66031.365072519</DistanceMeters>
          </Trackpoint>
          <Trackpoint>
            <Time>2019-08-01T13:29:30.000Z</Time>
            <Position>
              <LatitudeDegrees>40.7340268604457378387451171875</LatitudeDegrees>
              <LongitudeDegrees>-4.0150920487940311431884765625</LongitudeDegrees>
            </Position>
            <AltitudeMeters>1248.199951171875</AltitudeMeters>
            <DistanceMeters>66035.733201584</DistanceMeters>
          </Trackpoint>
          <Trackpoint>
            <Time>2019-08-01T13:29:33.000Z</Time>
            <Position>
              <LatitudeDegrees>40.7340375892817974090576171875</LatitudeDegrees>
              <LongitudeDegrees>-4.01513747870922088623046875</LongitudeDegrees>
            </Position>
            <AltitudeMeters>1246.5999755859375</AltitudeMeters>
            <DistanceMeters>66039.746885226</DistanceMeters>
          </Trackpoint>
          <Trackpoint>
            <Time>2019-08-01T13:29:36.000Z</Time>
            <Position>
              <LatitudeDegrees>40.73405175469815731048583984375</LatitudeDegrees>
              <LongitudeDegrees>-4.015184082090854644775390625</LongitudeDegrees>
            </Position>
            <AltitudeMeters>1245.5999755859375</AltitudeMeters>
            <DistanceMeters>66043.983840733</DistanceMeters>
          </Trackpoint>
          <Trackpoint>
            <Time>2019-08-01T13:29:41.000Z</Time>
            <Position>
              <LatitudeDegrees>40.73407195508480072021484375</LatitudeDegrees>
              <LongitudeDegrees>-4.01526756584644317626953125</LongitudeDegrees>
            </Position>
            <AltitudeMeters>1244.199951171875</AltitudeMeters>
            <DistanceMeters>66051.375184487</DistanceMeters>
          </Trackpoint>
          <Trackpoint>
            <Time>2019-08-01T13:29:45.000Z</Time>
            <Position>
              <LatitudeDegrees>40.7340892218053340911865234375</LatitudeDegrees>
              <LongitudeDegrees>-4.01533596217632293701171875</LongitudeDegrees>
            </Position>
            <AltitudeMeters>1242.800048828125</AltitudeMeters>
            <DistanceMeters>66057.455409232</DistanceMeters>
          </Trackpoint>
          <Trackpoint>
            <Time>2019-08-01T13:29:49.000Z</Time>
            <Position>
              <LatitudeDegrees>40.73410439305007457733154296875</LatitudeDegrees>
              <LongitudeDegrees>-4.0154025144875049591064453125</LongitudeDegrees>
            </Position>
            <AltitudeMeters>1241.5999755859375</AltitudeMeters>
            <DistanceMeters>66063.317101895</DistanceMeters>
          </Trackpoint>
          <Trackpoint>
            <Time>2019-08-01T13:29:53.000Z</Time>
            <Position>
              <LatitudeDegrees>40.73412182740867137908935546875</LatitudeDegrees>
              <LongitudeDegrees>-4.01546537876129150390625</LongitudeDegrees>
            </Position>
            <AltitudeMeters>1240.4000244140625</AltitudeMeters>
            <DistanceMeters>66068.963000393</DistanceMeters>
          </Trackpoint>
          <Trackpoint>
            <Time>2019-08-01T13:30:10.000Z</Time>
            <Position>
              <LatitudeDegrees>40.7342082448303699493408203125</LatitudeDegrees>
              <LongitudeDegrees>-4.0157438255846500396728515625</LongitudeDegrees>
            </Position>
            <AltitudeMeters>1241</AltitudeMeters>
            <DistanceMeters>66094.339937396</DistanceMeters>
          </Trackpoint>
          <Trackpoint>
            <Time>2019-08-01T13:30:15.000Z</Time>
            <Position>
              <LatitudeDegrees>40.73423598892986774444580078125</LatitudeDegrees>
              <LongitudeDegrees>-4.0158207714557647705078125</LongitudeDegrees>
            </Position>
            <AltitudeMeters>1242</AltitudeMeters>
            <DistanceMeters>66101.526872575</DistanceMeters>
          </Trackpoint>
          <Trackpoint>
            <Time>2019-08-01T13:30:19.000Z</Time>
            <Position>
              <LatitudeDegrees>40.73426364921033382415771484375</LatitudeDegrees>
              <LongitudeDegrees>-4.01587349362671375274658203125</LongitudeDegrees>
            </Position>
            <AltitudeMeters>1242.800048828125</AltitudeMeters>
            <DistanceMeters>66106.935053193</DistanceMeters>
          </Trackpoint>
          <Trackpoint>
            <Time>2019-08-01T13:30:21.000Z</Time>
            <Position>
              <LatitudeDegrees>40.7342722825706005096435546875</LatitudeDegrees>
              <LongitudeDegrees>-4.01590366847813129425048828125</LongitudeDegrees>
            </Position>
            <AltitudeMeters>1243</AltitudeMeters>
            <DistanceMeters>66109.656204178</DistanceMeters>
          </Trackpoint>
          <Trackpoint>
            <Time>2019-08-01T13:30:25.000Z</Time>
            <Position>
              <LatitudeDegrees>40.7342964224517345428466796875</LatitudeDegrees>
              <LongitudeDegrees>-4.01596133597195148468017578125</LongitudeDegrees>
            </Position>
            <AltitudeMeters>1243.4000244140625</AltitudeMeters>
            <DistanceMeters>66115.211814072</DistanceMeters>
          </Trackpoint>
          <Trackpoint>
            <Time>2019-08-01T13:30:28.000Z</Time>
            <Position>
              <LatitudeDegrees>40.7343180477619171142578125</LatitudeDegrees>
              <LongitudeDegrees>-4.01600039564073085784912109375</LongitudeDegrees>
            </Position>
            <AltitudeMeters>1243.5999755859375</AltitudeMeters>
            <DistanceMeters>66119.290220722</DistanceMeters>
          </Trackpoint>
          <Trackpoint>
            <Time>2019-08-01T13:30:43.000Z</Time>
            <Position>
              <LatitudeDegrees>40.73439490981400012969970703125</LatitudeDegrees>
              <LongitudeDegrees>-4.0161981247365474700927734375</LongitudeDegrees>
            </Position>
            <AltitudeMeters>1242.199951171875</AltitudeMeters>
            <DistanceMeters>66138.032659298</DistanceMeters>
          </Trackpoint>
          <Trackpoint>
            <Time>2019-08-01T13:30:48.000Z</Time>
            <Position>
              <LatitudeDegrees>40.73442064225673675537109375</LatitudeDegrees>
              <LongitudeDegrees>-4.016261659562587738037109375</LongitudeDegrees>
            </Position>
            <AltitudeMeters>1240.800048828125</AltitudeMeters>
            <DistanceMeters>66144.109913008</DistanceMeters>
          </Trackpoint>
          <Trackpoint>
            <Time>2019-08-01T13:30:52.000Z</Time>
            <Position>
              <LatitudeDegrees>40.73444587178528308868408203125</LatitudeDegrees>
              <LongitudeDegrees>-4.01631228625774383544921875</LongitudeDegrees>
            </Position>
            <AltitudeMeters>1239.5999755859375</AltitudeMeters>
            <DistanceMeters>66149.22107835</DistanceMeters>
          </Trackpoint>
          <Trackpoint>
            <Time>2019-08-01T13:30:56.000Z</Time>
            <Position>
              <LatitudeDegrees>40.73446766473352909088134765625</LatitudeDegrees>
              <LongitudeDegrees>-4.016364254057407379150390625</LongitudeDegrees>
            </Position>
            <AltitudeMeters>1238.4000244140625</AltitudeMeters>
            <DistanceMeters>66154.229626279</DistanceMeters>
          </Trackpoint>
          <Trackpoint>
            <Time>2019-08-01T13:31:02.000Z</Time>
            <Position>
              <LatitudeDegrees>40.7344882003962993621826171875</LatitudeDegrees>
              <LongitudeDegrees>-4.01645033620297908782958984375</LongitudeDegrees>
            </Position>
            <AltitudeMeters>1237.199951171875</AltitudeMeters>
            <DistanceMeters>66161.840666969</DistanceMeters>
          </Trackpoint>
          <Trackpoint>
            <Time>2019-08-01T13:31:06.000Z</Time>
            <Position>
              <LatitudeDegrees>40.73449985124170780181884765625</LatitudeDegrees>
              <LongitudeDegrees>-4.0165116079151630401611328125</LongitudeDegrees>
            </Position>
            <AltitudeMeters>1236.4000244140625</AltitudeMeters>
            <DistanceMeters>66167.168946273</DistanceMeters>
          </Trackpoint>
          <Trackpoint>
            <Time>2019-08-01T13:31:10.000Z</Time>
            <Position>
              <LatitudeDegrees>40.734526254236698150634765625</LatitudeDegrees>
              <LongitudeDegrees>-4.016563408076763153076171875</LongitudeDegrees>
            </Position>
            <AltitudeMeters>1235.5999755859375</AltitudeMeters>
            <DistanceMeters>66172.435004074</DistanceMeters>
          </Trackpoint>
          <Trackpoint>
            <Time>2019-08-01T13:31:11.000Z</Time>
            <Position>
              <LatitudeDegrees>40.7345317862927913665771484375</LatitudeDegrees>
              <LongitudeDegrees>-4.01657790876924991607666015625</LongitudeDegrees>
            </Position>
            <AltitudeMeters>1235.5999755859375</AltitudeMeters>
            <DistanceMeters>66173.798894006</DistanceMeters>
          </Trackpoint>
          <Trackpoint>
            <Time>2019-08-01T13:31:18.000Z</Time>
            <Position>
              <LatitudeDegrees>40.73455785401165485382080078125</LatitudeDegrees>
              <LongitudeDegrees>-4.0166882984340190887451171875</LongitudeDegrees>
            </Position>
            <AltitudeMeters>1234.4000244140625</AltitudeMeters>
            <DistanceMeters>66183.550135207</DistanceMeters>
          </Trackpoint>
          <Trackpoint>
            <Time>2019-08-01T13:31:22.000Z</Time>
            <Position>
              <LatitudeDegrees>40.73456875048577785491943359375</LatitudeDegrees>
              <LongitudeDegrees>-4.0167459659278392791748046875</LongitudeDegrees>
            </Position>
            <AltitudeMeters>1233</AltitudeMeters>
            <DistanceMeters>66188.562287705</DistanceMeters>
          </Trackpoint>
          <Trackpoint>
            <Time>2019-08-01T13:31:27.000Z</Time>
            <Position>
              <LatitudeDegrees>40.73458283208310604095458984375</LatitudeDegrees>
              <LongitudeDegrees>-4.01683087460696697235107421875</LongitudeDegrees>
            </Position>
            <AltitudeMeters>1231.5999755859375</AltitudeMeters>
            <DistanceMeters>66195.892907387</DistanceMeters>
          </Trackpoint>
          <Trackpoint>
            <Time>2019-08-01T13:31:32.000Z</Time>
            <Position>
              <LatitudeDegrees>40.7346078939735889434814453125</LatitudeDegrees>
              <LongitudeDegrees>-4.01691217906773090362548828125</LongitudeDegrees>
            </Position>
            <AltitudeMeters>1230.4000244140625</AltitudeMeters>
            <DistanceMeters>66203.295848285</DistanceMeters>
          </Trackpoint>
          <Trackpoint>
            <Time>2019-08-01T13:31:33.000Z</Time>
            <Position>
              <LatitudeDegrees>40.73461049236357212066650390625</LatitudeDegrees>
              <LongitudeDegrees>-4.01692944578826427459716796875</LongitudeDegrees>
            </Position>
            <AltitudeMeters>1230.199951171875</AltitudeMeters>
            <DistanceMeters>66204.780213015</DistanceMeters>
          </Trackpoint>
          <Trackpoint>
            <Time>2019-08-01T13:31:38.000Z</Time>
            <Position>
              <LatitudeDegrees>40.7346156053245067596435546875</LatitudeDegrees>
              <LongitudeDegrees>-4.01701091788709163665771484375</LongitudeDegrees>
            </Position>
            <AltitudeMeters>1228.800048828125</AltitudeMeters>
            <DistanceMeters>66211.675381793</DistanceMeters>
          </Trackpoint>
          <Trackpoint>
            <Time>2019-08-01T13:31:43.000Z</Time>
            <Position>
              <LatitudeDegrees>40.73462692089378833770751953125</LatitudeDegrees>
              <LongitudeDegrees>-4.0170923061668872833251953125</LongitudeDegrees>
            </Position>
            <AltitudeMeters>1227.4000244140625</AltitudeMeters>
            <DistanceMeters>66218.65451013</DistanceMeters>
          </Trackpoint>
          <Trackpoint>
            <Time>2019-08-01T13:31:47.000Z</Time>
            <Position>
              <LatitudeDegrees>40.73462524451315402984619140625</LatitudeDegrees>
              <LongitudeDegrees>-4.01715810410678386688232421875</LongitudeDegrees>
            </Position>
            <AltitudeMeters>1226</AltitudeMeters>
            <DistanceMeters>66224.206868275</DistanceMeters>
          </Trackpoint>
          <Trackpoint>
            <Time>2019-08-01T13:31:51.000Z</Time>
            <Position>
              <LatitudeDegrees>40.7346296869218349456787109375</LatitudeDegrees>
              <LongitudeDegrees>-4.01721887290477752685546875</LongitudeDegrees>
            </Position>
            <AltitudeMeters>1224.5999755859375</AltitudeMeters>
            <DistanceMeters>66229.35587832</DistanceMeters>
          </Trackpoint>
          <Trackpoint>
            <Time>2019-08-01T13:31:55.000Z</Time>
            <Position>
              <LatitudeDegrees>40.73463647626340389251708984375</LatitudeDegrees>
              <LongitudeDegrees>-4.01728383265435695648193359375</LongitudeDegrees>
            </Position>
            <AltitudeMeters>1223.5999755859375</AltitudeMeters>
            <DistanceMeters>66234.887053511</DistanceMeters>
          </Trackpoint>
          <Trackpoint>
            <Time>2019-08-01T13:32:01.000Z</Time>
            <Position>
              <LatitudeDegrees>40.734641589224338531494140625</LatitudeDegrees>
              <LongitudeDegrees>-4.01738273911178112030029296875</LongitudeDegrees>
            </Position>
            <AltitudeMeters>1222</AltitudeMeters>
            <DistanceMeters>66243.247784445</DistanceMeters>
          </Trackpoint>
          <Trackpoint>
            <Time>2019-08-01T13:32:06.000Z</Time>
            <Position>
              <LatitudeDegrees>40.73464318178594112396240234375</LatitudeDegrees>
              <LongitudeDegrees>-4.01746840216219425201416015625</LongitudeDegrees>
            </Position>
            <AltitudeMeters>1220.5999755859375</AltitudeMeters>
            <DistanceMeters>66250.474814412</DistanceMeters>
          </Trackpoint>
          <Trackpoint>
            <Time>2019-08-01T13:32:12.000Z</Time>
            <Position>
              <LatitudeDegrees>40.73465005494654178619384765625</LatitudeDegrees>
              <LongitudeDegrees>-4.0175694040954113006591796875</LongitudeDegrees>
            </Position>
            <AltitudeMeters>1219.199951171875</AltitudeMeters>
            <DistanceMeters>66259.027746616</DistanceMeters>
          </Trackpoint>
          <Trackpoint>
            <Time>2019-08-01T13:32:16.000Z</Time>
            <Position>
              <LatitudeDegrees>40.7346501387655735015869140625</LatitudeDegrees>
              <LongitudeDegrees>-4.01763872243463993072509765625</LongitudeDegrees>
            </Position>
            <AltitudeMeters>1217.800048828125</AltitudeMeters>
            <DistanceMeters>66264.874013744</DistanceMeters>
          </Trackpoint>
          <Trackpoint>
            <Time>2019-08-01T13:32:19.000Z</Time>
            <Position>
              <LatitudeDegrees>40.7346531562507152557373046875</LatitudeDegrees>
              <LongitudeDegrees>-4.01769454590976238250732421875</LongitudeDegrees>
            </Position>
            <AltitudeMeters>1216.5999755859375</AltitudeMeters>
            <DistanceMeters>66269.594842979</DistanceMeters>
          </Trackpoint>
          <Trackpoint>
            <Time>2019-08-01T13:32:22.000Z</Time>
            <Position>
              <LatitudeDegrees>40.73465072549879550933837890625</LatitudeDegrees>
              <LongitudeDegrees>-4.01775103993713855743408203125</LongitudeDegrees>
            </Position>
            <AltitudeMeters>1215.4000244140625</AltitudeMeters>
            <DistanceMeters>66274.367038783</DistanceMeters>
          </Trackpoint>
          <Trackpoint>
            <Time>2019-08-01T13:32:23.000Z</Time>
            <Position>
              <LatitudeDegrees>40.73465072549879550933837890625</LatitudeDegrees>
              <LongitudeDegrees>-4.0177685581147670745849609375</LongitudeDegrees>
            </Position>
            <AltitudeMeters>1215</AltitudeMeters>
            <DistanceMeters>66275.845307534</DistanceMeters>
          </Trackpoint>
          <Trackpoint>
            <Time>2019-08-01T13:32:26.000Z</Time>
            <Position>
              <LatitudeDegrees>40.73464804328978061676025390625</LatitudeDegrees>
              <LongitudeDegrees>-4.0178228728473186492919921875</LongitudeDegrees>
            </Position>
            <AltitudeMeters>1214</AltitudeMeters>
            <DistanceMeters>66280.43618963</DistanceMeters>
          </Trackpoint>
          <Trackpoint>
            <Time>2019-08-01T13:32:41.000Z</Time>
            <Position>
              <LatitudeDegrees>40.7346424274146556854248046875</LatitudeDegrees>
              <LongitudeDegrees>-4.0180709771811962127685546875</LongitudeDegrees>
            </Position>
            <AltitudeMeters>1212.199951171875</AltitudeMeters>
            <DistanceMeters>66301.370124039</DistanceMeters>
          </Trackpoint>
          <Trackpoint>
            <Time>2019-08-01T13:32:58.000Z</Time>
            <Position>
              <LatitudeDegrees>40.7346360571682453155517578125</LatitudeDegrees>
              <LongitudeDegrees>-4.0183596499264240264892578125</LongitudeDegrees>
            </Position>
            <AltitudeMeters>1212.199951171875</AltitudeMeters>
            <DistanceMeters>66325.726640663</DistanceMeters>
          </Trackpoint>
          <Trackpoint>
            <Time>2019-08-01T13:33:03.000Z</Time>
            <Position>
              <LatitudeDegrees>40.7346347160637378692626953125</LatitudeDegrees>
              <LongitudeDegrees>-4.01844874955713748931884765625</LongitudeDegrees>
            </Position>
            <AltitudeMeters>1213.199951171875</AltitudeMeters>
            <DistanceMeters>66333.242767207</DistanceMeters>
          </Trackpoint>
          <Trackpoint>
            <Time>2019-08-01T13:33:07.000Z</Time>
            <Position>
              <LatitudeDegrees>40.73463387787342071533203125</LatitudeDegrees>
              <LongitudeDegrees>-4.0185182355344295501708984375</LongitudeDegrees>
            </Position>
            <AltitudeMeters>1214.199951171875</AltitudeMeters>
            <DistanceMeters>66339.103689557</DistanceMeters>
          </Trackpoint>
          <Trackpoint>
            <Time>2019-08-01T13:33:11.000Z</Time>
            <Position>
              <LatitudeDegrees>40.73463178239762783050537109375</LatitudeDegrees>
              <LongitudeDegrees>-4.01858554221689701080322265625</LongitudeDegrees>
            </Position>
            <AltitudeMeters>1215.4000244140625</AltitudeMeters>
            <DistanceMeters>66344.784665988</DistanceMeters>
          </Trackpoint>
          <Trackpoint>
            <Time>2019-08-01T13:33:14.000Z</Time>
            <Position>
              <LatitudeDegrees>40.7346249930560588836669921875</LatitudeDegrees>
              <LongitudeDegrees>-4.01863566599786281585693359375</LongitudeDegrees>
            </Position>
            <AltitudeMeters>1216.5999755859375</AltitudeMeters>
            <DistanceMeters>66349.078780111</DistanceMeters>
          </Trackpoint>
          <Trackpoint>
            <Time>2019-08-01T13:33:17.000Z</Time>
            <Position>
              <LatitudeDegrees>40.7346216402947902679443359375</LatitudeDegrees>
              <LongitudeDegrees>-4.0186862088739871978759765625</LongitudeDegrees>
            </Position>
            <AltitudeMeters>1217.800048828125</AltitudeMeters>
            <DistanceMeters>66353.35603798</DistanceMeters>
          </Trackpoint>
          <Trackpoint>
            <Time>2019-08-01T13:33:20.000Z</Time>
            <Position>
              <LatitudeDegrees>40.73462591506540775299072265625</LatitudeDegrees>
              <LongitudeDegrees>-4.0187385119497776031494140625</LongitudeDegrees>
            </Position>
            <AltitudeMeters>1219.199951171875</AltitudeMeters>
            <DistanceMeters>66357.792879948</DistanceMeters>
          </Trackpoint>
          <Trackpoint>
            <Time>2019-08-01T13:33:22.000Z</Time>
            <Position>
              <LatitudeDegrees>40.73462457396090030670166015625</LatitudeDegrees>
              <LongitudeDegrees>-4.0187733806669712066650390625</LongitudeDegrees>
            </Position>
            <AltitudeMeters>1220.199951171875</AltitudeMeters>
            <DistanceMeters>66360.737175005</DistanceMeters>
          </Trackpoint>
          <Trackpoint>
            <Time>2019-08-01T13:33:23.000Z</Time>
            <Position>
              <LatitudeDegrees>40.73462289758026599884033203125</LatitudeDegrees>
              <LongitudeDegrees>-4.0187908150255680084228515625</LongitudeDegrees>
            </Position>
            <AltitudeMeters>1220.800048828125</AltitudeMeters>
            <DistanceMeters>66362.215443756</DistanceMeters>
          </Trackpoint>
          <Trackpoint>
            <Time>2019-08-01T13:33:24.000Z</Time>
            <Position>
              <LatitudeDegrees>40.73462105356156826019287109375</LatitudeDegrees>
              <LongitudeDegrees>-4.0188065730035305023193359375</LongitudeDegrees>
            </Position>
            <AltitudeMeters>1221</AltitudeMeters>
            <DistanceMeters>66363.559324439</DistanceMeters>
          </Trackpoint>
          <Trackpoint>
            <Time>2019-08-01T13:33:27.000Z</Time>
            <Position>
              <LatitudeDegrees>40.73462138883769512176513671875</LatitudeDegrees>
              <LongitudeDegrees>-4.0188558585941791534423828125</LongitudeDegrees>
            </Position>
            <AltitudeMeters>1222.199951171875</AltitudeMeters>
            <DistanceMeters>66367.715589136</DistanceMeters>
          </Trackpoint>
          <Trackpoint>
            <Time>2019-08-01T13:33:30.000Z</Time>
            <Position>
              <LatitudeDegrees>40.73462046682834625244140625</LatitudeDegrees>
              <LongitudeDegrees>-4.01890539564192295074462890625</LongitudeDegrees>
            </Position>
            <AltitudeMeters>1223.199951171875</AltitudeMeters>
            <DistanceMeters>66371.894604312</DistanceMeters>
          </Trackpoint>
          <Trackpoint>
            <Time>2019-08-01T13:33:32.000Z</Time>
            <Position>
              <LatitudeDegrees>40.734620131552219390869140625</LatitudeDegrees>
              <LongitudeDegrees>-4.01893942616879940032958984375</LongitudeDegrees>
            </Position>
            <AltitudeMeters>1224.4000244140625</AltitudeMeters>
            <DistanceMeters>66374.764348154</DistanceMeters>
          </Trackpoint>
          <Trackpoint>
            <Time>2019-08-01T13:33:34.000Z</Time>
            <Position>
              <LatitudeDegrees>40.734619460999965667724609375</LatitudeDegrees>
              <LongitudeDegrees>-4.0189723670482635498046875</LongitudeDegrees>
            </Position>
            <AltitudeMeters>1225.4000244140625</AltitudeMeters>
            <DistanceMeters>66377.542965681</DistanceMeters>
          </Trackpoint>
          <Trackpoint>
            <Time>2019-08-01T13:33:37.000Z</Time>
            <Position>
              <LatitudeDegrees>40.7346157729625701904296875</LatitudeDegrees>
              <LongitudeDegrees>-4.0190245024859905242919921875</LongitudeDegrees>
            </Position>
            <AltitudeMeters>1226.5999755859375</AltitudeMeters>
            <DistanceMeters>66381.958385824</DistanceMeters>
          </Trackpoint>
          <Trackpoint>
            <Time>2019-08-01T13:33:39.000Z</Time>
            <Position>
              <LatitudeDegrees>40.73461418040096759796142578125</LatitudeDegrees>
              <LongitudeDegrees>-4.01906163431704044342041015625</LongitudeDegrees>
            </Position>
            <AltitudeMeters>1227.5999755859375</AltitudeMeters>
            <DistanceMeters>66385.095706867</DistanceMeters>
          </Trackpoint>
          <Trackpoint>
            <Time>2019-08-01T13:33:41.000Z</Time>
            <Position>
              <LatitudeDegrees>40.7346139289438724517822265625</LatitudeDegrees>
              <LongitudeDegrees>-4.019099771976470947265625</LongitudeDegrees>
            </Position>
            <AltitudeMeters>1228.5999755859375</AltitudeMeters>
            <DistanceMeters>66388.311206443</DistanceMeters>
          </Trackpoint>
          <Trackpoint>
            <Time>2019-08-01T13:33:44.000Z</Time>
            <Position>
              <LatitudeDegrees>40.73461334221065044403076171875</LatitudeDegrees>
              <LongitudeDegrees>-4.0191552601754665374755859375</LongitudeDegrees>
            </Position>
            <AltitudeMeters>1229.5999755859375</AltitudeMeters>
            <DistanceMeters>66392.99169418</DistanceMeters>
          </Trackpoint>
          <Trackpoint>
            <Time>2019-08-01T13:33:47.000Z</Time>
            <Position>
              <LatitudeDegrees>40.73461166583001613616943359375</LatitudeDegrees>
              <LongitudeDegrees>-4.01921485550701618194580078125</LongitudeDegrees>
            </Position>
            <AltitudeMeters>1231</AltitudeMeters>
            <DistanceMeters>66398.020933101</DistanceMeters>
          </Trackpoint>
          <Trackpoint>
            <Time>2019-08-01T13:33:49.000Z</Time>
            <Position>
              <LatitudeDegrees>40.73460848070681095123291015625</LatitudeDegrees>
              <LongitudeDegrees>-4.01925508864223957061767578125</LongitudeDegrees>
            </Position>
            <AltitudeMeters>1232.4000244140625</AltitudeMeters>
            <DistanceMeters>66401.433966738</DistanceMeters>
          </Trackpoint>
          <Trackpoint>
            <Time>2019-08-01T13:33:51.000Z</Time>
            <Position>
              <LatitudeDegrees>40.73460630141198635101318359375</LatitudeDegrees>
              <LongitudeDegrees>-4.01929632760584354400634765625</LongitudeDegrees>
            </Position>
            <AltitudeMeters>1233.800048828125</AltitudeMeters>
            <DistanceMeters>66404.921589563</DistanceMeters>
          </Trackpoint>
          <Trackpoint>
            <Time>2019-08-01T13:33:52.000Z</Time>
            <Position>
              <LatitudeDegrees>40.73460211046040058135986328125</LatitudeDegrees>
              <LongitudeDegrees>-4.01931845583021640777587890625</LongitudeDegrees>
            </Position>
            <AltitudeMeters>1234.5999755859375</AltitudeMeters>
            <DistanceMeters>66406.845733878</DistanceMeters>
          </Trackpoint>
          <Trackpoint>
            <Time>2019-08-01T13:33:53.000Z</Time>
            <Position>
              <LatitudeDegrees>40.73459523729979991912841796875</LatitudeDegrees>
              <LongitudeDegrees>-4.01934293098747730255126953125</LongitudeDegrees>
            </Position>
            <AltitudeMeters>1235.199951171875</AltitudeMeters>
            <DistanceMeters>66409.04781268</DistanceMeters>
          </Trackpoint>
          <Trackpoint>
            <Time>2019-08-01T13:33:55.000Z</Time>
            <Position>
              <LatitudeDegrees>40.73457897640764713287353515625</LatitudeDegrees>
              <LongitudeDegrees>-4.01939020492136478424072265625</LongitudeDegrees>
            </Position>
            <AltitudeMeters>1236.199951171875</AltitudeMeters>
            <DistanceMeters>66413.426265864</DistanceMeters>
          </Trackpoint>
          <Trackpoint>
            <Time>2019-08-01T13:33:57.000Z</Time>
            <Position>
              <LatitudeDegrees>40.73456346988677978515625</LatitudeDegrees>
              <LongitudeDegrees>-4.01943060569465160369873046875</LongitudeDegrees>
            </Position>
            <AltitudeMeters>1237.4000244140625</AltitudeMeters>
            <DistanceMeters>66417.246292505</DistanceMeters>
          </Trackpoint>
          <Trackpoint>
            <Time>2019-08-01T13:33:59.000Z</Time>
            <Position>
              <LatitudeDegrees>40.7345549203455448150634765625</LatitudeDegrees>
              <LongitudeDegrees>-4.01946983300149440765380859375</LongitudeDegrees>
            </Position>
            <AltitudeMeters>1238.4000244140625</AltitudeMeters>
            <DistanceMeters>66420.688306493</DistanceMeters>
          </Trackpoint>
          <Trackpoint>
            <Time>2019-08-01T13:34:01.000Z</Time>
            <Position>
              <LatitudeDegrees>40.73454796336591243743896484375</LatitudeDegrees>
              <LongitudeDegrees>-4.01950654573738574981689453125</LongitudeDegrees>
            </Position>
            <AltitudeMeters>1239.5999755859375</AltitudeMeters>
            <DistanceMeters>66423.879846283</DistanceMeters>
          </Trackpoint>
          <Trackpoint>
            <Time>2019-08-01T13:34:03.000Z</Time>
            <Position>
              <LatitudeDegrees>40.73454360477626323699951171875</LatitudeDegrees>
              <LongitudeDegrees>-4.01954040862619876861572265625</LongitudeDegrees>
            </Position>
            <AltitudeMeters>1240.5999755859375</AltitudeMeters>
            <DistanceMeters>66426.774653865</DistanceMeters>
          </Trackpoint>
          <Trackpoint>
            <Time>2019-08-01T13:34:05.000Z</Time>
            <Position>
              <LatitudeDegrees>40.7345411740243434906005859375</LatitudeDegrees>
              <LongitudeDegrees>-4.0195696614682674407958984375</LongitudeDegrees>
            </Position>
            <AltitudeMeters>1241.5999755859375</AltitudeMeters>
            <DistanceMeters>66429.256288837</DistanceMeters>
          </Trackpoint>
          <Trackpoint>
            <Time>2019-08-01T13:34:07.000Z</Time>
            <Position>
              <LatitudeDegrees>40.734536647796630859375</LatitudeDegrees>
              <LongitudeDegrees>-4.01960159651935100555419921875</LongitudeDegrees>
            </Position>
            <AltitudeMeters>1242.5999755859375</AltitudeMeters>
            <DistanceMeters>66431.997278367</DistanceMeters>
          </Trackpoint>
          <Trackpoint>
            <Time>2019-08-01T13:34:09.000Z</Time>
            <Position>
              <LatitudeDegrees>40.73453463613986968994140625</LatitudeDegrees>
              <LongitudeDegrees>-4.0196336992084980010986328125</LongitudeDegrees>
            </Position>
            <AltitudeMeters>1243.800048828125</AltitudeMeters>
            <DistanceMeters>66434.713447076</DistanceMeters>
          </Trackpoint>
          <Trackpoint>
            <Time>2019-08-01T13:34:12.000Z</Time>
            <Position>
              <LatitudeDegrees>40.734532959759235382080078125</LatitudeDegrees>
              <LongitudeDegrees>-4.01968608610332012176513671875</LongitudeDegrees>
            </Position>
            <AltitudeMeters>1245.199951171875</AltitudeMeters>
            <DistanceMeters>66439.136019356</DistanceMeters>
          </Trackpoint>
          <Trackpoint>
            <Time>2019-08-01T13:34:14.000Z</Time>
            <Position>
              <LatitudeDegrees>40.734532959759235382080078125</LatitudeDegrees>
              <LongitudeDegrees>-4.0197205357253551483154296875</LongitudeDegrees>
            </Position>
            <AltitudeMeters>1246.199951171875</AltitudeMeters>
            <DistanceMeters>66442.043277782</DistanceMeters>
          </Trackpoint>
          <Trackpoint>
            <Time>2019-08-01T13:34:16.000Z</Time>
            <Position>
              <LatitudeDegrees>40.7345337979495525360107421875</LatitudeDegrees>
              <LongitudeDegrees>-4.01975783519446849822998046875</LongitudeDegrees>
            </Position>
            <AltitudeMeters>1247.5999755859375</AltitudeMeters>
            <DistanceMeters>66445.189221803</DistanceMeters>
          </Trackpoint>
          <Trackpoint>
            <Time>2019-08-01T13:34:19.000Z</Time>
            <Position>
              <LatitudeDegrees>40.73453187011182308197021484375</LatitudeDegrees>
              <LongitudeDegrees>-4.0198140777647495269775390625</LongitudeDegrees>
            </Position>
            <AltitudeMeters>1249</AltitudeMeters>
            <DistanceMeters>66449.937705864</DistanceMeters>
          </Trackpoint>
          <Trackpoint>
            <Time>2019-08-01T13:34:21.000Z</Time>
            <Position>
              <LatitudeDegrees>40.73452784679830074310302734375</LatitudeDegrees>
              <LongitudeDegrees>-4.01985221542418003082275390625</LongitudeDegrees>
            </Position>
            <AltitudeMeters>1250</AltitudeMeters>
            <DistanceMeters>66453.185340278</DistanceMeters>
          </Trackpoint>
          <Trackpoint>
            <Time>2019-08-01T13:34:23.000Z</Time>
            <Position>
              <LatitudeDegrees>40.7345234043896198272705078125</LatitudeDegrees>
              <LongitudeDegrees>-4.019891358911991119384765625</LongitudeDegrees>
            </Position>
            <AltitudeMeters>1251.5999755859375</AltitudeMeters>
            <DistanceMeters>66456.524822934</DistanceMeters>
          </Trackpoint>
          <Trackpoint>
            <Time>2019-08-01T13:34:25.000Z</Time>
            <Position>
              <LatitudeDegrees>40.73451879434287548065185546875</LatitudeDegrees>
              <LongitudeDegrees>-4.0199294127523899078369140625</LongitudeDegrees>
            </Position>
            <AltitudeMeters>1253</AltitudeMeters>
            <DistanceMeters>66459.775236667</DistanceMeters>
          </Trackpoint>
          <Trackpoint>
            <Time>2019-08-01T13:34:27.000Z</Time>
            <Position>
              <LatitudeDegrees>40.734515525400638580322265625</LatitudeDegrees>
              <LongitudeDegrees>-4.0199666284024715423583984375</LongitudeDegrees>
            </Position>
            <AltitudeMeters>1254.4000244140625</AltitudeMeters>
            <DistanceMeters>66462.935500034</DistanceMeters>
          </Trackpoint>
          <Trackpoint>
            <Time>2019-08-01T13:34:29.000Z</Time>
            <Position>
              <LatitudeDegrees>40.73451091535389423370361328125</LatitudeDegrees>
              <LongitudeDegrees>-4.02000292204320430755615234375</LongitudeDegrees>
            </Position>
            <AltitudeMeters>1255.4000244140625</AltitudeMeters>
            <DistanceMeters>66466.039544422</DistanceMeters>
          </Trackpoint>
          <Trackpoint>
            <Time>2019-08-01T13:34:31.000Z</Time>
            <Position>
              <LatitudeDegrees>40.73450647294521331787109375</LatitudeDegrees>
              <LongitudeDegrees>-4.02004064060747623443603515625</LongitudeDegrees>
            </Position>
            <AltitudeMeters>1256.800048828125</AltitudeMeters>
            <DistanceMeters>66469.260655696</DistanceMeters>
          </Trackpoint>
          <Trackpoint>
            <Time>2019-08-01T13:34:33.000Z</Time>
            <Position>
              <LatitudeDegrees>40.7345004379749298095703125</LatitudeDegrees>
              <LongitudeDegrees>-4.02007902972400188446044921875</LongitudeDegrees>
            </Position>
            <AltitudeMeters>1258</AltitudeMeters>
            <DistanceMeters>66472.567530742</DistanceMeters>
          </Trackpoint>
          <Trackpoint>
            <Time>2019-08-01T13:34:35.000Z</Time>
            <Position>
              <LatitudeDegrees>40.7344942353665828704833984375</LatitudeDegrees>
              <LongitudeDegrees>-4.02011557482182979583740234375</LongitudeDegrees>
            </Position>
            <AltitudeMeters>1259.199951171875</AltitudeMeters>
            <DistanceMeters>66475.726365095</DistanceMeters>
          </Trackpoint>
          <Trackpoint>
            <Time>2019-08-01T13:34:37.000Z</Time>
            <Position>
              <LatitudeDegrees>40.734490044414997100830078125</LatitudeDegrees>
              <LongitudeDegrees>-4.02015178464353084564208984375</LongitudeDegrees>
            </Position>
            <AltitudeMeters>1260</AltitudeMeters>
            <DistanceMeters>66478.817290665</DistanceMeters>
          </Trackpoint>
          <Trackpoint>
            <Time>2019-08-01T13:34:39.000Z</Time>
            <Position>
              <LatitudeDegrees>40.734481997787952423095703125</LatitudeDegrees>
              <LongitudeDegrees>-4.02018598280847072601318359375</LongitudeDegrees>
            </Position>
            <AltitudeMeters>1261.199951171875</AltitudeMeters>
            <DistanceMeters>66481.837286892</DistanceMeters>
          </Trackpoint>
          <Trackpoint>
            <Time>2019-08-01T13:34:42.000Z</Time>
            <Position>
              <LatitudeDegrees>40.73447353206574916839599609375</LatitudeDegrees>
              <LongitudeDegrees>-4.020239375531673431396484375</LongitudeDegrees>
            </Position>
            <AltitudeMeters>1262.5999755859375</AltitudeMeters>
            <DistanceMeters>66486.43799327</DistanceMeters>
          </Trackpoint>
          <Trackpoint>
            <Time>2019-08-01T13:34:44.000Z</Time>
            <Position>
              <LatitudeDegrees>40.73446984402835369110107421875</LatitudeDegrees>
              <LongitudeDegrees>-4.02027550153434276580810546875</LongitudeDegrees>
            </Position>
            <AltitudeMeters>1263.800048828125</AltitudeMeters>
            <DistanceMeters>66489.512808718</DistanceMeters>
          </Trackpoint>
          <Trackpoint>
            <Time>2019-08-01T13:34:46.000Z</Time>
            <Position>
              <LatitudeDegrees>40.7344647310674190521240234375</LatitudeDegrees>
              <LongitudeDegrees>-4.020310454070568084716796875</LongitudeDegrees>
            </Position>
            <AltitudeMeters>1264.800048828125</AltitudeMeters>
            <DistanceMeters>66492.514810765</DistanceMeters>
          </Trackpoint>
          <Trackpoint>
            <Time>2019-08-01T13:34:49.000Z</Time>
            <Position>
              <LatitudeDegrees>40.73445676825940608978271484375</LatitudeDegrees>
              <LongitudeDegrees>-4.0203630924224853515625</LongitudeDegrees>
            </Position>
            <AltitudeMeters>1266</AltitudeMeters>
            <DistanceMeters>66497.042312673</DistanceMeters>
          </Trackpoint>
          <Trackpoint>
            <Time>2019-08-01T13:34:51.000Z</Time>
            <Position>
              <LatitudeDegrees>40.7344509847462177276611328125</LatitudeDegrees>
              <LongitudeDegrees>-4.02039804495871067047119140625</LongitudeDegrees>
            </Position>
            <AltitudeMeters>1267.199951171875</AltitudeMeters>
            <DistanceMeters>66500.057820421</DistanceMeters>
          </Trackpoint>
          <Trackpoint>
            <Time>2019-08-01T13:34:53.000Z</Time>
            <Position>
              <LatitudeDegrees>40.73444469831883907318115234375</LatitudeDegrees>
              <LongitudeDegrees>-4.02043282985687255859375</LongitudeDegrees>
            </Position>
            <AltitudeMeters>1268.199951171875</AltitudeMeters>
            <DistanceMeters>66503.074825071</DistanceMeters>
          </Trackpoint>
          <Trackpoint>
            <Time>2019-08-01T13:34:55.000Z</Time>
            <Position>
              <LatitudeDegrees>40.73443614877760410308837890625</LatitudeDegrees>
              <LongitudeDegrees>-4.0204661898314952850341796875</LongitudeDegrees>
            </Position>
            <AltitudeMeters>1269.199951171875</AltitudeMeters>
            <DistanceMeters>66506.045075008</DistanceMeters>
          </Trackpoint>
          <Trackpoint>
            <Time>2019-08-01T13:34:57.000Z</Time>
            <Position>
              <LatitudeDegrees>40.73442910797894001007080078125</LatitudeDegrees>
              <LongitudeDegrees>-4.02050047181546688079833984375</LongitudeDegrees>
            </Position>
            <AltitudeMeters>1270.199951171875</AltitudeMeters>
            <DistanceMeters>66509.041054978</DistanceMeters>
          </Trackpoint>
          <Trackpoint>
            <Time>2019-08-01T13:35:00.000Z</Time>
            <Position>
              <LatitudeDegrees>40.73441871441900730133056640625</LatitudeDegrees>
              <LongitudeDegrees>-4.02055243961513042449951171875</LongitudeDegrees>
            </Position>
            <AltitudeMeters>1271.800048828125</AltitudeMeters>
            <DistanceMeters>66513.573540379</DistanceMeters>
          </Trackpoint>
          <Trackpoint>
            <Time>2019-08-01T13:35:04.000Z</Time>
            <Position>
              <LatitudeDegrees>40.7344043813645839691162109375</LatitudeDegrees>
              <LongitudeDegrees>-4.02062620036303997039794921875</LongitudeDegrees>
            </Position>
            <AltitudeMeters>1273</AltitudeMeters>
            <DistanceMeters>66519.996109117</DistanceMeters>
          </Trackpoint>
          <Trackpoint>
            <Time>2019-08-01T13:35:07.000Z</Time>
            <Position>
              <LatitudeDegrees>40.7343929819762706756591796875</LatitudeDegrees>
              <LongitudeDegrees>-4.02068085037171840667724609375</LongitudeDegrees>
            </Position>
            <AltitudeMeters>1274</AltitudeMeters>
            <DistanceMeters>66524.775867836</DistanceMeters>
          </Trackpoint>
          <Trackpoint>
            <Time>2019-08-01T13:35:10.000Z</Time>
            <Position>
              <LatitudeDegrees>40.7343835942447185516357421875</LatitudeDegrees>
              <LongitudeDegrees>-4.020732901990413665771484375</LongitudeDegrees>
            </Position>
            <AltitudeMeters>1275</AltitudeMeters>
            <DistanceMeters>66529.287385574</DistanceMeters>
          </Trackpoint>
          <Trackpoint>
            <Time>2019-08-01T13:35:13.000Z</Time>
            <Position>
              <LatitudeDegrees>40.734372027218341827392578125</LatitudeDegrees>
              <LongitudeDegrees>-4.020785875618457794189453125</LongitudeDegrees>
            </Position>
            <AltitudeMeters>1276.199951171875</AltitudeMeters>
            <DistanceMeters>66533.936902001</DistanceMeters>
          </Trackpoint>
          <Trackpoint>
            <Time>2019-08-01T13:35:17.000Z</Time>
            <Position>
              <LatitudeDegrees>40.73435970582067966461181640625</LatitudeDegrees>
              <LongitudeDegrees>-4.02085703797638416290283203125</LongitudeDegrees>
            </Position>
            <AltitudeMeters>1277.4000244140625</AltitudeMeters>
            <DistanceMeters>66540.09313712</DistanceMeters>
          </Trackpoint>
          <Trackpoint>
            <Time>2019-08-01T13:35:20.000Z</Time>
            <Position>
              <LatitudeDegrees>40.73435031808912754058837890625</LatitudeDegrees>
              <LongitudeDegrees>-4.02091093361377716064453125</LongitudeDegrees>
            </Position>
            <AltitudeMeters>1278.4000244140625</AltitudeMeters>
            <DistanceMeters>66544.756228806</DistanceMeters>
          </Trackpoint>
          <Trackpoint>
            <Time>2019-08-01T13:35:23.000Z</Time>
            <Position>
              <LatitudeDegrees>40.734340511262416839599609375</LatitudeDegrees>
              <LongitudeDegrees>-4.0209623984992504119873046875</LongitudeDegrees>
            </Position>
            <AltitudeMeters>1279.800048828125</AltitudeMeters>
            <DistanceMeters>66549.232582192</DistanceMeters>
          </Trackpoint>
          <Trackpoint>
            <Time>2019-08-01T13:35:25.000Z</Time>
            <Position>
              <LatitudeDegrees>40.7343341410160064697265625</LatitudeDegrees>
              <LongitudeDegrees>-4.02099651284515857696533203125</LongitudeDegrees>
            </Position>
            <AltitudeMeters>1280.800048828125</AltitudeMeters>
            <DistanceMeters>66552.196745544</DistanceMeters>
          </Trackpoint>
          <Trackpoint>
            <Time>2019-08-01T13:35:27.000Z</Time>
            <Position>
              <LatitudeDegrees>40.73432617820799350738525390625</LatitudeDegrees>
              <LongitudeDegrees>-4.02102886699140071868896484375</LongitudeDegrees>
            </Position>
            <AltitudeMeters>1282.199951171875</AltitudeMeters>
            <DistanceMeters>66555.066489386</DistanceMeters>
          </Trackpoint>
          <Trackpoint>
            <Time>2019-08-01T13:35:30.000Z</Time>
            <Position>
              <LatitudeDegrees>40.734313689172267913818359375</LatitudeDegrees>
              <LongitudeDegrees>-4.02107865549623966217041015625</LongitudeDegrees>
            </Position>
            <AltitudeMeters>1283.199951171875</AltitudeMeters>
            <DistanceMeters>66559.489061666</DistanceMeters>
          </Trackpoint>
          <Trackpoint>
            <Time>2019-08-01T13:35:33.000Z</Time>
            <Position>
              <LatitudeDegrees>40.734309665858745574951171875</LatitudeDegrees>
              <LongitudeDegrees>-4.0211261808872222900390625</LongitudeDegrees>
            </Position>
            <AltitudeMeters>1284.5999755859375</AltitudeMeters>
            <DistanceMeters>66563.521823459</DistanceMeters>
          </Trackpoint>
          <Trackpoint>
            <Time>2019-08-01T13:35:36.000Z</Time>
            <Position>
              <LatitudeDegrees>40.7342980988323688507080078125</LatitudeDegrees>
              <LongitudeDegrees>-4.0211739577353000640869140625</LongitudeDegrees>
            </Position>
            <AltitudeMeters>1285.800048828125</AltitudeMeters>
            <DistanceMeters>66567.751312959</DistanceMeters>
          </Trackpoint>
          <Trackpoint>
            <Time>2019-08-01T13:35:39.000Z</Time>
            <Position>
              <LatitudeDegrees>40.73428477160632610321044921875</LatitudeDegrees>
              <LongitudeDegrees>-4.0212255902588367462158203125</LongitudeDegrees>
            </Position>
            <AltitudeMeters>1287.199951171875</AltitudeMeters>
            <DistanceMeters>66572.351037854</DistanceMeters>
          </Trackpoint>
          <Trackpoint>
            <Time>2019-08-01T13:35:42.000Z</Time>
            <Position>
              <LatitudeDegrees>40.73427370749413967132568359375</LatitudeDegrees>
              <LongitudeDegrees>-4.02128183282911777496337890625</LongitudeDegrees>
            </Position>
            <AltitudeMeters>1288.4000244140625</AltitudeMeters>
            <DistanceMeters>66577.252058497</DistanceMeters>
          </Trackpoint>
          <Trackpoint>
            <Time>2019-08-01T13:35:45.000Z</Time>
            <Position>
              <LatitudeDegrees>40.73425979353487491607666015625</LatitudeDegrees>
              <LongitudeDegrees>-4.021339751780033111572265625</LongitudeDegrees>
            </Position>
            <AltitudeMeters>1289.4000244140625</AltitudeMeters>
            <DistanceMeters>66582.374694747</DistanceMeters>
          </Trackpoint>
          <Trackpoint>
            <Time>2019-08-01T13:35:48.000Z</Time>
            <Position>
              <LatitudeDegrees>40.73424805887043476104736328125</LatitudeDegrees>
              <LongitudeDegrees>-4.02140269987285137176513671875</LongitudeDegrees>
            </Position>
            <AltitudeMeters>1290.800048828125</AltitudeMeters>
            <DistanceMeters>66587.841828642</DistanceMeters>
          </Trackpoint>
          <Trackpoint>
            <Time>2019-08-01T13:35:51.000Z</Time>
            <Position>
              <LatitudeDegrees>40.734236240386962890625</LatitudeDegrees>
              <LongitudeDegrees>-4.02146522887051105499267578125</LongitudeDegrees>
            </Position>
            <AltitudeMeters>1291.800048828125</AltitudeMeters>
            <DistanceMeters>66593.276658911</DistanceMeters>
          </Trackpoint>
          <Trackpoint>
            <Time>2019-08-01T13:35:54.000Z</Time>
            <Position>
              <LatitudeDegrees>40.7342196442186832427978515625</LatitudeDegrees>
              <LongitudeDegrees>-4.02152239345014095306396484375</LongitudeDegrees>
            </Position>
            <AltitudeMeters>1293</AltitudeMeters>
            <DistanceMeters>66598.439679893</DistanceMeters>
          </Trackpoint>
          <Trackpoint>
            <Time>2019-08-01T13:35:58.000Z</Time>
            <Position>
              <LatitudeDegrees>40.7342042215168476104736328125</LatitudeDegrees>
              <LongitudeDegrees>-4.021601267158985137939453125</LongitudeDegrees>
            </Position>
            <AltitudeMeters>1294.199951171875</AltitudeMeters>
            <DistanceMeters>66605.30992076</DistanceMeters>
          </Trackpoint>
          <Trackpoint>
            <Time>2019-08-01T13:36:01.000Z</Time>
            <Position>
              <LatitudeDegrees>40.7341931574046611785888671875</LatitudeDegrees>
              <LongitudeDegrees>-4.021660946309566497802734375</LongitudeDegrees>
            </Position>
            <AltitudeMeters>1295.199951171875</AltitudeMeters>
            <DistanceMeters>66610.49214493</DistanceMeters>
          </Trackpoint>
          <Trackpoint>
            <Time>2019-08-01T13:36:04.000Z</Time>
            <Position>
              <LatitudeDegrees>40.73418066836893558502197265625</LatitudeDegrees>
              <LongitudeDegrees>-4.02171903289854526519775390625</LongitudeDegrees>
            </Position>
            <AltitudeMeters>1296.4000244140625</AltitudeMeters>
            <DistanceMeters>66615.584725763</DistanceMeters>
          </Trackpoint>
          <Trackpoint>
            <Time>2019-08-01T13:36:08.000Z</Time>
            <Position>
              <LatitudeDegrees>40.7341549359261989593505859375</LatitudeDegrees>
              <LongitudeDegrees>-4.02181022800505161285400390625</LongitudeDegrees>
            </Position>
            <AltitudeMeters>1297.5999755859375</AltitudeMeters>
            <DistanceMeters>66623.791755689</DistanceMeters>
          </Trackpoint>
          <Trackpoint>
            <Time>2019-08-01T13:36:12.000Z</Time>
            <Position>
              <LatitudeDegrees>40.7341167144477367401123046875</LatitudeDegrees>
              <LongitudeDegrees>-4.02191164903342723846435546875</LongitudeDegrees>
            </Position>
            <AltitudeMeters>1299</AltitudeMeters>
            <DistanceMeters>66633.344658522</DistanceMeters>
          </Trackpoint>
          <Trackpoint>
            <Time>2019-08-01T13:36:16.000Z</Time>
            <Position>
              <LatitudeDegrees>40.73406868614256381988525390625</LatitudeDegrees>
              <LongitudeDegrees>-4.02200837619602680206298828125</LongitudeDegrees>
            </Position>
            <AltitudeMeters>1300.199951171875</AltitudeMeters>
            <DistanceMeters>66643.097751634</DistanceMeters>
          </Trackpoint>
          <Trackpoint>
            <Time>2019-08-01T13:36:20.000Z</Time>
            <Position>
              <LatitudeDegrees>40.73400012217462062835693359375</LatitudeDegrees>
              <LongitudeDegrees>-4.02211700566112995147705078125</LongitudeDegrees>
            </Position>
            <AltitudeMeters>1301.4000244140625</AltitudeMeters>
            <DistanceMeters>66655.02123785</DistanceMeters>
          </Trackpoint>
          <Trackpoint>
            <Time>2019-08-01T13:36:24.000Z</Time>
            <Position>
              <LatitudeDegrees>40.733890235424041748046875</LatitudeDegrees>
              <LongitudeDegrees>-4.02223435230553150177001953125</LongitudeDegrees>
            </Position>
            <AltitudeMeters>1302.199951171875</AltitudeMeters>
            <DistanceMeters>66670.754689015</DistanceMeters>
          </Trackpoint>
          <Trackpoint>
            <Time>2019-08-01T13:36:28.000Z</Time>
            <Position>
              <LatitudeDegrees>40.733745396137237548828125</LatitudeDegrees>
              <LongitudeDegrees>-4.02240115217864513397216796875</LongitudeDegrees>
            </Position>
            <AltitudeMeters>1303.4000244140625</AltitudeMeters>
            <DistanceMeters>66692.150687599</DistanceMeters>
          </Trackpoint>
          <Trackpoint>
            <Time>2019-08-01T13:36:31.000Z</Time>
            <Position>
              <LatitudeDegrees>40.7336208410561084747314453125</LatitudeDegrees>
              <LongitudeDegrees>-4.02258069254457950592041015625</LongitudeDegrees>
            </Position>
            <AltitudeMeters>1304.4000244140625</AltitudeMeters>
            <DistanceMeters>66712.680856816</DistanceMeters>
          </Trackpoint>
          <Trackpoint>
            <Time>2019-08-01T13:36:34.000Z</Time>
            <Position>
              <LatitudeDegrees>40.733535848557949066162109375</LatitudeDegrees>
              <LongitudeDegrees>-4.0228535234928131103515625</LongitudeDegrees>
            </Position>
            <AltitudeMeters>1305.800048828125</AltitudeMeters>
            <DistanceMeters>66737.560077462</DistanceMeters>
          </Trackpoint>
          <Trackpoint>
            <Time>2019-08-01T13:36:35.000Z</Time>
            <Position>
              <LatitudeDegrees>40.73352185077965259552001953125</LatitudeDegrees>
              <LongitudeDegrees>-4.0229633264243602752685546875</LongitudeDegrees>
            </Position>
            <AltitudeMeters>1306.4000244140625</AltitudeMeters>
            <DistanceMeters>66746.95090951</DistanceMeters>
          </Trackpoint>
          <Trackpoint>
            <Time>2019-08-01T13:36:37.000Z</Time>
            <Position>
              <LatitudeDegrees>40.73349804617464542388916015625</LatitudeDegrees>
              <LongitudeDegrees>-4.02320145629346370697021484375</LongitudeDegrees>
            </Position>
            <AltitudeMeters>1307.199951171875</AltitudeMeters>
            <DistanceMeters>66767.208768579</DistanceMeters>
          </Trackpoint>
          <Trackpoint>
            <Time>2019-08-01T13:36:40.000Z</Time>
            <Position>
              <LatitudeDegrees>40.73345496319234371185302734375</LatitudeDegrees>
              <LongitudeDegrees>-4.023586772382259368896484375</LongitudeDegrees>
            </Position>
            <AltitudeMeters>1308.199951171875</AltitudeMeters>
            <DistanceMeters>66800.057924502</DistanceMeters>
          </Trackpoint>
          <Trackpoint>
            <Time>2019-08-01T13:36:43.000Z</Time>
            <Position>
              <LatitudeDegrees>40.7333739101886749267578125</LatitudeDegrees>
              <LongitudeDegrees>-4.02398281730711460113525390625</LongitudeDegrees>
            </Position>
            <AltitudeMeters>1309.800048828125</AltitudeMeters>
            <DistanceMeters>66834.656915006</DistanceMeters>
          </Trackpoint>
          <Trackpoint>
            <Time>2019-08-01T13:36:45.000Z</Time>
            <Position>
              <LatitudeDegrees>40.733295790851116180419921875</LatitudeDegrees>
              <LongitudeDegrees>-4.0242474339902400970458984375</LongitudeDegrees>
            </Position>
            <AltitudeMeters>1311.199951171875</AltitudeMeters>
            <DistanceMeters>66858.608548698</DistanceMeters>
          </Trackpoint>
          <Trackpoint>
            <Time>2019-08-01T13:36:46.000Z</Time>
            <Position>
              <LatitudeDegrees>40.7332493551075458526611328125</LatitudeDegrees>
              <LongitudeDegrees>-4.02437509037554264068603515625</LongitudeDegrees>
            </Position>
            <AltitudeMeters>1311.5999755859375</AltitudeMeters>
            <DistanceMeters>66870.551709398</DistanceMeters>
          </Trackpoint>
          <Trackpoint>
            <Time>2019-08-01T13:36:47.000Z</Time>
            <Position>
              <LatitudeDegrees>40.7332014106214046478271484375</LatitudeDegrees>
              <LongitudeDegrees>-4.02449796907603740692138671875</LongitudeDegrees>
            </Position>
            <AltitudeMeters>1312.4000244140625</AltitudeMeters>
            <DistanceMeters>66882.208663988</DistanceMeters>
          </Trackpoint>
          <Trackpoint>
            <Time>2019-08-01T13:36:50.000Z</Time>
            <Position>
              <LatitudeDegrees>40.73306771926581859588623046875</LatitudeDegrees>
              <LongitudeDegrees>-4.02486316859722137451171875</LongitudeDegrees>
            </Position>
            <AltitudeMeters>1313.800048828125</AltitudeMeters>
            <DistanceMeters>66916.415509437</DistanceMeters>
          </Trackpoint>
          <Trackpoint>
            <Time>2019-08-01T13:36:52.000Z</Time>
            <Position>
              <LatitudeDegrees>40.7329864986240863800048828125</LatitudeDegrees>
              <LongitudeDegrees>-4.0251151286065578460693359375</LongitudeDegrees>
            </Position>
            <AltitudeMeters>1315</AltitudeMeters>
            <DistanceMeters>66939.508760716</DistanceMeters>
          </Trackpoint>
          <Trackpoint>
            <Time>2019-08-01T13:36:54.000Z</Time>
            <Position>
              <LatitudeDegrees>40.732908882200717926025390625</LatitudeDegrees>
              <LongitudeDegrees>-4.02537773363292217254638671875</LongitudeDegrees>
            </Position>
            <AltitudeMeters>1316.199951171875</AltitudeMeters>
            <DistanceMeters>66963.282158127</DistanceMeters>
          </Trackpoint>
          <Trackpoint>
            <Time>2019-08-01T13:36:55.000Z</Time>
            <Position>
              <LatitudeDegrees>40.7328788749873638153076171875</LatitudeDegrees>
              <LongitudeDegrees>-4.02551670558750629425048828125</LongitudeDegrees>
            </Position>
            <AltitudeMeters>1316.800048828125</AltitudeMeters>
            <DistanceMeters>66975.46931109</DistanceMeters>
          </Trackpoint>
          <Trackpoint>
            <Time>2019-08-01T13:36:56.000Z</Time>
            <Position>
              <LatitudeDegrees>40.73286093771457672119140625</LatitudeDegrees>
              <LongitudeDegrees>-4.02565986849367618560791015625</LongitudeDegrees>
            </Position>
            <AltitudeMeters>1317.199951171875</AltitudeMeters>
            <DistanceMeters>66987.70785177</DistanceMeters>
          </Trackpoint>
          <Trackpoint>
            <Time>2019-08-01T13:36:59.000Z</Time>
            <Position>
              <LatitudeDegrees>40.73284861631691455841064453125</LatitudeDegrees>
              <LongitudeDegrees>-4.0260884352028369903564453125</LongitudeDegrees>
            </Position>
            <AltitudeMeters>1318.4000244140625</AltitudeMeters>
            <DistanceMeters>67023.879218567</DistanceMeters>
          </Trackpoint>
          <Trackpoint>
            <Time>2019-08-01T13:37:02.000Z</Time>
            <Position>
              <LatitudeDegrees>40.73274468071758747100830078125</LatitudeDegrees>
              <LongitudeDegrees>-4.02650359086692333221435546875</LongitudeDegrees>
            </Position>
            <AltitudeMeters>1320</AltitudeMeters>
            <DistanceMeters>67060.754971462</DistanceMeters>
          </Trackpoint>
          <Trackpoint>
            <Time>2019-08-01T13:37:05.000Z</Time>
            <Position>
              <LatitudeDegrees>40.73260336183011531829833984375</LatitudeDegrees>
              <LongitudeDegrees>-4.0269232727587223052978515625</LongitudeDegrees>
            </Position>
            <AltitudeMeters>1321.199951171875</AltitudeMeters>
            <DistanceMeters>67099.488471054</DistanceMeters>
          </Trackpoint>
          <Trackpoint>
            <Time>2019-08-01T13:37:08.000Z</Time>
            <Position>
              <LatitudeDegrees>40.7324741967022418975830078125</LatitudeDegrees>
              <LongitudeDegrees>-4.0273665077984333038330078125</LongitudeDegrees>
            </Position>
            <AltitudeMeters>1322.5999755859375</AltitudeMeters>
            <DistanceMeters>67139.540173887</DistanceMeters>
          </Trackpoint>
          <Trackpoint>
            <Time>2019-08-01T13:37:09.000Z</Time>
            <Position>
              <LatitudeDegrees>40.7324477098882198333740234375</LatitudeDegrees>
              <LongitudeDegrees>-4.02752350084483623504638671875</LongitudeDegrees>
            </Position>
            <AltitudeMeters>1322.800048828125</AltitudeMeters>
            <DistanceMeters>67153.105050138</DistanceMeters>
          </Trackpoint>
          <Trackpoint>
            <Time>2019-08-01T13:37:11.000Z</Time>
            <Position>
              <LatitudeDegrees>40.73242331854999065399169921875</LatitudeDegrees>
              <LongitudeDegrees>-4.027840755879878997802734375</LongitudeDegrees>
            </Position>
            <AltitudeMeters>1324</AltitudeMeters>
            <DistanceMeters>67179.999792808</DistanceMeters>
          </Trackpoint>
          <Trackpoint>
            <Time>2019-08-01T13:37:14.000Z</Time>
            <Position>
              <LatitudeDegrees>40.73239247314631938934326171875</LatitudeDegrees>
              <LongitudeDegrees>-4.0283153392374515533447265625</LongitudeDegrees>
            </Position>
            <AltitudeMeters>1325.199951171875</AltitudeMeters>
            <DistanceMeters>67220.173509374</DistanceMeters>
          </Trackpoint>
          <Trackpoint>
            <Time>2019-08-01T13:37:19.000Z</Time>
            <Position>
              <LatitudeDegrees>40.73220513761043548583984375</LatitudeDegrees>
              <LongitudeDegrees>-4.02910985983908176422119140625</LongitudeDegrees>
            </Position>
            <AltitudeMeters>1326.5999755859375</AltitudeMeters>
            <DistanceMeters>67290.353166641</DistanceMeters>
          </Trackpoint>
          <Trackpoint>
            <Time>2019-08-01T13:37:24.000Z</Time>
            <Position>
              <LatitudeDegrees>40.7320162095129489898681640625</LatitudeDegrees>
              <LongitudeDegrees>-4.02989004738628864288330078125</LongitudeDegrees>
            </Position>
            <AltitudeMeters>1327.800048828125</AltitudeMeters>
            <DistanceMeters>67359.433339758</DistanceMeters>
          </Trackpoint>
          <Trackpoint>
            <Time>2019-08-01T13:37:25.000Z</Time>
            <Position>
              <LatitudeDegrees>40.73198259808123111724853515625</LatitudeDegrees>
              <LongitudeDegrees>-4.030030108988285064697265625</LongitudeDegrees>
            </Position>
            <AltitudeMeters>1327.800048828125</AltitudeMeters>
            <DistanceMeters>67371.824036256</DistanceMeters>
          </Trackpoint>
          <Trackpoint>
            <Time>2019-08-01T13:37:30.000Z</Time>
            <Position>
              <LatitudeDegrees>40.73186391033232212066650390625</LatitudeDegrees>
              <LongitudeDegrees>-4.03076176531612873077392578125</LongitudeDegrees>
            </Position>
            <AltitudeMeters>1328.4000244140625</AltitudeMeters>
            <DistanceMeters>67434.931076226</DistanceMeters>
          </Trackpoint>
          <Trackpoint>
            <Time>2019-08-01T13:37:34.000Z</Time>
            <Position>
              <LatitudeDegrees>40.7317672669887542724609375</LatitudeDegrees>
              <LongitudeDegrees>-4.03128999285399913787841796875</LongitudeDegrees>
            </Position>
            <AltitudeMeters>1329.4000244140625</AltitudeMeters>
            <DistanceMeters>67480.762727539</DistanceMeters>
          </Trackpoint>
          <Trackpoint>
            <Time>2019-08-01T13:37:35.000Z</Time>
            <Position>
              <LatitudeDegrees>40.73173818178474903106689453125</LatitudeDegrees>
              <LongitudeDegrees>-4.03140666894614696502685546875</LongitudeDegrees>
            </Position>
            <AltitudeMeters>1329.4000244140625</AltitudeMeters>
            <DistanceMeters>67491.121511173</DistanceMeters>
          </Trackpoint>
          <Trackpoint>
            <Time>2019-08-01T13:37:39.000Z</Time>
            <Position>
              <LatitudeDegrees>40.7316291332244873046875</LatitudeDegrees>
              <LongitudeDegrees>-4.0318256802856922149658203125</LongitudeDegrees>
            </Position>
            <AltitudeMeters>1329.5999755859375</AltitudeMeters>
            <DistanceMeters>67528.487677953</DistanceMeters>
          </Trackpoint>
          <Trackpoint>
            <Time>2019-08-01T13:37:46.000Z</Time>
            <Position>
              <LatitudeDegrees>40.73192576877772808074951171875</LatitudeDegrees>
              <LongitudeDegrees>-4.03208434581756591796875</LongitudeDegrees>
            </Position>
            <AltitudeMeters>1328.4000244140625</AltitudeMeters>
            <DistanceMeters>67568.060457574</DistanceMeters>
          </Trackpoint>
          <Trackpoint>
            <Time>2019-08-01T13:37:48.000Z</Time>
            <Position>
              <LatitudeDegrees>40.732029117643833160400390625</LatitudeDegrees>
              <LongitudeDegrees>-4.03193078935146331787109375</LongitudeDegrees>
            </Position>
            <AltitudeMeters>1328</AltitudeMeters>
            <DistanceMeters>67585.382448802</DistanceMeters>
          </Trackpoint>
          <Trackpoint>
            <Time>2019-08-01T13:37:51.000Z</Time>
            <Position>
              <LatitudeDegrees>40.7321982644498348236083984375</LatitudeDegrees>
              <LongitudeDegrees>-4.03169048018753528594970703125</LongitudeDegrees>
            </Position>
            <AltitudeMeters>1327.5999755859375</AltitudeMeters>
            <DistanceMeters>67613.045180735</DistanceMeters>
          </Trackpoint>
          <Trackpoint>
            <Time>2019-08-01T13:37:52.000Z</Time>
            <Position>
              <LatitudeDegrees>40.732264481484889984130859375</LatitudeDegrees>
              <LongitudeDegrees>-4.03162300586700439453125</LongitudeDegrees>
            </Position>
            <AltitudeMeters>1327.4000244140625</AltitudeMeters>
            <DistanceMeters>67622.3573139</DistanceMeters>
          </Trackpoint>
          <Trackpoint>
            <Time>2019-08-01T13:37:58.000Z</Time>
            <Position>
              <LatitudeDegrees>40.73273411951959133148193359375</LatitudeDegrees>
              <LongitudeDegrees>-4.03155335225164890289306640625</LongitudeDegrees>
            </Position>
            <AltitudeMeters>1326.5999755859375</AltitudeMeters>
            <DistanceMeters>67674.9580124</DistanceMeters>
          </Trackpoint>
          <Trackpoint>
            <Time>2019-08-01T13:38:02.000Z</Time>
            <Position>
              <LatitudeDegrees>40.732985325157642364501953125</LatitudeDegrees>
              <LongitudeDegrees>-4.03188628144562244415283203125</LongitudeDegrees>
            </Position>
            <AltitudeMeters>1325.800048828125</AltitudeMeters>
            <DistanceMeters>67714.583696526</DistanceMeters>
          </Trackpoint>
          <Trackpoint>
            <Time>2019-08-01T13:38:04.000Z</Time>
            <Position>
              <LatitudeDegrees>40.7330708205699920654296875</LatitudeDegrees>
              <LongitudeDegrees>-4.03211326338350772857666015625</LongitudeDegrees>
            </Position>
            <AltitudeMeters>1325.199951171875</AltitudeMeters>
            <DistanceMeters>67735.961961867</DistanceMeters>
          </Trackpoint>
          <Trackpoint>
            <Time>2019-08-01T13:38:06.000Z</Time>
            <Position>
              <LatitudeDegrees>40.73314567096531391143798828125</LatitudeDegrees>
              <LongitudeDegrees>-4.03235684148967266082763671875</LongitudeDegrees>
            </Position>
            <AltitudeMeters>1324.5999755859375</AltitudeMeters>
            <DistanceMeters>67758.130087411</DistanceMeters>
          </Trackpoint>
          <Trackpoint>
            <Time>2019-08-01T13:38:11.000Z</Time>
            <Position>
              <LatitudeDegrees>40.73333526961505413055419921875</LatitudeDegrees>
              <LongitudeDegrees>-4.03300241567194461822509765625</LongitudeDegrees>
            </Position>
            <AltitudeMeters>1323.800048828125</AltitudeMeters>
            <DistanceMeters>67816.524138702</DistanceMeters>
          </Trackpoint>
          <Trackpoint>
            <Time>2019-08-01T13:38:16.000Z</Time>
            <Position>
              <LatitudeDegrees>40.73353811167180538177490234375</LatitudeDegrees>
              <LongitudeDegrees>-4.03368755243718624114990234375</LongitudeDegrees>
            </Position>
            <AltitudeMeters>1322.800048828125</AltitudeMeters>
            <DistanceMeters>67878.562101928</DistanceMeters>
          </Trackpoint>
          <Trackpoint>
            <Time>2019-08-01T13:38:20.000Z</Time>
            <Position>
              <LatitudeDegrees>40.733702480792999267578125</LatitudeDegrees>
              <LongitudeDegrees>-4.03425886295735836029052734375</LongitudeDegrees>
            </Position>
            <AltitudeMeters>1321.800048828125</AltitudeMeters>
            <DistanceMeters>67930.102247617</DistanceMeters>
          </Trackpoint>
          <Trackpoint>
            <Time>2019-08-01T13:38:23.000Z</Time>
            <Position>
              <LatitudeDegrees>40.73382913134992122650146484375</LatitudeDegrees>
              <LongitudeDegrees>-4.03468248434364795684814453125</LongitudeDegrees>
            </Position>
            <AltitudeMeters>1321</AltitudeMeters>
            <DistanceMeters>67968.510442161</DistanceMeters>
          </Trackpoint>
          <Trackpoint>
            <Time>2019-08-01T13:38:26.000Z</Time>
            <Position>
              <LatitudeDegrees>40.73396776802837848663330078125</LatitudeDegrees>
              <LongitudeDegrees>-4.03511012904345989227294921875</LongitudeDegrees>
            </Position>
            <AltitudeMeters>1320</AltitudeMeters>
            <DistanceMeters>68007.739790205</DistanceMeters>
          </Trackpoint>
          <Trackpoint>
            <Time>2019-08-01T13:38:27.000Z</Time>
            <Position>
              <LatitudeDegrees>40.7340265251696109771728515625</LatitudeDegrees>
              <LongitudeDegrees>-4.03524423949420452117919921875</LongitudeDegrees>
            </Position>
            <AltitudeMeters>1319.800048828125</AltitudeMeters>
            <DistanceMeters>68020.805185916</DistanceMeters>
          </Trackpoint>
          <Trackpoint>
            <Time>2019-08-01T13:38:30.000Z</Time>
            <Position>
              <LatitudeDegrees>40.7342483103275299072265625</LatitudeDegrees>
              <LongitudeDegrees>-4.03559091500937938690185546875</LongitudeDegrees>
            </Position>
            <AltitudeMeters>1318.800048828125</AltitudeMeters>
            <DistanceMeters>68059.070403744</DistanceMeters>
          </Trackpoint>
          <Trackpoint>
            <Time>2019-08-01T13:38:32.000Z</Time>
            <Position>
              <LatitudeDegrees>40.73443329893052577972412109375</LatitudeDegrees>
              <LongitudeDegrees>-4.03576911427080631256103515625</LongitudeDegrees>
            </Position>
            <AltitudeMeters>1317.5999755859375</AltitudeMeters>
            <DistanceMeters>68084.561663048</DistanceMeters>
          </Trackpoint>
          <Trackpoint>
            <Time>2019-08-01T13:38:34.000Z</Time>
            <Position>
              <LatitudeDegrees>40.73464016430079936981201171875</LatitudeDegrees>
              <LongitudeDegrees>-4.03590984642505645751953125</LongitudeDegrees>
            </Position>
            <AltitudeMeters>1316.4000244140625</AltitudeMeters>
            <DistanceMeters>68110.465464321</DistanceMeters>
          </Trackpoint>
          <Trackpoint>
            <Time>2019-08-01T13:38:36.000Z</Time>
            <Position>
              <LatitudeDegrees>40.7348717562854290008544921875</LatitudeDegrees>
              <LongitudeDegrees>-4.03599559329450130462646484375</LongitudeDegrees>
            </Position>
            <AltitudeMeters>1314.800048828125</AltitudeMeters>
            <DistanceMeters>68137.237544135</DistanceMeters>
          </Trackpoint>
          <Trackpoint>
            <Time>2019-08-01T13:38:38.000Z</Time>
            <Position>
              <LatitudeDegrees>40.73511843569576740264892578125</LatitudeDegrees>
              <LongitudeDegrees>-4.036025516688823699951171875</LongitudeDegrees>
            </Position>
            <AltitudeMeters>1313</AltitudeMeters>
            <DistanceMeters>68164.809214114</DistanceMeters>
          </Trackpoint>
          <Trackpoint>
            <Time>2019-08-01T13:38:40.000Z</Time>
            <Position>
              <LatitudeDegrees>40.735365115106105804443359375</LatitudeDegrees>
              <LongitudeDegrees>-4.03601621277630329132080078125</LongitudeDegrees>
            </Position>
            <AltitudeMeters>1311.800048828125</AltitudeMeters>
            <DistanceMeters>68192.276373173</DistanceMeters>
          </Trackpoint>
          <Trackpoint>
            <Time>2019-08-01T13:38:42.000Z</Time>
            <Position>
              <LatitudeDegrees>40.73560190387070178985595703125</LatitudeDegrees>
              <LongitudeDegrees>-4.03602895326912403106689453125</LongitudeDegrees>
            </Position>
            <AltitudeMeters>1310.199951171875</AltitudeMeters>
            <DistanceMeters>68218.653433848</DistanceMeters>
          </Trackpoint>
          <Trackpoint>
            <Time>2019-08-01T13:38:44.000Z</Time>
            <Position>
              <LatitudeDegrees>40.73583223856985569000244140625</LatitudeDegrees>
              <LongitudeDegrees>-4.0361168794333934783935546875</LongitudeDegrees>
            </Position>
            <AltitudeMeters>1309</AltitudeMeters>
            <DistanceMeters>68245.340887628</DistanceMeters>
          </Trackpoint>
          <Trackpoint>
            <Time>2019-08-01T13:38:46.000Z</Time>
            <Position>
              <LatitudeDegrees>40.7360354997217655181884765625</LatitudeDegrees>
              <LongitudeDegrees>-4.03629667125642299652099609375</LongitudeDegrees>
            </Position>
            <AltitudeMeters>1307.800048828125</AltitudeMeters>
            <DistanceMeters>68272.575616911</DistanceMeters>
          </Trackpoint>
          <Trackpoint>
            <Time>2019-08-01T13:38:48.000Z</Time>
            <Position>
              <LatitudeDegrees>40.736186206340789794921875</LatitudeDegrees>
              <LongitudeDegrees>-4.03655030764639377593994140625</LongitudeDegrees>
            </Position>
            <AltitudeMeters>1306.4000244140625</AltitudeMeters>
            <DistanceMeters>68299.758738978</DistanceMeters>
          </Trackpoint>
          <Trackpoint>
            <Time>2019-08-01T13:38:50.000Z</Time>
            <Position>
              <LatitudeDegrees>40.73625837452709674835205078125</LatitudeDegrees>
              <LongitudeDegrees>-4.03685507364571094512939453125</LongitudeDegrees>
            </Position>
            <AltitudeMeters>1305</AltitudeMeters>
            <DistanceMeters>68326.687371672</DistanceMeters>
          </Trackpoint>
          <Trackpoint>
            <Time>2019-08-01T13:38:52.000Z</Time>
            <Position>
              <LatitudeDegrees>40.73625653050839900970458984375</LatitudeDegrees>
              <LongitudeDegrees>-4.0371689759194850921630859375</LongitudeDegrees>
            </Position>
            <AltitudeMeters>1303.800048828125</AltitudeMeters>
            <DistanceMeters>68353.161480029</DistanceMeters>
          </Trackpoint>
          <Trackpoint>
            <Time>2019-08-01T13:38:54.000Z</Time>
            <Position>
              <LatitudeDegrees>40.7361795008182525634765625</LatitudeDegrees>
              <LongitudeDegrees>-4.03745890595018863677978515625</LongitudeDegrees>
            </Position>
            <AltitudeMeters>1302.5999755859375</AltitudeMeters>
            <DistanceMeters>68379.072600877</DistanceMeters>
          </Trackpoint>
          <Trackpoint>
            <Time>2019-08-01T13:38:56.000Z</Time>
            <Position>
              <LatitudeDegrees>40.7360536046326160430908203125</LatitudeDegrees>
              <LongitudeDegrees>-4.03770918957889080047607421875</LongitudeDegrees>
            </Position>
            <AltitudeMeters>1301.800048828125</AltitudeMeters>
            <DistanceMeters>68404.408227057</DistanceMeters>
          </Trackpoint>
          <Trackpoint>
            <Time>2019-08-01T13:38:58.000Z</Time>
            <Position>
              <LatitudeDegrees>40.73590633459389209747314453125</LatitudeDegrees>
              <LongitudeDegrees>-4.0379317291080951690673828125</LongitudeDegrees>
            </Position>
            <AltitudeMeters>1300.800048828125</AltitudeMeters>
            <DistanceMeters>68429.326616179</DistanceMeters>
          </Trackpoint>
          <Trackpoint>
            <Time>2019-08-01T13:38:59.000Z</Time>
            <Position>
              <LatitudeDegrees>40.73582938872277736663818359375</LatitudeDegrees>
              <LongitudeDegrees>-4.038036502897739410400390625</LongitudeDegrees>
            </Position>
            <AltitudeMeters>1300</AltitudeMeters>
            <DistanceMeters>68441.632483965</DistanceMeters>
          </Trackpoint>
          <Trackpoint>
            <Time>2019-08-01T13:39:01.000Z</Time>
            <Position>
              <LatitudeDegrees>40.73567382059991359710693359375</LatitudeDegrees>
              <LongitudeDegrees>-4.03823825530707836151123046875</LongitudeDegrees>
            </Position>
            <AltitudeMeters>1299</AltitudeMeters>
            <DistanceMeters>68465.908415438</DistanceMeters>
          </Trackpoint>
          <Trackpoint>
            <Time>2019-08-01T13:39:03.000Z</Time>
            <Position>
              <LatitudeDegrees>40.73552177287638187408447265625</LatitudeDegrees>
              <LongitudeDegrees>-4.03843891806900501251220703125</LongitudeDegrees>
            </Position>
            <AltitudeMeters>1297.5999755859375</AltitudeMeters>
            <DistanceMeters>68489.841568365</DistanceMeters>
          </Trackpoint>
          <Trackpoint>
            <Time>2019-08-01T13:39:05.000Z</Time>
            <Position>
              <LatitudeDegrees>40.7353721559047698974609375</LatitudeDegrees>
              <LongitudeDegrees>-4.0386337973177433013916015625</LongitudeDegrees>
            </Position>
            <AltitudeMeters>1296.5999755859375</AltitudeMeters>
            <DistanceMeters>68513.238990324</DistanceMeters>
          </Trackpoint>
          <Trackpoint>
            <Time>2019-08-01T13:39:07.000Z</Time>
            <Position>
              <LatitudeDegrees>40.73522756807506084442138671875</LatitudeDegrees>
              <LongitudeDegrees>-4.03882565908133983612060546875</LongitudeDegrees>
            </Position>
            <AltitudeMeters>1295.4000244140625</AltitudeMeters>
            <DistanceMeters>68536.060047022</DistanceMeters>
          </Trackpoint>
          <Trackpoint>
            <Time>2019-08-01T13:39:09.000Z</Time>
            <Position>
              <LatitudeDegrees>40.73508323170244693756103515625</LatitudeDegrees>
              <LongitudeDegrees>-4.03901291079819202423095703125</LongitudeDegrees>
            </Position>
            <AltitudeMeters>1294.199951171875</AltitudeMeters>
            <DistanceMeters>68558.587592298</DistanceMeters>
          </Trackpoint>
          <Trackpoint>
            <Time>2019-08-01T13:39:11.000Z</Time>
            <Position>
              <LatitudeDegrees>40.734942667186260223388671875</LatitudeDegrees>
              <LongitudeDegrees>-4.03920100070536136627197265625</LongitudeDegrees>
            </Position>
            <AltitudeMeters>1292.800048828125</AltitudeMeters>
            <DistanceMeters>68580.867658776</DistanceMeters>
          </Trackpoint>
          <Trackpoint>
            <Time>2019-08-01T13:39:13.000Z</Time>
            <Position>
              <LatitudeDegrees>40.73480126447975635528564453125</LatitudeDegrees>
              <LongitudeDegrees>-4.0393868274986743927001953125</LongitudeDegrees>
            </Position>
            <AltitudeMeters>1291.5999755859375</AltitudeMeters>
            <DistanceMeters>68603.078311088</DistanceMeters>
          </Trackpoint>
          <Trackpoint>
            <Time>2019-08-01T13:39:15.000Z</Time>
            <Position>
              <LatitudeDegrees>40.734665393829345703125</LatitudeDegrees>
              <LongitudeDegrees>-4.03958204202353954315185546875</LongitudeDegrees>
            </Position>
            <AltitudeMeters>1290.5999755859375</AltitudeMeters>
            <DistanceMeters>68625.433635973</DistanceMeters>
          </Trackpoint>
          <Trackpoint>
            <Time>2019-08-01T13:39:17.000Z</Time>
            <Position>
              <LatitudeDegrees>40.7345487177371978759765625</LatitudeDegrees>
              <LongitudeDegrees>-4.03979695402085781097412109375</LongitudeDegrees>
            </Position>
            <AltitudeMeters>1289</AltitudeMeters>
            <DistanceMeters>68647.731123474</DistanceMeters>
          </Trackpoint>
          <Trackpoint>
            <Time>2019-08-01T13:39:19.000Z</Time>
            <Position>
              <LatitudeDegrees>40.73446565307676792144775390625</LatitudeDegrees>
              <LongitudeDegrees>-4.0400402806699275970458984375</LongitudeDegrees>
            </Position>
            <AltitudeMeters>1287.5999755859375</AltitudeMeters>
            <DistanceMeters>68670.239419918</DistanceMeters>
          </Trackpoint>
          <Trackpoint>
            <Time>2019-08-01T13:39:21.000Z</Time>
            <Position>
              <LatitudeDegrees>40.734418295323848724365234375</LatitudeDegrees>
              <LongitudeDegrees>-4.04030204750597476959228515625</LongitudeDegrees>
            </Position>
            <AltitudeMeters>1286.199951171875</AltitudeMeters>
            <DistanceMeters>68692.936884341</DistanceMeters>
          </Trackpoint>
          <Trackpoint>
            <Time>2019-08-01T13:39:23.000Z</Time>
            <Position>
              <LatitudeDegrees>40.73443698696792125701904296875</LatitudeDegrees>
              <LongitudeDegrees>-4.04057311825454235076904296875</LongitudeDegrees>
            </Position>
            <AltitudeMeters>1284.4000244140625</AltitudeMeters>
            <DistanceMeters>68715.892868334</DistanceMeters>
          </Trackpoint>
          <Trackpoint>
            <Time>2019-08-01T13:39:25.000Z</Time>
            <Position>
              <LatitudeDegrees>40.73451393283903598785400390625</LatitudeDegrees>
              <LongitudeDegrees>-4.04083631001412868499755859375</LongitudeDegrees>
            </Position>
            <AltitudeMeters>1282.5999755859375</AltitudeMeters>
            <DistanceMeters>68739.684870603</DistanceMeters>
          </Trackpoint>
          <Trackpoint>
            <Time>2019-08-01T13:39:27.000Z</Time>
            <Position>
              <LatitudeDegrees>40.7346199639141559600830078125</LatitudeDegrees>
              <LongitudeDegrees>-4.04109279625117778778076171875</LongitudeDegrees>
            </Position>
            <AltitudeMeters>1281</AltitudeMeters>
            <DistanceMeters>68764.326124025</DistanceMeters>
          </Trackpoint>
          <Trackpoint>
            <Time>2019-08-01T13:39:29.000Z</Time>
            <Position>
              <LatitudeDegrees>40.734737813472747802734375</LatitudeDegrees>
              <LongitudeDegrees>-4.0413498692214488983154296875</LongitudeDegrees>
            </Position>
            <AltitudeMeters>1279.5999755859375</AltitudeMeters>
            <DistanceMeters>68789.666026861</DistanceMeters>
          </Trackpoint>
          <Trackpoint>
            <Time>2019-08-01T13:39:31.000Z</Time>
            <Position>
              <LatitudeDegrees>40.7348620332777500152587890625</LatitudeDegrees>
              <LongitudeDegrees>-4.04161155223846435546875</LongitudeDegrees>
            </Position>
            <AltitudeMeters>1277.5999755859375</AltitudeMeters>
            <DistanceMeters>68815.708895013</DistanceMeters>
          </Trackpoint>
          <Trackpoint>
            <Time>2019-08-01T13:39:33.000Z</Time>
            <Position>
              <LatitudeDegrees>40.73499086312949657440185546875</LatitudeDegrees>
              <LongitudeDegrees>-4.04187600128352642059326171875</LongitudeDegrees>
            </Position>
            <AltitudeMeters>1276</AltitudeMeters>
            <DistanceMeters>68842.223562114</DistanceMeters>
          </Trackpoint>
          <Trackpoint>
            <Time>2019-08-01T13:39:34.000Z</Time>
            <Position>
              <LatitudeDegrees>40.73505640961229801177978515625</LatitudeDegrees>
              <LongitudeDegrees>-4.04200960882008075714111328125</LongitudeDegrees>
            </Position>
            <AltitudeMeters>1274.800048828125</AltitudeMeters>
            <DistanceMeters>68855.646905414</DistanceMeters>
          </Trackpoint>
          <Trackpoint>
            <Time>2019-08-01T13:39:36.000Z</Time>
            <Position>
              <LatitudeDegrees>40.7351832278072834014892578125</LatitudeDegrees>
              <LongitudeDegrees>-4.042275734245777130126953125</LongitudeDegrees>
            </Position>
            <AltitudeMeters>1273.800048828125</AltitudeMeters>
            <DistanceMeters>68882.160891368</DistanceMeters>
          </Trackpoint>
          <Trackpoint>
            <Time>2019-08-01T13:39:37.000Z</Time>
            <Position>
              <LatitudeDegrees>40.735247097909450531005859375</LatitudeDegrees>
              <LongitudeDegrees>-4.0424066595733165740966796875</LongitudeDegrees>
            </Position>
            <AltitudeMeters>1272.800048828125</AltitudeMeters>
            <DistanceMeters>68895.293156973</DistanceMeters>
          </Trackpoint>
          <Trackpoint>
            <Time>2019-08-01T13:39:39.000Z</Time>
            <Position>
              <LatitudeDegrees>40.735373832285404205322265625</LatitudeDegrees>
              <LongitudeDegrees>-4.04267035424709320068359375</LongitudeDegrees>
            </Position>
            <AltitudeMeters>1271.199951171875</AltitudeMeters>
            <DistanceMeters>68921.628761226</DistanceMeters>
          </Trackpoint>
          <Trackpoint>
            <Time>2019-08-01T13:39:41.000Z</Time>
            <Position>
              <LatitudeDegrees>40.73549947701394557952880859375</LatitudeDegrees>
              <LongitudeDegrees>-4.042928181588649749755859375</LongitudeDegrees>
            </Position>
            <AltitudeMeters>1270</AltitudeMeters>
            <DistanceMeters>68947.481966022</DistanceMeters>
          </Trackpoint>
          <Trackpoint>
            <Time>2019-08-01T13:39:43.000Z</Time>
            <Position>
              <LatitudeDegrees>40.73562436737120151519775390625</LatitudeDegrees>
              <LongitudeDegrees>-4.043147452175617218017578125</LongitudeDegrees>
            </Position>
            <AltitudeMeters>1268.800048828125</AltitudeMeters>
            <DistanceMeters>68970.61643383</DistanceMeters>
          </Trackpoint>
          <Trackpoint>
            <Time>2019-08-01T13:39:44.000Z</Time>
            <Position>
              <LatitudeDegrees>40.73569427244365215301513671875</LatitudeDegrees>
              <LongitudeDegrees>-4.043237976729869842529296875</LongitudeDegrees>
            </Position>
            <AltitudeMeters>1268.199951171875</AltitudeMeters>
            <DistanceMeters>68981.516789138</DistanceMeters>
          </Trackpoint>
          <Trackpoint>
            <Time>2019-08-01T13:39:45.000Z</Time>
            <Position>
              <LatitudeDegrees>40.73577607981860637664794921875</LatitudeDegrees>
              <LongitudeDegrees>-4.04331207275390625</LongitudeDegrees>
            </Position>
            <AltitudeMeters>1267.4000244140625</AltitudeMeters>
            <DistanceMeters>68992.560348911</DistanceMeters>
          </Trackpoint>
          <Trackpoint>
            <Time>2019-08-01T13:39:47.000Z</Time>
            <Position>
              <LatitudeDegrees>40.7359681092202663421630859375</LatitudeDegrees>
              <LongitudeDegrees>-4.0434064529836177825927734375</LongitudeDegrees>
            </Position>
            <AltitudeMeters>1266.5999755859375</AltitudeMeters>
            <DistanceMeters>69015.367552235</DistanceMeters>
          </Trackpoint>
          <Trackpoint>
            <Time>2019-08-01T13:39:49.000Z</Time>
            <Position>
              <LatitudeDegrees>40.736179165542125701904296875</LatitudeDegrees>
              <LongitudeDegrees>-4.04344358481466770172119140625</LongitudeDegrees>
            </Position>
            <AltitudeMeters>1265.5999755859375</AltitudeMeters>
            <DistanceMeters>69039.066384158</DistanceMeters>
          </Trackpoint>
          <Trackpoint>
            <Time>2019-08-01T13:39:50.000Z</Time>
            <Position>
              <LatitudeDegrees>40.73628955520689487457275390625</LatitudeDegrees>
              <LongitudeDegrees>-4.0434582531452178955078125</LongitudeDegrees>
            </Position>
            <AltitudeMeters>1265</AltitudeMeters>
            <DistanceMeters>69051.414739143</DistanceMeters>
          </Trackpoint>
          <Trackpoint>
            <Time>2019-08-01T13:39:52.000Z</Time>
            <Position>
              <LatitudeDegrees>40.7365162856876850128173828125</LatitudeDegrees>
              <LongitudeDegrees>-4.043491780757904052734375</LongitudeDegrees>
            </Position>
            <AltitudeMeters>1263.800048828125</AltitudeMeters>
            <DistanceMeters>69076.808039415</DistanceMeters>
          </Trackpoint>
          <Trackpoint>
            <Time>2019-08-01T13:39:54.000Z</Time>
            <Position>
              <LatitudeDegrees>40.7367516495287418365478515625</LatitudeDegrees>
              <LongitudeDegrees>-4.04352371580898761749267578125</LongitudeDegrees>
            </Position>
            <AltitudeMeters>1262.199951171875</AltitudeMeters>
            <DistanceMeters>69103.142443544</DistanceMeters>
          </Trackpoint>
          <Trackpoint>
            <Time>2019-08-01T13:39:56.000Z</Time>
            <Position>
              <LatitudeDegrees>40.736993215978145599365234375</LatitudeDegrees>
              <LongitudeDegrees>-4.0435522980988025665283203125</LongitudeDegrees>
            </Position>
            <AltitudeMeters>1261.4000244140625</AltitudeMeters>
            <DistanceMeters>69130.13722339</DistanceMeters>
          </Trackpoint>
          <Trackpoint>
            <Time>2019-08-01T13:39:59.000Z</Time>
            <Position>
              <LatitudeDegrees>40.73736361227929592132568359375</LatitudeDegrees>
              <LongitudeDegrees>-4.04360652901232242584228515625</LongitudeDegrees>
            </Position>
            <AltitudeMeters>1259.5999755859375</AltitudeMeters>
            <DistanceMeters>69171.616030447</DistanceMeters>
          </Trackpoint>
          <Trackpoint>
            <Time>2019-08-01T13:40:00.000Z</Time>
            <Position>
              <LatitudeDegrees>40.73748766444623470306396484375</LatitudeDegrees>
              <LongitudeDegrees>-4.04363720677793025970458984375</LongitudeDegrees>
            </Position>
            <AltitudeMeters>1258.4000244140625</AltitudeMeters>
            <DistanceMeters>69185.663601786</DistanceMeters>
          </Trackpoint>
          <Trackpoint>
            <Time>2019-08-01T13:40:03.000Z</Time>
            <Position>
              <LatitudeDegrees>40.73783685453236103057861328125</LatitudeDegrees>
              <LongitudeDegrees>-4.04381406493484973907470703125</LongitudeDegrees>
            </Position>
            <AltitudeMeters>1257.199951171875</AltitudeMeters>
            <DistanceMeters>69227.292895446</DistanceMeters>
          </Trackpoint>
          <Trackpoint>
            <Time>2019-08-01T13:40:06.000Z</Time>
            <Position>
              <LatitudeDegrees>40.738138519227504730224609375</LatitudeDegrees>
              <LongitudeDegrees>-4.04406376183032989501953125</LongitudeDegrees>
            </Position>
            <AltitudeMeters>1255.5999755859375</AltitudeMeters>
            <DistanceMeters>69266.925757282</DistanceMeters>
          </Trackpoint>
          <Trackpoint>
            <Time>2019-08-01T13:40:08.000Z</Time>
            <Position>
              <LatitudeDegrees>40.7383039779961109161376953125</LatitudeDegrees>
              <LongitudeDegrees>-4.04425394721329212188720703125</LongitudeDegrees>
            </Position>
            <AltitudeMeters>1254.5999755859375</AltitudeMeters>
            <DistanceMeters>69291.346883356</DistanceMeters>
          </Trackpoint>
          <Trackpoint>
            <Time>2019-08-01T13:40:10.000Z</Time>
            <Position>
              <LatitudeDegrees>40.73843649588525295257568359375</LatitudeDegrees>
              <LongitudeDegrees>-4.04445226304233074188232421875</LongitudeDegrees>
            </Position>
            <AltitudeMeters>1253.4000244140625</AltitudeMeters>
            <DistanceMeters>69313.646395674</DistanceMeters>
          </Trackpoint>
          <Trackpoint>
            <Time>2019-08-01T13:40:11.000Z</Time>
            <Position>
              <LatitudeDegrees>40.73849114589393138885498046875</LatitudeDegrees>
              <LongitudeDegrees>-4.0445499122142791748046875</LongitudeDegrees>
            </Position>
            <AltitudeMeters>1252.800048828125</AltitudeMeters>
            <DistanceMeters>69323.883732594</DistanceMeters>
          </Trackpoint>
          <Trackpoint>
            <Time>2019-08-01T13:40:12.000Z</Time>
            <Position>
              <LatitudeDegrees>40.73854093439877033233642578125</LatitudeDegrees>
              <LongitudeDegrees>-4.04464370571076869964599609375</LongitudeDegrees>
            </Position>
            <AltitudeMeters>1252.199951171875</AltitudeMeters>
            <DistanceMeters>69333.541457978</DistanceMeters>
          </Trackpoint>
          <Trackpoint>
            <Time>2019-08-01T13:40:14.000Z</Time>
            <Position>
              <LatitudeDegrees>40.73862575925886631011962890625</LatitudeDegrees>
              <LongitudeDegrees>-4.04482425190508365631103515625</LongitudeDegrees>
            </Position>
            <AltitudeMeters>1250.800048828125</AltitudeMeters>
            <DistanceMeters>69351.4569551</DistanceMeters>
          </Trackpoint>
          <Trackpoint>
            <Time>2019-08-01T13:40:16.000Z</Time>
            <Position>
              <LatitudeDegrees>40.738686360418796539306640625</LatitudeDegrees>
              <LongitudeDegrees>-4.04499775730073451995849609375</LongitudeDegrees>
            </Position>
            <AltitudeMeters>1250</AltitudeMeters>
            <DistanceMeters>69367.56923823</DistanceMeters>
          </Trackpoint>
          <Trackpoint>
            <Time>2019-08-01T13:40:18.000Z</Time>
            <Position>
              <LatitudeDegrees>40.7387301139533519744873046875</LatitudeDegrees>
              <LongitudeDegrees>-4.04515542089939117431640625</LongitudeDegrees>
            </Position>
            <AltitudeMeters>1248.800048828125</AltitudeMeters>
            <DistanceMeters>69381.729175284</DistanceMeters>
          </Trackpoint>
          <Trackpoint>
            <Time>2019-08-01T13:40:20.000Z</Time>
            <Position>
              <LatitudeDegrees>40.738762803375720977783203125</LatitudeDegrees>
              <LongitudeDegrees>-4.045295231044292449951171875</LongitudeDegrees>
            </Position>
            <AltitudeMeters>1247.4000244140625</AltitudeMeters>
            <DistanceMeters>69394.068751816</DistanceMeters>
          </Trackpoint>
          <Trackpoint>
            <Time>2019-08-01T13:40:22.000Z</Time>
            <Position>
              <LatitudeDegrees>40.73878618888556957244873046875</LatitudeDegrees>
              <LongitudeDegrees>-4.04541484080255031585693359375</LongitudeDegrees>
            </Position>
            <AltitudeMeters>1246.4000244140625</AltitudeMeters>
            <DistanceMeters>69404.486211137</DistanceMeters>
          </Trackpoint>
          <Trackpoint>
            <Time>2019-08-01T13:40:24.000Z</Time>
            <Position>
              <LatitudeDegrees>40.7388048805296421051025390625</LatitudeDegrees>
              <LongitudeDegrees>-4.04551626183092594146728515625</LongitudeDegrees>
            </Position>
            <AltitudeMeters>1245.199951171875</AltitudeMeters>
            <DistanceMeters>69413.288373138</DistanceMeters>
          </Trackpoint>
          <Trackpoint>
            <Time>2019-08-01T13:40:26.000Z</Time>
            <Position>
              <LatitudeDegrees>40.73881686665117740631103515625</LatitudeDegrees>
              <LongitudeDegrees>-4.04560192488133907318115234375</LongitudeDegrees>
            </Position>
            <AltitudeMeters>1243.4000244140625</AltitudeMeters>
            <DistanceMeters>69420.634374556</DistanceMeters>
          </Trackpoint>
          <Trackpoint>
            <Time>2019-08-01T13:40:28.000Z</Time>
            <Position>
              <LatitudeDegrees>40.7388199679553508758544921875</LatitudeDegrees>
              <LongitudeDegrees>-4.045675434172153472900390625</LongitudeDegrees>
            </Position>
            <AltitudeMeters>1242.5999755859375</AltitudeMeters>
            <DistanceMeters>69426.843917729</DistanceMeters>
          </Trackpoint>
          <Trackpoint>
            <Time>2019-08-01T13:40:30.000Z</Time>
            <Position>
              <LatitudeDegrees>40.73882357217371463775634765625</LatitudeDegrees>
              <LongitudeDegrees>-4.0457393042743206024169921875</LongitudeDegrees>
            </Position>
            <AltitudeMeters>1241</AltitudeMeters>
            <DistanceMeters>69432.24541539</DistanceMeters>
          </Trackpoint>
          <Trackpoint>
            <Time>2019-08-01T13:40:32.000Z</Time>
            <Position>
              <LatitudeDegrees>40.7388263382017612457275390625</LatitudeDegrees>
              <LongitudeDegrees>-4.045801497995853424072265625</LongitudeDegrees>
            </Position>
            <AltitudeMeters>1239.800048828125</AltitudeMeters>
            <DistanceMeters>69437.498596675</DistanceMeters>
          </Trackpoint>
          <Trackpoint>
            <Time>2019-08-01T13:40:34.000Z</Time>
            <Position>
              <LatitudeDegrees>40.7388296909630298614501953125</LatitudeDegrees>
              <LongitudeDegrees>-4.045863188803195953369140625</LongitudeDegrees>
            </Position>
            <AltitudeMeters>1238.199951171875</AltitudeMeters>
            <DistanceMeters>69442.714689114</DistanceMeters>
          </Trackpoint>
          <Trackpoint>
            <Time>2019-08-01T13:40:36.000Z</Time>
            <Position>
              <LatitudeDegrees>40.73883019387722015380859375</LatitudeDegrees>
              <LongitudeDegrees>-4.04592328704893589019775390625</LongitudeDegrees>
            </Position>
            <AltitudeMeters>1237.199951171875</AltitudeMeters>
            <DistanceMeters>69447.784166164</DistanceMeters>
          </Trackpoint>
          <Trackpoint>
            <Time>2019-08-01T13:40:38.000Z</Time>
            <Position>
              <LatitudeDegrees>40.7388295233249664306640625</LatitudeDegrees>
              <LongitudeDegrees>-4.0459823794662952423095703125</LongitudeDegrees>
            </Position>
            <AltitudeMeters>1235.800048828125</AltitudeMeters>
            <DistanceMeters>69452.767409106</DistanceMeters>
          </Trackpoint>
          <Trackpoint>
            <Time>2019-08-01T13:40:40.000Z</Time>
            <Position>
              <LatitudeDegrees>40.7388306967914104461669921875</LatitudeDegrees>
              <LongitudeDegrees>-4.04604256153106689453125</LongitudeDegrees>
            </Position>
            <AltitudeMeters>1234.800048828125</AltitudeMeters>
            <DistanceMeters>69457.844895516</DistanceMeters>
          </Trackpoint>
          <Trackpoint>
            <Time>2019-08-01T13:40:42.000Z</Time>
            <Position>
              <LatitudeDegrees>40.73883379809558391571044921875</LatitudeDegrees>
              <LongitudeDegrees>-4.04610215686261653900146484375</LongitudeDegrees>
            </Position>
            <AltitudeMeters>1233.800048828125</AltitudeMeters>
            <DistanceMeters>69462.882207777</DistanceMeters>
          </Trackpoint>
          <Trackpoint>
            <Time>2019-08-01T13:40:44.000Z</Time>
            <Position>
              <LatitudeDegrees>40.73883614502847194671630859375</LatitudeDegrees>
              <LongitudeDegrees>-4.04616099782288074493408203125</LongitudeDegrees>
            </Position>
            <AltitudeMeters>1232.4000244140625</AltitudeMeters>
            <DistanceMeters>69467.851841473</DistanceMeters>
          </Trackpoint>
          <Trackpoint>
            <Time>2019-08-01T13:40:46.000Z</Time>
            <Position>
              <LatitudeDegrees>40.7388374023139476776123046875</LatitudeDegrees>
              <LongitudeDegrees>-4.04621749185025691986083984375</LongitudeDegrees>
            </Position>
            <AltitudeMeters>1231.199951171875</AltitudeMeters>
            <DistanceMeters>69472.618357216</DistanceMeters>
          </Trackpoint>
          <Trackpoint>
            <Time>2019-08-01T13:40:48.000Z</Time>
            <Position>
              <LatitudeDegrees>40.73883798904716968536376953125</LatitudeDegrees>
              <LongitudeDegrees>-4.046272896230220794677734375</LongitudeDegrees>
            </Position>
            <AltitudeMeters>1230.199951171875</AltitudeMeters>
            <DistanceMeters>69477.291121371</DistanceMeters>
          </Trackpoint>
          <Trackpoint>
            <Time>2019-08-01T13:40:50.000Z</Time>
            <Position>
              <LatitudeDegrees>40.738839916884899139404296875</LatitudeDegrees>
              <LongitudeDegrees>-4.04632813297212123870849609375</LongitudeDegrees>
            </Position>
            <AltitudeMeters>1229</AltitudeMeters>
            <DistanceMeters>69481.954213057</DistanceMeters>
          </Trackpoint>
          <Trackpoint>
            <Time>2019-08-01T13:40:52.000Z</Time>
            <Position>
              <LatitudeDegrees>40.73884301818907260894775390625</LatitudeDegrees>
              <LongitudeDegrees>-4.0463845431804656982421875</LongitudeDegrees>
            </Position>
            <AltitudeMeters>1227.800048828125</AltitudeMeters>
            <DistanceMeters>69486.724516259</DistanceMeters>
          </Trackpoint>
          <Trackpoint>
            <Time>2019-08-01T13:40:54.000Z</Time>
            <Position>
              <LatitudeDegrees>40.7388456165790557861328125</LatitudeDegrees>
              <LongitudeDegrees>-4.046440534293651580810546875</LongitudeDegrees>
            </Position>
            <AltitudeMeters>1226.800048828125</AltitudeMeters>
            <DistanceMeters>69491.454899904</DistanceMeters>
          </Trackpoint>
          <Trackpoint>
            <Time>2019-08-01T13:40:56.000Z</Time>
            <Position>
              <LatitudeDegrees>40.7388477958738803863525390625</LatitudeDegrees>
              <LongitudeDegrees>-4.04649711214005947113037109375</LongitudeDegrees>
            </Position>
            <AltitudeMeters>1225.5999755859375</AltitudeMeters>
            <DistanceMeters>69496.230878662</DistanceMeters>
          </Trackpoint>
          <Trackpoint>
            <Time>2019-08-01T13:40:58.000Z</Time>
            <Position>
              <LatitudeDegrees>40.7388484664261341094970703125</LatitudeDegrees>
              <LongitudeDegrees>-4.04655226506292819976806640625</LongitudeDegrees>
            </Position>
            <AltitudeMeters>1224.5999755859375</AltitudeMeters>
            <DistanceMeters>69500.882336838</DistanceMeters>
          </Trackpoint>
          <Trackpoint>
            <Time>2019-08-01T13:41:00.000Z</Time>
            <Position>
              <LatitudeDegrees>40.73884871788322925567626953125</LatitudeDegrees>
              <LongitudeDegrees>-4.04660557396709918975830078125</LongitudeDegrees>
            </Position>
            <AltitudeMeters>1223.4000244140625</AltitudeMeters>
            <DistanceMeters>69505.377813573</DistanceMeters>
          </Trackpoint>
          <Trackpoint>
            <Time>2019-08-01T13:41:01.000Z</Time>
            <Position>
              <LatitudeDegrees>40.7388491369783878326416015625</LatitudeDegrees>
              <LongitudeDegrees>-4.04663239605724811553955078125</LongitudeDegrees>
            </Position>
            <AltitudeMeters>1222.4000244140625</AltitudeMeters>
            <DistanceMeters>69507.640567061</DistanceMeters>
          </Trackpoint>
          <Trackpoint>
            <Time>2019-08-01T13:41:03.000Z</Time>
            <Position>
              <LatitudeDegrees>40.73884989134967327117919921875</LatitudeDegrees>
              <LongitudeDegrees>-4.04668604023754596710205078125</LongitudeDegrees>
            </Position>
            <AltitudeMeters>1221.199951171875</AltitudeMeters>
            <DistanceMeters>69512.166074035</DistanceMeters>
          </Trackpoint>
          <Trackpoint>
            <Time>2019-08-01T13:41:05.000Z</Time>
            <Position>
              <LatitudeDegrees>40.738851316273212432861328125</LatitudeDegrees>
              <LongitudeDegrees>-4.046738259494304656982421875</LongitudeDegrees>
            </Position>
            <AltitudeMeters>1219.800048828125</AltitudeMeters>
            <DistanceMeters>69516.572281515</DistanceMeters>
          </Trackpoint>
          <Trackpoint>
            <Time>2019-08-01T13:41:07.000Z</Time>
            <Position>
              <LatitudeDegrees>40.7388545013964176177978515625</LatitudeDegrees>
              <LongitudeDegrees>-4.0467900596559047698974609375</LongitudeDegrees>
            </Position>
            <AltitudeMeters>1218.4000244140625</AltitudeMeters>
            <DistanceMeters>69520.955887641</DistanceMeters>
          </Trackpoint>
          <Trackpoint>
            <Time>2019-08-01T13:41:09.000Z</Time>
            <Position>
              <LatitudeDegrees>40.7388558425009250640869140625</LatitudeDegrees>
              <LongitudeDegrees>-4.0468416921794414520263671875</LongitudeDegrees>
            </Position>
            <AltitudeMeters>1217.199951171875</AltitudeMeters>
            <DistanceMeters>69525.312631917</DistanceMeters>
          </Trackpoint>
          <Trackpoint>
            <Time>2019-08-01T13:41:11.000Z</Time>
            <Position>
              <LatitudeDegrees>40.73885567486286163330078125</LatitudeDegrees>
              <LongitudeDegrees>-4.0468943305313587188720703125</LongitudeDegrees>
            </Position>
            <AltitudeMeters>1215.800048828125</AltitudeMeters>
            <DistanceMeters>69529.751508667</DistanceMeters>
          </Trackpoint>
          <Trackpoint>
            <Time>2019-08-01T13:41:13.000Z</Time>
            <Position>
              <LatitudeDegrees>40.73885676451027393341064453125</LatitudeDegrees>
              <LongitudeDegrees>-4.04694713652133941650390625</LongitudeDegrees>
            </Position>
            <AltitudeMeters>1215</AltitudeMeters>
            <DistanceMeters>69534.206630217</DistanceMeters>
          </Trackpoint>
          <Trackpoint>
            <Time>2019-08-01T13:41:15.000Z</Time>
            <Position>
              <LatitudeDegrees>40.7388558425009250640869140625</LatitudeDegrees>
              <LongitudeDegrees>-4.04700321145355701446533203125</LongitudeDegrees>
            </Position>
            <AltitudeMeters>1213.5999755859375</AltitudeMeters>
            <DistanceMeters>69538.937968242</DistanceMeters>
          </Trackpoint>
          <Trackpoint>
            <Time>2019-08-01T13:41:17.000Z</Time>
            <Position>
              <LatitudeDegrees>40.738859362900257110595703125</LatitudeDegrees>
              <LongitudeDegrees>-4.0470549277961254119873046875</LongitudeDegrees>
            </Position>
            <AltitudeMeters>1212.199951171875</AltitudeMeters>
            <DistanceMeters>69543.316421426</DistanceMeters>
          </Trackpoint>
          <Trackpoint>
            <Time>2019-08-01T13:41:19.000Z</Time>
            <Position>
              <LatitudeDegrees>40.73886279948055744171142578125</LatitudeDegrees>
              <LongitudeDegrees>-4.04710463248193264007568359375</LongitudeDegrees>
            </Position>
            <AltitudeMeters>1210.800048828125</AltitudeMeters>
            <DistanceMeters>69547.525579297</DistanceMeters>
          </Trackpoint>
          <Trackpoint>
            <Time>2019-08-01T13:41:22.000Z</Time>
            <Position>
              <LatitudeDegrees>40.73886196129024028778076171875</LatitudeDegrees>
              <LongitudeDegrees>-4.0471783094108104705810546875</LongitudeDegrees>
            </Position>
            <AltitudeMeters>1209.199951171875</AltitudeMeters>
            <DistanceMeters>69553.739483615</DistanceMeters>
          </Trackpoint>
          <Trackpoint>
            <Time>2019-08-01T13:41:24.000Z</Time>
            <Position>
              <LatitudeDegrees>40.73886246420443058013916015625</LatitudeDegrees>
              <LongitudeDegrees>-4.0472229011356830596923828125</LongitudeDegrees>
            </Position>
            <AltitudeMeters>1207.800048828125</AltitudeMeters>
            <DistanceMeters>69557.499948974</DistanceMeters>
          </Trackpoint>
          <Trackpoint>
            <Time>2019-08-01T13:41:26.000Z</Time>
            <Position>
              <LatitudeDegrees>40.73886414058506488800048828125</LatitudeDegrees>
              <LongitudeDegrees>-4.0472651459276676177978515625</LongitudeDegrees>
            </Position>
            <AltitudeMeters>1206.4000244140625</AltitudeMeters>
            <DistanceMeters>69561.065667363</DistanceMeters>
          </Trackpoint>
          <Trackpoint>
            <Time>2019-08-01T13:41:28.000Z</Time>
            <Position>
              <LatitudeDegrees>40.738864727318286895751953125</LatitudeDegrees>
              <LongitudeDegrees>-4.04730579815804958343505859375</LongitudeDegrees>
            </Position>
            <AltitudeMeters>1205.199951171875</AltitudeMeters>
            <DistanceMeters>69564.491904275</DistanceMeters>
          </Trackpoint>
          <Trackpoint>
            <Time>2019-08-01T13:41:31.000Z</Time>
            <Position>
              <LatitudeDegrees>40.738864056766033172607421875</LatitudeDegrees>
              <LongitudeDegrees>-4.04736564494669437408447265625</LongitudeDegrees>
            </Position>
            <AltitudeMeters>1203.800048828125</AltitudeMeters>
            <DistanceMeters>69569.539960904</DistanceMeters>
          </Trackpoint>
          <Trackpoint>
            <Time>2019-08-01T13:41:33.000Z</Time>
            <Position>
              <LatitudeDegrees>40.73886481113731861114501953125</LatitudeDegrees>
              <LongitudeDegrees>-4.047407805919647216796875</LongitudeDegrees>
            </Position>
            <AltitudeMeters>1202.800048828125</AltitudeMeters>
            <DistanceMeters>69573.095534981</DistanceMeters>
          </Trackpoint>
          <Trackpoint>
            <Time>2019-08-01T13:41:36.000Z</Time>
            <Position>
              <LatitudeDegrees>40.7388659007847309112548828125</LatitudeDegrees>
              <LongitudeDegrees>-4.04746941290795803070068359375</LongitudeDegrees>
            </Position>
            <AltitudeMeters>1201.5999755859375</AltitudeMeters>
            <DistanceMeters>69578.29168053</DistanceMeters>
          </Trackpoint>
          <Trackpoint>
            <Time>2019-08-01T13:41:38.000Z</Time>
            <Position>
              <LatitudeDegrees>40.73886548168957233428955078125</LatitudeDegrees>
              <LongitudeDegrees>-4.04751081950962543487548828125</LongitudeDegrees>
            </Position>
            <AltitudeMeters>1200.4000244140625</AltitudeMeters>
            <DistanceMeters>69581.783184963</DistanceMeters>
          </Trackpoint>
          <Trackpoint>
            <Time>2019-08-01T13:41:40.000Z</Time>
            <Position>
              <LatitudeDegrees>40.73886380530893802642822265625</LatitudeDegrees>
              <LongitudeDegrees>-4.0475518070161342620849609375</LongitudeDegrees>
            </Position>
            <AltitudeMeters>1199.4000244140625</AltitudeMeters>
            <DistanceMeters>69585.243514624</DistanceMeters>
          </Trackpoint>
          <Trackpoint>
            <Time>2019-08-01T13:41:42.000Z</Time>
            <Position>
              <LatitudeDegrees>40.73886598460376262664794921875</LatitudeDegrees>
              <LongitudeDegrees>-4.04759162105619907379150390625</LongitudeDegrees>
            </Position>
            <AltitudeMeters>1198.199951171875</AltitudeMeters>
            <DistanceMeters>69588.608587559</DistanceMeters>
          </Trackpoint>
          <Trackpoint>
            <Time>2019-08-01T13:41:45.000Z</Time>
            <Position>
              <LatitudeDegrees>40.73886715807020664215087890625</LatitudeDegrees>
              <LongitudeDegrees>-4.04765121638774871826171875</LongitudeDegrees>
            </Position>
            <AltitudeMeters>1196.800048828125</AltitudeMeters>
            <DistanceMeters>69593.636030644</DistanceMeters>
          </Trackpoint>
          <Trackpoint>
            <Time>2019-08-01T13:41:47.000Z</Time>
            <Position>
              <LatitudeDegrees>40.73886933736503124237060546875</LatitudeDegrees>
              <LongitudeDegrees>-4.0476880967617034912109375</LongitudeDegrees>
            </Position>
            <AltitudeMeters>1195.800048828125</AltitudeMeters>
            <DistanceMeters>69596.756034234</DistanceMeters>
          </Trackpoint>
          <Trackpoint>
            <Time>2019-08-01T13:41:50.000Z</Time>
            <Position>
              <LatitudeDegrees>40.73886967264115810394287109375</LatitudeDegrees>
              <LongitudeDegrees>-4.04774433933198451995849609375</LongitudeDegrees>
            </Position>
            <AltitudeMeters>1194.800048828125</AltitudeMeters>
            <DistanceMeters>69601.499761724</DistanceMeters>
          </Trackpoint>
          <Trackpoint>
            <Time>2019-08-01T13:41:55.000Z</Time>
            <Position>
              <LatitudeDegrees>40.73886615224182605743408203125</LatitudeDegrees>
              <LongitudeDegrees>-4.04784358106553554534912109375</LongitudeDegrees>
            </Position>
            <AltitudeMeters>1193.5999755859375</AltitudeMeters>
            <DistanceMeters>69609.878294667</DistanceMeters>
          </Trackpoint>
          <Trackpoint>
            <Time>2019-08-01T13:42:02.000Z</Time>
            <Position>
              <LatitudeDegrees>40.73887218721210956573486328125</LatitudeDegrees>
              <LongitudeDegrees>-4.04797601513564586639404296875</LongitudeDegrees>
            </Position>
            <AltitudeMeters>1192.5999755859375</AltitudeMeters>
            <DistanceMeters>69621.067261546</DistanceMeters>
          </Trackpoint>
          <Trackpoint>
            <Time>2019-08-01T13:42:22.000Z</Time>
            <Position>
              <LatitudeDegrees>40.73887939564883708953857421875</LatitudeDegrees>
              <LongitudeDegrees>-4.0483400411903858184814453125</LongitudeDegrees>
            </Position>
            <AltitudeMeters>1193.5999755859375</AltitudeMeters>
            <DistanceMeters>69651.777067044</DistanceMeters>
          </Trackpoint>
          <Trackpoint>
            <Time>2019-08-01T13:42:27.000Z</Time>
            <Position>
              <LatitudeDegrees>40.7388809882104396820068359375</LatitudeDegrees>
              <LongitudeDegrees>-4.0484248660504817962646484375</LongitudeDegrees>
            </Position>
            <AltitudeMeters>1194.5999755859375</AltitudeMeters>
            <DistanceMeters>69658.932521847</DistanceMeters>
          </Trackpoint>
          <Trackpoint>
            <Time>2019-08-01T13:42:33.000Z</Time>
            <Position>
              <LatitudeDegrees>40.73888107202947139739990234375</LatitudeDegrees>
              <LongitudeDegrees>-4.04853894375264644622802734375</LongitudeDegrees>
            </Position>
            <AltitudeMeters>1195.800048828125</AltitudeMeters>
            <DistanceMeters>69668.552774103</DistanceMeters>
          </Trackpoint>
          <Trackpoint>
            <Time>2019-08-01T13:42:41.000Z</Time>
            <Position>
              <LatitudeDegrees>40.738880150020122528076171875</LatitudeDegrees>
              <LongitudeDegrees>-4.04870272614061832427978515625</LongitudeDegrees>
            </Position>
            <AltitudeMeters>1196.5999755859375</AltitudeMeters>
            <DistanceMeters>69682.36535732</DistanceMeters>
          </Trackpoint>
          <Trackpoint>
            <Time>2019-08-01T13:42:57.000Z</Time>
            <Position>
              <LatitudeDegrees>40.73887520469725131988525390625</LatitudeDegrees>
              <LongitudeDegrees>-4.0489975176751613616943359375</LongitudeDegrees>
            </Position>
            <AltitudeMeters>1197.5999755859375</AltitudeMeters>
            <DistanceMeters>69707.232052811</DistanceMeters>
          </Trackpoint>
          <Trackpoint>
            <Time>2019-08-01T13:43:06.000Z</Time>
            <Position>
              <LatitudeDegrees>40.73886112309992313385009765625</LatitudeDegrees>
              <LongitudeDegrees>-4.0491686761379241943359375</LongitudeDegrees>
            </Position>
            <AltitudeMeters>1198.5999755859375</AltitudeMeters>
            <DistanceMeters>69721.750940665</DistanceMeters>
          </Trackpoint>
          <Trackpoint>
            <Time>2019-08-01T13:43:12.000Z</Time>
            <Position>
              <LatitudeDegrees>40.73884050361812114715576171875</LatitudeDegrees>
              <LongitudeDegrees>-4.0492845140397548675537109375</LongitudeDegrees>
            </Position>
            <AltitudeMeters>1199.5999755859375</AltitudeMeters>
            <DistanceMeters>69731.786049658</DistanceMeters>
          </Trackpoint>
          <Trackpoint>
            <Time>2019-08-01T13:43:17.000Z</Time>
            <Position>
              <LatitudeDegrees>40.73882474564015865325927734375</LatitudeDegrees>
              <LongitudeDegrees>-4.04937311075627803802490234375</LongitudeDegrees>
            </Position>
            <AltitudeMeters>1200.5999755859375</AltitudeMeters>
            <DistanceMeters>69739.460302623</DistanceMeters>
          </Trackpoint>
          <Trackpoint>
            <Time>2019-08-01T13:43:24.000Z</Time>
            <Position>
              <LatitudeDegrees>40.7388053834438323974609375</LatitudeDegrees>
              <LongitudeDegrees>-4.04949213378131389617919921875</LongitudeDegrees>
            </Position>
            <AltitudeMeters>1201.800048828125</AltitudeMeters>
            <DistanceMeters>69749.726706679</DistanceMeters>
          </Trackpoint>
          <Trackpoint>
            <Time>2019-08-01T13:43:30.000Z</Time>
            <Position>
              <LatitudeDegrees>40.738790296018123626708984375</LatitudeDegrees>
              <LongitudeDegrees>-4.0495978295803070068359375</LongitudeDegrees>
            </Position>
            <AltitudeMeters>1202.800048828125</AltitudeMeters>
            <DistanceMeters>69758.797154655</DistanceMeters>
          </Trackpoint>
          <Trackpoint>
            <Time>2019-08-01T13:43:35.000Z</Time>
            <Position>
              <LatitudeDegrees>40.7387743704020977020263671875</LatitudeDegrees>
              <LongitudeDegrees>-4.049689359962940216064453125</LongitudeDegrees>
            </Position>
            <AltitudeMeters>1204</AltitudeMeters>
            <DistanceMeters>69766.716934385</DistanceMeters>
          </Trackpoint>
          <Trackpoint>
            <Time>2019-08-01T13:43:39.000Z</Time>
            <Position>
              <LatitudeDegrees>40.7387606240808963775634765625</LatitudeDegrees>
              <LongitudeDegrees>-4.049759767949581146240234375</LongitudeDegrees>
            </Position>
            <AltitudeMeters>1205</AltitudeMeters>
            <DistanceMeters>69772.848919245</DistanceMeters>
          </Trackpoint>
          <Trackpoint>
            <Time>2019-08-01T13:43:43.000Z</Time>
            <Position>
              <LatitudeDegrees>40.73874779976904392242431640625</LatitudeDegrees>
              <LongitudeDegrees>-4.04983210377395153045654296875</LongitudeDegrees>
            </Position>
            <AltitudeMeters>1206.4000244140625</AltitudeMeters>
            <DistanceMeters>69779.113479263</DistanceMeters>
          </Trackpoint>
          <Trackpoint>
            <Time>2019-08-01T13:43:47.000Z</Time>
            <Position>
              <LatitudeDegrees>40.7387344725430011749267578125</LatitudeDegrees>
              <LongitudeDegrees>-4.04990536160767078399658203125</LongitudeDegrees>
            </Position>
            <AltitudeMeters>1207.4000244140625</AltitudeMeters>
            <DistanceMeters>69785.467491522</DistanceMeters>
          </Trackpoint>
          <Trackpoint>
            <Time>2019-08-01T13:43:52.000Z</Time>
            <Position>
              <LatitudeDegrees>40.738718546926975250244140625</LatitudeDegrees>
              <LongitudeDegrees>-4.0499973110854625701904296875</LongitudeDegrees>
            </Position>
            <AltitudeMeters>1208.4000244140625</AltitudeMeters>
            <DistanceMeters>69793.422538707</DistanceMeters>
          </Trackpoint>
          <Trackpoint>
            <Time>2019-08-01T13:43:58.000Z</Time>
            <Position>
              <LatitudeDegrees>40.73870144784450531005859375</LatitudeDegrees>
              <LongitudeDegrees>-4.05010753311216831207275390625</LongitudeDegrees>
            </Position>
            <AltitudeMeters>1209.5999755859375</AltitudeMeters>
            <DistanceMeters>69802.91094543</DistanceMeters>
          </Trackpoint>
          <Trackpoint>
            <Time>2019-08-01T13:44:08.000Z</Time>
            <Position>
              <LatitudeDegrees>40.738662891089916229248046875</LatitudeDegrees>
              <LongitudeDegrees>-4.050300903618335723876953125</LongitudeDegrees>
            </Position>
            <AltitudeMeters>1210.800048828125</AltitudeMeters>
            <DistanceMeters>69819.773569103</DistanceMeters>
          </Trackpoint>
          <Trackpoint>
            <Time>2019-08-01T13:44:18.000Z</Time>
            <Position>
              <LatitudeDegrees>40.73862894438207149505615234375</LatitudeDegrees>
              <LongitudeDegrees>-4.0504901669919490814208984375</LongitudeDegrees>
            </Position>
            <AltitudeMeters>1211.800048828125</AltitudeMeters>
            <DistanceMeters>69836.176071887</DistanceMeters>
          </Trackpoint>
          <Trackpoint>
            <Time>2019-08-01T13:44:25.000Z</Time>
            <Position>
              <LatitudeDegrees>40.73860245756804943084716796875</LatitudeDegrees>
              <LongitudeDegrees>-4.0506170690059661865234375</LongitudeDegrees>
            </Position>
            <AltitudeMeters>1212.800048828125</AltitudeMeters>
            <DistanceMeters>69847.27672156</DistanceMeters>
          </Trackpoint>
          <Trackpoint>
            <Time>2019-08-01T13:44:33.000Z</Time>
            <Position>
              <LatitudeDegrees>40.738577730953693389892578125</LatitudeDegrees>
              <LongitudeDegrees>-4.05076391994953155517578125</LongitudeDegrees>
            </Position>
            <AltitudeMeters>1214</AltitudeMeters>
            <DistanceMeters>69859.963410747</DistanceMeters>
          </Trackpoint>
          <Trackpoint>
            <Time>2019-08-01T13:44:48.000Z</Time>
            <Position>
              <LatitudeDegrees>40.73855970986187458038330078125</LatitudeDegrees>
              <LongitudeDegrees>-4.05105988495051860809326171875</LongitudeDegrees>
            </Position>
            <AltitudeMeters>1212.5999755859375</AltitudeMeters>
            <DistanceMeters>69885.003626161</DistanceMeters>
          </Trackpoint>
          <Trackpoint>
            <Time>2019-08-01T13:44:52.000Z</Time>
            <Position>
              <LatitudeDegrees>40.73856876231729984283447265625</LatitudeDegrees>
              <LongitudeDegrees>-4.05114521272480487823486328125</LongitudeDegrees>
            </Position>
            <AltitudeMeters>1211.4000244140625</AltitudeMeters>
            <DistanceMeters>69892.269908358</DistanceMeters>
          </Trackpoint>
          <Trackpoint>
            <Time>2019-08-01T13:44:58.000Z</Time>
            <Position>
              <LatitudeDegrees>40.7385618053376674652099609375</LatitudeDegrees>
              <LongitudeDegrees>-4.051278568804264068603515625</LongitudeDegrees>
            </Position>
            <AltitudeMeters>1209.800048828125</AltitudeMeters>
            <DistanceMeters>69903.543297195</DistanceMeters>
          </Trackpoint>
          <Trackpoint>
            <Time>2019-08-01T13:45:01.000Z</Time>
            <Position>
              <LatitudeDegrees>40.73856976814568042755126953125</LatitudeDegrees>
              <LongitudeDegrees>-4.0513327158987522125244140625</LongitudeDegrees>
            </Position>
            <AltitudeMeters>1208.4000244140625</AltitudeMeters>
            <DistanceMeters>69908.194755371</DistanceMeters>
          </Trackpoint>
          <Trackpoint>
            <Time>2019-08-01T13:45:03.000Z</Time>
            <Position>
              <LatitudeDegrees>40.73857211507856845855712890625</LatitudeDegrees>
              <LongitudeDegrees>-4.05135978944599628448486328125</LongitudeDegrees>
            </Position>
            <AltitudeMeters>1207.800048828125</AltitudeMeters>
            <DistanceMeters>69910.49510856</DistanceMeters>
          </Trackpoint>
          <Trackpoint>
            <Time>2019-08-01T13:45:04.000Z</Time>
            <Position>
              <LatitudeDegrees>40.73857412673532962799072265625</LatitudeDegrees>
              <LongitudeDegrees>-4.05137554742395877838134765625</LongitudeDegrees>
            </Position>
            <AltitudeMeters>1207.4000244140625</AltitudeMeters>
            <DistanceMeters>69911.845691931</DistanceMeters>
          </Trackpoint>
          <Trackpoint>
            <Time>2019-08-01T13:45:07.000Z</Time>
            <Position>
              <LatitudeDegrees>40.73859340511262416839599609375</LatitudeDegrees>
              <LongitudeDegrees>-4.05143313109874725341796875</LongitudeDegrees>
            </Position>
            <AltitudeMeters>1206.199951171875</AltitudeMeters>
            <DistanceMeters>69917.15529631</DistanceMeters>
          </Trackpoint>
          <Trackpoint>
            <Time>2019-08-01T13:45:09.000Z</Time>
            <Position>
              <LatitudeDegrees>40.73860648088157176971435546875</LatitudeDegrees>
              <LongitudeDegrees>-4.05147462151944637298583984375</LongitudeDegrees>
            </Position>
            <AltitudeMeters>1205.199951171875</AltitudeMeters>
            <DistanceMeters>69920.946850305</DistanceMeters>
          </Trackpoint>
          <Trackpoint>
            <Time>2019-08-01T13:45:12.000Z</Time>
            <Position>
              <LatitudeDegrees>40.7386362366378307342529296875</LatitudeDegrees>
              <LongitudeDegrees>-4.0515335462987422943115234375</LongitudeDegrees>
            </Position>
            <AltitudeMeters>1204.199951171875</AltitudeMeters>
            <DistanceMeters>69926.918430655</DistanceMeters>
          </Trackpoint>
          <Trackpoint>
            <Time>2019-08-01T13:45:16.000Z</Time>
            <Position>
              <LatitudeDegrees>40.73868543840944766998291015625</LatitudeDegrees>
              <LongitudeDegrees>-4.051608145236968994140625</LongitudeDegrees>
            </Position>
            <AltitudeMeters>1203</AltitudeMeters>
            <DistanceMeters>69935.259156578</DistanceMeters>
          </Trackpoint>
          <Trackpoint>
            <Time>2019-08-01T13:45:20.000Z</Time>
            <Position>
              <LatitudeDegrees>40.73874662630259990692138671875</LatitudeDegrees>
              <LongitudeDegrees>-4.0516632981598377227783203125</LongitudeDegrees>
            </Position>
            <AltitudeMeters>1201.5999755859375</AltitudeMeters>
            <DistanceMeters>69943.505701654</DistanceMeters>
          </Trackpoint>
          <Trackpoint>
            <Time>2019-08-01T13:45:24.000Z</Time>
            <Position>
              <LatitudeDegrees>40.7388209737837314605712890625</LatitudeDegrees>
              <LongitudeDegrees>-4.05170495621860027313232421875</LongitudeDegrees>
            </Position>
            <AltitudeMeters>1200.4000244140625</AltitudeMeters>
            <DistanceMeters>69952.495148473</DistanceMeters>
          </Trackpoint>
          <Trackpoint>
            <Time>2019-08-01T13:45:27.000Z</Time>
            <Position>
              <LatitudeDegrees>40.738874785602092742919921875</LatitudeDegrees>
              <LongitudeDegrees>-4.0517194569110870361328125</LongitudeDegrees>
            </Position>
            <AltitudeMeters>1199</AltitudeMeters>
            <DistanceMeters>69958.607959309</DistanceMeters>
          </Trackpoint>
          <Trackpoint>
            <Time>2019-08-01T13:45:31.000Z</Time>
            <Position>
              <LatitudeDegrees>40.738956592977046966552734375</LatitudeDegrees>
              <LongitudeDegrees>-4.0517275035381317138671875</LongitudeDegrees>
            </Position>
            <AltitudeMeters>1197.5999755859375</AltitudeMeters>
            <DistanceMeters>69967.739428298</DistanceMeters>
          </Trackpoint>
          <Trackpoint>
            <Time>2019-08-01T13:45:34.000Z</Time>
            <Position>
              <LatitudeDegrees>40.739024989306926727294921875</LatitudeDegrees>
              <LongitudeDegrees>-4.0517102368175983428955078125</LongitudeDegrees>
            </Position>
            <AltitudeMeters>1196.4000244140625</AltitudeMeters>
            <DistanceMeters>69975.489787548</DistanceMeters>
          </Trackpoint>
          <Trackpoint>
            <Time>2019-08-01T13:45:39.000Z</Time>
            <Position>
              <LatitudeDegrees>40.73913889937102794647216796875</LatitudeDegrees>
              <LongitudeDegrees>-4.05165047384798526763916015625</LongitudeDegrees>
            </Position>
            <AltitudeMeters>1195.4000244140625</AltitudeMeters>
            <DistanceMeters>69989.133320661</DistanceMeters>
          </Trackpoint>
          <Trackpoint>
            <Time>2019-08-01T13:45:42.000Z</Time>
            <Position>
              <LatitudeDegrees>40.739206373691558837890625</LatitudeDegrees>
              <LongitudeDegrees>-4.0516089834272861480712890625</LongitudeDegrees>
            </Position>
            <AltitudeMeters>1194.199951171875</AltitudeMeters>
            <DistanceMeters>69997.418647518</DistanceMeters>
          </Trackpoint>
          <Trackpoint>
            <Time>2019-08-01T13:46:06.000Z</Time>
            <Position>
              <LatitudeDegrees>40.73970015160739421844482421875</LatitudeDegrees>
              <LongitudeDegrees>-4.05131335370242595672607421875</LongitudeDegrees>
            </Position>
            <AltitudeMeters>1193.5999755859375</AltitudeMeters>
            <DistanceMeters>70057.767569391</DistanceMeters>
          </Trackpoint>
          <Trackpoint>
            <Time>2019-08-01T13:46:10.000Z</Time>
            <Position>
              <LatitudeDegrees>40.73979771696031093597412109375</LatitudeDegrees>
              <LongitudeDegrees>-4.051350317895412445068359375</LongitudeDegrees>
            </Position>
            <AltitudeMeters>1192.5999755859375</AltitudeMeters>
            <DistanceMeters>70069.064962916</DistanceMeters>
          </Trackpoint>
          <Trackpoint>
            <Time>2019-08-01T13:46:13.000Z</Time>
            <Position>
              <LatitudeDegrees>40.73986284434795379638671875</LatitudeDegrees>
              <LongitudeDegrees>-4.05139289796352386474609375</LongitudeDegrees>
            </Position>
            <AltitudeMeters>1191.5999755859375</AltitudeMeters>
            <DistanceMeters>70077.153963714</DistanceMeters>
          </Trackpoint>
          <Trackpoint>
            <Time>2019-08-01T13:46:17.000Z</Time>
            <Position>
              <LatitudeDegrees>40.7399401254951953887939453125</LatitudeDegrees>
              <LongitudeDegrees>-4.05145115219056606292724609375</LongitudeDegrees>
            </Position>
            <AltitudeMeters>1190.4000244140625</AltitudeMeters>
            <DistanceMeters>70087.05955863</DistanceMeters>
          </Trackpoint>
          <Trackpoint>
            <Time>2019-08-01T13:46:21.000Z</Time>
            <Position>
              <LatitudeDegrees>40.74001095257699489593505859375</LatitudeDegrees>
              <LongitudeDegrees>-4.05151988379657268524169921875</LongitudeDegrees>
            </Position>
            <AltitudeMeters>1189</AltitudeMeters>
            <DistanceMeters>70096.844542051</DistanceMeters>
          </Trackpoint>
          <Trackpoint>
            <Time>2019-08-01T13:46:25.000Z</Time>
            <Position>
              <LatitudeDegrees>40.7400886528193950653076171875</LatitudeDegrees>
              <LongitudeDegrees>-4.0515811555087566375732421875</LongitudeDegrees>
            </Position>
            <AltitudeMeters>1188</AltitudeMeters>
            <DistanceMeters>70106.918270212</DistanceMeters>
          </Trackpoint>
          <Trackpoint>
            <Time>2019-08-01T13:46:27.000Z</Time>
            <Position>
              <LatitudeDegrees>40.74012880213558673858642578125</LatitudeDegrees>
              <LongitudeDegrees>-4.0516177006065845489501953125</LongitudeDegrees>
            </Position>
            <AltitudeMeters>1186.800048828125</AltitudeMeters>
            <DistanceMeters>70112.347282048</DistanceMeters>
          </Trackpoint>
          <Trackpoint>
            <Time>2019-08-01T13:46:30.000Z</Time>
            <Position>
              <LatitudeDegrees>40.7401920855045318603515625</LatitudeDegrees>
              <LongitudeDegrees>-4.05166757293045520782470703125</LongitudeDegrees>
            </Position>
            <AltitudeMeters>1185.4000244140625</AltitudeMeters>
            <DistanceMeters>70120.551560799</DistanceMeters>
          </Trackpoint>
          <Trackpoint>
            <Time>2019-08-01T13:46:35.000Z</Time>
            <Position>
              <LatitudeDegrees>40.74030599556863307952880859375</LatitudeDegrees>
              <LongitudeDegrees>-4.05173647217452526092529296875</LongitudeDegrees>
            </Position>
            <AltitudeMeters>1184.199951171875</AltitudeMeters>
            <DistanceMeters>70134.497520301</DistanceMeters>
          </Trackpoint>
          <Trackpoint>
            <Time>2019-08-01T13:46:38.000Z</Time>
            <Position>
              <LatitudeDegrees>40.74038453400135040283203125</LatitudeDegrees>
              <LongitudeDegrees>-4.05176103115081787109375</LongitudeDegrees>
            </Position>
            <AltitudeMeters>1182.800048828125</AltitudeMeters>
            <DistanceMeters>70143.480937979</DistanceMeters>
          </Trackpoint>
          <Trackpoint>
            <Time>2019-08-01T13:46:41.000Z</Time>
            <Position>
              <LatitudeDegrees>40.74046256951987743377685546875</LatitudeDegrees>
              <LongitudeDegrees>-4.0517623722553253173828125</LongitudeDegrees>
            </Position>
            <AltitudeMeters>1181.800048828125</AltitudeMeters>
            <DistanceMeters>70152.166400466</DistanceMeters>
          </Trackpoint>
          <Trackpoint>
            <Time>2019-08-01T13:46:44.000Z</Time>
            <Position>
              <LatitudeDegrees>40.74054588563740253448486328125</LatitudeDegrees>
              <LongitudeDegrees>-4.05174292623996734619140625</LongitudeDegrees>
            </Position>
            <AltitudeMeters>1180.4000244140625</AltitudeMeters>
            <DistanceMeters>70161.583638955</DistanceMeters>
          </Trackpoint>
          <Trackpoint>
            <Time>2019-08-01T13:46:48.000Z</Time>
            <Position>
              <LatitudeDegrees>40.74067479930818080902099609375</LatitudeDegrees>
              <LongitudeDegrees>-4.051699005067348480224609375</LongitudeDegrees>
            </Position>
            <AltitudeMeters>1179.199951171875</AltitudeMeters>
            <DistanceMeters>70176.402323072</DistanceMeters>
          </Trackpoint>
          <Trackpoint>
            <Time>2019-08-01T13:46:49.000Z</Time>
            <Position>
              <LatitudeDegrees>40.740713439881801605224609375</LatitudeDegrees>
              <LongitudeDegrees>-4.051683582365512847900390625</LongitudeDegrees>
            </Position>
            <AltitudeMeters>1178.5999755859375</AltitudeMeters>
            <DistanceMeters>70180.894785744</DistanceMeters>
          </Trackpoint>
          <Trackpoint>
            <Time>2019-08-01T13:46:51.000Z</Time>
            <Position>
              <LatitudeDegrees>40.74079935438930988311767578125</LatitudeDegrees>
              <LongitudeDegrees>-4.05164276249706745147705078125</LongitudeDegrees>
            </Position>
            <AltitudeMeters>1178</AltitudeMeters>
            <DistanceMeters>70191.057758457</DistanceMeters>
          </Trackpoint>
          <Trackpoint>
            <Time>2019-08-01T13:47:00.000Z</Time>
            <Position>
              <LatitudeDegrees>40.7413241453468799591064453125</LatitudeDegrees>
              <LongitudeDegrees>-4.05144075863063335418701171875</LongitudeDegrees>
            </Position>
            <AltitudeMeters>1178</AltitudeMeters>
            <DistanceMeters>70251.901427633</DistanceMeters>
          </Trackpoint>
          <Trackpoint>
            <Time>2019-08-01T13:47:03.000Z</Time>
            <Position>
              <LatitudeDegrees>40.741543583571910858154296875</LatitudeDegrees>
              <LongitudeDegrees>-4.05140890739858150482177734375</LongitudeDegrees>
            </Position>
            <AltitudeMeters>1178.199951171875</AltitudeMeters>
            <DistanceMeters>70276.472770922</DistanceMeters>
          </Trackpoint>
          <Trackpoint>
            <Time>2019-08-01T13:47:06.000Z</Time>
            <Position>
              <LatitudeDegrees>40.74177400209009647369384765625</LatitudeDegrees>
              <LongitudeDegrees>-4.051422737538814544677734375</LongitudeDegrees>
            </Position>
            <AltitudeMeters>1178.800048828125</AltitudeMeters>
            <DistanceMeters>70302.145113226</DistanceMeters>
          </Trackpoint>
          <Trackpoint>
            <Time>2019-08-01T13:47:07.000Z</Time>
            <Position>
              <LatitudeDegrees>40.74184960685670375823974609375</LatitudeDegrees>
              <LongitudeDegrees>-4.0514426864683628082275390625</LongitudeDegrees>
            </Position>
            <AltitudeMeters>1179</AltitudeMeters>
            <DistanceMeters>70310.726504337</DistanceMeters>
          </Trackpoint>
          <Trackpoint>
            <Time>2019-08-01T13:47:08.000Z</Time>
            <Position>
              <LatitudeDegrees>40.74192252941429615020751953125</LatitudeDegrees>
              <LongitudeDegrees>-4.05147227458655834197998046875</LongitudeDegrees>
            </Position>
            <AltitudeMeters>1179</AltitudeMeters>
            <DistanceMeters>70319.217448355</DistanceMeters>
          </Trackpoint>
          <Trackpoint>
            <Time>2019-08-01T13:47:11.000Z</Time>
            <Position>
              <LatitudeDegrees>40.74213065207004547119140625</LatitudeDegrees>
              <LongitudeDegrees>-4.05160009860992431640625</LongitudeDegrees>
            </Position>
            <AltitudeMeters>1179.5999755859375</AltitudeMeters>
            <DistanceMeters>70344.767090743</DistanceMeters>
          </Trackpoint>
          <Trackpoint>
            <Time>2019-08-01T13:47:13.000Z</Time>
            <Position>
              <LatitudeDegrees>40.74226518161594867706298828125</LatitudeDegrees>
              <LongitudeDegrees>-4.051699340343475341796875</LongitudeDegrees>
            </Position>
            <AltitudeMeters>1179.800048828125</AltitudeMeters>
            <DistanceMeters>70361.920399778</DistanceMeters>
          </Trackpoint>
          <Trackpoint>
            <Time>2019-08-01T13:47:17.000Z</Time>
            <Position>
              <LatitudeDegrees>40.74248998425900936126708984375</LatitudeDegrees>
              <LongitudeDegrees>-4.05194870196282863616943359375</LongitudeDegrees>
            </Position>
            <AltitudeMeters>1180.800048828125</AltitudeMeters>
            <DistanceMeters>70394.604340531</DistanceMeters>
          </Trackpoint>
          <Trackpoint>
            <Time>2019-08-01T13:47:18.000Z</Time>
            <Position>
              <LatitudeDegrees>40.74253072030842304229736328125</LatitudeDegrees>
              <LongitudeDegrees>-4.0520277433097362518310546875</LongitudeDegrees>
            </Position>
            <AltitudeMeters>1180.800048828125</AltitudeMeters>
            <DistanceMeters>70402.665384514</DistanceMeters>
          </Trackpoint>
          <Trackpoint>
            <Time>2019-08-01T13:47:22.000Z</Time>
            <Position>
              <LatitudeDegrees>40.7426337338984012603759765625</LatitudeDegrees>
              <LongitudeDegrees>-4.05237634666264057159423828125</LongitudeDegrees>
            </Position>
            <AltitudeMeters>1182</AltitudeMeters>
            <DistanceMeters>70434.219119135</DistanceMeters>
          </Trackpoint>
          <Trackpoint>
            <Time>2019-08-01T13:47:25.000Z</Time>
            <Position>
              <LatitudeDegrees>40.7426826842129230499267578125</LatitudeDegrees>
              <LongitudeDegrees>-4.0526409633457660675048828125</LongitudeDegrees>
            </Position>
            <AltitudeMeters>1183</AltitudeMeters>
            <DistanceMeters>70457.189259897</DistanceMeters>
          </Trackpoint>
          <Trackpoint>
            <Time>2019-08-01T13:47:26.000Z</Time>
            <Position>
              <LatitudeDegrees>40.742689557373523712158203125</LatitudeDegrees>
              <LongitudeDegrees>-4.05272704549133777618408203125</LongitudeDegrees>
            </Position>
            <AltitudeMeters>1183.4000244140625</AltitudeMeters>
            <DistanceMeters>70464.489018872</DistanceMeters>
          </Trackpoint>
          <Trackpoint>
            <Time>2019-08-01T13:47:29.000Z</Time>
            <Position>
              <LatitudeDegrees>40.74267572723329067230224609375</LatitudeDegrees>
              <LongitudeDegrees>-4.0529640018939971923828125</LongitudeDegrees>
            </Position>
            <AltitudeMeters>1184</AltitudeMeters>
            <DistanceMeters>70484.529970448</DistanceMeters>
          </Trackpoint>
          <Trackpoint>
            <Time>2019-08-01T13:47:32.000Z</Time>
            <Position>
              <LatitudeDegrees>40.74263432063162326812744140625</LatitudeDegrees>
              <LongitudeDegrees>-4.05315586365759372711181640625</LongitudeDegrees>
            </Position>
            <AltitudeMeters>1184.800048828125</AltitudeMeters>
            <DistanceMeters>70501.35265144</DistanceMeters>
          </Trackpoint>
          <Trackpoint>
            <Time>2019-08-01T13:47:33.000Z</Time>
            <Position>
              <LatitudeDegrees>40.7426156289875507354736328125</LatitudeDegrees>
              <LongitudeDegrees>-4.0532089211046695709228515625</LongitudeDegrees>
            </Position>
            <AltitudeMeters>1185.199951171875</AltitudeMeters>
            <DistanceMeters>70506.286725426</DistanceMeters>
          </Trackpoint>
          <Trackpoint>
            <Time>2019-08-01T13:47:36.000Z</Time>
            <Position>
              <LatitudeDegrees>40.7425566203892230987548828125</LatitudeDegrees>
              <LongitudeDegrees>-4.05334294773638248443603515625</LongitudeDegrees>
            </Position>
            <AltitudeMeters>1187</AltitudeMeters>
            <DistanceMeters>70519.358685361</DistanceMeters>
          </Trackpoint>
          <Trackpoint>
            <Time>2019-08-01T13:47:39.000Z</Time>
            <Position>
              <LatitudeDegrees>40.74250054545700550079345703125</LatitudeDegrees>
              <LongitudeDegrees>-4.05344688333570957183837890625</LongitudeDegrees>
            </Position>
            <AltitudeMeters>1188</AltitudeMeters>
            <DistanceMeters>70530.118126797</DistanceMeters>
          </Trackpoint>
          <Trackpoint>
            <Time>2019-08-01T13:47:42.000Z</Time>
            <Position>
              <LatitudeDegrees>40.74244606308639049530029296875</LatitudeDegrees>
              <LongitudeDegrees>-4.05352952890098094940185546875</LongitudeDegrees>
            </Position>
            <AltitudeMeters>1189</AltitudeMeters>
            <DistanceMeters>70539.355779226</DistanceMeters>
          </Trackpoint>
          <Trackpoint>
            <Time>2019-08-01T13:47:46.000Z</Time>
            <Position>
              <LatitudeDegrees>40.7423863001167774200439453125</LatitudeDegrees>
              <LongitudeDegrees>-4.0536333806812763214111328125</LongitudeDegrees>
            </Position>
            <AltitudeMeters>1190</AltitudeMeters>
            <DistanceMeters>70550.352632582</DistanceMeters>
          </Trackpoint>
          <Trackpoint>
            <Time>2019-08-01T13:47:49.000Z</Time>
            <Position>
              <LatitudeDegrees>40.7423457317054271697998046875</LatitudeDegrees>
              <LongitudeDegrees>-4.05370119027793407440185546875</LongitudeDegrees>
            </Position>
            <AltitudeMeters>1191.199951171875</AltitudeMeters>
            <DistanceMeters>70557.638151735</DistanceMeters>
          </Trackpoint>
          <Trackpoint>
            <Time>2019-08-01T13:47:50.000Z</Time>
            <Position>
              <LatitudeDegrees>40.7423373498022556304931640625</LatitudeDegrees>
              <LongitudeDegrees>-4.0537203848361968994140625</LongitudeDegrees>
            </Position>
            <AltitudeMeters>1191.5999755859375</AltitudeMeters>
            <DistanceMeters>70559.505130446</DistanceMeters>
          </Trackpoint>
          <Trackpoint>
            <Time>2019-08-01T13:47:51.000Z</Time>
            <Position>
              <LatitudeDegrees>40.74233181774616241455078125</LatitudeDegrees>
              <LongitudeDegrees>-4.0537406690418720245361328125</LongitudeDegrees>
            </Position>
            <AltitudeMeters>1192.199951171875</AltitudeMeters>
            <DistanceMeters>70561.323098537</DistanceMeters>
          </Trackpoint>
          <Trackpoint>
            <Time>2019-08-01T13:47:54.000Z</Time>
            <Position>
              <LatitudeDegrees>40.74229921214282512664794921875</LatitudeDegrees>
              <LongitudeDegrees>-4.05379992909729480743408203125</LongitudeDegrees>
            </Position>
            <AltitudeMeters>1193.4000244140625</AltitudeMeters>
            <DistanceMeters>70567.499103953</DistanceMeters>
          </Trackpoint>
          <Trackpoint>
            <Time>2019-08-01T13:47:56.000Z</Time>
            <Position>
              <LatitudeDegrees>40.74226434342563152313232421875</LatitudeDegrees>
              <LongitudeDegrees>-4.05384636484086513519287109375</LongitudeDegrees>
            </Position>
            <AltitudeMeters>1194</AltitudeMeters>
            <DistanceMeters>70573.012291535</DistanceMeters>
          </Trackpoint>
          <Trackpoint>
            <Time>2019-08-01T13:47:58.000Z</Time>
            <Position>
              <LatitudeDegrees>40.74222880415618419647216796875</LatitudeDegrees>
              <LongitudeDegrees>-4.0538975782692432403564453125</LongitudeDegrees>
            </Position>
            <AltitudeMeters>1194.4000244140625</AltitudeMeters>
            <DistanceMeters>70578.868589882</DistanceMeters>
          </Trackpoint>
          <Trackpoint>
            <Time>2019-08-01T13:48:03.000Z</Time>
            <Position>
              <LatitudeDegrees>40.7421420514583587646484375</LatitudeDegrees>
              <LongitudeDegrees>-4.054014421999454498291015625</LongitudeDegrees>
            </Position>
            <AltitudeMeters>1195.5999755859375</AltitudeMeters>
            <DistanceMeters>70592.664164938</DistanceMeters>
          </Trackpoint>
          <Trackpoint>
            <Time>2019-08-01T13:48:08.000Z</Time>
            <Position>
              <LatitudeDegrees>40.74206200428307056427001953125</LatitudeDegrees>
              <LongitudeDegrees>-4.054118692874908447265625</LongitudeDegrees>
            </Position>
            <AltitudeMeters>1196.5999755859375</AltitudeMeters>
            <DistanceMeters>70605.18174803</DistanceMeters>
          </Trackpoint>
          <Trackpoint>
            <Time>2019-08-01T13:48:11.000Z</Time>
            <Position>
              <LatitudeDegrees>40.742008946835994720458984375</LatitudeDegrees>
              <LongitudeDegrees>-4.05417359434068202972412109375</LongitudeDegrees>
            </Position>
            <AltitudeMeters>1197.4000244140625</AltitudeMeters>
            <DistanceMeters>70612.685850688</DistanceMeters>
          </Trackpoint>
          <Trackpoint>
            <Time>2019-08-01T13:48:14.000Z</Time>
            <Position>
              <LatitudeDegrees>40.7419527880847454071044921875</LatitudeDegrees>
              <LongitudeDegrees>-4.05422690324485301971435546875</LongitudeDegrees>
            </Position>
            <AltitudeMeters>1198.5999755859375</AltitudeMeters>
            <DistanceMeters>70620.384774105</DistanceMeters>
          </Trackpoint>
          <Trackpoint>
            <Time>2019-08-01T13:48:18.000Z</Time>
            <Position>
              <LatitudeDegrees>40.74186603538691997528076171875</LatitudeDegrees>
              <LongitudeDegrees>-4.05428230762481689453125</LongitudeDegrees>
            </Position>
            <AltitudeMeters>1199.5999755859375</AltitudeMeters>
            <DistanceMeters>70631.111434072</DistanceMeters>
          </Trackpoint>
          <Trackpoint>
            <Time>2019-08-01T13:48:26.000Z</Time>
            <Position>
              <LatitudeDegrees>40.7416520453989505767822265625</LatitudeDegrees>
              <LongitudeDegrees>-4.0544692240655422210693359375</LongitudeDegrees>
            </Position>
            <AltitudeMeters>1200.800048828125</AltitudeMeters>
            <DistanceMeters>70659.672455685</DistanceMeters>
          </Trackpoint>
          <Trackpoint>
            <Time>2019-08-01T13:48:34.000Z</Time>
            <Position>
              <LatitudeDegrees>40.7415425777435302734375</LatitudeDegrees>
              <LongitudeDegrees>-4.054745994508266448974609375</LongitudeDegrees>
            </Position>
            <AltitudeMeters>1202</AltitudeMeters>
            <DistanceMeters>70686.001029862</DistanceMeters>
          </Trackpoint>
          <Trackpoint>
            <Time>2019-08-01T13:48:39.000Z</Time>
            <Position>
              <LatitudeDegrees>40.74150745756924152374267578125</LatitudeDegrees>
              <LongitudeDegrees>-4.05485940165817737579345703125</LongitudeDegrees>
            </Position>
            <AltitudeMeters>1203</AltitudeMeters>
            <DistanceMeters>70696.333191481</DistanceMeters>
          </Trackpoint>
          <Trackpoint>
            <Time>2019-08-01T13:48:44.000Z</Time>
            <Position>
              <LatitudeDegrees>40.74148532934486865997314453125</LatitudeDegrees>
              <LongitudeDegrees>-4.05495889484882354736328125</LongitudeDegrees>
            </Position>
            <AltitudeMeters>1204.199951171875</AltitudeMeters>
            <DistanceMeters>70705.077714758</DistanceMeters>
          </Trackpoint>
          <Trackpoint>
            <Time>2019-08-01T13:48:48.000Z</Time>
            <Position>
              <LatitudeDegrees>40.74149974621832370758056640625</LatitudeDegrees>
              <LongitudeDegrees>-4.0549986250698566436767578125</LongitudeDegrees>
            </Position>
            <AltitudeMeters>1204.5999755859375</AltitudeMeters>
            <DistanceMeters>70708.792274867</DistanceMeters>
          </Trackpoint>
          <Trackpoint>
            <Time>2019-08-02T06:43:04.000Z</Time>
            <Position>
              <LatitudeDegrees>40.73913864791393280029296875</LatitudeDegrees>
              <LongitudeDegrees>-4.064955823123455047607421875</LongitudeDegrees>
            </Position>
            <AltitudeMeters>1181</AltitudeMeters>
            <DistanceMeters>71588.652582971</DistanceMeters>
          </Trackpoint>
          <Trackpoint>
            <Time>2019-08-02T06:43:06.000Z</Time>
            <Position>
              <LatitudeDegrees>40.73913118802011013031005859375</LatitudeDegrees>
              <LongitudeDegrees>-4.06508549116551876068115234375</LongitudeDegrees>
            </Position>
            <AltitudeMeters>1181.199951171875</AltitudeMeters>
            <DistanceMeters>71599.619011655</DistanceMeters>
          </Trackpoint>
          <Trackpoint>
            <Time>2019-08-02T06:43:15.000Z</Time>
            <Position>
              <LatitudeDegrees>40.739019624888896942138671875</LatitudeDegrees>
              <LongitudeDegrees>-4.06579057686030864715576171875</LongitudeDegrees>
            </Position>
            <AltitudeMeters>1181.4000244140625</AltitudeMeters>
            <DistanceMeters>71660.363161796</DistanceMeters>
          </Trackpoint>
          <Trackpoint>
            <Time>2019-08-02T06:43:16.000Z</Time>
            <Position>
              <LatitudeDegrees>40.73901115916669368743896484375</LatitudeDegrees>
              <LongitudeDegrees>-4.0658816881477832794189453125</LongitudeDegrees>
            </Position>
            <AltitudeMeters>1181.4000244140625</AltitudeMeters>
            <DistanceMeters>71668.104194497</DistanceMeters>
          </Trackpoint>
          <Trackpoint>
            <Time>2019-08-02T06:43:21.000Z</Time>
            <Position>
              <LatitudeDegrees>40.739014260470867156982421875</LatitudeDegrees>
              <LongitudeDegrees>-4.0663058124482631683349609375</LongitudeDegrees>
            </Position>
            <AltitudeMeters>1182.199951171875</AltitudeMeters>
            <DistanceMeters>71703.873390897</DistanceMeters>
          </Trackpoint>
          <Trackpoint>
            <Time>2019-08-02T06:43:23.000Z</Time>
            <Position>
              <LatitudeDegrees>40.739045105874538421630859375</LatitudeDegrees>
              <LongitudeDegrees>-4.06646515242755413055419921875</LongitudeDegrees>
            </Position>
            <AltitudeMeters>1182.4000244140625</AltitudeMeters>
            <DistanceMeters>71717.742734371</DistanceMeters>
          </Trackpoint>
          <Trackpoint>
            <Time>2019-08-02T06:43:26.000Z</Time>
            <Position>
              <LatitudeDegrees>40.73912196792662143707275390625</LatitudeDegrees>
              <LongitudeDegrees>-4.06665642745792865753173828125</LongitudeDegrees>
            </Position>
            <AltitudeMeters>1182.5999755859375</AltitudeMeters>
            <DistanceMeters>71736.001716334</DistanceMeters>
          </Trackpoint>
          <Trackpoint>
            <Time>2019-08-02T06:43:30.000Z</Time>
            <Position>
              <LatitudeDegrees>40.7392085529863834381103515625</LatitudeDegrees>
              <LongitudeDegrees>-4.06690319068729877471923828125</LongitudeDegrees>
            </Position>
            <AltitudeMeters>1183.199951171875</AltitudeMeters>
            <DistanceMeters>71758.93467694</DistanceMeters>
          </Trackpoint>
          <Trackpoint>
            <Time>2019-08-02T06:43:32.000Z</Time>
            <Position>
              <LatitudeDegrees>40.7392595149576663970947265625</LatitudeDegrees>
              <LongitudeDegrees>-4.066999666392803192138671875</LongitudeDegrees>
            </Position>
            <AltitudeMeters>1183.4000244140625</AltitudeMeters>
            <DistanceMeters>71768.852571006</DistanceMeters>
          </Trackpoint>
          <Trackpoint>
            <Time>2019-08-02T06:43:37.000Z</Time>
            <Position>
              <LatitudeDegrees>40.7394271530210971832275390625</LatitudeDegrees>
              <LongitudeDegrees>-4.0670155920088291168212890625</LongitudeDegrees>
            </Position>
            <AltitudeMeters>1184.4000244140625</AltitudeMeters>
            <DistanceMeters>71787.559081166</DistanceMeters>
          </Trackpoint>
          <Trackpoint>
            <Time>2019-08-02T06:43:42.000Z</Time>
            <Position>
              <LatitudeDegrees>40.73958146385848522186279296875</LatitudeDegrees>
              <LongitudeDegrees>-4.06697091646492481231689453125</LongitudeDegrees>
            </Position>
            <AltitudeMeters>1185.5999755859375</AltitudeMeters>
            <DistanceMeters>71805.142618562</DistanceMeters>
          </Trackpoint>
          <Trackpoint>
            <Time>2019-08-02T06:43:47.000Z</Time>
            <Position>
              <LatitudeDegrees>40.73973434977233409881591796875</LatitudeDegrees>
              <LongitudeDegrees>-4.06693202443420886993408203125</LongitudeDegrees>
            </Position>
            <AltitudeMeters>1186.800048828125</AltitudeMeters>
            <DistanceMeters>71822.472427631</DistanceMeters>
          </Trackpoint>
          <Trackpoint>
            <Time>2019-08-02T06:43:51.000Z</Time>
            <Position>
              <LatitudeDegrees>40.73985270224511623382568359375</LatitudeDegrees>
              <LongitudeDegrees>-4.06690972857177257537841796875</LongitudeDegrees>
            </Position>
            <AltitudeMeters>1187.800048828125</AltitudeMeters>
            <DistanceMeters>71835.778882415</DistanceMeters>
          </Trackpoint>
          <Trackpoint>
            <Time>2019-08-02T06:43:57.000Z</Time>
            <Position>
              <LatitudeDegrees>40.74004464782774448394775390625</LatitudeDegrees>
              <LongitudeDegrees>-4.0668704174458980560302734375</LongitudeDegrees>
            </Position>
            <AltitudeMeters>1188.800048828125</AltitudeMeters>
            <DistanceMeters>71857.398451948</DistanceMeters>
          </Trackpoint>
          <Trackpoint>
            <Time>2019-08-02T06:43:59.000Z</Time>
            <Position>
              <LatitudeDegrees>40.7400960288941860198974609375</LatitudeDegrees>
              <LongitudeDegrees>-4.066879637539386749267578125</LongitudeDegrees>
            </Position>
            <AltitudeMeters>1189.199951171875</AltitudeMeters>
            <DistanceMeters>71863.169320334</DistanceMeters>
          </Trackpoint>
          <Trackpoint>
            <Time>2019-08-02T06:44:04.000Z</Time>
            <Position>
              <LatitudeDegrees>40.74001329950988292694091796875</LatitudeDegrees>
              <LongitudeDegrees>-4.0669193677604198455810546875</LongitudeDegrees>
            </Position>
            <AltitudeMeters>1189.5999755859375</AltitudeMeters>
            <DistanceMeters>71872.967675949</DistanceMeters>
          </Trackpoint>
          <Trackpoint>
            <Time>2019-08-02T06:44:05.000Z</Time>
            <Position>
              <LatitudeDegrees>40.73998153209686279296875</LatitudeDegrees>
              <LongitudeDegrees>-4.06692313961684703826904296875</LongitudeDegrees>
            </Position>
            <AltitudeMeters>1189.800048828125</AltitudeMeters>
            <DistanceMeters>71876.518167002</DistanceMeters>
          </Trackpoint>
          <Trackpoint>
            <Time>2019-08-02T06:44:11.000Z</Time>
            <Position>
              <LatitudeDegrees>40.73975698091089725494384765625</LatitudeDegrees>
              <LongitudeDegrees>-4.066961109638214111328125</LongitudeDegrees>
            </Position>
            <AltitudeMeters>1190.4000244140625</AltitudeMeters>
            <DistanceMeters>71901.715661021</DistanceMeters>
          </Trackpoint>
          <Trackpoint>
            <Time>2019-08-02T06:44:19.000Z</Time>
            <Position>
              <LatitudeDegrees>40.739399492740631103515625</LatitudeDegrees>
              <LongitudeDegrees>-4.067045934498310089111328125</LongitudeDegrees>
            </Position>
            <AltitudeMeters>1190.800048828125</AltitudeMeters>
            <DistanceMeters>71942.142576256</DistanceMeters>
          </Trackpoint>
          <Trackpoint>
            <Time>2019-08-02T06:44:23.000Z</Time>
            <Position>
              <LatitudeDegrees>40.7392357103526592254638671875</LatitudeDegrees>
              <LongitudeDegrees>-4.06704400666058063507080078125</LongitudeDegrees>
            </Position>
            <AltitudeMeters>1191</AltitudeMeters>
            <DistanceMeters>71960.372851445</DistanceMeters>
          </Trackpoint>
          <Trackpoint>
            <Time>2019-08-02T06:44:30.000Z</Time>
            <Position>
              <LatitudeDegrees>40.73891024105250835418701171875</LatitudeDegrees>
              <LongitudeDegrees>-4.06700042076408863067626953125</LongitudeDegrees>
            </Position>
            <AltitudeMeters>1191.199951171875</AltitudeMeters>
            <DistanceMeters>71996.784206726</DistanceMeters>
          </Trackpoint>
          <Trackpoint>
            <Time>2019-08-02T06:44:45.000Z</Time>
            <Position>
              <LatitudeDegrees>40.73840497992932796478271484375</LatitudeDegrees>
              <LongitudeDegrees>-4.06669096089899539947509765625</LongitudeDegrees>
            </Position>
            <AltitudeMeters>1190.199951171875</AltitudeMeters>
            <DistanceMeters>72058.781254867</DistanceMeters>
          </Trackpoint>
          <Trackpoint>
            <Time>2019-08-02T06:44:47.000Z</Time>
            <Position>
              <LatitudeDegrees>40.73836625553667545318603515625</LatitudeDegrees>
              <LongitudeDegrees>-4.06666832976043224334716796875</LongitudeDegrees>
            </Position>
            <AltitudeMeters>1189.800048828125</AltitudeMeters>
            <DistanceMeters>72063.496342163</DistanceMeters>
          </Trackpoint>
          <Trackpoint>
            <Time>2019-08-02T06:44:53.000Z</Time>
            <Position>
              <LatitudeDegrees>40.73823667131364345550537109375</LatitudeDegrees>
              <LongitudeDegrees>-4.066581241786479949951171875</LongitudeDegrees>
            </Position>
            <AltitudeMeters>1188.800048828125</AltitudeMeters>
            <DistanceMeters>72079.681877301</DistanceMeters>
          </Trackpoint>
          <Trackpoint>
            <Time>2019-08-02T06:44:59.000Z</Time>
            <Position>
              <LatitudeDegrees>40.73809887282550334930419921875</LatitudeDegrees>
              <LongitudeDegrees>-4.0665133483707904815673828125</LongitudeDegrees>
            </Position>
            <AltitudeMeters>1187.800048828125</AltitudeMeters>
            <DistanceMeters>72096.052969777</DistanceMeters>
          </Trackpoint>
          <Trackpoint>
            <Time>2019-08-02T06:45:04.000Z</Time>
            <Position>
              <LatitudeDegrees>40.737970210611820220947265625</LatitudeDegrees>
              <LongitudeDegrees>-4.06647085212171077728271484375</LongitudeDegrees>
            </Position>
            <AltitudeMeters>1186.800048828125</AltitudeMeters>
            <DistanceMeters>72110.814873609</DistanceMeters>
          </Trackpoint>
          <Trackpoint>
            <Time>2019-08-02T06:45:08.000Z</Time>
            <Position>
              <LatitudeDegrees>40.73788228444755077362060546875</LatitudeDegrees>
              <LongitudeDegrees>-4.0664835087954998016357421875</LongitudeDegrees>
            </Position>
            <AltitudeMeters>1185.5999755859375</AltitudeMeters>
            <DistanceMeters>72120.65920093</DistanceMeters>
          </Trackpoint>
          <Trackpoint>
            <Time>2019-08-02T06:45:14.000Z</Time>
            <Position>
              <LatitudeDegrees>40.7377645187079906463623046875</LatitudeDegrees>
              <LongitudeDegrees>-4.0665130130946636199951171875</LongitudeDegrees>
            </Position>
            <AltitudeMeters>1184.4000244140625</AltitudeMeters>
            <DistanceMeters>72134.000559061</DistanceMeters>
          </Trackpoint>
          <Trackpoint>
            <Time>2019-08-02T06:45:17.000Z</Time>
            <Position>
              <LatitudeDegrees>40.7377021573483943939208984375</LatitudeDegrees>
              <LongitudeDegrees>-4.06652164645493030548095703125</LongitudeDegrees>
            </Position>
            <AltitudeMeters>1183.4000244140625</AltitudeMeters>
            <DistanceMeters>72140.979687398</DistanceMeters>
          </Trackpoint>
          <Trackpoint>
            <Time>2019-08-02T06:45:20.000Z</Time>
            <Position>
              <LatitudeDegrees>40.73766133747994899749755859375</LatitudeDegrees>
              <LongitudeDegrees>-4.06651527620851993560791015625</LongitudeDegrees>
            </Position>
            <AltitudeMeters>1182.199951171875</AltitudeMeters>
            <DistanceMeters>72145.553819788</DistanceMeters>
          </Trackpoint>
          <Trackpoint>
            <Time>2019-08-02T06:45:24.000Z</Time>
            <Position>
              <LatitudeDegrees>40.7376277260482311248779296875</LatitudeDegrees>
              <LongitudeDegrees>-4.0664003603160381317138671875</LongitudeDegrees>
            </Position>
            <AltitudeMeters>1181</AltitudeMeters>
            <DistanceMeters>72155.941765374</DistanceMeters>
          </Trackpoint>
          <Trackpoint>
            <Time>2019-08-02T06:45:26.000Z</Time>
            <Position>
              <LatitudeDegrees>40.73762345127761363983154296875</LatitudeDegrees>
              <LongitudeDegrees>-4.0663634799420833587646484375</LongitudeDegrees>
            </Position>
            <AltitudeMeters>1180.4000244140625</AltitudeMeters>
            <DistanceMeters>72159.089144261</DistanceMeters>
          </Trackpoint>
          <Trackpoint>
            <Time>2019-08-02T06:45:28.000Z</Time>
            <Position>
              <LatitudeDegrees>40.7376257143914699554443359375</LatitudeDegrees>
              <LongitudeDegrees>-4.06633682548999786376953125</LongitudeDegrees>
            </Position>
            <AltitudeMeters>1179.800048828125</AltitudeMeters>
            <DistanceMeters>72161.349901494</DistanceMeters>
          </Trackpoint>
          <Trackpoint>
            <Time>2019-08-02T06:45:31.000Z</Time>
            <Position>
              <LatitudeDegrees>40.73763200081884860992431640625</LatitudeDegrees>
              <LongitudeDegrees>-4.06632215715944766998291015625</LongitudeDegrees>
            </Position>
            <AltitudeMeters>1179</AltitudeMeters>
            <DistanceMeters>72162.76576765</DistanceMeters>
          </Trackpoint>
          <Trackpoint>
            <Time>2019-08-02T06:59:17.000Z</Time>
            <Position>
              <LatitudeDegrees>40.7377319969236850738525390625</LatitudeDegrees>
              <LongitudeDegrees>-4.066496081650257110595703125</LongitudeDegrees>
            </Position>
            <AltitudeMeters>1168.4000244140625</AltitudeMeters>
            <DistanceMeters>72181.177913909</DistanceMeters>
          </Trackpoint>
          <Trackpoint>
            <Time>2019-08-02T06:59:18.000Z</Time>
            <Position>
              <LatitudeDegrees>40.7377323321998119354248046875</LatitudeDegrees>
              <LongitudeDegrees>-4.0664962492883205413818359375</LongitudeDegrees>
            </Position>
            <AltitudeMeters>1168.4000244140625</AltitudeMeters>
            <DistanceMeters>72181.177913909</DistanceMeters>
          </Trackpoint>
          <Trackpoint>
            <Time>2019-08-02T06:59:30.000Z</Time>
            <Position>
              <LatitudeDegrees>40.73781774379312992095947265625</LatitudeDegrees>
              <LongitudeDegrees>-4.06644822098314762115478515625</LongitudeDegrees>
            </Position>
            <AltitudeMeters>1169.5999755859375</AltitudeMeters>
            <DistanceMeters>72191.511823335</DistanceMeters>
          </Trackpoint>
          <Trackpoint>
            <Time>2019-08-02T06:59:35.000Z</Time>
            <Position>
              <LatitudeDegrees>40.737866945564746856689453125</LatitudeDegrees>
              <LongitudeDegrees>-4.066433720290660858154296875</LongitudeDegrees>
            </Position>
            <AltitudeMeters>1168.800048828125</AltitudeMeters>
            <DistanceMeters>72197.123229269</DistanceMeters>
          </Trackpoint>
          <Trackpoint>
            <Time>2019-08-02T06:59:36.000Z</Time>
            <Position>
              <LatitudeDegrees>40.73787708766758441925048828125</LatitudeDegrees>
              <LongitudeDegrees>-4.0664365701377391815185546875</LongitudeDegrees>
            </Position>
            <AltitudeMeters>1168.4000244140625</AltitudeMeters>
            <DistanceMeters>72198.279279144</DistanceMeters>
          </Trackpoint>
          <Trackpoint>
            <Time>2019-08-02T06:59:39.000Z</Time>
            <Position>
              <LatitudeDegrees>40.73791380040347576141357421875</LatitudeDegrees>
              <LongitudeDegrees>-4.06643229536712169647216796875</LongitudeDegrees>
            </Position>
            <AltitudeMeters>1167.800048828125</AltitudeMeters>
            <DistanceMeters>72202.38196881</DistanceMeters>
          </Trackpoint>
          <Trackpoint>
            <Time>2019-08-02T06:59:41.000Z</Time>
            <Position>
              <LatitudeDegrees>40.73794296942651271820068359375</LatitudeDegrees>
              <LongitudeDegrees>-4.06643128953874111175537109375</LongitudeDegrees>
            </Position>
            <AltitudeMeters>1168.199951171875</AltitudeMeters>
            <DistanceMeters>72205.629603224</DistanceMeters>
          </Trackpoint>
          <Trackpoint>
            <Time>2019-08-02T06:59:48.000Z</Time>
            <Position>
              <LatitudeDegrees>40.73803164996206760406494140625</LatitudeDegrees>
              <LongitudeDegrees>-4.066446125507354736328125</LongitudeDegrees>
            </Position>
            <AltitudeMeters>1166.4000244140625</AltitudeMeters>
            <DistanceMeters>72215.578859376</DistanceMeters>
          </Trackpoint>
          <Trackpoint>
            <Time>2019-08-02T06:59:50.000Z</Time>
            <Position>
              <LatitudeDegrees>40.7380471564829349517822265625</LatitudeDegrees>
              <LongitudeDegrees>-4.06645660288631916046142578125</LongitudeDegrees>
            </Position>
            <AltitudeMeters>1166.4000244140625</AltitudeMeters>
            <DistanceMeters>72217.517031659</DistanceMeters>
          </Trackpoint>
          <Trackpoint>
            <Time>2019-08-02T06:59:52.000Z</Time>
            <Position>
              <LatitudeDegrees>40.73805981315672397613525390625</LatitudeDegrees>
              <LongitudeDegrees>-4.06646381132304668426513671875</LongitudeDegrees>
            </Position>
            <AltitudeMeters>1166.800048828125</AltitudeMeters>
            <DistanceMeters>72219.052235213</DistanceMeters>
          </Trackpoint>
          <Trackpoint>
            <Time>2019-08-02T06:59:54.000Z</Time>
            <Position>
              <LatitudeDegrees>40.7380810193717479705810546875</LatitudeDegrees>
              <LongitudeDegrees>-4.06647839583456516265869140625</LongitudeDegrees>
            </Position>
            <AltitudeMeters>1167.199951171875</AltitudeMeters>
            <DistanceMeters>72221.716374865</DistanceMeters>
          </Trackpoint>
          <Trackpoint>
            <Time>2019-08-02T06:59:56.000Z</Time>
            <Position>
              <LatitudeDegrees>40.7381111942231655120849609375</LatitudeDegrees>
              <LongitudeDegrees>-4.06649868004024028778076171875</LongitudeDegrees>
            </Position>
            <AltitudeMeters>1168</AltitudeMeters>
            <DistanceMeters>72225.486433263</DistanceMeters>
          </Trackpoint>
          <Trackpoint>
            <Time>2019-08-02T06:59:58.000Z</Time>
            <Position>
              <LatitudeDegrees>40.738138519227504730224609375</LatitudeDegrees>
              <LongitudeDegrees>-4.0665140189230442047119140625</LongitudeDegrees>
            </Position>
            <AltitudeMeters>1168.4000244140625</AltitudeMeters>
            <DistanceMeters>72228.790576483</DistanceMeters>
          </Trackpoint>
          <Trackpoint>
            <Time>2019-08-02T07:00:00.000Z</Time>
            <Position>
              <LatitudeDegrees>40.73816894553601741790771484375</LatitudeDegrees>
              <LongitudeDegrees>-4.06652860343456268310546875</LongitudeDegrees>
            </Position>
            <AltitudeMeters>1169</AltitudeMeters>
            <DistanceMeters>72232.394081711</DistanceMeters>
          </Trackpoint>
          <Trackpoint>
            <Time>2019-08-02T07:00:02.000Z</Time>
            <Position>
              <LatitudeDegrees>40.7381966896355152130126953125</LatitudeDegrees>
              <LongitudeDegrees>-4.06654561869800090789794921875</LongitudeDegrees>
            </Position>
            <AltitudeMeters>1169.800048828125</AltitudeMeters>
            <DistanceMeters>72235.79916881</DistanceMeters>
          </Trackpoint>
          <Trackpoint>
            <Time>2019-08-02T07:00:05.000Z</Time>
            <Position>
              <LatitudeDegrees>40.73823700658977031707763671875</LatitudeDegrees>
              <LongitudeDegrees>-4.06656908802688121795654296875</LongitudeDegrees>
            </Position>
            <AltitudeMeters>1170.4000244140625</AltitudeMeters>
            <DistanceMeters>72240.703873047</DistanceMeters>
          </Trackpoint>
          <Trackpoint>
            <Time>2019-08-02T07:00:07.000Z</Time>
            <Position>
              <LatitudeDegrees>40.73826651088893413543701171875</LatitudeDegrees>
              <LongitudeDegrees>-4.06658249907195568084716796875</LongitudeDegrees>
            </Position>
            <AltitudeMeters>1172.199951171875</AltitudeMeters>
            <DistanceMeters>72244.1772262</DistanceMeters>
          </Trackpoint>
          <Trackpoint>
            <Time>2019-08-02T07:00:16.000Z</Time>
            <Position>
              <LatitudeDegrees>40.73839835822582244873046875</LatitudeDegrees>
              <LongitudeDegrees>-4.06666430644690990447998046875</LongitudeDegrees>
            </Position>
            <AltitudeMeters>1173.5999755859375</AltitudeMeters>
            <DistanceMeters>72260.392860507</DistanceMeters>
          </Trackpoint>
          <Trackpoint>
            <Time>2019-08-02T07:00:19.000Z</Time>
            <Position>
              <LatitudeDegrees>40.738444961607456207275390625</LatitudeDegrees>
              <LongitudeDegrees>-4.066695906221866607666015625</LongitudeDegrees>
            </Position>
            <AltitudeMeters>1174.800048828125</AltitudeMeters>
            <DistanceMeters>72266.225983859</DistanceMeters>
          </Trackpoint>
          <Trackpoint>
            <Time>2019-08-02T07:00:23.000Z</Time>
            <Position>
              <LatitudeDegrees>40.7385049760341644287109375</LatitudeDegrees>
              <LongitudeDegrees>-4.06673152931034564971923828125</LongitudeDegrees>
            </Position>
            <AltitudeMeters>1175.800048828125</AltitudeMeters>
            <DistanceMeters>72273.550441802</DistanceMeters>
          </Trackpoint>
          <Trackpoint>
            <Time>2019-08-02T07:00:27.000Z</Time>
            <Position>
              <LatitudeDegrees>40.7385688461363315582275390625</LatitudeDegrees>
              <LongitudeDegrees>-4.06676463782787322998046875</LongitudeDegrees>
            </Position>
            <AltitudeMeters>1177</AltitudeMeters>
            <DistanceMeters>72281.188130839</DistanceMeters>
          </Trackpoint>
          <Trackpoint>
            <Time>2019-08-02T07:00:32.000Z</Time>
            <Position>
              <LatitudeDegrees>40.73863917030394077301025390625</LatitudeDegrees>
              <LongitudeDegrees>-4.06680646352469921112060546875</LongitudeDegrees>
            </Position>
            <AltitudeMeters>1178</AltitudeMeters>
            <DistanceMeters>72289.773204161</DistanceMeters>
          </Trackpoint>
          <Trackpoint>
            <Time>2019-08-02T07:00:36.000Z</Time>
            <Position>
              <LatitudeDegrees>40.7386955805122852325439453125</LatitudeDegrees>
              <LongitudeDegrees>-4.06683127395808696746826171875</LongitudeDegrees>
            </Position>
            <AltitudeMeters>1179.199951171875</AltitudeMeters>
            <DistanceMeters>72296.391049033</DistanceMeters>
          </Trackpoint>
          <Trackpoint>
            <Time>2019-08-02T07:00:41.000Z</Time>
            <Position>
              <LatitudeDegrees>40.7387651503086090087890625</LatitudeDegrees>
              <LongitudeDegrees>-4.06685608439147472381591796875</LongitudeDegrees>
            </Position>
            <AltitudeMeters>1180.199951171875</AltitudeMeters>
            <DistanceMeters>72304.411664008</DistanceMeters>
          </Trackpoint>
          <Trackpoint>
            <Time>2019-08-02T07:00:46.000Z</Time>
            <Position>
              <LatitudeDegrees>40.73884821496903896331787109375</LatitudeDegrees>
              <LongitudeDegrees>-4.06687586568295955657958984375</LongitudeDegrees>
            </Position>
            <AltitudeMeters>1181.4000244140625</AltitudeMeters>
            <DistanceMeters>72313.806341606</DistanceMeters>
          </Trackpoint>
          <Trackpoint>
            <Time>2019-08-02T07:00:50.000Z</Time>
            <Position>
              <LatitudeDegrees>40.73891124688088893890380859375</LatitudeDegrees>
              <LongitudeDegrees>-4.066892378032207489013671875</LongitudeDegrees>
            </Position>
            <AltitudeMeters>1182.5999755859375</AltitudeMeters>
            <DistanceMeters>72320.959271994</DistanceMeters>
          </Trackpoint>
          <Trackpoint>
            <Time>2019-08-02T07:00:51.000Z</Time>
            <Position>
              <LatitudeDegrees>40.73892784304916858673095703125</LatitudeDegrees>
              <LongitudeDegrees>-4.0668952278792858123779296875</LongitudeDegrees>
            </Position>
            <AltitudeMeters>1182.800048828125</AltitudeMeters>
            <DistanceMeters>72322.821407691</DistanceMeters>
          </Trackpoint>
          <Trackpoint>
            <Time>2019-08-02T07:00:55.000Z</Time>
            <Position>
              <LatitudeDegrees>40.7390100695192813873291015625</LatitudeDegrees>
              <LongitudeDegrees>-4.06688843853771686553955078125</LongitudeDegrees>
            </Position>
            <AltitudeMeters>1183.800048828125</AltitudeMeters>
            <DistanceMeters>72331.991362535</DistanceMeters>
          </Trackpoint>
          <Trackpoint>
            <Time>2019-08-02T07:00:58.000Z</Time>
            <Position>
              <LatitudeDegrees>40.73907838203012943267822265625</LatitudeDegrees>
              <LongitudeDegrees>-4.0668831579387187957763671875</LongitudeDegrees>
            </Position>
            <AltitudeMeters>1185</AltitudeMeters>
            <DistanceMeters>72339.608333137</DistanceMeters>
          </Trackpoint>
          <Trackpoint>
            <Time>2019-08-02T07:01:02.000Z</Time>
            <Position>
              <LatitudeDegrees>40.7391478680074214935302734375</LatitudeDegrees>
              <LongitudeDegrees>-4.066905789077281951904296875</LongitudeDegrees>
            </Position>
            <AltitudeMeters>1186</AltitudeMeters>
            <DistanceMeters>72347.574723615</DistanceMeters>
          </Trackpoint>
          <Trackpoint>
            <Time>2019-08-02T07:01:07.000Z</Time>
            <Position>
              <LatitudeDegrees>40.739242918789386749267578125</LatitudeDegrees>
              <LongitudeDegrees>-4.06696437858045101165771484375</LongitudeDegrees>
            </Position>
            <AltitudeMeters>1187.199951171875</AltitudeMeters>
            <DistanceMeters>72359.251028431</DistanceMeters>
          </Trackpoint>
          <Trackpoint>
            <Time>2019-08-02T07:01:11.000Z</Time>
            <Position>
              <LatitudeDegrees>40.7393188588321208953857421875</LatitudeDegrees>
              <LongitudeDegrees>-4.06698013655841350555419921875</LongitudeDegrees>
            </Position>
            <AltitudeMeters>1188.4000244140625</AltitudeMeters>
            <DistanceMeters>72367.807655091</DistanceMeters>
          </Trackpoint>
          <Trackpoint>
            <Time>2019-08-02T07:01:16.000Z</Time>
            <Position>
              <LatitudeDegrees>40.73943503201007843017578125</LatitudeDegrees>
              <LongitudeDegrees>-4.0669686533510684967041015625</LongitudeDegrees>
            </Position>
            <AltitudeMeters>1189.800048828125</AltitudeMeters>
            <DistanceMeters>72380.774536883</DistanceMeters>
          </Trackpoint>
          <Trackpoint>
            <Time>2019-08-02T07:01:21.000Z</Time>
            <Position>
              <LatitudeDegrees>40.7395314238965511322021484375</LatitudeDegrees>
              <LongitudeDegrees>-4.06694971024990081787109375</LongitudeDegrees>
            </Position>
            <AltitudeMeters>1191</AltitudeMeters>
            <DistanceMeters>72391.621327467</DistanceMeters>
          </Trackpoint>
          <Trackpoint>
            <Time>2019-08-02T07:01:24.000Z</Time>
            <Position>
              <LatitudeDegrees>40.739603675901889801025390625</LatitudeDegrees>
              <LongitudeDegrees>-4.06693386845290660858154296875</LongitudeDegrees>
            </Position>
            <AltitudeMeters>1192</AltitudeMeters>
            <DistanceMeters>72399.77315748</DistanceMeters>
          </Trackpoint>
          <Trackpoint>
            <Time>2019-08-02T07:01:28.000Z</Time>
            <Position>
              <LatitudeDegrees>40.7397039234638214111328125</LatitudeDegrees>
              <LongitudeDegrees>-4.0669129975140094757080078125</LongitudeDegrees>
            </Position>
            <AltitudeMeters>1193</AltitudeMeters>
            <DistanceMeters>72411.068952279</DistanceMeters>
          </Trackpoint>
          <Trackpoint>
            <Time>2019-08-02T07:01:33.000Z</Time>
            <Position>
              <LatitudeDegrees>40.73983007110655307769775390625</LatitudeDegrees>
              <LongitudeDegrees>-4.06688801944255828857421875</LongitudeDegrees>
            </Position>
            <AltitudeMeters>1194.5999755859375</AltitudeMeters>
            <DistanceMeters>72425.266464962</DistanceMeters>
          </Trackpoint>
          <Trackpoint>
            <Time>2019-08-02T07:01:37.000Z</Time>
            <Position>
              <LatitudeDegrees>40.73992512188851833343505859375</LatitudeDegrees>
              <LongitudeDegrees>-4.06686999835073947906494140625</LongitudeDegrees>
            </Position>
            <AltitudeMeters>1195.800048828125</AltitudeMeters>
            <DistanceMeters>72435.954330372</DistanceMeters>
          </Trackpoint>
          <Trackpoint>
            <Time>2019-08-02T07:01:41.000Z</Time>
            <Position>
              <LatitudeDegrees>40.7400256209075450897216796875</LatitudeDegrees>
              <LongitudeDegrees>-4.06685088761150836944580078125</LongitudeDegrees>
            </Position>
            <AltitudeMeters>1197</AltitudeMeters>
            <DistanceMeters>72447.255719721</DistanceMeters>
          </Trackpoint>
          <Trackpoint>
            <Time>2019-08-02T07:01:44.000Z</Time>
            <Position>
              <LatitudeDegrees>40.74009946547448635101318359375</LatitudeDegrees>
              <LongitudeDegrees>-4.06683596782386302947998046875</LongitudeDegrees>
            </Position>
            <AltitudeMeters>1198.4000244140625</AltitudeMeters>
            <DistanceMeters>72455.570421475</DistanceMeters>
          </Trackpoint>
          <Trackpoint>
            <Time>2019-08-02T07:01:47.000Z</Time>
            <Position>
              <LatitudeDegrees>40.74017590843141078948974609375</LatitudeDegrees>
              <LongitudeDegrees>-4.0668202936649322509765625</LongitudeDegrees>
            </Position>
            <AltitudeMeters>1199.4000244140625</AltitudeMeters>
            <DistanceMeters>72464.180701819</DistanceMeters>
          </Trackpoint>
          <Trackpoint>
            <Time>2019-08-02T07:01:51.000Z</Time>
            <Position>
              <LatitudeDegrees>40.74026475660502910614013671875</LatitudeDegrees>
              <LongitudeDegrees>-4.066798500716686248779296875</LongitudeDegrees>
            </Position>
            <AltitudeMeters>1200.5999755859375</AltitudeMeters>
            <DistanceMeters>72474.23917966</DistanceMeters>
          </Trackpoint>
          <Trackpoint>
            <Time>2019-08-02T07:01:55.000Z</Time>
            <Position>
              <LatitudeDegrees>40.7403417862951755523681640625</LatitudeDegrees>
              <LongitudeDegrees>-4.06676908023655414581298828125</LongitudeDegrees>
            </Position>
            <AltitudeMeters>1201.800048828125</AltitudeMeters>
            <DistanceMeters>72483.164611548</DistanceMeters>
          </Trackpoint>
          <Trackpoint>
            <Time>2019-08-02T07:01:58.000Z</Time>
            <Position>
              <LatitudeDegrees>40.740402974188327789306640625</LatitudeDegrees>
              <LongitudeDegrees>-4.06674762256443500518798828125</LongitudeDegrees>
            </Position>
            <AltitudeMeters>1202.800048828125</AltitudeMeters>
            <DistanceMeters>72490.211981302</DistanceMeters>
          </Trackpoint>
          <Trackpoint>
            <Time>2019-08-02T07:02:03.000Z</Time>
            <Position>
              <LatitudeDegrees>40.74052325449883937835693359375</LatitudeDegrees>
              <LongitudeDegrees>-4.06669699586927890777587890625</LongitudeDegrees>
            </Position>
            <AltitudeMeters>1204</AltitudeMeters>
            <DistanceMeters>72504.263730357</DistanceMeters>
          </Trackpoint>
          <Trackpoint>
            <Time>2019-08-02T07:02:07.000Z</Time>
            <Position>
              <LatitudeDegrees>40.74062970466911792755126953125</LatitudeDegrees>
              <LongitudeDegrees>-4.06665466725826263427734375</LongitudeDegrees>
            </Position>
            <AltitudeMeters>1205.199951171875</AltitudeMeters>
            <DistanceMeters>72516.638018469</DistanceMeters>
          </Trackpoint>
          <Trackpoint>
            <Time>2019-08-02T07:02:13.000Z</Time>
            <Position>
              <LatitudeDegrees>40.74079231359064579010009765625</LatitudeDegrees>
              <LongitudeDegrees>-4.06659976579248905181884765625</LongitudeDegrees>
            </Position>
            <AltitudeMeters>1206.800048828125</AltitudeMeters>
            <DistanceMeters>72535.319651815</DistanceMeters>
          </Trackpoint>
          <Trackpoint>
            <Time>2019-08-02T07:02:16.000Z</Time>
            <Position>
              <LatitudeDegrees>40.74087135493755340576171875</LatitudeDegrees>
              <LongitudeDegrees>-4.06657420098781585693359375</LongitudeDegrees>
            </Position>
            <AltitudeMeters>1207.4000244140625</AltitudeMeters>
            <DistanceMeters>72544.378145323</DistanceMeters>
          </Trackpoint>
          <Trackpoint>
            <Time>2019-08-02T07:02:19.000Z</Time>
            <Position>
              <LatitudeDegrees>40.74094511568546295166015625</LatitudeDegrees>
              <LongitudeDegrees>-4.0665418468415737152099609375</LongitudeDegrees>
            </Position>
            <AltitudeMeters>1208.199951171875</AltitudeMeters>
            <DistanceMeters>72553.029230433</DistanceMeters>
          </Trackpoint>
          <Trackpoint>
            <Time>2019-08-02T07:02:24.000Z</Time>
            <Position>
              <LatitudeDegrees>40.74106447398662567138671875</LatitudeDegrees>
              <LongitudeDegrees>-4.06649666838347911834716796875</LongitudeDegrees>
            </Position>
            <AltitudeMeters>1209.199951171875</AltitudeMeters>
            <DistanceMeters>72566.849656509</DistanceMeters>
          </Trackpoint>
          <Trackpoint>
            <Time>2019-08-02T07:02:30.000Z</Time>
            <Position>
              <LatitudeDegrees>40.7412212155759334564208984375</LatitudeDegrees>
              <LongitudeDegrees>-4.06647898256778717041015625</LongitudeDegrees>
            </Position>
            <AltitudeMeters>1210.4000244140625</AltitudeMeters>
            <DistanceMeters>72584.358828257</DistanceMeters>
          </Trackpoint>
          <Trackpoint>
            <Time>2019-08-02T07:02:39.000Z</Time>
            <Position>
              <LatitudeDegrees>40.741485916078090667724609375</LatitudeDegrees>
              <LongitudeDegrees>-4.06654075719416141510009765625</LongitudeDegrees>
            </Position>
            <AltitudeMeters>1211.5999755859375</AltitudeMeters>
            <DistanceMeters>72614.277608608</DistanceMeters>
          </Trackpoint>
          <Trackpoint>
            <Time>2019-08-02T07:02:45.000Z</Time>
            <Position>
              <LatitudeDegrees>40.74167056940495967864990234375</LatitudeDegrees>
              <LongitudeDegrees>-4.0665810741484165191650390625</LongitudeDegrees>
            </Position>
            <AltitudeMeters>1213</AltitudeMeters>
            <DistanceMeters>72635.109059676</DistanceMeters>
          </Trackpoint>
          <Trackpoint>
            <Time>2019-08-02T07:02:49.000Z</Time>
            <Position>
              <LatitudeDegrees>40.741786994040012359619140625</LatitudeDegrees>
              <LongitudeDegrees>-4.066601693630218505859375</LongitudeDegrees>
            </Position>
            <AltitudeMeters>1214.199951171875</AltitudeMeters>
            <DistanceMeters>72648.183437179</DistanceMeters>
          </Trackpoint>
          <Trackpoint>
            <Time>2019-08-02T07:02:53.000Z</Time>
            <Position>
              <LatitudeDegrees>40.74189436621963977813720703125</LatitudeDegrees>
              <LongitudeDegrees>-4.06662792898714542388916015625</LongitudeDegrees>
            </Position>
            <AltitudeMeters>1215.5999755859375</AltitudeMeters>
            <DistanceMeters>72660.337201636</DistanceMeters>
          </Trackpoint>
          <Trackpoint>
            <Time>2019-08-02T07:02:57.000Z</Time>
            <Position>
              <LatitudeDegrees>40.74200282804667949676513671875</LatitudeDegrees>
              <LongitudeDegrees>-4.06665324233472347259521484375</LongitudeDegrees>
            </Position>
            <AltitudeMeters>1216.800048828125</AltitudeMeters>
            <DistanceMeters>72672.596752701</DistanceMeters>
          </Trackpoint>
          <Trackpoint>
            <Time>2019-08-02T07:03:01.000Z</Time>
            <Position>
              <LatitudeDegrees>40.7421107031404972076416015625</LatitudeDegrees>
              <LongitudeDegrees>-4.066683836281299591064453125</LongitudeDegrees>
            </Position>
            <AltitudeMeters>1218.199951171875</AltitudeMeters>
            <DistanceMeters>72684.87764586</DistanceMeters>
          </Trackpoint>
          <Trackpoint>
            <Time>2019-08-02T07:03:06.000Z</Time>
            <Position>
              <LatitudeDegrees>40.74224137701094150543212890625</LatitudeDegrees>
              <LongitudeDegrees>-4.06671610660851001739501953125</LongitudeDegrees>
            </Position>
            <AltitudeMeters>1219.5999755859375</AltitudeMeters>
            <DistanceMeters>72699.674071218</DistanceMeters>
          </Trackpoint>
          <Trackpoint>
            <Time>2019-08-02T07:03:14.000Z</Time>
            <Position>
              <LatitudeDegrees>40.7424379326403141021728515625</LatitudeDegrees>
              <LongitudeDegrees>-4.0667617879807949066162109375</LongitudeDegrees>
            </Position>
            <AltitudeMeters>1221</AltitudeMeters>
            <DistanceMeters>72721.887366046</DistanceMeters>
          </Trackpoint>
          <Trackpoint>
            <Time>2019-08-02T07:03:25.000Z</Time>
            <Position>
              <LatitudeDegrees>40.742680169641971588134765625</LatitudeDegrees>
              <LongitudeDegrees>-4.06682842411100864410400390625</LongitudeDegrees>
            </Position>
            <AltitudeMeters>1222.199951171875</AltitudeMeters>
            <DistanceMeters>72749.42806867</DistanceMeters>
          </Trackpoint>
          <Trackpoint>
            <Time>2019-08-02T07:03:39.000Z</Time>
            <Position>
              <LatitudeDegrees>40.743017457425594329833984375</LatitudeDegrees>
              <LongitudeDegrees>-4.06691911630332469940185546875</LongitudeDegrees>
            </Position>
            <AltitudeMeters>1223.800048828125</AltitudeMeters>
            <DistanceMeters>72787.739983339</DistanceMeters>
          </Trackpoint>
          <Trackpoint>
            <Time>2019-08-02T07:03:51.000Z</Time>
            <Position>
              <LatitudeDegrees>40.74328341521322727203369140625</LatitudeDegrees>
              <LongitudeDegrees>-4.06701869331300258636474609375</LongitudeDegrees>
            </Position>
            <AltitudeMeters>1225</AltitudeMeters>
            <DistanceMeters>72818.509422151</DistanceMeters>
          </Trackpoint>
          <Trackpoint>
            <Time>2019-08-02T07:03:54.000Z</Time>
            <Position>
              <LatitudeDegrees>40.74334862641990184783935546875</LatitudeDegrees>
              <LongitudeDegrees>-4.0670457668602466583251953125</LongitudeDegrees>
            </Position>
            <AltitudeMeters>1225.199951171875</AltitudeMeters>
            <DistanceMeters>72826.118089582</DistanceMeters>
          </Trackpoint>
          <Trackpoint>
            <Time>2019-08-02T07:04:10.000Z</Time>
            <Position>
              <LatitudeDegrees>40.74368105269968509674072265625</LatitudeDegrees>
              <LongitudeDegrees>-4.06717233359813690185546875</LongitudeDegrees>
            </Position>
            <AltitudeMeters>1226.800048828125</AltitudeMeters>
            <DistanceMeters>72864.626544413</DistanceMeters>
          </Trackpoint>
          <Trackpoint>
            <Time>2019-08-02T07:04:25.000Z</Time>
            <Position>
              <LatitudeDegrees>40.74398598633706569671630859375</LatitudeDegrees>
              <LongitudeDegrees>-4.06734005548059940338134765625</LongitudeDegrees>
            </Position>
            <AltitudeMeters>1228.199951171875</AltitudeMeters>
            <DistanceMeters>72901.39512971</DistanceMeters>
          </Trackpoint>
          <Trackpoint>
            <Time>2019-08-02T07:04:36.000Z</Time>
            <Position>
              <LatitudeDegrees>40.74420936405658721923828125</LatitudeDegrees>
              <LongitudeDegrees>-4.0674085356295108795166015625</LongitudeDegrees>
            </Position>
            <AltitudeMeters>1229.5999755859375</AltitudeMeters>
            <DistanceMeters>72926.919312266</DistanceMeters>
          </Trackpoint>
          <Trackpoint>
            <Time>2019-08-02T07:04:50.000Z</Time>
            <Position>
              <LatitudeDegrees>40.74449594132602214813232421875</LatitudeDegrees>
              <LongitudeDegrees>-4.0674283169209957122802734375</LongitudeDegrees>
            </Position>
            <AltitudeMeters>1231.199951171875</AltitudeMeters>
            <DistanceMeters>72958.859598995</DistanceMeters>
          </Trackpoint>
          <Trackpoint>
            <Time>2019-08-02T07:05:03.000Z</Time>
            <Position>
              <LatitudeDegrees>40.74476349167525768280029296875</LatitudeDegrees>
              <LongitudeDegrees>-4.06733921729028224945068359375</LongitudeDegrees>
            </Position>
            <AltitudeMeters>1232.4000244140625</AltitudeMeters>
            <DistanceMeters>72989.571609754</DistanceMeters>
          </Trackpoint>
          <Trackpoint>
            <Time>2019-08-02T07:05:10.000Z</Time>
            <Position>
              <LatitudeDegrees>40.744930543005466461181640625</LatitudeDegrees>
              <LongitudeDegrees>-4.06728305853903293609619140625</LongitudeDegrees>
            </Position>
            <AltitudeMeters>1233.800048828125</AltitudeMeters>
            <DistanceMeters>73008.758536461</DistanceMeters>
          </Trackpoint>
          <Trackpoint>
            <Time>2019-08-02T07:05:16.000Z</Time>
            <Position>
              <LatitudeDegrees>40.745088793337345123291015625</LatitudeDegrees>
              <LongitudeDegrees>-4.067261852324008941650390625</LongitudeDegrees>
            </Position>
            <AltitudeMeters>1235</AltitudeMeters>
            <DistanceMeters>73026.462602474</DistanceMeters>
          </Trackpoint>
          <Trackpoint>
            <Time>2019-08-02T07:05:22.000Z</Time>
            <Position>
              <LatitudeDegrees>40.74521720409393310546875</LatitudeDegrees>
              <LongitudeDegrees>-4.06725120730698108673095703125</LongitudeDegrees>
            </Position>
            <AltitudeMeters>1236.199951171875</AltitudeMeters>
            <DistanceMeters>73040.782973839</DistanceMeters>
          </Trackpoint>
          <Trackpoint>
            <Time>2019-08-02T07:05:29.000Z</Time>
            <Position>
              <LatitudeDegrees>40.74536162428557872772216796875</LatitudeDegrees>
              <LongitudeDegrees>-4.06726260669529438018798828125</LongitudeDegrees>
            </Position>
            <AltitudeMeters>1237.4000244140625</AltitudeMeters>
            <DistanceMeters>73056.886006944</DistanceMeters>
          </Trackpoint>
          <Trackpoint>
            <Time>2019-08-02T07:05:37.000Z</Time>
            <Position>
              <LatitudeDegrees>40.745514594018459320068359375</LatitudeDegrees>
              <LongitudeDegrees>-4.0673084557056427001953125</LongitudeDegrees>
            </Position>
            <AltitudeMeters>1238.4000244140625</AltitudeMeters>
            <DistanceMeters>73074.345080815</DistanceMeters>
          </Trackpoint>
          <Trackpoint>
            <Time>2019-08-02T07:05:46.000Z</Time>
            <Position>
              <LatitudeDegrees>40.74568063952028751373291015625</LatitudeDegrees>
              <LongitudeDegrees>-4.067397303879261016845703125</LongitudeDegrees>
            </Position>
            <AltitudeMeters>1239.800048828125</AltitudeMeters>
            <DistanceMeters>73094.287110967</DistanceMeters>
          </Trackpoint>
          <Trackpoint>
            <Time>2019-08-02T07:06:00.000Z</Time>
            <Position>
              <LatitudeDegrees>40.7458730041980743408203125</LatitudeDegrees>
              <LongitudeDegrees>-4.067541472613811492919921875</LongitudeDegrees>
            </Position>
            <AltitudeMeters>1241</AltitudeMeters>
            <DistanceMeters>73118.908200743</DistanceMeters>
          </Trackpoint>
          <Trackpoint>
            <Time>2019-08-02T07:06:01.000Z</Time>
            <Position>
              <LatitudeDegrees>40.7458875887095928192138671875</LatitudeDegrees>
              <LongitudeDegrees>-4.06755027361214160919189453125</LongitudeDegrees>
            </Position>
            <AltitudeMeters>1241</AltitudeMeters>
            <DistanceMeters>73120.693590612</DistanceMeters>
          </Trackpoint>
          <Trackpoint>
            <Time>2019-08-02T07:06:34.000Z</Time>
            <Position>
              <LatitudeDegrees>40.74636711739003658294677734375</LatitudeDegrees>
              <LongitudeDegrees>-4.06787079758942127227783203125</LongitudeDegrees>
            </Position>
            <AltitudeMeters>1242.5999755859375</AltitudeMeters>
            <DistanceMeters>73180.519379191</DistanceMeters>
          </Trackpoint>
          <Trackpoint>
            <Time>2019-08-02T07:06:51.000Z</Time>
            <Position>
              <LatitudeDegrees>40.7466379366815090179443359375</LatitudeDegrees>
              <LongitudeDegrees>-4.067994765937328338623046875</LongitudeDegrees>
            </Position>
            <AltitudeMeters>1244</AltitudeMeters>
            <DistanceMeters>73212.423174523</DistanceMeters>
          </Trackpoint>
          <Trackpoint>
            <Time>2019-08-02T07:07:25.000Z</Time>
            <Position>
              <LatitudeDegrees>40.74715686030685901641845703125</LatitudeDegrees>
              <LongitudeDegrees>-4.068132229149341583251953125</LongitudeDegrees>
            </Position>
            <AltitudeMeters>1245.800048828125</AltitudeMeters>
            <DistanceMeters>73271.33207349</DistanceMeters>
          </Trackpoint>
          <Trackpoint>
            <Time>2019-08-02T07:07:52.000Z</Time>
            <Position>
              <LatitudeDegrees>40.74767637066543102264404296875</LatitudeDegrees>
              <LongitudeDegrees>-4.0682351589202880859375</LongitudeDegrees>
            </Position>
            <AltitudeMeters>1247.199951171875</AltitudeMeters>
            <DistanceMeters>73329.80238999</DistanceMeters>
          </Trackpoint>
          <Trackpoint>
            <Time>2019-08-02T07:08:05.000Z</Time>
            <Position>
              <LatitudeDegrees>40.7482224516570568084716796875</LatitudeDegrees>
              <LongitudeDegrees>-4.06820439733564853668212890625</LongitudeDegrees>
            </Position>
            <AltitudeMeters>1248.4000244140625</AltitudeMeters>
            <DistanceMeters>73390.637598957</DistanceMeters>
          </Trackpoint>
          <Trackpoint>
            <Time>2019-08-02T07:08:15.000Z</Time>
            <Position>
              <LatitudeDegrees>40.74875445105135440826416015625</LatitudeDegrees>
              <LongitudeDegrees>-4.0682514198124408721923828125</LongitudeDegrees>
            </Position>
            <AltitudeMeters>1249.800048828125</AltitudeMeters>
            <DistanceMeters>73449.982752122</DistanceMeters>
          </Trackpoint>
          <Trackpoint>
            <Time>2019-08-02T07:08:23.000Z</Time>
            <Position>
              <LatitudeDegrees>40.749090649187564849853515625</LatitudeDegrees>
              <LongitudeDegrees>-4.06844965182244777679443359375</LongitudeDegrees>
            </Position>
            <AltitudeMeters>1250.800048828125</AltitudeMeters>
            <DistanceMeters>73490.965825198</DistanceMeters>
          </Trackpoint>
          <Trackpoint>
            <Time>2019-08-02T07:08:29.000Z</Time>
            <Position>
              <LatitudeDegrees>40.7492836005985736846923828125</LatitudeDegrees>
              <LongitudeDegrees>-4.068591892719268798828125</LongitudeDegrees>
            </Position>
            <AltitudeMeters>1252.199951171875</AltitudeMeters>
            <DistanceMeters>73515.563614571</DistanceMeters>
          </Trackpoint>
          <Trackpoint>
            <Time>2019-08-02T07:08:35.000Z</Time>
            <Position>
              <LatitudeDegrees>40.749463140964508056640625</LatitudeDegrees>
              <LongitudeDegrees>-4.0687434375286102294921875</LongitudeDegrees>
            </Position>
            <AltitudeMeters>1253.5999755859375</AltitudeMeters>
            <DistanceMeters>73539.283013441</DistanceMeters>
          </Trackpoint>
          <Trackpoint>
            <Time>2019-08-02T07:08:36.000Z</Time>
            <Position>
              <LatitudeDegrees>40.74948937632143497467041015625</LatitudeDegrees>
              <LongitudeDegrees>-4.06876900233328342437744140625</LongitudeDegrees>
            </Position>
            <AltitudeMeters>1253.800048828125</AltitudeMeters>
            <DistanceMeters>73542.913979099</DistanceMeters>
          </Trackpoint>
          <Trackpoint>
            <Time>2019-08-02T07:08:41.000Z</Time>
            <Position>
              <LatitudeDegrees>40.74961326085031032562255859375</LatitudeDegrees>
              <LongitudeDegrees>-4.06888299621641635894775390625</LongitudeDegrees>
            </Position>
            <AltitudeMeters>1254.800048828125</AltitudeMeters>
            <DistanceMeters>73559.722160786</DistanceMeters>
          </Trackpoint>
          <Trackpoint>
            <Time>2019-08-02T07:08:47.000Z</Time>
            <Position>
              <LatitudeDegrees>40.7497553341090679168701171875</LatitudeDegrees>
              <LongitudeDegrees>-4.06901962123811244964599609375</LongitudeDegrees>
            </Position>
            <AltitudeMeters>1256</AltitudeMeters>
            <DistanceMeters>73579.28658974</DistanceMeters>
          </Trackpoint>
          <Trackpoint>
            <Time>2019-08-02T07:08:53.000Z</Time>
            <Position>
              <LatitudeDegrees>40.74989003129303455352783203125</LatitudeDegrees>
              <LongitudeDegrees>-4.06914987601339817047119140625</LongitudeDegrees>
            </Position>
            <AltitudeMeters>1257.4000244140625</AltitudeMeters>
            <DistanceMeters>73597.871055399</DistanceMeters>
          </Trackpoint>
          <Trackpoint>
            <Time>2019-08-02T07:09:09.000Z</Time>
            <Position>
              <LatitudeDegrees>40.75015607289969921112060546875</LatitudeDegrees>
              <LongitudeDegrees>-4.0694352798163890838623046875</LongitudeDegrees>
            </Position>
            <AltitudeMeters>1258.800048828125</AltitudeMeters>
            <DistanceMeters>73636.027683331</DistanceMeters>
          </Trackpoint>
          <Trackpoint>
            <Time>2019-08-02T07:09:24.000Z</Time>
            <Position>
              <LatitudeDegrees>40.750368721783161163330078125</LatitudeDegrees>
              <LongitudeDegrees>-4.06972386874258518218994140625</LongitudeDegrees>
            </Position>
            <AltitudeMeters>1258</AltitudeMeters>
            <DistanceMeters>73669.97310916</DistanceMeters>
          </Trackpoint>
          <Trackpoint>
            <Time>2019-08-02T07:09:35.000Z</Time>
            <Position>
              <LatitudeDegrees>40.7505469210445880889892578125</LatitudeDegrees>
              <LongitudeDegrees>-4.06987734138965606689453125</LongitudeDegrees>
            </Position>
            <AltitudeMeters>1257</AltitudeMeters>
            <DistanceMeters>73693.655169624</DistanceMeters>
          </Trackpoint>
          <Trackpoint>
            <Time>2019-08-02T07:09:40.000Z</Time>
            <Position>
              <LatitudeDegrees>40.75062789022922515869140625</LatitudeDegrees>
              <LongitudeDegrees>-4.06992570497095584869384765625</LongitudeDegrees>
            </Position>
            <AltitudeMeters>1256</AltitudeMeters>
            <DistanceMeters>73703.547080882</DistanceMeters>
          </Trackpoint>
          <Trackpoint>
            <Time>2019-08-02T07:09:46.000Z</Time>
            <Position>
              <LatitudeDegrees>40.75072688050568103790283203125</LatitudeDegrees>
              <LongitudeDegrees>-4.06997297890484333038330078125</LongitudeDegrees>
            </Position>
            <AltitudeMeters>1255.199951171875</AltitudeMeters>
            <DistanceMeters>73715.2635318</DistanceMeters>
          </Trackpoint>
          <Trackpoint>
            <Time>2019-08-02T07:10:02.000Z</Time>
            <Position>
              <LatitudeDegrees>40.7510531879961490631103515625</LatitudeDegrees>
              <LongitudeDegrees>-4.0700630843639373779296875</LongitudeDegrees>
            </Position>
            <AltitudeMeters>1254.199951171875</AltitudeMeters>
            <DistanceMeters>73752.368269704</DistanceMeters>
          </Trackpoint>
          <Trackpoint>
            <Time>2019-08-02T07:10:15.000Z</Time>
            <Position>
              <LatitudeDegrees>40.75130238197743892669677734375</LatitudeDegrees>
              <LongitudeDegrees>-4.0701075084507465362548828125</LongitudeDegrees>
            </Position>
            <AltitudeMeters>1255.4000244140625</AltitudeMeters>
            <DistanceMeters>73780.355855364</DistanceMeters>
          </Trackpoint>
          <Trackpoint>
            <Time>2019-08-02T07:10:26.000Z</Time>
            <Position>
              <LatitudeDegrees>40.75152668170630931854248046875</LatitudeDegrees>
              <LongitudeDegrees>-4.070127792656421661376953125</LongitudeDegrees>
            </Position>
            <AltitudeMeters>1253.800048828125</AltitudeMeters>
            <DistanceMeters>73805.379476623</DistanceMeters>
          </Trackpoint>
          <Trackpoint>
            <Time>2019-08-02T07:10:29.000Z</Time>
            <Position>
              <LatitudeDegrees>40.75158937834203243255615234375</LatitudeDegrees>
              <LongitudeDegrees>-4.0701309777796268463134765625</LongitudeDegrees>
            </Position>
            <AltitudeMeters>1252.800048828125</AltitudeMeters>
            <DistanceMeters>73812.362485487</DistanceMeters>
          </Trackpoint>
          <Trackpoint>
            <Time>2019-08-02T07:10:45.000Z</Time>
            <Position>
              <LatitudeDegrees>40.75191627256572246551513671875</LatitudeDegrees>
              <LongitudeDegrees>-4.07014715485274791717529296875</LongitudeDegrees>
            </Position>
            <AltitudeMeters>1254</AltitudeMeters>
            <DistanceMeters>73848.771980709</DistanceMeters>
          </Trackpoint>
          <Trackpoint>
            <Time>2019-08-02T07:10:53.000Z</Time>
            <Position>
              <LatitudeDegrees>40.7520715892314910888671875</LatitudeDegrees>
              <LongitudeDegrees>-4.07015788368880748748779296875</LongitudeDegrees>
            </Position>
            <AltitudeMeters>1255.199951171875</AltitudeMeters>
            <DistanceMeters>73866.082499381</DistanceMeters>
          </Trackpoint>
          <Trackpoint>
            <Time>2019-08-02T07:11:01.000Z</Time>
            <Position>
              <LatitudeDegrees>40.75221332721412181854248046875</LatitudeDegrees>
              <LongitudeDegrees>-4.07016945071518421173095703125</LongitudeDegrees>
            </Position>
            <AltitudeMeters>1256.4000244140625</AltitudeMeters>
            <DistanceMeters>73881.888387363</DistanceMeters>
          </Trackpoint>
          <Trackpoint>
            <Time>2019-08-02T07:11:10.000Z</Time>
            <Position>
              <LatitudeDegrees>40.75236772187054157257080078125</LatitudeDegrees>
              <LongitudeDegrees>-4.07018822617828845977783203125</LongitudeDegrees>
            </Position>
            <AltitudeMeters>1257.5999755859375</AltitudeMeters>
            <DistanceMeters>73899.145615447</DistanceMeters>
          </Trackpoint>
          <Trackpoint>
            <Time>2019-08-02T07:11:19.000Z</Time>
            <Position>
              <LatitudeDegrees>40.7525237090885639190673828125</LatitudeDegrees>
              <LongitudeDegrees>-4.07021990977227687835693359375</LongitudeDegrees>
            </Position>
            <AltitudeMeters>1258.800048828125</AltitudeMeters>
            <DistanceMeters>73916.711426333</DistanceMeters>
          </Trackpoint>
          <Trackpoint>
            <Time>2019-08-02T07:11:27.000Z</Time>
            <Position>
              <LatitudeDegrees>40.7526581548154354095458984375</LatitudeDegrees>
              <LongitudeDegrees>-4.070270620286464691162109375</LongitudeDegrees>
            </Position>
            <AltitudeMeters>1260</AltitudeMeters>
            <DistanceMeters>73932.274353769</DistanceMeters>
          </Trackpoint>
          <Trackpoint>
            <Time>2019-08-02T07:11:36.000Z</Time>
            <Position>
              <LatitudeDegrees>40.75281799770891666412353515625</LatitudeDegrees>
              <LongitudeDegrees>-4.070325605571269989013671875</LongitudeDegrees>
            </Position>
            <AltitudeMeters>1261.199951171875</AltitudeMeters>
            <DistanceMeters>73950.659260387</DistanceMeters>
          </Trackpoint>
          <Trackpoint>
            <Time>2019-08-02T07:11:44.000Z</Time>
            <Position>
              <LatitudeDegrees>40.7529659382998943328857421875</LatitudeDegrees>
              <LongitudeDegrees>-4.070365168154239654541015625</LongitudeDegrees>
            </Position>
            <AltitudeMeters>1262.199951171875</AltitudeMeters>
            <DistanceMeters>73967.459650246</DistanceMeters>
          </Trackpoint>
          <Trackpoint>
            <Time>2019-08-02T07:11:48.000Z</Time>
            <Position>
              <LatitudeDegrees>40.7530403696000576019287109375</LatitudeDegrees>
              <LongitudeDegrees>-4.0703901462256908416748046875</LongitudeDegrees>
            </Position>
            <AltitudeMeters>1263.4000244140625</AltitudeMeters>
            <DistanceMeters>73976.007830087</DistanceMeters>
          </Trackpoint>
          <Trackpoint>
            <Time>2019-08-02T07:11:52.000Z</Time>
            <Position>
              <LatitudeDegrees>40.75311723165214061737060546875</LatitudeDegrees>
              <LongitudeDegrees>-4.0704132802784442901611328125</LongitudeDegrees>
            </Position>
            <AltitudeMeters>1264.5999755859375</AltitudeMeters>
            <DistanceMeters>73984.782249256</DistanceMeters>
          </Trackpoint>
          <Trackpoint>
            <Time>2019-08-02T07:11:59.000Z</Time>
            <Position>
              <LatitudeDegrees>40.7532502524554729461669921875</LatitudeDegrees>
              <LongitudeDegrees>-4.07045125029981136322021484375</LongitudeDegrees>
            </Position>
            <AltitudeMeters>1265.800048828125</AltitudeMeters>
            <DistanceMeters>73999.929996364</DistanceMeters>
          </Trackpoint>
          <Trackpoint>
            <Time>2019-08-02T07:12:19.000Z</Time>
            <Position>
              <LatitudeDegrees>40.75360204093158245086669921875</LatitudeDegrees>
              <LongitudeDegrees>-4.07058083452284336090087890625</LongitudeDegrees>
            </Position>
            <AltitudeMeters>1267.199951171875</AltitudeMeters>
            <DistanceMeters>74040.580665473</DistanceMeters>
          </Trackpoint>
          <Trackpoint>
            <Time>2019-08-02T07:12:21.000Z</Time>
            <Position>
              <LatitudeDegrees>40.75363355688750743865966796875</LatitudeDegrees>
              <LongitudeDegrees>-4.07059726305305957794189453125</LongitudeDegrees>
            </Position>
            <AltitudeMeters>1267.199951171875</AltitudeMeters>
            <DistanceMeters>74044.350723871</DistanceMeters>
          </Trackpoint>
          <Trackpoint>
            <Time>2019-08-02T07:12:38.000Z</Time>
            <Position>
              <LatitudeDegrees>40.7538778893649578094482421875</LatitudeDegrees>
              <LongitudeDegrees>-4.07070388086140155792236328125</LongitudeDegrees>
            </Position>
            <AltitudeMeters>1266.4000244140625</AltitudeMeters>
            <DistanceMeters>74072.992412449</DistanceMeters>
          </Trackpoint>
          <Trackpoint>
            <Time>2019-08-02T07:12:47.000Z</Time>
            <Position>
              <LatitudeDegrees>40.7540103234350681304931640625</LatitudeDegrees>
              <LongitudeDegrees>-4.0707639791071414947509765625</LongitudeDegrees>
            </Position>
            <AltitudeMeters>1265.4000244140625</AltitudeMeters>
            <DistanceMeters>74088.579111159</DistanceMeters>
          </Trackpoint>
          <Trackpoint>
            <Time>2019-08-02T07:13:01.000Z</Time>
            <Position>
              <LatitudeDegrees>40.75421308167278766632080078125</LatitudeDegrees>
              <LongitudeDegrees>-4.0707884542644023895263671875</LongitudeDegrees>
            </Position>
            <AltitudeMeters>1264.199951171875</AltitudeMeters>
            <DistanceMeters>74111.240541991</DistanceMeters>
          </Trackpoint>
          <Trackpoint>
            <Time>2019-08-02T07:13:04.000Z</Time>
            <Position>
              <LatitudeDegrees>40.7542533986270427703857421875</LatitudeDegrees>
              <LongitudeDegrees>-4.07078954391181468963623046875</LongitudeDegrees>
            </Position>
            <AltitudeMeters>1263</AltitudeMeters>
            <DistanceMeters>74115.727976722</DistanceMeters>
          </Trackpoint>
          <Trackpoint>
            <Time>2019-08-02T07:13:06.000Z</Time>
            <Position>
              <LatitudeDegrees>40.754280053079128265380859375</LatitudeDegrees>
              <LongitudeDegrees>-4.07078635878860950469970703125</LongitudeDegrees>
            </Position>
            <AltitudeMeters>1262</AltitudeMeters>
            <DistanceMeters>74118.705817394</DistanceMeters>
          </Trackpoint>
          <Trackpoint>
            <Time>2019-08-02T07:13:16.000Z</Time>
            <Position>
              <LatitudeDegrees>40.754412151873111724853515625</LatitudeDegrees>
              <LongitudeDegrees>-4.07077185809612274169921875</LongitudeDegrees>
            </Position>
            <AltitudeMeters>1260.800048828125</AltitudeMeters>
            <DistanceMeters>74133.459460764</DistanceMeters>
          </Trackpoint>
          <Trackpoint>
            <Time>2019-08-02T07:13:29.000Z</Time>
            <Position>
              <LatitudeDegrees>40.7545910216867923736572265625</LatitudeDegrees>
              <LongitudeDegrees>-4.07076272182166576385498046875</LongitudeDegrees>
            </Position>
            <AltitudeMeters>1259.4000244140625</AltitudeMeters>
            <DistanceMeters>74153.382916798</DistanceMeters>
          </Trackpoint>
          <Trackpoint>
            <Time>2019-08-02T07:13:49.000Z</Time>
            <Position>
              <LatitudeDegrees>40.75487240217626094818115234375</LatitudeDegrees>
              <LongitudeDegrees>-4.07073556445538997650146484375</LongitudeDegrees>
            </Position>
            <AltitudeMeters>1261</AltitudeMeters>
            <DistanceMeters>74184.784609229</DistanceMeters>
          </Trackpoint>
          <Trackpoint>
            <Time>2019-08-02T07:14:04.000Z</Time>
            <Position>
              <LatitudeDegrees>40.755072645843029022216796875</LatitudeDegrees>
              <LongitudeDegrees>-4.07073657028377056121826171875</LongitudeDegrees>
            </Position>
            <AltitudeMeters>1259.800048828125</AltitudeMeters>
            <DistanceMeters>74207.072172467</DistanceMeters>
          </Trackpoint>
          <Trackpoint>
            <Time>2019-08-02T07:14:26.000Z</Time>
            <Position>
              <LatitudeDegrees>40.7553465664386749267578125</LatitudeDegrees>
              <LongitudeDegrees>-4.07072718255221843719482421875</LongitudeDegrees>
            </Position>
            <AltitudeMeters>1260.800048828125</AltitudeMeters>
            <DistanceMeters>74237.570122627</DistanceMeters>
          </Trackpoint>
          <Trackpoint>
            <Time>2019-08-02T07:14:34.000Z</Time>
            <Position>
              <LatitudeDegrees>40.755449831485748291015625</LatitudeDegrees>
              <LongitudeDegrees>-4.07072684727609157562255859375</LongitudeDegrees>
            </Position>
            <AltitudeMeters>1262</AltitudeMeters>
            <DistanceMeters>74249.063642031</DistanceMeters>
          </Trackpoint>
          <Trackpoint>
            <Time>2019-08-02T07:15:02.000Z</Time>
            <Position>
              <LatitudeDegrees>40.7557846046984195709228515625</LatitudeDegrees>
              <LongitudeDegrees>-4.07071226276457309722900390625</LongitudeDegrees>
            </Position>
            <AltitudeMeters>1263.199951171875</AltitudeMeters>
            <DistanceMeters>74286.345009176</DistanceMeters>
          </Trackpoint>
          <Trackpoint>
            <Time>2019-08-02T07:15:04.000Z</Time>
            <Position>
              <LatitudeDegrees>40.7558094151318073272705078125</LatitudeDegrees>
              <LongitudeDegrees>-4.07070958055555820465087890625</LongitudeDegrees>
            </Position>
            <AltitudeMeters>1264.199951171875</AltitudeMeters>
            <DistanceMeters>74289.117119393</DistanceMeters>
          </Trackpoint>
          <Trackpoint>
            <Time>2019-08-02T07:15:19.000Z</Time>
            <Position>
              <LatitudeDegrees>40.755989961326122283935546875</LatitudeDegrees>
              <LongitudeDegrees>-4.07071494497358798980712890625</LongitudeDegrees>
            </Position>
            <AltitudeMeters>1263.199951171875</AltitudeMeters>
            <DistanceMeters>74309.217235069</DistanceMeters>
          </Trackpoint>
          <Trackpoint>
            <Time>2019-08-02T07:15:29.000Z</Time>
            <Position>
              <LatitudeDegrees>40.7561084814369678497314453125</LatitudeDegrees>
              <LongitudeDegrees>-4.0707309544086456298828125</LongitudeDegrees>
            </Position>
            <AltitudeMeters>1262.199951171875</AltitudeMeters>
            <DistanceMeters>74322.477803631</DistanceMeters>
          </Trackpoint>
          <Trackpoint>
            <Time>2019-08-02T07:15:36.000Z</Time>
            <Position>
              <LatitudeDegrees>40.75618282891809940338134765625</LatitudeDegrees>
              <LongitudeDegrees>-4.07075383700430393218994140625</LongitudeDegrees>
            </Position>
            <AltitudeMeters>1261</AltitudeMeters>
            <DistanceMeters>74330.974594859</DistanceMeters>
          </Trackpoint>
          <Trackpoint>
            <Time>2019-08-02T07:15:40.000Z</Time>
            <Position>
              <LatitudeDegrees>40.75622297823429107666015625</LatitudeDegrees>
              <LongitudeDegrees>-4.07075710594654083251953125</LongitudeDegrees>
            </Position>
            <AltitudeMeters>1259.5999755859375</AltitudeMeters>
            <DistanceMeters>74335.451956772</DistanceMeters>
          </Trackpoint>
          <Trackpoint>
            <Time>2019-08-02T07:15:47.000Z</Time>
            <Position>
              <LatitudeDegrees>40.7562969066202640533447265625</LatitudeDegrees>
              <LongitudeDegrees>-4.07076112926006317138671875</LongitudeDegrees>
            </Position>
            <AltitudeMeters>1260.5999755859375</AltitudeMeters>
            <DistanceMeters>74343.687544436</DistanceMeters>
          </Trackpoint>
          <Trackpoint>
            <Time>2019-08-02T07:15:49.000Z</Time>
            <Position>
              <LatitudeDegrees>40.756317861378192901611328125</LatitudeDegrees>
              <LongitudeDegrees>-4.0707658231258392333984375</LongitudeDegrees>
            </Position>
            <AltitudeMeters>1259.5999755859375</AltitudeMeters>
            <DistanceMeters>74346.05178159</DistanceMeters>
          </Trackpoint>
          <Trackpoint>
            <Time>2019-08-02T07:15:55.000Z</Time>
            <Position>
              <LatitudeDegrees>40.75637913309037685394287109375</LatitudeDegrees>
              <LongitudeDegrees>-4.0707700140774250030517578125</LongitudeDegrees>
            </Position>
            <AltitudeMeters>1259</AltitudeMeters>
            <DistanceMeters>74352.880494116</DistanceMeters>
          </Trackpoint>
          <Trackpoint>
            <Time>2019-08-02T07:16:13.000Z</Time>
            <Position>
              <LatitudeDegrees>40.75658633373677730560302734375</LatitudeDegrees>
              <LongitudeDegrees>-4.07079239375889301300048828125</LongitudeDegrees>
            </Position>
            <AltitudeMeters>1260.5999755859375</AltitudeMeters>
            <DistanceMeters>74376.019450283</DistanceMeters>
          </Trackpoint>
          <Trackpoint>
            <Time>2019-08-02T07:16:16.000Z</Time>
            <Position>
              <LatitudeDegrees>40.7566244713962078094482421875</LatitudeDegrees>
              <LongitudeDegrees>-4.070798344910144805908203125</LongitudeDegrees>
            </Position>
            <AltitudeMeters>1261.5999755859375</AltitudeMeters>
            <DistanceMeters>74380.294596447</DistanceMeters>
          </Trackpoint>
          <Trackpoint>
            <Time>2019-08-02T07:16:25.000Z</Time>
            <Position>
              <LatitudeDegrees>40.7567310892045497894287109375</LatitudeDegrees>
              <LongitudeDegrees>-4.07080806791782379150390625</LongitudeDegrees>
            </Position>
            <AltitudeMeters>1262.199951171875</AltitudeMeters>
            <DistanceMeters>74392.190028254</DistanceMeters>
          </Trackpoint>
          <Trackpoint>
            <Time>2019-08-02T07:16:27.000Z</Time>
            <Position>
              <LatitudeDegrees>40.756757073104381561279296875</LatitudeDegrees>
              <LongitudeDegrees>-4.0708141028881072998046875</LongitudeDegrees>
            </Position>
            <AltitudeMeters>1262.800048828125</AltitudeMeters>
            <DistanceMeters>74395.126645867</DistanceMeters>
          </Trackpoint>
          <Trackpoint>
            <Time>2019-08-02T07:16:40.000Z</Time>
            <Position>
              <LatitudeDegrees>40.7568973861634731292724609375</LatitudeDegrees>
              <LongitudeDegrees>-4.07083447091281414031982421875</LongitudeDegrees>
            </Position>
            <AltitudeMeters>1263.5999755859375</AltitudeMeters>
            <DistanceMeters>74410.837697378</DistanceMeters>
          </Trackpoint>
          <Trackpoint>
            <Time>2019-08-02T07:16:46.000Z</Time>
            <Position>
              <LatitudeDegrees>40.75695312581956386566162109375</LatitudeDegrees>
              <LongitudeDegrees>-4.07083354890346527099609375</LongitudeDegrees>
            </Position>
            <AltitudeMeters>1264.5999755859375</AltitudeMeters>
            <DistanceMeters>74417.042876341</DistanceMeters>
          </Trackpoint>
          <Trackpoint>
            <Time>2019-08-02T07:16:51.000Z</Time>
            <Position>
              <LatitudeDegrees>40.75701498426496982574462890625</LatitudeDegrees>
              <LongitudeDegrees>-4.07084218226373195648193359375</LongitudeDegrees>
            </Position>
            <AltitudeMeters>1265.800048828125</AltitudeMeters>
            <DistanceMeters>74423.966144772</DistanceMeters>
          </Trackpoint>
          <Trackpoint>
            <Time>2019-08-02T07:16:55.000Z</Time>
            <Position>
              <LatitudeDegrees>40.75706142000854015350341796875</LatitudeDegrees>
              <LongitudeDegrees>-4.070854671299457550048828125</LongitudeDegrees>
            </Position>
            <AltitudeMeters>1267</AltitudeMeters>
            <DistanceMeters>74429.239913391</DistanceMeters>
          </Trackpoint>
          <Trackpoint>
            <Time>2019-08-02T07:16:57.000Z</Time>
            <Position>
              <LatitudeDegrees>40.75708522461354732513427734375</LatitudeDegrees>
              <LongitudeDegrees>-4.070858694612979888916015625</LongitudeDegrees>
            </Position>
            <AltitudeMeters>1268</AltitudeMeters>
            <DistanceMeters>74431.910823421</DistanceMeters>
          </Trackpoint>
          <Trackpoint>
            <Time>2019-08-02T07:17:12.000Z</Time>
            <Position>
              <LatitudeDegrees>40.757271386682987213134765625</LatitudeDegrees>
              <LongitudeDegrees>-4.0708662383258342742919921875</LongitudeDegrees>
            </Position>
            <AltitudeMeters>1269.199951171875</AltitudeMeters>
            <DistanceMeters>74452.64080914</DistanceMeters>
          </Trackpoint>
          <Trackpoint>
            <Time>2019-08-02T07:17:17.000Z</Time>
            <Position>
              <LatitudeDegrees>40.7573406212031841278076171875</LatitudeDegrees>
              <LongitudeDegrees>-4.070864059031009674072265625</LongitudeDegrees>
            </Position>
            <AltitudeMeters>1270.5999755859375</AltitudeMeters>
            <DistanceMeters>74460.349110055</DistanceMeters>
          </Trackpoint>
          <Trackpoint>
            <Time>2019-08-02T07:17:20.000Z</Time>
            <Position>
              <LatitudeDegrees>40.757382027804851531982421875</LatitudeDegrees>
              <LongitudeDegrees>-4.0708622150123119354248046875</LongitudeDegrees>
            </Position>
            <AltitudeMeters>1271.4000244140625</AltitudeMeters>
            <DistanceMeters>74464.959619783</DistanceMeters>
          </Trackpoint>
          <Trackpoint>
            <Time>2019-08-02T07:17:29.000Z</Time>
            <Position>
              <LatitudeDegrees>40.75749744661152362823486328125</LatitudeDegrees>
              <LongitudeDegrees>-4.0708722732961177825927734375</LongitudeDegrees>
            </Position>
            <AltitudeMeters>1270.4000244140625</AltitudeMeters>
            <DistanceMeters>74477.833898525</DistanceMeters>
          </Trackpoint>
          <Trackpoint>
            <Time>2019-08-02T07:17:39.000Z</Time>
            <Position>
              <LatitudeDegrees>40.757619403302669525146484375</LatitudeDegrees>
              <LongitudeDegrees>-4.07087269239127635955810546875</LongitudeDegrees>
            </Position>
            <AltitudeMeters>1271.800048828125</AltitudeMeters>
            <DistanceMeters>74491.408091312</DistanceMeters>
          </Trackpoint>
          <Trackpoint>
            <Time>2019-08-02T07:17:42.000Z</Time>
            <Position>
              <LatitudeDegrees>40.7576581276953220367431640625</LatitudeDegrees>
              <LongitudeDegrees>-4.07087453640997409820556640625</LongitudeDegrees>
            </Position>
            <AltitudeMeters>1272.800048828125</AltitudeMeters>
            <DistanceMeters>74495.721089976</DistanceMeters>
          </Trackpoint>
          <Trackpoint>
            <Time>2019-08-02T07:18:24.000Z</Time>
            <Position>
              <LatitudeDegrees>40.7581144385039806365966796875</LatitudeDegrees>
              <LongitudeDegrees>-4.070914350450038909912109375</LongitudeDegrees>
            </Position>
            <AltitudeMeters>1273.199951171875</AltitudeMeters>
            <DistanceMeters>74546.620116211</DistanceMeters>
          </Trackpoint>
          <Trackpoint>
            <Time>2019-08-02T07:18:28.000Z</Time>
            <Position>
              <LatitudeDegrees>40.75815676711499691009521484375</LatitudeDegrees>
              <LongitudeDegrees>-4.07092080451548099517822265625</LongitudeDegrees>
            </Position>
            <AltitudeMeters>1274.4000244140625</AltitudeMeters>
            <DistanceMeters>74551.363843701</DistanceMeters>
          </Trackpoint>
          <Trackpoint>
            <Time>2019-08-02T07:18:41.000Z</Time>
            <Position>
              <LatitudeDegrees>40.75830730609595775604248046875</LatitudeDegrees>
              <LongitudeDegrees>-4.07091175206005573272705078125</LongitudeDegrees>
            </Position>
            <AltitudeMeters>1275.4000244140625</AltitudeMeters>
            <DistanceMeters>74568.135991488</DistanceMeters>
          </Trackpoint>
          <Trackpoint>
            <Time>2019-08-02T07:18:47.000Z</Time>
            <Position>
              <LatitudeDegrees>40.7583729363977909088134765625</LatitudeDegrees>
              <LongitudeDegrees>-4.07091560773551464080810546875</LongitudeDegrees>
            </Position>
            <AltitudeMeters>1276.5999755859375</AltitudeMeters>
            <DistanceMeters>74575.447492876</DistanceMeters>
          </Trackpoint>
          <Trackpoint>
            <Time>2019-08-02T07:18:54.000Z</Time>
            <Position>
              <LatitudeDegrees>40.75844543986022472381591796875</LatitudeDegrees>
              <LongitudeDegrees>-4.07092382200062274932861328125</LongitudeDegrees>
            </Position>
            <AltitudeMeters>1277.5999755859375</AltitudeMeters>
            <DistanceMeters>74583.546534503</DistanceMeters>
          </Trackpoint>
          <Trackpoint>
            <Time>2019-08-02T07:19:02.000Z</Time>
            <Position>
              <LatitudeDegrees>40.75853906571865081787109375</LatitudeDegrees>
              <LongitudeDegrees>-4.070939160883426666259765625</LongitudeDegrees>
            </Position>
            <AltitudeMeters>1278.800048828125</AltitudeMeters>
            <DistanceMeters>74594.046878945</DistanceMeters>
          </Trackpoint>
          <Trackpoint>
            <Time>2019-08-02T07:19:08.000Z</Time>
            <Position>
              <LatitudeDegrees>40.7586150057613849639892578125</LatitudeDegrees>
              <LongitudeDegrees>-4.07093823887407779693603515625</LongitudeDegrees>
            </Position>
            <AltitudeMeters>1279.800048828125</AltitudeMeters>
            <DistanceMeters>74602.499450436</DistanceMeters>
          </Trackpoint>
          <Trackpoint>
            <Time>2019-08-02T07:19:16.000Z</Time>
            <Position>
              <LatitudeDegrees>40.7587087154388427734375</LatitudeDegrees>
              <LongitudeDegrees>-4.07093304209411144256591796875</LongitudeDegrees>
            </Position>
            <AltitudeMeters>1280.5999755859375</AltitudeMeters>
            <DistanceMeters>74612.938557799</DistanceMeters>
          </Trackpoint>
          <Trackpoint>
            <Time>2019-08-02T07:19:20.000Z</Time>
            <Position>
              <LatitudeDegrees>40.75875992886722087860107421875</LatitudeDegrees>
              <LongitudeDegrees>-4.0709537453949451446533203125</LongitudeDegrees>
            </Position>
            <AltitudeMeters>1281.199951171875</AltitudeMeters>
            <DistanceMeters>74618.900300907</DistanceMeters>
          </Trackpoint>
          <Trackpoint>
            <Time>2019-08-02T07:19:24.000Z</Time>
            <Position>
              <LatitudeDegrees>40.75880385003983974456787109375</LatitudeDegrees>
              <LongitudeDegrees>-4.07096690498292446136474609375</LongitudeDegrees>
            </Position>
            <AltitudeMeters>1281.800048828125</AltitudeMeters>
            <DistanceMeters>74623.914254718</DistanceMeters>
          </Trackpoint>
          <Trackpoint>
            <Time>2019-08-02T07:19:29.000Z</Time>
            <Position>
              <LatitudeDegrees>40.7588751800358295440673828125</LatitudeDegrees>
              <LongitudeDegrees>-4.0709956549108028411865234375</LongitudeDegrees>
            </Position>
            <AltitudeMeters>1282.5999755859375</AltitudeMeters>
            <DistanceMeters>74632.215369905</DistanceMeters>
          </Trackpoint>
          <Trackpoint>
            <Time>2019-08-02T07:19:36.000Z</Time>
            <Position>
              <LatitudeDegrees>40.75895573012530803680419921875</LatitudeDegrees>
              <LongitudeDegrees>-4.071029685437679290771484375</LongitudeDegrees>
            </Position>
            <AltitudeMeters>1283.5999755859375</AltitudeMeters>
            <DistanceMeters>74641.62877206</DistanceMeters>
          </Trackpoint>
          <Trackpoint>
            <Time>2019-08-02T07:19:42.000Z</Time>
            <Position>
              <LatitudeDegrees>40.759030245244503021240234375</LatitudeDegrees>
              <LongitudeDegrees>-4.07105223275721073150634765625</LongitudeDegrees>
            </Position>
            <AltitudeMeters>1284.800048828125</AltitudeMeters>
            <DistanceMeters>74650.137776287</DistanceMeters>
          </Trackpoint>
          <Trackpoint>
            <Time>2019-08-02T07:19:57.000Z</Time>
            <Position>
              <LatitudeDegrees>40.7592035830020904541015625</LatitudeDegrees>
              <LongitudeDegrees>-4.071123562753200531005859375</LongitudeDegrees>
            </Position>
            <AltitudeMeters>1285.5999755859375</AltitudeMeters>
            <DistanceMeters>74670.346095789</DistanceMeters>
          </Trackpoint>
          <Trackpoint>
            <Time>2019-08-02T07:20:04.000Z</Time>
            <Position>
              <LatitudeDegrees>40.759290419518947601318359375</LatitudeDegrees>
              <LongitudeDegrees>-4.071150720119476318359375</LongitudeDegrees>
            </Position>
            <AltitudeMeters>1286.5999755859375</AltitudeMeters>
            <DistanceMeters>74680.279001468</DistanceMeters>
          </Trackpoint>
          <Trackpoint>
            <Time>2019-08-02T07:20:10.000Z</Time>
            <Position>
              <LatitudeDegrees>40.75937096960842609405517578125</LatitudeDegrees>
              <LongitudeDegrees>-4.071167148649692535400390625</LongitudeDegrees>
            </Position>
            <AltitudeMeters>1287.5999755859375</AltitudeMeters>
            <DistanceMeters>74689.350942644</DistanceMeters>
          </Trackpoint>
          <Trackpoint>
            <Time>2019-08-02T07:20:15.000Z</Time>
            <Position>
              <LatitudeDegrees>40.75943048112094402313232421875</LatitudeDegrees>
              <LongitudeDegrees>-4.0711948089301586151123046875</LongitudeDegrees>
            </Position>
            <AltitudeMeters>1288.5999755859375</AltitudeMeters>
            <DistanceMeters>74696.373281817</DistanceMeters>
          </Trackpoint>
          <Trackpoint>
            <Time>2019-08-02T07:20:21.000Z</Time>
            <Position>
              <LatitudeDegrees>40.75949854217469692230224609375</LatitudeDegrees>
              <LongitudeDegrees>-4.07121869735419750213623046875</LongitudeDegrees>
            </Position>
            <AltitudeMeters>1289.4000244140625</AltitudeMeters>
            <DistanceMeters>74704.211689827</DistanceMeters>
          </Trackpoint>
          <Trackpoint>
            <Time>2019-08-02T07:20:27.000Z</Time>
            <Position>
              <LatitudeDegrees>40.75956190936267375946044921875</LatitudeDegrees>
              <LongitudeDegrees>-4.07124132849276065826416015625</LongitudeDegrees>
            </Position>
            <AltitudeMeters>1290.5999755859375</AltitudeMeters>
            <DistanceMeters>74711.518249341</DistanceMeters>
          </Trackpoint>
          <Trackpoint>
            <Time>2019-08-02T07:20:32.000Z</Time>
            <Position>
              <LatitudeDegrees>40.75961924158036708831787109375</LatitudeDegrees>
              <LongitudeDegrees>-4.0712668932974338531494140625</LongitudeDegrees>
            </Position>
            <AltitudeMeters>1291.5999755859375</AltitudeMeters>
            <DistanceMeters>74718.254430317</DistanceMeters>
          </Trackpoint>
          <Trackpoint>
            <Time>2019-08-02T07:20:39.000Z</Time>
            <Position>
              <LatitudeDegrees>40.75970591045916080474853515625</LatitudeDegrees>
              <LongitudeDegrees>-4.07129128463566303253173828125</LongitudeDegrees>
            </Position>
            <AltitudeMeters>1292.5999755859375</AltitudeMeters>
            <DistanceMeters>74728.118001861</DistanceMeters>
          </Trackpoint>
          <Trackpoint>
            <Time>2019-08-02T07:20:44.000Z</Time>
            <Position>
              <LatitudeDegrees>40.759765841066837310791015625</LatitudeDegrees>
              <LongitudeDegrees>-4.071289859712123870849609375</LongitudeDegrees>
            </Position>
            <AltitudeMeters>1293.800048828125</AltitudeMeters>
            <DistanceMeters>74734.790203661</DistanceMeters>
          </Trackpoint>
          <Trackpoint>
            <Time>2019-08-02T07:20:49.000Z</Time>
            <Position>
              <LatitudeDegrees>40.75982526876032352447509765625</LatitudeDegrees>
              <LongitudeDegrees>-4.07128843478858470916748046875</LongitudeDegrees>
            </Position>
            <AltitudeMeters>1294.800048828125</AltitudeMeters>
            <DistanceMeters>74741.406001461</DistanceMeters>
          </Trackpoint>
          <Trackpoint>
            <Time>2019-08-02T07:20:59.000Z</Time>
            <Position>
              <LatitudeDegrees>40.75995066203176975250244140625</LatitudeDegrees>
              <LongitudeDegrees>-4.07128441147506237030029296875</LongitudeDegrees>
            </Position>
            <AltitudeMeters>1295.800048828125</AltitudeMeters>
            <DistanceMeters>74755.366845632</DistanceMeters>
          </Trackpoint>
          <Trackpoint>
            <Time>2019-08-02T07:21:07.000Z</Time>
            <Position>
              <LatitudeDegrees>40.76006130315363407135009765625</LatitudeDegrees>
              <LongitudeDegrees>-4.0712752752006053924560546875</LongitudeDegrees>
            </Position>
            <AltitudeMeters>1296.800048828125</AltitudeMeters>
            <DistanceMeters>74767.705690345</DistanceMeters>
          </Trackpoint>
          <Trackpoint>
            <Time>2019-08-02T07:21:10.000Z</Time>
            <Position>
              <LatitudeDegrees>40.760103799402713775634765625</LatitudeDegrees>
              <LongitudeDegrees>-4.0712735988199710845947265625</LongitudeDegrees>
            </Position>
            <AltitudeMeters>1297.199951171875</AltitudeMeters>
            <DistanceMeters>74772.437982557</DistanceMeters>
          </Trackpoint>
          <Trackpoint>
            <Time>2019-08-02T07:21:14.000Z</Time>
            <Position>
              <LatitudeDegrees>40.7601559348404407501220703125</LatitudeDegrees>
              <LongitudeDegrees>-4.07127200625836849212646484375</LongitudeDegrees>
            </Position>
            <AltitudeMeters>1297.800048828125</AltitudeMeters>
            <DistanceMeters>74778.243173793</DistanceMeters>
          </Trackpoint>
          <Trackpoint>
            <Time>2019-08-02T07:21:22.000Z</Time>
            <Position>
              <LatitudeDegrees>40.760246627032756805419921875</LatitudeDegrees>
              <LongitudeDegrees>-4.0712665580213069915771484375</LongitudeDegrees>
            </Position>
            <AltitudeMeters>1298.800048828125</AltitudeMeters>
            <DistanceMeters>74788.348227203</DistanceMeters>
          </Trackpoint>
          <Trackpoint>
            <Time>2019-08-02T07:21:32.000Z</Time>
            <Position>
              <LatitudeDegrees>40.76037369668483734130859375</LatitudeDegrees>
              <LongitudeDegrees>-4.07126010395586490631103515625</LongitudeDegrees>
            </Position>
            <AltitudeMeters>1300</AltitudeMeters>
            <DistanceMeters>74802.501785619</DistanceMeters>
          </Trackpoint>
          <Trackpoint>
            <Time>2019-08-02T07:21:39.000Z</Time>
            <Position>
              <LatitudeDegrees>40.76046061702072620391845703125</LatitudeDegrees>
              <LongitudeDegrees>-4.0712459385395050048828125</LongitudeDegrees>
            </Position>
            <AltitudeMeters>1301</AltitudeMeters>
            <DistanceMeters>74812.249785128</DistanceMeters>
          </Trackpoint>
          <Trackpoint>
            <Time>2019-08-02T07:21:53.000Z</Time>
            <Position>
              <LatitudeDegrees>40.760610401630401611328125</LatitudeDegrees>
              <LongitudeDegrees>-4.07123931683599948883056640625</LongitudeDegrees>
            </Position>
            <AltitudeMeters>1301.800048828125</AltitudeMeters>
            <DistanceMeters>74828.930424968</DistanceMeters>
          </Trackpoint>
          <Trackpoint>
            <Time>2019-08-02T07:22:02.000Z</Time>
            <Position>
              <LatitudeDegrees>40.7607238925993442535400390625</LatitudeDegrees>
              <LongitudeDegrees>-4.07122389413416385650634765625</LongitudeDegrees>
            </Position>
            <AltitudeMeters>1302.5999755859375</AltitudeMeters>
            <DistanceMeters>74841.629208576</DistanceMeters>
          </Trackpoint>
          <Trackpoint>
            <Time>2019-08-02T07:22:10.000Z</Time>
            <Position>
              <LatitudeDegrees>40.760826654732227325439453125</LatitudeDegrees>
              <LongitudeDegrees>-4.07123026438057422637939453125</LongitudeDegrees>
            </Position>
            <AltitudeMeters>1303.800048828125</AltitudeMeters>
            <DistanceMeters>74853.07943477</DistanceMeters>
          </Trackpoint>
          <Trackpoint>
            <Time>2019-08-02T07:22:19.000Z</Time>
            <Position>
              <LatitudeDegrees>40.7609336078166961669921875</LatitudeDegrees>
              <LongitudeDegrees>-4.07124736346304416656494140625</LongitudeDegrees>
            </Position>
            <AltitudeMeters>1304.4000244140625</AltitudeMeters>
            <DistanceMeters>74865.07013438</DistanceMeters>
          </Trackpoint>
          <Trackpoint>
            <Time>2019-08-02T07:22:21.000Z</Time>
            <Position>
              <LatitudeDegrees>40.760964117944240570068359375</LatitudeDegrees>
              <LongitudeDegrees>-4.0712486207485198974609375</LongitudeDegrees>
            </Position>
            <AltitudeMeters>1304.5999755859375</AltitudeMeters>
            <DistanceMeters>74868.467256353</DistanceMeters>
          </Trackpoint>
          <Trackpoint>
            <Time>2019-08-02T07:22:33.000Z</Time>
            <Position>
              <LatitudeDegrees>40.761114992201328277587890625</LatitudeDegrees>
              <LongitudeDegrees>-4.07126798294484615325927734375</LongitudeDegrees>
            </Position>
            <AltitudeMeters>1305.4000244140625</AltitudeMeters>
            <DistanceMeters>74885.338713601</DistanceMeters>
          </Trackpoint>
          <Trackpoint>
            <Time>2019-08-02T07:22:42.000Z</Time>
            <Position>
              <LatitudeDegrees>40.76123527251183986663818359375</LatitudeDegrees>
              <LongitudeDegrees>-4.07125063240528106689453125</LongitudeDegrees>
            </Position>
            <AltitudeMeters>1306.5999755859375</AltitudeMeters>
            <DistanceMeters>74898.805712349</DistanceMeters>
          </Trackpoint>
          <Trackpoint>
            <Time>2019-08-02T07:22:57.000Z</Time>
            <Position>
              <LatitudeDegrees>40.76149343512952327728271484375</LatitudeDegrees>
              <LongitudeDegrees>-4.07122205011546611785888671875</LongitudeDegrees>
            </Position>
            <AltitudeMeters>1307.199951171875</AltitudeMeters>
            <DistanceMeters>74927.640644613</DistanceMeters>
          </Trackpoint>
          <Trackpoint>
            <Time>2019-08-02T07:23:07.000Z</Time>
            <Position>
              <LatitudeDegrees>40.7616251148283481597900390625</LatitudeDegrees>
              <LongitudeDegrees>-4.071208052337169647216796875</LongitudeDegrees>
            </Position>
            <AltitudeMeters>1308.199951171875</AltitudeMeters>
            <DistanceMeters>74942.344320692</DistanceMeters>
          </Trackpoint>
          <Trackpoint>
            <Time>2019-08-02T07:23:17.000Z</Time>
            <Position>
              <LatitudeDegrees>40.7617677748203277587890625</LatitudeDegrees>
              <LongitudeDegrees>-4.071205370128154754638671875</LongitudeDegrees>
            </Position>
            <AltitudeMeters>1309</AltitudeMeters>
            <DistanceMeters>74958.224305414</DistanceMeters>
          </Trackpoint>
          <Trackpoint>
            <Time>2019-08-02T07:23:30.000Z</Time>
            <Position>
              <LatitudeDegrees>40.76193742454051971435546875</LatitudeDegrees>
              <LongitudeDegrees>-4.0713081322610378265380859375</LongitudeDegrees>
            </Position>
            <AltitudeMeters>1310</AltitudeMeters>
            <DistanceMeters>74978.998892619</DistanceMeters>
          </Trackpoint>
          <Trackpoint>
            <Time>2019-08-02T07:23:38.000Z</Time>
            <Position>
              <LatitudeDegrees>40.7620002888143062591552734375</LatitudeDegrees>
              <LongitudeDegrees>-4.07140175811946392059326171875</LongitudeDegrees>
            </Position>
            <AltitudeMeters>1311.199951171875</AltitudeMeters>
            <DistanceMeters>74989.546429857</DistanceMeters>
          </Trackpoint>
          <Trackpoint>
            <Time>2019-08-02T07:23:45.000Z</Time>
            <Position>
              <LatitudeDegrees>40.76206348836421966552734375</LatitudeDegrees>
              <LongitudeDegrees>-4.07148121856153011322021484375</LongitudeDegrees>
            </Position>
            <AltitudeMeters>1312.4000244140625</AltitudeMeters>
            <DistanceMeters>74999.260558683</DistanceMeters>
          </Trackpoint>
          <Trackpoint>
            <Time>2019-08-02T07:23:50.000Z</Time>
            <Position>
              <LatitudeDegrees>40.7621223293244838714599609375</LatitudeDegrees>
              <LongitudeDegrees>-4.07151172868907451629638671875</LongitudeDegrees>
            </Position>
            <AltitudeMeters>1313.199951171875</AltitudeMeters>
            <DistanceMeters>75006.297670251</DistanceMeters>
          </Trackpoint>
          <Trackpoint>
            <Time>2019-08-02T07:23:51.000Z</Time>
            <Position>
              <LatitudeDegrees>40.76213465072214603424072265625</LatitudeDegrees>
              <LongitudeDegrees>-4.07151675783097743988037109375</LongitudeDegrees>
            </Position>
            <AltitudeMeters>1313.4000244140625</AltitudeMeters>
            <DistanceMeters>75007.732542172</DistanceMeters>
          </Trackpoint>
          <Trackpoint>
            <Time>2019-08-02T07:23:56.000Z</Time>
            <Position>
              <LatitudeDegrees>40.76220036484301090240478515625</LatitudeDegrees>
              <LongitudeDegrees>-4.07155464403331279754638671875</LongitudeDegrees>
            </Position>
            <AltitudeMeters>1314.4000244140625</AltitudeMeters>
            <DistanceMeters>75015.713654828</DistanceMeters>
          </Trackpoint>
          <Trackpoint>
            <Time>2019-08-02T07:24:01.000Z</Time>
            <Position>
              <LatitudeDegrees>40.762277729809284210205078125</LatitudeDegrees>
              <LongitudeDegrees>-4.0715704858303070068359375</LongitudeDegrees>
            </Position>
            <AltitudeMeters>1314.800048828125</AltitudeMeters>
            <DistanceMeters>75024.42714338</DistanceMeters>
          </Trackpoint>
          <Trackpoint>
            <Time>2019-08-02T07:24:05.000Z</Time>
            <Position>
              <LatitudeDegrees>40.76232894323766231536865234375</LatitudeDegrees>
              <LongitudeDegrees>-4.07158054411411285400390625</LongitudeDegrees>
            </Position>
            <AltitudeMeters>1315.199951171875</AltitudeMeters>
            <DistanceMeters>75030.190182609</DistanceMeters>
          </Trackpoint>
          <Trackpoint>
            <Time>2019-08-02T07:24:15.000Z</Time>
            <Position>
              <LatitudeDegrees>40.76251334510743618011474609375</LatitudeDegrees>
              <LongitudeDegrees>-4.071609042584896087646484375</LongitudeDegrees>
            </Position>
            <AltitudeMeters>1316</AltitudeMeters>
            <DistanceMeters>75050.854505847</DistanceMeters>
          </Trackpoint>
          <Trackpoint>
            <Time>2019-08-02T07:24:22.000Z</Time>
            <Position>
              <LatitudeDegrees>40.7626745291054248809814453125</LatitudeDegrees>
              <LongitudeDegrees>-4.0715917758643627166748046875</LongitudeDegrees>
            </Position>
            <AltitudeMeters>1316.800048828125</AltitudeMeters>
            <DistanceMeters>75068.853729513</DistanceMeters>
          </Trackpoint>
          <Trackpoint>
            <Time>2019-08-02T07:24:28.000Z</Time>
            <Position>
              <LatitudeDegrees>40.7628032751381397247314453125</LatitudeDegrees>
              <LongitudeDegrees>-4.0715780295431613922119140625</LongitudeDegrees>
            </Position>
            <AltitudeMeters>1317.800048828125</AltitudeMeters>
            <DistanceMeters>75083.230112565</DistanceMeters>
          </Trackpoint>
          <Trackpoint>
            <Time>2019-08-02T07:24:33.000Z</Time>
            <Position>
              <LatitudeDegrees>40.76287108473479747772216796875</LatitudeDegrees>
              <LongitudeDegrees>-4.0715790353715419769287109375</LongitudeDegrees>
            </Position>
            <AltitudeMeters>1318.800048828125</AltitudeMeters>
            <DistanceMeters>75090.777411566</DistanceMeters>
          </Trackpoint>
          <Trackpoint>
            <Time>2019-08-02T07:24:37.000Z</Time>
            <Position>
              <LatitudeDegrees>40.7629461027681827545166015625</LatitudeDegrees>
              <LongitudeDegrees>-4.07160510309040546417236328125</LongitudeDegrees>
            </Position>
            <AltitudeMeters>1319.5999755859375</AltitudeMeters>
            <DistanceMeters>75099.411256656</DistanceMeters>
          </Trackpoint>
          <Trackpoint>
            <Time>2019-08-02T07:24:38.000Z</Time>
            <Position>
              <LatitudeDegrees>40.7629682309925556182861328125</LatitudeDegrees>
              <LongitudeDegrees>-4.071608372032642364501953125</LongitudeDegrees>
            </Position>
            <AltitudeMeters>1319.5999755859375</AltitudeMeters>
            <DistanceMeters>75101.89107158</DistanceMeters>
          </Trackpoint>
          <Trackpoint>
            <Time>2019-08-02T07:24:47.000Z</Time>
            <Position>
              <LatitudeDegrees>40.76317149214446544647216796875</LatitudeDegrees>
              <LongitudeDegrees>-4.07166813500225543975830078125</LongitudeDegrees>
            </Position>
            <AltitudeMeters>1320.5999755859375</AltitudeMeters>
            <DistanceMeters>75125.06863072</DistanceMeters>
          </Trackpoint>
          <Trackpoint>
            <Time>2019-08-02T07:24:54.000Z</Time>
            <Position>
              <LatitudeDegrees>40.763319432735443115234375</LatitudeDegrees>
              <LongitudeDegrees>-4.0716856531798839569091796875</LongitudeDegrees>
            </Position>
            <AltitudeMeters>1321.5999755859375</AltitudeMeters>
            <DistanceMeters>75141.60082125</DistanceMeters>
          </Trackpoint>
          <Trackpoint>
            <Time>2019-08-02T07:24:57.000Z</Time>
            <Position>
              <LatitudeDegrees>40.76337936334311962127685546875</LatitudeDegrees>
              <LongitudeDegrees>-4.071662686765193939208984375</LongitudeDegrees>
            </Position>
            <AltitudeMeters>1322.800048828125</AltitudeMeters>
            <DistanceMeters>75148.546877573</DistanceMeters>
          </Trackpoint>
          <Trackpoint>
            <Time>2019-08-02T07:25:01.000Z</Time>
            <Position>
              <LatitudeDegrees>40.76344273053109645843505859375</LatitudeDegrees>
              <LongitudeDegrees>-4.071622453629970550537109375</LongitudeDegrees>
            </Position>
            <AltitudeMeters>1323.199951171875</AltitudeMeters>
            <DistanceMeters>75156.372602999</DistanceMeters>
          </Trackpoint>
          <Trackpoint>
            <Time>2019-08-02T07:25:05.000Z</Time>
            <Position>
              <LatitudeDegrees>40.7634915970265865325927734375</LatitudeDegrees>
              <LongitudeDegrees>-4.07157626934349536895751953125</LongitudeDegrees>
            </Position>
            <AltitudeMeters>1323.5999755859375</AltitudeMeters>
            <DistanceMeters>75163.061700754</DistanceMeters>
          </Trackpoint>
          <Trackpoint>
            <Time>2019-08-02T07:25:13.000Z</Time>
            <Position>
              <LatitudeDegrees>40.76358756981790065765380859375</LatitudeDegrees>
              <LongitudeDegrees>-4.0714526362717151641845703125</LongitudeDegrees>
            </Position>
            <AltitudeMeters>1324.800048828125</AltitudeMeters>
            <DistanceMeters>75177.98573625</DistanceMeters>
          </Trackpoint>
          <Trackpoint>
            <Time>2019-08-02T07:25:20.000Z</Time>
            <Position>
              <LatitudeDegrees>40.7636480033397674560546875</LatitudeDegrees>
              <LongitudeDegrees>-4.071336798369884490966796875</LongitudeDegrees>
            </Position>
            <AltitudeMeters>1325.800048828125</AltitudeMeters>
            <DistanceMeters>75189.84315124</DistanceMeters>
          </Trackpoint>
          <Trackpoint>
            <Time>2019-08-02T07:25:28.000Z</Time>
            <Position>
              <LatitudeDegrees>40.76372771523892879486083984375</LatitudeDegrees>
              <LongitudeDegrees>-4.07118081115186214447021484375</LongitudeDegrees>
            </Position>
            <AltitudeMeters>1326.800048828125</AltitudeMeters>
            <DistanceMeters>75205.706067434</DistanceMeters>
          </Trackpoint>
          <Trackpoint>
            <Time>2019-08-02T07:25:32.000Z</Time>
            <Position>
              <LatitudeDegrees>40.76377012766897678375244140625</LatitudeDegrees>
              <LongitudeDegrees>-4.07111107371747493743896484375</LongitudeDegrees>
            </Position>
            <AltitudeMeters>1327</AltitudeMeters>
            <DistanceMeters>75213.24618423</DistanceMeters>
          </Trackpoint>
          <Trackpoint>
            <Time>2019-08-02T07:25:36.000Z</Time>
            <Position>
              <LatitudeDegrees>40.76380097307264804840087890625</LatitudeDegrees>
              <LongitudeDegrees>-4.07104133628308773040771484375</LongitudeDegrees>
            </Position>
            <AltitudeMeters>1327.199951171875</AltitudeMeters>
            <DistanceMeters>75220.054369185</DistanceMeters>
          </Trackpoint>
          <Trackpoint>
            <Time>2019-08-02T07:25:57.000Z</Time>
            <Position>
              <LatitudeDegrees>40.7640709541738033294677734375</LatitudeDegrees>
              <LongitudeDegrees>-4.0707765519618988037109375</LongitudeDegrees>
            </Position>
            <AltitudeMeters>1327.800048828125</AltitudeMeters>
            <DistanceMeters>75257.487175945</DistanceMeters>
          </Trackpoint>
          <Trackpoint>
            <Time>2019-08-02T07:26:05.000Z</Time>
            <Position>
              <LatitudeDegrees>40.7642110995948314666748046875</LatitudeDegrees>
              <LongitudeDegrees>-4.07070555724203586578369140625</LongitudeDegrees>
            </Position>
            <AltitudeMeters>1328.800048828125</AltitudeMeters>
            <DistanceMeters>75274.194591156</DistanceMeters>
          </Trackpoint>
          <Trackpoint>
            <Time>2019-08-02T07:26:15.000Z</Time>
            <Position>
              <LatitudeDegrees>40.7644285261631011962890625</LatitudeDegrees>
              <LongitudeDegrees>-4.07063104212284088134765625</LongitudeDegrees>
            </Position>
            <AltitudeMeters>1329.5999755859375</AltitudeMeters>
            <DistanceMeters>75299.196551315</DistanceMeters>
          </Trackpoint>
          <Trackpoint>
            <Time>2019-08-02T07:26:21.000Z</Time>
            <Position>
              <LatitudeDegrees>40.76464511454105377197265625</LatitudeDegrees>
              <LongitudeDegrees>-4.07059676013886928558349609375</LongitudeDegrees>
            </Position>
            <AltitudeMeters>1330.800048828125</AltitudeMeters>
            <DistanceMeters>75323.476016308</DistanceMeters>
          </Trackpoint>
          <Trackpoint>
            <Time>2019-08-02T07:26:31.000Z</Time>
            <Position>
              <LatitudeDegrees>40.76488978229463100433349609375</LatitudeDegrees>
              <LongitudeDegrees>-4.07047212123870849609375</LongitudeDegrees>
            </Position>
            <AltitudeMeters>1331.5999755859375</AltitudeMeters>
            <DistanceMeters>75352.664844864</DistanceMeters>
          </Trackpoint>
          <Trackpoint>
            <Time>2019-08-02T07:26:37.000Z</Time>
            <Position>
              <LatitudeDegrees>40.76497963629662990570068359375</LatitudeDegrees>
              <LongitudeDegrees>-4.07040171325206756591796875</LongitudeDegrees>
            </Position>
            <AltitudeMeters>1332.5999755859375</AltitudeMeters>
            <DistanceMeters>75364.294266814</DistanceMeters>
          </Trackpoint>
          <Trackpoint>
            <Time>2019-08-02T07:26:45.000Z</Time>
            <Position>
              <LatitudeDegrees>40.76507586054503917694091796875</LatitudeDegrees>
              <LongitudeDegrees>-4.070300124585628509521484375</LongitudeDegrees>
            </Position>
            <AltitudeMeters>1333.800048828125</AltitudeMeters>
            <DistanceMeters>75378.007118883</DistanceMeters>
          </Trackpoint>
          <Trackpoint>
            <Time>2019-08-02T07:26:51.000Z</Time>
            <Position>
              <LatitudeDegrees>40.76514266431331634521484375</LatitudeDegrees>
              <LongitudeDegrees>-4.0702240169048309326171875</LongitudeDegrees>
            </Position>
            <AltitudeMeters>1334.800048828125</AltitudeMeters>
            <DistanceMeters>75387.827567774</DistanceMeters>
          </Trackpoint>
          <Trackpoint>
            <Time>2019-08-02T07:26:55.000Z</Time>
            <Position>
              <LatitudeDegrees>40.7651854120194911956787109375</LatitudeDegrees>
              <LongitudeDegrees>-4.07018017955124378204345703125</LongitudeDegrees>
            </Position>
            <AltitudeMeters>1335.800048828125</AltitudeMeters>
            <DistanceMeters>75393.851841775</DistanceMeters>
          </Trackpoint>
          <Trackpoint>
            <Time>2019-08-02T07:27:01.000Z</Time>
            <Position>
              <LatitudeDegrees>40.76525640673935413360595703125</LatitudeDegrees>
              <LongitudeDegrees>-4.07011128030717372894287109375</LongitudeDegrees>
            </Position>
            <AltitudeMeters>1337</AltitudeMeters>
            <DistanceMeters>75403.658488201</DistanceMeters>
          </Trackpoint>
          <Trackpoint>
            <Time>2019-08-02T07:27:07.000Z</Time>
            <Position>
              <LatitudeDegrees>40.765332095324993133544921875</LatitudeDegrees>
              <LongitudeDegrees>-4.07004808075726032257080078125</LongitudeDegrees>
            </Position>
            <AltitudeMeters>1338</AltitudeMeters>
            <DistanceMeters>75413.625880088</DistanceMeters>
          </Trackpoint>
          <Trackpoint>
            <Time>2019-08-02T07:27:15.000Z</Time>
            <Position>
              <LatitudeDegrees>40.7654397189617156982421875</LatitudeDegrees>
              <LongitudeDegrees>-4.0699611604213714599609375</LongitudeDegrees>
            </Position>
            <AltitudeMeters>1339</AltitudeMeters>
            <DistanceMeters>75427.667986384</DistanceMeters>
          </Trackpoint>
          <Trackpoint>
            <Time>2019-08-02T07:27:23.000Z</Time>
            <Position>
              <LatitudeDegrees>40.76555698178708553314208984375</LatitudeDegrees>
              <LongitudeDegrees>-4.06987122260034084320068359375</LongitudeDegrees>
            </Position>
            <AltitudeMeters>1340</AltitudeMeters>
            <DistanceMeters>75442.761687011</DistanceMeters>
          </Trackpoint>
          <Trackpoint>
            <Time>2019-08-02T07:27:27.000Z</Time>
            <Position>
              <LatitudeDegrees>40.765616409480571746826171875</LatitudeDegrees>
              <LongitudeDegrees>-4.069830067455768585205078125</LongitudeDegrees>
            </Position>
            <AltitudeMeters>1341.199951171875</AltitudeMeters>
            <DistanceMeters>75450.23081094</DistanceMeters>
          </Trackpoint>
          <Trackpoint>
            <Time>2019-08-02T07:27:44.000Z</Time>
            <Position>
              <LatitudeDegrees>40.76587750576436519622802734375</LatitudeDegrees>
              <LongitudeDegrees>-4.06966720707714557647705078125</LongitudeDegrees>
            </Position>
            <AltitudeMeters>1342</AltitudeMeters>
            <DistanceMeters>75482.371200248</DistanceMeters>
          </Trackpoint>
          <Trackpoint>
            <Time>2019-08-02T07:27:54.000Z</Time>
            <Position>
              <LatitudeDegrees>40.766065008938312530517578125</LatitudeDegrees>
              <LongitudeDegrees>-4.0696109645068645477294921875</LongitudeDegrees>
            </Position>
            <AltitudeMeters>1343.199951171875</AltitudeMeters>
            <DistanceMeters>75503.772684715</DistanceMeters>
          </Trackpoint>
          <Trackpoint>
            <Time>2019-08-02T07:27:55.000Z</Time>
            <Position>
              <LatitudeDegrees>40.7660789228975772857666015625</LatitudeDegrees>
              <LongitudeDegrees>-4.0696012414991855621337890625</LongitudeDegrees>
            </Position>
            <AltitudeMeters>1343.4000244140625</AltitudeMeters>
            <DistanceMeters>75505.527465633</DistanceMeters>
          </Trackpoint>
          <Trackpoint>
            <Time>2019-08-02T07:27:59.000Z</Time>
            <Position>
              <LatitudeDegrees>40.76614857651293277740478515625</LatitudeDegrees>
              <LongitudeDegrees>-4.06956897117197513580322265625</LongitudeDegrees>
            </Position>
            <AltitudeMeters>1344</AltitudeMeters>
            <DistanceMeters>75513.743842662</DistanceMeters>
          </Trackpoint>
          <Trackpoint>
            <Time>2019-08-02T07:28:00.000Z</Time>
            <Position>
              <LatitudeDegrees>40.7661677710711956024169921875</LatitudeDegrees>
              <LongitudeDegrees>-4.06955891288816928863525390625</LongitudeDegrees>
            </Position>
            <AltitudeMeters>1344.199951171875</AltitudeMeters>
            <DistanceMeters>75516.044195852</DistanceMeters>
          </Trackpoint>
          <Trackpoint>
            <Time>2019-08-02T07:28:06.000Z</Time>
            <Position>
              <LatitudeDegrees>40.76629810966551303863525390625</LatitudeDegrees>
              <LongitudeDegrees>-4.06951851211488246917724609375</LongitudeDegrees>
            </Position>
            <AltitudeMeters>1345.199951171875</AltitudeMeters>
            <DistanceMeters>75530.945523972</DistanceMeters>
          </Trackpoint>
          <Trackpoint>
            <Time>2019-08-02T07:28:12.000Z</Time>
            <Position>
              <LatitudeDegrees>40.76642216183245182037353515625</LatitudeDegrees>
              <LongitudeDegrees>-4.0694919414818286895751953125</LongitudeDegrees>
            </Position>
            <AltitudeMeters>1346.199951171875</AltitudeMeters>
            <DistanceMeters>75544.933507972</DistanceMeters>
          </Trackpoint>
          <Trackpoint>
            <Time>2019-08-02T07:28:18.000Z</Time>
            <Position>
              <LatitudeDegrees>40.7665501534938812255859375</LatitudeDegrees>
              <LongitudeDegrees>-4.0694569051265716552734375</LongitudeDegrees>
            </Position>
            <AltitudeMeters>1347.4000244140625</AltitudeMeters>
            <DistanceMeters>75559.482218975</DistanceMeters>
          </Trackpoint>
          <Trackpoint>
            <Time>2019-08-02T07:28:22.000Z</Time>
            <Position>
              <LatitudeDegrees>40.76663221232593059539794921875</LatitudeDegrees>
              <LongitudeDegrees>-4.06943209469318389892578125</LongitudeDegrees>
            </Position>
            <AltitudeMeters>1348.4000244140625</AltitudeMeters>
            <DistanceMeters>75568.851872287</DistanceMeters>
          </Trackpoint>
          <Trackpoint>
            <Time>2019-08-02T07:28:28.000Z</Time>
            <Position>
              <LatitudeDegrees>40.7667390815913677215576171875</LatitudeDegrees>
              <LongitudeDegrees>-4.06939445994794368743896484375</LongitudeDegrees>
            </Position>
            <AltitudeMeters>1349.5999755859375</AltitudeMeters>
            <DistanceMeters>75581.162142101</DistanceMeters>
          </Trackpoint>
          <Trackpoint>
            <Time>2019-08-02T07:28:35.000Z</Time>
            <Position>
              <LatitudeDegrees>40.76684377156198024749755859375</LatitudeDegrees>
              <LongitudeDegrees>-4.06937182880938053131103515625</LongitudeDegrees>
            </Position>
            <AltitudeMeters>1350.800048828125</AltitudeMeters>
            <DistanceMeters>75592.969187461</DistanceMeters>
          </Trackpoint>
          <Trackpoint>
            <Time>2019-08-02T07:28:41.000Z</Time>
            <Position>
              <LatitudeDegrees>40.7669425942003726959228515625</LatitudeDegrees>
              <LongitudeDegrees>-4.06934550963342189788818359375</LongitudeDegrees>
            </Position>
            <AltitudeMeters>1351.800048828125</AltitudeMeters>
            <DistanceMeters>75604.189987605</DistanceMeters>
          </Trackpoint>
          <Trackpoint>
            <Time>2019-08-02T07:28:47.000Z</Time>
            <Position>
              <LatitudeDegrees>40.767048038542270660400390625</LatitudeDegrees>
              <LongitudeDegrees>-4.0693162567913532257080078125</LongitudeDegrees>
            </Position>
            <AltitudeMeters>1352.800048828125</AltitudeMeters>
            <DistanceMeters>75616.1821933</DistanceMeters>
          </Trackpoint>
          <Trackpoint>
            <Time>2019-08-02T07:28:48.000Z</Time>
            <Position>
              <LatitudeDegrees>40.7670663110911846160888671875</LatitudeDegrees>
              <LongitudeDegrees>-4.069311730563640594482421875</LongitudeDegrees>
            </Position>
            <AltitudeMeters>1354</AltitudeMeters>
            <DistanceMeters>75618.251071314</DistanceMeters>
          </Trackpoint>
          <Trackpoint>
            <Time>2019-08-02T07:28:54.000Z</Time>
            <Position>
              <LatitudeDegrees>40.76716178096830844879150390625</LatitudeDegrees>
              <LongitudeDegrees>-4.0692852437496185302734375</LongitudeDegrees>
            </Position>
            <AltitudeMeters>1353</AltitudeMeters>
            <DistanceMeters>75629.109094985</DistanceMeters>
          </Trackpoint>
          <Trackpoint>
            <Time>2019-08-02T07:29:08.000Z</Time>
            <Position>
              <LatitudeDegrees>40.76737266965210437774658203125</LatitudeDegrees>
              <LongitudeDegrees>-4.0692361257970333099365234375</LongitudeDegrees>
            </Position>
            <AltitudeMeters>1353.800048828125</AltitudeMeters>
            <DistanceMeters>75652.943946972</DistanceMeters>
          </Trackpoint>
          <Trackpoint>
            <Time>2019-08-02T07:29:33.000Z</Time>
            <Position>
              <LatitudeDegrees>40.7678072713315486907958984375</LatitudeDegrees>
              <LongitudeDegrees>-4.06907410360872745513916015625</LongitudeDegrees>
            </Position>
            <AltitudeMeters>1372</AltitudeMeters>
            <DistanceMeters>75703.207060754</DistanceMeters>
          </Trackpoint>
          <Trackpoint>
            <Time>2019-08-02T07:29:40.000Z</Time>
            <Position>
              <LatitudeDegrees>40.767921768128871917724609375</LatitudeDegrees>
              <LongitudeDegrees>-4.06901727430522441864013671875</LongitudeDegrees>
            </Position>
            <AltitudeMeters>1355.800048828125</AltitudeMeters>
            <DistanceMeters>75716.821440986</DistanceMeters>
          </Trackpoint>
          <Trackpoint>
            <Time>2019-08-02T07:29:44.000Z</Time>
            <Position>
              <LatitudeDegrees>40.7679822854697704315185546875</LatitudeDegrees>
              <LongitudeDegrees>-4.0689732693135738372802734375</LongitudeDegrees>
            </Position>
            <AltitudeMeters>1357.4000244140625</AltitudeMeters>
            <DistanceMeters>75724.510975468</DistanceMeters>
          </Trackpoint>
          <Trackpoint>
            <Time>2019-08-02T07:29:53.000Z</Time>
            <Position>
              <LatitudeDegrees>40.76810943894088268280029296875</LatitudeDegrees>
              <LongitudeDegrees>-4.0688686631619930267333984375</LongitudeDegrees>
            </Position>
            <AltitudeMeters>1355.5999755859375</AltitudeMeters>
            <DistanceMeters>75741.185388612</DistanceMeters>
          </Trackpoint>
          <Trackpoint>
            <Time>2019-08-02T07:29:56.000Z</Time>
            <Position>
              <LatitudeDegrees>40.76815151609480381011962890625</LatitudeDegrees>
              <LongitudeDegrees>-4.06883572228252887725830078125</LongitudeDegrees>
            </Position>
            <AltitudeMeters>1354.5999755859375</AltitudeMeters>
            <DistanceMeters>75746.629349568</DistanceMeters>
          </Trackpoint>
          <Trackpoint>
            <Time>2019-08-02T07:30:02.000Z</Time>
            <Position>
              <LatitudeDegrees>40.76822343282401561737060546875</LatitudeDegrees>
              <LongitudeDegrees>-4.068773947656154632568359375</LongitudeDegrees>
            </Position>
            <AltitudeMeters>1354</AltitudeMeters>
            <DistanceMeters>75756.178470571</DistanceMeters>
          </Trackpoint>
          <Trackpoint>
            <Time>2019-08-02T07:30:22.000Z</Time>
            <Position>
              <LatitudeDegrees>40.76845712028443813323974609375</LatitudeDegrees>
              <LongitudeDegrees>-4.06859231181442737579345703125</LongitudeDegrees>
            </Position>
            <AltitudeMeters>1355.4000244140625</AltitudeMeters>
            <DistanceMeters>75786.360187744</DistanceMeters>
          </Trackpoint>
          <Trackpoint>
            <Time>2019-08-02T07:30:30.000Z</Time>
            <Position>
              <LatitudeDegrees>40.7685618102550506591796875</LatitudeDegrees>
              <LongitudeDegrees>-4.06851938925683498382568359375</LongitudeDegrees>
            </Position>
            <AltitudeMeters>1356.5999755859375</AltitudeMeters>
            <DistanceMeters>75799.534331711</DistanceMeters>
          </Trackpoint>
          <Trackpoint>
            <Time>2019-08-02T07:30:42.000Z</Time>
            <Position>
              <LatitudeDegrees>40.76869332231581211090087890625</LatitudeDegrees>
              <LongitudeDegrees>-4.06839299015700817108154296875</LongitudeDegrees>
            </Position>
            <AltitudeMeters>1357.4000244140625</AltitudeMeters>
            <DistanceMeters>75817.639103039</DistanceMeters>
          </Trackpoint>
          <Trackpoint>
            <Time>2019-08-02T07:30:45.000Z</Time>
            <Position>
              <LatitudeDegrees>40.76872802339494228363037109375</LatitudeDegrees>
              <LongitudeDegrees>-4.068370945751667022705078125</LongitudeDegrees>
            </Position>
            <AltitudeMeters>1357.800048828125</AltitudeMeters>
            <DistanceMeters>75821.925850706</DistanceMeters>
          </Trackpoint>
          <Trackpoint>
            <Time>2019-08-02T07:30:52.000Z</Time>
            <Position>
              <LatitudeDegrees>40.7688120938837528228759765625</LatitudeDegrees>
              <LongitudeDegrees>-4.06830665655434131622314453125</LongitudeDegrees>
            </Position>
            <AltitudeMeters>1358.800048828125</AltitudeMeters>
            <DistanceMeters>75832.738872014</DistanceMeters>
          </Trackpoint>
          <Trackpoint>
            <Time>2019-08-02T07:31:00.000Z</Time>
            <Position>
              <LatitudeDegrees>40.7689056359231472015380859375</LatitudeDegrees>
              <LongitudeDegrees>-4.0682571195065975189208984375</LongitudeDegrees>
            </Position>
            <AltitudeMeters>1359.4000244140625</AltitudeMeters>
            <DistanceMeters>75843.956452646</DistanceMeters>
          </Trackpoint>
          <Trackpoint>
            <Time>2019-08-02T07:31:03.000Z</Time>
            <Position>
              <LatitudeDegrees>40.76894075609743595123291015625</LatitudeDegrees>
              <LongitudeDegrees>-4.0682279504835605621337890625</LongitudeDegrees>
            </Position>
            <AltitudeMeters>1359.800048828125</AltitudeMeters>
            <DistanceMeters>75848.57479007</DistanceMeters>
          </Trackpoint>
          <Trackpoint>
            <Time>2019-08-02T07:31:11.000Z</Time>
            <Position>
              <LatitudeDegrees>40.7690464518964290618896484375</LatitudeDegrees>
              <LongitudeDegrees>-4.0681632421910762786865234375</LongitudeDegrees>
            </Position>
            <AltitudeMeters>1360.800048828125</AltitudeMeters>
            <DistanceMeters>75861.542368238</DistanceMeters>
          </Trackpoint>
          <Trackpoint>
            <Time>2019-08-02T07:31:19.000Z</Time>
            <Position>
              <LatitudeDegrees>40.76917310245335102081298828125</LatitudeDegrees>
              <LongitudeDegrees>-4.0681079216301441192626953125</LongitudeDegrees>
            </Position>
            <AltitudeMeters>1361.800048828125</AltitudeMeters>
            <DistanceMeters>75876.390273353</DistanceMeters>
          </Trackpoint>
          <Trackpoint>
            <Time>2019-08-02T07:31:25.000Z</Time>
            <Position>
              <LatitudeDegrees>40.76925993897020816802978515625</LatitudeDegrees>
              <LongitudeDegrees>-4.0680499188601970672607421875</LongitudeDegrees>
            </Position>
            <AltitudeMeters>1362.800048828125</AltitudeMeters>
            <DistanceMeters>75887.221234672</DistanceMeters>
          </Trackpoint>
          <Trackpoint>
            <Time>2019-08-02T07:31:29.000Z</Time>
            <Position>
              <LatitudeDegrees>40.76932950876653194427490234375</LatitudeDegrees>
              <LongitudeDegrees>-4.06803608871996402740478515625</LongitudeDegrees>
            </Position>
            <AltitudeMeters>1363.5999755859375</AltitudeMeters>
            <DistanceMeters>75895.051574323</DistanceMeters>
          </Trackpoint>
          <Trackpoint>
            <Time>2019-08-02T07:31:38.000Z</Time>
            <Position>
              <LatitudeDegrees>40.76947585679590702056884765625</LatitudeDegrees>
              <LongitudeDegrees>-4.0679989568889141082763671875</LongitudeDegrees>
            </Position>
            <AltitudeMeters>1364.5999755859375</AltitudeMeters>
            <DistanceMeters>75911.638023881</DistanceMeters>
          </Trackpoint>
          <Trackpoint>
            <Time>2019-08-02T07:31:45.000Z</Time>
            <Position>
              <LatitudeDegrees>40.769605524837970733642578125</LatitudeDegrees>
              <LongitudeDegrees>-4.0679627470672130584716796875</LongitudeDegrees>
            </Position>
            <AltitudeMeters>1365.4000244140625</AltitudeMeters>
            <DistanceMeters>75926.389524894</DistanceMeters>
          </Trackpoint>
          <Trackpoint>
            <Time>2019-08-02T07:31:51.000Z</Time>
            <Position>
              <LatitudeDegrees>40.7697304151952266693115234375</LatitudeDegrees>
              <LongitudeDegrees>-4.06794212758541107177734375</LongitudeDegrees>
            </Position>
            <AltitudeMeters>1366.800048828125</AltitudeMeters>
            <DistanceMeters>75940.398151568</DistanceMeters>
          </Trackpoint>
          <Trackpoint>
            <Time>2019-08-02T07:32:02.000Z</Time>
            <Position>
              <LatitudeDegrees>40.76991205103695392608642578125</LatitudeDegrees>
              <LongitudeDegrees>-4.0678946860134601593017578125</LongitudeDegrees>
            </Position>
            <AltitudeMeters>1367.800048828125</AltitudeMeters>
            <DistanceMeters>75961.00646434</DistanceMeters>
          </Trackpoint>
          <Trackpoint>
            <Time>2019-08-02T07:32:10.000Z</Time>
            <Position>
              <LatitudeDegrees>40.77002218924462795257568359375</LatitudeDegrees>
              <LongitudeDegrees>-4.06785353086888790130615234375</LongitudeDegrees>
            </Position>
            <AltitudeMeters>1368.800048828125</AltitudeMeters>
            <DistanceMeters>75973.746779253</DistanceMeters>
          </Trackpoint>
          <Trackpoint>
            <Time>2019-08-02T07:32:29.000Z</Time>
            <Position>
              <LatitudeDegrees>40.77025604434311389923095703125</LatitudeDegrees>
              <LongitudeDegrees>-4.06779033131897449493408203125</LongitudeDegrees>
            </Position>
            <AltitudeMeters>1369.800048828125</AltitudeMeters>
            <DistanceMeters>76000.314861899</DistanceMeters>
          </Trackpoint>
          <Trackpoint>
            <Time>2019-08-02T07:32:32.000Z</Time>
            <Position>
              <LatitudeDegrees>40.77029250562191009521484375</LatitudeDegrees>
              <LongitudeDegrees>-4.06778119504451751708984375</LongitudeDegrees>
            </Position>
            <AltitudeMeters>1370.199951171875</AltitudeMeters>
            <DistanceMeters>76004.446065655</DistanceMeters>
          </Trackpoint>
          <Trackpoint>
            <Time>2019-08-02T07:32:37.000Z</Time>
            <Position>
              <LatitudeDegrees>40.77036752365529537200927734375</LatitudeDegrees>
              <LongitudeDegrees>-4.06776082701981067657470703125</LongitudeDegrees>
            </Position>
            <AltitudeMeters>1370.800048828125</AltitudeMeters>
            <DistanceMeters>76012.97044394</DistanceMeters>
          </Trackpoint>
          <Trackpoint>
            <Time>2019-08-02T07:32:47.000Z</Time>
            <Position>
              <LatitudeDegrees>40.77049559913575649261474609375</LatitudeDegrees>
              <LongitudeDegrees>-4.067707769572734832763671875</LongitudeDegrees>
            </Position>
            <AltitudeMeters>1372</AltitudeMeters>
            <DistanceMeters>76027.91050517</DistanceMeters>
          </Trackpoint>
          <Trackpoint>
            <Time>2019-08-02T07:32:57.000Z</Time>
            <Position>
              <LatitudeDegrees>40.77060875482857227325439453125</LatitudeDegrees>
              <LongitudeDegrees>-4.0676767565310001373291015625</LongitudeDegrees>
            </Position>
            <AltitudeMeters>1373</AltitudeMeters>
            <DistanceMeters>76040.773205532</DistanceMeters>
          </Trackpoint>
          <Trackpoint>
            <Time>2019-08-02T07:33:01.000Z</Time>
            <Position>
              <LatitudeDegrees>40.77066139318048954010009765625</LatitudeDegrees>
              <LongitudeDegrees>-4.06766979955136775970458984375</LongitudeDegrees>
            </Position>
            <AltitudeMeters>1374</AltitudeMeters>
            <DistanceMeters>76046.66026196</DistanceMeters>
          </Trackpoint>
          <Trackpoint>
            <Time>2019-08-02T07:33:09.000Z</Time>
            <Position>
              <LatitudeDegrees>40.77076591551303863525390625</LatitudeDegrees>
              <LongitudeDegrees>-4.067623615264892578125</LongitudeDegrees>
            </Position>
            <AltitudeMeters>1375</AltitudeMeters>
            <DistanceMeters>76058.927912673</DistanceMeters>
          </Trackpoint>
          <Trackpoint>
            <Time>2019-08-02T07:33:16.000Z</Time>
            <Position>
              <LatitudeDegrees>40.77085711061954498291015625</LatitudeDegrees>
              <LongitudeDegrees>-4.0676053427159786224365234375</LongitudeDegrees>
            </Position>
            <AltitudeMeters>1376</AltitudeMeters>
            <DistanceMeters>76069.19431673</DistanceMeters>
          </Trackpoint>
          <Trackpoint>
            <Time>2019-08-02T07:33:22.000Z</Time>
            <Position>
              <LatitudeDegrees>40.77094830572605133056640625</LatitudeDegrees>
              <LongitudeDegrees>-4.067570976912975311279296875</LongitudeDegrees>
            </Position>
            <AltitudeMeters>1377.199951171875</AltitudeMeters>
            <DistanceMeters>76079.749556337</DistanceMeters>
          </Trackpoint>
          <Trackpoint>
            <Time>2019-08-02T07:33:23.000Z</Time>
            <Position>
              <LatitudeDegrees>40.77095962129533290863037109375</LatitudeDegrees>
              <LongitudeDegrees>-4.06756167300045490264892578125</LongitudeDegrees>
            </Position>
            <AltitudeMeters>1377.4000244140625</AltitudeMeters>
            <DistanceMeters>76081.233921067</DistanceMeters>
          </Trackpoint>
          <Trackpoint>
            <Time>2019-08-02T07:33:29.000Z</Time>
            <Position>
              <LatitudeDegrees>40.77102952636778354644775390625</LatitudeDegrees>
              <LongitudeDegrees>-4.067535437643527984619140625</LongitudeDegrees>
            </Position>
            <AltitudeMeters>1378</AltitudeMeters>
            <DistanceMeters>76089.321805448</DistanceMeters>
          </Trackpoint>
          <Trackpoint>
            <Time>2019-08-02T07:33:42.000Z</Time>
            <Position>
              <LatitudeDegrees>40.771178640425205230712890625</LatitudeDegrees>
              <LongitudeDegrees>-4.06750216148793697357177734375</LongitudeDegrees>
            </Position>
            <AltitudeMeters>1379.199951171875</AltitudeMeters>
            <DistanceMeters>76106.153609224</DistanceMeters>
          </Trackpoint>
          <Trackpoint>
            <Time>2019-08-02T07:33:47.000Z</Time>
            <Position>
              <LatitudeDegrees>40.7712418399751186370849609375</LatitudeDegrees>
              <LongitudeDegrees>-4.06748087145388126373291015625</LongitudeDegrees>
            </Position>
            <AltitudeMeters>1380.199951171875</AltitudeMeters>
            <DistanceMeters>76113.413053151</DistanceMeters>
          </Trackpoint>
          <Trackpoint>
            <Time>2019-08-02T07:33:54.000Z</Time>
            <Position>
              <LatitudeDegrees>40.77135239727795124053955078125</LatitudeDegrees>
              <LongitudeDegrees>-4.06744533218443393707275390625</LongitudeDegrees>
            </Position>
            <AltitudeMeters>1381</AltitudeMeters>
            <DistanceMeters>76126.077658072</DistanceMeters>
          </Trackpoint>
          <Trackpoint>
            <Time>2019-08-02T07:34:00.000Z</Time>
            <Position>
              <LatitudeDegrees>40.77144987881183624267578125</LatitudeDegrees>
              <LongitudeDegrees>-4.067418761551380157470703125</LongitudeDegrees>
            </Position>
            <AltitudeMeters>1382</AltitudeMeters>
            <DistanceMeters>76137.156322207</DistanceMeters>
          </Trackpoint>
          <Trackpoint>
            <Time>2019-08-02T07:34:07.000Z</Time>
            <Position>
              <LatitudeDegrees>40.7715469412505626678466796875</LatitudeDegrees>
              <LongitudeDegrees>-4.0673914365470409393310546875</LongitudeDegrees>
            </Position>
            <AltitudeMeters>1383.199951171875</AltitudeMeters>
            <DistanceMeters>76148.202334742</DistanceMeters>
          </Trackpoint>
          <Trackpoint>
            <Time>2019-08-02T07:34:16.000Z</Time>
            <Position>
              <LatitudeDegrees>40.7716740109026432037353515625</LatitudeDegrees>
              <LongitudeDegrees>-4.06734424643218517303466796875</LongitudeDegrees>
            </Position>
            <AltitudeMeters>1384</AltitudeMeters>
            <DistanceMeters>76162.894030261</DistanceMeters>
          </Trackpoint>
          <Trackpoint>
            <Time>2019-08-02T07:34:35.000Z</Time>
            <Position>
              <LatitudeDegrees>40.77195220626890659332275390625</LatitudeDegrees>
              <LongitudeDegrees>-4.06726797111332416534423828125</LongitudeDegrees>
            </Position>
            <AltitudeMeters>1385</AltitudeMeters>
            <DistanceMeters>76194.518087025</DistanceMeters>
          </Trackpoint>
          <Trackpoint>
            <Time>2019-08-02T07:34:45.000Z</Time>
            <Position>
              <LatitudeDegrees>40.77210844494402408599853515625</LatitudeDegrees>
              <LongitudeDegrees>-4.06721935607492923736572265625</LongitudeDegrees>
            </Position>
            <AltitudeMeters>1386</AltitudeMeters>
            <DistanceMeters>76212.383867502</DistanceMeters>
          </Trackpoint>
          <Trackpoint>
            <Time>2019-08-02T07:34:53.000Z</Time>
            <Position>
              <LatitudeDegrees>40.77222864143550395965576171875</LatitudeDegrees>
              <LongitudeDegrees>-4.0671580843627452850341796875</LongitudeDegrees>
            </Position>
            <AltitudeMeters>1387.199951171875</AltitudeMeters>
            <DistanceMeters>76226.724403089</DistanceMeters>
          </Trackpoint>
          <Trackpoint>
            <Time>2019-08-02T07:35:01.000Z</Time>
            <Position>
              <LatitudeDegrees>40.772360824048519134521484375</LatitudeDegrees>
              <LongitudeDegrees>-4.0671198628842830657958984375</LongitudeDegrees>
            </Position>
            <AltitudeMeters>1388.4000244140625</AltitudeMeters>
            <DistanceMeters>76241.785163037</DistanceMeters>
          </Trackpoint>
          <Trackpoint>
            <Time>2019-08-02T07:35:10.000Z</Time>
            <Position>
              <LatitudeDegrees>40.77250809408724308013916015625</LatitudeDegrees>
              <LongitudeDegrees>-4.06705205328762531280517578125</LongitudeDegrees>
            </Position>
            <AltitudeMeters>1389.4000244140625</AltitudeMeters>
            <DistanceMeters>76259.144647796</DistanceMeters>
          </Trackpoint>
          <Trackpoint>
            <Time>2019-08-02T07:35:22.000Z</Time>
            <Position>
              <LatitudeDegrees>40.7726858742535114288330078125</LatitudeDegrees>
              <LongitudeDegrees>-4.06694233417510986328125</LongitudeDegrees>
            </Position>
            <AltitudeMeters>1390.4000244140625</AltitudeMeters>
            <DistanceMeters>76280.986740156</DistanceMeters>
          </Trackpoint>
          <Trackpoint>
            <Time>2019-08-02T07:35:25.000Z</Time>
            <Position>
              <LatitudeDegrees>40.77273323200643062591552734375</LatitudeDegrees>
              <LongitudeDegrees>-4.06692649237811565399169921875</LongitudeDegrees>
            </Position>
            <AltitudeMeters>1391.4000244140625</AltitudeMeters>
            <DistanceMeters>76286.424062133</DistanceMeters>
          </Trackpoint>
          <Trackpoint>
            <Time>2019-08-02T07:35:48.000Z</Time>
            <Position>
              <LatitudeDegrees>40.77307303436100482940673828125</LatitudeDegrees>
              <LongitudeDegrees>-4.06672398559749126434326171875</LongitudeDegrees>
            </Position>
            <AltitudeMeters>1392.4000244140625</AltitudeMeters>
            <DistanceMeters>76327.918214438</DistanceMeters>
          </Trackpoint>
          <Trackpoint>
            <Time>2019-08-02T07:35:58.000Z</Time>
            <Position>
              <LatitudeDegrees>40.77317613177001476287841796875</LatitudeDegrees>
              <LongitudeDegrees>-4.06665357761085033416748046875</LongitudeDegrees>
            </Position>
            <AltitudeMeters>1393.199951171875</AltitudeMeters>
            <DistanceMeters>76340.836955586</DistanceMeters>
          </Trackpoint>
          <Trackpoint>
            <Time>2019-08-02T07:35:59.000Z</Time>
            <Position>
              <LatitudeDegrees>40.7731928117573261260986328125</LatitudeDegrees>
              <LongitudeDegrees>-4.06664930284023284912109375</LongitudeDegrees>
            </Position>
            <AltitudeMeters>1393.4000244140625</AltitudeMeters>
            <DistanceMeters>76342.727963326</DistanceMeters>
          </Trackpoint>
          <Trackpoint>
            <Time>2019-08-02T07:36:07.000Z</Time>
            <Position>
              <LatitudeDegrees>40.773282833397388458251953125</LatitudeDegrees>
              <LongitudeDegrees>-4.0666320361196994781494140625</LongitudeDegrees>
            </Position>
            <AltitudeMeters>1394.199951171875</AltitudeMeters>
            <DistanceMeters>76352.852657286</DistanceMeters>
          </Trackpoint>
          <Trackpoint>
            <Time>2019-08-02T07:36:13.000Z</Time>
            <Position>
              <LatitudeDegrees>40.7733473740518093109130859375</LatitudeDegrees>
              <LongitudeDegrees>-4.066622145473957061767578125</LongitudeDegrees>
            </Position>
            <AltitudeMeters>1394.4000244140625</AltitudeMeters>
            <DistanceMeters>76360.084683473</DistanceMeters>
          </Trackpoint>
          <Trackpoint>
            <Time>2019-08-02T07:36:19.000Z</Time>
            <Position>
              <LatitudeDegrees>40.77341216616332530975341796875</LatitudeDegrees>
              <LongitudeDegrees>-4.0666384063661098480224609375</LongitudeDegrees>
            </Position>
            <AltitudeMeters>1395.4000244140625</AltitudeMeters>
            <DistanceMeters>76367.424536064</DistanceMeters>
          </Trackpoint>
          <Trackpoint>
            <Time>2019-08-02T07:36:25.000Z</Time>
            <Position>
              <LatitudeDegrees>40.773500092327594757080078125</LatitudeDegrees>
              <LongitudeDegrees>-4.0666575171053409576416015625</LongitudeDegrees>
            </Position>
            <AltitudeMeters>1395.5999755859375</AltitudeMeters>
            <DistanceMeters>76377.341974878</DistanceMeters>
          </Trackpoint>
          <Trackpoint>
            <Time>2019-08-02T07:36:31.000Z</Time>
            <Position>
              <LatitudeDegrees>40.77356974594295024871826171875</LatitudeDegrees>
              <LongitudeDegrees>-4.0666638873517513275146484375</LongitudeDegrees>
            </Position>
            <AltitudeMeters>1396.5999755859375</AltitudeMeters>
            <DistanceMeters>76385.113277939</DistanceMeters>
          </Trackpoint>
          <Trackpoint>
            <Time>2019-08-02T07:36:32.000Z</Time>
            <Position>
              <LatitudeDegrees>40.77358148060739040374755859375</LatitudeDegrees>
              <LongitudeDegrees>-4.066663719713687896728515625</LongitudeDegrees>
            </Position>
            <AltitudeMeters>1396.5999755859375</AltitudeMeters>
            <DistanceMeters>76386.416218602</DistanceMeters>
          </Trackpoint>
          <Trackpoint>
            <Time>2019-08-02T07:36:36.000Z</Time>
            <Position>
              <LatitudeDegrees>40.77363294549286365509033203125</LatitudeDegrees>
              <LongitudeDegrees>-4.0666601993143558502197265625</LongitudeDegrees>
            </Position>
            <AltitudeMeters>1397.5999755859375</AltitudeMeters>
            <DistanceMeters>76392.151771625</DistanceMeters>
          </Trackpoint>
          <Trackpoint>
            <Time>2019-08-02T07:36:49.000Z</Time>
            <Position>
              <LatitudeDegrees>40.7738077081739902496337890625</LatitudeDegrees>
              <LongitudeDegrees>-4.0666504763066768646240234375</LongitudeDegrees>
            </Position>
            <AltitudeMeters>1396.800048828125</AltitudeMeters>
            <DistanceMeters>76411.620655998</DistanceMeters>
          </Trackpoint>
          <Trackpoint>
            <Time>2019-08-02T07:36:59.000Z</Time>
            <Position>
              <LatitudeDegrees>40.773925893008708953857421875</LatitudeDegrees>
              <LongitudeDegrees>-4.06660236418247222900390625</LongitudeDegrees>
            </Position>
            <AltitudeMeters>1397.199951171875</AltitudeMeters>
            <DistanceMeters>76425.385760212</DistanceMeters>
          </Trackpoint>
          <Trackpoint>
            <Time>2019-08-02T07:37:12.000Z</Time>
            <Position>
              <LatitudeDegrees>40.77406947501003742218017578125</LatitudeDegrees>
              <LongitudeDegrees>-4.0665601193904876708984375</LongitudeDegrees>
            </Position>
            <AltitudeMeters>1397.800048828125</AltitudeMeters>
            <DistanceMeters>76441.758507365</DistanceMeters>
          </Trackpoint>
          <Trackpoint>
            <Time>2019-08-02T07:37:22.000Z</Time>
            <Position>
              <LatitudeDegrees>40.77419134788215160369873046875</LatitudeDegrees>
              <LongitudeDegrees>-4.06649583019316196441650390625</LongitudeDegrees>
            </Position>
            <AltitudeMeters>1398.800048828125</AltitudeMeters>
            <DistanceMeters>76456.365445655</DistanceMeters>
          </Trackpoint>
          <Trackpoint>
            <Time>2019-08-02T07:37:40.000Z</Time>
            <Position>
              <LatitudeDegrees>40.7744118757545948028564453125</LatitudeDegrees>
              <LongitudeDegrees>-4.06647236086428165435791015625</LongitudeDegrees>
            </Position>
            <AltitudeMeters>1399.4000244140625</AltitudeMeters>
            <DistanceMeters>76480.990386129</DistanceMeters>
          </Trackpoint>
          <Trackpoint>
            <Time>2019-08-02T07:37:41.000Z</Time>
            <Position>
              <LatitudeDegrees>40.77442285604774951934814453125</LatitudeDegrees>
              <LongitudeDegrees>-4.06647571362555027008056640625</LongitudeDegrees>
            </Position>
            <AltitudeMeters>1399.5999755859375</AltitudeMeters>
            <DistanceMeters>76482.243874582</DistanceMeters>
          </Trackpoint>
          <Trackpoint>
            <Time>2019-08-02T07:37:45.000Z</Time>
            <Position>
              <LatitudeDegrees>40.77446602284908294677734375</LatitudeDegrees>
              <LongitudeDegrees>-4.0664764679968357086181640625</LongitudeDegrees>
            </Position>
            <AltitudeMeters>1399.5999755859375</AltitudeMeters>
            <DistanceMeters>76487.048130549</DistanceMeters>
          </Trackpoint>
          <Trackpoint>
            <Time>2019-08-02T07:37:56.000Z</Time>
            <Position>
              <LatitudeDegrees>40.77459300868213176727294921875</LatitudeDegrees>
              <LongitudeDegrees>-4.0664744563400745391845703125</LongitudeDegrees>
            </Position>
            <AltitudeMeters>1400.199951171875</AltitudeMeters>
            <DistanceMeters>76501.18253578</DistanceMeters>
          </Trackpoint>
          <Trackpoint>
            <Time>2019-08-02T07:38:00.000Z</Time>
            <Position>
              <LatitudeDegrees>40.77463910914957523345947265625</LatitudeDegrees>
              <LongitudeDegrees>-4.06648099422454833984375</LongitudeDegrees>
            </Position>
            <AltitudeMeters>1400.4000244140625</AltitudeMeters>
            <DistanceMeters>76506.343807475</DistanceMeters>
          </Trackpoint>
          <Trackpoint>
            <Time>2019-08-02T07:38:02.000Z</Time>
            <Position>
              <LatitudeDegrees>40.77466140501201152801513671875</LatitudeDegrees>
              <LongitudeDegrees>-4.06648166477680206298828125</LongitudeDegrees>
            </Position>
            <AltitudeMeters>1400.5999755859375</AltitudeMeters>
            <DistanceMeters>76508.829078544</DistanceMeters>
          </Trackpoint>
          <Trackpoint>
            <Time>2019-08-02T07:38:14.000Z</Time>
            <Position>
              <LatitudeDegrees>40.7748044840991497039794921875</LatitudeDegrees>
              <LongitudeDegrees>-4.0664903819561004638671875</LongitudeDegrees>
            </Position>
            <AltitudeMeters>1400.5999755859375</AltitudeMeters>
            <DistanceMeters>76524.771491523</DistanceMeters>
          </Trackpoint>
          <Trackpoint>
            <Time>2019-08-02T07:38:17.000Z</Time>
            <Position>
              <LatitudeDegrees>40.77483616769313812255859375</LatitudeDegrees>
              <LongitudeDegrees>-4.06648409552872180938720703125</LongitudeDegrees>
            </Position>
            <AltitudeMeters>1400.5999755859375</AltitudeMeters>
            <DistanceMeters>76528.337209913</DistanceMeters>
          </Trackpoint>
          <Trackpoint>
            <Time>2019-08-02T07:38:26.000Z</Time>
            <Position>
              <LatitudeDegrees>40.7749372534453868865966796875</LatitudeDegrees>
              <LongitudeDegrees>-4.06646179966628551483154296875</LongitudeDegrees>
            </Position>
            <AltitudeMeters>1400.5999755859375</AltitudeMeters>
            <DistanceMeters>76539.744374396</DistanceMeters>
          </Trackpoint>
          <Trackpoint>
            <Time>2019-08-02T07:38:30.000Z</Time>
            <Position>
              <LatitudeDegrees>40.77497740276157855987548828125</LatitudeDegrees>
              <LongitudeDegrees>-4.06642642803490161895751953125</LongitudeDegrees>
            </Position>
            <AltitudeMeters>1401</AltitudeMeters>
            <DistanceMeters>76545.116536374</DistanceMeters>
          </Trackpoint>
          <Trackpoint>
            <Time>2019-08-02T07:38:39.000Z</Time>
            <Position>
              <LatitudeDegrees>40.7750633172690868377685546875</LatitudeDegrees>
              <LongitudeDegrees>-4.066375382244586944580078125</LongitudeDegrees>
            </Position>
            <AltitudeMeters>1401.800048828125</AltitudeMeters>
            <DistanceMeters>76555.602250979</DistanceMeters>
          </Trackpoint>
          <Trackpoint>
            <Time>2019-08-02T07:38:47.000Z</Time>
            <Position>
              <LatitudeDegrees>40.77513833530247211456298828125</LatitudeDegrees>
              <LongitudeDegrees>-4.0662769787013530731201171875</LongitudeDegrees>
            </Position>
            <AltitudeMeters>1402.800048828125</AltitudeMeters>
            <DistanceMeters>76567.371377649</DistanceMeters>
          </Trackpoint>
          <Trackpoint>
            <Time>2019-08-02T07:38:57.000Z</Time>
            <Position>
              <LatitudeDegrees>40.775249898433685302734375</LatitudeDegrees>
              <LongitudeDegrees>-4.06618905253708362579345703125</LongitudeDegrees>
            </Position>
            <AltitudeMeters>1403.800048828125</AltitudeMeters>
            <DistanceMeters>76581.831995901</DistanceMeters>
          </Trackpoint>
          <Trackpoint>
            <Time>2019-08-02T07:39:08.000Z</Time>
            <Position>
              <LatitudeDegrees>40.77539398334920406341552734375</LatitudeDegrees>
              <LongitudeDegrees>-4.0661445446312427520751953125</LongitudeDegrees>
            </Position>
            <AltitudeMeters>1404.5999755859375</AltitudeMeters>
            <DistanceMeters>76598.302074722</DistanceMeters>
          </Trackpoint>
          <Trackpoint>
            <Time>2019-08-02T07:39:18.000Z</Time>
            <Position>
              <LatitudeDegrees>40.77550470829010009765625</LatitudeDegrees>
              <LongitudeDegrees>-4.06614278443157672882080078125</LongitudeDegrees>
            </Position>
            <AltitudeMeters>1405.800048828125</AltitudeMeters>
            <DistanceMeters>76610.627006606</DistanceMeters>
          </Trackpoint>
          <Trackpoint>
            <Time>2019-08-02T07:39:22.000Z</Time>
            <Position>
              <LatitudeDegrees>40.775535888969898223876953125</LatitudeDegrees>
              <LongitudeDegrees>-4.0661432035267353057861328125</LongitudeDegrees>
            </Position>
            <AltitudeMeters>1406.199951171875</AltitudeMeters>
            <DistanceMeters>76614.09775897</DistanceMeters>
          </Trackpoint>
          <Trackpoint>
            <Time>2019-08-02T07:39:25.000Z</Time>
            <Position>
              <LatitudeDegrees>40.77555793337523937225341796875</LatitudeDegrees>
              <LongitudeDegrees>-4.06613037921488285064697265625</LongitudeDegrees>
            </Position>
            <AltitudeMeters>1406.5999755859375</AltitudeMeters>
            <DistanceMeters>76616.778792512</DistanceMeters>
          </Trackpoint>
          <Trackpoint>
            <Time>2019-08-02T07:39:33.000Z</Time>
            <Position>
              <LatitudeDegrees>40.77559079043567180633544921875</LatitudeDegrees>
              <LongitudeDegrees>-4.06614814884960651397705078125</LongitudeDegrees>
            </Position>
            <AltitudeMeters>1407.5999755859375</AltitudeMeters>
            <DistanceMeters>76620.730121677</DistanceMeters>
          </Trackpoint>
          <Trackpoint>
            <Time>2019-08-02T07:44:47.000Z</Time>
            <Position>
              <LatitudeDegrees>40.77622915618121623992919921875</LatitudeDegrees>
              <LongitudeDegrees>-4.0647340379655361175537109375</LongitudeDegrees>
            </Position>
            <AltitudeMeters>1428.800048828125</AltitudeMeters>
            <DistanceMeters>76759.490211177</DistanceMeters>
          </Trackpoint>
          <Trackpoint>
            <Time>2019-08-02T07:44:56.000Z</Time>
            <Position>
              <LatitudeDegrees>40.77618590556085109710693359375</LatitudeDegrees>
              <LongitudeDegrees>-4.06462700106203556060791015625</LongitudeDegrees>
            </Position>
            <AltitudeMeters>1429.4000244140625</AltitudeMeters>
            <DistanceMeters>76769.715633181</DistanceMeters>
          </Trackpoint>
          <Trackpoint>
            <Time>2019-08-02T08:00:50.000Z</Time>
            <Position>
              <LatitudeDegrees>40.7803244702517986297607421875</LatitudeDegrees>
              <LongitudeDegrees>-4.0640128590166568756103515625</LongitudeDegrees>
            </Position>
            <AltitudeMeters>1484.5999755859375</AltitudeMeters>
            <DistanceMeters>77233.245221746</DistanceMeters>
          </Trackpoint>
          <Trackpoint>
            <Time>2019-08-02T08:00:54.000Z</Time>
            <Position>
              <LatitudeDegrees>40.7803975604474544525146484375</LatitudeDegrees>
              <LongitudeDegrees>-4.064053259789943695068359375</LongitudeDegrees>
            </Position>
            <AltitudeMeters>1485.5999755859375</AltitudeMeters>
            <DistanceMeters>77242.063782759</DistanceMeters>
          </Trackpoint>
          <Trackpoint>
            <Time>2019-08-02T08:01:00.000Z</Time>
            <Position>
              <LatitudeDegrees>40.7804900966584682464599609375</LatitudeDegrees>
              <LongitudeDegrees>-4.06411151401698589324951171875</LongitudeDegrees>
            </Position>
            <AltitudeMeters>1486.800048828125</AltitudeMeters>
            <DistanceMeters>77253.474113261</DistanceMeters>
          </Trackpoint>
          <Trackpoint>
            <Time>2019-08-02T08:01:05.000Z</Time>
            <Position>
              <LatitudeDegrees>40.7805454172194004058837890625</LatitudeDegrees>
              <LongitudeDegrees>-4.06413179822266101837158203125</LongitudeDegrees>
            </Position>
            <AltitudeMeters>1488</AltitudeMeters>
            <DistanceMeters>77259.864262373</DistanceMeters>
          </Trackpoint>
          <Trackpoint>
            <Time>2019-08-02T08:01:14.000Z</Time>
            <Position>
              <LatitudeDegrees>40.78065580688416957855224609375</LatitudeDegrees>
              <LongitudeDegrees>-4.06418745405972003936767578125</LongitudeDegrees>
            </Position>
            <AltitudeMeters>1489.199951171875</AltitudeMeters>
            <DistanceMeters>77273.01576739</DistanceMeters>
          </Trackpoint>
          <Trackpoint>
            <Time>2019-08-02T08:01:20.000Z</Time>
            <Position>
              <LatitudeDegrees>40.7807457447052001953125</LatitudeDegrees>
              <LongitudeDegrees>-4.06423422507941722869873046875</LongitudeDegrees>
            </Position>
            <AltitudeMeters>1490.199951171875</AltitudeMeters>
            <DistanceMeters>77283.774369523</DistanceMeters>
          </Trackpoint>
          <Trackpoint>
            <Time>2019-08-02T08:01:21.000Z</Time>
            <Position>
              <LatitudeDegrees>40.780756138265132904052734375</LatitudeDegrees>
              <LongitudeDegrees>-4.0642425231635570526123046875</LongitudeDegrees>
            </Position>
            <AltitudeMeters>1490.4000244140625</AltitudeMeters>
            <DistanceMeters>77285.124952894</DistanceMeters>
          </Trackpoint>
          <Trackpoint>
            <Time>2019-08-02T08:01:26.000Z</Time>
            <Position>
              <LatitudeDegrees>40.78083400614559650421142578125</LatitudeDegrees>
              <LongitudeDegrees>-4.064310081303119659423828125</LongitudeDegrees>
            </Position>
            <AltitudeMeters>1491</AltitudeMeters>
            <DistanceMeters>77295.494627445</DistanceMeters>
          </Trackpoint>
          <Trackpoint>
            <Time>2019-08-02T08:01:28.000Z</Time>
            <Position>
              <LatitudeDegrees>40.78086200170218944549560546875</LatitudeDegrees>
              <LongitudeDegrees>-4.06430262140929698944091796875</LongitudeDegrees>
            </Position>
            <AltitudeMeters>1491.199951171875</AltitudeMeters>
            <DistanceMeters>77298.67340953</DistanceMeters>
          </Trackpoint>
          <Trackpoint>
            <Time>2019-08-02T08:01:35.000Z</Time>
            <Position>
              <LatitudeDegrees>40.78092386014759540557861328125</LatitudeDegrees>
              <LongitudeDegrees>-4.06422793865203857421875</LongitudeDegrees>
            </Position>
            <AltitudeMeters>1492.4000244140625</AltitudeMeters>
            <DistanceMeters>77308.001529202</DistanceMeters>
          </Trackpoint>
          <Trackpoint>
            <Time>2019-08-02T08:01:43.000Z</Time>
            <Position>
              <LatitudeDegrees>40.7810007221996784210205078125</LatitudeDegrees>
              <LongitudeDegrees>-4.06411553733050823211669921875</LongitudeDegrees>
            </Position>
            <AltitudeMeters>1493.4000244140625</AltitudeMeters>
            <DistanceMeters>77320.765566149</DistanceMeters>
          </Trackpoint>
          <Trackpoint>
            <Time>2019-08-02T08:01:51.000Z</Time>
            <Position>
              <LatitudeDegrees>40.7810691185295581817626953125</LatitudeDegrees>
              <LongitudeDegrees>-4.06405250541865825653076171875</LongitudeDegrees>
            </Position>
            <AltitudeMeters>1494.4000244140625</AltitudeMeters>
            <DistanceMeters>77330.048076016</DistanceMeters>
          </Trackpoint>
          <Trackpoint>
            <Time>2019-08-02T08:01:56.000Z</Time>
            <Position>
              <LatitudeDegrees>40.7811120338737964630126953125</LatitudeDegrees>
              <LongitudeDegrees>-4.06402342021465301513671875</LongitudeDegrees>
            </Position>
            <AltitudeMeters>1495.4000244140625</AltitudeMeters>
            <DistanceMeters>77335.416875138</DistanceMeters>
          </Trackpoint>
          <Trackpoint>
            <Time>2019-08-02T08:02:03.000Z</Time>
            <Position>
              <LatitudeDegrees>40.7811784185469150543212890625</LatitudeDegrees>
              <LongitudeDegrees>-4.0639914013445377349853515625</LongitudeDegrees>
            </Position>
            <AltitudeMeters>1496.5999755859375</AltitudeMeters>
            <DistanceMeters>77343.282883261</DistanceMeters>
          </Trackpoint>
          <Trackpoint>
            <Time>2019-08-02T08:02:08.000Z</Time>
            <Position>
              <LatitudeDegrees>40.78122921288013458251953125</LatitudeDegrees>
              <LongitudeDegrees>-4.06396466307342052459716796875</LongitudeDegrees>
            </Position>
            <AltitudeMeters>1497.5999755859375</AltitudeMeters>
            <DistanceMeters>77349.36830383</DistanceMeters>
          </Trackpoint>
          <Trackpoint>
            <Time>2019-08-02T08:02:15.000Z</Time>
            <Position>
              <LatitudeDegrees>40.78130406327545642852783203125</LatitudeDegrees>
              <LongitudeDegrees>-4.06395678408443927764892578125</LongitudeDegrees>
            </Position>
            <AltitudeMeters>1496.5999755859375</AltitudeMeters>
            <DistanceMeters>77357.725253705</DistanceMeters>
          </Trackpoint>
          <Trackpoint>
            <Time>2019-08-02T08:02:24.000Z</Time>
            <Position>
              <LatitudeDegrees>40.781393833458423614501953125</LatitudeDegrees>
              <LongitudeDegrees>-4.06394169665873050689697265625</LongitudeDegrees>
            </Position>
            <AltitudeMeters>1497.4000244140625</AltitudeMeters>
            <DistanceMeters>77367.79718891</DistanceMeters>
          </Trackpoint>
          <Trackpoint>
            <Time>2019-08-02T08:02:48.000Z</Time>
            <Position>
              <LatitudeDegrees>40.78166683204472064971923828125</LatitudeDegrees>
              <LongitudeDegrees>-4.06390330754220485687255859375</LongitudeDegrees>
            </Position>
            <AltitudeMeters>1498.5999755859375</AltitudeMeters>
            <DistanceMeters>77398.354151528</DistanceMeters>
          </Trackpoint>
          <Trackpoint>
            <Time>2019-08-02T08:02:53.000Z</Time>
            <Position>
              <LatitudeDegrees>40.78172097913920879364013671875</LatitudeDegrees>
              <LongitudeDegrees>-4.06391185708343982696533203125</LongitudeDegrees>
            </Position>
            <AltitudeMeters>1499.5999755859375</AltitudeMeters>
            <DistanceMeters>77404.423971286</DistanceMeters>
          </Trackpoint>
          <Trackpoint>
            <Time>2019-08-02T08:03:01.000Z</Time>
            <Position>
              <LatitudeDegrees>40.7818090729415416717529296875</LatitudeDegrees>
              <LongitudeDegrees>-4.0639664232730865478515625</LongitudeDegrees>
            </Position>
            <AltitudeMeters>1500.800048828125</AltitudeMeters>
            <DistanceMeters>77415.254098844</DistanceMeters>
          </Trackpoint>
          <Trackpoint>
            <Time>2019-08-02T08:03:06.000Z</Time>
            <Position>
              <LatitudeDegrees>40.78185894526541233062744140625</LatitudeDegrees>
              <LongitudeDegrees>-4.0640128590166568756103515625</LongitudeDegrees>
            </Position>
            <AltitudeMeters>1502</AltitudeMeters>
            <DistanceMeters>77422.045684114</DistanceMeters>
          </Trackpoint>
          <Trackpoint>
            <Time>2019-08-02T08:03:12.000Z</Time>
            <Position>
              <LatitudeDegrees>40.78192650340497493743896484375</LatitudeDegrees>
              <LongitudeDegrees>-4.06406155787408351898193359375</LongitudeDegrees>
            </Position>
            <AltitudeMeters>1503</AltitudeMeters>
            <DistanceMeters>77430.612857588</DistanceMeters>
          </Trackpoint>
          <Trackpoint>
            <Time>2019-08-02T08:03:16.000Z</Time>
            <Position>
              <LatitudeDegrees>40.781972520053386688232421875</LatitudeDegrees>
              <LongitudeDegrees>-4.06408586539328098297119140625</LongitudeDegrees>
            </Position>
            <AltitudeMeters>1504</AltitudeMeters>
            <DistanceMeters>77436.129320007</DistanceMeters>
          </Trackpoint>
          <Trackpoint>
            <Time>2019-08-02T08:03:20.000Z</Time>
            <Position>
              <LatitudeDegrees>40.78201065771281719207763671875</LatitudeDegrees>
              <LongitudeDegrees>-4.06412626616656780242919921875</LongitudeDegrees>
            </Position>
            <AltitudeMeters>1505.4000244140625</AltitudeMeters>
            <DistanceMeters>77441.570792294</DistanceMeters>
          </Trackpoint>
          <Trackpoint>
            <Time>2019-08-02T08:03:26.000Z</Time>
            <Position>
              <LatitudeDegrees>40.7820725999772548675537109375</LatitudeDegrees>
              <LongitudeDegrees>-4.06418074853718280792236328125</LongitudeDegrees>
            </Position>
            <AltitudeMeters>1506.4000244140625</AltitudeMeters>
            <DistanceMeters>77449.855029192</DistanceMeters>
          </Trackpoint>
          <Trackpoint>
            <Time>2019-08-02T08:03:32.000Z</Time>
            <Position>
              <LatitudeDegrees>40.78212582506239414215087890625</LatitudeDegrees>
              <LongitudeDegrees>-4.06418879516422748565673828125</LongitudeDegrees>
            </Position>
            <AltitudeMeters>1507.4000244140625</AltitudeMeters>
            <DistanceMeters>77455.818286778</DistanceMeters>
          </Trackpoint>
          <Trackpoint>
            <Time>2019-08-02T08:03:38.000Z</Time>
            <Position>
              <LatitudeDegrees>40.7821775414049625396728515625</LatitudeDegrees>
              <LongitudeDegrees>-4.06420790590345859527587890625</LongitudeDegrees>
            </Position>
            <AltitudeMeters>1508.5999755859375</AltitudeMeters>
            <DistanceMeters>77461.795157398</DistanceMeters>
          </Trackpoint>
          <Trackpoint>
            <Time>2019-08-02T08:03:43.000Z</Time>
            <Position>
              <LatitudeDegrees>40.7822295092046260833740234375</LatitudeDegrees>
              <LongitudeDegrees>-4.0642311237752437591552734375</LongitudeDegrees>
            </Position>
            <AltitudeMeters>1509.5999755859375</AltitudeMeters>
            <DistanceMeters>77467.900577577</DistanceMeters>
          </Trackpoint>
          <Trackpoint>
            <Time>2019-08-02T08:03:48.000Z</Time>
            <Position>
              <LatitudeDegrees>40.78228491358458995819091796875</LatitudeDegrees>
              <LongitudeDegrees>-4.06424679793417453765869140625</LongitudeDegrees>
            </Position>
            <AltitudeMeters>1510.800048828125</AltitudeMeters>
            <DistanceMeters>77474.206801222</DistanceMeters>
          </Trackpoint>
          <Trackpoint>
            <Time>2019-08-02T08:03:53.000Z</Time>
            <Position>
              <LatitudeDegrees>40.7823337800800800323486328125</LatitudeDegrees>
              <LongitudeDegrees>-4.0642425231635570526123046875</LongitudeDegrees>
            </Position>
            <AltitudeMeters>1512</AltitudeMeters>
            <DistanceMeters>77479.657393071</DistanceMeters>
          </Trackpoint>
          <Trackpoint>
            <Time>2019-08-02T08:03:58.000Z</Time>
            <Position>
              <LatitudeDegrees>40.78240041621029376983642578125</LatitudeDegrees>
              <LongitudeDegrees>-4.06421293504536151885986328125</LongitudeDegrees>
            </Position>
            <AltitudeMeters>1513</AltitudeMeters>
            <DistanceMeters>77487.482541527</DistanceMeters>
          </Trackpoint>
          <Trackpoint>
            <Time>2019-08-02T08:04:06.000Z</Time>
            <Position>
              <LatitudeDegrees>40.78248758800327777862548828125</LatitudeDegrees>
              <LongitudeDegrees>-4.06413096003234386444091796875</LongitudeDegrees>
            </Position>
            <AltitudeMeters>1514.4000244140625</AltitudeMeters>
            <DistanceMeters>77499.393904215</DistanceMeters>
          </Trackpoint>
          <Trackpoint>
            <Time>2019-08-02T08:04:08.000Z</Time>
            <Position>
              <LatitudeDegrees>40.78250317834317684173583984375</LatitudeDegrees>
              <LongitudeDegrees>-4.064100868999958038330078125</LongitudeDegrees>
            </Position>
            <AltitudeMeters>1515.5999755859375</AltitudeMeters>
            <DistanceMeters>77502.467250919</DistanceMeters>
          </Trackpoint>
          <Trackpoint>
            <Time>2019-08-02T08:04:35.000Z</Time>
            <Position>
              <LatitudeDegrees>40.78247602097690105438232421875</LatitudeDegrees>
              <LongitudeDegrees>-4.06370767392218112945556640625</LongitudeDegrees>
            </Position>
            <AltitudeMeters>1516.800048828125</AltitudeMeters>
            <DistanceMeters>77535.742208818</DistanceMeters>
          </Trackpoint>
          <Trackpoint>
            <Time>2019-08-02T08:04:44.000Z</Time>
            <Position>
              <LatitudeDegrees>40.78243888914585113525390625</LatitudeDegrees>
              <LongitudeDegrees>-4.06357993371784687042236328125</LongitudeDegrees>
            </Position>
            <AltitudeMeters>1518</AltitudeMeters>
            <DistanceMeters>77547.274161636</DistanceMeters>
          </Trackpoint>
          <Trackpoint>
            <Time>2019-08-02T08:04:52.000Z</Time>
            <Position>
              <LatitudeDegrees>40.7823961414396762847900390625</LatitudeDegrees>
              <LongitudeDegrees>-4.06348471529781818389892578125</LongitudeDegrees>
            </Position>
            <AltitudeMeters>1519.199951171875</AltitudeMeters>
            <DistanceMeters>77556.603249306</DistanceMeters>
          </Trackpoint>
          <Trackpoint>
            <Time>2019-08-02T08:05:01.000Z</Time>
            <Position>
              <LatitudeDegrees>40.7823418267071247100830078125</LatitudeDegrees>
              <LongitudeDegrees>-4.0633624233305454254150390625</LongitudeDegrees>
            </Position>
            <AltitudeMeters>1520.199951171875</AltitudeMeters>
            <DistanceMeters>77568.551701448</DistanceMeters>
          </Trackpoint>
          <Trackpoint>
            <Time>2019-08-02T08:05:15.000Z</Time>
            <Position>
              <LatitudeDegrees>40.78222707845270633697509765625</LatitudeDegrees>
              <LongitudeDegrees>-4.06316243112087249755859375</LongitudeDegrees>
            </Position>
            <AltitudeMeters>1521.199951171875</AltitudeMeters>
            <DistanceMeters>77589.698935447</DistanceMeters>
          </Trackpoint>
          <Trackpoint>
            <Time>2019-08-02T08:05:21.000Z</Time>
            <Position>
              <LatitudeDegrees>40.78217804431915283203125</LatitudeDegrees>
              <LongitudeDegrees>-4.06310149468481540679931640625</LongitudeDegrees>
            </Position>
            <AltitudeMeters>1521.5999755859375</AltitudeMeters>
            <DistanceMeters>77597.193405107</DistanceMeters>
          </Trackpoint>
          <Trackpoint>
            <Time>2019-08-02T08:05:27.000Z</Time>
            <Position>
              <LatitudeDegrees>40.7821404933929443359375</LatitudeDegrees>
              <LongitudeDegrees>-4.06302588991820812225341796875</LongitudeDegrees>
            </Position>
            <AltitudeMeters>1522.199951171875</AltitudeMeters>
            <DistanceMeters>77604.813338934</DistanceMeters>
          </Trackpoint>
          <Trackpoint>
            <Time>2019-08-02T08:05:47.000Z</Time>
            <Position>
              <LatitudeDegrees>40.78202306292951107025146484375</LatitudeDegrees>
              <LongitudeDegrees>-4.0627817250788211822509765625</LongitudeDegrees>
            </Position>
            <AltitudeMeters>1521.199951171875</AltitudeMeters>
            <DistanceMeters>77629.19097891</DistanceMeters>
          </Trackpoint>
          <Trackpoint>
            <Time>2019-08-02T08:05:52.000Z</Time>
            <Position>
              <LatitudeDegrees>40.78200646676123142242431640625</LatitudeDegrees>
              <LongitudeDegrees>-4.06272648833692073822021484375</LongitudeDegrees>
            </Position>
            <AltitudeMeters>1520</AltitudeMeters>
            <DistanceMeters>77634.199526839</DistanceMeters>
          </Trackpoint>
          <Trackpoint>
            <Time>2019-08-02T08:05:58.000Z</Time>
            <Position>
              <LatitudeDegrees>40.781991295516490936279296875</LatitudeDegrees>
              <LongitudeDegrees>-4.0626399032771587371826171875</LongitudeDegrees>
            </Position>
            <AltitudeMeters>1519</AltitudeMeters>
            <DistanceMeters>77641.689778166</DistanceMeters>
          </Trackpoint>
          <Trackpoint>
            <Time>2019-08-02T08:06:02.000Z</Time>
            <Position>
              <LatitudeDegrees>40.781982243061065673828125</LatitudeDegrees>
              <LongitudeDegrees>-4.062584079802036285400390625</LongitudeDegrees>
            </Position>
            <AltitudeMeters>1518</AltitudeMeters>
            <DistanceMeters>77646.500608233</DistanceMeters>
          </Trackpoint>
          <Trackpoint>
            <Time>2019-08-02T08:06:08.000Z</Time>
            <Position>
              <LatitudeDegrees>40.78197360970079898834228515625</LatitudeDegrees>
              <LongitudeDegrees>-4.0624930523335933685302734375</LongitudeDegrees>
            </Position>
            <AltitudeMeters>1516.800048828125</AltitudeMeters>
            <DistanceMeters>77654.231135117</DistanceMeters>
          </Trackpoint>
          <Trackpoint>
            <Time>2019-08-02T08:06:15.000Z</Time>
            <Position>
              <LatitudeDegrees>40.78197495080530643463134765625</LatitudeDegrees>
              <LongitudeDegrees>-4.06238459050655364990234375</LongitudeDegrees>
            </Position>
            <AltitudeMeters>1515.5999755859375</AltitudeMeters>
            <DistanceMeters>77663.37298162</DistanceMeters>
          </Trackpoint>
          <Trackpoint>
            <Time>2019-08-02T08:06:20.000Z</Time>
            <Position>
              <LatitudeDegrees>40.7819689996540546417236328125</LatitudeDegrees>
              <LongitudeDegrees>-4.06230856664478778839111328125</LongitudeDegrees>
            </Position>
            <AltitudeMeters>1514.4000244140625</AltitudeMeters>
            <DistanceMeters>77669.813802312</DistanceMeters>
          </Trackpoint>
          <Trackpoint>
            <Time>2019-08-02T08:06:43.000Z</Time>
            <Position>
              <LatitudeDegrees>40.7820481248199939727783203125</LatitudeDegrees>
              <LongitudeDegrees>-4.06198452226817607879638671875</LongitudeDegrees>
            </Position>
            <AltitudeMeters>1515.4000244140625</AltitudeMeters>
            <DistanceMeters>77698.508408605</DistanceMeters>
          </Trackpoint>
          <Trackpoint>
            <Time>2019-08-02T08:06:48.000Z</Time>
            <Position>
              <LatitudeDegrees>40.7820732705295085906982421875</LatitudeDegrees>
              <LongitudeDegrees>-4.06194462440907955169677734375</LongitudeDegrees>
            </Position>
            <AltitudeMeters>1516.5999755859375</AltitudeMeters>
            <DistanceMeters>77702.883767111</DistanceMeters>
          </Trackpoint>
          <Trackpoint>
            <Time>2019-08-02T08:07:09.000Z</Time>
            <Position>
              <LatitudeDegrees>40.7821909524500370025634765625</LatitudeDegrees>
              <LongitudeDegrees>-4.0616293810307979583740234375</LongitudeDegrees>
            </Position>
            <AltitudeMeters>1517.4000244140625</AltitudeMeters>
            <DistanceMeters>77732.505135038</DistanceMeters>
          </Trackpoint>
          <Trackpoint>
            <Time>2019-08-02T08:07:12.000Z</Time>
            <Position>
              <LatitudeDegrees>40.78218567185103893280029296875</LatitudeDegrees>
              <LongitudeDegrees>-4.061590991914272308349609375</LongitudeDegrees>
            </Position>
            <AltitudeMeters>1518</AltitudeMeters>
            <DistanceMeters>77735.791466036</DistanceMeters>
          </Trackpoint>
          <Trackpoint>
            <Time>2019-08-02T08:07:13.000Z</Time>
            <Position>
              <LatitudeDegrees>40.78218667767941951751708984375</LatitudeDegrees>
              <LongitudeDegrees>-4.061576239764690399169921875</LongitudeDegrees>
            </Position>
            <AltitudeMeters>1518.199951171875</AltitudeMeters>
            <DistanceMeters>77737.037729711</DistanceMeters>
          </Trackpoint>
          <Trackpoint>
            <Time>2019-08-02T08:07:18.000Z</Time>
            <Position>
              <LatitudeDegrees>40.78219422139227390289306640625</LatitudeDegrees>
              <LongitudeDegrees>-4.06150205992162227630615234375</LongitudeDegrees>
            </Position>
            <AltitudeMeters>1519</AltitudeMeters>
            <DistanceMeters>77743.345385124</DistanceMeters>
          </Trackpoint>
          <Trackpoint>
            <Time>2019-08-02T08:07:19.000Z</Time>
            <Position>
              <LatitudeDegrees>40.78219824470579624176025390625</LatitudeDegrees>
              <LongitudeDegrees>-4.061484374105930328369140625</LongitudeDegrees>
            </Position>
            <AltitudeMeters>1519.199951171875</AltitudeMeters>
            <DistanceMeters>77744.898134431</DistanceMeters>
          </Trackpoint>
          <Trackpoint>
            <Time>2019-08-02T08:07:30.000Z</Time>
            <Position>
              <LatitudeDegrees>40.7822368852794170379638671875</LatitudeDegrees>
              <LongitudeDegrees>-4.06126610934734344482421875</LongitudeDegrees>
            </Position>
            <AltitudeMeters>1519.199951171875</AltitudeMeters>
            <DistanceMeters>77763.788623067</DistanceMeters>
          </Trackpoint>
          <Trackpoint>
            <Time>2019-08-02T08:07:35.000Z</Time>
            <Position>
              <LatitudeDegrees>40.7822365500032901763916015625</LatitudeDegrees>
              <LongitudeDegrees>-4.06118287704885005950927734375</LongitudeDegrees>
            </Position>
            <AltitudeMeters>1519.4000244140625</AltitudeMeters>
            <DistanceMeters>77770.803886186</DistanceMeters>
          </Trackpoint>
          <Trackpoint>
            <Time>2019-08-02T08:07:42.000Z</Time>
            <Position>
              <LatitudeDegrees>40.782229006290435791015625</LatitudeDegrees>
              <LongitudeDegrees>-4.06106838025152683258056640625</LongitudeDegrees>
            </Position>
            <AltitudeMeters>1520.4000244140625</AltitudeMeters>
            <DistanceMeters>77780.490087415</DistanceMeters>
          </Trackpoint>
          <Trackpoint>
            <Time>2019-08-02T08:07:48.000Z</Time>
            <Position>
              <LatitudeDegrees>40.78224250115454196929931640625</LatitudeDegrees>
              <LongitudeDegrees>-4.06097508966922760009765625</LongitudeDegrees>
            </Position>
            <AltitudeMeters>1521.4000244140625</AltitudeMeters>
            <DistanceMeters>77788.494360797</DistanceMeters>
          </Trackpoint>
          <Trackpoint>
            <Time>2019-08-02T08:07:58.000Z</Time>
            <Position>
              <LatitudeDegrees>40.7822449319064617156982421875</LatitudeDegrees>
              <LongitudeDegrees>-4.06082086265087127685546875</LongitudeDegrees>
            </Position>
            <AltitudeMeters>1522.5999755859375</AltitudeMeters>
            <DistanceMeters>77801.49497389</DistanceMeters>
          </Trackpoint>
          <Trackpoint>
            <Time>2019-08-02T08:08:04.000Z</Time>
            <Position>
              <LatitudeDegrees>40.78222699463367462158203125</LatitudeDegrees>
              <LongitudeDegrees>-4.0607305057346820831298828125</LongitudeDegrees>
            </Position>
            <AltitudeMeters>1523.800048828125</AltitudeMeters>
            <DistanceMeters>77809.367866923</DistanceMeters>
          </Trackpoint>
          <Trackpoint>
            <Time>2019-08-02T08:08:08.000Z</Time>
            <Position>
              <LatitudeDegrees>40.78222573734819889068603515625</LatitudeDegrees>
              <LongitudeDegrees>-4.06066772527992725372314453125</LongitudeDegrees>
            </Position>
            <AltitudeMeters>1525</AltitudeMeters>
            <DistanceMeters>77814.660436916</DistanceMeters>
          </Trackpoint>
          <Trackpoint>
            <Time>2019-08-02T08:08:13.000Z</Time>
            <Position>
              <LatitudeDegrees>40.782229006290435791015625</LatitudeDegrees>
              <LongitudeDegrees>-4.060591198503971099853515625</LongitudeDegrees>
            </Position>
            <AltitudeMeters>1526.199951171875</AltitudeMeters>
            <DistanceMeters>77821.119457985</DistanceMeters>
          </Trackpoint>
          <Trackpoint>
            <Time>2019-08-02T08:08:29.000Z</Time>
            <Position>
              <LatitudeDegrees>40.7822922058403491973876953125</LatitudeDegrees>
              <LongitudeDegrees>-4.06027679331600666046142578125</LongitudeDegrees>
            </Position>
            <AltitudeMeters>1527.4000244140625</AltitudeMeters>
            <DistanceMeters>77848.534459216</DistanceMeters>
          </Trackpoint>
          <Trackpoint>
            <Time>2019-08-02T08:08:35.000Z</Time>
            <Position>
              <LatitudeDegrees>40.7822824828326702117919921875</LatitudeDegrees>
              <LongitudeDegrees>-4.060178808867931365966796875</LongitudeDegrees>
            </Position>
            <AltitudeMeters>1528.5999755859375</AltitudeMeters>
            <DistanceMeters>77856.863267489</DistanceMeters>
          </Trackpoint>
          <Trackpoint>
            <Time>2019-08-02T08:09:06.000Z</Time>
            <Position>
              <LatitudeDegrees>40.78238348476588726043701171875</LatitudeDegrees>
              <LongitudeDegrees>-4.05946358107030391693115234375</LongitudeDegrees>
            </Position>
            <AltitudeMeters>1529.199951171875</AltitudeMeters>
            <DistanceMeters>77918.180170772</DistanceMeters>
          </Trackpoint>
          <Trackpoint>
            <Time>2019-08-02T08:09:17.000Z</Time>
            <Position>
              <LatitudeDegrees>40.7823783718049526214599609375</LatitudeDegrees>
              <LongitudeDegrees>-4.0591600723564624786376953125</LongitudeDegrees>
            </Position>
            <AltitudeMeters>1529.800048828125</AltitudeMeters>
            <DistanceMeters>77943.76548495</DistanceMeters>
          </Trackpoint>
          <Trackpoint>
            <Time>2019-08-02T08:09:21.000Z</Time>
            <Position>
              <LatitudeDegrees>40.782367475330829620361328125</LatitudeDegrees>
              <LongitudeDegrees>-4.0590494312345981597900390625</LongitudeDegrees>
            </Position>
            <AltitudeMeters>1530.800048828125</AltitudeMeters>
            <DistanceMeters>77953.168809284</DistanceMeters>
          </Trackpoint>
          <Trackpoint>
            <Time>2019-08-02T08:09:24.000Z</Time>
            <Position>
              <LatitudeDegrees>40.78235750086605548858642578125</LatitudeDegrees>
              <LongitudeDegrees>-4.05897558666765689849853515625</LongitudeDegrees>
            </Position>
            <AltitudeMeters>1532</AltitudeMeters>
            <DistanceMeters>77959.490764547</DistanceMeters>
          </Trackpoint>
          <Trackpoint>
            <Time>2019-08-02T08:09:27.000Z</Time>
            <Position>
              <LatitudeDegrees>40.78233067877590656280517578125</LatitudeDegrees>
              <LongitudeDegrees>-4.058884643018245697021484375</LongitudeDegrees>
            </Position>
            <AltitudeMeters>1533</AltitudeMeters>
            <DistanceMeters>77967.715929148</DistanceMeters>
          </Trackpoint>
          <Trackpoint>
            <Time>2019-08-02T08:09:30.000Z</Time>
            <Position>
              <LatitudeDegrees>40.7823005877435207366943359375</LatitudeDegrees>
              <LongitudeDegrees>-4.0588107146322727203369140625</LongitudeDegrees>
            </Position>
            <AltitudeMeters>1534.199951171875</AltitudeMeters>
            <DistanceMeters>77974.788879275</DistanceMeters>
          </Trackpoint>
          <Trackpoint>
            <Time>2019-08-02T08:09:34.000Z</Time>
            <Position>
              <LatitudeDegrees>40.7822576723992824554443359375</LatitudeDegrees>
              <LongitudeDegrees>-4.05871658585965633392333984375</LongitudeDegrees>
            </Position>
            <AltitudeMeters>1535.4000244140625</AltitudeMeters>
            <DistanceMeters>77984.048987585</DistanceMeters>
          </Trackpoint>
          <Trackpoint>
            <Time>2019-08-02T08:09:37.000Z</Time>
            <Position>
              <LatitudeDegrees>40.78220981173217296600341796875</LatitudeDegrees>
              <LongitudeDegrees>-4.05866344459354877471923828125</LongitudeDegrees>
            </Position>
            <AltitudeMeters>1536.4000244140625</AltitudeMeters>
            <DistanceMeters>77991.008680829</DistanceMeters>
          </Trackpoint>
          <Trackpoint>
            <Time>2019-08-02T08:09:40.000Z</Time>
            <Position>
              <LatitudeDegrees>40.7821601070463657379150390625</LatitudeDegrees>
              <LongitudeDegrees>-4.05864634551107883453369140625</LongitudeDegrees>
            </Position>
            <AltitudeMeters>1537.800048828125</AltitudeMeters>
            <DistanceMeters>77996.724519925</DistanceMeters>
          </Trackpoint>
          <Trackpoint>
            <Time>2019-08-02T08:09:42.000Z</Time>
            <Position>
              <LatitudeDegrees>40.7821265794336795806884765625</LatitudeDegrees>
              <LongitudeDegrees>-4.0586514584720134735107421875</LongitudeDegrees>
            </Position>
            <AltitudeMeters>1538.4000244140625</AltitudeMeters>
            <DistanceMeters>78000.480179575</DistanceMeters>
          </Trackpoint>
          <Trackpoint>
            <Time>2019-08-02T08:09:43.000Z</Time>
            <Position>
              <LatitudeDegrees>40.78211090527474880218505859375</LatitudeDegrees>
              <LongitudeDegrees>-4.058664031326770782470703125</LongitudeDegrees>
            </Position>
            <AltitudeMeters>1539</AltitudeMeters>
            <DistanceMeters>78002.51827554</DistanceMeters>
          </Trackpoint>
          <Trackpoint>
            <Time>2019-08-02T08:09:47.000Z</Time>
            <Position>
              <LatitudeDegrees>40.7820608653128147125244140625</LatitudeDegrees>
              <LongitudeDegrees>-4.0587309189140796661376953125</LongitudeDegrees>
            </Position>
            <AltitudeMeters>1540</AltitudeMeters>
            <DistanceMeters>78010.44261473</DistanceMeters>
          </Trackpoint>
          <Trackpoint>
            <Time>2019-08-02T08:09:51.000Z</Time>
            <Position>
              <LatitudeDegrees>40.78202473931014537811279296875</LatitudeDegrees>
              <LongitudeDegrees>-4.05880786478519439697265625</LongitudeDegrees>
            </Position>
            <AltitudeMeters>1541.199951171875</AltitudeMeters>
            <DistanceMeters>78018.072614915</DistanceMeters>
          </Trackpoint>
          <Trackpoint>
            <Time>2019-08-02T08:09:56.000Z</Time>
            <Position>
              <LatitudeDegrees>40.7819830812513828277587890625</LatitudeDegrees>
              <LongitudeDegrees>-4.05888539738953113555908203125</LongitudeDegrees>
            </Position>
            <AltitudeMeters>1542.4000244140625</AltitudeMeters>
            <DistanceMeters>78026.084781504</DistanceMeters>
          </Trackpoint>
          <Trackpoint>
            <Time>2019-08-02T08:10:02.000Z</Time>
            <Position>
              <LatitudeDegrees>40.78193253837525844573974609375</LatitudeDegrees>
              <LongitudeDegrees>-4.05899855308234691619873046875</LongitudeDegrees>
            </Position>
            <AltitudeMeters>1543.5999755859375</AltitudeMeters>
            <DistanceMeters>78037.156923022</DistanceMeters>
          </Trackpoint>
          <Trackpoint>
            <Time>2019-08-02T08:10:07.000Z</Time>
            <Position>
              <LatitudeDegrees>40.7818789780139923095703125</LatitudeDegrees>
              <LongitudeDegrees>-4.0590876527130603790283203125</LongitudeDegrees>
            </Position>
            <AltitudeMeters>1544.5999755859375</AltitudeMeters>
            <DistanceMeters>78046.744737069</DistanceMeters>
          </Trackpoint>
          <Trackpoint>
            <Time>2019-08-02T08:10:17.000Z</Time>
            <Position>
              <LatitudeDegrees>40.78176674433052539825439453125</LatitudeDegrees>
              <LongitudeDegrees>-4.0592687018215656280517578125</LongitudeDegrees>
            </Position>
            <AltitudeMeters>1546</AltitudeMeters>
            <DistanceMeters>78066.464325856</DistanceMeters>
          </Trackpoint>
          <Trackpoint>
            <Time>2019-08-02T08:10:25.000Z</Time>
            <Position>
              <LatitudeDegrees>40.78167487867176532745361328125</LatitudeDegrees>
              <LongitudeDegrees>-4.05942234210669994354248046875</LongitudeDegrees>
            </Position>
            <AltitudeMeters>1547.199951171875</AltitudeMeters>
            <DistanceMeters>78082.963437483</DistanceMeters>
          </Trackpoint>
          <Trackpoint>
            <Time>2019-08-02T08:10:46.000Z</Time>
            <Position>
              <LatitudeDegrees>40.7814251817762851715087890625</LatitudeDegrees>
              <LongitudeDegrees>-4.0597035549581050872802734375</LongitudeDegrees>
            </Position>
            <AltitudeMeters>1548.5999755859375</AltitudeMeters>
            <DistanceMeters>78119.488571756</DistanceMeters>
          </Trackpoint>
          <Trackpoint>
            <Time>2019-08-02T08:11:18.000Z</Time>
            <Position>
              <LatitudeDegrees>40.78096023760735988616943359375</LatitudeDegrees>
              <LongitudeDegrees>-4.060097672045230865478515625</LongitudeDegrees>
            </Position>
            <AltitudeMeters>1549.800048828125</AltitudeMeters>
            <DistanceMeters>78180.98062222</DistanceMeters>
          </Trackpoint>
          <Trackpoint>
            <Time>2019-08-02T08:11:31.000Z</Time>
            <Position>
              <LatitudeDegrees>40.78077600337564945220947265625</LatitudeDegrees>
              <LongitudeDegrees>-4.0602339617908000946044921875</LongitudeDegrees>
            </Position>
            <AltitudeMeters>1550.4000244140625</AltitudeMeters>
            <DistanceMeters>78204.484131032</DistanceMeters>
          </Trackpoint>
          <Trackpoint>
            <Time>2019-08-02T08:12:04.000Z</Time>
            <Position>
              <LatitudeDegrees>40.7803308404982089996337890625</LatitudeDegrees>
              <LongitudeDegrees>-4.06063738279044628143310546875</LongitudeDegrees>
            </Position>
            <AltitudeMeters>1551.4000244140625</AltitudeMeters>
            <DistanceMeters>78264.57558707</DistanceMeters>
          </Trackpoint>
          <Trackpoint>
            <Time>2019-08-02T08:12:13.000Z</Time>
            <Position>
              <LatitudeDegrees>40.78020670451223850250244140625</LatitudeDegrees>
              <LongitudeDegrees>-4.06072237528860569000244140625</LongitudeDegrees>
            </Position>
            <AltitudeMeters>1551.5999755859375</AltitudeMeters>
            <DistanceMeters>78280.138514506</DistanceMeters>
          </Trackpoint>
          <Trackpoint>
            <Time>2019-08-02T08:12:16.000Z</Time>
            <Position>
              <LatitudeDegrees>40.78016563318669795989990234375</LatitudeDegrees>
              <LongitudeDegrees>-4.0607585012912750244140625</LongitudeDegrees>
            </Position>
            <AltitudeMeters>1551.800048828125</AltitudeMeters>
            <DistanceMeters>78285.630368047</DistanceMeters>
          </Trackpoint>
          <Trackpoint>
            <Time>2019-08-02T08:12:24.000Z</Time>
            <Position>
              <LatitudeDegrees>40.7800488732755184173583984375</LatitudeDegrees>
              <LongitudeDegrees>-4.06084123067557811737060546875</LongitudeDegrees>
            </Position>
            <AltitudeMeters>1552</AltitudeMeters>
            <DistanceMeters>78300.378195726</DistanceMeters>
          </Trackpoint>
          <Trackpoint>
            <Time>2019-08-02T08:12:30.000Z</Time>
            <Position>
              <LatitudeDegrees>40.779960192739963531494140625</LatitudeDegrees>
              <LongitudeDegrees>-4.0608872473239898681640625</LongitudeDegrees>
            </Position>
            <AltitudeMeters>1551.800048828125</AltitudeMeters>
            <DistanceMeters>78310.983364376</DistanceMeters>
          </Trackpoint>
          <Trackpoint>
            <Time>2019-08-02T08:13:04.000Z</Time>
            <Position>
              <LatitudeDegrees>40.7794155366718769073486328125</LatitudeDegrees>
              <LongitudeDegrees>-4.0609065257012844085693359375</LongitudeDegrees>
            </Position>
            <AltitudeMeters>1551.5999755859375</AltitudeMeters>
            <DistanceMeters>78371.626417585</DistanceMeters>
          </Trackpoint>
          <Trackpoint>
            <Time>2019-08-02T08:13:06.000Z</Time>
            <Position>
              <LatitudeDegrees>40.779383517801761627197265625</LatitudeDegrees>
              <LongitudeDegrees>-4.0609092079102993011474609375</LongitudeDegrees>
            </Position>
            <AltitudeMeters>1551.800048828125</AltitudeMeters>
            <DistanceMeters>78375.197197324</DistanceMeters>
          </Trackpoint>
          <Trackpoint>
            <Time>2019-08-02T08:13:38.000Z</Time>
            <Position>
              <LatitudeDegrees>40.7788435555994510650634765625</LatitudeDegrees>
              <LongitudeDegrees>-4.06107458285987377166748046875</LongitudeDegrees>
            </Position>
            <AltitudeMeters>1553.4000244140625</AltitudeMeters>
            <DistanceMeters>78436.891054966</DistanceMeters>
          </Trackpoint>
          <Trackpoint>
            <Time>2019-08-02T08:13:40.000Z</Time>
            <Position>
              <LatitudeDegrees>40.77880810014903545379638671875</LatitudeDegrees>
              <LongitudeDegrees>-4.0610858984291553497314453125</LongitudeDegrees>
            </Position>
            <AltitudeMeters>1553.5999755859375</AltitudeMeters>
            <DistanceMeters>78440.951710035</DistanceMeters>
          </Trackpoint>
          <Trackpoint>
            <Time>2019-08-02T08:14:01.000Z</Time>
            <Position>
              <LatitudeDegrees>40.77849478460848331451416015625</LatitudeDegrees>
              <LongitudeDegrees>-4.0610159933567047119140625</LongitudeDegrees>
            </Position>
            <AltitudeMeters>1554.5999755859375</AltitudeMeters>
            <DistanceMeters>78476.31850334</DistanceMeters>
          </Trackpoint>
          <Trackpoint>
            <Time>2019-08-02T08:14:14.000Z</Time>
            <Position>
              <LatitudeDegrees>40.77829294838011264801025390625</LatitudeDegrees>
              <LongitudeDegrees>-4.06089453957974910736083984375</LongitudeDegrees>
            </Position>
            <AltitudeMeters>1555.5999755859375</AltitudeMeters>
            <DistanceMeters>78501.00570487</DistanceMeters>
          </Trackpoint>
          <Trackpoint>
            <Time>2019-08-02T08:14:24.000Z</Time>
            <Position>
              <LatitudeDegrees>40.778152383863925933837890625</LatitudeDegrees>
              <LongitudeDegrees>-4.060774259269237518310546875</LongitudeDegrees>
            </Position>
            <AltitudeMeters>1556.5999755859375</AltitudeMeters>
            <DistanceMeters>78519.647902219</DistanceMeters>
          </Trackpoint>
          <Trackpoint>
            <Time>2019-08-02T08:14:27.000Z</Time>
            <Position>
              <LatitudeDegrees>40.7781079597771167755126953125</LatitudeDegrees>
              <LongitudeDegrees>-4.0607362054288387298583984375</LongitudeDegrees>
            </Position>
            <AltitudeMeters>1556.800048828125</AltitudeMeters>
            <DistanceMeters>78525.541091</DistanceMeters>
          </Trackpoint>
          <Trackpoint>
            <Time>2019-08-02T08:14:46.000Z</Time>
            <Position>
              <LatitudeDegrees>40.77784284017980098724365234375</LatitudeDegrees>
              <LongitudeDegrees>-4.06052623875439167022705078125</LongitudeDegrees>
            </Position>
            <AltitudeMeters>1557.5999755859375</AltitudeMeters>
            <DistanceMeters>78559.949160728</DistanceMeters>
          </Trackpoint>
          <Trackpoint>
            <Time>2019-08-02T08:15:00.000Z</Time>
            <Position>
              <LatitudeDegrees>40.77764117158949375152587890625</LatitudeDegrees>
              <LongitudeDegrees>-4.06040386296808719635009765625</LongitudeDegrees>
            </Position>
            <AltitudeMeters>1559</AltitudeMeters>
            <DistanceMeters>78584.65153745</DistanceMeters>
          </Trackpoint>
          <Trackpoint>
            <Time>2019-08-02T08:15:14.000Z</Time>
            <Position>
              <LatitudeDegrees>40.77744604088366031646728515625</LatitudeDegrees>
              <LongitudeDegrees>-4.06026522628962993621826171875</LongitudeDegrees>
            </Position>
            <AltitudeMeters>1560.199951171875</AltitudeMeters>
            <DistanceMeters>78609.313670344</DistanceMeters>
          </Trackpoint>
          <Trackpoint>
            <Time>2019-08-02T08:15:36.000Z</Time>
            <Position>
              <LatitudeDegrees>40.777126438915729522705078125</LatitudeDegrees>
              <LongitudeDegrees>-4.060017205774784088134765625</LongitudeDegrees>
            </Position>
            <AltitudeMeters>1561.4000244140625</AltitudeMeters>
            <DistanceMeters>78650.57343369</DistanceMeters>
          </Trackpoint>
          <Trackpoint>
            <Time>2019-08-02T08:16:07.000Z</Time>
            <Position>
              <LatitudeDegrees>40.7767370156943798065185546875</LatitudeDegrees>
              <LongitudeDegrees>-4.05964731238782405853271484375</LongitudeDegrees>
            </Position>
            <AltitudeMeters>1562.800048828125</AltitudeMeters>
            <DistanceMeters>78703.964580258</DistanceMeters>
          </Trackpoint>
          <Trackpoint>
            <Time>2019-08-02T08:16:26.000Z</Time>
            <Position>
              <LatitudeDegrees>40.77659963630139827728271484375</LatitudeDegrees>
              <LongitudeDegrees>-4.0593783371150493621826171875</LongitudeDegrees>
            </Position>
            <AltitudeMeters>1564</AltitudeMeters>
            <DistanceMeters>78731.309662815</DistanceMeters>
          </Trackpoint>
          <Trackpoint>
            <Time>2019-08-02T08:16:34.000Z</Time>
            <Position>
              <LatitudeDegrees>40.77654473483562469482421875</LatitudeDegrees>
              <LongitudeDegrees>-4.05928035266697406768798828125</LongitudeDegrees>
            </Position>
            <AltitudeMeters>1565</AltitudeMeters>
            <DistanceMeters>78741.583101066</DistanceMeters>
          </Trackpoint>
          <Trackpoint>
            <Time>2019-08-02T08:16:40.000Z</Time>
            <Position>
              <LatitudeDegrees>40.77650743536651134490966796875</LatitudeDegrees>
              <LongitudeDegrees>-4.0592108666896820068359375</LongitudeDegrees>
            </Position>
            <AltitudeMeters>1565.4000244140625</AltitudeMeters>
            <DistanceMeters>78748.762493543</DistanceMeters>
          </Trackpoint>
          <Trackpoint>
            <Time>2019-08-02T08:16:45.000Z</Time>
            <Position>
              <LatitudeDegrees>40.77648765407502651214599609375</LatitudeDegrees>
              <LongitudeDegrees>-4.059146828949451446533203125</LongitudeDegrees>
            </Position>
            <AltitudeMeters>1564.5999755859375</AltitudeMeters>
            <DistanceMeters>78754.591745438</DistanceMeters>
          </Trackpoint>
          <Trackpoint>
            <Time>2019-08-02T08:16:49.000Z</Time>
            <Position>
              <LatitudeDegrees>40.776479355990886688232421875</LatitudeDegrees>
              <LongitudeDegrees>-4.05909846536815166473388671875</LongitudeDegrees>
            </Position>
            <AltitudeMeters>1563.800048828125</AltitudeMeters>
            <DistanceMeters>78758.770760614</DistanceMeters>
          </Trackpoint>
          <Trackpoint>
            <Time>2019-08-02T08:16:54.000Z</Time>
            <Position>
              <LatitudeDegrees>40.77646368183195590972900390625</LatitudeDegrees>
              <LongitudeDegrees>-4.05901975929737091064453125</LongitudeDegrees>
            </Position>
            <AltitudeMeters>1562.5999755859375</AltitudeMeters>
            <DistanceMeters>78765.629820191</DistanceMeters>
          </Trackpoint>
          <Trackpoint>
            <Time>2019-08-02T08:17:01.000Z</Time>
            <Position>
              <LatitudeDegrees>40.77645328827202320098876953125</LatitudeDegrees>
              <LongitudeDegrees>-4.0588844753801822662353515625</LongitudeDegrees>
            </Position>
            <AltitudeMeters>1562</AltitudeMeters>
            <DistanceMeters>78777.090688044</DistanceMeters>
          </Trackpoint>
          <Trackpoint>
            <Time>2019-08-02T08:17:04.000Z</Time>
            <Position>
              <LatitudeDegrees>40.776449851691722869873046875</LatitudeDegrees>
              <LongitudeDegrees>-4.05883443541824817657470703125</LongitudeDegrees>
            </Position>
            <AltitudeMeters>1561.4000244140625</AltitudeMeters>
            <DistanceMeters>78781.326577785</DistanceMeters>
          </Trackpoint>
          <Trackpoint>
            <Time>2019-08-02T08:17:22.000Z</Time>
            <Position>
              <LatitudeDegrees>40.77643099240958690643310546875</LatitudeDegrees>
              <LongitudeDegrees>-4.05858297832310199737548828125</LongitudeDegrees>
            </Position>
            <AltitudeMeters>1561.199951171875</AltitudeMeters>
            <DistanceMeters>78802.62443683</DistanceMeters>
          </Trackpoint>
          <Trackpoint>
            <Time>2019-08-02T08:17:32.000Z</Time>
            <Position>
              <LatitudeDegrees>40.776419006288051605224609375</LatitudeDegrees>
              <LongitudeDegrees>-4.058425314724445343017578125</LongitudeDegrees>
            </Position>
            <AltitudeMeters>1562.199951171875</AltitudeMeters>
            <DistanceMeters>78815.980001214</DistanceMeters>
          </Trackpoint>
          <Trackpoint>
            <Time>2019-08-02T08:17:33.000Z</Time>
            <Position>
              <LatitudeDegrees>40.7764112949371337890625</LatitudeDegrees>
              <LongitudeDegrees>-4.058407209813594818115234375</LongitudeDegrees>
            </Position>
            <AltitudeMeters>1562.4000244140625</AltitudeMeters>
            <DistanceMeters>78817.732207249</DistanceMeters>
          </Trackpoint>
          <Trackpoint>
            <Time>2019-08-02T08:17:36.000Z</Time>
            <Position>
              <LatitudeDegrees>40.77638422138988971710205078125</LatitudeDegrees>
              <LongitudeDegrees>-4.05836655758321285247802734375</LongitudeDegrees>
            </Position>
            <AltitudeMeters>1562.800048828125</AltitudeMeters>
            <DistanceMeters>78822.294479293</DistanceMeters>
          </Trackpoint>
          <Trackpoint>
            <Time>2019-08-02T08:17:41.000Z</Time>
            <Position>
              <LatitudeDegrees>40.77633527107536792755126953125</LatitudeDegrees>
              <LongitudeDegrees>-4.0582927130162715911865234375</LongitudeDegrees>
            </Position>
            <AltitudeMeters>1563.5999755859375</AltitudeMeters>
            <DistanceMeters>78830.565625474</DistanceMeters>
          </Trackpoint>
          <Trackpoint>
            <Time>2019-08-02T08:17:44.000Z</Time>
            <Position>
              <LatitudeDegrees>40.77630710788071155548095703125</LatitudeDegrees>
              <LongitudeDegrees>-4.05825256370007991790771484375</LongitudeDegrees>
            </Position>
            <AltitudeMeters>1563.800048828125</AltitudeMeters>
            <DistanceMeters>78835.178093371</DistanceMeters>
          </Trackpoint>
          <Trackpoint>
            <Time>2019-08-02T08:17:49.000Z</Time>
            <Position>
              <LatitudeDegrees>40.7762441597878932952880859375</LatitudeDegrees>
              <LongitudeDegrees>-4.0581995062530040740966796875</LongitudeDegrees>
            </Position>
            <AltitudeMeters>1564.5999755859375</AltitudeMeters>
            <DistanceMeters>78843.490622766</DistanceMeters>
          </Trackpoint>
          <Trackpoint>
            <Time>2019-08-02T08:17:58.000Z</Time>
            <Position>
              <LatitudeDegrees>40.77614265494048595428466796875</LatitudeDegrees>
              <LongitudeDegrees>-4.05812582932412624359130859375</LongitudeDegrees>
            </Position>
            <AltitudeMeters>1565.800048828125</AltitudeMeters>
            <DistanceMeters>78856.382774915</DistanceMeters>
          </Trackpoint>
          <Trackpoint>
            <Time>2019-08-02T08:18:06.000Z</Time>
            <Position>
              <LatitudeDegrees>40.77605162747204303741455078125</LatitudeDegrees>
              <LongitudeDegrees>-4.0580764599144458770751953125</LongitudeDegrees>
            </Position>
            <AltitudeMeters>1566.800048828125</AltitudeMeters>
            <DistanceMeters>78867.33602081</DistanceMeters>
          </Trackpoint>
          <Trackpoint>
            <Time>2019-08-02T08:18:12.000Z</Time>
            <Position>
              <LatitudeDegrees>40.77595867216587066650390625</LatitudeDegrees>
              <LongitudeDegrees>-4.05805944465100765228271484375</LongitudeDegrees>
            </Position>
            <AltitudeMeters>1568</AltitudeMeters>
            <DistanceMeters>78877.781613836</DistanceMeters>
          </Trackpoint>
          <Trackpoint>
            <Time>2019-08-02T08:18:19.000Z</Time>
            <Position>
              <LatitudeDegrees>40.77585364691913127899169921875</LatitudeDegrees>
              <LongitudeDegrees>-4.05807562172412872314453125</LongitudeDegrees>
            </Position>
            <AltitudeMeters>1569.199951171875</AltitudeMeters>
            <DistanceMeters>78889.550356866</DistanceMeters>
          </Trackpoint>
          <Trackpoint>
            <Time>2019-08-02T08:18:22.000Z</Time>
            <Position>
              <LatitudeDegrees>40.77580871991813182830810546875</LatitudeDegrees>
              <LongitudeDegrees>-4.05807285569608211517333984375</LongitudeDegrees>
            </Position>
            <AltitudeMeters>1569.4000244140625</AltitudeMeters>
            <DistanceMeters>78894.557101538</DistanceMeters>
          </Trackpoint>
          <Trackpoint>
            <Time>2019-08-02T08:18:27.000Z</Time>
            <Position>
              <LatitudeDegrees>40.7757447659969329833984375</LatitudeDegrees>
              <LongitudeDegrees>-4.0580918826162815093994140625</LongitudeDegrees>
            </Position>
            <AltitudeMeters>1570.199951171875</AltitudeMeters>
            <DistanceMeters>78901.853767263</DistanceMeters>
          </Trackpoint>
          <Trackpoint>
            <Time>2019-08-02T08:18:29.000Z</Time>
            <Position>
              <LatitudeDegrees>40.77571936883032321929931640625</LatitudeDegrees>
              <LongitudeDegrees>-4.05809833668172359466552734375</LongitudeDegrees>
            </Position>
            <AltitudeMeters>1570.4000244140625</AltitudeMeters>
            <DistanceMeters>78904.732935577</DistanceMeters>
          </Trackpoint>
          <Trackpoint>
            <Time>2019-08-02T08:18:38.000Z</Time>
            <Position>
              <LatitudeDegrees>40.77559665776789188385009765625</LatitudeDegrees>
              <LongitudeDegrees>-4.0581002645194530487060546875</LongitudeDegrees>
            </Position>
            <AltitudeMeters>1571.4000244140625</AltitudeMeters>
            <DistanceMeters>78918.392013489</DistanceMeters>
          </Trackpoint>
          <Trackpoint>
            <Time>2019-08-02T08:18:49.000Z</Time>
            <Position>
              <LatitudeDegrees>40.77543622814118862152099609375</LatitudeDegrees>
              <LongitudeDegrees>-4.05810085125267505645751953125</LongitudeDegrees>
            </Position>
            <AltitudeMeters>1572.4000244140625</AltitudeMeters>
            <DistanceMeters>78936.248188028</DistanceMeters>
          </Trackpoint>
          <Trackpoint>
            <Time>2019-08-02T08:18:58.000Z</Time>
            <Position>
              <LatitudeDegrees>40.7753184624016284942626953125</LatitudeDegrees>
              <LongitudeDegrees>-4.05809967778623104095458984375</LongitudeDegrees>
            </Position>
            <AltitudeMeters>1573.5999755859375</AltitudeMeters>
            <DistanceMeters>78949.355675751</DistanceMeters>
          </Trackpoint>
          <Trackpoint>
            <Time>2019-08-02T08:19:18.000Z</Time>
            <Position>
              <LatitudeDegrees>40.77501830644905567169189453125</LatitudeDegrees>
              <LongitudeDegrees>-4.058182239532470703125</LongitudeDegrees>
            </Position>
            <AltitudeMeters>1574.800048828125</AltitudeMeters>
            <DistanceMeters>78983.480720194</DistanceMeters>
          </Trackpoint>
          <Trackpoint>
            <Time>2019-08-02T08:19:37.000Z</Time>
            <Position>
              <LatitudeDegrees>40.77471672557294368743896484375</LatitudeDegrees>
              <LongitudeDegrees>-4.05822574160993099212646484375</LongitudeDegrees>
            </Position>
            <AltitudeMeters>1575.800048828125</AltitudeMeters>
            <DistanceMeters>79017.247176509</DistanceMeters>
          </Trackpoint>
          <Trackpoint>
            <Time>2019-08-02T08:19:38.000Z</Time>
            <Position>
              <LatitudeDegrees>40.774700380861759185791015625</LatitudeDegrees>
              <LongitudeDegrees>-4.0582211315631866455078125</LongitudeDegrees>
            </Position>
            <AltitudeMeters>1576</AltitudeMeters>
            <DistanceMeters>79019.10688597</DistanceMeters>
          </Trackpoint>
          <Trackpoint>
            <Time>2019-08-02T08:19:58.000Z</Time>
            <Position>
              <LatitudeDegrees>40.77439486049115657806396484375</LatitudeDegrees>
              <LongitudeDegrees>-4.0581297688186168670654296875</LongitudeDegrees>
            </Position>
            <AltitudeMeters>1577</AltitudeMeters>
            <DistanceMeters>79053.973014964</DistanceMeters>
          </Trackpoint>
          <Trackpoint>
            <Time>2019-08-02T08:20:14.000Z</Time>
            <Position>
              <LatitudeDegrees>40.77416134066879749298095703125</LatitudeDegrees>
              <LongitudeDegrees>-4.0580432675778865814208984375</LongitudeDegrees>
            </Position>
            <AltitudeMeters>1576</AltitudeMeters>
            <DistanceMeters>79080.967627554</DistanceMeters>
          </Trackpoint>
          <Trackpoint>
            <Time>2019-08-02T08:20:17.000Z</Time>
            <Position>
              <LatitudeDegrees>40.77411540783941745758056640625</LatitudeDegrees>
              <LongitudeDegrees>-4.05802734196186065673828125</LongitudeDegrees>
            </Position>
            <AltitudeMeters>1575.800048828125</AltitudeMeters>
            <DistanceMeters>79086.254222545</DistanceMeters>
          </Trackpoint>
          <Trackpoint>
            <Time>2019-08-02T08:20:22.000Z</Time>
            <Position>
              <LatitudeDegrees>40.77404265291988849639892578125</LatitudeDegrees>
              <LongitudeDegrees>-4.05798283405601978302001953125</LongitudeDegrees>
            </Position>
            <AltitudeMeters>1575</AltitudeMeters>
            <DistanceMeters>79095.178642651</DistanceMeters>
          </Trackpoint>
          <Trackpoint>
            <Time>2019-08-02T08:20:24.000Z</Time>
            <Position>
              <LatitudeDegrees>40.7740065269172191619873046875</LatitudeDegrees>
              <LongitudeDegrees>-4.05795894563198089599609375</LongitudeDegrees>
            </Position>
            <AltitudeMeters>1574.5999755859375</AltitudeMeters>
            <DistanceMeters>79099.676127641</DistanceMeters>
          </Trackpoint>
          <Trackpoint>
            <Time>2019-08-02T08:20:28.000Z</Time>
            <Position>
              <LatitudeDegrees>40.77394299209117889404296875</LatitudeDegrees>
              <LongitudeDegrees>-4.05792483128607273101806640625</LongitudeDegrees>
            </Position>
            <AltitudeMeters>1573.4000244140625</AltitudeMeters>
            <DistanceMeters>79107.31026894</DistanceMeters>
          </Trackpoint>
          <Trackpoint>
            <Time>2019-08-02T08:20:50.000Z</Time>
            <Position>
              <LatitudeDegrees>40.77372598461806774139404296875</LatitudeDegrees>
              <LongitudeDegrees>-4.05757270753383636474609375</LongitudeDegrees>
            </Position>
            <AltitudeMeters>1572.4000244140625</AltitudeMeters>
            <DistanceMeters>79145.57619472</DistanceMeters>
          </Trackpoint>
          <Trackpoint>
            <Time>2019-08-02T08:21:00.000Z</Time>
            <Position>
              <LatitudeDegrees>40.77368223108351230621337890625</LatitudeDegrees>
              <LongitudeDegrees>-4.05738495290279388427734375</LongitudeDegrees>
            </Position>
            <AltitudeMeters>1571</AltitudeMeters>
            <DistanceMeters>79162.134309981</DistanceMeters>
          </Trackpoint>
          <Trackpoint>
            <Time>2019-08-02T08:21:10.000Z</Time>
            <Position>
              <LatitudeDegrees>40.77363261021673679351806640625</LatitudeDegrees>
              <LongitudeDegrees>-4.0572272054851055145263671875</LongitudeDegrees>
            </Position>
            <AltitudeMeters>1570</AltitudeMeters>
            <DistanceMeters>79176.532033234</DistanceMeters>
          </Trackpoint>
          <Trackpoint>
            <Time>2019-08-02T08:21:11.000Z</Time>
            <Position>
              <LatitudeDegrees>40.77362917363643646240234375</LatitudeDegrees>
              <LongitudeDegrees>-4.057209603488445281982421875</LongitudeDegrees>
            </Position>
            <AltitudeMeters>1570</AltitudeMeters>
            <DistanceMeters>79178.064292962</DistanceMeters>
          </Trackpoint>
          <Trackpoint>
            <Time>2019-08-02T08:21:16.000Z</Time>
            <Position>
              <LatitudeDegrees>40.773619450628757476806640625</LatitudeDegrees>
              <LongitudeDegrees>-4.057106338441371917724609375</LongitudeDegrees>
            </Position>
            <AltitudeMeters>1569</AltitudeMeters>
            <DistanceMeters>79186.835624178</DistanceMeters>
          </Trackpoint>
          <Trackpoint>
            <Time>2019-08-02T08:21:28.000Z</Time>
            <Position>
              <LatitudeDegrees>40.77357041649520397186279296875</LatitudeDegrees>
              <LongitudeDegrees>-4.05689452774822711944580078125</LongitudeDegrees>
            </Position>
            <AltitudeMeters>1568</AltitudeMeters>
            <DistanceMeters>79205.504443917</DistanceMeters>
          </Trackpoint>
          <Trackpoint>
            <Time>2019-08-02T08:21:29.000Z</Time>
            <Position>
              <LatitudeDegrees>40.773571170866489410400390625</LatitudeDegrees>
              <LongitudeDegrees>-4.05687172897160053253173828125</LongitudeDegrees>
            </Position>
            <AltitudeMeters>1567.800048828125</AltitudeMeters>
            <DistanceMeters>79207.428588231</DistanceMeters>
          </Trackpoint>
          <Trackpoint>
            <Time>2019-08-02T08:21:38.000Z</Time>
            <Position>
              <LatitudeDegrees>40.77354594133794307708740234375</LatitudeDegrees>
              <LongitudeDegrees>-4.05668883584439754486083984375</LongitudeDegrees>
            </Position>
            <AltitudeMeters>1567.4000244140625</AltitudeMeters>
            <DistanceMeters>79223.09791427</DistanceMeters>
          </Trackpoint>
          <Trackpoint>
            <Time>2019-08-02T08:21:41.000Z</Time>
            <Position>
              <LatitudeDegrees>40.7735346257686614990234375</LatitudeDegrees>
              <LongitudeDegrees>-4.0566391311585903167724609375</LongitudeDegrees>
            </Position>
            <AltitudeMeters>1567</AltitudeMeters>
            <DistanceMeters>79227.47224073</DistanceMeters>
          </Trackpoint>
          <Trackpoint>
            <Time>2019-08-02T08:21:51.000Z</Time>
            <Position>
              <LatitudeDegrees>40.7735059596598148345947265625</LatitudeDegrees>
              <LongitudeDegrees>-4.0564550645649433135986328125</LongitudeDegrees>
            </Position>
            <AltitudeMeters>1567.800048828125</AltitudeMeters>
            <DistanceMeters>79243.311515141</DistanceMeters>
          </Trackpoint>
          <Trackpoint>
            <Time>2019-08-02T08:21:59.000Z</Time>
            <Position>
              <LatitudeDegrees>40.77343630604445934295654296875</LatitudeDegrees>
              <LongitudeDegrees>-4.056308381259441375732421875</LongitudeDegrees>
            </Position>
            <AltitudeMeters>1568.5999755859375</AltitudeMeters>
            <DistanceMeters>79257.904846592</DistanceMeters>
          </Trackpoint>
          <Trackpoint>
            <Time>2019-08-02T08:22:06.000Z</Time>
            <Position>
              <LatitudeDegrees>40.77338400296866893768310546875</LatitudeDegrees>
              <LongitudeDegrees>-4.056168906390666961669921875</LongitudeDegrees>
            </Position>
            <AltitudeMeters>1569.800048828125</AltitudeMeters>
            <DistanceMeters>79271.023352485</DistanceMeters>
          </Trackpoint>
          <Trackpoint>
            <Time>2019-08-02T08:22:11.000Z</Time>
            <Position>
              <LatitudeDegrees>40.7733416743576526641845703125</LatitudeDegrees>
              <LongitudeDegrees>-4.0560735203325748443603515625</LongitudeDegrees>
            </Position>
            <AltitudeMeters>1570.5999755859375</AltitudeMeters>
            <DistanceMeters>79280.341786639</DistanceMeters>
          </Trackpoint>
          <Trackpoint>
            <Time>2019-08-02T08:22:19.000Z</Time>
            <Position>
              <LatitudeDegrees>40.77326497994363307952880859375</LatitudeDegrees>
              <LongitudeDegrees>-4.055938906967639923095703125</LongitudeDegrees>
            </Position>
            <AltitudeMeters>1571.5999755859375</AltitudeMeters>
            <DistanceMeters>79294.541207291</DistanceMeters>
          </Trackpoint>
          <Trackpoint>
            <Time>2019-08-02T08:22:22.000Z</Time>
            <Position>
              <LatitudeDegrees>40.7732360623776912689208984375</LatitudeDegrees>
              <LongitudeDegrees>-4.05589490197598934173583984375</LongitudeDegrees>
            </Position>
            <AltitudeMeters>1572</AltitudeMeters>
            <DistanceMeters>79299.452351168</DistanceMeters>
          </Trackpoint>
          <Trackpoint>
            <Time>2019-08-02T08:22:26.000Z</Time>
            <Position>
              <LatitudeDegrees>40.77319356612861156463623046875</LatitudeDegrees>
              <LongitudeDegrees>-4.0558398328721523284912109375</LongitudeDegrees>
            </Position>
            <AltitudeMeters>1572.5999755859375</AltitudeMeters>
            <DistanceMeters>79306.079740686</DistanceMeters>
          </Trackpoint>
          <Trackpoint>
            <Time>2019-08-02T08:22:31.000Z</Time>
            <Position>
              <LatitudeDegrees>40.77314210124313831329345703125</LatitudeDegrees>
              <LongitudeDegrees>-4.0557749569416046142578125</LongitudeDegrees>
            </Position>
            <AltitudeMeters>1573</AltitudeMeters>
            <DistanceMeters>79313.9989503</DistanceMeters>
          </Trackpoint>
          <Trackpoint>
            <Time>2019-08-02T08:22:34.000Z</Time>
            <Position>
              <LatitudeDegrees>40.7731130160391330718994140625</LatitudeDegrees>
              <LongitudeDegrees>-4.0557244978845119476318359375</LongitudeDegrees>
            </Position>
            <AltitudeMeters>1573.4000244140625</AltitudeMeters>
            <DistanceMeters>79319.34415019</DistanceMeters>
          </Trackpoint>
          <Trackpoint>
            <Time>2019-08-02T08:22:40.000Z</Time>
            <Position>
              <LatitudeDegrees>40.7730489782989025115966796875</LatitudeDegrees>
              <LongitudeDegrees>-4.05563824810087680816650390625</LongitudeDegrees>
            </Position>
            <AltitudeMeters>1574.4000244140625</AltitudeMeters>
            <DistanceMeters>79329.525321415</DistanceMeters>
          </Trackpoint>
          <Trackpoint>
            <Time>2019-08-02T08:22:44.000Z</Time>
            <Position>
              <LatitudeDegrees>40.77301134355366230010986328125</LatitudeDegrees>
              <LongitudeDegrees>-4.05558980070054531097412109375</LongitudeDegrees>
            </Position>
            <AltitudeMeters>1575.199951171875</AltitudeMeters>
            <DistanceMeters>79335.37544874</DistanceMeters>
          </Trackpoint>
          <Trackpoint>
            <Time>2019-08-02T08:22:50.000Z</Time>
            <Position>
              <LatitudeDegrees>40.7729654945433139801025390625</LatitudeDegrees>
              <LongitudeDegrees>-4.055511094629764556884765625</LongitudeDegrees>
            </Position>
            <AltitudeMeters>1576.199951171875</AltitudeMeters>
            <DistanceMeters>79343.745355134</DistanceMeters>
          </Trackpoint>
          <Trackpoint>
            <Time>2019-08-02T08:22:59.000Z</Time>
            <Position>
              <LatitudeDegrees>40.77289265580475330352783203125</LatitudeDegrees>
              <LongitudeDegrees>-4.0553875453770160675048828125</LongitudeDegrees>
            </Position>
            <AltitudeMeters>1577.199951171875</AltitudeMeters>
            <DistanceMeters>79356.942783462</DistanceMeters>
          </Trackpoint>
          <Trackpoint>
            <Time>2019-08-02T08:23:04.000Z</Time>
            <Position>
              <LatitudeDegrees>40.77286876738071441650390625</LatitudeDegrees>
              <LongitudeDegrees>-4.0553162992000579833984375</LongitudeDegrees>
            </Position>
            <AltitudeMeters>1578.199951171875</AltitudeMeters>
            <DistanceMeters>79363.509947621</DistanceMeters>
          </Trackpoint>
          <Trackpoint>
            <Time>2019-08-02T08:23:42.000Z</Time>
            <Position>
              <LatitudeDegrees>40.772732309997081756591796875</LatitudeDegrees>
              <LongitudeDegrees>-4.05462068505585193634033203125</LongitudeDegrees>
            </Position>
            <AltitudeMeters>1579</AltitudeMeters>
            <DistanceMeters>79424.078204206</DistanceMeters>
          </Trackpoint>
          <Trackpoint>
            <Time>2019-08-02T08:23:43.000Z</Time>
            <Position>
              <LatitudeDegrees>40.77272401191294193267822265625</LatitudeDegrees>
              <LongitudeDegrees>-4.0546060167253017425537109375</LongitudeDegrees>
            </Position>
            <AltitudeMeters>1579</AltitudeMeters>
            <DistanceMeters>79425.62220556</DistanceMeters>
          </Trackpoint>
          <Trackpoint>
            <Time>2019-08-02T08:23:47.000Z</Time>
            <Position>
              <LatitudeDegrees>40.77269903384149074554443359375</LatitudeDegrees>
              <LongitudeDegrees>-4.05454122461378574371337890625</LongitudeDegrees>
            </Position>
            <AltitudeMeters>1580.199951171875</AltitudeMeters>
            <DistanceMeters>79431.74977097</DistanceMeters>
          </Trackpoint>
          <Trackpoint>
            <Time>2019-08-02T08:23:52.000Z</Time>
            <Position>
              <LatitudeDegrees>40.77264103107154369354248046875</LatitudeDegrees>
              <LongitudeDegrees>-4.05447668395936489105224609375</LongitudeDegrees>
            </Position>
            <AltitudeMeters>1581.199951171875</AltitudeMeters>
            <DistanceMeters>79440.19272208</DistanceMeters>
          </Trackpoint>
          <Trackpoint>
            <Time>2019-08-02T08:23:58.000Z</Time>
            <Position>
              <LatitudeDegrees>40.77256970107555389404296875</LatitudeDegrees>
              <LongitudeDegrees>-4.05440107919275760650634765625</LongitudeDegrees>
            </Position>
            <AltitudeMeters>1582.4000244140625</AltitudeMeters>
            <DistanceMeters>79450.373449826</DistanceMeters>
          </Trackpoint>
          <Trackpoint>
            <Time>2019-08-02T08:24:03.000Z</Time>
            <Position>
              <LatitudeDegrees>40.77250172384083271026611328125</LatitudeDegrees>
              <LongitudeDegrees>-4.0543453395366668701171875</LongitudeDegrees>
            </Position>
            <AltitudeMeters>1583.4000244140625</AltitudeMeters>
            <DistanceMeters>79459.279131237</DistanceMeters>
          </Trackpoint>
          <Trackpoint>
            <Time>2019-08-02T08:24:10.000Z</Time>
            <Position>
              <LatitudeDegrees>40.77240935526788234710693359375</LatitudeDegrees>
              <LongitudeDegrees>-4.054271243512630462646484375</LongitudeDegrees>
            </Position>
            <AltitudeMeters>1584.5999755859375</AltitudeMeters>
            <DistanceMeters>79471.308177124</DistanceMeters>
          </Trackpoint>
          <Trackpoint>
            <Time>2019-08-02T08:24:15.000Z</Time>
            <Position>
              <LatitudeDegrees>40.7723442278802394866943359375</LatitudeDegrees>
              <LongitudeDegrees>-4.05422958545386791229248046875</LongitudeDegrees>
            </Position>
            <AltitudeMeters>1585.800048828125</AltitudeMeters>
            <DistanceMeters>79479.362497031</DistanceMeters>
          </Trackpoint>
          <Trackpoint>
            <Time>2019-08-02T08:24:20.000Z</Time>
            <Position>
              <LatitudeDegrees>40.77227725647389888763427734375</LatitudeDegrees>
              <LongitudeDegrees>-4.05418868176639080047607421875</LongitudeDegrees>
            </Position>
            <AltitudeMeters>1586.5999755859375</AltitudeMeters>
            <DistanceMeters>79487.575576298</DistanceMeters>
          </Trackpoint>
          <Trackpoint>
            <Time>2019-08-02T08:24:24.000Z</Time>
            <Position>
              <LatitudeDegrees>40.77222797088325023651123046875</LatitudeDegrees>
              <LongitudeDegrees>-4.0541802160441875457763671875</LongitudeDegrees>
            </Position>
            <AltitudeMeters>1587.199951171875</AltitudeMeters>
            <DistanceMeters>79493.108383826</DistanceMeters>
          </Trackpoint>
          <Trackpoint>
            <Time>2019-08-02T08:24:27.000Z</Time>
            <Position>
              <LatitudeDegrees>40.77219150960445404052734375</LatitudeDegrees>
              <LongitudeDegrees>-4.05416403897106647491455078125</LongitudeDegrees>
            </Position>
            <AltitudeMeters>1587.800048828125</AltitudeMeters>
            <DistanceMeters>79497.38986198</DistanceMeters>
          </Trackpoint>
          <Trackpoint>
            <Time>2019-08-02T08:24:33.000Z</Time>
            <Position>
              <LatitudeDegrees>40.77210836112499237060546875</LatitudeDegrees>
              <LongitudeDegrees>-4.05413067899644374847412109375</LongitudeDegrees>
            </Position>
            <AltitudeMeters>1588.5999755859375</AltitudeMeters>
            <DistanceMeters>79507.062535966</DistanceMeters>
          </Trackpoint>
          <Trackpoint>
            <Time>2019-08-02T08:24:35.000Z</Time>
            <Position>
              <LatitudeDegrees>40.77208179049193859100341796875</LatitudeDegrees>
              <LongitudeDegrees>-4.05412430875003337860107421875</LongitudeDegrees>
            </Position>
            <AltitudeMeters>1588.800048828125</AltitudeMeters>
            <DistanceMeters>79510.069046654</DistanceMeters>
          </Trackpoint>
          <Trackpoint>
            <Time>2019-08-02T08:24:40.000Z</Time>
            <Position>
              <LatitudeDegrees>40.772006101906299591064453125</LatitudeDegrees>
              <LongitudeDegrees>-4.05408692546188831329345703125</LongitudeDegrees>
            </Position>
            <AltitudeMeters>1589.800048828125</AltitudeMeters>
            <DistanceMeters>79519.063514668</DistanceMeters>
          </Trackpoint>
          <Trackpoint>
            <Time>2019-08-02T08:24:51.000Z</Time>
            <Position>
              <LatitudeDegrees>40.77186251990497112274169921875</LatitudeDegrees>
              <LongitudeDegrees>-4.053973518311977386474609375</LongitudeDegrees>
            </Position>
            <AltitudeMeters>1590.800048828125</AltitudeMeters>
            <DistanceMeters>79537.685114104</DistanceMeters>
          </Trackpoint>
          <Trackpoint>
            <Time>2019-08-02T08:24:57.000Z</Time>
            <Position>
              <LatitudeDegrees>40.7717863284051418304443359375</LatitudeDegrees>
              <LongitudeDegrees>-4.0539056248962879180908203125</LongitudeDegrees>
            </Position>
            <AltitudeMeters>1592</AltitudeMeters>
            <DistanceMeters>79547.916274651</DistanceMeters>
          </Trackpoint>
          <Trackpoint>
            <Time>2019-08-02T08:25:04.000Z</Time>
            <Position>
              <LatitudeDegrees>40.7716971449553966522216796875</LatitudeDegrees>
              <LongitudeDegrees>-4.0538156032562255859375</LongitudeDegrees>
            </Position>
            <AltitudeMeters>1593.199951171875</AltitudeMeters>
            <DistanceMeters>79560.410751893</DistanceMeters>
          </Trackpoint>
          <Trackpoint>
            <Time>2019-08-02T08:25:11.000Z</Time>
            <Position>
              <LatitudeDegrees>40.7716042734682559967041015625</LatitudeDegrees>
              <LongitudeDegrees>-4.05374519526958465576171875</LongitudeDegrees>
            </Position>
            <AltitudeMeters>1594.199951171875</AltitudeMeters>
            <DistanceMeters>79572.329693231</DistanceMeters>
          </Trackpoint>
          <Trackpoint>
            <Time>2019-08-02T08:25:17.000Z</Time>
            <Position>
              <LatitudeDegrees>40.7715271599590778350830078125</LatitudeDegrees>
              <LongitudeDegrees>-4.05370454303920269012451171875</LongitudeDegrees>
            </Position>
            <AltitudeMeters>1595.4000244140625</AltitudeMeters>
            <DistanceMeters>79581.57125495</DistanceMeters>
          </Trackpoint>
          <Trackpoint>
            <Time>2019-08-02T08:25:23.000Z</Time>
            <Position>
              <LatitudeDegrees>40.77143018133938312530517578125</LatitudeDegrees>
              <LongitudeDegrees>-4.05365659855306148529052734375</LongitudeDegrees>
            </Position>
            <AltitudeMeters>1596.4000244140625</AltitudeMeters>
            <DistanceMeters>79593.096549935</DistanceMeters>
          </Trackpoint>
          <Trackpoint>
            <Time>2019-08-02T08:25:30.000Z</Time>
            <Position>
              <LatitudeDegrees>40.7713137567043304443359375</LatitudeDegrees>
              <LongitudeDegrees>-4.05359306372702121734619140625</LongitudeDegrees>
            </Position>
            <AltitudeMeters>1597.800048828125</AltitudeMeters>
            <DistanceMeters>79607.117418816</DistanceMeters>
          </Trackpoint>
          <Trackpoint>
            <Time>2019-08-02T08:25:35.000Z</Time>
            <Position>
              <LatitudeDegrees>40.7712341286242008209228515625</LatitudeDegrees>
              <LongitudeDegrees>-4.0535797365009784698486328125</LongitudeDegrees>
            </Position>
            <AltitudeMeters>1598.800048828125</AltitudeMeters>
            <DistanceMeters>79616.050940832</DistanceMeters>
          </Trackpoint>
          <Trackpoint>
            <Time>2019-08-02T08:25:40.000Z</Time>
            <Position>
              <LatitudeDegrees>40.77116330154240131378173828125</LatitudeDegrees>
              <LongitudeDegrees>-4.0535485558211803436279296875</LongitudeDegrees>
            </Position>
            <AltitudeMeters>1599.5999755859375</AltitudeMeters>
            <DistanceMeters>79624.360210625</DistanceMeters>
          </Trackpoint>
          <Trackpoint>
            <Time>2019-08-02T08:25:42.000Z</Time>
            <Position>
              <LatitudeDegrees>40.771130360662937164306640625</LatitudeDegrees>
              <LongitudeDegrees>-4.053543023765087127685546875</LongitudeDegrees>
            </Position>
            <AltitudeMeters>1600</AltitudeMeters>
            <DistanceMeters>79628.055271597</DistanceMeters>
          </Trackpoint>
          <Trackpoint>
            <Time>2019-08-02T08:25:51.000Z</Time>
            <Position>
              <LatitudeDegrees>40.770987533032894134521484375</LatitudeDegrees>
              <LongitudeDegrees>-4.0535224042832851409912109375</LongitudeDegrees>
            </Position>
            <AltitudeMeters>1601</AltitudeMeters>
            <DistanceMeters>79644.046887053</DistanceMeters>
          </Trackpoint>
          <Trackpoint>
            <Time>2019-08-02T08:25:52.000Z</Time>
            <Position>
              <LatitudeDegrees>40.770973451435565948486328125</LatitudeDegrees>
              <LongitudeDegrees>-4.053518883883953094482421875</LongitudeDegrees>
            </Position>
            <AltitudeMeters>1601.199951171875</AltitudeMeters>
            <DistanceMeters>79645.642656948</DistanceMeters>
          </Trackpoint>
          <Trackpoint>
            <Time>2019-08-02T08:25:59.000Z</Time>
            <Position>
              <LatitudeDegrees>40.7708532549440860748291015625</LatitudeDegrees>
              <LongitudeDegrees>-4.05348711647093296051025390625</LongitudeDegrees>
            </Position>
            <AltitudeMeters>1602</AltitudeMeters>
            <DistanceMeters>79659.286190061</DistanceMeters>
          </Trackpoint>
          <Trackpoint>
            <Time>2019-08-02T08:26:00.000Z</Time>
            <Position>
              <LatitudeDegrees>40.77083297073841094970703125</LatitudeDegrees>
              <LongitudeDegrees>-4.05348359607160091400146484375</LongitudeDegrees>
            </Position>
            <AltitudeMeters>1602</AltitudeMeters>
            <DistanceMeters>79661.562868316</DistanceMeters>
          </Trackpoint>
          <Trackpoint>
            <Time>2019-08-02T08:26:04.000Z</Time>
            <Position>
              <LatitudeDegrees>40.7707647420465946197509765625</LatitudeDegrees>
              <LongitudeDegrees>-4.0534768067300319671630859375</LongitudeDegrees>
            </Position>
            <AltitudeMeters>1602.5999755859375</AltitudeMeters>
            <DistanceMeters>79669.17806043</DistanceMeters>
          </Trackpoint>
          <Trackpoint>
            <Time>2019-08-02T08:26:07.000Z</Time>
            <Position>
              <LatitudeDegrees>40.77071520499885082244873046875</LatitudeDegrees>
              <LongitudeDegrees>-4.0534878708422183990478515625</LongitudeDegrees>
            </Position>
            <AltitudeMeters>1603.199951171875</AltitudeMeters>
            <DistanceMeters>79674.76931473</DistanceMeters>
          </Trackpoint>
          <Trackpoint>
            <Time>2019-08-02T08:26:18.000Z</Time>
            <Position>
              <LatitudeDegrees>40.770534574985504150390625</LatitudeDegrees>
              <LongitudeDegrees>-4.05346448533236980438232421875</LongitudeDegrees>
            </Position>
            <AltitudeMeters>1604.4000244140625</AltitudeMeters>
            <DistanceMeters>79694.970259871</DistanceMeters>
          </Trackpoint>
          <Trackpoint>
            <Time>2019-08-02T08:26:28.000Z</Time>
            <Position>
              <LatitudeDegrees>40.77034556306898593902587890625</LatitudeDegrees>
              <LongitudeDegrees>-4.053471945226192474365234375</LongitudeDegrees>
            </Position>
            <AltitudeMeters>1605.4000244140625</AltitudeMeters>
            <DistanceMeters>79716.017121869</DistanceMeters>
          </Trackpoint>
          <Trackpoint>
            <Time>2019-08-02T08:26:36.000Z</Time>
            <Position>
              <LatitudeDegrees>40.77021346427500247955322265625</LatitudeDegrees>
              <LongitudeDegrees>-4.05351611785590648651123046875</LongitudeDegrees>
            </Position>
            <AltitudeMeters>1606.5999755859375</AltitudeMeters>
            <DistanceMeters>79731.183933245</DistanceMeters>
          </Trackpoint>
          <Trackpoint>
            <Time>2019-08-02T08:26:44.000Z</Time>
            <Position>
              <LatitudeDegrees>40.77006996609270572662353515625</LatitudeDegrees>
              <LongitudeDegrees>-4.05351997353136539459228515625</LongitudeDegrees>
            </Position>
            <AltitudeMeters>1607.5999755859375</AltitudeMeters>
            <DistanceMeters>79747.158599448</DistanceMeters>
          </Trackpoint>
          <Trackpoint>
            <Time>2019-08-02T08:26:51.000Z</Time>
            <Position>
              <LatitudeDegrees>40.7699345983564853668212890625</LatitudeDegrees>
              <LongitudeDegrees>-4.0535307861864566802978515625</LongitudeDegrees>
            </Position>
            <AltitudeMeters>1608.800048828125</AltitudeMeters>
            <DistanceMeters>79762.252599206</DistanceMeters>
          </Trackpoint>
          <Trackpoint>
            <Time>2019-08-02T08:26:58.000Z</Time>
            <Position>
              <LatitudeDegrees>40.7697961293160915374755859375</LatitudeDegrees>
              <LongitudeDegrees>-4.0535321272909641265869140625</LongitudeDegrees>
            </Position>
            <AltitudeMeters>1610</AltitudeMeters>
            <DistanceMeters>79777.664514427</DistanceMeters>
          </Trackpoint>
          <Trackpoint>
            <Time>2019-08-02T08:27:05.000Z</Time>
            <Position>
              <LatitudeDegrees>40.7696700654923915863037109375</LatitudeDegrees>
              <LongitudeDegrees>-4.05354076065123081207275390625</LongitudeDegrees>
            </Position>
            <AltitudeMeters>1611</AltitudeMeters>
            <DistanceMeters>79791.714656816</DistanceMeters>
          </Trackpoint>
          <Trackpoint>
            <Time>2019-08-02T08:27:40.000Z</Time>
            <Position>
              <LatitudeDegrees>40.76916555874049663543701171875</LatitudeDegrees>
              <LongitudeDegrees>-4.05381753109395503997802734375</LongitudeDegrees>
            </Position>
            <AltitudeMeters>1611.5999755859375</AltitudeMeters>
            <DistanceMeters>79852.520914062</DistanceMeters>
          </Trackpoint>
          <Trackpoint>
            <Time>2019-08-02T08:27:43.000Z</Time>
            <Position>
              <LatitudeDegrees>40.76913110911846160888671875</LatitudeDegrees>
              <LongitudeDegrees>-4.05385742895305156707763671875</LongitudeDegrees>
            </Position>
            <AltitudeMeters>1611.800048828125</AltitudeMeters>
            <DistanceMeters>79857.621467977</DistanceMeters>
          </Trackpoint>
          <Trackpoint>
            <Time>2019-08-02T08:28:15.000Z</Time>
            <Position>
              <LatitudeDegrees>40.768755264580249786376953125</LatitudeDegrees>
              <LongitudeDegrees>-4.05425540171563625335693359375</LongitudeDegrees>
            </Position>
            <AltitudeMeters>1611</AltitudeMeters>
            <DistanceMeters>79911.24365444</DistanceMeters>
          </Trackpoint>
          <Trackpoint>
            <Time>2019-08-02T08:28:49.000Z</Time>
            <Position>
              <LatitudeDegrees>40.76826668344438076019287109375</LatitudeDegrees>
              <LongitudeDegrees>-4.0544856525957584381103515625</LongitudeDegrees>
            </Position>
            <AltitudeMeters>1612</AltitudeMeters>
            <DistanceMeters>79968.983625198</DistanceMeters>
          </Trackpoint>
          <Trackpoint>
            <Time>2019-08-02T08:29:00.000Z</Time>
            <Position>
              <LatitudeDegrees>40.76811782084405422210693359375</LatitudeDegrees>
              <LongitudeDegrees>-4.05457374639809131622314453125</LongitudeDegrees>
            </Position>
            <AltitudeMeters>1613.199951171875</AltitudeMeters>
            <DistanceMeters>79987.140194278</DistanceMeters>
          </Trackpoint>
          <Trackpoint>
            <Time>2019-08-02T08:29:13.000Z</Time>
            <Position>
              <LatitudeDegrees>40.7679376937448978424072265625</LatitudeDegrees>
              <LongitudeDegrees>-4.0546760894358158111572265625</LongitudeDegrees>
            </Position>
            <AltitudeMeters>1614.199951171875</AltitudeMeters>
            <DistanceMeters>80008.965950225</DistanceMeters>
          </Trackpoint>
          <Trackpoint>
            <Time>2019-08-02T08:29:26.000Z</Time>
            <Position>
              <LatitudeDegrees>40.76775555498898029327392578125</LatitudeDegrees>
              <LongitudeDegrees>-4.05477440916001796722412109375</LongitudeDegrees>
            </Position>
            <AltitudeMeters>1615.199951171875</AltitudeMeters>
            <DistanceMeters>80030.866876472</DistanceMeters>
          </Trackpoint>
          <Trackpoint>
            <Time>2019-08-02T08:29:31.000Z</Time>
            <Position>
              <LatitudeDegrees>40.7676832191646099090576171875</LatitudeDegrees>
              <LongitudeDegrees>-4.05481598339974880218505859375</LongitudeDegrees>
            </Position>
            <AltitudeMeters>1616.4000244140625</AltitudeMeters>
            <DistanceMeters>80039.64746829</DistanceMeters>
          </Trackpoint>
          <Trackpoint>
            <Time>2019-08-02T08:29:40.000Z</Time>
            <Position>
              <LatitudeDegrees>40.76755908317863941192626953125</LatitudeDegrees>
              <LongitudeDegrees>-4.05488672666251659393310546875</LongitudeDegrees>
            </Position>
            <AltitudeMeters>1617.4000244140625</AltitudeMeters>
            <DistanceMeters>80054.695931901</DistanceMeters>
          </Trackpoint>
          <Trackpoint>
            <Time>2019-08-02T08:29:50.000Z</Time>
            <Position>
              <LatitudeDegrees>40.76742044650018215179443359375</LatitudeDegrees>
              <LongitudeDegrees>-4.0549694560468196868896484375</LongitudeDegrees>
            </Position>
            <AltitudeMeters>1618.4000244140625</AltitudeMeters>
            <DistanceMeters>80071.629361778</DistanceMeters>
          </Trackpoint>
          <Trackpoint>
            <Time>2019-08-02T08:30:00.000Z</Time>
            <Position>
              <LatitudeDegrees>40.7672969810664653778076171875</LatitudeDegrees>
              <LongitudeDegrees>-4.05506241135299205780029296875</LongitudeDegrees>
            </Position>
            <AltitudeMeters>1619.4000244140625</AltitudeMeters>
            <DistanceMeters>80087.44866987</DistanceMeters>
          </Trackpoint>
          <Trackpoint>
            <Time>2019-08-02T08:30:13.000Z</Time>
            <Position>
              <LatitudeDegrees>40.76713495887815952301025390625</LatitudeDegrees>
              <LongitudeDegrees>-4.05519367195665836334228515625</LongitudeDegrees>
            </Position>
            <AltitudeMeters>1618.4000244140625</AltitudeMeters>
            <DistanceMeters>80108.60593622</DistanceMeters>
          </Trackpoint>
          <Trackpoint>
            <Time>2019-08-02T08:30:27.000Z</Time>
            <Position>
              <LatitudeDegrees>40.76696195639669895172119140625</LatitudeDegrees>
              <LongitudeDegrees>-4.055324010550975799560546875</LongitudeDegrees>
            </Position>
            <AltitudeMeters>1617.4000244140625</AltitudeMeters>
            <DistanceMeters>80130.775691084</DistanceMeters>
          </Trackpoint>
          <Trackpoint>
            <Time>2019-08-02T08:30:50.000Z</Time>
            <Position>
              <LatitudeDegrees>40.76667898334562778472900390625</LatitudeDegrees>
              <LongitudeDegrees>-4.0555397607386112213134765625</LongitudeDegrees>
            </Position>
            <AltitudeMeters>1618.4000244140625</AltitudeMeters>
            <DistanceMeters>80167.145109936</DistanceMeters>
          </Trackpoint>
          <Trackpoint>
            <Time>2019-08-02T08:30:57.000Z</Time>
            <Position>
              <LatitudeDegrees>40.76658342964947223663330078125</LatitudeDegrees>
              <LongitudeDegrees>-4.05561008490622043609619140625</LongitudeDegrees>
            </Position>
            <AltitudeMeters>1619.5999755859375</AltitudeMeters>
            <DistanceMeters>80179.320772751</DistanceMeters>
          </Trackpoint>
          <Trackpoint>
            <Time>2019-08-02T08:31:02.000Z</Time>
            <Position>
              <LatitudeDegrees>40.76651872135698795318603515625</LatitudeDegrees>
              <LongitudeDegrees>-4.0556648187339305877685546875</LongitudeDegrees>
            </Position>
            <AltitudeMeters>1620.800048828125</AltitudeMeters>
            <DistanceMeters>80187.874232831</DistanceMeters>
          </Trackpoint>
          <Trackpoint>
            <Time>2019-08-02T08:31:07.000Z</Time>
            <Position>
              <LatitudeDegrees>40.76645158231258392333984375</LatitudeDegrees>
              <LongitudeDegrees>-4.05572139658033847808837890625</LongitudeDegrees>
            </Position>
            <AltitudeMeters>1621.800048828125</AltitudeMeters>
            <DistanceMeters>80196.73926274</DistanceMeters>
          </Trackpoint>
          <Trackpoint>
            <Time>2019-08-02T08:31:15.000Z</Time>
            <Position>
              <LatitudeDegrees>40.76634228229522705078125</LatitudeDegrees>
              <LongitudeDegrees>-4.05579976737499237060546875</LongitudeDegrees>
            </Position>
            <AltitudeMeters>1623</AltitudeMeters>
            <DistanceMeters>80210.582538447</DistanceMeters>
          </Trackpoint>
          <Trackpoint>
            <Time>2019-08-02T08:31:25.000Z</Time>
            <Position>
              <LatitudeDegrees>40.76622049324214458465576171875</LatitudeDegrees>
              <LongitudeDegrees>-4.0559169463813304901123046875</LongitudeDegrees>
            </Position>
            <AltitudeMeters>1624</AltitudeMeters>
            <DistanceMeters>80227.354686234</DistanceMeters>
          </Trackpoint>
          <Trackpoint>
            <Time>2019-08-02T08:32:00.000Z</Time>
            <Position>
              <LatitudeDegrees>40.76574222184717655181884765625</LatitudeDegrees>
              <LongitudeDegrees>-4.0562461875379085540771484375</LongitudeDegrees>
            </Position>
            <AltitudeMeters>1625.199951171875</AltitudeMeters>
            <DistanceMeters>80287.388109173</DistanceMeters>
          </Trackpoint>
          <Trackpoint>
            <Time>2019-08-02T08:32:14.000Z</Time>
            <Position>
              <LatitudeDegrees>40.76554742641746997833251953125</LatitudeDegrees>
              <LongitudeDegrees>-4.05635825358331203460693359375</LongitudeDegrees>
            </Position>
            <AltitudeMeters>1624</AltitudeMeters>
            <DistanceMeters>80311.037736544</DistanceMeters>
          </Trackpoint>
          <Trackpoint>
            <Time>2019-08-02T08:32:19.000Z</Time>
            <Position>
              <LatitudeDegrees>40.7654774375259876251220703125</LatitudeDegrees>
              <LongitudeDegrees>-4.05640603043138980865478515625</LongitudeDegrees>
            </Position>
            <AltitudeMeters>1623</AltitudeMeters>
            <DistanceMeters>80319.80700852</DistanceMeters>
          </Trackpoint>
          <Trackpoint>
            <Time>2019-08-02T08:32:41.000Z</Time>
            <Position>
              <LatitudeDegrees>40.76519136317074298858642578125</LatitudeDegrees>
              <LongitudeDegrees>-4.05669654719531536102294921875</LongitudeDegrees>
            </Position>
            <AltitudeMeters>1622.199951171875</AltitudeMeters>
            <DistanceMeters>80359.976566519</DistanceMeters>
          </Trackpoint>
          <Trackpoint>
            <Time>2019-08-02T08:32:45.000Z</Time>
            <Position>
              <LatitudeDegrees>40.76514258049428462982177734375</LatitudeDegrees>
              <LongitudeDegrees>-4.05675488524138927459716796875</LongitudeDegrees>
            </Position>
            <AltitudeMeters>1621.5999755859375</AltitudeMeters>
            <DistanceMeters>80367.302257224</DistanceMeters>
          </Trackpoint>
          <Trackpoint>
            <Time>2019-08-02T08:32:52.000Z</Time>
            <Position>
              <LatitudeDegrees>40.765084326267242431640625</LatitudeDegrees>
              <LongitudeDegrees>-4.05685253441333770751953125</LongitudeDegrees>
            </Position>
            <AltitudeMeters>1621</AltitudeMeters>
            <DistanceMeters>80377.781080133</DistanceMeters>
          </Trackpoint>
          <Trackpoint>
            <Time>2019-08-02T08:32:55.000Z</Time>
            <Position>
              <LatitudeDegrees>40.7650556601583957672119140625</LatitudeDegrees>
              <LongitudeDegrees>-4.05688530765473842620849609375</LongitudeDegrees>
            </Position>
            <AltitudeMeters>1621.199951171875</AltitudeMeters>
            <DistanceMeters>80382.002020884</DistanceMeters>
          </Trackpoint>
          <Trackpoint>
            <Time>2019-08-02T08:33:01.000Z</Time>
            <Position>
              <LatitudeDegrees>40.76502121053636074066162109375</LatitudeDegrees>
              <LongitudeDegrees>-4.0569658577442169189453125</LongitudeDegrees>
            </Position>
            <AltitudeMeters>1621.5999755859375</AltitudeMeters>
            <DistanceMeters>80389.800003622</DistanceMeters>
          </Trackpoint>
          <Trackpoint>
            <Time>2019-08-02T08:33:12.000Z</Time>
            <Position>
              <LatitudeDegrees>40.7649124972522258758544921875</LatitudeDegrees>
              <LongitudeDegrees>-4.0570957772433757781982421875</LongitudeDegrees>
            </Position>
            <AltitudeMeters>1622</AltitudeMeters>
            <DistanceMeters>80406.120824525</DistanceMeters>
          </Trackpoint>
          <Trackpoint>
            <Time>2019-08-02T08:33:27.000Z</Time>
            <Position>
              <LatitudeDegrees>40.7647418417036533355712890625</LatitudeDegrees>
              <LongitudeDegrees>-4.057070128619670867919921875</LongitudeDegrees>
            </Position>
            <AltitudeMeters>1621.800048828125</AltitudeMeters>
            <DistanceMeters>80425.237970071</DistanceMeters>
          </Trackpoint>
          <Trackpoint>
            <Time>2019-08-02T08:33:31.000Z</Time>
            <Position>
              <LatitudeDegrees>40.764722563326358795166015625</LatitudeDegrees>
              <LongitudeDegrees>-4.05700483359396457672119140625</LongitudeDegrees>
            </Position>
            <AltitudeMeters>1621.4000244140625</AltitudeMeters>
            <DistanceMeters>80431.146461886</DistanceMeters>
          </Trackpoint>
          <Trackpoint>
            <Time>2019-08-02T08:33:38.000Z</Time>
            <Position>
              <LatitudeDegrees>40.76471627689898014068603515625</LatitudeDegrees>
              <LongitudeDegrees>-4.05687508173286914825439453125</LongitudeDegrees>
            </Position>
            <AltitudeMeters>1620.5999755859375</AltitudeMeters>
            <DistanceMeters>80442.106301158</DistanceMeters>
          </Trackpoint>
          <Trackpoint>
            <Time>2019-08-02T08:34:01.000Z</Time>
            <Position>
              <LatitudeDegrees>40.7649249024689197540283203125</LatitudeDegrees>
              <LongitudeDegrees>-4.0562109835445880889892578125</LongitudeDegrees>
            </Position>
            <AltitudeMeters>1620.800048828125</AltitudeMeters>
            <DistanceMeters>80502.714277007</DistanceMeters>
          </Trackpoint>
          <Trackpoint>
            <Time>2019-08-02T08:34:10.000Z</Time>
            <Position>
              <LatitudeDegrees>40.76520024798810482025146484375</LatitudeDegrees>
              <LongitudeDegrees>-4.055836312472820281982421875</LongitudeDegrees>
            </Position>
            <AltitudeMeters>1619.800048828125</AltitudeMeters>
            <DistanceMeters>80546.723240365</DistanceMeters>
          </Trackpoint>
          <Trackpoint>
            <Time>2019-08-02T08:34:18.000Z</Time>
            <Position>
              <LatitudeDegrees>40.7654774375259876251220703125</LatitudeDegrees>
              <LongitudeDegrees>-4.05537237413227558135986328125</LongitudeDegrees>
            </Position>
            <AltitudeMeters>1620.800048828125</AltitudeMeters>
            <DistanceMeters>80596.536820504</DistanceMeters>
          </Trackpoint>
          <Trackpoint>
            <Time>2019-08-02T08:34:22.000Z</Time>
            <Position>
              <LatitudeDegrees>40.76558732427656650543212890625</LatitudeDegrees>
              <LongitudeDegrees>-4.05519870109856128692626953125</LongitudeDegrees>
            </Position>
            <AltitudeMeters>1621.199951171875</AltitudeMeters>
            <DistanceMeters>80615.61401031</DistanceMeters>
          </Trackpoint>
          <Trackpoint>
            <Time>2019-08-02T08:34:25.000Z</Time>
            <Position>
              <LatitudeDegrees>40.765661336481571197509765625</LatitudeDegrees>
              <LongitudeDegrees>-4.05509694479405879974365234375</LongitudeDegrees>
            </Position>
            <AltitudeMeters>1621.800048828125</AltitudeMeters>
            <DistanceMeters>80627.506784896</DistanceMeters>
          </Trackpoint>
          <Trackpoint>
            <Time>2019-08-02T08:34:31.000Z</Time>
            <Position>
              <LatitudeDegrees>40.76578103005886077880859375</LatitudeDegrees>
              <LongitudeDegrees>-4.05490449629724025726318359375</LongitudeDegrees>
            </Position>
            <AltitudeMeters>1623</AltitudeMeters>
            <DistanceMeters>80648.498872226</DistanceMeters>
          </Trackpoint>
          <Trackpoint>
            <Time>2019-08-02T08:34:36.000Z</Time>
            <Position>
              <LatitudeDegrees>40.765856802463531494140625</LatitudeDegrees>
              <LongitudeDegrees>-4.054749011993408203125</LongitudeDegrees>
            </Position>
            <AltitudeMeters>1624</AltitudeMeters>
            <DistanceMeters>80664.084991579</DistanceMeters>
          </Trackpoint>
          <Trackpoint>
            <Time>2019-08-02T08:34:41.000Z</Time>
            <Position>
              <LatitudeDegrees>40.76596668921411037445068359375</LatitudeDegrees>
              <LongitudeDegrees>-4.0545681305229663848876953125</LongitudeDegrees>
            </Position>
            <AltitudeMeters>1625.199951171875</AltitudeMeters>
            <DistanceMeters>80683.632335507</DistanceMeters>
          </Trackpoint>
          <Trackpoint>
            <Time>2019-08-02T08:34:47.000Z</Time>
            <Position>
              <LatitudeDegrees>40.76608722098171710968017578125</LatitudeDegrees>
              <LongitudeDegrees>-4.054322876036167144775390625</LongitudeDegrees>
            </Position>
            <AltitudeMeters>1626.4000244140625</AltitudeMeters>
            <DistanceMeters>80708.278169274</DistanceMeters>
          </Trackpoint>
          <Trackpoint>
            <Time>2019-08-02T08:34:52.000Z</Time>
            <Position>
              <LatitudeDegrees>40.7661711238324642181396484375</LatitudeDegrees>
              <LongitudeDegrees>-4.05410134233534336090087890625</LongitudeDegrees>
            </Position>
            <AltitudeMeters>1627.5999755859375</AltitudeMeters>
            <DistanceMeters>80729.157681495</DistanceMeters>
          </Trackpoint>
          <Trackpoint>
            <Time>2019-08-02T08:34:58.000Z</Time>
            <Position>
              <LatitudeDegrees>40.76628687791526317596435546875</LatitudeDegrees>
              <LongitudeDegrees>-4.053864218294620513916015625</LongitudeDegrees>
            </Position>
            <AltitudeMeters>1629</AltitudeMeters>
            <DistanceMeters>80752.939054199</DistanceMeters>
          </Trackpoint>
          <Trackpoint>
            <Time>2019-08-02T08:35:02.000Z</Time>
            <Position>
              <LatitudeDegrees>40.766361057758331298828125</LatitudeDegrees>
              <LongitudeDegrees>-4.0536843426525592803955078125</LongitudeDegrees>
            </Position>
            <AltitudeMeters>1630</AltitudeMeters>
            <DistanceMeters>80770.20412945</DistanceMeters>
          </Trackpoint>
          <Trackpoint>
            <Time>2019-08-02T08:35:08.000Z</Time>
            <Position>
              <LatitudeDegrees>40.76651385985314846038818359375</LatitudeDegrees>
              <LongitudeDegrees>-4.05348099768161773681640625</LongitudeDegrees>
            </Position>
            <AltitudeMeters>1631.199951171875</AltitudeMeters>
            <DistanceMeters>80794.351014052</DistanceMeters>
          </Trackpoint>
          <Trackpoint>
            <Time>2019-08-02T08:35:14.000Z</Time>
            <Position>
              <LatitudeDegrees>40.76668635942041873931884765625</LatitudeDegrees>
              <LongitudeDegrees>-4.05331461690366268157958984375</LongitudeDegrees>
            </Position>
            <AltitudeMeters>1632.4000244140625</AltitudeMeters>
            <DistanceMeters>80818.127829773</DistanceMeters>
          </Trackpoint>
          <Trackpoint>
            <Time>2019-08-02T08:35:30.000Z</Time>
            <Position>
              <LatitudeDegrees>40.7672406546771526336669921875</LatitudeDegrees>
              <LongitudeDegrees>-4.05323850922286510467529296875</LongitudeDegrees>
            </Position>
            <AltitudeMeters>1632.4000244140625</AltitudeMeters>
            <DistanceMeters>80880.15472966</DistanceMeters>
          </Trackpoint>
          <Trackpoint>
            <Time>2019-08-02T08:35:34.000Z</Time>
            <Position>
              <LatitudeDegrees>40.7674079574644565582275390625</LatitudeDegrees>
              <LongitudeDegrees>-4.0532012097537517547607421875</LongitudeDegrees>
            </Position>
            <AltitudeMeters>1632.800048828125</AltitudeMeters>
            <DistanceMeters>80899.039720239</DistanceMeters>
          </Trackpoint>
          <Trackpoint>
            <Time>2019-08-02T08:35:36.000Z</Time>
            <Position>
              <LatitudeDegrees>40.7674954645335674285888671875</LatitudeDegrees>
              <LongitudeDegrees>-4.05313692055642604827880859375</LongitudeDegrees>
            </Position>
            <AltitudeMeters>1633.4000244140625</AltitudeMeters>
            <DistanceMeters>80910.185426212</DistanceMeters>
          </Trackpoint>
          <Trackpoint>
            <Time>2019-08-02T08:35:39.000Z</Time>
            <Position>
              <LatitudeDegrees>40.767603255808353424072265625</LatitudeDegrees>
              <LongitudeDegrees>-4.05300599522888660430908203125</LongitudeDegrees>
            </Position>
            <AltitudeMeters>1633.5999755859375</AltitudeMeters>
            <DistanceMeters>80926.486870614</DistanceMeters>
          </Trackpoint>
          <Trackpoint>
            <Time>2019-08-02T08:35:46.000Z</Time>
            <Position>
              <LatitudeDegrees>40.7677707262337207794189453125</LatitudeDegrees>
              <LongitudeDegrees>-4.0527455694973468780517578125</LongitudeDegrees>
            </Position>
            <AltitudeMeters>1634.4000244140625</AltitudeMeters>
            <DistanceMeters>80955.285609666</DistanceMeters>
          </Trackpoint>
          <Trackpoint>
            <Time>2019-08-02T08:35:55.000Z</Time>
            <Position>
              <LatitudeDegrees>40.7679326646029949188232421875</LatitudeDegrees>
              <LongitudeDegrees>-4.0524897538125514984130859375</LongitudeDegrees>
            </Position>
            <AltitudeMeters>1635.5999755859375</AltitudeMeters>
            <DistanceMeters>80983.390393008</DistanceMeters>
          </Trackpoint>
          <Trackpoint>
            <Time>2019-08-02T08:36:04.000Z</Time>
            <Position>
              <LatitudeDegrees>40.76810340397059917449951171875</LatitudeDegrees>
              <LongitudeDegrees>-4.05220166780054569244384765625</LongitudeDegrees>
            </Position>
            <AltitudeMeters>1634.5999755859375</AltitudeMeters>
            <DistanceMeters>81014.226525216</DistanceMeters>
          </Trackpoint>
          <Trackpoint>
            <Time>2019-08-02T08:36:21.000Z</Time>
            <Position>
              <LatitudeDegrees>40.76832166872918605804443359375</LatitudeDegrees>
              <LongitudeDegrees>-4.051550142467021942138671875</LongitudeDegrees>
            </Position>
            <AltitudeMeters>1634</AltitudeMeters>
            <DistanceMeters>81074.280100715</DistanceMeters>
          </Trackpoint>
          <Trackpoint>
            <Time>2019-08-02T08:36:39.000Z</Time>
            <Position>
              <LatitudeDegrees>40.7687681727111339569091796875</LatitudeDegrees>
              <LongitudeDegrees>-4.05113004148006439208984375</LongitudeDegrees>
            </Position>
            <AltitudeMeters>1634.4000244140625</AltitudeMeters>
            <DistanceMeters>81135.303087071</DistanceMeters>
          </Trackpoint>
          <Trackpoint>
            <Time>2019-08-02T08:36:43.000Z</Time>
            <Position>
              <LatitudeDegrees>40.768906138837337493896484375</LatitudeDegrees>
              <LongitudeDegrees>-4.0511067397892475128173828125</LongitudeDegrees>
            </Position>
            <AltitudeMeters>1633.5999755859375</AltitudeMeters>
            <DistanceMeters>81150.784277558</DistanceMeters>
          </Trackpoint>
          <Trackpoint>
            <Time>2019-08-02T08:37:01.000Z</Time>
            <Position>
              <LatitudeDegrees>40.76939824037253856658935546875</LatitudeDegrees>
              <LongitudeDegrees>-4.0512324683368206024169921875</LongitudeDegrees>
            </Position>
            <AltitudeMeters>1633.5999755859375</AltitudeMeters>
            <DistanceMeters>81206.572162328</DistanceMeters>
          </Trackpoint>
          <Trackpoint>
            <Time>2019-08-02T08:37:13.000Z</Time>
            <Position>
              <LatitudeDegrees>40.769673250615596771240234375</LatitudeDegrees>
              <LongitudeDegrees>-4.051407314836978912353515625</LongitudeDegrees>
            </Position>
            <AltitudeMeters>1634.800048828125</AltitudeMeters>
            <DistanceMeters>81240.544711103</DistanceMeters>
          </Trackpoint>
          <Trackpoint>
            <Time>2019-08-02T08:37:18.000Z</Time>
            <Position>
              <LatitudeDegrees>40.76979453675448894500732421875</LatitudeDegrees>
              <LongitudeDegrees>-4.05147135257720947265625</LongitudeDegrees>
            </Position>
            <AltitudeMeters>1635.800048828125</AltitudeMeters>
            <DistanceMeters>81255.083487854</DistanceMeters>
          </Trackpoint>
          <Trackpoint>
            <Time>2019-08-02T08:37:33.000Z</Time>
            <Position>
              <LatitudeDegrees>40.77015512622892856597900390625</LatitudeDegrees>
              <LongitudeDegrees>-4.05154301784932613372802734375</LongitudeDegrees>
            </Position>
            <AltitudeMeters>1637</AltitudeMeters>
            <DistanceMeters>81295.670019424</DistanceMeters>
          </Trackpoint>
          <Trackpoint>
            <Time>2019-08-02T08:37:40.000Z</Time>
            <Position>
              <LatitudeDegrees>40.770340450108051300048828125</LatitudeDegrees>
              <LongitudeDegrees>-4.0515526570379734039306640625</LongitudeDegrees>
            </Position>
            <AltitudeMeters>1638</AltitudeMeters>
            <DistanceMeters>81316.312919109</DistanceMeters>
          </Trackpoint>
          <Trackpoint>
            <Time>2019-08-02T08:37:48.000Z</Time>
            <Position>
              <LatitudeDegrees>40.770536921918392181396484375</LatitudeDegrees>
              <LongitudeDegrees>-4.051588363945484161376953125</LongitudeDegrees>
            </Position>
            <AltitudeMeters>1639</AltitudeMeters>
            <DistanceMeters>81338.386542843</DistanceMeters>
          </Trackpoint>
          <Trackpoint>
            <Time>2019-08-02T08:37:55.000Z</Time>
            <Position>
              <LatitudeDegrees>40.77072291634976863861083984375</LatitudeDegrees>
              <LongitudeDegrees>-4.0516586042940616607666015625</LongitudeDegrees>
            </Position>
            <AltitudeMeters>1640</AltitudeMeters>
            <DistanceMeters>81359.918011085</DistanceMeters>
          </Trackpoint>
          <Trackpoint>
            <Time>2019-08-02T08:38:00.000Z</Time>
            <Position>
              <LatitudeDegrees>40.77083908952772617340087890625</LatitudeDegrees>
              <LongitudeDegrees>-4.05173395760357379913330078125</LongitudeDegrees>
            </Position>
            <AltitudeMeters>1641.199951171875</AltitudeMeters>
            <DistanceMeters>81374.323885471</DistanceMeters>
          </Trackpoint>
          <Trackpoint>
            <Time>2019-08-02T08:38:06.000Z</Time>
            <Position>
              <LatitudeDegrees>40.7709672488272190093994140625</LatitudeDegrees>
              <LongitudeDegrees>-4.051814340054988861083984375</LongitudeDegrees>
            </Position>
            <AltitudeMeters>1642.4000244140625</AltitudeMeters>
            <DistanceMeters>81390.115484221</DistanceMeters>
          </Trackpoint>
          <Trackpoint>
            <Time>2019-08-02T08:38:12.000Z</Time>
            <Position>
              <LatitudeDegrees>40.77109792269766330718994140625</LatitudeDegrees>
              <LongitudeDegrees>-4.05189489014446735382080078125</LongitudeDegrees>
            </Position>
            <AltitudeMeters>1643.4000244140625</AltitudeMeters>
            <DistanceMeters>81406.16656241</DistanceMeters>
          </Trackpoint>
          <Trackpoint>
            <Time>2019-08-02T08:38:16.000Z</Time>
            <Position>
              <LatitudeDegrees>40.77118895016610622406005859375</LatitudeDegrees>
              <LongitudeDegrees>-4.051942415535449981689453125</LongitudeDegrees>
            </Position>
            <AltitudeMeters>1644.5999755859375</AltitudeMeters>
            <DistanceMeters>81417.061946062</DistanceMeters>
          </Trackpoint>
          <Trackpoint>
            <Time>2019-08-02T08:38:23.000Z</Time>
            <Position>
              <LatitudeDegrees>40.7713326998054981231689453125</LatitudeDegrees>
              <LongitudeDegrees>-4.0520196966826915740966796875</LongitudeDegrees>
            </Position>
            <AltitudeMeters>1645.5999755859375</AltitudeMeters>
            <DistanceMeters>81434.336955941</DistanceMeters>
          </Trackpoint>
          <Trackpoint>
            <Time>2019-08-02T08:38:31.000Z</Time>
            <Position>
              <LatitudeDegrees>40.77147929929196834564208984375</LatitudeDegrees>
              <LongitudeDegrees>-4.0520579181611537933349609375</LongitudeDegrees>
            </Position>
            <AltitudeMeters>1647</AltitudeMeters>
            <DistanceMeters>81450.968802853</DistanceMeters>
          </Trackpoint>
          <Trackpoint>
            <Time>2019-08-02T08:38:37.000Z</Time>
            <Position>
              <LatitudeDegrees>40.77159983105957508087158203125</LatitudeDegrees>
              <LongitudeDegrees>-4.05212924815714359283447265625</LongitudeDegrees>
            </Position>
            <AltitudeMeters>1648</AltitudeMeters>
            <DistanceMeters>81465.670022177</DistanceMeters>
          </Trackpoint>
          <Trackpoint>
            <Time>2019-08-02T08:38:45.000Z</Time>
            <Position>
              <LatitudeDegrees>40.77179395593702793121337890625</LatitudeDegrees>
              <LongitudeDegrees>-4.0522574074566364288330078125</LongitudeDegrees>
            </Position>
            <AltitudeMeters>1649</AltitudeMeters>
            <DistanceMeters>81489.82644099</DistanceMeters>
          </Trackpoint>
          <Trackpoint>
            <Time>2019-08-02T08:38:53.000Z</Time>
            <Position>
              <LatitudeDegrees>40.77197534032166004180908203125</LatitudeDegrees>
              <LongitudeDegrees>-4.05236788094043731689453125</LongitudeDegrees>
            </Position>
            <AltitudeMeters>1650.199951171875</AltitudeMeters>
            <DistanceMeters>81512.059036979</DistanceMeters>
          </Trackpoint>
          <Trackpoint>
            <Time>2019-08-02T08:38:57.000Z</Time>
            <Position>
              <LatitudeDegrees>40.77206569723784923553466796875</LatitudeDegrees>
              <LongitudeDegrees>-4.05242378823459148406982421875</LongitudeDegrees>
            </Position>
            <AltitudeMeters>1651.199951171875</AltitudeMeters>
            <DistanceMeters>81523.165379501</DistanceMeters>
          </Trackpoint>
          <Trackpoint>
            <Time>2019-08-02T08:39:02.000Z</Time>
            <Position>
              <LatitudeDegrees>40.77217868529260158538818359375</LatitudeDegrees>
              <LongitudeDegrees>-4.05248162336647510528564453125</LongitudeDegrees>
            </Position>
            <AltitudeMeters>1652.4000244140625</AltitudeMeters>
            <DistanceMeters>81536.653148777</DistanceMeters>
          </Trackpoint>
          <Trackpoint>
            <Time>2019-08-02T08:39:23.000Z</Time>
            <Position>
              <LatitudeDegrees>40.77267405577003955841064453125</LatitudeDegrees>
              <LongitudeDegrees>-4.05276660807430744171142578125</LongitudeDegrees>
            </Position>
            <AltitudeMeters>1653</AltitudeMeters>
            <DistanceMeters>81596.794474498</DistanceMeters>
          </Trackpoint>
          <Trackpoint>
            <Time>2019-08-02T08:39:45.000Z</Time>
            <Position>
              <LatitudeDegrees>40.77316758222877979278564453125</LatitudeDegrees>
              <LongitudeDegrees>-4.053102470934391021728515625</LongitudeDegrees>
            </Position>
            <AltitudeMeters>1652.800048828125</AltitudeMeters>
            <DistanceMeters>81658.590851722</DistanceMeters>
          </Trackpoint>
          <Trackpoint>
            <Time>2019-08-02T08:39:49.000Z</Time>
            <Position>
              <LatitudeDegrees>40.77324234880506992340087890625</LatitudeDegrees>
              <LongitudeDegrees>-4.05317480675876140594482421875</LongitudeDegrees>
            </Position>
            <AltitudeMeters>1653.800048828125</AltitudeMeters>
            <DistanceMeters>81668.906832087</DistanceMeters>
          </Trackpoint>
          <Trackpoint>
            <Time>2019-08-02T08:39:58.000Z</Time>
            <Position>
              <LatitudeDegrees>40.77340696938335895538330078125</LatitudeDegrees>
              <LongitudeDegrees>-4.05333322472870349884033203125</LongitudeDegrees>
            </Position>
            <AltitudeMeters>1655</AltitudeMeters>
            <DistanceMeters>81691.578620974</DistanceMeters>
          </Trackpoint>
          <Trackpoint>
            <Time>2019-08-02T08:40:03.000Z</Time>
            <Position>
              <LatitudeDegrees>40.77350419946014881134033203125</LatitudeDegrees>
              <LongitudeDegrees>-4.05344344675540924072265625</LongitudeDegrees>
            </Position>
            <AltitudeMeters>1656</AltitudeMeters>
            <DistanceMeters>81705.841811087</DistanceMeters>
          </Trackpoint>
          <Trackpoint>
            <Time>2019-08-02T08:40:10.000Z</Time>
            <Position>
              <LatitudeDegrees>40.773628167808055877685546875</LatitudeDegrees>
              <LongitudeDegrees>-4.0536109171807765960693359375</LongitudeDegrees>
            </Position>
            <AltitudeMeters>1657.199951171875</AltitudeMeters>
            <DistanceMeters>81725.581309525</DistanceMeters>
          </Trackpoint>
          <Trackpoint>
            <Time>2019-08-02T08:40:15.000Z</Time>
            <Position>
              <LatitudeDegrees>40.77371492050588130950927734375</LatitudeDegrees>
              <LongitudeDegrees>-4.05372901819646358489990234375</LongitudeDegrees>
            </Position>
            <AltitudeMeters>1658.4000244140625</AltitudeMeters>
            <DistanceMeters>81739.449350774</DistanceMeters>
          </Trackpoint>
          <Trackpoint>
            <Time>2019-08-02T08:40:38.000Z</Time>
            <Position>
              <LatitudeDegrees>40.7740866579115390777587890625</LatitudeDegrees>
              <LongitudeDegrees>-4.0542771108448505401611328125</LongitudeDegrees>
            </Position>
            <AltitudeMeters>1659.5999755859375</AltitudeMeters>
            <DistanceMeters>81801.466641424</DistanceMeters>
          </Trackpoint>
          <Trackpoint>
            <Time>2019-08-02T08:40:40.000Z</Time>
            <Position>
              <LatitudeDegrees>40.7741260528564453125</LatitudeDegrees>
              <LongitudeDegrees>-4.0543139912188053131103515625</LongitudeDegrees>
            </Position>
            <AltitudeMeters>1659.800048828125</AltitudeMeters>
            <DistanceMeters>81806.842164154</DistanceMeters>
          </Trackpoint>
          <Trackpoint>
            <Time>2019-08-02T08:40:50.000Z</Time>
            <Position>
              <LatitudeDegrees>40.774320177733898162841796875</LatitudeDegrees>
              <LongitudeDegrees>-4.05448825098574161529541015625</LongitudeDegrees>
            </Position>
            <AltitudeMeters>1660.800048828125</AltitudeMeters>
            <DistanceMeters>81832.968289935</DistanceMeters>
          </Trackpoint>
          <Trackpoint>
            <Time>2019-08-02T08:41:10.000Z</Time>
            <Position>
              <LatitudeDegrees>40.77470465563237667083740234375</LatitudeDegrees>
              <LongitudeDegrees>-4.0548480860888957977294921875</LongitudeDegrees>
            </Position>
            <AltitudeMeters>1662.199951171875</AltitudeMeters>
            <DistanceMeters>81885.419507077</DistanceMeters>
          </Trackpoint>
          <Trackpoint>
            <Time>2019-08-02T08:41:22.000Z</Time>
            <Position>
              <LatitudeDegrees>40.77498092316091060638427734375</LatitudeDegrees>
              <LongitudeDegrees>-4.05498999170958995819091796875</LongitudeDegrees>
            </Position>
            <AltitudeMeters>1663.199951171875</AltitudeMeters>
            <DistanceMeters>81918.413077894</DistanceMeters>
          </Trackpoint>
          <Trackpoint>
            <Time>2019-08-02T08:41:33.000Z</Time>
            <Position>
              <LatitudeDegrees>40.77521746046841144561767578125</LatitudeDegrees>
              <LongitudeDegrees>-4.055094681680202484130859375</LongitudeDegrees>
            </Position>
            <AltitudeMeters>1664.4000244140625</AltitudeMeters>
            <DistanceMeters>81946.179584638</DistanceMeters>
          </Trackpoint>
          <Trackpoint>
            <Time>2019-08-02T08:41:56.000Z</Time>
            <Position>
              <LatitudeDegrees>40.7757559977471828460693359375</LatitudeDegrees>
              <LongitudeDegrees>-4.05524882487952709197998046875</LongitudeDegrees>
            </Position>
            <AltitudeMeters>1665.199951171875</AltitudeMeters>
            <DistanceMeters>82007.51180198</DistanceMeters>
          </Trackpoint>
          <Trackpoint>
            <Time>2019-08-02T08:42:14.000Z</Time>
            <Position>
              <LatitudeDegrees>40.776159502565860748291015625</LatitudeDegrees>
              <LongitudeDegrees>-4.0552762337028980255126953125</LongitudeDegrees>
            </Position>
            <AltitudeMeters>1665.5999755859375</AltitudeMeters>
            <DistanceMeters>82052.482033689</DistanceMeters>
          </Trackpoint>
          <Trackpoint>
            <Time>2019-08-02T08:42:23.000Z</Time>
            <Position>
              <LatitudeDegrees>40.77639662660658359527587890625</LatitudeDegrees>
              <LongitudeDegrees>-4.0553476475179195404052734375</LongitudeDegrees>
            </Position>
            <AltitudeMeters>1667</AltitudeMeters>
            <DistanceMeters>82079.552140881</DistanceMeters>
          </Trackpoint>
          <Trackpoint>
            <Time>2019-08-02T08:42:45.000Z</Time>
            <Position>
              <LatitudeDegrees>40.7769422046840190887451171875</LatitudeDegrees>
              <LongitudeDegrees>-4.05548335053026676177978515625</LongitudeDegrees>
            </Position>
            <AltitudeMeters>1667</AltitudeMeters>
            <DistanceMeters>82141.343841886</DistanceMeters>
          </Trackpoint>
          <Trackpoint>
            <Time>2019-08-02T08:42:56.000Z</Time>
            <Position>
              <LatitudeDegrees>40.777198858559131622314453125</LatitudeDegrees>
              <LongitudeDegrees>-4.05555258505046367645263671875</LongitudeDegrees>
            </Position>
            <AltitudeMeters>1668.199951171875</AltitudeMeters>
            <DistanceMeters>82170.49985904</DistanceMeters>
          </Trackpoint>
          <Trackpoint>
            <Time>2019-08-02T08:43:18.000Z</Time>
            <Position>
              <LatitudeDegrees>40.7776891998946666717529296875</LatitudeDegrees>
              <LongitudeDegrees>-4.05585701577365398406982421875</LongitudeDegrees>
            </Position>
            <AltitudeMeters>1668.199951171875</AltitudeMeters>
            <DistanceMeters>82230.806645045</DistanceMeters>
          </Trackpoint>
          <Trackpoint>
            <Time>2019-08-02T08:43:44.000Z</Time>
            <Position>
              <LatitudeDegrees>40.7781636156141757965087890625</LatitudeDegrees>
              <LongitudeDegrees>-4.056243337690830230712890625</LongitudeDegrees>
            </Position>
            <AltitudeMeters>1668.199951171875</AltitudeMeters>
            <DistanceMeters>82292.841988184</DistanceMeters>
          </Trackpoint>
          <Trackpoint>
            <Time>2019-08-02T08:43:57.000Z</Time>
            <Position>
              <LatitudeDegrees>40.77837827615439891815185546875</LatitudeDegrees>
              <LongitudeDegrees>-4.05638524331152439117431640625</LongitudeDegrees>
            </Position>
            <AltitudeMeters>1669.4000244140625</AltitudeMeters>
            <DistanceMeters>82319.560553328</DistanceMeters>
          </Trackpoint>
          <Trackpoint>
            <Time>2019-08-02T08:44:06.000Z</Time>
            <Position>
              <LatitudeDegrees>40.77853065915405750274658203125</LatitudeDegrees>
              <LongitudeDegrees>-4.05649269931018352508544921875</LongitudeDegrees>
            </Position>
            <AltitudeMeters>1670.4000244140625</AltitudeMeters>
            <DistanceMeters>82338.787442558</DistanceMeters>
          </Trackpoint>
          <Trackpoint>
            <Time>2019-08-02T08:44:36.000Z</Time>
            <Position>
              <LatitudeDegrees>40.77906307764351367950439453125</LatitudeDegrees>
              <LongitudeDegrees>-4.05664038844406604766845703125</LongitudeDegrees>
            </Position>
            <AltitudeMeters>1669.5999755859375</AltitudeMeters>
            <DistanceMeters>82399.339819056</DistanceMeters>
          </Trackpoint>
          <Trackpoint>
            <Time>2019-08-02T08:44:39.000Z</Time>
            <Position>
              <LatitudeDegrees>40.77911538071930408477783203125</LatitudeDegrees>
              <LongitudeDegrees>-4.05664105899631977081298828125</LongitudeDegrees>
            </Position>
            <AltitudeMeters>1669.4000244140625</AltitudeMeters>
            <DistanceMeters>82405.162095842</DistanceMeters>
          </Trackpoint>
          <Trackpoint>
            <Time>2019-08-02T08:45:01.000Z</Time>
            <Position>
              <LatitudeDegrees>40.77955442480742931365966796875</LatitudeDegrees>
              <LongitudeDegrees>-4.05663393437862396240234375</LongitudeDegrees>
            </Position>
            <AltitudeMeters>1670.5999755859375</AltitudeMeters>
            <DistanceMeters>82454.03225727</DistanceMeters>
          </Trackpoint>
          <Trackpoint>
            <Time>2019-08-02T08:45:26.000Z</Time>
            <Position>
              <LatitudeDegrees>40.78006136231124401092529296875</LatitudeDegrees>
              <LongitudeDegrees>-4.0564587526023387908935546875</LongitudeDegrees>
            </Position>
            <AltitudeMeters>1671.4000244140625</AltitudeMeters>
            <DistanceMeters>82512.355130621</DistanceMeters>
          </Trackpoint>
          <Trackpoint>
            <Time>2019-08-02T08:45:44.000Z</Time>
            <Position>
              <LatitudeDegrees>40.78021936118602752685546875</LatitudeDegrees>
              <LongitudeDegrees>-4.05606740154325962066650390625</LongitudeDegrees>
            </Position>
            <AltitudeMeters>1672.4000244140625</AltitudeMeters>
            <DistanceMeters>82549.733620258</DistanceMeters>
          </Trackpoint>
          <Trackpoint>
            <Time>2019-08-02T08:45:59.000Z</Time>
            <Position>
              <LatitudeDegrees>40.78032321296632289886474609375</LatitudeDegrees>
              <LongitudeDegrees>-4.0556542575359344482421875</LongitudeDegrees>
            </Position>
            <AltitudeMeters>1673.5999755859375</AltitudeMeters>
            <DistanceMeters>82586.42156289</DistanceMeters>
          </Trackpoint>
          <Trackpoint>
            <Time>2019-08-02T08:46:09.000Z</Time>
            <Position>
              <LatitudeDegrees>40.7804274000227451324462890625</LatitudeDegrees>
              <LongitudeDegrees>-4.05537891201674938201904296875</LongitudeDegrees>
            </Position>
            <AltitudeMeters>1674.5999755859375</AltitudeMeters>
            <DistanceMeters>82612.363681871</DistanceMeters>
          </Trackpoint>
          <Trackpoint>
            <Time>2019-08-02T08:46:17.000Z</Time>
            <Position>
              <LatitudeDegrees>40.780514068901538848876953125</LatitudeDegrees>
              <LongitudeDegrees>-4.05517674051225185394287109375</LongitudeDegrees>
            </Position>
            <AltitudeMeters>1676</AltitudeMeters>
            <DistanceMeters>82631.943797435</DistanceMeters>
          </Trackpoint>
          <Trackpoint>
            <Time>2019-08-02T08:46:23.000Z</Time>
            <Position>
              <LatitudeDegrees>40.78058254905045032501220703125</LatitudeDegrees>
              <LongitudeDegrees>-4.05502737499773502349853515625</LongitudeDegrees>
            </Position>
            <AltitudeMeters>1677.199951171875</AltitudeMeters>
            <DistanceMeters>82646.659751135</DistanceMeters>
          </Trackpoint>
          <Trackpoint>
            <Time>2019-08-02T08:46:29.000Z</Time>
            <Position>
              <LatitudeDegrees>40.780658237636089324951171875</LatitudeDegrees>
              <LongitudeDegrees>-4.05487817712128162384033203125</LongitudeDegrees>
            </Position>
            <AltitudeMeters>1678.199951171875</AltitudeMeters>
            <DistanceMeters>82661.795272576</DistanceMeters>
          </Trackpoint>
          <Trackpoint>
            <Time>2019-08-02T08:46:33.000Z</Time>
            <Position>
              <LatitudeDegrees>40.7807164080440998077392578125</LatitudeDegrees>
              <LongitudeDegrees>-4.054793603718280792236328125</LongitudeDegrees>
            </Position>
            <AltitudeMeters>1679.4000244140625</AltitudeMeters>
            <DistanceMeters>82671.424906785</DistanceMeters>
          </Trackpoint>
          <Trackpoint>
            <Time>2019-08-02T08:46:37.000Z</Time>
            <Position>
              <LatitudeDegrees>40.78077851794660091400146484375</LatitudeDegrees>
              <LongitudeDegrees>-4.05470944941043853759765625</LongitudeDegrees>
            </Position>
            <AltitudeMeters>1680.800048828125</AltitudeMeters>
            <DistanceMeters>82681.329590046</DistanceMeters>
          </Trackpoint>
          <Trackpoint>
            <Time>2019-08-02T08:46:41.000Z</Time>
            <Position>
              <LatitudeDegrees>40.78083769418299198150634765625</LatitudeDegrees>
              <LongitudeDegrees>-4.0546291507780551910400390625</LongitudeDegrees>
            </Position>
            <AltitudeMeters>1682</AltitudeMeters>
            <DistanceMeters>82690.773161137</DistanceMeters>
          </Trackpoint>
          <Trackpoint>
            <Time>2019-08-02T08:46:45.000Z</Time>
            <Position>
              <LatitudeDegrees>40.78089083544909954071044921875</LatitudeDegrees>
              <LongitudeDegrees>-4.054555557668209075927734375</LongitudeDegrees>
            </Position>
            <AltitudeMeters>1683</AltitudeMeters>
            <DistanceMeters>82699.343496124</DistanceMeters>
          </Trackpoint>
          <Trackpoint>
            <Time>2019-08-02T08:46:50.000Z</Time>
            <Position>
              <LatitudeDegrees>40.780967362225055694580078125</LatitudeDegrees>
              <LongitudeDegrees>-4.05445874668657779693603515625</LongitudeDegrees>
            </Position>
            <AltitudeMeters>1684.199951171875</AltitudeMeters>
            <DistanceMeters>82711.138681065</DistanceMeters>
          </Trackpoint>
          <Trackpoint>
            <Time>2019-08-02T08:46:54.000Z</Time>
            <Position>
              <LatitudeDegrees>40.78103316016495227813720703125</LatitudeDegrees>
              <LongitudeDegrees>-4.05438297428190708160400390625</LongitudeDegrees>
            </Position>
            <AltitudeMeters>1685.5999755859375</AltitudeMeters>
            <DistanceMeters>82720.855598235</DistanceMeters>
          </Trackpoint>
          <Trackpoint>
            <Time>2019-08-02T08:46:58.000Z</Time>
            <Position>
              <LatitudeDegrees>40.7810939289629459381103515625</LatitudeDegrees>
              <LongitudeDegrees>-4.054304771125316619873046875</LongitudeDegrees>
            </Position>
            <AltitudeMeters>1686.5999755859375</AltitudeMeters>
            <DistanceMeters>82730.299169327</DistanceMeters>
          </Trackpoint>
          <Trackpoint>
            <Time>2019-08-02T08:47:02.000Z</Time>
            <Position>
              <LatitudeDegrees>40.78115654177963733673095703125</LatitudeDegrees>
              <LongitudeDegrees>-4.05422665178775787353515625</LongitudeDegrees>
            </Position>
            <AltitudeMeters>1687.5999755859375</AltitudeMeters>
            <DistanceMeters>82739.886041499</DistanceMeters>
          </Trackpoint>
          <Trackpoint>
            <Time>2019-08-02T08:47:07.000Z</Time>
            <Position>
              <LatitudeDegrees>40.78123214654624462127685546875</LatitudeDegrees>
              <LongitudeDegrees>-4.054123722016811370849609375</LongitudeDegrees>
            </Position>
            <AltitudeMeters>1688.800048828125</AltitudeMeters>
            <DistanceMeters>82751.971257939</DistanceMeters>
          </Trackpoint>
          <Trackpoint>
            <Time>2019-08-02T08:47:12.000Z</Time>
            <Position>
              <LatitudeDegrees>40.78129626810550689697265625</LatitudeDegrees>
              <LongitudeDegrees>-4.05401584692299365997314453125</LongitudeDegrees>
            </Position>
            <AltitudeMeters>1689.800048828125</AltitudeMeters>
            <DistanceMeters>82763.529803738</DistanceMeters>
          </Trackpoint>
          <Trackpoint>
            <Time>2019-08-02T08:47:16.000Z</Time>
            <Position>
              <LatitudeDegrees>40.78134664334356784820556640625</LatitudeDegrees>
              <LongitudeDegrees>-4.05392699874937534332275390625</LongitudeDegrees>
            </Position>
            <AltitudeMeters>1691</AltitudeMeters>
            <DistanceMeters>82772.884506877</DistanceMeters>
          </Trackpoint>
          <Trackpoint>
            <Time>2019-08-02T08:47:22.000Z</Time>
            <Position>
              <LatitudeDegrees>40.781426019966602325439453125</LatitudeDegrees>
              <LongitudeDegrees>-4.0537963248789310455322265625</LongitudeDegrees>
            </Position>
            <AltitudeMeters>1692.199951171875</AltitudeMeters>
            <DistanceMeters>82787.003570854</DistanceMeters>
          </Trackpoint>
          <Trackpoint>
            <Time>2019-08-02T08:47:28.000Z</Time>
            <Position>
              <LatitudeDegrees>40.78151528723537921905517578125</LatitudeDegrees>
              <LongitudeDegrees>-4.053671099245548248291015625</LongitudeDegrees>
            </Position>
            <AltitudeMeters>1693.5999755859375</AltitudeMeters>
            <DistanceMeters>82801.49849371</DistanceMeters>
          </Trackpoint>
          <Trackpoint>
            <Time>2019-08-02T08:47:34.000Z</Time>
            <Position>
              <LatitudeDegrees>40.78158938325941562652587890625</LatitudeDegrees>
              <LongitudeDegrees>-4.05354193411767482757568359375</LongitudeDegrees>
            </Position>
            <AltitudeMeters>1694.800048828125</AltitudeMeters>
            <DistanceMeters>82815.155257561</DistanceMeters>
          </Trackpoint>
          <Trackpoint>
            <Time>2019-08-02T08:47:39.000Z</Time>
            <Position>
              <LatitudeDegrees>40.7816424407064914703369140625</LatitudeDegrees>
              <LongitudeDegrees>-4.05344403348863124847412109375</LongitudeDegrees>
            </Position>
            <AltitudeMeters>1695.800048828125</AltitudeMeters>
            <DistanceMeters>82825.301334215</DistanceMeters>
          </Trackpoint>
          <Trackpoint>
            <Time>2019-08-02T08:47:44.000Z</Time>
            <Position>
              <LatitudeDegrees>40.78169801272451877593994140625</LatitudeDegrees>
              <LongitudeDegrees>-4.0533494018018245697021484375</LongitudeDegrees>
            </Position>
            <AltitudeMeters>1697</AltitudeMeters>
            <DistanceMeters>82835.393869193</DistanceMeters>
          </Trackpoint>
          <Trackpoint>
            <Time>2019-08-02T08:47:49.000Z</Time>
            <Position>
              <LatitudeDegrees>40.7817644812166690826416015625</LatitudeDegrees>
              <LongitudeDegrees>-4.05324605293571949005126953125</LongitudeDegrees>
            </Position>
            <AltitudeMeters>1698.199951171875</AltitudeMeters>
            <DistanceMeters>82846.821597118</DistanceMeters>
          </Trackpoint>
          <Trackpoint>
            <Time>2019-08-02T08:47:54.000Z</Time>
            <Position>
              <LatitudeDegrees>40.78184151090681552886962890625</LatitudeDegrees>
              <LongitudeDegrees>-4.053151421248912811279296875</LongitudeDegrees>
            </Position>
            <AltitudeMeters>1699.199951171875</AltitudeMeters>
            <DistanceMeters>82858.531109521</DistanceMeters>
          </Trackpoint>
          <Trackpoint>
            <Time>2019-08-02T08:48:00.000Z</Time>
            <Position>
              <LatitudeDegrees>40.781926251947879791259765625</LatitudeDegrees>
              <LongitudeDegrees>-4.0530216693878173828125</LongitudeDegrees>
            </Position>
            <AltitudeMeters>1700.4000244140625</AltitudeMeters>
            <DistanceMeters>82872.972043889</DistanceMeters>
          </Trackpoint>
          <Trackpoint>
            <Time>2019-08-02T08:48:07.000Z</Time>
            <Position>
              <LatitudeDegrees>40.78202591277658939361572265625</LatitudeDegrees>
              <LongitudeDegrees>-4.05288026668131351470947265625</LongitudeDegrees>
            </Position>
            <AltitudeMeters>1701.5999755859375</AltitudeMeters>
            <DistanceMeters>82889.252702163</DistanceMeters>
          </Trackpoint>
          <Trackpoint>
            <Time>2019-08-02T08:48:12.000Z</Time>
            <Position>
              <LatitudeDegrees>40.78208508901298046112060546875</LatitudeDegrees>
              <LongitudeDegrees>-4.05278001911938190460205078125</LongitudeDegrees>
            </Position>
            <AltitudeMeters>1702.800048828125</AltitudeMeters>
            <DistanceMeters>82899.96546285</DistanceMeters>
          </Trackpoint>
          <Trackpoint>
            <Time>2019-08-02T08:48:19.000Z</Time>
            <Position>
              <LatitudeDegrees>40.78216974623501300811767578125</LatitudeDegrees>
              <LongitudeDegrees>-4.052655212581157684326171875</LongitudeDegrees>
            </Position>
            <AltitudeMeters>1704</AltitudeMeters>
            <DistanceMeters>82914.08708486</DistanceMeters>
          </Trackpoint>
          <Trackpoint>
            <Time>2019-08-02T08:48:24.000Z</Time>
            <Position>
              <LatitudeDegrees>40.782216601073741912841796875</LatitudeDegrees>
              <LongitudeDegrees>-4.052568040788173675537109375</LongitudeDegrees>
            </Position>
            <AltitudeMeters>1705.199951171875</AltitudeMeters>
            <DistanceMeters>82923.096098517</DistanceMeters>
          </Trackpoint>
          <Trackpoint>
            <Time>2019-08-02T08:48:30.000Z</Time>
            <Position>
              <LatitudeDegrees>40.7822891883552074432373046875</LatitudeDegrees>
              <LongitudeDegrees>-4.0524803660809993743896484375</LongitudeDegrees>
            </Position>
            <AltitudeMeters>1706.4000244140625</AltitudeMeters>
            <DistanceMeters>82934.044396774</DistanceMeters>
          </Trackpoint>
          <Trackpoint>
            <Time>2019-08-02T08:48:36.000Z</Time>
            <Position>
              <LatitudeDegrees>40.78236688859760761260986328125</LatitudeDegrees>
              <LongitudeDegrees>-4.05239260755479335784912109375</LongitudeDegrees>
            </Position>
            <AltitudeMeters>1707.5999755859375</AltitudeMeters>
            <DistanceMeters>82945.423821021</DistanceMeters>
          </Trackpoint>
          <Trackpoint>
            <Time>2019-08-02T08:48:41.000Z</Time>
            <Position>
              <LatitudeDegrees>40.78245121054351329803466796875</LatitudeDegrees>
              <LongitudeDegrees>-4.05232102610170841217041015625</LongitudeDegrees>
            </Position>
            <AltitudeMeters>1708.800048828125</AltitudeMeters>
            <DistanceMeters>82956.580459122</DistanceMeters>
          </Trackpoint>
          <Trackpoint>
            <Time>2019-08-02T08:48:45.000Z</Time>
            <Position>
              <LatitudeDegrees>40.782521031796932220458984375</LatitudeDegrees>
              <LongitudeDegrees>-4.052262268960475921630859375</LongitudeDegrees>
            </Position>
            <AltitudeMeters>1709.5999755859375</AltitudeMeters>
            <DistanceMeters>82965.795600948</DistanceMeters>
          </Trackpoint>
          <Trackpoint>
            <Time>2019-08-02T08:48:46.000Z</Time>
            <Position>
              <LatitudeDegrees>40.7825349457561969757080078125</LatitudeDegrees>
              <LongitudeDegrees>-4.05224986374378204345703125</LongitudeDegrees>
            </Position>
            <AltitudeMeters>1709.800048828125</AltitudeMeters>
            <DistanceMeters>82967.667410142</DistanceMeters>
          </Trackpoint>
          <Trackpoint>
            <Time>2019-08-02T08:48:52.000Z</Time>
            <Position>
              <LatitudeDegrees>40.7826237939298152923583984375</LatitudeDegrees>
              <LongitudeDegrees>-4.052172414958477020263671875</LongitudeDegrees>
            </Position>
            <AltitudeMeters>1711</AltitudeMeters>
            <DistanceMeters>82979.516445063</DistanceMeters>
          </Trackpoint>
          <Trackpoint>
            <Time>2019-08-02T08:48:57.000Z</Time>
            <Position>
              <LatitudeDegrees>40.78269747085869312286376953125</LatitudeDegrees>
              <LongitudeDegrees>-4.05210443772375583648681640625</LongitudeDegrees>
            </Position>
            <AltitudeMeters>1712.199951171875</AltitudeMeters>
            <DistanceMeters>82989.519107059</DistanceMeters>
          </Trackpoint>
          <Trackpoint>
            <Time>2019-08-02T08:49:04.000Z</Time>
            <Position>
              <LatitudeDegrees>40.78279118053615093231201171875</LatitudeDegrees>
              <LongitudeDegrees>-4.05201341025531291961669921875</LongitudeDegrees>
            </Position>
            <AltitudeMeters>1713.4000244140625</AltitudeMeters>
            <DistanceMeters>83002.466475096</DistanceMeters>
          </Trackpoint>
          <Trackpoint>
            <Time>2019-08-02T08:49:18.000Z</Time>
            <Position>
              <LatitudeDegrees>40.78297021798789501190185546875</LatitudeDegrees>
              <LongitudeDegrees>-4.05180369503796100616455078125</LongitudeDegrees>
            </Position>
            <AltitudeMeters>1714.5999755859375</AltitudeMeters>
            <DistanceMeters>83029.102278369</DistanceMeters>
          </Trackpoint>
          <Trackpoint>
            <Time>2019-08-02T08:49:27.000Z</Time>
            <Position>
              <LatitudeDegrees>40.78308605588972568511962890625</LatitudeDegrees>
              <LongitudeDegrees>-4.0516448579728603363037109375</LongitudeDegrees>
            </Position>
            <AltitudeMeters>1715.800048828125</AltitudeMeters>
            <DistanceMeters>83047.68771579</DistanceMeters>
          </Trackpoint>
          <Trackpoint>
            <Time>2019-08-02T08:49:45.000Z</Time>
            <Position>
              <LatitudeDegrees>40.78326174058020114898681640625</LatitudeDegrees>
              <LongitudeDegrees>-4.05129407532513141632080078125</LongitudeDegrees>
            </Position>
            <AltitudeMeters>1717</AltitudeMeters>
            <DistanceMeters>83083.13217072</DistanceMeters>
          </Trackpoint>
          <Trackpoint>
            <Time>2019-08-02T08:49:54.000Z</Time>
            <Position>
              <LatitudeDegrees>40.7833461463451385498046875</LatitudeDegrees>
              <LongitudeDegrees>-4.05115686357021331787109375</LongitudeDegrees>
            </Position>
            <AltitudeMeters>1718.199951171875</AltitudeMeters>
            <DistanceMeters>83098.031074678</DistanceMeters>
          </Trackpoint>
          <Trackpoint>
            <Time>2019-08-02T08:50:03.000Z</Time>
            <Position>
              <LatitudeDegrees>40.78343759290874004364013671875</LatitudeDegrees>
              <LongitudeDegrees>-4.0510433726012706756591796875</LongitudeDegrees>
            </Position>
            <AltitudeMeters>1719.4000244140625</AltitudeMeters>
            <DistanceMeters>83111.997738966</DistanceMeters>
          </Trackpoint>
          <Trackpoint>
            <Time>2019-08-02T08:50:19.000Z</Time>
            <Position>
              <LatitudeDegrees>40.78368351794779300689697265625</LatitudeDegrees>
              <LongitudeDegrees>-4.0508546121418476104736328125</LongitudeDegrees>
            </Position>
            <AltitudeMeters>1720.5999755859375</AltitudeMeters>
            <DistanceMeters>83143.656755611</DistanceMeters>
          </Trackpoint>
          <Trackpoint>
            <Time>2019-08-02T08:50:37.000Z</Time>
            <Position>
              <LatitudeDegrees>40.783958695828914642333984375</LatitudeDegrees>
              <LongitudeDegrees>-4.050728045403957366943359375</LongitudeDegrees>
            </Position>
            <AltitudeMeters>1721.800048828125</AltitudeMeters>
            <DistanceMeters>83176.088581094</DistanceMeters>
          </Trackpoint>
          <Trackpoint>
            <Time>2019-08-02T08:51:09.000Z</Time>
            <Position>
              <LatitudeDegrees>40.78447544015944004058837890625</LatitudeDegrees>
              <LongitudeDegrees>-4.05056853778660297393798828125</LongitudeDegrees>
            </Position>
            <AltitudeMeters>1723</AltitudeMeters>
            <DistanceMeters>83235.153321956</DistanceMeters>
          </Trackpoint>
          <Trackpoint>
            <Time>2019-08-02T08:51:39.000Z</Time>
            <Position>
              <LatitudeDegrees>40.78501707874238491058349609375</LatitudeDegrees>
              <LongitudeDegrees>-4.05047583393752574920654296875</LongitudeDegrees>
            </Position>
            <AltitudeMeters>1724.4000244140625</AltitudeMeters>
            <DistanceMeters>83295.942870014</DistanceMeters>
          </Trackpoint>
          <Trackpoint>
            <Time>2019-08-02T08:51:50.000Z</Time>
            <Position>
              <LatitudeDegrees>40.785205923020839691162109375</LatitudeDegrees>
              <LongitudeDegrees>-4.050457477569580078125</LongitudeDegrees>
            </Position>
            <AltitudeMeters>1723.199951171875</AltitudeMeters>
            <DistanceMeters>83317.018244272</DistanceMeters>
          </Trackpoint>
          <Trackpoint>
            <Time>2019-08-02T08:51:53.000Z</Time>
            <Position>
              <LatitudeDegrees>40.78525227494537830352783203125</LatitudeDegrees>
              <LongitudeDegrees>-4.05045588500797748565673828125</LongitudeDegrees>
            </Position>
            <AltitudeMeters>1722.4000244140625</AltitudeMeters>
            <DistanceMeters>83322.178641101</DistanceMeters>
          </Trackpoint>
          <Trackpoint>
            <Time>2019-08-02T08:51:54.000Z</Time>
            <Position>
              <LatitudeDegrees>40.7852681167423725128173828125</LatitudeDegrees>
              <LongitudeDegrees>-4.05045890249311923980712890625</LongitudeDegrees>
            </Position>
            <AltitudeMeters>1722</AltitudeMeters>
            <DistanceMeters>83323.961500296</DistanceMeters>
          </Trackpoint>
          <Trackpoint>
            <Time>2019-08-02T08:51:59.000Z</Time>
            <Position>
              <LatitudeDegrees>40.7853685319423675537109375</LatitudeDegrees>
              <LongitudeDegrees>-4.0504542924463748931884765625</LongitudeDegrees>
            </Position>
            <AltitudeMeters>1721</AltitudeMeters>
            <DistanceMeters>83335.144816385</DistanceMeters>
          </Trackpoint>
          <Trackpoint>
            <Time>2019-08-02T08:52:15.000Z</Time>
            <Position>
              <LatitudeDegrees>40.7856635749340057373046875</LatitudeDegrees>
              <LongitudeDegrees>-4.05053635127842426300048828125</LongitudeDegrees>
            </Position>
            <AltitudeMeters>1719.800048828125</AltitudeMeters>
            <DistanceMeters>83368.703914614</DistanceMeters>
          </Trackpoint>
          <Trackpoint>
            <Time>2019-08-02T08:52:50.000Z</Time>
            <Position>
              <LatitudeDegrees>40.78596624545753002166748046875</LatitudeDegrees>
              <LongitudeDegrees>-4.05112425796687602996826171875</LongitudeDegrees>
            </Position>
            <AltitudeMeters>1719.5999755859375</AltitudeMeters>
            <DistanceMeters>83428.616882721</DistanceMeters>
          </Trackpoint>
          <Trackpoint>
            <Time>2019-08-02T08:53:10.000Z</Time>
            <Position>
              <LatitudeDegrees>40.78604754991829395294189453125</LatitudeDegrees>
              <LongitudeDegrees>-4.05154385603964328765869140625</LongitudeDegrees>
            </Position>
            <AltitudeMeters>1718.5999755859375</AltitudeMeters>
            <DistanceMeters>83465.117285711</DistanceMeters>
          </Trackpoint>
          <Trackpoint>
            <Time>2019-08-02T08:53:42.000Z</Time>
            <Position>
              <LatitudeDegrees>40.78615668229758739471435546875</LatitudeDegrees>
              <LongitudeDegrees>-4.0522478520870208740234375</LongitudeDegrees>
            </Position>
            <AltitudeMeters>1717.800048828125</AltitudeMeters>
            <DistanceMeters>83525.675627049</DistanceMeters>
          </Trackpoint>
          <Trackpoint>
            <Time>2019-08-02T08:53:52.000Z</Time>
            <Position>
              <LatitudeDegrees>40.786203704774379730224609375</LatitudeDegrees>
              <LongitudeDegrees>-4.05247575603425502777099609375</LongitudeDegrees>
            </Position>
            <AltitudeMeters>1717.5999755859375</AltitudeMeters>
            <DistanceMeters>83545.58185257</DistanceMeters>
          </Trackpoint>
          <Trackpoint>
            <Time>2019-08-02T08:54:01.000Z</Time>
            <Position>
              <LatitudeDegrees>40.7862189598381519317626953125</LatitudeDegrees>
              <LongitudeDegrees>-4.05265563167631626129150390625</LongitudeDegrees>
            </Position>
            <AltitudeMeters>1716.199951171875</AltitudeMeters>
            <DistanceMeters>83560.83504632</DistanceMeters>
          </Trackpoint>
          <Trackpoint>
            <Time>2019-08-02T08:54:21.000Z</Time>
            <Position>
              <LatitudeDegrees>40.78622574917972087860107421875</LatitudeDegrees>
              <LongitudeDegrees>-4.0531056560575962066650390625</LongitudeDegrees>
            </Position>
            <AltitudeMeters>1716.199951171875</AltitudeMeters>
            <DistanceMeters>83598.767373044</DistanceMeters>
          </Trackpoint>
          <Trackpoint>
            <Time>2019-08-02T08:54:25.000Z</Time>
            <Position>
              <LatitudeDegrees>40.78621409833431243896484375</LatitudeDegrees>
              <LongitudeDegrees>-4.0531753934919834136962890625</LongitudeDegrees>
            </Position>
            <AltitudeMeters>1716.4000244140625</AltitudeMeters>
            <DistanceMeters>83604.786398438</DistanceMeters>
          </Trackpoint>
          <Trackpoint>
            <Time>2019-08-02T08:54:29.000Z</Time>
            <Position>
              <LatitudeDegrees>40.786209069192409515380859375</LatitudeDegrees>
              <LongitudeDegrees>-4.0532488189637660980224609375</LongitudeDegrees>
            </Position>
            <AltitudeMeters>1716.4000244140625</AltitudeMeters>
            <DistanceMeters>83610.999576111</DistanceMeters>
          </Trackpoint>
          <Trackpoint>
            <Time>2019-08-02T08:54:47.000Z</Time>
            <Position>
              <LatitudeDegrees>40.78622457571327686309814453125</LatitudeDegrees>
              <LongitudeDegrees>-4.05364452861249446868896484375</LongitudeDegrees>
            </Position>
            <AltitudeMeters>1716.4000244140625</AltitudeMeters>
            <DistanceMeters>83644.391698525</DistanceMeters>
          </Trackpoint>
          <Trackpoint>
            <Time>2019-08-02T08:54:56.000Z</Time>
            <Position>
              <LatitudeDegrees>40.78620211221277713775634765625</LatitudeDegrees>
              <LongitudeDegrees>-4.0538570098578929901123046875</LongitudeDegrees>
            </Position>
            <AltitudeMeters>1716.5999755859375</AltitudeMeters>
            <DistanceMeters>83662.471763991</DistanceMeters>
          </Trackpoint>
          <Trackpoint>
            <Time>2019-08-02T08:55:18.000Z</Time>
            <Position>
              <LatitudeDegrees>40.7860605418682098388671875</LatitudeDegrees>
              <LongitudeDegrees>-4.05454315245151519775390625</LongitudeDegrees>
            </Position>
            <AltitudeMeters>1717</AltitudeMeters>
            <DistanceMeters>83722.403267779</DistanceMeters>
          </Trackpoint>
          <Trackpoint>
            <Time>2019-08-02T08:55:19.000Z</Time>
            <Position>
              <LatitudeDegrees>40.7860529981553554534912109375</LatitudeDegrees>
              <LongitudeDegrees>-4.054565615952014923095703125</LongitudeDegrees>
            </Position>
            <AltitudeMeters>1717.199951171875</AltitudeMeters>
            <DistanceMeters>83724.476505919</DistanceMeters>
          </Trackpoint>
          <Trackpoint>
            <Time>2019-08-02T08:55:35.000Z</Time>
            <Position>
              <LatitudeDegrees>40.7859359867870807647705078125</LatitudeDegrees>
              <LongitudeDegrees>-4.05510373413562774658203125</LongitudeDegrees>
            </Position>
            <AltitudeMeters>1718</AltitudeMeters>
            <DistanceMeters>83771.658298331</DistanceMeters>
          </Trackpoint>
          <Trackpoint>
            <Time>2019-08-02T08:55:55.000Z</Time>
            <Position>
              <LatitudeDegrees>40.7857113517820835113525390625</LatitudeDegrees>
              <LongitudeDegrees>-4.05578610487282276153564453125</LongitudeDegrees>
            </Position>
            <AltitudeMeters>1717.5999755859375</AltitudeMeters>
            <DistanceMeters>83834.363978348</DistanceMeters>
          </Trackpoint>
          <Trackpoint>
            <Time>2019-08-02T08:55:58.000Z</Time>
            <Position>
              <LatitudeDegrees>40.78567790798842906951904296875</LatitudeDegrees>
              <LongitudeDegrees>-4.05588769353926181793212890625</LongitudeDegrees>
            </Position>
            <AltitudeMeters>1716.5999755859375</AltitudeMeters>
            <DistanceMeters>83843.699355563</DistanceMeters>
          </Trackpoint>
          <Trackpoint>
            <Time>2019-08-02T08:56:05.000Z</Time>
            <Position>
              <LatitudeDegrees>40.785631053149700164794921875</LatitudeDegrees>
              <LongitudeDegrees>-4.05613361857831478118896484375</LongitudeDegrees>
            </Position>
            <AltitudeMeters>1715.4000244140625</AltitudeMeters>
            <DistanceMeters>83865.07043898</DistanceMeters>
          </Trackpoint>
          <Trackpoint>
            <Time>2019-08-02T08:56:11.000Z</Time>
            <Position>
              <LatitudeDegrees>40.78557497821748256683349609375</LatitudeDegrees>
              <LongitudeDegrees>-4.05634962022304534912109375</LongitudeDegrees>
            </Position>
            <AltitudeMeters>1714</AltitudeMeters>
            <DistanceMeters>83884.313759244</DistanceMeters>
          </Trackpoint>
          <Trackpoint>
            <Time>2019-08-02T08:56:32.000Z</Time>
            <Position>
              <LatitudeDegrees>40.78553818166255950927734375</LatitudeDegrees>
              <LongitudeDegrees>-4.05706702731549739837646484375</LongitudeDegrees>
            </Position>
            <AltitudeMeters>1713.199951171875</AltitudeMeters>
            <DistanceMeters>83944.910559697</DistanceMeters>
          </Trackpoint>
          <Trackpoint>
            <Time>2019-08-02T08:56:55.000Z</Time>
            <Position>
              <LatitudeDegrees>40.78572191298007965087890625</LatitudeDegrees>
              <LongitudeDegrees>-4.05774830840528011322021484375</LongitudeDegrees>
            </Position>
            <AltitudeMeters>1713.800048828125</AltitudeMeters>
            <DistanceMeters>84005.857511838</DistanceMeters>
          </Trackpoint>
          <Trackpoint>
            <Time>2019-08-02T08:57:18.000Z</Time>
            <Position>
              <LatitudeDegrees>40.78606984578073024749755859375</LatitudeDegrees>
              <LongitudeDegrees>-4.058313667774200439453125</LongitudeDegrees>
            </Position>
            <AltitudeMeters>1713.5999755859375</AltitudeMeters>
            <DistanceMeters>84067.255139008</DistanceMeters>
          </Trackpoint>
          <Trackpoint>
            <Time>2019-08-02T08:57:25.000Z</Time>
            <Position>
              <LatitudeDegrees>40.78620043583214282989501953125</LatitudeDegrees>
              <LongitudeDegrees>-4.058438055217266082763671875</LongitudeDegrees>
            </Position>
            <AltitudeMeters>1714.4000244140625</AltitudeMeters>
            <DistanceMeters>84085.175675793</DistanceMeters>
          </Trackpoint>
          <Trackpoint>
            <Time>2019-08-02T08:57:32.000Z</Time>
            <Position>
              <LatitudeDegrees>40.78634091652929782867431640625</LatitudeDegrees>
              <LongitudeDegrees>-4.058539979159832000732421875</LongitudeDegrees>
            </Position>
            <AltitudeMeters>1715.5999755859375</AltitudeMeters>
            <DistanceMeters>84103.01540713</DistanceMeters>
          </Trackpoint>
          <Trackpoint>
            <Time>2019-08-02T08:57:38.000Z</Time>
            <Position>
              <LatitudeDegrees>40.78646614216268062591552734375</LatitudeDegrees>
              <LongitudeDegrees>-4.05861013568937778472900390625</LongitudeDegrees>
            </Position>
            <AltitudeMeters>1716.4000244140625</AltitudeMeters>
            <DistanceMeters>84118.155402522</DistanceMeters>
          </Trackpoint>
          <Trackpoint>
            <Time>2019-08-02T08:57:54.000Z</Time>
            <Position>
              <LatitudeDegrees>40.78675322234630584716796875</LatitudeDegrees>
              <LongitudeDegrees>-4.05874391086399555206298828125</LongitudeDegrees>
            </Position>
            <AltitudeMeters>1716.199951171875</AltitudeMeters>
            <DistanceMeters>84152.038256575</DistanceMeters>
          </Trackpoint>
          <Trackpoint>
            <Time>2019-08-02T08:58:18.000Z</Time>
            <Position>
              <LatitudeDegrees>40.78722126781940460205078125</LatitudeDegrees>
              <LongitudeDegrees>-4.058913476765155792236328125</LongitudeDegrees>
            </Position>
            <AltitudeMeters>1717.199951171875</AltitudeMeters>
            <DistanceMeters>84206.056910967</DistanceMeters>
          </Trackpoint>
          <Trackpoint>
            <Time>2019-08-02T08:58:25.000Z</Time>
            <Position>
              <LatitudeDegrees>40.7873511873185634613037109375</LatitudeDegrees>
              <LongitudeDegrees>-4.0589481778442859649658203125</LongitudeDegrees>
            </Position>
            <AltitudeMeters>1718.199951171875</AltitudeMeters>
            <DistanceMeters>84220.810248305</DistanceMeters>
          </Trackpoint>
          <Trackpoint>
            <Time>2019-08-02T08:58:30.000Z</Time>
            <Position>
              <LatitudeDegrees>40.7874534465372562408447265625</LatitudeDegrees>
              <LongitudeDegrees>-4.05898598022758960723876953125</LongitudeDegrees>
            </Position>
            <AltitudeMeters>1719.4000244140625</AltitudeMeters>
            <DistanceMeters>84232.629524196</DistanceMeters>
          </Trackpoint>
          <Trackpoint>
            <Time>2019-08-02T08:58:35.000Z</Time>
            <Position>
              <LatitudeDegrees>40.787540115416049957275390625</LatitudeDegrees>
              <LongitudeDegrees>-4.05901573598384857177734375</LongitudeDegrees>
            </Position>
            <AltitudeMeters>1720.4000244140625</AltitudeMeters>
            <DistanceMeters>84242.596916084</DistanceMeters>
          </Trackpoint>
          <Trackpoint>
            <Time>2019-08-02T08:58:40.000Z</Time>
            <Position>
              <LatitudeDegrees>40.7876294665038585662841796875</LatitudeDegrees>
              <LongitudeDegrees>-4.059036187827587127685546875</LongitudeDegrees>
            </Position>
            <AltitudeMeters>1721.199951171875</AltitudeMeters>
            <DistanceMeters>84252.690345751</DistanceMeters>
          </Trackpoint>
          <Trackpoint>
            <Time>2019-08-02T08:58:45.000Z</Time>
            <Position>
              <LatitudeDegrees>40.78771839849650859832763671875</LatitudeDegrees>
              <LongitudeDegrees>-4.05905772931873798370361328125</LongitudeDegrees>
            </Position>
            <AltitudeMeters>1722.4000244140625</AltitudeMeters>
            <DistanceMeters>84262.753760048</DistanceMeters>
          </Trackpoint>
          <Trackpoint>
            <Time>2019-08-02T08:58:51.000Z</Time>
            <Position>
              <LatitudeDegrees>40.78783876262605190277099609375</LatitudeDegrees>
              <LongitudeDegrees>-4.059078432619571685791015625</LongitudeDegrees>
            </Position>
            <AltitudeMeters>1723.4000244140625</AltitudeMeters>
            <DistanceMeters>84276.263604795</DistanceMeters>
          </Trackpoint>
          <Trackpoint>
            <Time>2019-08-02T08:58:56.000Z</Time>
            <Position>
              <LatitudeDegrees>40.78793884254992008209228515625</LatitudeDegrees>
              <LongitudeDegrees>-4.05909511260688304901123046875</LongitudeDegrees>
            </Position>
            <AltitudeMeters>1724.4000244140625</AltitudeMeters>
            <DistanceMeters>84287.49084119</DistanceMeters>
          </Trackpoint>
          <Trackpoint>
            <Time>2019-08-02T08:59:01.000Z</Time>
            <Position>
              <LatitudeDegrees>40.78803674317896366119384765625</LatitudeDegrees>
              <LongitudeDegrees>-4.059105925261974334716796875</LongitudeDegrees>
            </Position>
            <AltitudeMeters>1725.4000244140625</AltitudeMeters>
            <DistanceMeters>84298.425108981</DistanceMeters>
          </Trackpoint>
          <Trackpoint>
            <Time>2019-08-02T08:59:07.000Z</Time>
            <Position>
              <LatitudeDegrees>40.78814755193889141082763671875</LatitudeDegrees>
              <LongitudeDegrees>-4.0591174922883510589599609375</LongitudeDegrees>
            </Position>
            <AltitudeMeters>1726.5999755859375</AltitudeMeters>
            <DistanceMeters>84310.796477767</DistanceMeters>
          </Trackpoint>
          <Trackpoint>
            <Time>2019-08-02T08:59:11.000Z</Time>
            <Position>
              <LatitudeDegrees>40.7882197201251983642578125</LatitudeDegrees>
              <LongitudeDegrees>-4.05912126414477825164794921875</LongitudeDegrees>
            </Position>
            <AltitudeMeters>1727.5999755859375</AltitudeMeters>
            <DistanceMeters>84318.835086293</DistanceMeters>
          </Trackpoint>
          <Trackpoint>
            <Time>2019-08-02T08:59:15.000Z</Time>
            <Position>
              <LatitudeDegrees>40.7882876135408878326416015625</LatitudeDegrees>
              <LongitudeDegrees>-4.0591288916766643524169921875</LongitudeDegrees>
            </Position>
            <AltitudeMeters>1728.5999755859375</AltitudeMeters>
            <DistanceMeters>84326.419385005</DistanceMeters>
          </Trackpoint>
          <Trackpoint>
            <Time>2019-08-02T08:59:23.000Z</Time>
            <Position>
              <LatitudeDegrees>40.78843622468411922454833984375</LatitudeDegrees>
              <LongitudeDegrees>-4.05913651920855045318603515625</LongitudeDegrees>
            </Position>
            <AltitudeMeters>1729.800048828125</AltitudeMeters>
            <DistanceMeters>84342.972591329</DistanceMeters>
          </Trackpoint>
          <Trackpoint>
            <Time>2019-08-02T08:59:28.000Z</Time>
            <Position>
              <LatitudeDegrees>40.78851618804037570953369140625</LatitudeDegrees>
              <LongitudeDegrees>-4.0591438114643096923828125</LongitudeDegrees>
            </Position>
            <AltitudeMeters>1731</AltitudeMeters>
            <DistanceMeters>84351.89448148</DistanceMeters>
          </Trackpoint>
          <Trackpoint>
            <Time>2019-08-02T08:59:34.000Z</Time>
            <Position>
              <LatitudeDegrees>40.788627751171588897705078125</LatitudeDegrees>
              <LongitudeDegrees>-4.05915345065295696258544921875</LongitudeDegrees>
            </Position>
            <AltitudeMeters>1732</AltitudeMeters>
            <DistanceMeters>84364.338265103</DistanceMeters>
          </Trackpoint>
          <Trackpoint>
            <Time>2019-08-02T08:59:39.000Z</Time>
            <Position>
              <LatitudeDegrees>40.7887043617665767669677734375</LatitudeDegrees>
              <LongitudeDegrees>-4.0591570548713207244873046875</LongitudeDegrees>
            </Position>
            <AltitudeMeters>1733</AltitudeMeters>
            <DistanceMeters>84372.870584617</DistanceMeters>
          </Trackpoint>
          <Trackpoint>
            <Time>2019-08-02T08:59:43.000Z</Time>
            <Position>
              <LatitudeDegrees>40.78876010142266750335693359375</LatitudeDegrees>
              <LongitudeDegrees>-4.05916459858417510986328125</LongitudeDegrees>
            </Position>
            <AltitudeMeters>1734.199951171875</AltitudeMeters>
            <DistanceMeters>84379.106972934</DistanceMeters>
          </Trackpoint>
          <Trackpoint>
            <Time>2019-08-02T08:59:47.000Z</Time>
            <Position>
              <LatitudeDegrees>40.78882682137191295623779296875</LatitudeDegrees>
              <LongitudeDegrees>-4.05916518531739711761474609375</LongitudeDegrees>
            </Position>
            <AltitudeMeters>1735.4000244140625</AltitudeMeters>
            <DistanceMeters>84386.532445765</DistanceMeters>
          </Trackpoint>
          <Trackpoint>
            <Time>2019-08-02T08:59:53.000Z</Time>
            <Position>
              <LatitudeDegrees>40.788929164409637451171875</LatitudeDegrees>
              <LongitudeDegrees>-4.05916334129869937896728515625</LongitudeDegrees>
            </Position>
            <AltitudeMeters>1736.4000244140625</AltitudeMeters>
            <DistanceMeters>84397.924559645</DistanceMeters>
          </Trackpoint>
          <Trackpoint>
            <Time>2019-08-02T08:59:59.000Z</Time>
            <Position>
              <LatitudeDegrees>40.78901591710746288299560546875</LatitudeDegrees>
              <LongitudeDegrees>-4.0591741539537906646728515625</LongitudeDegrees>
            </Position>
            <AltitudeMeters>1737.4000244140625</AltitudeMeters>
            <DistanceMeters>84407.62380376</DistanceMeters>
          </Trackpoint>
          <Trackpoint>
            <Time>2019-08-02T09:00:09.000Z</Time>
            <Position>
              <LatitudeDegrees>40.7891477644443511962890625</LatitudeDegrees>
              <LongitudeDegrees>-4.05918111093342304229736328125</LongitudeDegrees>
            </Position>
            <AltitudeMeters>1738.5999755859375</AltitudeMeters>
            <DistanceMeters>84422.310581351</DistanceMeters>
          </Trackpoint>
          <Trackpoint>
            <Time>2019-08-02T09:00:14.000Z</Time>
            <Position>
              <LatitudeDegrees>40.78923024237155914306640625</LatitudeDegrees>
              <LongitudeDegrees>-4.0591768361628055572509765625</LongitudeDegrees>
            </Position>
            <AltitudeMeters>1739.4000244140625</AltitudeMeters>
            <DistanceMeters>84431.497753088</DistanceMeters>
          </Trackpoint>
          <Trackpoint>
            <Time>2019-08-02T09:00:17.000Z</Time>
            <Position>
              <LatitudeDegrees>40.78927709721028804779052734375</LatitudeDegrees>
              <LongitudeDegrees>-4.05917960219085216522216796875</LongitudeDegrees>
            </Position>
            <AltitudeMeters>1740.199951171875</AltitudeMeters>
            <DistanceMeters>84436.718171721</DistanceMeters>
          </Trackpoint>
          <Trackpoint>
            <Time>2019-08-02T09:00:20.000Z</Time>
            <Position>
              <LatitudeDegrees>40.789320766925811767578125</LatitudeDegrees>
              <LongitudeDegrees>-4.059185720980167388916015625</LongitudeDegrees>
            </Position>
            <AltitudeMeters>1740.5999755859375</AltitudeMeters>
            <DistanceMeters>84441.606277926</DistanceMeters>
          </Trackpoint>
          <Trackpoint>
            <Time>2019-08-02T09:00:26.000Z</Time>
            <Position>
              <LatitudeDegrees>40.78941171057522296905517578125</LatitudeDegrees>
              <LongitudeDegrees>-4.05919116921722888946533203125</LongitudeDegrees>
            </Position>
            <AltitudeMeters>1741.4000244140625</AltitudeMeters>
            <DistanceMeters>84451.738995685</DistanceMeters>
          </Trackpoint>
          <Trackpoint>
            <Time>2019-08-02T09:00:32.000Z</Time>
            <Position>
              <LatitudeDegrees>40.78950022347271442413330078125</LatitudeDegrees>
              <LongitudeDegrees>-4.05918831937015056610107421875</LongitudeDegrees>
            </Position>
            <AltitudeMeters>1742.5999755859375</AltitudeMeters>
            <DistanceMeters>84461.593408</DistanceMeters>
          </Trackpoint>
          <Trackpoint>
            <Time>2019-08-02T09:00:47.000Z</Time>
            <Position>
              <LatitudeDegrees>40.78971848823130130767822265625</LatitudeDegrees>
              <LongitudeDegrees>-4.05920508317649364471435546875</LongitudeDegrees>
            </Position>
            <AltitudeMeters>1743.5999755859375</AltitudeMeters>
            <DistanceMeters>84485.92804079</DistanceMeters>
          </Trackpoint>
          <Trackpoint>
            <Time>2019-08-02T09:01:16.000Z</Time>
            <Position>
              <LatitudeDegrees>40.79024235717952251434326171875</LatitudeDegrees>
              <LongitudeDegrees>-4.0592361800372600555419921875</LongitudeDegrees>
            </Position>
            <AltitudeMeters>1744.4000244140625</AltitudeMeters>
            <DistanceMeters>84544.294714321</DistanceMeters>
          </Trackpoint>
          <Trackpoint>
            <Time>2019-08-02T09:01:24.000Z</Time>
            <Position>
              <LatitudeDegrees>40.7903896272182464599609375</LatitudeDegrees>
              <LongitudeDegrees>-4.059259481728076934814453125</LongitudeDegrees>
            </Position>
            <AltitudeMeters>1745.4000244140625</AltitudeMeters>
            <DistanceMeters>84560.803674532</DistanceMeters>
          </Trackpoint>
          <Trackpoint>
            <Time>2019-08-02T09:01:31.000Z</Time>
            <Position>
              <LatitudeDegrees>40.790502615272998809814453125</LatitudeDegrees>
              <LongitudeDegrees>-4.05929200351238250732421875</LongitudeDegrees>
            </Position>
            <AltitudeMeters>1746.5999755859375</AltitudeMeters>
            <DistanceMeters>84573.674796567</DistanceMeters>
          </Trackpoint>
          <Trackpoint>
            <Time>2019-08-02T09:01:32.000Z</Time>
            <Position>
              <LatitudeDegrees>40.790511667728424072265625</LatitudeDegrees>
              <LongitudeDegrees>-4.05930181033909320831298828125</LongitudeDegrees>
            </Position>
            <AltitudeMeters>1746.800048828125</AltitudeMeters>
            <DistanceMeters>84574.97773723</DistanceMeters>
          </Trackpoint>
          <Trackpoint>
            <Time>2019-08-02T09:01:37.000Z</Time>
            <Position>
              <LatitudeDegrees>40.79058635048568248748779296875</LatitudeDegrees>
              <LongitudeDegrees>-4.0593360923230648040771484375</LongitudeDegrees>
            </Position>
            <AltitudeMeters>1747.5999755859375</AltitudeMeters>
            <DistanceMeters>84583.777847206</DistanceMeters>
          </Trackpoint>
          <Trackpoint>
            <Time>2019-08-02T09:02:01.000Z</Time>
            <Position>
              <LatitudeDegrees>40.79103578813374042510986328125</LatitudeDegrees>
              <LongitudeDegrees>-4.059421755373477935791015625</LongitudeDegrees>
            </Position>
            <AltitudeMeters>1748.5999755859375</AltitudeMeters>
            <DistanceMeters>84634.31928619</DistanceMeters>
          </Trackpoint>
          <Trackpoint>
            <Time>2019-08-02T09:02:22.000Z</Time>
            <Position>
              <LatitudeDegrees>40.79137760214507579803466796875</LatitudeDegrees>
              <LongitudeDegrees>-4.0595198236405849456787109375</LongitudeDegrees>
            </Position>
            <AltitudeMeters>1749.5999755859375</AltitudeMeters>
            <DistanceMeters>84673.251024797</DistanceMeters>
          </Trackpoint>
          <Trackpoint>
            <Time>2019-08-02T09:02:32.000Z</Time>
            <Position>
              <LatitudeDegrees>40.79154708422720432281494140625</LatitudeDegrees>
              <LongitudeDegrees>-4.059560559689998626708984375</LongitudeDegrees>
            </Position>
            <AltitudeMeters>1750.5999755859375</AltitudeMeters>
            <DistanceMeters>84692.424298175</DistanceMeters>
          </Trackpoint>
          <Trackpoint>
            <Time>2019-08-02T09:03:05.000Z</Time>
            <Position>
              <LatitudeDegrees>40.79207866452634334564208984375</LatitudeDegrees>
              <LongitudeDegrees>-4.059691987931728363037109375</LongitudeDegrees>
            </Position>
            <AltitudeMeters>1749.199951171875</AltitudeMeters>
            <DistanceMeters>84752.617852586</DistanceMeters>
          </Trackpoint>
          <Trackpoint>
            <Time>2019-08-02T09:03:07.000Z</Time>
            <Position>
              <LatitudeDegrees>40.7921084202826023101806640625</LatitudeDegrees>
              <LongitudeDegrees>-4.05970598571002483367919921875</LongitudeDegrees>
            </Position>
            <AltitudeMeters>1749</AltitudeMeters>
            <DistanceMeters>84756.132556639</DistanceMeters>
          </Trackpoint>
          <Trackpoint>
            <Time>2019-08-02T09:03:20.000Z</Time>
            <Position>
              <LatitudeDegrees>40.7922660000622272491455078125</LatitudeDegrees>
              <LongitudeDegrees>-4.0598346479237079620361328125</LongitudeDegrees>
            </Position>
            <AltitudeMeters>1749.800048828125</AltitudeMeters>
            <DistanceMeters>84776.752039882</DistanceMeters>
          </Trackpoint>
          <Trackpoint>
            <Time>2019-08-02T09:03:26.000Z</Time>
            <Position>
              <LatitudeDegrees>40.79240388236939907073974609375</LatitudeDegrees>
              <LongitudeDegrees>-4.0598601289093494415283203125</LongitudeDegrees>
            </Position>
            <AltitudeMeters>1749.5999755859375</AltitudeMeters>
            <DistanceMeters>84792.248097213</DistanceMeters>
          </Trackpoint>
          <Trackpoint>
            <Time>2019-08-02T09:03:30.000Z</Time>
            <Position>
              <LatitudeDegrees>40.79247303307056427001953125</LatitudeDegrees>
              <LongitudeDegrees>-4.05988234095275402069091796875</LongitudeDegrees>
            </Position>
            <AltitudeMeters>1749</AltitudeMeters>
            <DistanceMeters>84800.169017054</DistanceMeters>
          </Trackpoint>
          <Trackpoint>
            <Time>2019-08-02T09:03:32.000Z</Time>
            <Position>
              <LatitudeDegrees>40.7925080694258213043212890625</LatitudeDegrees>
              <LongitudeDegrees>-4.05989147722721099853515625</LongitudeDegrees>
            </Position>
            <AltitudeMeters>1748.800048828125</AltitudeMeters>
            <DistanceMeters>84804.144269722</DistanceMeters>
          </Trackpoint>
          <Trackpoint>
            <Time>2019-08-02T09:03:40.000Z</Time>
            <Position>
              <LatitudeDegrees>40.79262650571763515472412109375</LatitudeDegrees>
              <LongitudeDegrees>-4.05986608006060123443603515625</LongitudeDegrees>
            </Position>
            <AltitudeMeters>1747.5999755859375</AltitudeMeters>
            <DistanceMeters>84817.49915796</DistanceMeters>
          </Trackpoint>
          <Trackpoint>
            <Time>2019-08-02T09:03:41.000Z</Time>
            <Position>
              <LatitudeDegrees>40.7926426827907562255859375</LatitudeDegrees>
              <LongitudeDegrees>-4.0598691813647747039794921875</LongitudeDegrees>
            </Position>
            <AltitudeMeters>1747.199951171875</AltitudeMeters>
            <DistanceMeters>84819.317126051</DistanceMeters>
          </Trackpoint>
          <Trackpoint>
            <Time>2019-08-02T09:03:44.000Z</Time>
            <Position>
              <LatitudeDegrees>40.7926837541162967681884765625</LatitudeDegrees>
              <LongitudeDegrees>-4.0599077381193637847900390625</LongitudeDegrees>
            </Position>
            <AltitudeMeters>1746.4000244140625</AltitudeMeters>
            <DistanceMeters>84824.926117612</DistanceMeters>
          </Trackpoint>
          <Trackpoint>
            <Time>2019-08-02T09:03:48.000Z</Time>
            <Position>
              <LatitudeDegrees>40.79271367751061916351318359375</LatitudeDegrees>
              <LongitudeDegrees>-4.05994000844657421112060546875</LongitudeDegrees>
            </Position>
            <AltitudeMeters>1746.199951171875</AltitudeMeters>
            <DistanceMeters>84829.226535796</DistanceMeters>
          </Trackpoint>
          <Trackpoint>
            <Time>2019-08-02T09:04:02.000Z</Time>
            <Position>
              <LatitudeDegrees>40.79271803610026836395263671875</LatitudeDegrees>
              <LongitudeDegrees>-4.05997822992503643035888671875</LongitudeDegrees>
            </Position>
            <AltitudeMeters>1746.199951171875</AltitudeMeters>
            <DistanceMeters>84832.485273265</DistanceMeters>
          </Trackpoint>
          <Trackpoint>
            <Time>2019-08-02T09:04:10.000Z</Time>
            <Position>
              <LatitudeDegrees>40.79267478547990322113037109375</LatitudeDegrees>
              <LongitudeDegrees>-4.0601779706776142120361328125</LongitudeDegrees>
            </Position>
            <AltitudeMeters>1746</AltitudeMeters>
            <DistanceMeters>84849.991350335</DistanceMeters>
          </Trackpoint>
          <Trackpoint>
            <Time>2019-08-02T09:04:18.000Z</Time>
            <Position>
              <LatitudeDegrees>40.79270596615970134735107421875</LatitudeDegrees>
              <LongitudeDegrees>-4.06025801785290241241455078125</LongitudeDegrees>
            </Position>
            <AltitudeMeters>1745.5999755859375</AltitudeMeters>
            <DistanceMeters>84857.576839581</DistanceMeters>
          </Trackpoint>
          <Trackpoint>
            <Time>2019-08-02T09:06:19.000Z</Time>
            <Position>
              <LatitudeDegrees>40.7928064651787281036376953125</LatitudeDegrees>
              <LongitudeDegrees>-4.06034250743687152862548828125</LongitudeDegrees>
            </Position>
            <AltitudeMeters>1733.800048828125</AltitudeMeters>
            <DistanceMeters>84870.835705604</DistanceMeters>
          </Trackpoint>
          <Trackpoint>
            <Time>2019-08-02T09:06:23.000Z</Time>
            <Position>
              <LatitudeDegrees>40.7928762026131153106689453125</LatitudeDegrees>
              <LongitudeDegrees>-4.06040889210999011993408203125</LongitudeDegrees>
            </Position>
            <AltitudeMeters>1733.5999755859375</AltitudeMeters>
            <DistanceMeters>84880.40324891</DistanceMeters>
          </Trackpoint>
          <Trackpoint>
            <Time>2019-08-02T09:06:30.000Z</Time>
            <Position>
              <LatitudeDegrees>40.79301592893898487091064453125</LatitudeDegrees>
              <LongitudeDegrees>-4.060579799115657806396484375</LongitudeDegrees>
            </Position>
            <AltitudeMeters>1732.5999755859375</AltitudeMeters>
            <DistanceMeters>84901.598893112</DistanceMeters>
          </Trackpoint>
          <Trackpoint>
            <Time>2019-08-02T09:06:41.000Z</Time>
            <Position>
              <LatitudeDegrees>40.7933016680181026458740234375</LatitudeDegrees>
              <LongitudeDegrees>-4.06085816211998462677001953125</LongitudeDegrees>
            </Position>
            <AltitudeMeters>1733.4000244140625</AltitudeMeters>
            <DistanceMeters>84941.116298137</DistanceMeters>
          </Trackpoint>
          <Trackpoint>
            <Time>2019-08-02T09:06:51.000Z</Time>
            <Position>
              <LatitudeDegrees>40.793571062386035919189453125</LatitudeDegrees>
              <LongitudeDegrees>-4.0611217729747295379638671875</LongitudeDegrees>
            </Position>
            <AltitudeMeters>1734.5999755859375</AltitudeMeters>
            <DistanceMeters>84978.431801855</DistanceMeters>
          </Trackpoint>
          <Trackpoint>
            <Time>2019-08-02T09:06:56.000Z</Time>
            <Position>
              <LatitudeDegrees>40.7937120459973812103271484375</LatitudeDegrees>
              <LongitudeDegrees>-4.06123928725719451904296875</LongitudeDegrees>
            </Position>
            <AltitudeMeters>1735.5999755859375</AltitudeMeters>
            <DistanceMeters>84996.98660432</DistanceMeters>
          </Trackpoint>
          <Trackpoint>
            <Time>2019-08-02T09:07:02.000Z</Time>
            <Position>
              <LatitudeDegrees>40.7938845455646514892578125</LatitudeDegrees>
              <LongitudeDegrees>-4.0613752417266368865966796875</LongitudeDegrees>
            </Position>
            <AltitudeMeters>1736.800048828125</AltitudeMeters>
            <DistanceMeters>85019.343948784</DistanceMeters>
          </Trackpoint>
          <Trackpoint>
            <Time>2019-08-02T09:07:07.000Z</Time>
            <Position>
              <LatitudeDegrees>40.7940178178250789642333984375</LatitudeDegrees>
              <LongitudeDegrees>-4.061484038829803466796875</LongitudeDegrees>
            </Position>
            <AltitudeMeters>1737.5999755859375</AltitudeMeters>
            <DistanceMeters>85036.78180399</DistanceMeters>
          </Trackpoint>
          <Trackpoint>
            <Time>2019-08-02T09:07:12.000Z</Time>
            <Position>
              <LatitudeDegrees>40.79414136707782745361328125</LatitudeDegrees>
              <LongitudeDegrees>-4.061593003571033477783203125</LongitudeDegrees>
            </Position>
            <AltitudeMeters>1738.800048828125</AltitudeMeters>
            <DistanceMeters>85053.316725353</DistanceMeters>
          </Trackpoint>
          <Trackpoint>
            <Time>2019-08-02T09:07:17.000Z</Time>
            <Position>
              <LatitudeDegrees>40.79425041563808917999267578125</LatitudeDegrees>
              <LongitudeDegrees>-4.0617138706147670745849609375</LongitudeDegrees>
            </Position>
            <AltitudeMeters>1739.800048828125</AltitudeMeters>
            <DistanceMeters>85069.160844929</DistanceMeters>
          </Trackpoint>
          <Trackpoint>
            <Time>2019-08-02T09:07:22.000Z</Time>
            <Position>
              <LatitudeDegrees>40.79435066320002079010009765625</LatitudeDegrees>
              <LongitudeDegrees>-4.06180749647319316864013671875</LongitudeDegrees>
            </Position>
            <AltitudeMeters>1741</AltitudeMeters>
            <DistanceMeters>85082.82620189</DistanceMeters>
          </Trackpoint>
          <Trackpoint>
            <Time>2019-08-02T09:07:25.000Z</Time>
            <Position>
              <LatitudeDegrees>40.794404558837413787841796875</LatitudeDegrees>
              <LongitudeDegrees>-4.06185510568320751190185546875</LongitudeDegrees>
            </Position>
            <AltitudeMeters>1741.4000244140625</AltitudeMeters>
            <DistanceMeters>85090.042603407</DistanceMeters>
          </Trackpoint>
          <Trackpoint>
            <Time>2019-08-02T09:07:28.000Z</Time>
            <Position>
              <LatitudeDegrees>40.794450826942920684814453125</LatitudeDegrees>
              <LongitudeDegrees>-4.06191076152026653289794921875</LongitudeDegrees>
            </Position>
            <AltitudeMeters>1742.199951171875</AltitudeMeters>
            <DistanceMeters>85097.007484644</DistanceMeters>
          </Trackpoint>
          <Trackpoint>
            <Time>2019-08-02T09:07:33.000Z</Time>
            <Position>
              <LatitudeDegrees>40.79452718608081340789794921875</LatitudeDegrees>
              <LongitudeDegrees>-4.0619871206581592559814453125</LongitudeDegrees>
            </Position>
            <AltitudeMeters>1743</AltitudeMeters>
            <DistanceMeters>85107.667432204</DistanceMeters>
          </Trackpoint>
          <Trackpoint>
            <Time>2019-08-02T09:07:34.000Z</Time>
            <Position>
              <LatitudeDegrees>40.79454193823039531707763671875</LatitudeDegrees>
              <LongitudeDegrees>-4.06199960969388484954833984375</LongitudeDegrees>
            </Position>
            <AltitudeMeters>1743.199951171875</AltitudeMeters>
            <DistanceMeters>85109.619531653</DistanceMeters>
          </Trackpoint>
          <Trackpoint>
            <Time>2019-08-02T09:07:37.000Z</Time>
            <Position>
              <LatitudeDegrees>40.794568173587322235107421875</LatitudeDegrees>
              <LongitudeDegrees>-4.06201201491057872772216796875</LongitudeDegrees>
            </Position>
            <AltitudeMeters>1743.800048828125</AltitudeMeters>
            <DistanceMeters>85112.722121134</DistanceMeters>
          </Trackpoint>
          <Trackpoint>
            <Time>2019-08-02T09:07:49.000Z</Time>
            <Position>
              <LatitudeDegrees>40.79459122382104396820068359375</LatitudeDegrees>
              <LongitudeDegrees>-4.06203280203044414520263671875</LongitudeDegrees>
            </Position>
            <AltitudeMeters>1745.800048828125</AltitudeMeters>
            <DistanceMeters>85115.827619748</DistanceMeters>
          </Trackpoint>
          <Trackpoint>
            <Time>2019-08-02T09:07:59.000Z</Time>
            <Position>
              <LatitudeDegrees>40.7947644777595996856689453125</LatitudeDegrees>
              <LongitudeDegrees>-4.06227487139403820037841796875</LongitudeDegrees>
            </Position>
            <AltitudeMeters>1746.800048828125</AltitudeMeters>
            <DistanceMeters>85143.897359506</DistanceMeters>
          </Trackpoint>
          <Trackpoint>
            <Time>2019-08-02T09:08:05.000Z</Time>
            <Position>
              <LatitudeDegrees>40.79487763345241546630859375</LatitudeDegrees>
              <LongitudeDegrees>-4.06251610256731510162353515625</LongitudeDegrees>
            </Position>
            <AltitudeMeters>1747.800048828125</AltitudeMeters>
            <DistanceMeters>85167.809374068</DistanceMeters>
          </Trackpoint>
          <Trackpoint>
            <Time>2019-08-02T09:08:12.000Z</Time>
            <Position>
              <LatitudeDegrees>40.79506798647344112396240234375</LatitudeDegrees>
              <LongitudeDegrees>-4.06291658990085124969482421875</LongitudeDegrees>
            </Position>
            <AltitudeMeters>1749</AltitudeMeters>
            <DistanceMeters>85207.654586455</DistanceMeters>
          </Trackpoint>
          <Trackpoint>
            <Time>2019-08-02T09:08:18.000Z</Time>
            <Position>
              <LatitudeDegrees>40.79526982270181179046630859375</LatitudeDegrees>
              <LongitudeDegrees>-4.06327634118497371673583984375</LongitudeDegrees>
            </Position>
            <AltitudeMeters>1750</AltitudeMeters>
            <DistanceMeters>85245.384380662</DistanceMeters>
          </Trackpoint>
          <Trackpoint>
            <Time>2019-08-02T09:08:21.000Z</Time>
            <Position>
              <LatitudeDegrees>40.79539119265973567962646484375</LatitudeDegrees>
              <LongitudeDegrees>-4.063414894044399261474609375</LongitudeDegrees>
            </Position>
            <AltitudeMeters>1750.5999755859375</AltitudeMeters>
            <DistanceMeters>85263.238785122</DistanceMeters>
          </Trackpoint>
          <Trackpoint>
            <Time>2019-08-02T09:08:26.000Z</Time>
            <Position>
              <LatitudeDegrees>40.7955771870911121368408203125</LatitudeDegrees>
              <LongitudeDegrees>-4.0635163150727748870849609375</LongitudeDegrees>
            </Position>
            <AltitudeMeters>1750.800048828125</AltitudeMeters>
            <DistanceMeters>85285.634668585</DistanceMeters>
          </Trackpoint>
          <Trackpoint>
            <Time>2019-08-02T09:08:38.000Z</Time>
            <Position>
              <LatitudeDegrees>40.79588203690946102142333984375</LatitudeDegrees>
              <LongitudeDegrees>-4.0635622479021549224853515625</LongitudeDegrees>
            </Position>
            <AltitudeMeters>1751.4000244140625</AltitudeMeters>
            <DistanceMeters>85319.785106839</DistanceMeters>
          </Trackpoint>
          <Trackpoint>
            <Time>2019-08-02T09:08:45.000Z</Time>
            <Position>
              <LatitudeDegrees>40.79621203243732452392578125</LatitudeDegrees>
              <LongitudeDegrees>-4.06355663202702999114990234375</LongitudeDegrees>
            </Position>
            <AltitudeMeters>1752.800048828125</AltitudeMeters>
            <DistanceMeters>85356.517326512</DistanceMeters>
          </Trackpoint>
          <Trackpoint>
            <Time>2019-08-02T09:08:47.000Z</Time>
            <Position>
              <LatitudeDegrees>40.79630725085735321044921875</LatitudeDegrees>
              <LongitudeDegrees>-4.0635367669165134429931640625</LongitudeDegrees>
            </Position>
            <AltitudeMeters>1753.199951171875</AltitudeMeters>
            <DistanceMeters>85367.246511686</DistanceMeters>
          </Trackpoint>
          <Trackpoint>
            <Time>2019-08-02T09:08:50.000Z</Time>
            <Position>
              <LatitudeDegrees>40.79645477235317230224609375</LatitudeDegrees>
              <LongitudeDegrees>-4.0635257028043270111083984375</LongitudeDegrees>
            </Position>
            <AltitudeMeters>1752.800048828125</AltitudeMeters>
            <DistanceMeters>85383.692174323</DistanceMeters>
          </Trackpoint>
          <Trackpoint>
            <Time>2019-08-02T09:08:54.000Z</Time>
            <Position>
              <LatitudeDegrees>40.7966118492186069488525390625</LatitudeDegrees>
              <LongitudeDegrees>-4.0634433925151824951171875</LongitudeDegrees>
            </Position>
            <AltitudeMeters>1752.199951171875</AltitudeMeters>
            <DistanceMeters>85402.500503454</DistanceMeters>
          </Trackpoint>
          <Trackpoint>
            <Time>2019-08-02T09:09:00.000Z</Time>
            <Position>
              <LatitudeDegrees>40.796805806457996368408203125</LatitudeDegrees>
              <LongitudeDegrees>-4.06320492736995220184326171875</LongitudeDegrees>
            </Position>
            <AltitudeMeters>1752.4000244140625</AltitudeMeters>
            <DistanceMeters>85431.9921786</DistanceMeters>
          </Trackpoint>
          <Trackpoint>
            <Time>2019-08-02T09:09:02.000Z</Time>
            <Position>
              <LatitudeDegrees>40.79685651697218418121337890625</LatitudeDegrees>
              <LongitudeDegrees>-4.06310166232287883758544921875</LongitudeDegrees>
            </Position>
            <AltitudeMeters>1752.4000244140625</AltitudeMeters>
            <DistanceMeters>85442.363594637</DistanceMeters>
          </Trackpoint>
          <Trackpoint>
            <Time>2019-08-02T09:09:04.000Z</Time>
            <Position>
              <LatitudeDegrees>40.79690814949572086334228515625</LatitudeDegrees>
              <LongitudeDegrees>-4.06300015747547149658203125</LongitudeDegrees>
            </Position>
            <AltitudeMeters>1752.4000244140625</AltitudeMeters>
            <DistanceMeters>85452.667751023</DistanceMeters>
          </Trackpoint>
          <Trackpoint>
            <Time>2019-08-02T09:09:13.000Z</Time>
            <Position>
              <LatitudeDegrees>40.79718810506165027618408203125</LatitudeDegrees>
              <LongitudeDegrees>-4.0624273382127285003662109375</LongitudeDegrees>
            </Position>
            <AltitudeMeters>1754.5999755859375</AltitudeMeters>
            <DistanceMeters>85510.117117684</DistanceMeters>
          </Trackpoint>
          <Trackpoint>
            <Time>2019-08-02T09:09:18.000Z</Time>
            <Position>
              <LatitudeDegrees>40.7973672263324260711669921875</LatitudeDegrees>
              <LongitudeDegrees>-4.06210790388286113739013671875</LongitudeDegrees>
            </Position>
            <AltitudeMeters>1755.5999755859375</AltitudeMeters>
            <DistanceMeters>85543.611574497</DistanceMeters>
          </Trackpoint>
          <Trackpoint>
            <Time>2019-08-02T09:09:26.000Z</Time>
            <Position>
              <LatitudeDegrees>40.79778774641454219818115234375</LatitudeDegrees>
              <LongitudeDegrees>-4.0618157945573329925537109375</LongitudeDegrees>
            </Position>
            <AltitudeMeters>1755.5999755859375</AltitudeMeters>
            <DistanceMeters>85596.493151284</DistanceMeters>
          </Trackpoint>
          <Trackpoint>
            <Time>2019-08-02T09:09:33.000Z</Time>
            <Position>
              <LatitudeDegrees>40.79813660122454166412353515625</LatitudeDegrees>
              <LongitudeDegrees>-4.06163834966719150543212890625</LongitudeDegrees>
            </Position>
            <AltitudeMeters>1756</AltitudeMeters>
            <DistanceMeters>85638.10053062</DistanceMeters>
          </Trackpoint>
          <Trackpoint>
            <Time>2019-08-02T09:09:40.000Z</Time>
            <Position>
              <LatitudeDegrees>40.7984551973640918731689453125</LatitudeDegrees>
              <LongitudeDegrees>-4.0614409558475017547607421875</LongitudeDegrees>
            </Position>
            <AltitudeMeters>1756.199951171875</AltitudeMeters>
            <DistanceMeters>85677.267448375</DistanceMeters>
          </Trackpoint>
          <Trackpoint>
            <Time>2019-08-02T09:09:43.000Z</Time>
            <Position>
              <LatitudeDegrees>40.7985678501427173614501953125</LatitudeDegrees>
              <LongitudeDegrees>-4.06133576296269893646240234375</LongitudeDegrees>
            </Position>
            <AltitudeMeters>1756</AltitudeMeters>
            <DistanceMeters>85692.622130589</DistanceMeters>
          </Trackpoint>
          <Trackpoint>
            <Time>2019-08-02T09:09:48.000Z</Time>
            <Position>
              <LatitudeDegrees>40.79873875714838504791259765625</LatitudeDegrees>
              <LongitudeDegrees>-4.0610788576304912567138671875</LongitudeDegrees>
            </Position>
            <AltitudeMeters>1755.5999755859375</AltitudeMeters>
            <DistanceMeters>85721.438893588</DistanceMeters>
          </Trackpoint>
          <Trackpoint>
            <Time>2019-08-02T09:09:52.000Z</Time>
            <Position>
              <LatitudeDegrees>40.79882961697876453399658203125</LatitudeDegrees>
              <LongitudeDegrees>-4.06085112132132053375244140625</LongitudeDegrees>
            </Position>
            <AltitudeMeters>1754.5999755859375</AltitudeMeters>
            <DistanceMeters>85743.129144457</DistanceMeters>
          </Trackpoint>
          <Trackpoint>
            <Time>2019-08-02T09:09:57.000Z</Time>
            <Position>
              <LatitudeDegrees>40.79895794391632080078125</LatitudeDegrees>
              <LongitudeDegrees>-4.0606232173740863800048828125</LongitudeDegrees>
            </Position>
            <AltitudeMeters>1754.4000244140625</AltitudeMeters>
            <DistanceMeters>85767.060976782</DistanceMeters>
          </Trackpoint>
          <Trackpoint>
            <Time>2019-08-02T09:10:04.000Z</Time>
            <Position>
              <LatitudeDegrees>40.7991425134241580963134765625</LatitudeDegrees>
              <LongitudeDegrees>-4.06030260957777500152587890625</LongitudeDegrees>
            </Position>
            <AltitudeMeters>1754.800048828125</AltitudeMeters>
            <DistanceMeters>85800.998155068</DistanceMeters>
          </Trackpoint>
          <Trackpoint>
            <Time>2019-08-02T09:10:10.000Z</Time>
            <Position>
              <LatitudeDegrees>40.799426995217800140380859375</LatitudeDegrees>
              <LongitudeDegrees>-4.06006716191768646240234375</LongitudeDegrees>
            </Position>
            <AltitudeMeters>1754</AltitudeMeters>
            <DistanceMeters>85838.362750995</DistanceMeters>
          </Trackpoint>
          <Trackpoint>
            <Time>2019-08-02T09:10:16.000Z</Time>
            <Position>
              <LatitudeDegrees>40.7997478544712066650390625</LatitudeDegrees>
              <LongitudeDegrees>-4.05995878390967845916748046875</LongitudeDegrees>
            </Position>
            <AltitudeMeters>1753.199951171875</AltitudeMeters>
            <DistanceMeters>85875.22405323</DistanceMeters>
          </Trackpoint>
          <Trackpoint>
            <Time>2019-08-02T09:10:17.000Z</Time>
            <Position>
              <LatitudeDegrees>40.79980543814599514007568359375</LatitudeDegrees>
              <LongitudeDegrees>-4.0599405951797962188720703125</LongitudeDegrees>
            </Position>
            <AltitudeMeters>1753</AltitudeMeters>
            <DistanceMeters>85881.814551519</DistanceMeters>
          </Trackpoint>
          <Trackpoint>
            <Time>2019-08-02T09:10:27.000Z</Time>
            <Position>
              <LatitudeDegrees>40.80033333040773868560791015625</LatitudeDegrees>
              <LongitudeDegrees>-4.05964110977947711944580078125</LongitudeDegrees>
            </Position>
            <AltitudeMeters>1752.5999755859375</AltitudeMeters>
            <DistanceMeters>85945.759128417</DistanceMeters>
          </Trackpoint>
          <Trackpoint>
            <Time>2019-08-02T09:10:29.000Z</Time>
            <Position>
              <LatitudeDegrees>40.80041949637234210968017578125</LatitudeDegrees>
              <LongitudeDegrees>-4.0595540218055248260498046875</LongitudeDegrees>
            </Position>
            <AltitudeMeters>1752.199951171875</AltitudeMeters>
            <DistanceMeters>85957.834627347</DistanceMeters>
          </Trackpoint>
          <Trackpoint>
            <Time>2019-08-02T09:10:30.000Z</Time>
            <Position>
              <LatitudeDegrees>40.80045738257467746734619140625</LatitudeDegrees>
              <LongitudeDegrees>-4.0595060773193836212158203125</LongitudeDegrees>
            </Position>
            <AltitudeMeters>1752</AltitudeMeters>
            <DistanceMeters>85963.673939691</DistanceMeters>
          </Trackpoint>
          <Trackpoint>
            <Time>2019-08-02T09:10:34.000Z</Time>
            <Position>
              <LatitudeDegrees>40.8006143756210803985595703125</LatitudeDegrees>
              <LongitudeDegrees>-4.059313125908374786376953125</LongitudeDegrees>
            </Position>
            <AltitudeMeters>1751.5999755859375</AltitudeMeters>
            <DistanceMeters>85987.540594716</DistanceMeters>
          </Trackpoint>
          <Trackpoint>
            <Time>2019-08-02T09:10:36.000Z</Time>
            <Position>
              <LatitudeDegrees>40.8007052354514598846435546875</LatitudeDegrees>
              <LongitudeDegrees>-4.05921153724193572998046875</LongitudeDegrees>
            </Position>
            <AltitudeMeters>1751.199951171875</AltitudeMeters>
            <DistanceMeters>86000.789922476</DistanceMeters>
          </Trackpoint>
          <Trackpoint>
            <Time>2019-08-02T09:10:41.000Z</Time>
            <Position>
              <LatitudeDegrees>40.800925008952617645263671875</LatitudeDegrees>
              <LongitudeDegrees>-4.05895161442458629608154296875</LongitudeDegrees>
            </Position>
            <AltitudeMeters>1750.199951171875</AltitudeMeters>
            <DistanceMeters>86033.621892951</DistanceMeters>
          </Trackpoint>
          <Trackpoint>
            <Time>2019-08-02T09:10:50.000Z</Time>
            <Position>
              <LatitudeDegrees>40.80130529589951038360595703125</LatitudeDegrees>
              <LongitudeDegrees>-4.05855414457619190216064453125</LongitudeDegrees>
            </Position>
            <AltitudeMeters>1749.5999755859375</AltitudeMeters>
            <DistanceMeters>86087.594222529</DistanceMeters>
          </Trackpoint>
          <Trackpoint>
            <Time>2019-08-02T09:10:52.000Z</Time>
            <Position>
              <LatitudeDegrees>40.80140319652855396270751953125</LatitudeDegrees>
              <LongitudeDegrees>-4.05850603245198726654052734375</LongitudeDegrees>
            </Position>
            <AltitudeMeters>1749.4000244140625</AltitudeMeters>
            <DistanceMeters>86099.220538123</DistanceMeters>
          </Trackpoint>
          <Trackpoint>
            <Time>2019-08-02T09:10:55.000Z</Time>
            <Position>
              <LatitudeDegrees>40.80160352401435375213623046875</LatitudeDegrees>
              <LongitudeDegrees>-4.058504439890384674072265625</LongitudeDegrees>
            </Position>
            <AltitudeMeters>1749.199951171875</AltitudeMeters>
            <DistanceMeters>86121.517823132</DistanceMeters>
          </Trackpoint>
          <Trackpoint>
            <Time>2019-08-02T09:10:56.000Z</Time>
            <Position>
              <LatitudeDegrees>40.8016718365252017974853515625</LatitudeDegrees>
              <LongitudeDegrees>-4.0585148334503173828125</LongitudeDegrees>
            </Position>
            <AltitudeMeters>1749.199951171875</AltitudeMeters>
            <DistanceMeters>86129.171456641</DistanceMeters>
          </Trackpoint>
          <Trackpoint>
            <Time>2019-08-02T09:10:58.000Z</Time>
            <Position>
              <LatitudeDegrees>40.80180854536592960357666015625</LatitudeDegrees>
              <LongitudeDegrees>-4.05855867080390453338623046875</LongitudeDegrees>
            </Position>
            <AltitudeMeters>1748.5999755859375</AltitudeMeters>
            <DistanceMeters>86144.828964277</DistanceMeters>
          </Trackpoint>
          <Trackpoint>
            <Time>2019-08-02T09:11:00.000Z</Time>
            <Position>
              <LatitudeDegrees>40.801931507885456085205078125</LatitudeDegrees>
              <LongitudeDegrees>-4.05861072242259979248046875</LongitudeDegrees>
            </Position>
            <AltitudeMeters>1748.199951171875</AltitudeMeters>
            <DistanceMeters>86159.200635666</DistanceMeters>
          </Trackpoint>
          <Trackpoint>
            <Time>2019-08-02T09:11:03.000Z</Time>
            <Position>
              <LatitudeDegrees>40.80210593529045581817626953125</LatitudeDegrees>
              <LongitudeDegrees>-4.0587228722870349884033203125</LongitudeDegrees>
            </Position>
            <AltitudeMeters>1747.800048828125</AltitudeMeters>
            <DistanceMeters>86180.791993346</DistanceMeters>
          </Trackpoint>
          <Trackpoint>
            <Time>2019-08-02T09:11:06.000Z</Time>
            <Position>
              <LatitudeDegrees>40.80227709375321865081787109375</LatitudeDegrees>
              <LongitudeDegrees>-4.058814905583858489990234375</LongitudeDegrees>
            </Position>
            <AltitudeMeters>1746.4000244140625</AltitudeMeters>
            <DistanceMeters>86201.359954384</DistanceMeters>
          </Trackpoint>
          <Trackpoint>
            <Time>2019-08-02T09:11:07.000Z</Time>
            <Position>
              <LatitudeDegrees>40.80233157612383365631103515625</LatitudeDegrees>
              <LongitudeDegrees>-4.058834351599216461181640625</LongitudeDegrees>
            </Position>
            <AltitudeMeters>1746</AltitudeMeters>
            <DistanceMeters>86207.641069252</DistanceMeters>
          </Trackpoint>
          <Trackpoint>
            <Time>2019-08-02T09:11:09.000Z</Time>
            <Position>
              <LatitudeDegrees>40.80244280397891998291015625</LatitudeDegrees>
              <LongitudeDegrees>-4.0588496066629886627197265625</LongitudeDegrees>
            </Position>
            <AltitudeMeters>1745.4000244140625</AltitudeMeters>
            <DistanceMeters>86220.087755215</DistanceMeters>
          </Trackpoint>
          <Trackpoint>
            <Time>2019-08-02T09:11:12.000Z</Time>
            <Position>
              <LatitudeDegrees>40.80260147340595722198486328125</LatitudeDegrees>
              <LongitudeDegrees>-4.05881985090672969818115234375</LongitudeDegrees>
            </Position>
            <AltitudeMeters>1744</AltitudeMeters>
            <DistanceMeters>86237.924955484</DistanceMeters>
          </Trackpoint>
          <Trackpoint>
            <Time>2019-08-02T09:11:13.000Z</Time>
            <Position>
              <LatitudeDegrees>40.802654363214969635009765625</LatitudeDegrees>
              <LongitudeDegrees>-4.05880459584295749664306640625</LongitudeDegrees>
            </Position>
            <AltitudeMeters>1743.4000244140625</AltitudeMeters>
            <DistanceMeters>86243.949978912</DistanceMeters>
          </Trackpoint>
          <Trackpoint>
            <Time>2019-08-02T09:11:15.000Z</Time>
            <Position>
              <LatitudeDegrees>40.80275016836822032928466796875</LatitudeDegrees>
              <LongitudeDegrees>-4.0587664581835269927978515625</LongitudeDegrees>
            </Position>
            <AltitudeMeters>1743</AltitudeMeters>
            <DistanceMeters>86255.086769291</DistanceMeters>
          </Trackpoint>
          <Trackpoint>
            <Time>2019-08-02T09:11:17.000Z</Time>
            <Position>
              <LatitudeDegrees>40.80285988748073577880859375</LatitudeDegrees>
              <LongitudeDegrees>-4.05872337520122528076171875</LongitudeDegrees>
            </Position>
            <AltitudeMeters>1742.199951171875</AltitudeMeters>
            <DistanceMeters>86267.826729809</DistanceMeters>
          </Trackpoint>
          <Trackpoint>
            <Time>2019-08-02T09:11:18.000Z</Time>
            <Position>
              <LatitudeDegrees>40.80291260965168476104736328125</LatitudeDegrees>
              <LongitudeDegrees>-4.05869797803461551666259765625</LongitudeDegrees>
            </Position>
            <AltitudeMeters>1741.800048828125</AltitudeMeters>
            <DistanceMeters>86274.072522812</DistanceMeters>
          </Trackpoint>
          <Trackpoint>
            <Time>2019-08-02T09:11:22.000Z</Time>
            <Position>
              <LatitudeDegrees>40.803142525255680084228515625</LatitudeDegrees>
              <LongitudeDegrees>-4.05860611237585544586181640625</LongitudeDegrees>
            </Position>
            <AltitudeMeters>1741</AltitudeMeters>
            <DistanceMeters>86300.8073056</DistanceMeters>
          </Trackpoint>
          <Trackpoint>
            <Time>2019-08-02T09:11:26.000Z</Time>
            <Position>
              <LatitudeDegrees>40.80335416831076145172119140625</LatitudeDegrees>
              <LongitudeDegrees>-4.0584962256252765655517578125</LongitudeDegrees>
            </Position>
            <AltitudeMeters>1740</AltitudeMeters>
            <DistanceMeters>86326.117613443</DistanceMeters>
          </Trackpoint>
          <Trackpoint>
            <Time>2019-08-02T09:11:28.000Z</Time>
            <Position>
              <LatitudeDegrees>40.803445279598236083984375</LatitudeDegrees>
              <LongitudeDegrees>-4.05842657200992107391357421875</LongitudeDegrees>
            </Position>
            <AltitudeMeters>1738.5999755859375</AltitudeMeters>
            <DistanceMeters>86337.83406436</DistanceMeters>
          </Trackpoint>
          <Trackpoint>
            <Time>2019-08-02T09:11:31.000Z</Time>
            <Position>
              <LatitudeDegrees>40.80355248413980007171630859375</LatitudeDegrees>
              <LongitudeDegrees>-4.05830763280391693115234375</LongitudeDegrees>
            </Position>
            <AltitudeMeters>1737.4000244140625</AltitudeMeters>
            <DistanceMeters>86353.41612762</DistanceMeters>
          </Trackpoint>
          <Trackpoint>
            <Time>2019-08-02T09:11:34.000Z</Time>
            <Position>
              <LatitudeDegrees>40.80365055240690708160400390625</LatitudeDegrees>
              <LongitudeDegrees>-4.05817243270576000213623046875</LongitudeDegrees>
            </Position>
            <AltitudeMeters>1736.4000244140625</AltitudeMeters>
            <DistanceMeters>86369.192851839</DistanceMeters>
          </Trackpoint>
          <Trackpoint>
            <Time>2019-08-02T09:11:40.000Z</Time>
            <Position>
              <LatitudeDegrees>40.8038813062012195587158203125</LatitudeDegrees>
              <LongitudeDegrees>-4.0577973425388336181640625</LongitudeDegrees>
            </Position>
            <AltitudeMeters>1735.4000244140625</AltitudeMeters>
            <DistanceMeters>86409.915097582</DistanceMeters>
          </Trackpoint>
          <Trackpoint>
            <Time>2019-08-02T09:11:49.000Z</Time>
            <Position>
              <LatitudeDegrees>40.80416587181389331817626953125</LatitudeDegrees>
              <LongitudeDegrees>-4.05718420632183551788330078125</LongitudeDegrees>
            </Position>
            <AltitudeMeters>1734.800048828125</AltitudeMeters>
            <DistanceMeters>86470.508619527</DistanceMeters>
          </Trackpoint>
          <Trackpoint>
            <Time>2019-08-02T09:11:57.000Z</Time>
            <Position>
              <LatitudeDegrees>40.80442051403224468231201171875</LatitudeDegrees>
              <LongitudeDegrees>-4.056631587445735931396484375</LongitudeDegrees>
            </Position>
            <AltitudeMeters>1733.800048828125</AltitudeMeters>
            <DistanceMeters>86525.014703685</DistanceMeters>
          </Trackpoint>
          <Trackpoint>
            <Time>2019-08-02T09:12:05.000Z</Time>
            <Position>
              <LatitudeDegrees>40.8047287166118621826171875</LatitudeDegrees>
              <LongitudeDegrees>-4.05604996718466281890869140625</LongitudeDegrees>
            </Position>
            <AltitudeMeters>1733</AltitudeMeters>
            <DistanceMeters>86584.829774597</DistanceMeters>
          </Trackpoint>
          <Trackpoint>
            <Time>2019-08-02T09:12:09.000Z</Time>
            <Position>
              <LatitudeDegrees>40.80490934662520885467529296875</LatitudeDegrees>
              <LongitudeDegrees>-4.05577705241739749908447265625</LongitudeDegrees>
            </Position>
            <AltitudeMeters>1732</AltitudeMeters>
            <DistanceMeters>86615.372549145</DistanceMeters>
          </Trackpoint>
          <Trackpoint>
            <Time>2019-08-02T09:12:11.000Z</Time>
            <Position>
              <LatitudeDegrees>40.80500037409365177154541015625</LatitudeDegrees>
              <LongitudeDegrees>-4.055635817348957061767578125</LongitudeDegrees>
            </Position>
            <AltitudeMeters>1731.800048828125</AltitudeMeters>
            <DistanceMeters>86631.000327218</DistanceMeters>
          </Trackpoint>
          <Trackpoint>
            <Time>2019-08-02T09:12:16.000Z</Time>
            <Position>
              <LatitudeDegrees>40.80525669269263744354248046875</LatitudeDegrees>
              <LongitudeDegrees>-4.05529081821441650390625</LongitudeDegrees>
            </Position>
            <AltitudeMeters>1731</AltitudeMeters>
            <DistanceMeters>86671.727561985</DistanceMeters>
          </Trackpoint>
          <Trackpoint>
            <Time>2019-08-02T09:12:18.000Z</Time>
            <Position>
              <LatitudeDegrees>40.8053441159427165985107421875</LatitudeDegrees>
              <LongitudeDegrees>-4.05514824204146862030029296875</LongitudeDegrees>
            </Position>
            <AltitudeMeters>1729.800048828125</AltitudeMeters>
            <DistanceMeters>86687.185987291</DistanceMeters>
          </Trackpoint>
          <Trackpoint>
            <Time>2019-08-02T09:12:19.000Z</Time>
            <Position>
              <LatitudeDegrees>40.80538594163954257965087890625</LatitudeDegrees>
              <LongitudeDegrees>-4.05507314018905162811279296875</LongitudeDegrees>
            </Position>
            <AltitudeMeters>1729.4000244140625</AltitudeMeters>
            <DistanceMeters>86695.041081965</DistanceMeters>
          </Trackpoint>
          <Trackpoint>
            <Time>2019-08-02T09:12:22.000Z</Time>
            <Position>
              <LatitudeDegrees>40.80548602156341075897216796875</LatitudeDegrees>
              <LongitudeDegrees>-4.05486543662846088409423828125</LongitudeDegrees>
            </Position>
            <AltitudeMeters>1728.800048828125</AltitudeMeters>
            <DistanceMeters>86715.784131704</DistanceMeters>
          </Trackpoint>
          <Trackpoint>
            <Time>2019-08-02T09:12:30.000Z</Time>
            <Position>
              <LatitudeDegrees>40.80570646561682224273681640625</LatitudeDegrees>
              <LongitudeDegrees>-4.0542543120682239532470703125</LongitudeDegrees>
            </Position>
            <AltitudeMeters>1728</AltitudeMeters>
            <DistanceMeters>86772.81757923</DistanceMeters>
          </Trackpoint>
          <Trackpoint>
            <Time>2019-08-02T09:12:34.000Z</Time>
            <Position>
              <LatitudeDegrees>40.80579363740980625152587890625</LatitudeDegrees>
              <LongitudeDegrees>-4.05397343449294567108154296875</LongitudeDegrees>
            </Position>
            <AltitudeMeters>1727.4000244140625</AltitudeMeters>
            <DistanceMeters>86798.392656105</DistanceMeters>
          </Trackpoint>
          <Trackpoint>
            <Time>2019-08-02T09:12:35.000Z</Time>
            <Position>
              <LatitudeDegrees>40.8058096468448638916015625</LatitudeDegrees>
              <LongitudeDegrees>-4.05390805564820766448974609375</LongitudeDegrees>
            </Position>
            <AltitudeMeters>1727.199951171875</AltitudeMeters>
            <DistanceMeters>86804.18227127</DistanceMeters>
          </Trackpoint>
          <Trackpoint>
            <Time>2019-08-02T09:12:36.000Z</Time>
            <Position>
              <LatitudeDegrees>40.80581643618643283843994140625</LatitudeDegrees>
              <LongitudeDegrees>-4.05384485609829425811767578125</LongitudeDegrees>
            </Position>
            <AltitudeMeters>1727</AltitudeMeters>
            <DistanceMeters>86809.561152652</DistanceMeters>
          </Trackpoint>
          <Trackpoint>
            <Time>2019-08-02T09:12:41.000Z</Time>
            <Position>
              <LatitudeDegrees>40.80583152361214160919189453125</LatitudeDegrees>
              <LongitudeDegrees>-4.05345945619046688079833984375</LongitudeDegrees>
            </Position>
            <AltitudeMeters>1726.199951171875</AltitudeMeters>
            <DistanceMeters>86842.073901055</DistanceMeters>
          </Trackpoint>
          <Trackpoint>
            <Time>2019-08-02T09:12:44.000Z</Time>
            <Position>
              <LatitudeDegrees>40.80581702291965484619140625</LatitudeDegrees>
              <LongitudeDegrees>-4.05323825776576995849609375</LongitudeDegrees>
            </Position>
            <AltitudeMeters>1725</AltitudeMeters>
            <DistanceMeters>86860.779445742</DistanceMeters>
          </Trackpoint>
          <Trackpoint>
            <Time>2019-08-02T09:12:45.000Z</Time>
            <Position>
              <LatitudeDegrees>40.80580621026456356048583984375</LatitudeDegrees>
              <LongitudeDegrees>-4.05316852033138275146484375</LongitudeDegrees>
            </Position>
            <AltitudeMeters>1724.4000244140625</AltitudeMeters>
            <DistanceMeters>86866.777430783</DistanceMeters>
          </Trackpoint>
          <Trackpoint>
            <Time>2019-08-02T09:12:46.000Z</Time>
            <Position>
              <LatitudeDegrees>40.8057923801243305206298828125</LatitudeDegrees>
              <LongitudeDegrees>-4.053101129829883575439453125</LongitudeDegrees>
            </Position>
            <AltitudeMeters>1723.800048828125</AltitudeMeters>
            <DistanceMeters>86872.659883752</DistanceMeters>
          </Trackpoint>
          <Trackpoint>
            <Time>2019-08-02T09:12:49.000Z</Time>
            <Position>
              <LatitudeDegrees>40.805736891925334930419921875</LatitudeDegrees>
              <LongitudeDegrees>-4.052897952497005462646484375</LongitudeDegrees>
            </Position>
            <AltitudeMeters>1722.5999755859375</AltitudeMeters>
            <DistanceMeters>86890.857189412</DistanceMeters>
          </Trackpoint>
          <Trackpoint>
            <Time>2019-08-02T09:12:52.000Z</Time>
            <Position>
              <LatitudeDegrees>40.8056703396141529083251953125</LatitudeDegrees>
              <LongitudeDegrees>-4.0526835434138774871826171875</LongitudeDegrees>
            </Position>
            <AltitudeMeters>1721.800048828125</AltitudeMeters>
            <DistanceMeters>86910.38049668</DistanceMeters>
          </Trackpoint>
          <Trackpoint>
            <Time>2019-08-02T09:12:54.000Z</Time>
            <Position>
              <LatitudeDegrees>40.80563195049762725830078125</LatitudeDegrees>
              <LongitudeDegrees>-4.0525450743734836578369140625</LongitudeDegrees>
            </Position>
            <AltitudeMeters>1720.4000244140625</AltitudeMeters>
            <DistanceMeters>86922.803944937</DistanceMeters>
          </Trackpoint>
          <Trackpoint>
            <Time>2019-08-02T09:12:56.000Z</Time>
            <Position>
              <LatitudeDegrees>40.805599428713321685791015625</LatitudeDegrees>
              <LongitudeDegrees>-4.052407443523406982421875</LongitudeDegrees>
            </Position>
            <AltitudeMeters>1719.199951171875</AltitudeMeters>
            <DistanceMeters>86934.951020679</DistanceMeters>
          </Trackpoint>
          <Trackpoint>
            <Time>2019-08-02T09:12:59.000Z</Time>
            <Position>
              <LatitudeDegrees>40.805559195578098297119140625</LatitudeDegrees>
              <LongitudeDegrees>-4.0522030927240848541259765625</LongitudeDegrees>
            </Position>
            <AltitudeMeters>1717.5999755859375</AltitudeMeters>
            <DistanceMeters>86952.740062219</DistanceMeters>
          </Trackpoint>
          <Trackpoint>
            <Time>2019-08-02T09:13:02.000Z</Time>
            <Position>
              <LatitudeDegrees>40.8055387437343597412109375</LatitudeDegrees>
              <LongitudeDegrees>-4.0519757755100727081298828125</LongitudeDegrees>
            </Position>
            <AltitudeMeters>1716</AltitudeMeters>
            <DistanceMeters>86972.026037661</DistanceMeters>
          </Trackpoint>
          <Trackpoint>
            <Time>2019-08-02T09:13:05.000Z</Time>
            <Position>
              <LatitudeDegrees>40.80551452003419399261474609375</LatitudeDegrees>
              <LongitudeDegrees>-4.05175725929439067840576171875</LongitudeDegrees>
            </Position>
            <AltitudeMeters>1715.199951171875</AltitudeMeters>
            <DistanceMeters>86990.631870363</DistanceMeters>
          </Trackpoint>
          <Trackpoint>
            <Time>2019-08-02T09:13:06.000Z</Time>
            <Position>
              <LatitudeDegrees>40.80550714395940303802490234375</LatitudeDegrees>
              <LongitudeDegrees>-4.05168819241225719451904296875</LongitudeDegrees>
            </Position>
            <AltitudeMeters>1715</AltitudeMeters>
            <DistanceMeters>86996.508179776</DistanceMeters>
          </Trackpoint>
          <Trackpoint>
            <Time>2019-08-02T09:13:10.000Z</Time>
            <Position>
              <LatitudeDegrees>40.805489458143711090087890625</LatitudeDegrees>
              <LongitudeDegrees>-4.0514111705124378204345703125</LongitudeDegrees>
            </Position>
            <AltitudeMeters>1714.199951171875</AltitudeMeters>
            <DistanceMeters>87019.929517992</DistanceMeters>
          </Trackpoint>
          <Trackpoint>
            <Time>2019-08-02T09:13:13.000Z</Time>
            <Position>
              <LatitudeDegrees>40.8054953254759311676025390625</LatitudeDegrees>
              <LongitudeDegrees>-4.05120656825602054595947265625</LongitudeDegrees>
            </Position>
            <AltitudeMeters>1713.5999755859375</AltitudeMeters>
            <DistanceMeters>87037.179418832</DistanceMeters>
          </Trackpoint>
          <Trackpoint>
            <Time>2019-08-02T09:13:15.000Z</Time>
            <Position>
              <LatitudeDegrees>40.8055234886705875396728515625</LatitudeDegrees>
              <LongitudeDegrees>-4.05107296071946620941162109375</LongitudeDegrees>
            </Position>
            <AltitudeMeters>1713</AltitudeMeters>
            <DistanceMeters>87048.864227595</DistanceMeters>
          </Trackpoint>
          <Trackpoint>
            <Time>2019-08-02T09:13:21.000Z</Time>
            <Position>
              <LatitudeDegrees>40.80568425357341766357421875</LatitudeDegrees>
              <LongitudeDegrees>-4.05075511895120143890380859375</LongitudeDegrees>
            </Position>
            <AltitudeMeters>1712</AltitudeMeters>
            <DistanceMeters>87081.070013419</DistanceMeters>
          </Trackpoint>
          <Trackpoint>
            <Time>2019-08-02T09:13:25.000Z</Time>
            <Position>
              <LatitudeDegrees>40.8058322779834270477294921875</LatitudeDegrees>
              <LongitudeDegrees>-4.05065059661865234375</LongitudeDegrees>
            </Position>
            <AltitudeMeters>1711.199951171875</AltitudeMeters>
            <DistanceMeters>87099.750921701</DistanceMeters>
          </Trackpoint>
          <Trackpoint>
            <Time>2019-08-02T09:13:26.000Z</Time>
            <Position>
              <LatitudeDegrees>40.80587930046021938323974609375</LatitudeDegrees>
              <LongitudeDegrees>-4.05064414255321025848388671875</LongitudeDegrees>
            </Position>
            <AltitudeMeters>1711</AltitudeMeters>
            <DistanceMeters>87105.012690831</DistanceMeters>
          </Trackpoint>
          <Trackpoint>
            <Time>2019-08-02T09:13:27.000Z</Time>
            <Position>
              <LatitudeDegrees>40.80593260936439037322998046875</LatitudeDegrees>
              <LongitudeDegrees>-4.0506465733051300048828125</LongitudeDegrees>
            </Position>
            <AltitudeMeters>1710.800048828125</AltitudeMeters>
            <DistanceMeters>87110.950149752</DistanceMeters>
          </Trackpoint>
          <Trackpoint>
            <Time>2019-08-02T09:13:30.000Z</Time>
            <Position>
              <LatitudeDegrees>40.806116424500942230224609375</LatitudeDegrees>
              <LongitudeDegrees>-4.05067699961364269256591796875</LongitudeDegrees>
            </Position>
            <AltitudeMeters>1710</AltitudeMeters>
            <DistanceMeters>87131.569195051</DistanceMeters>
          </Trackpoint>
          <Trackpoint>
            <Time>2019-08-02T09:13:32.000Z</Time>
            <Position>
              <LatitudeDegrees>40.80624123103916645050048828125</LatitudeDegrees>
              <LongitudeDegrees>-4.05073617585003376007080078125</LongitudeDegrees>
            </Position>
            <AltitudeMeters>1709.4000244140625</AltitudeMeters>
            <DistanceMeters>87146.328039992</DistanceMeters>
          </Trackpoint>
          <Trackpoint>
            <Time>2019-08-02T09:13:34.000Z</Time>
            <Position>
              <LatitudeDegrees>40.80636545084416866302490234375</LatitudeDegrees>
              <LongitudeDegrees>-4.05080725438892841339111328125</LongitudeDegrees>
            </Position>
            <AltitudeMeters>1708.4000244140625</AltitudeMeters>
            <DistanceMeters>87161.395094176</DistanceMeters>
          </Trackpoint>
          <Trackpoint>
            <Time>2019-08-02T09:13:35.000Z</Time>
            <Position>
              <LatitudeDegrees>40.806418843567371368408203125</LatitudeDegrees>
              <LongitudeDegrees>-4.05085771344602108001708984375</LongitudeDegrees>
            </Position>
            <AltitudeMeters>1708.199951171875</AltitudeMeters>
            <DistanceMeters>87168.701653691</DistanceMeters>
          </Trackpoint>
          <Trackpoint>
            <Time>2019-08-02T09:13:38.000Z</Time>
            <Position>
              <LatitudeDegrees>40.8065715618431568145751953125</LatitudeDegrees>
              <LongitudeDegrees>-4.05101479031145572662353515625</LongitudeDegrees>
            </Position>
            <AltitudeMeters>1707.4000244140625</AltitudeMeters>
            <DistanceMeters>87190.243604124</DistanceMeters>
          </Trackpoint>
          <Trackpoint>
            <Time>2019-08-02T09:13:39.000Z</Time>
            <Position>
              <LatitudeDegrees>40.806623362004756927490234375</LatitudeDegrees>
              <LongitudeDegrees>-4.051074050366878509521484375</LongitudeDegrees>
            </Position>
            <AltitudeMeters>1707.199951171875</AltitudeMeters>
            <DistanceMeters>87197.870644995</DistanceMeters>
          </Trackpoint>
          <Trackpoint>
            <Time>2019-08-02T09:13:43.000Z</Time>
            <Position>
              <LatitudeDegrees>40.80679024569690227508544921875</LatitudeDegrees>
              <LongitudeDegrees>-4.05131570063531398773193359375</LongitudeDegrees>
            </Position>
            <AltitudeMeters>1706.199951171875</AltitudeMeters>
            <DistanceMeters>87225.428883675</DistanceMeters>
          </Trackpoint>
          <Trackpoint>
            <Time>2019-08-02T09:13:44.000Z</Time>
            <Position>
              <LatitudeDegrees>40.80682997591793537139892578125</LatitudeDegrees>
              <LongitudeDegrees>-4.05137688852846622467041015625</LongitudeDegrees>
            </Position>
            <AltitudeMeters>1706</AltitudeMeters>
            <DistanceMeters>87232.220468945</DistanceMeters>
          </Trackpoint>
          <Trackpoint>
            <Time>2019-08-02T09:13:47.000Z</Time>
            <Position>
              <LatitudeDegrees>40.80692083574831485748291015625</LatitudeDegrees>
              <LongitudeDegrees>-4.0515858493745326995849609375</LongitudeDegrees>
            </Position>
            <AltitudeMeters>1705.4000244140625</AltitudeMeters>
            <DistanceMeters>87252.52285475</DistanceMeters>
          </Trackpoint>
          <Trackpoint>
            <Time>2019-08-02T09:13:52.000Z</Time>
            <Position>
              <LatitudeDegrees>40.80708964727818965911865234375</LatitudeDegrees>
              <LongitudeDegrees>-4.0519689023494720458984375</LongitudeDegrees>
            </Position>
            <AltitudeMeters>1704.4000244140625</AltitudeMeters>
            <DistanceMeters>87289.865089078</DistanceMeters>
          </Trackpoint>
          <Trackpoint>
            <Time>2019-08-02T09:13:54.000Z</Time>
            <Position>
              <LatitudeDegrees>40.80714312382042407989501953125</LatitudeDegrees>
              <LongitudeDegrees>-4.0521380491554737091064453125</LongitudeDegrees>
            </Position>
            <AltitudeMeters>1704.199951171875</AltitudeMeters>
            <DistanceMeters>87305.308026586</DistanceMeters>
          </Trackpoint>
          <Trackpoint>
            <Time>2019-08-02T09:13:57.000Z</Time>
            <Position>
              <LatitudeDegrees>40.807210765779018402099609375</LatitudeDegrees>
              <LongitudeDegrees>-4.05240409076213836669921875</LongitudeDegrees>
            </Position>
            <AltitudeMeters>1703.5999755859375</AltitudeMeters>
            <DistanceMeters>87328.951925852</DistanceMeters>
          </Trackpoint>
          <Trackpoint>
            <Time>2019-08-02T09:14:00.000Z</Time>
            <Position>
              <LatitudeDegrees>40.80725141800940036773681640625</LatitudeDegrees>
              <LongitudeDegrees>-4.0526818670332431793212890625</LongitudeDegrees>
            </Position>
            <AltitudeMeters>1702.4000244140625</AltitudeMeters>
            <DistanceMeters>87352.786777839</DistanceMeters>
          </Trackpoint>
          <Trackpoint>
            <Time>2019-08-02T09:14:03.000Z</Time>
            <Position>
              <LatitudeDegrees>40.80728628672659397125244140625</LatitudeDegrees>
              <LongitudeDegrees>-4.05291312374174594879150390625</LongitudeDegrees>
            </Position>
            <AltitudeMeters>1701.4000244140625</AltitudeMeters>
            <DistanceMeters>87372.651680069</DistanceMeters>
          </Trackpoint>
          <Trackpoint>
            <Time>2019-08-02T09:14:04.000Z</Time>
            <Position>
              <LatitudeDegrees>40.80730372108519077301025390625</LatitudeDegrees>
              <LongitudeDegrees>-4.0529933385550975799560546875</LongitudeDegrees>
            </Position>
            <AltitudeMeters>1701</AltitudeMeters>
            <DistanceMeters>87379.681730451</DistanceMeters>
          </Trackpoint>
          <Trackpoint>
            <Time>2019-08-02T09:14:08.000Z</Time>
            <Position>
              <LatitudeDegrees>40.80735870636999607086181640625</LatitudeDegrees>
              <LongitudeDegrees>-4.05335736460983753204345703125</LongitudeDegrees>
            </Position>
            <AltitudeMeters>1700.4000244140625</AltitudeMeters>
            <DistanceMeters>87410.954038951</DistanceMeters>
          </Trackpoint>
          <Trackpoint>
            <Time>2019-08-02T09:14:11.000Z</Time>
            <Position>
              <LatitudeDegrees>40.80739089287817478179931640625</LatitudeDegrees>
              <LongitudeDegrees>-4.0536538325250148773193359375</LongitudeDegrees>
            </Position>
            <AltitudeMeters>1699.199951171875</AltitudeMeters>
            <DistanceMeters>87436.185734285</DistanceMeters>
          </Trackpoint>
          <Trackpoint>
            <Time>2019-08-02T09:14:13.000Z</Time>
            <Position>
              <LatitudeDegrees>40.807409249246120452880859375</LatitudeDegrees>
              <LongitudeDegrees>-4.0538409166038036346435546875</LongitudeDegrees>
            </Position>
            <AltitudeMeters>1698.199951171875</AltitudeMeters>
            <DistanceMeters>87452.078508373</DistanceMeters>
          </Trackpoint>
          <Trackpoint>
            <Time>2019-08-02T09:14:15.000Z</Time>
            <Position>
              <LatitudeDegrees>40.80742693506181240081787109375</LatitudeDegrees>
              <LongitudeDegrees>-4.0540407411754131317138671875</LongitudeDegrees>
            </Position>
            <AltitudeMeters>1697.800048828125</AltitudeMeters>
            <DistanceMeters>87469.027396002</DistanceMeters>
          </Trackpoint>
          <Trackpoint>
            <Time>2019-08-02T09:14:19.000Z</Time>
            <Position>
              <LatitudeDegrees>40.80745995976030826568603515625</LatitudeDegrees>
              <LongitudeDegrees>-4.05445338226854801177978515625</LongitudeDegrees>
            </Position>
            <AltitudeMeters>1697.199951171875</AltitudeMeters>
            <DistanceMeters>87503.984313267</DistanceMeters>
          </Trackpoint>
          <Trackpoint>
            <Time>2019-08-02T09:14:21.000Z</Time>
            <Position>
              <LatitudeDegrees>40.807479321956634521484375</LatitudeDegrees>
              <LongitudeDegrees>-4.05462889932096004486083984375</LongitudeDegrees>
            </Position>
            <AltitudeMeters>1696.199951171875</AltitudeMeters>
            <DistanceMeters>87518.926791982</DistanceMeters>
          </Trackpoint>
          <Trackpoint>
            <Time>2019-08-02T09:14:23.000Z</Time>
            <Position>
              <LatitudeDegrees>40.80751930363476276397705078125</LatitudeDegrees>
              <LongitudeDegrees>-4.05479419045150279998779296875</LongitudeDegrees>
            </Position>
            <AltitudeMeters>1695.4000244140625</AltitudeMeters>
            <DistanceMeters>87533.545471441</DistanceMeters>
          </Trackpoint>
          <Trackpoint>
            <Time>2019-08-02T09:14:24.000Z</Time>
            <Position>
              <LatitudeDegrees>40.8075450360774993896484375</LatitudeDegrees>
              <LongitudeDegrees>-4.0548712201416492462158203125</LongitudeDegrees>
            </Position>
            <AltitudeMeters>1695</AltitudeMeters>
            <DistanceMeters>87540.639455937</DistanceMeters>
          </Trackpoint>
          <Trackpoint>
            <Time>2019-08-02T09:14:27.000Z</Time>
            <Position>
              <LatitudeDegrees>40.80765894614160060882568359375</LatitudeDegrees>
              <LongitudeDegrees>-4.0550797618925571441650390625</LongitudeDegrees>
            </Position>
            <AltitudeMeters>1693.5999755859375</AltitudeMeters>
            <DistanceMeters>87562.305130025</DistanceMeters>
          </Trackpoint>
          <Trackpoint>
            <Time>2019-08-02T09:14:29.000Z</Time>
            <Position>
              <LatitudeDegrees>40.8077596127986907958984375</LatitudeDegrees>
              <LongitudeDegrees>-4.05516852624714374542236328125</LongitudeDegrees>
            </Position>
            <AltitudeMeters>1692.199951171875</AltitudeMeters>
            <DistanceMeters>87575.776151375</DistanceMeters>
          </Trackpoint>
          <Trackpoint>
            <Time>2019-08-02T09:14:30.000Z</Time>
            <Position>
              <LatitudeDegrees>40.807811580598354339599609375</LatitudeDegrees>
              <LongitudeDegrees>-4.05520842410624027252197265625</LongitudeDegrees>
            </Position>
            <AltitudeMeters>1691.4000244140625</AltitudeMeters>
            <DistanceMeters>87582.465924081</DistanceMeters>
          </Trackpoint>
          <Trackpoint>
            <Time>2019-08-02T09:14:31.000Z</Time>
            <Position>
              <LatitudeDegrees>40.80786748789250850677490234375</LatitudeDegrees>
              <LongitudeDegrees>-4.05524396337568759918212890625</LongitudeDegrees>
            </Position>
            <AltitudeMeters>1691</AltitudeMeters>
            <DistanceMeters>87589.370908051</DistanceMeters>
          </Trackpoint>
          <Trackpoint>
            <Time>2019-08-02T09:14:33.000Z</Time>
            <Position>
              <LatitudeDegrees>40.8079884387552738189697265625</LatitudeDegrees>
              <LongitudeDegrees>-4.05530515126883983612060546875</LongitudeDegrees>
            </Position>
            <AltitudeMeters>1690.4000244140625</AltitudeMeters>
            <DistanceMeters>87603.786181865</DistanceMeters>
          </Trackpoint>
          <Trackpoint>
            <Time>2019-08-02T09:14:34.000Z</Time>
            <Position>
              <LatitudeDegrees>40.808049626648426055908203125</LatitudeDegrees>
              <LongitudeDegrees>-4.0553375892341136932373046875</LongitudeDegrees>
            </Position>
            <AltitudeMeters>1690.199951171875</AltitudeMeters>
            <DistanceMeters>87611.124804073</DistanceMeters>
          </Trackpoint>
          <Trackpoint>
            <Time>2019-08-02T09:14:38.000Z</Time>
            <Position>
              <LatitudeDegrees>40.80829043872654438018798828125</LatitudeDegrees>
              <LongitudeDegrees>-4.0554398484528064727783203125</LongitudeDegrees>
            </Position>
            <AltitudeMeters>1689.199951171875</AltitudeMeters>
            <DistanceMeters>87639.278061962</DistanceMeters>
          </Trackpoint>
          <Trackpoint>
            <Time>2019-08-02T09:14:42.000Z</Time>
            <Position>
              <LatitudeDegrees>40.8085164986550807952880859375</LatitudeDegrees>
              <LongitudeDegrees>-4.05551612377166748046875</LongitudeDegrees>
            </Position>
            <AltitudeMeters>1688</AltitudeMeters>
            <DistanceMeters>87665.246448103</DistanceMeters>
          </Trackpoint>
          <Trackpoint>
            <Time>2019-08-02T09:14:46.000Z</Time>
            <Position>
              <LatitudeDegrees>40.80874121747910976409912109375</LatitudeDegrees>
              <LongitudeDegrees>-4.05554856173694133758544921875</LongitudeDegrees>
            </Position>
            <AltitudeMeters>1687.199951171875</AltitudeMeters>
            <DistanceMeters>87690.40682328</DistanceMeters>
          </Trackpoint>
          <Trackpoint>
            <Time>2019-08-02T09:14:48.000Z</Time>
            <Position>
              <LatitudeDegrees>40.80886577256023883819580078125</LatitudeDegrees>
              <LongitudeDegrees>-4.05555577017366886138916015625</LongitudeDegrees>
            </Position>
            <AltitudeMeters>1687</AltitudeMeters>
            <DistanceMeters>87704.283326805</DistanceMeters>
          </Trackpoint>
          <Trackpoint>
            <Time>2019-08-02T09:14:54.000Z</Time>
            <Position>
              <LatitudeDegrees>40.80916970036923885345458984375</LatitudeDegrees>
              <LongitudeDegrees>-4.0556745417416095733642578125</LongitudeDegrees>
            </Position>
            <AltitudeMeters>1686.4000244140625</AltitudeMeters>
            <DistanceMeters>87739.559874748</DistanceMeters>
          </Trackpoint>
          <Trackpoint>
            <Time>2019-08-02T09:14:57.000Z</Time>
            <Position>
              <LatitudeDegrees>40.809328369796276092529296875</LatitudeDegrees>
              <LongitudeDegrees>-4.05577537603676319122314453125</LongitudeDegrees>
            </Position>
            <AltitudeMeters>1685.4000244140625</AltitudeMeters>
            <DistanceMeters>87759.156816374</DistanceMeters>
          </Trackpoint>
          <Trackpoint>
            <Time>2019-08-02T09:15:00.000Z</Time>
            <Position>
              <LatitudeDegrees>40.80946340225636959075927734375</LatitudeDegrees>
              <LongitudeDegrees>-4.0559243224561214447021484375</LongitudeDegrees>
            </Position>
            <AltitudeMeters>1684.800048828125</AltitudeMeters>
            <DistanceMeters>87778.735548331</DistanceMeters>
          </Trackpoint>
          <Trackpoint>
            <Time>2019-08-02T09:15:02.000Z</Time>
            <Position>
              <LatitudeDegrees>40.80954671837389469146728515625</LatitudeDegrees>
              <LongitudeDegrees>-4.05602398328483104705810546875</LongitudeDegrees>
            </Position>
            <AltitudeMeters>1684</AltitudeMeters>
            <DistanceMeters>87791.244471731</DistanceMeters>
          </Trackpoint>
          <Trackpoint>
            <Time>2019-08-02T09:15:06.000Z</Time>
            <Position>
              <LatitudeDegrees>40.8097449503839015960693359375</LatitudeDegrees>
              <LongitudeDegrees>-4.0562121570110321044921875</LongitudeDegrees>
            </Position>
            <AltitudeMeters>1682.5999755859375</AltitudeMeters>
            <DistanceMeters>87818.412474756</DistanceMeters>
          </Trackpoint>
          <Trackpoint>
            <Time>2019-08-02T09:15:08.000Z</Time>
            <Position>
              <LatitudeDegrees>40.80983371473848819732666015625</LatitudeDegrees>
              <LongitudeDegrees>-4.05627627857029438018798828125</LongitudeDegrees>
            </Position>
            <AltitudeMeters>1682</AltitudeMeters>
            <DistanceMeters>87829.67223822</DistanceMeters>
          </Trackpoint>
          <Trackpoint>
            <Time>2019-08-02T09:15:09.000Z</Time>
            <Position>
              <LatitudeDegrees>40.8098763786256313323974609375</LatitudeDegrees>
              <LongitudeDegrees>-4.056299664080142974853515625</LongitudeDegrees>
            </Position>
            <AltitudeMeters>1681.5999755859375</AltitudeMeters>
            <DistanceMeters>87834.813350332</DistanceMeters>
          </Trackpoint>
          <Trackpoint>
            <Time>2019-08-02T09:15:10.000Z</Time>
            <Position>
              <LatitudeDegrees>40.80993027426302433013916015625</LatitudeDegrees>
              <LongitudeDegrees>-4.056315086781978607177734375</LongitudeDegrees>
            </Position>
            <AltitudeMeters>1681.199951171875</AltitudeMeters>
            <DistanceMeters>87840.95122284</DistanceMeters>
          </Trackpoint>
          <Trackpoint>
            <Time>2019-08-02T09:15:12.000Z</Time>
            <Position>
              <LatitudeDegrees>40.8100406639277935028076171875</LatitudeDegrees>
              <LongitudeDegrees>-4.05632388778030872344970703125</LongitudeDegrees>
            </Position>
            <AltitudeMeters>1680.4000244140625</AltitudeMeters>
            <DistanceMeters>87853.260025486</DistanceMeters>
          </Trackpoint>
          <Trackpoint>
            <Time>2019-08-02T09:15:14.000Z</Time>
            <Position>
              <LatitudeDegrees>40.81013403832912445068359375</LatitudeDegrees>
              <LongitudeDegrees>-4.05630209483206272125244140625</LongitudeDegrees>
            </Position>
            <AltitudeMeters>1679.4000244140625</AltitudeMeters>
            <DistanceMeters>87863.813981756</DistanceMeters>
          </Trackpoint>
          <Trackpoint>
            <Time>2019-08-02T09:15:16.000Z</Time>
            <Position>
              <LatitudeDegrees>40.81022766418755054473876953125</LatitudeDegrees>
              <LongitudeDegrees>-4.0562619455158710479736328125</LongitudeDegrees>
            </Position>
            <AltitudeMeters>1678.800048828125</AltitudeMeters>
            <DistanceMeters>87874.769700632</DistanceMeters>
          </Trackpoint>
          <Trackpoint>
            <Time>2019-08-02T09:15:18.000Z</Time>
            <Position>
              <LatitudeDegrees>40.8103179372847080230712890625</LatitudeDegrees>
              <LongitudeDegrees>-4.05621626414358615875244140625</LongitudeDegrees>
            </Position>
            <AltitudeMeters>1678.199951171875</AltitudeMeters>
            <DistanceMeters>87885.529142068</DistanceMeters>
          </Trackpoint>
          <Trackpoint>
            <Time>2019-08-02T09:15:23.000Z</Time>
            <Position>
              <LatitudeDegrees>40.810543410480022430419921875</LatitudeDegrees>
              <LongitudeDegrees>-4.05615675263106822967529296875</LongitudeDegrees>
            </Position>
            <AltitudeMeters>1677.199951171875</AltitudeMeters>
            <DistanceMeters>87911.120808374</DistanceMeters>
          </Trackpoint>
          <Trackpoint>
            <Time>2019-08-02T09:15:31.000Z</Time>
            <Position>
              <LatitudeDegrees>40.810747928917407989501953125</LatitudeDegrees>
              <LongitudeDegrees>-4.0562378056347370147705078125</LongitudeDegrees>
            </Position>
            <AltitudeMeters>1675.800048828125</AltitudeMeters>
            <DistanceMeters>87934.886227816</DistanceMeters>
          </Trackpoint>
          <Trackpoint>
            <Time>2019-08-02T09:15:35.000Z</Time>
            <Position>
              <LatitudeDegrees>40.810896791517734527587890625</LatitudeDegrees>
              <LongitudeDegrees>-4.05631617642939090728759765625</LongitudeDegrees>
            </Position>
            <AltitudeMeters>1674.800048828125</AltitudeMeters>
            <DistanceMeters>87952.721909271</DistanceMeters>
          </Trackpoint>
          <Trackpoint>
            <Time>2019-08-02T09:15:41.000Z</Time>
            <Position>
              <LatitudeDegrees>40.8111527748405933380126953125</LatitudeDegrees>
              <LongitudeDegrees>-4.05643721111118793487548828125</LongitudeDegrees>
            </Position>
            <AltitudeMeters>1673.800048828125</AltitudeMeters>
            <DistanceMeters>87982.983106409</DistanceMeters>
          </Trackpoint>
          <Trackpoint>
            <Time>2019-08-02T09:15:46.000Z</Time>
            <Position>
              <LatitudeDegrees>40.8113629929721355438232421875</LatitudeDegrees>
              <LongitudeDegrees>-4.056516252458095550537109375</LongitudeDegrees>
            </Position>
            <AltitudeMeters>1673</AltitudeMeters>
            <DistanceMeters>88007.309945287</DistanceMeters>
          </Trackpoint>
          <Trackpoint>
            <Time>2019-08-02T09:15:52.000Z</Time>
            <Position>
              <LatitudeDegrees>40.81159441731870174407958984375</LatitudeDegrees>
              <LongitudeDegrees>-4.05660585500299930572509765625</LongitudeDegrees>
            </Position>
            <AltitudeMeters>1672</AltitudeMeters>
            <DistanceMeters>88034.150913207</DistanceMeters>
          </Trackpoint>
          <Trackpoint>
            <Time>2019-08-02T09:15:53.000Z</Time>
            <Position>
              <LatitudeDegrees>40.8116496540606021881103515625</LatitudeDegrees>
              <LongitudeDegrees>-4.05659638345241546630859375</LongitudeDegrees>
            </Position>
            <AltitudeMeters>1671.800048828125</AltitudeMeters>
            <DistanceMeters>88040.350268443</DistanceMeters>
          </Trackpoint>
          <Trackpoint>
            <Time>2019-08-02T09:15:58.000Z</Time>
            <Position>
              <LatitudeDegrees>40.811926089227199554443359375</LatitudeDegrees>
              <LongitudeDegrees>-4.05661591328680515289306640625</LongitudeDegrees>
            </Position>
            <AltitudeMeters>1671.199951171875</AltitudeMeters>
            <DistanceMeters>88071.162085281</DistanceMeters>
          </Trackpoint>
          <Trackpoint>
            <Time>2019-08-02T09:16:03.000Z</Time>
            <Position>
              <LatitudeDegrees>40.812119208276271820068359375</LatitudeDegrees>
              <LongitudeDegrees>-4.056632928550243377685546875</LongitudeDegrees>
            </Position>
            <AltitudeMeters>1670.199951171875</AltitudeMeters>
            <DistanceMeters>88092.704454896</DistanceMeters>
          </Trackpoint>
          <Trackpoint>
            <Time>2019-08-02T09:16:07.000Z</Time>
            <Position>
              <LatitudeDegrees>40.812219120562076568603515625</LatitudeDegrees>
              <LongitudeDegrees>-4.05661792494356632232666015625</LongitudeDegrees>
            </Position>
            <AltitudeMeters>1669</AltitudeMeters>
            <DistanceMeters>88103.896649516</DistanceMeters>
          </Trackpoint>
          <Trackpoint>
            <Time>2019-08-02T09:16:10.000Z</Time>
            <Position>
              <LatitudeDegrees>40.81228919327259063720703125</LatitudeDegrees>
              <LongitudeDegrees>-4.0565838105976581573486328125</LongitudeDegrees>
            </Position>
            <AltitudeMeters>1668.199951171875</AltitudeMeters>
            <DistanceMeters>88112.209178912</DistanceMeters>
          </Trackpoint>
          <Trackpoint>
            <Time>2019-08-02T09:16:14.000Z</Time>
            <Position>
              <LatitudeDegrees>40.812374018132686614990234375</LatitudeDegrees>
              <LongitudeDegrees>-4.05657718889415264129638671875</LongitudeDegrees>
            </Position>
            <AltitudeMeters>1666.800048828125</AltitudeMeters>
            <DistanceMeters>88121.666127526</DistanceMeters>
          </Trackpoint>
          <Trackpoint>
            <Time>2019-08-02T09:16:53.000Z</Time>
            <Position>
              <LatitudeDegrees>40.81246596761047840118408203125</LatitudeDegrees>
              <LongitudeDegrees>-4.05656662769615650177001953125</LongitudeDegrees>
            </Position>
            <AltitudeMeters>1660.5999755859375</AltitudeMeters>
            <DistanceMeters>88131.938686766</DistanceMeters>
          </Trackpoint>
          <Trackpoint>
            <Time>2019-08-02T09:16:59.000Z</Time>
            <Position>
              <LatitudeDegrees>40.8126802928745746612548828125</LatitudeDegrees>
              <LongitudeDegrees>-4.056494794785976409912109375</LongitudeDegrees>
            </Position>
            <AltitudeMeters>1659.5999755859375</AltitudeMeters>
            <DistanceMeters>88156.548954689</DistanceMeters>
          </Trackpoint>
          <Trackpoint>
            <Time>2019-08-02T09:17:00.000Z</Time>
            <Position>
              <LatitudeDegrees>40.81272496841847896575927734375</LatitudeDegrees>
              <LongitudeDegrees>-4.05646353028714656829833984375</LongitudeDegrees>
            </Position>
            <AltitudeMeters>1659.4000244140625</AltitudeMeters>
            <DistanceMeters>88162.175627597</DistanceMeters>
          </Trackpoint>
          <Trackpoint>
            <Time>2019-08-02T09:17:02.000Z</Time>
            <Position>
              <LatitudeDegrees>40.81280644051730632781982421875</LatitudeDegrees>
              <LongitudeDegrees>-4.05637317337095737457275390625</LongitudeDegrees>
            </Position>
            <AltitudeMeters>1658.800048828125</AltitudeMeters>
            <DistanceMeters>88174.014751152</DistanceMeters>
          </Trackpoint>
          <Trackpoint>
            <Time>2019-08-02T09:17:04.000Z</Time>
            <Position>
              <LatitudeDegrees>40.8128764294087886810302734375</LatitudeDegrees>
              <LongitudeDegrees>-4.05621542595326900482177734375</LongitudeDegrees>
            </Position>
            <AltitudeMeters>1658.4000244140625</AltitudeMeters>
            <DistanceMeters>88189.418168259</DistanceMeters>
          </Trackpoint>
          <Trackpoint>
            <Time>2019-08-02T09:17:06.000Z</Time>
            <Position>
              <LatitudeDegrees>40.812915824353694915771484375</LatitudeDegrees>
              <LongitudeDegrees>-4.05602783896028995513916015625</LongitudeDegrees>
            </Position>
            <AltitudeMeters>1658.199951171875</AltitudeMeters>
            <DistanceMeters>88205.817367528</DistanceMeters>
          </Trackpoint>
          <Trackpoint>
            <Time>2019-08-02T09:17:08.000Z</Time>
            <Position>
              <LatitudeDegrees>40.8129550516605377197265625</LatitudeDegrees>
              <LongitudeDegrees>-4.055836312472820281982421875</LongitudeDegrees>
            </Position>
            <AltitudeMeters>1657.4000244140625</AltitudeMeters>
            <DistanceMeters>88222.531807543</DistanceMeters>
          </Trackpoint>
          <Trackpoint>
            <Time>2019-08-02T09:17:14.000Z</Time>
            <Position>
              <LatitudeDegrees>40.81309377215802669525146484375</LatitudeDegrees>
              <LongitudeDegrees>-4.055273048579692840576171875</LongitudeDegrees>
            </Position>
            <AltitudeMeters>1656.4000244140625</AltitudeMeters>
            <DistanceMeters>88272.429067556</DistanceMeters>
          </Trackpoint>
          <Trackpoint>
            <Time>2019-08-02T09:17:15.000Z</Time>
            <Position>
              <LatitudeDegrees>40.81312059424817562103271484375</LatitudeDegrees>
              <LongitudeDegrees>-4.0552061609923839569091796875</LongitudeDegrees>
            </Position>
            <AltitudeMeters>1656</AltitudeMeters>
            <DistanceMeters>88278.805777855</DistanceMeters>
          </Trackpoint>
          <Trackpoint>
            <Time>2019-08-02T09:17:17.000Z</Time>
            <Position>
              <LatitudeDegrees>40.8131897449493408203125</LatitudeDegrees>
              <LongitudeDegrees>-4.05507288873195648193359375</LongitudeDegrees>
            </Position>
            <AltitudeMeters>1655.199951171875</AltitudeMeters>
            <DistanceMeters>88292.417504728</DistanceMeters>
          </Trackpoint>
          <Trackpoint>
            <Time>2019-08-02T09:17:20.000Z</Time>
            <Position>
              <LatitudeDegrees>40.81327901221811771392822265625</LatitudeDegrees>
              <LongitudeDegrees>-4.05489058233797550201416015625</LongitudeDegrees>
            </Position>
            <AltitudeMeters>1654</AltitudeMeters>
            <DistanceMeters>88310.708110844</DistanceMeters>
          </Trackpoint>
          <Trackpoint>
            <Time>2019-08-02T09:17:21.000Z</Time>
            <Position>
              <LatitudeDegrees>40.81332184374332427978515625</LatitudeDegrees>
              <LongitudeDegrees>-4.05483224429190158843994140625</LongitudeDegrees>
            </Position>
            <AltitudeMeters>1653.800048828125</AltitudeMeters>
            <DistanceMeters>88317.55399258</DistanceMeters>
          </Trackpoint>
          <Trackpoint>
            <Time>2019-08-02T09:17:25.000Z</Time>
            <Position>
              <LatitudeDegrees>40.81351873464882373809814453125</LatitudeDegrees>
              <LongitudeDegrees>-4.05460643582046031951904296875</LongitudeDegrees>
            </Position>
            <AltitudeMeters>1652.5999755859375</AltitudeMeters>
            <DistanceMeters>88346.572325724</DistanceMeters>
          </Trackpoint>
          <Trackpoint>
            <Time>2019-08-02T09:17:28.000Z</Time>
            <Position>
              <LatitudeDegrees>40.81367597915232181549072265625</LatitudeDegrees>
              <LongitudeDegrees>-4.05445455573499202728271484375</LongitudeDegrees>
            </Position>
            <AltitudeMeters>1651.4000244140625</AltitudeMeters>
            <DistanceMeters>88368.251749581</DistanceMeters>
          </Trackpoint>
          <Trackpoint>
            <Time>2019-08-02T09:17:31.000Z</Time>
            <Position>
              <LatitudeDegrees>40.81382718868553638458251953125</LatitudeDegrees>
              <LongitudeDegrees>-4.05432145111262798309326171875</LongitudeDegrees>
            </Position>
            <AltitudeMeters>1650.4000244140625</AltitudeMeters>
            <DistanceMeters>88388.47436321</DistanceMeters>
          </Trackpoint>
          <Trackpoint>
            <Time>2019-08-02T09:17:33.000Z</Time>
            <Position>
              <LatitudeDegrees>40.81393263302743434906005859375</LatitudeDegrees>
              <LongitudeDegrees>-4.054231010377407073974609375</LongitudeDegrees>
            </Position>
            <AltitudeMeters>1649</AltitudeMeters>
            <DistanceMeters>88402.466220031</DistanceMeters>
          </Trackpoint>
          <Trackpoint>
            <Time>2019-08-02T09:17:35.000Z</Time>
            <Position>
              <LatitudeDegrees>40.8140472136437892913818359375</LatitudeDegrees>
              <LongitudeDegrees>-4.054141156375408172607421875</LongitudeDegrees>
            </Position>
            <AltitudeMeters>1647.4000244140625</AltitudeMeters>
            <DistanceMeters>88417.296173227</DistanceMeters>
          </Trackpoint>
          <Trackpoint>
            <Time>2019-08-02T09:17:37.000Z</Time>
            <Position>
              <LatitudeDegrees>40.8141692541539669036865234375</LatitudeDegrees>
              <LongitudeDegrees>-4.05404870398342609405517578125</LongitudeDegrees>
            </Position>
            <AltitudeMeters>1646.4000244140625</AltitudeMeters>
            <DistanceMeters>88432.953969223</DistanceMeters>
          </Trackpoint>
          <Trackpoint>
            <Time>2019-08-02T09:17:39.000Z</Time>
            <Position>
              <LatitudeDegrees>40.814295150339603424072265625</LatitudeDegrees>
              <LongitudeDegrees>-4.0539585985243320465087890625</LongitudeDegrees>
            </Position>
            <AltitudeMeters>1644.800048828125</AltitudeMeters>
            <DistanceMeters>88448.890150382</DistanceMeters>
          </Trackpoint>
          <Trackpoint>
            <Time>2019-08-02T09:17:42.000Z</Time>
            <Position>
              <LatitudeDegrees>40.81448030658066272735595703125</LatitudeDegrees>
              <LongitudeDegrees>-4.0538167767226696014404296875</LongitudeDegrees>
            </Position>
            <AltitudeMeters>1643.5999755859375</AltitudeMeters>
            <DistanceMeters>88472.710790875</DistanceMeters>
          </Trackpoint>
          <Trackpoint>
            <Time>2019-08-02T09:17:43.000Z</Time>
            <Position>
              <LatitudeDegrees>40.81454551778733730316162109375</LatitudeDegrees>
              <LongitudeDegrees>-4.05377243645489215850830078125</LongitudeDegrees>
            </Position>
            <AltitudeMeters>1642.199951171875</AltitudeMeters>
            <DistanceMeters>88480.873690732</DistanceMeters>
          </Trackpoint>
          <Trackpoint>
            <Time>2019-08-02T09:17:45.000Z</Time>
            <Position>
              <LatitudeDegrees>40.814685411751270294189453125</LatitudeDegrees>
              <LongitudeDegrees>-4.05369968153536319732666015625</LongitudeDegrees>
            </Position>
            <AltitudeMeters>1641</AltitudeMeters>
            <DistanceMeters>88497.607029024</DistanceMeters>
          </Trackpoint>
          <Trackpoint>
            <Time>2019-08-02T09:17:47.000Z</Time>
            <Position>
              <LatitudeDegrees>40.81483863294124603271484375</LatitudeDegrees>
              <LongitudeDegrees>-4.05366548337042331695556640625</LongitudeDegrees>
            </Position>
            <AltitudeMeters>1639.5999755859375</AltitudeMeters>
            <DistanceMeters>88514.902413156</DistanceMeters>
          </Trackpoint>
          <Trackpoint>
            <Time>2019-08-02T09:17:49.000Z</Time>
            <Position>
              <LatitudeDegrees>40.81500015221536159515380859375</LatitudeDegrees>
              <LongitudeDegrees>-4.0536528266966342926025390625</LongitudeDegrees>
            </Position>
            <AltitudeMeters>1638.199951171875</AltitudeMeters>
            <DistanceMeters>88532.91141717</DistanceMeters>
          </Trackpoint>
          <Trackpoint>
            <Time>2019-08-02T09:17:50.000Z</Time>
            <Position>
              <LatitudeDegrees>40.81508263014256954193115234375</LatitudeDegrees>
              <LongitudeDegrees>-4.05364905484020709991455078125</LongitudeDegrees>
            </Position>
            <AltitudeMeters>1637</AltitudeMeters>
            <DistanceMeters>88542.097114437</DistanceMeters>
          </Trackpoint>
          <Trackpoint>
            <Time>2019-08-02T09:17:52.000Z</Time>
            <Position>
              <LatitudeDegrees>40.81524104811251163482666015625</LatitudeDegrees>
              <LongitudeDegrees>-4.0536484681069850921630859375</LongitudeDegrees>
            </Position>
            <AltitudeMeters>1635.800048828125</AltitudeMeters>
            <DistanceMeters>88559.729371862</DistanceMeters>
          </Trackpoint>
          <Trackpoint>
            <Time>2019-08-02T09:17:55.000Z</Time>
            <Position>
              <LatitudeDegrees>40.81544104032218456268310546875</LatitudeDegrees>
              <LongitudeDegrees>-4.05366204679012298583984375</LongitudeDegrees>
            </Position>
            <AltitudeMeters>1634.5999755859375</AltitudeMeters>
            <DistanceMeters>88582.018353123</DistanceMeters>
          </Trackpoint>
          <Trackpoint>
            <Time>2019-08-02T09:17:58.000Z</Time>
            <Position>
              <LatitudeDegrees>40.815596692264080047607421875</LatitudeDegrees>
              <LongitudeDegrees>-4.05371694825589656829833984375</LongitudeDegrees>
            </Position>
            <AltitudeMeters>1633.5999755859375</AltitudeMeters>
            <DistanceMeters>88599.949468589</DistanceMeters>
          </Trackpoint>
          <Trackpoint>
            <Time>2019-08-02T09:18:01.000Z</Time>
            <Position>
              <LatitudeDegrees>40.8157249353826045989990234375</LatitudeDegrees>
              <LongitudeDegrees>-4.0537651441991329193115234375</LongitudeDegrees>
            </Position>
            <AltitudeMeters>1632.5999755859375</AltitudeMeters>
            <DistanceMeters>88614.789465365</DistanceMeters>
          </Trackpoint>
          <Trackpoint>
            <Time>2019-08-02T09:18:08.000Z</Time>
            <Position>
              <LatitudeDegrees>40.815961472690105438232421875</LatitudeDegrees>
              <LongitudeDegrees>-4.05386262573301792144775390625</LongitudeDegrees>
            </Position>
            <AltitudeMeters>1631.5999755859375</AltitudeMeters>
            <DistanceMeters>88642.367357386</DistanceMeters>
          </Trackpoint>
          <Trackpoint>
            <Time>2019-08-02T09:18:19.000Z</Time>
            <Position>
              <LatitudeDegrees>40.8161939866840839385986328125</LatitudeDegrees>
              <LongitudeDegrees>-4.05403596349060535430908203125</LongitudeDegrees>
            </Position>
            <AltitudeMeters>1630.5999755859375</AltitudeMeters>
            <DistanceMeters>88672.081407167</DistanceMeters>
          </Trackpoint>
          <Trackpoint>
            <Time>2019-08-02T09:18:27.000Z</Time>
            <Position>
              <LatitudeDegrees>40.8164632134139537811279296875</LatitudeDegrees>
              <LongitudeDegrees>-4.05416898429393768310546875</LongitudeDegrees>
            </Position>
            <AltitudeMeters>1629.800048828125</AltitudeMeters>
            <DistanceMeters>88704.073389355</DistanceMeters>
          </Trackpoint>
          <Trackpoint>
            <Time>2019-08-02T09:18:36.000Z</Time>
            <Position>
              <LatitudeDegrees>40.81674342043697834014892578125</LatitudeDegrees>
              <LongitudeDegrees>-4.054285325109958648681640625</LongitudeDegrees>
            </Position>
            <AltitudeMeters>1628.5999755859375</AltitudeMeters>
            <DistanceMeters>88736.764512724</DistanceMeters>
          </Trackpoint>
          <Trackpoint>
            <Time>2019-08-02T09:18:52.000Z</Time>
            <Position>
              <LatitudeDegrees>40.817280113697052001953125</LatitudeDegrees>
              <LongitudeDegrees>-4.0543666295707225799560546875</LongitudeDegrees>
            </Position>
            <AltitudeMeters>1628.4000244140625</AltitudeMeters>
            <DistanceMeters>88796.89082181</DistanceMeters>
          </Trackpoint>
          <Trackpoint>
            <Time>2019-08-02T09:18:57.000Z</Time>
            <Position>
              <LatitudeDegrees>40.81752763129770755767822265625</LatitudeDegrees>
              <LongitudeDegrees>-4.0543371252715587615966796875</LongitudeDegrees>
            </Position>
            <AltitudeMeters>1628.800048828125</AltitudeMeters>
            <DistanceMeters>88824.551921521</DistanceMeters>
          </Trackpoint>
          <Trackpoint>
            <Time>2019-08-02T09:19:01.000Z</Time>
            <Position>
              <LatitudeDegrees>40.8177335746586322784423828125</LatitudeDegrees>
              <LongitudeDegrees>-4.0542348660528659820556640625</LongitudeDegrees>
            </Position>
            <AltitudeMeters>1629.199951171875</AltitudeMeters>
            <DistanceMeters>88849.038592913</DistanceMeters>
          </Trackpoint>
          <Trackpoint>
            <Time>2019-08-02T09:19:03.000Z</Time>
            <Position>
              <LatitudeDegrees>40.81783591769635677337646484375</LatitudeDegrees>
              <LongitudeDegrees>-4.0541557408869266510009765625</LongitudeDegrees>
            </Position>
            <AltitudeMeters>1629.4000244140625</AltitudeMeters>
            <DistanceMeters>88862.236021241</DistanceMeters>
          </Trackpoint>
          <Trackpoint>
            <Time>2019-08-02T09:19:08.000Z</Time>
            <Position>
              <LatitudeDegrees>40.81804965622723102569580078125</LatitudeDegrees>
              <LongitudeDegrees>-4.05392750166356563568115234375</LongitudeDegrees>
            </Position>
            <AltitudeMeters>1630</AltitudeMeters>
            <DistanceMeters>88892.822668815</DistanceMeters>
          </Trackpoint>
          <Trackpoint>
            <Time>2019-08-02T09:19:09.000Z</Time>
            <Position>
              <LatitudeDegrees>40.8180879615247249603271484375</LatitudeDegrees>
              <LongitudeDegrees>-4.0538694150745868682861328125</LongitudeDegrees>
            </Position>
            <AltitudeMeters>1630.199951171875</AltitudeMeters>
            <DistanceMeters>88899.312374242</DistanceMeters>
          </Trackpoint>
          <Trackpoint>
            <Time>2019-08-02T09:19:14.000Z</Time>
            <Position>
              <LatitudeDegrees>40.81827529706060886383056640625</LatitudeDegrees>
              <LongitudeDegrees>-4.05355886556208133697509765625</LongitudeDegrees>
            </Position>
            <AltitudeMeters>1631.4000244140625</AltitudeMeters>
            <DistanceMeters>88932.763937329</DistanceMeters>
          </Trackpoint>
          <Trackpoint>
            <Time>2019-08-02T09:19:18.000Z</Time>
            <Position>
              <LatitudeDegrees>40.81842063926160335540771484375</LatitudeDegrees>
              <LongitudeDegrees>-4.05330757610499858856201171875</LongitudeDegrees>
            </Position>
            <AltitudeMeters>1631.800048828125</AltitudeMeters>
            <DistanceMeters>88959.404316981</DistanceMeters>
          </Trackpoint>
          <Trackpoint>
            <Time>2019-08-02T09:19:24.000Z</Time>
            <Position>
              <LatitudeDegrees>40.81869833171367645263671875</LatitudeDegrees>
              <LongitudeDegrees>-4.0528800152242183685302734375</LongitudeDegrees>
            </Position>
            <AltitudeMeters>1632.4000244140625</AltitudeMeters>
            <DistanceMeters>89006.862716942</DistanceMeters>
          </Trackpoint>
          <Trackpoint>
            <Time>2019-08-02T09:19:30.000Z</Time>
            <Position>
              <LatitudeDegrees>40.8190763555467128753662109375</LatitudeDegrees>
              <LongitudeDegrees>-4.05243669636547565460205078125</LongitudeDegrees>
            </Position>
            <AltitudeMeters>1633.199951171875</AltitudeMeters>
            <DistanceMeters>89063.117970033</DistanceMeters>
          </Trackpoint>
          <Trackpoint>
            <Time>2019-08-02T09:19:35.000Z</Time>
            <Position>
              <LatitudeDegrees>40.8194029144942760467529296875</LatitudeDegrees>
              <LongitudeDegrees>-4.0522922761738300323486328125</LongitudeDegrees>
            </Position>
            <AltitudeMeters>1633.5999755859375</AltitudeMeters>
            <DistanceMeters>89101.446262276</DistanceMeters>
          </Trackpoint>
          <Trackpoint>
            <Time>2019-08-02T09:19:39.000Z</Time>
            <Position>
              <LatitudeDegrees>40.81956460140645503997802734375</LatitudeDegrees>
              <LongitudeDegrees>-4.05245262198150157928466796875</LongitudeDegrees>
            </Position>
            <AltitudeMeters>1634.5999755859375</AltitudeMeters>
            <DistanceMeters>89123.946934842</DistanceMeters>
          </Trackpoint>
          <Trackpoint>
            <Time>2019-08-02T09:19:43.000Z</Time>
            <Position>
              <LatitudeDegrees>40.8195400424301624298095703125</LatitudeDegrees>
              <LongitudeDegrees>-4.0526972897350788116455078125</LongitudeDegrees>
            </Position>
            <AltitudeMeters>1634.5999755859375</AltitudeMeters>
            <DistanceMeters>89144.735861188</DistanceMeters>
          </Trackpoint>
          <Trackpoint>
            <Time>2019-08-02T09:19:49.000Z</Time>
            <Position>
              <LatitudeDegrees>40.8194540441036224365234375</LatitudeDegrees>
              <LongitudeDegrees>-4.0532350726425647735595703125</LongitudeDegrees>
            </Position>
            <AltitudeMeters>1634.5999755859375</AltitudeMeters>
            <DistanceMeters>89191.033672212</DistanceMeters>
          </Trackpoint>
          <Trackpoint>
            <Time>2019-08-02T09:19:55.000Z</Time>
            <Position>
              <LatitudeDegrees>40.8192989788949489593505859375</LatitudeDegrees>
              <LongitudeDegrees>-4.0538657270371913909912109375</LongitudeDegrees>
            </Position>
            <AltitudeMeters>1634.199951171875</AltitudeMeters>
            <DistanceMeters>89246.887558643</DistanceMeters>
          </Trackpoint>
          <Trackpoint>
            <Time>2019-08-02T09:19:59.000Z</Time>
            <Position>
              <LatitudeDegrees>40.81938187591731548309326171875</LatitudeDegrees>
              <LongitudeDegrees>-4.0543344430625438690185546875</LongitudeDegrees>
            </Position>
            <AltitudeMeters>1633.5999755859375</AltitudeMeters>
            <DistanceMeters>89287.431683813</DistanceMeters>
          </Trackpoint>
          <Trackpoint>
            <Time>2019-08-02T09:20:05.000Z</Time>
            <Position>
              <LatitudeDegrees>40.819583125412464141845703125</LatitudeDegrees>
              <LongitudeDegrees>-4.05508068390190601348876953125</LongitudeDegrees>
            </Position>
            <AltitudeMeters>1632.800048828125</AltitudeMeters>
            <DistanceMeters>89354.159724124</DistanceMeters>
          </Trackpoint>
          <Trackpoint>
            <Time>2019-08-02T09:20:06.000Z</Time>
            <Position>
              <LatitudeDegrees>40.8196241967380046844482421875</LatitudeDegrees>
              <LongitudeDegrees>-4.05521144159138202667236328125</LongitudeDegrees>
            </Position>
            <AltitudeMeters>1632.800048828125</AltitudeMeters>
            <DistanceMeters>89366.084346288</DistanceMeters>
          </Trackpoint>
          <Trackpoint>
            <Time>2019-08-02T09:20:11.000Z</Time>
            <Position>
              <LatitudeDegrees>40.81986316479742527008056640625</LatitudeDegrees>
              <LongitudeDegrees>-4.05588769353926181793212890625</LongitudeDegrees>
            </Position>
            <AltitudeMeters>1631.5999755859375</AltitudeMeters>
            <DistanceMeters>89428.948952986</DistanceMeters>
          </Trackpoint>
          <Trackpoint>
            <Time>2019-08-02T09:20:16.000Z</Time>
            <Position>
              <LatitudeDegrees>40.8201324753463268280029296875</LatitudeDegrees>
              <LongitudeDegrees>-4.0565355308353900909423828125</LongitudeDegrees>
            </Position>
            <AltitudeMeters>1630.800048828125</AltitudeMeters>
            <DistanceMeters>89491.206972411</DistanceMeters>
          </Trackpoint>
          <Trackpoint>
            <Time>2019-08-02T09:20:21.000Z</Time>
            <Position>
              <LatitudeDegrees>40.8204047195613384246826171875</LatitudeDegrees>
              <LongitudeDegrees>-4.05716191045939922332763671875</LongitudeDegrees>
            </Position>
            <AltitudeMeters>1630</AltitudeMeters>
            <DistanceMeters>89552.048860589</DistanceMeters>
          </Trackpoint>
          <Trackpoint>
            <Time>2019-08-02T09:20:22.000Z</Time>
            <Position>
              <LatitudeDegrees>40.82046397961676120758056640625</LatitudeDegrees>
              <LongitudeDegrees>-4.057271294295787811279296875</LongitudeDegrees>
            </Position>
            <AltitudeMeters>1629.5999755859375</AltitudeMeters>
            <DistanceMeters>89563.379376764</DistanceMeters>
          </Trackpoint>
          <Trackpoint>
            <Time>2019-08-02T09:20:24.000Z</Time>
            <Position>
              <LatitudeDegrees>40.82058727741241455078125</LatitudeDegrees>
              <LongitudeDegrees>-4.05746877193450927734375</LongitudeDegrees>
            </Position>
            <AltitudeMeters>1629.5999755859375</AltitudeMeters>
            <DistanceMeters>89584.943323214</DistanceMeters>
          </Trackpoint>
          <Trackpoint>
            <Time>2019-08-02T09:20:28.000Z</Time>
            <Position>
              <LatitudeDegrees>40.82080394960939884185791015625</LatitudeDegrees>
              <LongitudeDegrees>-4.0578997693955898284912109375</LongitudeDegrees>
            </Position>
            <AltitudeMeters>1629.199951171875</AltitudeMeters>
            <DistanceMeters>89628.526101003</DistanceMeters>
          </Trackpoint>
          <Trackpoint>
            <Time>2019-08-02T09:20:30.000Z</Time>
            <Position>
              <LatitudeDegrees>40.8208808116614818572998046875</LatitudeDegrees>
              <LongitudeDegrees>-4.0581247396767139434814453125</LongitudeDegrees>
            </Position>
            <AltitudeMeters>1628.800048828125</AltitudeMeters>
            <DistanceMeters>89649.316764754</DistanceMeters>
          </Trackpoint>
          <Trackpoint>
            <Time>2019-08-02T09:20:35.000Z</Time>
            <Position>
              <LatitudeDegrees>40.82105875946581363677978515625</LatitudeDegrees>
              <LongitudeDegrees>-4.05865908600389957427978515625</LongitudeDegrees>
            </Position>
            <AltitudeMeters>1627.800048828125</AltitudeMeters>
            <DistanceMeters>89698.489118358</DistanceMeters>
          </Trackpoint>
          <Trackpoint>
            <Time>2019-08-02T09:20:37.000Z</Time>
            <Position>
              <LatitudeDegrees>40.82113319076597690582275390625</LatitudeDegrees>
              <LongitudeDegrees>-4.058877266943454742431640625</LongitudeDegrees>
            </Position>
            <AltitudeMeters>1627.4000244140625</AltitudeMeters>
            <DistanceMeters>89718.647328595</DistanceMeters>
          </Trackpoint>
          <Trackpoint>
            <Time>2019-08-02T09:20:40.000Z</Time>
            <Position>
              <LatitudeDegrees>40.82126596011221408843994140625</LatitudeDegrees>
              <LongitudeDegrees>-4.05915311537683010101318359375</LongitudeDegrees>
            </Position>
            <AltitudeMeters>1626.4000244140625</AltitudeMeters>
            <DistanceMeters>89746.182784621</DistanceMeters>
          </Trackpoint>
          <Trackpoint>
            <Time>2019-08-02T09:20:42.000Z</Time>
            <Position>
              <LatitudeDegrees>40.82137190736830234527587890625</LatitudeDegrees>
              <LongitudeDegrees>-4.05934422276914119720458984375</LongitudeDegrees>
            </Position>
            <AltitudeMeters>1625.800048828125</AltitudeMeters>
            <DistanceMeters>89766.136584524</DistanceMeters>
          </Trackpoint>
          <Trackpoint>
            <Time>2019-08-02T09:20:45.000Z</Time>
            <Position>
              <LatitudeDegrees>40.82154683768749237060546875</LatitudeDegrees>
              <LongitudeDegrees>-4.05958796851336956024169921875</LongitudeDegrees>
            </Position>
            <AltitudeMeters>1625.4000244140625</AltitudeMeters>
            <DistanceMeters>89794.430938328</DistanceMeters>
          </Trackpoint>
          <Trackpoint>
            <Time>2019-08-02T09:20:47.000Z</Time>
            <Position>
              <LatitudeDegrees>40.8216663636267185211181640625</LatitudeDegrees>
              <LongitudeDegrees>-4.05971788801252841949462890625</LongitudeDegrees>
            </Position>
            <AltitudeMeters>1625</AltitudeMeters>
            <DistanceMeters>89811.656741994</DistanceMeters>
          </Trackpoint>
          <Trackpoint>
            <Time>2019-08-02T09:20:49.000Z</Time>
            <Position>
              <LatitudeDegrees>40.821795947849750518798828125</LatitudeDegrees>
              <LongitudeDegrees>-4.05984512530267238616943359375</LongitudeDegrees>
            </Position>
            <AltitudeMeters>1624.4000244140625</AltitudeMeters>
            <DistanceMeters>89829.625587626</DistanceMeters>
          </Trackpoint>
          <Trackpoint>
            <Time>2019-08-02T09:20:51.000Z</Time>
            <Position>
              <LatitudeDegrees>40.82194221206009387969970703125</LatitudeDegrees>
              <LongitudeDegrees>-4.0599493123590946197509765625</LongitudeDegrees>
            </Position>
            <AltitudeMeters>1623.800048828125</AltitudeMeters>
            <DistanceMeters>89848.119944483</DistanceMeters>
          </Trackpoint>
          <Trackpoint>
            <Time>2019-08-02T09:20:52.000Z</Time>
            <Position>
              <LatitudeDegrees>40.8220244385302066802978515625</LatitudeDegrees>
              <LongitudeDegrees>-4.05999767594039440155029296875</LongitudeDegrees>
            </Position>
            <AltitudeMeters>1623.4000244140625</AltitudeMeters>
            <DistanceMeters>89858.137941768</DistanceMeters>
          </Trackpoint>
          <Trackpoint>
            <Time>2019-08-02T09:20:56.000Z</Time>
            <Position>
              <LatitudeDegrees>40.82234655506908893585205078125</LatitudeDegrees>
              <LongitudeDegrees>-4.0601796470582485198974609375</LongitudeDegrees>
            </Position>
            <AltitudeMeters>1622.199951171875</AltitudeMeters>
            <DistanceMeters>89897.128781845</DistanceMeters>
          </Trackpoint>
          <Trackpoint>
            <Time>2019-08-02T09:20:59.000Z</Time>
            <Position>
              <LatitudeDegrees>40.8226094953715801239013671875</LatitudeDegrees>
              <LongitudeDegrees>-4.06029246747493743896484375</LongitudeDegrees>
            </Position>
            <AltitudeMeters>1621</AltitudeMeters>
            <DistanceMeters>89927.898660867</DistanceMeters>
          </Trackpoint>
          <Trackpoint>
            <Time>2019-08-02T09:21:04.000Z</Time>
            <Position>
              <LatitudeDegrees>40.82307158969342708587646484375</LatitudeDegrees>
              <LongitudeDegrees>-4.06035675667226314544677734375</LongitudeDegrees>
            </Position>
            <AltitudeMeters>1620.199951171875</AltitudeMeters>
            <DistanceMeters>89979.614936753</DistanceMeters>
          </Trackpoint>
          <Trackpoint>
            <Time>2019-08-02T09:21:08.000Z</Time>
            <Position>
              <LatitudeDegrees>40.82343653775751590728759765625</LatitudeDegrees>
              <LongitudeDegrees>-4.06036530621349811553955078125</LongitudeDegrees>
            </Position>
            <AltitudeMeters>1619</AltitudeMeters>
            <DistanceMeters>90020.240607601</DistanceMeters>
          </Trackpoint>
          <Trackpoint>
            <Time>2019-08-02T09:21:10.000Z</Time>
            <Position>
              <LatitudeDegrees>40.82361926324665546417236328125</LatitudeDegrees>
              <LongitudeDegrees>-4.0603429265320301055908203125</LongitudeDegrees>
            </Position>
            <AltitudeMeters>1618.4000244140625</AltitudeMeters>
            <DistanceMeters>90040.665383525</DistanceMeters>
          </Trackpoint>
          <Trackpoint>
            <Time>2019-08-02T09:21:11.000Z</Time>
            <Position>
              <LatitudeDegrees>40.8237108774483203887939453125</LatitudeDegrees>
              <LongitudeDegrees>-4.0603311918675899505615234375</LongitudeDegrees>
            </Position>
            <AltitudeMeters>1618.199951171875</AltitudeMeters>
            <DistanceMeters>90050.909774597</DistanceMeters>
          </Trackpoint>
          <Trackpoint>
            <Time>2019-08-02T09:21:15.000Z</Time>
            <Position>
              <LatitudeDegrees>40.82407155074179172515869140625</LatitudeDegrees>
              <LongitudeDegrees>-4.0602527372539043426513671875</LongitudeDegrees>
            </Position>
            <AltitudeMeters>1617</AltitudeMeters>
            <DistanceMeters>90091.593639849</DistanceMeters>
          </Trackpoint>
          <Trackpoint>
            <Time>2019-08-02T09:21:18.000Z</Time>
            <Position>
              <LatitudeDegrees>40.82433574832975864410400390625</LatitudeDegrees>
              <LongitudeDegrees>-4.06021091155707836151123046875</LongitudeDegrees>
            </Position>
            <AltitudeMeters>1617</AltitudeMeters>
            <DistanceMeters>90121.209519966</DistanceMeters>
          </Trackpoint>
          <Trackpoint>
            <Time>2019-08-02T09:21:25.000Z</Time>
            <Position>
              <LatitudeDegrees>40.82493740133941173553466796875</LatitudeDegrees>
              <LongitudeDegrees>-4.06013027764856815338134765625</LongitudeDegrees>
            </Position>
            <AltitudeMeters>1616.4000244140625</AltitudeMeters>
            <DistanceMeters>90188.518089498</DistanceMeters>
          </Trackpoint>
          <Trackpoint>
            <Time>2019-08-02T09:21:32.000Z</Time>
            <Position>
              <LatitudeDegrees>40.82553184591233730316162109375</LatitudeDegrees>
              <LongitudeDegrees>-4.05999516136944293975830078125</LongitudeDegrees>
            </Position>
            <AltitudeMeters>1615.5999755859375</AltitudeMeters>
            <DistanceMeters>90255.652428804</DistanceMeters>
          </Trackpoint>
          <Trackpoint>
            <Time>2019-08-02T09:21:37.000Z</Time>
            <Position>
              <LatitudeDegrees>40.825956724584102630615234375</LatitudeDegrees>
              <LongitudeDegrees>-4.05989684164524078369140625</LongitudeDegrees>
            </Position>
            <AltitudeMeters>1614.5999755859375</AltitudeMeters>
            <DistanceMeters>90303.661708033</DistanceMeters>
          </Trackpoint>
          <Trackpoint>
            <Time>2019-08-02T09:21:43.000Z</Time>
            <Position>
              <LatitudeDegrees>40.826455615460872650146484375</LatitudeDegrees>
              <LongitudeDegrees>-4.05980958603322505950927734375</LongitudeDegrees>
            </Position>
            <AltitudeMeters>1613.5999755859375</AltitudeMeters>
            <DistanceMeters>90359.673407068</DistanceMeters>
          </Trackpoint>
          <Trackpoint>
            <Time>2019-08-02T09:21:48.000Z</Time>
            <Position>
              <LatitudeDegrees>40.82670397125184535980224609375</LatitudeDegrees>
              <LongitudeDegrees>-4.059789218008518218994140625</LongitudeDegrees>
            </Position>
            <AltitudeMeters>1612.4000244140625</AltitudeMeters>
            <DistanceMeters>90387.369089285</DistanceMeters>
          </Trackpoint>
          <Trackpoint>
            <Time>2019-08-02T09:21:53.000Z</Time>
            <Position>
              <LatitudeDegrees>40.826879404485225677490234375</LatitudeDegrees>
              <LongitudeDegrees>-4.05976851470768451690673828125</LongitudeDegrees>
            </Position>
            <AltitudeMeters>1611.5999755859375</AltitudeMeters>
            <DistanceMeters>90406.973171856</DistanceMeters>
          </Trackpoint>
          <Trackpoint>
            <Time>2019-08-02T09:21:55.000Z</Time>
            <Position>
              <LatitudeDegrees>40.82697956822812557220458984375</LatitudeDegrees>
              <LongitudeDegrees>-4.05976432375609874725341796875</LongitudeDegrees>
            </Position>
            <AltitudeMeters>1611.4000244140625</AltitudeMeters>
            <DistanceMeters>90418.127381521</DistanceMeters>
          </Trackpoint>
          <Trackpoint>
            <Time>2019-08-02T09:21:59.000Z</Time>
            <Position>
              <LatitudeDegrees>40.82720906473696231842041015625</LatitudeDegrees>
              <LongitudeDegrees>-4.059760384261608123779296875</LongitudeDegrees>
            </Position>
            <AltitudeMeters>1610.800048828125</AltitudeMeters>
            <DistanceMeters>90443.672782365</DistanceMeters>
          </Trackpoint>
          <Trackpoint>
            <Time>2019-08-02T09:22:03.000Z</Time>
            <Position>
              <LatitudeDegrees>40.82747074775397777557373046875</LatitudeDegrees>
              <LongitudeDegrees>-4.0597749687731266021728515625</LongitudeDegrees>
            </Position>
            <AltitudeMeters>1609.800048828125</AltitudeMeters>
            <DistanceMeters>90472.824463177</DistanceMeters>
          </Trackpoint>
          <Trackpoint>
            <Time>2019-08-02T09:22:05.000Z</Time>
            <Position>
              <LatitudeDegrees>40.82760552875697612762451171875</LatitudeDegrees>
              <LongitudeDegrees>-4.05977857299149036407470703125</LongitudeDegrees>
            </Position>
            <AltitudeMeters>1609.199951171875</AltitudeMeters>
            <DistanceMeters>90487.828456171</DistanceMeters>
          </Trackpoint>
          <Trackpoint>
            <Time>2019-08-02T09:22:07.000Z</Time>
            <Position>
              <LatitudeDegrees>40.8277445845305919647216796875</LatitudeDegrees>
              <LongitudeDegrees>-4.0597696043550968170166015625</LongitudeDegrees>
            </Position>
            <AltitudeMeters>1608.5999755859375</AltitudeMeters>
            <DistanceMeters>90503.323930757</DistanceMeters>
          </Trackpoint>
          <Trackpoint>
            <Time>2019-08-02T09:22:10.000Z</Time>
            <Position>
              <LatitudeDegrees>40.8279521204531192779541015625</LatitudeDegrees>
              <LongitudeDegrees>-4.05970430932939052581787109375</LongitudeDegrees>
            </Position>
            <AltitudeMeters>1607.5999755859375</AltitudeMeters>
            <DistanceMeters>90527.068823113</DistanceMeters>
          </Trackpoint>
          <Trackpoint>
            <Time>2019-08-02T09:22:14.000Z</Time>
            <Position>
              <LatitudeDegrees>40.82823584787547588348388671875</LatitudeDegrees>
              <LongitudeDegrees>-4.05960087664425373077392578125</LongitudeDegrees>
            </Position>
            <AltitudeMeters>1606.4000244140625</AltitudeMeters>
            <DistanceMeters>90559.827551486</DistanceMeters>
          </Trackpoint>
          <Trackpoint>
            <Time>2019-08-02T09:22:17.000Z</Time>
            <Position>
              <LatitudeDegrees>40.82843617536127567291259765625</LatitudeDegrees>
              <LongitudeDegrees>-4.05951219610869884490966796875</LongitudeDegrees>
            </Position>
            <AltitudeMeters>1606</AltitudeMeters>
            <DistanceMeters>90583.34181547</DistanceMeters>
          </Trackpoint>
          <Trackpoint>
            <Time>2019-08-02T09:22:19.000Z</Time>
            <Position>
              <LatitudeDegrees>40.82855067215859889984130859375</LatitudeDegrees>
              <LongitudeDegrees>-4.0594423748552799224853515625</LongitudeDegrees>
            </Position>
            <AltitudeMeters>1605.4000244140625</AltitudeMeters>
            <DistanceMeters>90597.376846199</DistanceMeters>
          </Trackpoint>
          <Trackpoint>
            <Time>2019-08-02T09:22:22.000Z</Time>
            <Position>
              <LatitudeDegrees>40.82869517616927623748779296875</LatitudeDegrees>
              <LongitudeDegrees>-4.0593223460018634796142578125</LongitudeDegrees>
            </Position>
            <AltitudeMeters>1604.800048828125</AltitudeMeters>
            <DistanceMeters>90616.373397068</DistanceMeters>
          </Trackpoint>
          <Trackpoint>
            <Time>2019-08-02T09:22:23.000Z</Time>
            <Position>
              <LatitudeDegrees>40.82873792387545108795166015625</LatitudeDegrees>
              <LongitudeDegrees>-4.059268534183502197265625</LongitudeDegrees>
            </Position>
            <AltitudeMeters>1604.4000244140625</AltitudeMeters>
            <DistanceMeters>90622.945372086</DistanceMeters>
          </Trackpoint>
          <Trackpoint>
            <Time>2019-08-02T09:22:26.000Z</Time>
            <Position>
              <LatitudeDegrees>40.828886367380619049072265625</LatitudeDegrees>
              <LongitudeDegrees>-4.05910047702491283416748046875</LongitudeDegrees>
            </Position>
            <AltitudeMeters>1603.5999755859375</AltitudeMeters>
            <DistanceMeters>90644.700886943</DistanceMeters>
          </Trackpoint>
          <Trackpoint>
            <Time>2019-08-02T09:22:29.000Z</Time>
            <Position>
              <LatitudeDegrees>40.8289948292076587677001953125</LatitudeDegrees>
              <LongitudeDegrees>-4.05889646150171756744384765625</LongitudeDegrees>
            </Position>
            <AltitudeMeters>1602.5999755859375</AltitudeMeters>
            <DistanceMeters>90665.699425768</DistanceMeters>
          </Trackpoint>
          <Trackpoint>
            <Time>2019-08-02T09:22:30.000Z</Time>
            <Position>
              <LatitudeDegrees>40.82902676425874233245849609375</LatitudeDegrees>
              <LongitudeDegrees>-4.05881817452609539031982421875</LongitudeDegrees>
            </Position>
            <AltitudeMeters>1602.5999755859375</AltitudeMeters>
            <DistanceMeters>90673.189074282</DistanceMeters>
          </Trackpoint>
          <Trackpoint>
            <Time>2019-08-02T09:22:35.000Z</Time>
            <Position>
              <LatitudeDegrees>40.82915886305272579193115234375</LatitudeDegrees>
              <LongitudeDegrees>-4.058449454605579376220703125</LongitudeDegrees>
            </Position>
            <AltitudeMeters>1601.5999755859375</AltitudeMeters>
            <DistanceMeters>90707.546718454</DistanceMeters>
          </Trackpoint>
          <Trackpoint>
            <Time>2019-08-02T09:22:38.000Z</Time>
            <Position>
              <LatitudeDegrees>40.82923002541065216064453125</LatitudeDegrees>
              <LongitudeDegrees>-4.0582269988954067230224609375</LongitudeDegrees>
            </Position>
            <AltitudeMeters>1600.5999755859375</AltitudeMeters>
            <DistanceMeters>90727.886875346</DistanceMeters>
          </Trackpoint>
          <Trackpoint>
            <Time>2019-08-02T09:22:41.000Z</Time>
            <Position>
              <LatitudeDegrees>40.8292925544083118438720703125</LatitudeDegrees>
              <LongitudeDegrees>-4.05801166780292987823486328125</LongitudeDegrees>
            </Position>
            <AltitudeMeters>1599.5999755859375</AltitudeMeters>
            <DistanceMeters>90747.311181873</DistanceMeters>
          </Trackpoint>
          <Trackpoint>
            <Time>2019-08-02T09:22:45.000Z</Time>
            <Position>
              <LatitudeDegrees>40.82935164682567119598388671875</LatitudeDegrees>
              <LongitudeDegrees>-4.05774897895753383636474609375</LongitudeDegrees>
            </Position>
            <AltitudeMeters>1598.5999755859375</AltitudeMeters>
            <DistanceMeters>90770.391134417</DistanceMeters>
          </Trackpoint>
          <Trackpoint>
            <Time>2019-08-02T09:22:48.000Z</Time>
            <Position>
              <LatitudeDegrees>40.829383917152881622314453125</LatitudeDegrees>
              <LongitudeDegrees>-4.05755736865103244781494140625</LongitudeDegrees>
            </Position>
            <AltitudeMeters>1597.800048828125</AltitudeMeters>
            <DistanceMeters>90786.923051839</DistanceMeters>
          </Trackpoint>
          <Trackpoint>
            <Time>2019-08-02T09:22:50.000Z</Time>
            <Position>
              <LatitudeDegrees>40.82941819913685321807861328125</LatitudeDegrees>
              <LongitudeDegrees>-4.0574226714670658111572265625</LongitudeDegrees>
            </Position>
            <AltitudeMeters>1597.5999755859375</AltitudeMeters>
            <DistanceMeters>90798.891514674</DistanceMeters>
          </Trackpoint>
          <Trackpoint>
            <Time>2019-08-02T09:22:52.000Z</Time>
            <Position>
              <LatitudeDegrees>40.829456336796283721923828125</LatitudeDegrees>
              <LongitudeDegrees>-4.05729585327208042144775390625</LongitudeDegrees>
            </Position>
            <AltitudeMeters>1596.800048828125</AltitudeMeters>
            <DistanceMeters>90810.384641238</DistanceMeters>
          </Trackpoint>
          <Trackpoint>
            <Time>2019-08-02T09:22:56.000Z</Time>
            <Position>
              <LatitudeDegrees>40.82951626740396022796630859375</LatitudeDegrees>
              <LongitudeDegrees>-4.05704724602401256561279296875</LongitudeDegrees>
            </Position>
            <AltitudeMeters>1595.800048828125</AltitudeMeters>
            <DistanceMeters>90832.358426017</DistanceMeters>
          </Trackpoint>
          <Trackpoint>
            <Time>2019-08-02T09:23:01.000Z</Time>
            <Position>
              <LatitudeDegrees>40.8295912854373455047607421875</LatitudeDegrees>
              <LongitudeDegrees>-4.0567266382277011871337890625</LongitudeDegrees>
            </Position>
            <AltitudeMeters>1594.800048828125</AltitudeMeters>
            <DistanceMeters>90860.620847038</DistanceMeters>
          </Trackpoint>
          <Trackpoint>
            <Time>2019-08-02T09:23:03.000Z</Time>
            <Position>
              <LatitudeDegrees>40.82962674088776111602783203125</LatitudeDegrees>
              <LongitudeDegrees>-4.05660551972687244415283203125</LongitudeDegrees>
            </Position>
            <AltitudeMeters>1594</AltitudeMeters>
            <DistanceMeters>90871.557592101</DistanceMeters>
          </Trackpoint>
          <Trackpoint>
            <Time>2019-08-02T09:23:04.000Z</Time>
            <Position>
              <LatitudeDegrees>40.82964970730245113372802734375</LatitudeDegrees>
              <LongitudeDegrees>-4.05654433183372020721435546875</LongitudeDegrees>
            </Position>
            <AltitudeMeters>1593.5999755859375</AltitudeMeters>
            <DistanceMeters>90877.309652609</DistanceMeters>
          </Trackpoint>
          <Trackpoint>
            <Time>2019-08-02T09:23:07.000Z</Time>
            <Position>
              <LatitudeDegrees>40.82971558906137943267822265625</LatitudeDegrees>
              <LongitudeDegrees>-4.05636613257229328155517578125</LongitudeDegrees>
            </Position>
            <AltitudeMeters>1592.4000244140625</AltitudeMeters>
            <DistanceMeters>90894.012743395</DistanceMeters>
          </Trackpoint>
          <Trackpoint>
            <Time>2019-08-02T09:23:09.000Z</Time>
            <Position>
              <LatitudeDegrees>40.8297652937471866607666015625</LatitudeDegrees>
              <LongitudeDegrees>-4.05626387335360050201416015625</LongitudeDegrees>
            </Position>
            <AltitudeMeters>1592</AltitudeMeters>
            <DistanceMeters>90904.248316017</DistanceMeters>
          </Trackpoint>
          <Trackpoint>
            <Time>2019-08-02T09:23:11.000Z</Time>
            <Position>
              <LatitudeDegrees>40.8298313431441783905029296875</LatitudeDegrees>
              <LongitudeDegrees>-4.0561751089990139007568359375</LongitudeDegrees>
            </Position>
            <AltitudeMeters>1591.5999755859375</AltitudeMeters>
            <DistanceMeters>90914.732308123</DistanceMeters>
          </Trackpoint>
          <Trackpoint>
            <Time>2019-08-02T09:23:16.000Z</Time>
            <Position>
              <LatitudeDegrees>40.82997509278357028961181640625</LatitudeDegrees>
              <LongitudeDegrees>-4.05594536103308200836181640625</LongitudeDegrees>
            </Position>
            <AltitudeMeters>1590.800048828125</AltitudeMeters>
            <DistanceMeters>90939.839150144</DistanceMeters>
          </Trackpoint>
          <Trackpoint>
            <Time>2019-08-02T09:23:21.000Z</Time>
            <Position>
              <LatitudeDegrees>40.83014625124633312225341796875</LatitudeDegrees>
              <LongitudeDegrees>-4.05573531053960323333740234375</LongitudeDegrees>
            </Position>
            <AltitudeMeters>1589.5999755859375</AltitudeMeters>
            <DistanceMeters>90965.836208465</DistanceMeters>
          </Trackpoint>
          <Trackpoint>
            <Time>2019-08-02T09:23:25.000Z</Time>
            <Position>
              <LatitudeDegrees>40.83038647659122943878173828125</LatitudeDegrees>
              <LongitudeDegrees>-4.0555883757770061492919921875</LongitudeDegrees>
            </Position>
            <AltitudeMeters>1589</AltitudeMeters>
            <DistanceMeters>90995.298474642</DistanceMeters>
          </Trackpoint>
          <Trackpoint>
            <Time>2019-08-02T09:23:30.000Z</Time>
            <Position>
              <LatitudeDegrees>40.83068051375448703765869140625</LatitudeDegrees>
              <LongitudeDegrees>-4.0556212328374385833740234375</LongitudeDegrees>
            </Position>
            <AltitudeMeters>1588.5999755859375</AltitudeMeters>
            <DistanceMeters>91028.1421322</DistanceMeters>
          </Trackpoint>
          <Trackpoint>
            <Time>2019-08-02T09:23:31.000Z</Time>
            <Position>
              <LatitudeDegrees>40.8307399414479732513427734375</LatitudeDegrees>
              <LongitudeDegrees>-4.0556447021663188934326171875</LongitudeDegrees>
            </Position>
            <AltitudeMeters>1588.4000244140625</AltitudeMeters>
            <DistanceMeters>91035.045808283</DistanceMeters>
          </Trackpoint>
          <Trackpoint>
            <Time>2019-08-02T09:23:33.000Z</Time>
            <Position>
              <LatitudeDegrees>40.830852426588535308837890625</LatitudeDegrees>
              <LongitudeDegrees>-4.0556810796260833740234375</LongitudeDegrees>
            </Position>
            <AltitudeMeters>1588.199951171875</AltitudeMeters>
            <DistanceMeters>91047.934808103</DistanceMeters>
          </Trackpoint>
          <Trackpoint>
            <Time>2019-08-02T09:23:37.000Z</Time>
            <Position>
              <LatitudeDegrees>40.83107530139386653900146484375</LatitudeDegrees>
              <LongitudeDegrees>-4.05576481483876705169677734375</LongitudeDegrees>
            </Position>
            <AltitudeMeters>1587.4000244140625</AltitudeMeters>
            <DistanceMeters>91073.724190033</DistanceMeters>
          </Trackpoint>
          <Trackpoint>
            <Time>2019-08-02T09:23:39.000Z</Time>
            <Position>
              <LatitudeDegrees>40.8311845175921916961669921875</LatitudeDegrees>
              <LongitudeDegrees>-4.05580890364944934844970703125</LongitudeDegrees>
            </Position>
            <AltitudeMeters>1587</AltitudeMeters>
            <DistanceMeters>91086.434701339</DistanceMeters>
          </Trackpoint>
          <Trackpoint>
            <Time>2019-08-02T09:23:42.000Z</Time>
            <Position>
              <LatitudeDegrees>40.83135324530303478240966796875</LatitudeDegrees>
              <LongitudeDegrees>-4.055852405726909637451171875</LongitudeDegrees>
            </Position>
            <AltitudeMeters>1586.4000244140625</AltitudeMeters>
            <DistanceMeters>91105.568372162</DistanceMeters>
          </Trackpoint>
          <Trackpoint>
            <Time>2019-08-02T09:23:48.000Z</Time>
            <Position>
              <LatitudeDegrees>40.8317290060222148895263671875</LatitudeDegrees>
              <LongitudeDegrees>-4.05591384507715702056884765625</LongitudeDegrees>
            </Position>
            <AltitudeMeters>1585.199951171875</AltitudeMeters>
            <DistanceMeters>91147.710121937</DistanceMeters>
          </Trackpoint>
          <Trackpoint>
            <Time>2019-08-02T09:23:52.000Z</Time>
            <Position>
              <LatitudeDegrees>40.832003764808177947998046875</LatitudeDegrees>
              <LongitudeDegrees>-4.055950976908206939697265625</LongitudeDegrees>
            </Position>
            <AltitudeMeters>1584.199951171875</AltitudeMeters>
            <DistanceMeters>91178.450786696</DistanceMeters>
          </Trackpoint>
          <Trackpoint>
            <Time>2019-08-02T09:23:53.000Z</Time>
            <Position>
              <LatitudeDegrees>40.83206771872937679290771484375</LatitudeDegrees>
              <LongitudeDegrees>-4.0559658966958522796630859375</LongitudeDegrees>
            </Position>
            <AltitudeMeters>1584</AltitudeMeters>
            <DistanceMeters>91185.679066042</DistanceMeters>
          </Trackpoint>
          <Trackpoint>
            <Time>2019-08-02T09:23:56.000Z</Time>
            <Position>
              <LatitudeDegrees>40.83225555717945098876953125</LatitudeDegrees>
              <LongitudeDegrees>-4.0559323690831661224365234375</LongitudeDegrees>
            </Position>
            <AltitudeMeters>1583.4000244140625</AltitudeMeters>
            <DistanceMeters>91206.775638694</DistanceMeters>
          </Trackpoint>
          <Trackpoint>
            <Time>2019-08-02T09:23:57.000Z</Time>
            <Position>
              <LatitudeDegrees>40.832333005964756011962890625</LatitudeDegrees>
              <LongitudeDegrees>-4.055934213101863861083984375</LongitudeDegrees>
            </Position>
            <AltitudeMeters>1583.4000244140625</AltitudeMeters>
            <DistanceMeters>91215.397447628</DistanceMeters>
          </Trackpoint>
          <Trackpoint>
            <Time>2019-08-02T09:24:00.000Z</Time>
            <Position>
              <LatitudeDegrees>40.8325547911226749420166015625</LatitudeDegrees>
              <LongitudeDegrees>-4.0559327043592929840087890625</LongitudeDegrees>
            </Position>
            <AltitudeMeters>1582.800048828125</AltitudeMeters>
            <DistanceMeters>91240.083003094</DistanceMeters>
          </Trackpoint>
          <Trackpoint>
            <Time>2019-08-02T09:24:06.000Z</Time>
            <Position>
              <LatitudeDegrees>40.8329712040722370147705078125</LatitudeDegrees>
              <LongitudeDegrees>-4.05591216869652271270751953125</LongitudeDegrees>
            </Position>
            <AltitudeMeters>1581.5999755859375</AltitudeMeters>
            <DistanceMeters>91286.462854646</DistanceMeters>
          </Trackpoint>
          <Trackpoint>
            <Time>2019-08-02T09:24:13.000Z</Time>
            <Position>
              <LatitudeDegrees>40.83341619931161403656005859375</LatitudeDegrees>
              <LongitudeDegrees>-4.05575425364077091217041015625</LongitudeDegrees>
            </Position>
            <AltitudeMeters>1580.199951171875</AltitudeMeters>
            <DistanceMeters>91337.746035261</DistanceMeters>
          </Trackpoint>
          <Trackpoint>
            <Time>2019-08-02T09:24:18.000Z</Time>
            <Position>
              <LatitudeDegrees>40.83371560089290142059326171875</LatitudeDegrees>
              <LongitudeDegrees>-4.05561125837266445159912109375</LongitudeDegrees>
            </Position>
            <AltitudeMeters>1579.199951171875</AltitudeMeters>
            <DistanceMeters>91373.179151247</DistanceMeters>
          </Trackpoint>
          <Trackpoint>
            <Time>2019-08-02T09:24:19.000Z</Time>
            <Position>
              <LatitudeDegrees>40.83376706577837467193603515625</LatitudeDegrees>
              <LongitudeDegrees>-4.05556482262909412384033203125</LongitudeDegrees>
            </Position>
            <AltitudeMeters>1579</AltitudeMeters>
            <DistanceMeters>91380.114799538</DistanceMeters>
          </Trackpoint>
          <Trackpoint>
            <Time>2019-08-02T09:24:24.000Z</Time>
            <Position>
              <LatitudeDegrees>40.83401047624647617340087890625</LatitudeDegrees>
              <LongitudeDegrees>-4.055273048579692840576171875</LongitudeDegrees>
            </Position>
            <AltitudeMeters>1578</AltitudeMeters>
            <DistanceMeters>91416.689593104</DistanceMeters>
          </Trackpoint>
          <Trackpoint>
            <Time>2019-08-02T09:24:30.000Z</Time>
            <Position>
              <LatitudeDegrees>40.83427500911056995391845703125</LatitudeDegrees>
              <LongitudeDegrees>-4.0547951124608516693115234375</LongitudeDegrees>
            </Position>
            <AltitudeMeters>1577</AltitudeMeters>
            <DistanceMeters>91466.557255189</DistanceMeters>
          </Trackpoint>
          <Trackpoint>
            <Time>2019-08-02T09:24:31.000Z</Time>
            <Position>
              <LatitudeDegrees>40.8343052677810192108154296875</LatitudeDegrees>
              <LongitudeDegrees>-4.0547156520187854766845703125</LongitudeDegrees>
            </Position>
            <AltitudeMeters>1576.800048828125</AltitudeMeters>
            <DistanceMeters>91474.048711997</DistanceMeters>
          </Trackpoint>
          <Trackpoint>
            <Time>2019-08-02T09:24:34.000Z</Time>
            <Position>
              <LatitudeDegrees>40.83440937101840972900390625</LatitudeDegrees>
              <LongitudeDegrees>-4.0544816292822360992431640625</LongitudeDegrees>
            </Position>
            <AltitudeMeters>1576</AltitudeMeters>
            <DistanceMeters>91496.909896007</DistanceMeters>
          </Trackpoint>
          <Trackpoint>
            <Time>2019-08-02T09:24:35.000Z</Time>
            <Position>
              <LatitudeDegrees>40.83444398827850818634033203125</LatitudeDegrees>
              <LongitudeDegrees>-4.05439420603215694427490234375</LongitudeDegrees>
            </Position>
            <AltitudeMeters>1575.800048828125</AltitudeMeters>
            <DistanceMeters>91505.218622408</DistanceMeters>
          </Trackpoint>
          <Trackpoint>
            <Time>2019-08-02T09:24:40.000Z</Time>
            <Position>
              <LatitudeDegrees>40.83458966575562953948974609375</LatitudeDegrees>
              <LongitudeDegrees>-4.05389196239411830902099609375</LongitudeDegrees>
            </Position>
            <AltitudeMeters>1574.4000244140625</AltitudeMeters>
            <DistanceMeters>91550.514678516</DistanceMeters>
          </Trackpoint>
          <Trackpoint>
            <Time>2019-08-02T09:24:42.000Z</Time>
            <Position>
              <LatitudeDegrees>40.83463844843208789825439453125</LatitudeDegrees>
              <LongitudeDegrees>-4.0536749549210071563720703125</LongitudeDegrees>
            </Position>
            <AltitudeMeters>1573</AltitudeMeters>
            <DistanceMeters>91569.578846914</DistanceMeters>
          </Trackpoint>
          <Trackpoint>
            <Time>2019-08-02T09:24:43.000Z</Time>
            <Position>
              <LatitudeDegrees>40.83466895855963230133056640625</LatitudeDegrees>
              <LongitudeDegrees>-4.05357747338712215423583984375</LongitudeDegrees>
            </Position>
            <AltitudeMeters>1572.5999755859375</AltitudeMeters>
            <DistanceMeters>91578.461684747</DistanceMeters>
          </Trackpoint>
          <Trackpoint>
            <Time>2019-08-02T09:24:44.000Z</Time>
            <Position>
              <LatitudeDegrees>40.8347062580287456512451171875</LatitudeDegrees>
              <LongitudeDegrees>-4.053489379584789276123046875</LongitudeDegrees>
            </Position>
            <AltitudeMeters>1572</AltitudeMeters>
            <DistanceMeters>91586.962725965</DistanceMeters>
          </Trackpoint>
          <Trackpoint>
            <Time>2019-08-02T09:24:47.000Z</Time>
            <Position>
              <LatitudeDegrees>40.83490365184843540191650390625</LatitudeDegrees>
              <LongitudeDegrees>-4.053356610238552093505859375</LongitudeDegrees>
            </Position>
            <AltitudeMeters>1570.5999755859375</AltitudeMeters>
            <DistanceMeters>91611.614238179</DistanceMeters>
          </Trackpoint>
          <Trackpoint>
            <Time>2019-08-02T09:24:48.000Z</Time>
            <Position>
              <LatitudeDegrees>40.83499434404075145721435546875</LatitudeDegrees>
              <LongitudeDegrees>-4.05329751782119274139404296875</LongitudeDegrees>
            </Position>
            <AltitudeMeters>1570</AltitudeMeters>
            <DistanceMeters>91622.868386401</DistanceMeters>
          </Trackpoint>
          <Trackpoint>
            <Time>2019-08-02T09:24:49.000Z</Time>
            <Position>
              <LatitudeDegrees>40.83508185110986232757568359375</LatitudeDegrees>
              <LongitudeDegrees>-4.0532320551574230194091796875</LongitudeDegrees>
            </Position>
            <AltitudeMeters>1569.5999755859375</AltitudeMeters>
            <DistanceMeters>91634.059774174</DistanceMeters>
          </Trackpoint>
          <Trackpoint>
            <Time>2019-08-02T09:24:50.000Z</Time>
            <Position>
              <LatitudeDegrees>40.83516173064708709716796875</LatitudeDegrees>
              <LongitudeDegrees>-4.053146727383136749267578125</LongitudeDegrees>
            </Position>
            <AltitudeMeters>1569</AltitudeMeters>
            <DistanceMeters>91645.490662422</DistanceMeters>
          </Trackpoint>
          <Trackpoint>
            <Time>2019-08-02T09:24:52.000Z</Time>
            <Position>
              <LatitudeDegrees>40.8352913148701190948486328125</LatitudeDegrees>
              <LongitudeDegrees>-4.0529427118599414825439453125</LongitudeDegrees>
            </Position>
            <AltitudeMeters>1568.4000244140625</AltitudeMeters>
            <DistanceMeters>91667.922603483</DistanceMeters>
          </Trackpoint>
          <Trackpoint>
            <Time>2019-08-02T09:24:55.000Z</Time>
            <Position>
              <LatitudeDegrees>40.83554822020232677459716796875</LatitudeDegrees>
              <LongitudeDegrees>-4.052716232836246490478515625</LongitudeDegrees>
            </Position>
            <AltitudeMeters>1567.199951171875</AltitudeMeters>
            <DistanceMeters>91702.293386434</DistanceMeters>
          </Trackpoint>
          <Trackpoint>
            <Time>2019-08-02T09:24:59.000Z</Time>
            <Position>
              <LatitudeDegrees>40.8359263278543949127197265625</LatitudeDegrees>
              <LongitudeDegrees>-4.05271698720753192901611328125</LongitudeDegrees>
            </Position>
            <AltitudeMeters>1566</AltitudeMeters>
            <DistanceMeters>91744.377670355</DistanceMeters>
          </Trackpoint>
          <Trackpoint>
            <Time>2019-08-02T09:25:00.000Z</Time>
            <Position>
              <LatitudeDegrees>40.83601844497025012969970703125</LatitudeDegrees>
              <LongitudeDegrees>-4.05272704549133777618408203125</LongitudeDegrees>
            </Position>
            <AltitudeMeters>1565.800048828125</AltitudeMeters>
            <DistanceMeters>91754.66560144</DistanceMeters>
          </Trackpoint>
          <Trackpoint>
            <Time>2019-08-02T09:25:03.000Z</Time>
            <Position>
              <LatitudeDegrees>40.836266465485095977783203125</LatitudeDegrees>
              <LongitudeDegrees>-4.05277498997747898101806640625</LongitudeDegrees>
            </Position>
            <AltitudeMeters>1565.199951171875</AltitudeMeters>
            <DistanceMeters>91782.564480254</DistanceMeters>
          </Trackpoint>
          <Trackpoint>
            <Time>2019-08-02T09:25:04.000Z</Time>
            <Position>
              <LatitudeDegrees>40.83634181879460811614990234375</LatitudeDegrees>
              <LongitudeDegrees>-4.052802063524723052978515625</LongitudeDegrees>
            </Position>
            <AltitudeMeters>1565.199951171875</AltitudeMeters>
            <DistanceMeters>91791.255659084</DistanceMeters>
          </Trackpoint>
          <Trackpoint>
            <Time>2019-08-02T09:25:07.000Z</Time>
            <Position>
              <LatitudeDegrees>40.836525298655033111572265625</LatitudeDegrees>
              <LongitudeDegrees>-4.05290306545794010162353515625</LongitudeDegrees>
            </Position>
            <AltitudeMeters>1564.4000244140625</AltitudeMeters>
            <DistanceMeters>91813.377502651</DistanceMeters>
          </Trackpoint>
          <Trackpoint>
            <Time>2019-08-02T09:25:08.000Z</Time>
            <Position>
              <LatitudeDegrees>40.83658020012080669403076171875</LatitudeDegrees>
              <LongitudeDegrees>-4.05292955227196216583251953125</LongitudeDegrees>
            </Position>
            <AltitudeMeters>1564</AltitudeMeters>
            <DistanceMeters>91819.88249598</DistanceMeters>
          </Trackpoint>
          <Trackpoint>
            <Time>2019-08-02T09:25:13.000Z</Time>
            <Position>
              <LatitudeDegrees>40.8368580602109432220458984375</LatitudeDegrees>
              <LongitudeDegrees>-4.053024351596832275390625</LongitudeDegrees>
            </Position>
            <AltitudeMeters>1563.199951171875</AltitudeMeters>
            <DistanceMeters>91851.822499991</DistanceMeters>
          </Trackpoint>
          <Trackpoint>
            <Time>2019-08-02T09:25:17.000Z</Time>
            <Position>
              <LatitudeDegrees>40.83710633218288421630859375</LatitudeDegrees>
              <LongitudeDegrees>-4.0530739724636077880859375</LongitudeDegrees>
            </Position>
            <AltitudeMeters>1562</AltitudeMeters>
            <DistanceMeters>91879.769725827</DistanceMeters>
          </Trackpoint>
          <Trackpoint>
            <Time>2019-08-02T09:25:18.000Z</Time>
            <Position>
              <LatitudeDegrees>40.8371681906282901763916015625</LatitudeDegrees>
              <LongitudeDegrees>-4.05309216119349002838134765625</LongitudeDegrees>
            </Position>
            <AltitudeMeters>1561.800048828125</AltitudeMeters>
            <DistanceMeters>91886.822859253</DistanceMeters>
          </Trackpoint>
          <Trackpoint>
            <Time>2019-08-02T09:25:21.000Z</Time>
            <Position>
              <LatitudeDegrees>40.83734261803328990936279296875</LatitudeDegrees>
              <LongitudeDegrees>-4.05311982147395610809326171875</LongitudeDegrees>
            </Position>
            <AltitudeMeters>1561</AltitudeMeters>
            <DistanceMeters>91906.375976819</DistanceMeters>
          </Trackpoint>
          <Trackpoint>
            <Time>2019-08-02T09:25:24.000Z</Time>
            <Position>
              <LatitudeDegrees>40.83751075901091098785400390625</LatitudeDegrees>
              <LongitudeDegrees>-4.0531147085130214691162109375</LongitudeDegrees>
            </Position>
            <AltitudeMeters>1560.4000244140625</AltitudeMeters>
            <DistanceMeters>91925.095033589</DistanceMeters>
          </Trackpoint>
          <Trackpoint>
            <Time>2019-08-02T09:25:25.000Z</Time>
            <Position>
              <LatitudeDegrees>40.8375634811818599700927734375</LatitudeDegrees>
              <LongitudeDegrees>-4.05310356058180332183837890625</LongitudeDegrees>
            </Position>
            <AltitudeMeters>1560.199951171875</AltitudeMeters>
            <DistanceMeters>91931.037053354</DistanceMeters>
          </Trackpoint>
          <Trackpoint>
            <Time>2019-08-02T09:25:29.000Z</Time>
            <Position>
              <LatitudeDegrees>40.837793312966823577880859375</LatitudeDegrees>
              <LongitudeDegrees>-4.0530151315033435821533203125</LongitudeDegrees>
            </Position>
            <AltitudeMeters>1559</AltitudeMeters>
            <DistanceMeters>91957.679805635</DistanceMeters>
          </Trackpoint>
          <Trackpoint>
            <Time>2019-08-02T09:25:33.000Z</Time>
            <Position>
              <LatitudeDegrees>40.83804552443325519561767578125</LatitudeDegrees>
              <LongitudeDegrees>-4.05284271575510501861572265625</LongitudeDegrees>
            </Position>
            <AltitudeMeters>1558</AltitudeMeters>
            <DistanceMeters>91989.283582234</DistanceMeters>
          </Trackpoint>
          <Trackpoint>
            <Time>2019-08-02T09:25:34.000Z</Time>
            <Position>
              <LatitudeDegrees>40.83810486830770969390869140625</LatitudeDegrees>
              <LongitudeDegrees>-4.0527787618339061737060546875</LongitudeDegrees>
            </Position>
            <AltitudeMeters>1557.800048828125</AltitudeMeters>
            <DistanceMeters>91997.805311798</DistanceMeters>
          </Trackpoint>
          <Trackpoint>
            <Time>2019-08-02T09:25:36.000Z</Time>
            <Position>
              <LatitudeDegrees>40.838211737573146820068359375</LatitudeDegrees>
              <LongitudeDegrees>-4.05262897722423076629638671875</LongitudeDegrees>
            </Position>
            <AltitudeMeters>1557</AltitudeMeters>
            <DistanceMeters>92015.142153911</DistanceMeters>
          </Trackpoint>
          <Trackpoint>
            <Time>2019-08-02T09:25:39.000Z</Time>
            <Position>
              <LatitudeDegrees>40.8383614383637905120849609375</LatitudeDegrees>
              <LongitudeDegrees>-4.05237860977649688720703125</LongitudeDegrees>
            </Position>
            <AltitudeMeters>1556.199951171875</AltitudeMeters>
            <DistanceMeters>92042.013719417</DistanceMeters>
          </Trackpoint>
          <Trackpoint>
            <Time>2019-08-02T09:25:40.000Z</Time>
            <Position>
              <LatitudeDegrees>40.8383999951183795928955078125</LatitudeDegrees>
              <LongitudeDegrees>-4.05228917486965656280517578125</LongitudeDegrees>
            </Position>
            <AltitudeMeters>1556</AltitudeMeters>
            <DistanceMeters>92050.681489374</DistanceMeters>
          </Trackpoint>
          <Trackpoint>
            <Time>2019-08-02T09:25:44.000Z</Time>
            <Position>
              <LatitudeDegrees>40.838523209095001220703125</LatitudeDegrees>
              <LongitudeDegrees>-4.05191869474947452545166015625</LongitudeDegrees>
            </Position>
            <AltitudeMeters>1555</AltitudeMeters>
            <DistanceMeters>92084.759399389</DistanceMeters>
          </Trackpoint>
          <Trackpoint>
            <Time>2019-08-02T09:25:49.000Z</Time>
            <Position>
              <LatitudeDegrees>40.8386211097240447998046875</LatitudeDegrees>
              <LongitudeDegrees>-4.05154888518154621124267578125</LongitudeDegrees>
            </Position>
            <AltitudeMeters>1554</AltitudeMeters>
            <DistanceMeters>92117.751054307</DistanceMeters>
          </Trackpoint>
          <Trackpoint>
            <Time>2019-08-02T09:25:50.000Z</Time>
            <Position>
              <LatitudeDegrees>40.83864550106227397918701171875</LatitudeDegrees>
              <LongitudeDegrees>-4.05148065648972988128662109375</LongitudeDegrees>
            </Position>
            <AltitudeMeters>1553.800048828125</AltitudeMeters>
            <DistanceMeters>92124.104355945</DistanceMeters>
          </Trackpoint>
          <Trackpoint>
            <Time>2019-08-02T09:25:53.000Z</Time>
            <Position>
              <LatitudeDegrees>40.838741473853588104248046875</LatitudeDegrees>
              <LongitudeDegrees>-4.05130815692245960235595703125</LongitudeDegrees>
            </Position>
            <AltitudeMeters>1553</AltitudeMeters>
            <DistanceMeters>92142.134407303</DistanceMeters>
          </Trackpoint>
          <Trackpoint>
            <Time>2019-08-02T09:25:54.000Z</Time>
            <Position>
              <LatitudeDegrees>40.83878246136009693145751953125</LatitudeDegrees>
              <LongitudeDegrees>-4.05125551857054233551025390625</LongitudeDegrees>
            </Position>
            <AltitudeMeters>1552.5999755859375</AltitudeMeters>
            <DistanceMeters>92148.494811573</DistanceMeters>
          </Trackpoint>
          <Trackpoint>
            <Time>2019-08-02T09:25:58.000Z</Time>
            <Position>
              <LatitudeDegrees>40.83894540555775165557861328125</LatitudeDegrees>
              <LongitudeDegrees>-4.05109911225736141204833984375</LongitudeDegrees>
            </Position>
            <AltitudeMeters>1551.800048828125</AltitudeMeters>
            <DistanceMeters>92170.908630366</DistanceMeters>
          </Trackpoint>
          <Trackpoint>
            <Time>2019-08-02T09:26:00.000Z</Time>
            <Position>
              <LatitudeDegrees>40.83903525955975055694580078125</LatitudeDegrees>
              <LongitudeDegrees>-4.05104161240160465240478515625</LongitudeDegrees>
            </Position>
            <AltitudeMeters>1551.5999755859375</AltitudeMeters>
            <DistanceMeters>92182.020256494</DistanceMeters>
          </Trackpoint>
          <Trackpoint>
            <Time>2019-08-02T09:26:03.000Z</Time>
            <Position>
              <LatitudeDegrees>40.83917791955173015594482421875</LatitudeDegrees>
              <LongitudeDegrees>-4.05096231959760189056396484375</LongitudeDegrees>
            </Position>
            <AltitudeMeters>1550.800048828125</AltitudeMeters>
            <DistanceMeters>92199.245535934</DistanceMeters>
          </Trackpoint>
          <Trackpoint>
            <Time>2019-08-02T09:26:08.000Z</Time>
            <Position>
              <LatitudeDegrees>40.8393940888345241546630859375</LatitudeDegrees>
              <LongitudeDegrees>-4.05090733431279659271240234375</LongitudeDegrees>
            </Position>
            <AltitudeMeters>1550</AltitudeMeters>
            <DistanceMeters>92223.746953893</DistanceMeters>
          </Trackpoint>
          <Trackpoint>
            <Time>2019-08-02T09:26:12.000Z</Time>
            <Position>
              <LatitudeDegrees>40.8395915664732456207275390625</LatitudeDegrees>
              <LongitudeDegrees>-4.0509313903748989105224609375</LongitudeDegrees>
            </Position>
            <AltitudeMeters>1548.800048828125</AltitudeMeters>
            <DistanceMeters>92245.819759434</DistanceMeters>
          </Trackpoint>
          <Trackpoint>
            <Time>2019-08-02T09:26:16.000Z</Time>
            <Position>
              <LatitudeDegrees>40.83978124894201755523681640625</LatitudeDegrees>
              <LongitudeDegrees>-4.05092376284301280975341796875</LongitudeDegrees>
            </Position>
            <AltitudeMeters>1548</AltitudeMeters>
            <DistanceMeters>92266.94178483</DistanceMeters>
          </Trackpoint>
          <Trackpoint>
            <Time>2019-08-02T09:26:17.000Z</Time>
            <Position>
              <LatitudeDegrees>40.839825756847858428955078125</LatitudeDegrees>
              <LongitudeDegrees>-4.0509300492703914642333984375</LongitudeDegrees>
            </Position>
            <AltitudeMeters>1547.800048828125</AltitudeMeters>
            <DistanceMeters>92271.923215354</DistanceMeters>
          </Trackpoint>
          <Trackpoint>
            <Time>2019-08-02T09:26:22.000Z</Time>
            <Position>
              <LatitudeDegrees>40.84007075987756252288818359375</LatitudeDegrees>
              <LongitudeDegrees>-4.05093767680227756500244140625</LongitudeDegrees>
            </Position>
            <AltitudeMeters>1547.199951171875</AltitudeMeters>
            <DistanceMeters>92299.200020858</DistanceMeters>
          </Trackpoint>
          <Trackpoint>
            <Time>2019-08-02T09:26:25.000Z</Time>
            <Position>
              <LatitudeDegrees>40.84020964801311492919921875</LatitudeDegrees>
              <LongitudeDegrees>-4.05091471038758754730224609375</LongitudeDegrees>
            </Position>
            <AltitudeMeters>1546.5999755859375</AltitudeMeters>
            <DistanceMeters>92314.778896446</DistanceMeters>
          </Trackpoint>
          <Trackpoint>
            <Time>2019-08-02T09:26:29.000Z</Time>
            <Position>
              <LatitudeDegrees>40.840408802032470703125</LatitudeDegrees>
              <LongitudeDegrees>-4.0508777461946010589599609375</LongitudeDegrees>
            </Position>
            <AltitudeMeters>1546.4000244140625</AltitudeMeters>
            <DistanceMeters>92337.162478854</DistanceMeters>
          </Trackpoint>
          <Trackpoint>
            <Time>2019-08-02T09:26:30.000Z</Time>
            <Position>
              <LatitudeDegrees>40.84045498631894588470458984375</LatitudeDegrees>
              <LongitudeDegrees>-4.0508700348436832427978515625</LongitudeDegrees>
            </Position>
            <AltitudeMeters>1546.199951171875</AltitudeMeters>
            <DistanceMeters>92342.342960221</DistanceMeters>
          </Trackpoint>
          <Trackpoint>
            <Time>2019-08-02T09:26:33.000Z</Time>
            <Position>
              <LatitudeDegrees>40.84059647284448146820068359375</LatitudeDegrees>
              <LongitudeDegrees>-4.05082485638558864593505859375</LongitudeDegrees>
            </Position>
            <AltitudeMeters>1545.800048828125</AltitudeMeters>
            <DistanceMeters>92358.543830627</DistanceMeters>
          </Trackpoint>
          <Trackpoint>
            <Time>2019-08-02T09:26:37.000Z</Time>
            <Position>
              <LatitudeDegrees>40.84079847671091556549072265625</LatitudeDegrees>
              <LongitudeDegrees>-4.0507322363555431365966796875</LongitudeDegrees>
            </Position>
            <AltitudeMeters>1545.4000244140625</AltitudeMeters>
            <DistanceMeters>92382.341525353</DistanceMeters>
          </Trackpoint>
          <Trackpoint>
            <Time>2019-08-02T09:26:49.000Z</Time>
            <Position>
              <LatitudeDegrees>40.841319076716899871826171875</LatitudeDegrees>
              <LongitudeDegrees>-4.05042051337659358978271484375</LongitudeDegrees>
            </Position>
            <AltitudeMeters>1545</AltitudeMeters>
            <DistanceMeters>92445.953234143</DistanceMeters>
          </Trackpoint>
          <Trackpoint>
            <Time>2019-08-02T09:26:50.000Z</Time>
            <Position>
              <LatitudeDegrees>40.8413650095462799072265625</LatitudeDegrees>
              <LongitudeDegrees>-4.0503892488777637481689453125</LongitudeDegrees>
            </Position>
            <AltitudeMeters>1544.800048828125</AltitudeMeters>
            <DistanceMeters>92451.703724551</DistanceMeters>
          </Trackpoint>
          <Trackpoint>
            <Time>2019-08-02T09:26:52.000Z</Time>
            <Position>
              <LatitudeDegrees>40.8414627425372600555419921875</LatitudeDegrees>
              <LongitudeDegrees>-4.0503416396677494049072265625</LongitudeDegrees>
            </Position>
            <AltitudeMeters>1544.800048828125</AltitudeMeters>
            <DistanceMeters>92463.296983705</DistanceMeters>
          </Trackpoint>
          <Trackpoint>
            <Time>2019-08-02T09:26:57.000Z</Time>
            <Position>
              <LatitudeDegrees>40.84170053713023662567138671875</LatitudeDegrees>
              <LongitudeDegrees>-4.05028204433619976043701171875</LongitudeDegrees>
            </Position>
            <AltitudeMeters>1544.4000244140625</AltitudeMeters>
            <DistanceMeters>92490.235339319</DistanceMeters>
          </Trackpoint>
          <Trackpoint>
            <Time>2019-08-02T09:26:59.000Z</Time>
            <Position>
              <LatitudeDegrees>40.84180648438632488250732421875</LatitudeDegrees>
              <LongitudeDegrees>-4.0502866543829441070556640625</LongitudeDegrees>
            </Position>
            <AltitudeMeters>1543.800048828125</AltitudeMeters>
            <DistanceMeters>92502.033586154</DistanceMeters>
          </Trackpoint>
          <Trackpoint>
            <Time>2019-08-02T09:27:05.000Z</Time>
            <Position>
              <LatitudeDegrees>40.84207118488848209381103515625</LatitudeDegrees>
              <LongitudeDegrees>-4.050282798707485198974609375</LongitudeDegrees>
            </Position>
            <AltitudeMeters>1543</AltitudeMeters>
            <DistanceMeters>92531.496925048</DistanceMeters>
          </Trackpoint>
          <Trackpoint>
            <Time>2019-08-02T09:27:11.000Z</Time>
            <Position>
              <LatitudeDegrees>40.84235097281634807586669921875</LatitudeDegrees>
              <LongitudeDegrees>-4.0502442419528961181640625</LongitudeDegrees>
            </Position>
            <AltitudeMeters>1542.5999755859375</AltitudeMeters>
            <DistanceMeters>92562.806749365</DistanceMeters>
          </Trackpoint>
          <Trackpoint>
            <Time>2019-08-02T09:27:15.000Z</Time>
            <Position>
              <LatitudeDegrees>40.8425829000771045684814453125</LatitudeDegrees>
              <LongitudeDegrees>-4.0502306632697582244873046875</LongitudeDegrees>
            </Position>
            <AltitudeMeters>1542.4000244140625</AltitudeMeters>
            <DistanceMeters>92588.646153812</DistanceMeters>
          </Trackpoint>
          <Trackpoint>
            <Time>2019-08-02T09:27:22.000Z</Time>
            <Position>
              <LatitudeDegrees>40.84295262582600116729736328125</LatitudeDegrees>
              <LongitudeDegrees>-4.05018322169780731201171875</LongitudeDegrees>
            </Position>
            <AltitudeMeters>1541.5999755859375</AltitudeMeters>
            <DistanceMeters>92629.9907473</DistanceMeters>
          </Trackpoint>
          <Trackpoint>
            <Time>2019-08-02T09:27:24.000Z</Time>
            <Position>
              <LatitudeDegrees>40.84305605851113796234130859375</LatitudeDegrees>
              <LongitudeDegrees>-4.05017559416592121124267578125</LongitudeDegrees>
            </Position>
            <AltitudeMeters>1541.4000244140625</AltitudeMeters>
            <DistanceMeters>92641.520742331</DistanceMeters>
          </Trackpoint>
          <Trackpoint>
            <Time>2019-08-02T09:27:26.000Z</Time>
            <Position>
              <LatitudeDegrees>40.84315362386405467987060546875</LatitudeDegrees>
              <LongitudeDegrees>-4.05019202269613742828369140625</LongitudeDegrees>
            </Position>
            <AltitudeMeters>1541.199951171875</AltitudeMeters>
            <DistanceMeters>92652.467390878</DistanceMeters>
          </Trackpoint>
          <Trackpoint>
            <Time>2019-08-02T09:27:29.000Z</Time>
            <Position>
              <LatitudeDegrees>40.84329896606504917144775390625</LatitudeDegrees>
              <LongitudeDegrees>-4.05018389225006103515625</LongitudeDegrees>
            </Position>
            <AltitudeMeters>1540.800048828125</AltitudeMeters>
            <DistanceMeters>92668.658783014</DistanceMeters>
          </Trackpoint>
          <Trackpoint>
            <Time>2019-08-02T09:27:31.000Z</Time>
            <Position>
              <LatitudeDegrees>40.84340340457856655120849609375</LatitudeDegrees>
              <LongitudeDegrees>-4.05021649785339832305908203125</LongitudeDegrees>
            </Position>
            <AltitudeMeters>1540.800048828125</AltitudeMeters>
            <DistanceMeters>92680.602699778</DistanceMeters>
          </Trackpoint>
          <Trackpoint>
            <Time>2019-08-02T09:27:33.000Z</Time>
            <Position>
              <LatitudeDegrees>40.84349803626537322998046875</LatitudeDegrees>
              <LongitudeDegrees>-4.05028942041099071502685546875</LongitudeDegrees>
            </Position>
            <AltitudeMeters>1540.5999755859375</AltitudeMeters>
            <DistanceMeters>92692.794297634</DistanceMeters>
          </Trackpoint>
          <Trackpoint>
            <Time>2019-08-02T09:27:37.000Z</Time>
            <Position>
              <LatitudeDegrees>40.8436571247875690460205078125</LatitudeDegrees>
              <LongitudeDegrees>-4.0504824556410312652587890625</LongitudeDegrees>
            </Position>
            <AltitudeMeters>1540</AltitudeMeters>
            <DistanceMeters>92716.829858176</DistanceMeters>
          </Trackpoint>
          <Trackpoint>
            <Time>2019-08-02T09:27:41.000Z</Time>
            <Position>
              <LatitudeDegrees>40.84374303929507732391357421875</LatitudeDegrees>
              <LongitudeDegrees>-4.05075176618993282318115234375</LongitudeDegrees>
            </Position>
            <AltitudeMeters>1539.5999755859375</AltitudeMeters>
            <DistanceMeters>92741.439575708</DistanceMeters>
          </Trackpoint>
          <Trackpoint>
            <Time>2019-08-02T09:27:44.000Z</Time>
            <Position>
              <LatitudeDegrees>40.84369978867471218109130859375</LatitudeDegrees>
              <LongitudeDegrees>-4.05095024965703487396240234375</LongitudeDegrees>
            </Position>
            <AltitudeMeters>1538.5999755859375</AltitudeMeters>
            <DistanceMeters>92758.831281794</DistanceMeters>
          </Trackpoint>
          <Trackpoint>
            <Time>2019-08-02T09:27:47.000Z</Time>
            <Position>
              <LatitudeDegrees>40.84365268237888813018798828125</LatitudeDegrees>
              <LongitudeDegrees>-4.051141105592250823974609375</LongitudeDegrees>
            </Position>
            <AltitudeMeters>1537.5999755859375</AltitudeMeters>
            <DistanceMeters>92775.734822217</DistanceMeters>
          </Trackpoint>
          <Trackpoint>
            <Time>2019-08-02T09:27:48.000Z</Time>
            <Position>
              <LatitudeDegrees>40.84364983253180980682373046875</LatitudeDegrees>
              <LongitudeDegrees>-4.051211513578891754150390625</LongitudeDegrees>
            </Position>
            <AltitudeMeters>1537</AltitudeMeters>
            <DistanceMeters>92781.670760078</DistanceMeters>
          </Trackpoint>
          <Trackpoint>
            <Time>2019-08-02T09:27:53.000Z</Time>
            <Position>
              <LatitudeDegrees>40.84374840371310710906982421875</LatitudeDegrees>
              <LongitudeDegrees>-4.0515558421611785888671875</LongitudeDegrees>
            </Position>
            <AltitudeMeters>1536.4000244140625</AltitudeMeters>
            <DistanceMeters>92812.669575453</DistanceMeters>
          </Trackpoint>
          <Trackpoint>
            <Time>2019-08-02T09:27:54.000Z</Time>
            <Position>
              <LatitudeDegrees>40.843792073428630828857421875</LatitudeDegrees>
              <LongitudeDegrees>-4.0516160242259502410888671875</LongitudeDegrees>
            </Position>
            <AltitudeMeters>1536.4000244140625</AltitudeMeters>
            <DistanceMeters>92819.691914626</DistanceMeters>
          </Trackpoint>
          <Trackpoint>
            <Time>2019-08-02T09:27:56.000Z</Time>
            <Position>
              <LatitudeDegrees>40.843882597982883453369140625</LatitudeDegrees>
              <LongitudeDegrees>-4.0517192892730236053466796875</LongitudeDegrees>
            </Position>
            <AltitudeMeters>1536.199951171875</AltitudeMeters>
            <DistanceMeters>92833.000405126</DistanceMeters>
          </Trackpoint>
          <Trackpoint>
            <Time>2019-08-02T09:27:58.000Z</Time>
            <Position>
              <LatitudeDegrees>40.8440212346613407135009765625</LatitudeDegrees>
              <LongitudeDegrees>-4.05177737586200237274169921875</LongitudeDegrees>
            </Position>
            <AltitudeMeters>1535.4000244140625</AltitudeMeters>
            <DistanceMeters>92849.18733498</DistanceMeters>
          </Trackpoint>
          <Trackpoint>
            <Time>2019-08-02T09:27:59.000Z</Time>
            <Position>
              <LatitudeDegrees>40.84409574978053569793701171875</LatitudeDegrees>
              <LongitudeDegrees>-4.05179925262928009033203125</LongitudeDegrees>
            </Position>
            <AltitudeMeters>1535</AltitudeMeters>
            <DistanceMeters>92857.683594809</DistanceMeters>
          </Trackpoint>
          <Trackpoint>
            <Time>2019-08-02T09:28:04.000Z</Time>
            <Position>
              <LatitudeDegrees>40.84445063956081867218017578125</LatitudeDegrees>
              <LongitudeDegrees>-4.05189539305865764617919921875</LongitudeDegrees>
            </Position>
            <AltitudeMeters>1533.5999755859375</AltitudeMeters>
            <DistanceMeters>92898.004270682</DistanceMeters>
          </Trackpoint>
          <Trackpoint>
            <Time>2019-08-02T09:28:06.000Z</Time>
            <Position>
              <LatitudeDegrees>40.84459648467600345611572265625</LatitudeDegrees>
              <LongitudeDegrees>-4.05192975886166095733642578125</LongitudeDegrees>
            </Position>
            <AltitudeMeters>1533</AltitudeMeters>
            <DistanceMeters>92914.492706372</DistanceMeters>
          </Trackpoint>
          <Trackpoint>
            <Time>2019-08-02T09:28:08.000Z</Time>
            <Position>
              <LatitudeDegrees>40.84473914466798305511474609375</LatitudeDegrees>
              <LongitudeDegrees>-4.0519606880843639373779296875</LongitudeDegrees>
            </Position>
            <AltitudeMeters>1532.800048828125</AltitudeMeters>
            <DistanceMeters>92930.583397836</DistanceMeters>
          </Trackpoint>
          <Trackpoint>
            <Time>2019-08-02T09:28:09.000Z</Time>
            <Position>
              <LatitudeDegrees>40.84480385296046733856201171875</LatitudeDegrees>
              <LongitudeDegrees>-4.051965214312076568603515625</LongitudeDegrees>
            </Position>
            <AltitudeMeters>1532.5999755859375</AltitudeMeters>
            <DistanceMeters>92937.79541838</DistanceMeters>
          </Trackpoint>
          <Trackpoint>
            <Time>2019-08-02T09:28:14.000Z</Time>
            <Position>
              <LatitudeDegrees>40.84515631198883056640625</LatitudeDegrees>
              <LongitudeDegrees>-4.0519626997411251068115234375</LongitudeDegrees>
            </Position>
            <AltitudeMeters>1532</AltitudeMeters>
            <DistanceMeters>92977.025226793</DistanceMeters>
          </Trackpoint>
          <Trackpoint>
            <Time>2019-08-02T09:28:16.000Z</Time>
            <Position>
              <LatitudeDegrees>40.8452808670699596405029296875</LatitudeDegrees>
              <LongitudeDegrees>-4.05191416852176189422607421875</LongitudeDegrees>
            </Position>
            <AltitudeMeters>1531.4000244140625</AltitudeMeters>
            <DistanceMeters>92991.478037188</DistanceMeters>
          </Trackpoint>
          <Trackpoint>
            <Time>2019-08-02T09:28:17.000Z</Time>
            <Position>
              <LatitudeDegrees>40.8453358523547649383544921875</LatitudeDegrees>
              <LongitudeDegrees>-4.05188080854713916778564453125</LongitudeDegrees>
            </Position>
            <AltitudeMeters>1531.199951171875</AltitudeMeters>
            <DistanceMeters>92998.212207063</DistanceMeters>
          </Trackpoint>
          <Trackpoint>
            <Time>2019-08-02T09:28:20.000Z</Time>
            <Position>
              <LatitudeDegrees>40.84552620537579059600830078125</LatitudeDegrees>
              <LongitudeDegrees>-4.0517846681177616119384765625</LongitudeDegrees>
            </Position>
            <AltitudeMeters>1531</AltitudeMeters>
            <DistanceMeters>93020.892756763</DistanceMeters>
          </Trackpoint>
          <Trackpoint>
            <Time>2019-08-02T09:28:26.000Z</Time>
            <Position>
              <LatitudeDegrees>40.84591202437877655029296875</LatitudeDegrees>
              <LongitudeDegrees>-4.0515650622546672821044921875</LongitudeDegrees>
            </Position>
            <AltitudeMeters>1530.199951171875</AltitudeMeters>
            <DistanceMeters>93067.646865942</DistanceMeters>
          </Trackpoint>
          <Trackpoint>
            <Time>2019-08-02T09:28:32.000Z</Time>
            <Position>
              <LatitudeDegrees>40.846282504498958587646484375</LatitudeDegrees>
              <LongitudeDegrees>-4.051308743655681610107421875</LongitudeDegrees>
            </Position>
            <AltitudeMeters>1529.4000244140625</AltitudeMeters>
            <DistanceMeters>93114.188133512</DistanceMeters>
          </Trackpoint>
          <Trackpoint>
            <Time>2019-08-02T09:28:34.000Z</Time>
            <Position>
              <LatitudeDegrees>40.84638099186122417449951171875</LatitudeDegrees>
              <LongitudeDegrees>-4.0511851944029331207275390625</LongitudeDegrees>
            </Position>
            <AltitudeMeters>1529.199951171875</AltitudeMeters>
            <DistanceMeters>93129.300070292</DistanceMeters>
          </Trackpoint>
          <Trackpoint>
            <Time>2019-08-02T09:28:36.000Z</Time>
            <Position>
              <LatitudeDegrees>40.84650135599076747894287109375</LatitudeDegrees>
              <LongitudeDegrees>-4.05104764737188816070556640625</LongitudeDegrees>
            </Position>
            <AltitudeMeters>1529</AltitudeMeters>
            <DistanceMeters>93147.00872622</DistanceMeters>
          </Trackpoint>
          <Trackpoint>
            <Time>2019-08-02T09:28:42.000Z</Time>
            <Position>
              <LatitudeDegrees>40.84695515222847461700439453125</LatitudeDegrees>
              <LongitudeDegrees>-4.05113012529909610748291015625</LongitudeDegrees>
            </Position>
            <AltitudeMeters>1528</AltitudeMeters>
            <DistanceMeters>93197.992307543</DistanceMeters>
          </Trackpoint>
          <Trackpoint>
            <Time>2019-08-02T09:28:46.000Z</Time>
            <Position>
              <LatitudeDegrees>40.84729964844882488250732421875</LatitudeDegrees>
              <LongitudeDegrees>-4.05142349191009998321533203125</LongitudeDegrees>
            </Position>
            <AltitudeMeters>1527.199951171875</AltitudeMeters>
            <DistanceMeters>93243.602358744</DistanceMeters>
          </Trackpoint>
          <Trackpoint>
            <Time>2019-08-02T09:28:49.000Z</Time>
            <Position>
              <LatitudeDegrees>40.8475379459559917449951171875</LatitudeDegrees>
              <LongitudeDegrees>-4.0516049601137638092041015625</LongitudeDegrees>
            </Position>
            <AltitudeMeters>1526.199951171875</AltitudeMeters>
            <DistanceMeters>93274.211140512</DistanceMeters>
          </Trackpoint>
          <Trackpoint>
            <Time>2019-08-02T09:28:50.000Z</Time>
            <Position>
              <LatitudeDegrees>40.8476150594651699066162109375</LatitudeDegrees>
              <LongitudeDegrees>-4.0516636334359645843505859375</LongitudeDegrees>
            </Position>
            <AltitudeMeters>1526</AltitudeMeters>
            <DistanceMeters>93284.114456131</DistanceMeters>
          </Trackpoint>
          <Trackpoint>
            <Time>2019-08-02T09:28:53.000Z</Time>
            <Position>
              <LatitudeDegrees>40.8478450588881969451904296875</LatitudeDegrees>
              <LongitudeDegrees>-4.0518428385257720947265625</LongitudeDegrees>
            </Position>
            <AltitudeMeters>1524.800048828125</AltitudeMeters>
            <DistanceMeters>93313.829417596</DistanceMeters>
          </Trackpoint>
          <Trackpoint>
            <Time>2019-08-02T09:28:54.000Z</Time>
            <Position>
              <LatitudeDegrees>40.8479225076735019683837890625</LatitudeDegrees>
              <LongitudeDegrees>-4.05190343968570232391357421875</LongitudeDegrees>
            </Position>
            <AltitudeMeters>1524.4000244140625</AltitudeMeters>
            <DistanceMeters>93323.846513454</DistanceMeters>
          </Trackpoint>
          <Trackpoint>
            <Time>2019-08-02T09:28:56.000Z</Time>
            <Position>
              <LatitudeDegrees>40.8480787463486194610595703125</LatitudeDegrees>
              <LongitudeDegrees>-4.05200318433344364166259765625</LongitudeDegrees>
            </Position>
            <AltitudeMeters>1523.800048828125</AltitudeMeters>
            <DistanceMeters>93343.157990018</DistanceMeters>
          </Trackpoint>
          <Trackpoint>
            <Time>2019-08-02T09:28:58.000Z</Time>
            <Position>
              <LatitudeDegrees>40.84825250320136547088623046875</LatitudeDegrees>
              <LongitudeDegrees>-4.0520538948476314544677734375</LongitudeDegrees>
            </Position>
            <AltitudeMeters>1523.4000244140625</AltitudeMeters>
            <DistanceMeters>93362.963253474</DistanceMeters>
          </Trackpoint>
          <Trackpoint>
            <Time>2019-08-02T09:29:02.000Z</Time>
            <Position>
              <LatitudeDegrees>40.84859616123139858245849609375</LatitudeDegrees>
              <LongitudeDegrees>-4.05208499170839786529541015625</LongitudeDegrees>
            </Position>
            <AltitudeMeters>1522.5999755859375</AltitudeMeters>
            <DistanceMeters>93401.302617233</DistanceMeters>
          </Trackpoint>
          <Trackpoint>
            <Time>2019-08-02T09:29:06.000Z</Time>
            <Position>
              <LatitudeDegrees>40.84892238490283489227294921875</LatitudeDegrees>
              <LongitudeDegrees>-4.05211172997951507568359375</LongitudeDegrees>
            </Position>
            <AltitudeMeters>1521.5999755859375</AltitudeMeters>
            <DistanceMeters>93437.681593902</DistanceMeters>
          </Trackpoint>
          <Trackpoint>
            <Time>2019-08-02T09:29:10.000Z</Time>
            <Position>
              <LatitudeDegrees>40.84925481118261814117431640625</LatitudeDegrees>
              <LongitudeDegrees>-4.0521192736923694610595703125</LongitudeDegrees>
            </Position>
            <AltitudeMeters>1520.4000244140625</AltitudeMeters>
            <DistanceMeters>93474.686782762</DistanceMeters>
          </Trackpoint>
          <Trackpoint>
            <Time>2019-08-02T09:29:13.000Z</Time>
            <Position>
              <LatitudeDegrees>40.84949319250881671905517578125</LatitudeDegrees>
              <LongitudeDegrees>-4.0520971454679965972900390625</LongitudeDegrees>
            </Position>
            <AltitudeMeters>1519.199951171875</AltitudeMeters>
            <DistanceMeters>93501.284588664</DistanceMeters>
          </Trackpoint>
          <Trackpoint>
            <Time>2019-08-02T09:29:16.000Z</Time>
            <Position>
              <LatitudeDegrees>40.84972687996923923492431640625</LatitudeDegrees>
              <LongitudeDegrees>-4.052042998373508453369140625</LongitudeDegrees>
            </Position>
            <AltitudeMeters>1517.5999755859375</AltitudeMeters>
            <DistanceMeters>93527.690903684</DistanceMeters>
          </Trackpoint>
          <Trackpoint>
            <Time>2019-08-02T09:29:19.000Z</Time>
            <Position>
              <LatitudeDegrees>40.8499670214951038360595703125</LatitudeDegrees>
              <LongitudeDegrees>-4.0519608557224273681640625</LongitudeDegrees>
            </Position>
            <AltitudeMeters>1516.5999755859375</AltitudeMeters>
            <DistanceMeters>93555.299557811</DistanceMeters>
          </Trackpoint>
          <Trackpoint>
            <Time>2019-08-02T09:29:24.000Z</Time>
            <Position>
              <LatitudeDegrees>40.8503656648099422454833984375</LatitudeDegrees>
              <LongitudeDegrees>-4.0517756156623363494873046875</LongitudeDegrees>
            </Position>
            <AltitudeMeters>1515.4000244140625</AltitudeMeters>
            <DistanceMeters>93602.33058188</DistanceMeters>
          </Trackpoint>
          <Trackpoint>
            <Time>2019-08-02T09:29:28.000Z</Time>
            <Position>
              <LatitudeDegrees>40.850679315626621246337890625</LatitudeDegrees>
              <LongitudeDegrees>-4.05167042277753353118896484375</LongitudeDegrees>
            </Position>
            <AltitudeMeters>1514.4000244140625</AltitudeMeters>
            <DistanceMeters>93638.346458809</DistanceMeters>
          </Trackpoint>
          <Trackpoint>
            <Time>2019-08-02T09:29:35.000Z</Time>
            <Position>
              <LatitudeDegrees>40.8511309325695037841796875</LatitudeDegrees>
              <LongitudeDegrees>-4.0515214763581752777099609375</LongitudeDegrees>
            </Position>
            <AltitudeMeters>1513.4000244140625</AltitudeMeters>
            <DistanceMeters>93690.152928392</DistanceMeters>
          </Trackpoint>
          <Trackpoint>
            <Time>2019-08-02T09:29:39.000Z</Time>
            <Position>
              <LatitudeDegrees>40.8513376303017139434814453125</LatitudeDegrees>
              <LongitudeDegrees>-4.05141896568238735198974609375</LongitudeDegrees>
            </Position>
            <AltitudeMeters>1513.199951171875</AltitudeMeters>
            <DistanceMeters>93714.724271681</DistanceMeters>
          </Trackpoint>
          <Trackpoint>
            <Time>2019-08-02T09:29:41.000Z</Time>
            <Position>
              <LatitudeDegrees>40.85144232027232646942138671875</LatitudeDegrees>
              <LongitudeDegrees>-4.0513649024069309234619140625</LongitudeDegrees>
            </Position>
            <AltitudeMeters>1512.5999755859375</AltitudeMeters>
            <DistanceMeters>93727.233916951</DistanceMeters>
          </Trackpoint>
          <Trackpoint>
            <Time>2019-08-02T09:29:42.000Z</Time>
            <Position>
              <LatitudeDegrees>40.85148540325462818145751953125</LatitudeDegrees>
              <LongitudeDegrees>-4.05133849941194057464599609375</LongitudeDegrees>
            </Position>
            <AltitudeMeters>1512.4000244140625</AltitudeMeters>
            <DistanceMeters>93732.517949158</DistanceMeters>
          </Trackpoint>
          <Trackpoint>
            <Time>2019-08-02T09:29:45.000Z</Time>
            <Position>
              <LatitudeDegrees>40.8516252972185611724853515625</LatitudeDegrees>
              <LongitudeDegrees>-4.05127798207104206085205078125</LongitudeDegrees>
            </Position>
            <AltitudeMeters>1511.800048828125</AltitudeMeters>
            <DistanceMeters>93748.900345258</DistanceMeters>
          </Trackpoint>
          <Trackpoint>
            <Time>2019-08-02T09:29:46.000Z</Time>
            <Position>
              <LatitudeDegrees>40.85167340934276580810546875</LatitudeDegrees>
              <LongitudeDegrees>-4.05125937424600124359130859375</LongitudeDegrees>
            </Position>
            <AltitudeMeters>1511.4000244140625</AltitudeMeters>
            <DistanceMeters>93754.480282854</DistanceMeters>
          </Trackpoint>
          <Trackpoint>
            <Time>2019-08-02T09:29:50.000Z</Time>
            <Position>
              <LatitudeDegrees>40.8518445678055286407470703125</LatitudeDegrees>
              <LongitudeDegrees>-4.0512338094413280487060546875</LongitudeDegrees>
            </Position>
            <AltitudeMeters>1510.4000244140625</AltitudeMeters>
            <DistanceMeters>93773.651907759</DistanceMeters>
          </Trackpoint>
          <Trackpoint>
            <Time>2019-08-02T09:30:02.000Z</Time>
            <Position>
              <LatitudeDegrees>40.85229962132871150970458984375</LatitudeDegrees>
              <LongitudeDegrees>-4.0511828474700450897216796875</LongitudeDegrees>
            </Position>
            <AltitudeMeters>1509.4000244140625</AltitudeMeters>
            <DistanceMeters>93824.481696388</DistanceMeters>
          </Trackpoint>
          <Trackpoint>
            <Time>2019-08-02T09:30:07.000Z</Time>
            <Position>
              <LatitudeDegrees>40.852458290755748748779296875</LatitudeDegrees>
              <LongitudeDegrees>-4.05117832124233245849609375</LongitudeDegrees>
            </Position>
            <AltitudeMeters>1508.4000244140625</AltitudeMeters>
            <DistanceMeters>93842.14593318</DistanceMeters>
          </Trackpoint>
          <Trackpoint>
            <Time>2019-08-02T09:30:14.000Z</Time>
            <Position>
              <LatitudeDegrees>40.85263657383620738983154296875</LatitudeDegrees>
              <LongitudeDegrees>-4.0511530078947544097900390625</LongitudeDegrees>
            </Position>
            <AltitudeMeters>1507.4000244140625</AltitudeMeters>
            <DistanceMeters>93862.103353148</DistanceMeters>
          </Trackpoint>
          <Trackpoint>
            <Time>2019-08-02T09:30:20.000Z</Time>
            <Position>
              <LatitudeDegrees>40.8527967520058155059814453125</LatitudeDegrees>
              <LongitudeDegrees>-4.05113699845969676971435546875</LongitudeDegrees>
            </Position>
            <AltitudeMeters>1506.5999755859375</AltitudeMeters>
            <DistanceMeters>93879.982522763</DistanceMeters>
          </Trackpoint>
          <Trackpoint>
            <Time>2019-08-02T09:30:25.000Z</Time>
            <Position>
              <LatitudeDegrees>40.852953828871250152587890625</LatitudeDegrees>
              <LongitudeDegrees>-4.05113917775452136993408203125</LongitudeDegrees>
            </Position>
            <AltitudeMeters>1506</AltitudeMeters>
            <DistanceMeters>93897.466405277</DistanceMeters>
          </Trackpoint>
          <Trackpoint>
            <Time>2019-08-02T09:30:32.000Z</Time>
            <Position>
              <LatitudeDegrees>40.8531699143350124359130859375</LatitudeDegrees>
              <LongitudeDegrees>-4.05108251608908176422119140625</LongitudeDegrees>
            </Position>
            <AltitudeMeters>1505.4000244140625</AltitudeMeters>
            <DistanceMeters>93921.985507409</DistanceMeters>
          </Trackpoint>
          <Trackpoint>
            <Time>2019-08-02T09:30:35.000Z</Time>
            <Position>
              <LatitudeDegrees>40.8532671444118022918701171875</LatitudeDegrees>
              <LongitudeDegrees>-4.05106298625469207763671875</LongitudeDegrees>
            </Position>
            <AltitudeMeters>1505</AltitudeMeters>
            <DistanceMeters>93932.931331008</DistanceMeters>
          </Trackpoint>
          <Trackpoint>
            <Time>2019-08-02T09:30:44.000Z</Time>
            <Position>
              <LatitudeDegrees>40.85355305112898349761962890625</LatitudeDegrees>
              <LongitudeDegrees>-4.050995595753192901611328125</LongitudeDegrees>
            </Position>
            <AltitudeMeters>1504</AltitudeMeters>
            <DistanceMeters>93965.254944124</DistanceMeters>
          </Trackpoint>
          <Trackpoint>
            <Time>2019-08-02T09:30:47.000Z</Time>
            <Position>
              <LatitudeDegrees>40.85363787598907947540283203125</LatitudeDegrees>
              <LongitudeDegrees>-4.05096215195953845977783203125</LongitudeDegrees>
            </Position>
            <AltitudeMeters>1503</AltitudeMeters>
            <DistanceMeters>93975.107065301</DistanceMeters>
          </Trackpoint>
          <Trackpoint>
            <Time>2019-08-02T09:30:50.000Z</Time>
            <Position>
              <LatitudeDegrees>40.8537177555263042449951171875</LatitudeDegrees>
              <LongitudeDegrees>-4.05092879198491573333740234375</LongitudeDegrees>
            </Position>
            <AltitudeMeters>1501.800048828125</AltitudeMeters>
            <DistanceMeters>93984.431311973</DistanceMeters>
          </Trackpoint>
          <Trackpoint>
            <Time>2019-08-02T09:30:53.000Z</Time>
            <Position>
              <LatitudeDegrees>40.8538076095283031463623046875</LatitudeDegrees>
              <LongitudeDegrees>-4.05090230517089366912841796875</LongitudeDegrees>
            </Position>
            <AltitudeMeters>1500.5999755859375</AltitudeMeters>
            <DistanceMeters>93994.677906472</DistanceMeters>
          </Trackpoint>
          <Trackpoint>
            <Time>2019-08-02T09:30:56.000Z</Time>
            <Position>
              <LatitudeDegrees>40.853908360004425048828125</LatitudeDegrees>
              <LongitudeDegrees>-4.05087984167039394378662109375</LongitudeDegrees>
            </Position>
            <AltitudeMeters>1499.199951171875</AltitudeMeters>
            <DistanceMeters>94006.050186579</DistanceMeters>
          </Trackpoint>
          <Trackpoint>
            <Time>2019-08-02T09:30:59.000Z</Time>
            <Position>
              <LatitudeDegrees>40.85400634445250034332275390625</LatitudeDegrees>
              <LongitudeDegrees>-4.05085955746471881866455078125</LongitudeDegrees>
            </Position>
            <AltitudeMeters>1498.199951171875</AltitudeMeters>
            <DistanceMeters>94017.088839193</DistanceMeters>
          </Trackpoint>
          <Trackpoint>
            <Time>2019-08-02T09:31:02.000Z</Time>
            <Position>
              <LatitudeDegrees>40.85410290397703647613525390625</LatitudeDegrees>
              <LongitudeDegrees>-4.05084162019193172454833984375</LongitudeDegrees>
            </Position>
            <AltitudeMeters>1496.800048828125</AltitudeMeters>
            <DistanceMeters>94027.941039752</DistanceMeters>
          </Trackpoint>
          <Trackpoint>
            <Time>2019-08-02T09:31:05.000Z</Time>
            <Position>
              <LatitudeDegrees>40.85421019233763217926025390625</LatitudeDegrees>
              <LongitudeDegrees>-4.05082904733717441558837890625</LongitudeDegrees>
            </Position>
            <AltitudeMeters>1495.5999755859375</AltitudeMeters>
            <DistanceMeters>94039.929103257</DistanceMeters>
          </Trackpoint>
          <Trackpoint>
            <Time>2019-08-02T09:31:11.000Z</Time>
            <Position>
              <LatitudeDegrees>40.8544841967523097991943359375</LatitudeDegrees>
              <LongitudeDegrees>-4.050760567188262939453125</LongitudeDegrees>
            </Position>
            <AltitudeMeters>1495.199951171875</AltitudeMeters>
            <DistanceMeters>94070.966346932</DistanceMeters>
          </Trackpoint>
          <Trackpoint>
            <Time>2019-08-02T09:31:19.000Z</Time>
            <Position>
              <LatitudeDegrees>40.85504352115094661712646484375</LatitudeDegrees>
              <LongitudeDegrees>-4.05066199600696563720703125</LongitudeDegrees>
            </Position>
            <AltitudeMeters>1494.5999755859375</AltitudeMeters>
            <DistanceMeters>94133.770882049</DistanceMeters>
          </Trackpoint>
          <Trackpoint>
            <Time>2019-08-02T09:31:21.000Z</Time>
            <Position>
              <LatitudeDegrees>40.8551959879696369171142578125</LatitudeDegrees>
              <LongitudeDegrees>-4.05059988610446453094482421875</LongitudeDegrees>
            </Position>
            <AltitudeMeters>1494.4000244140625</AltitudeMeters>
            <DistanceMeters>94151.52791472</DistanceMeters>
          </Trackpoint>
          <Trackpoint>
            <Time>2019-08-02T09:31:27.000Z</Time>
            <Position>
              <LatitudeDegrees>40.85568976588547229766845703125</LatitudeDegrees>
              <LongitudeDegrees>-4.05039511620998382568359375</LongitudeDegrees>
            </Position>
            <AltitudeMeters>1493.4000244140625</AltitudeMeters>
            <DistanceMeters>94209.126490267</DistanceMeters>
          </Trackpoint>
          <Trackpoint>
            <Time>2019-08-02T09:31:33.000Z</Time>
            <Position>
              <LatitudeDegrees>40.85624883882701396942138671875</LatitudeDegrees>
              <LongitudeDegrees>-4.0502299927175045013427734375</LongitudeDegrees>
            </Position>
            <AltitudeMeters>1492.800048828125</AltitudeMeters>
            <DistanceMeters>94272.886158277</DistanceMeters>
          </Trackpoint>
          <Trackpoint>
            <Time>2019-08-02T09:31:38.000Z</Time>
            <Position>
              <LatitudeDegrees>40.8568019606173038482666015625</LatitudeDegrees>
              <LongitudeDegrees>-4.05004902742803096771240234375</LongitudeDegrees>
            </Position>
            <AltitudeMeters>1492.4000244140625</AltitudeMeters>
            <DistanceMeters>94336.306648574</DistanceMeters>
          </Trackpoint>
          <Trackpoint>
            <Time>2019-08-02T09:31:41.000Z</Time>
            <Position>
              <LatitudeDegrees>40.857152156531810760498046875</LatitudeDegrees>
              <LongitudeDegrees>-4.04997291974723339080810546875</LongitudeDegrees>
            </Position>
            <AltitudeMeters>1492.4000244140625</AltitudeMeters>
            <DistanceMeters>94375.807254629</DistanceMeters>
          </Trackpoint>
          <Trackpoint>
            <Time>2019-08-02T09:31:46.000Z</Time>
            <Position>
              <LatitudeDegrees>40.85768968798220157623291015625</LatitudeDegrees>
              <LongitudeDegrees>-4.04986965470016002655029296875</LongitudeDegrees>
            </Position>
            <AltitudeMeters>1492.199951171875</AltitudeMeters>
            <DistanceMeters>94436.263814913</DistanceMeters>
          </Trackpoint>
          <Trackpoint>
            <Time>2019-08-02T09:31:52.000Z</Time>
            <Position>
              <LatitudeDegrees>40.858324281871318817138671875</LatitudeDegrees>
              <LongitudeDegrees>-4.04981316067278385162353515625</LongitudeDegrees>
            </Position>
            <AltitudeMeters>1491.199951171875</AltitudeMeters>
            <DistanceMeters>94507.055209334</DistanceMeters>
          </Trackpoint>
          <Trackpoint>
            <Time>2019-08-02T09:31:58.000Z</Time>
            <Position>
              <LatitudeDegrees>40.85896440781652927398681640625</LatitudeDegrees>
              <LongitudeDegrees>-4.04983780346810817718505859375</LongitudeDegrees>
            </Position>
            <AltitudeMeters>1490.5999755859375</AltitudeMeters>
            <DistanceMeters>94578.332593466</DistanceMeters>
          </Trackpoint>
          <Trackpoint>
            <Time>2019-08-02T09:32:00.000Z</Time>
            <Position>
              <LatitudeDegrees>40.85915677249431610107421875</LatitudeDegrees>
              <LongitudeDegrees>-4.04986227862536907196044921875</LongitudeDegrees>
            </Position>
            <AltitudeMeters>1490.199951171875</AltitudeMeters>
            <DistanceMeters>94599.842032478</DistanceMeters>
          </Trackpoint>
          <Trackpoint>
            <Time>2019-08-02T09:32:01.000Z</Time>
            <Position>
              <LatitudeDegrees>40.8592491410672664642333984375</LatitudeDegrees>
              <LongitudeDegrees>-4.049885161221027374267578125</LongitudeDegrees>
            </Position>
            <AltitudeMeters>1490</AltitudeMeters>
            <DistanceMeters>94610.301879809</DistanceMeters>
          </Trackpoint>
          <Trackpoint>
            <Time>2019-08-02T09:32:04.000Z</Time>
            <Position>
              <LatitudeDegrees>40.85952557623386383056640625</LatitudeDegrees>
              <LongitudeDegrees>-4.050009883940219879150390625</LongitudeDegrees>
            </Position>
            <AltitudeMeters>1489</AltitudeMeters>
            <DistanceMeters>94642.811572933</DistanceMeters>
          </Trackpoint>
          <Trackpoint>
            <Time>2019-08-02T09:32:10.000Z</Time>
            <Position>
              <LatitudeDegrees>40.86005573160946369171142578125</LatitudeDegrees>
              <LongitudeDegrees>-4.05028120614588260650634765625</LongitudeDegrees>
            </Position>
            <AltitudeMeters>1488.4000244140625</AltitudeMeters>
            <DistanceMeters>94706.084952104</DistanceMeters>
          </Trackpoint>
          <Trackpoint>
            <Time>2019-08-02T09:32:16.000Z</Time>
            <Position>
              <LatitudeDegrees>40.8605902455747127532958984375</LatitudeDegrees>
              <LongitudeDegrees>-4.05052914284169673919677734375</LongitudeDegrees>
            </Position>
            <AltitudeMeters>1488.199951171875</AltitudeMeters>
            <DistanceMeters>94769.132079872</DistanceMeters>
          </Trackpoint>
          <Trackpoint>
            <Time>2019-08-02T09:32:19.000Z</Time>
            <Position>
              <LatitudeDegrees>40.86082644760608673095703125</LatitudeDegrees>
              <LongitudeDegrees>-4.050652943551540374755859375</LongitudeDegrees>
            </Position>
            <AltitudeMeters>1488.4000244140625</AltitudeMeters>
            <DistanceMeters>94797.412068386</DistanceMeters>
          </Trackpoint>
          <Trackpoint>
            <Time>2019-08-02T09:32:24.000Z</Time>
            <Position>
              <LatitudeDegrees>40.86120958440005779266357421875</LatitudeDegrees>
              <LongitudeDegrees>-4.0508898161351680755615234375</LongitudeDegrees>
            </Position>
            <AltitudeMeters>1488.199951171875</AltitudeMeters>
            <DistanceMeters>94844.487232328</DistanceMeters>
          </Trackpoint>
          <Trackpoint>
            <Time>2019-08-02T09:32:26.000Z</Time>
            <Position>
              <LatitudeDegrees>40.86135056801140308380126953125</LatitudeDegrees>
              <LongitudeDegrees>-4.05101462267339229583740234375</LongitudeDegrees>
            </Position>
            <AltitudeMeters>1487.5999755859375</AltitudeMeters>
            <DistanceMeters>94863.371266559</DistanceMeters>
          </Trackpoint>
          <Trackpoint>
            <Time>2019-08-02T09:32:29.000Z</Time>
            <Position>
              <LatitudeDegrees>40.86155994795262813568115234375</LatitudeDegrees>
              <LongitudeDegrees>-4.05123020522296428680419921875</LongitudeDegrees>
            </Position>
            <AltitudeMeters>1487.199951171875</AltitudeMeters>
            <DistanceMeters>94892.908070304</DistanceMeters>
          </Trackpoint>
          <Trackpoint>
            <Time>2019-08-02T09:32:33.000Z</Time>
            <Position>
              <LatitudeDegrees>40.86186823435127735137939453125</LatitudeDegrees>
              <LongitudeDegrees>-4.05143170617520809173583984375</LongitudeDegrees>
            </Position>
            <AltitudeMeters>1486.800048828125</AltitudeMeters>
            <DistanceMeters>94931.184377892</DistanceMeters>
          </Trackpoint>
          <Trackpoint>
            <Time>2019-08-02T09:32:38.000Z</Time>
            <Position>
              <LatitudeDegrees>40.8622307516634464263916015625</LatitudeDegrees>
              <LongitudeDegrees>-4.05153731815516948699951171875</LongitudeDegrees>
            </Position>
            <AltitudeMeters>1486.199951171875</AltitudeMeters>
            <DistanceMeters>94972.50100543</DistanceMeters>
          </Trackpoint>
          <Trackpoint>
            <Time>2019-08-02T09:32:39.000Z</Time>
            <Position>
              <LatitudeDegrees>40.8623021654784679412841796875</LatitudeDegrees>
              <LongitudeDegrees>-4.051548130810260772705078125</LongitudeDegrees>
            </Position>
            <AltitudeMeters>1485.800048828125</AltitudeMeters>
            <DistanceMeters>94980.501329288</DistanceMeters>
          </Trackpoint>
          <Trackpoint>
            <Time>2019-08-02T09:32:43.000Z</Time>
            <Position>
              <LatitudeDegrees>40.8625408820807933807373046875</LatitudeDegrees>
              <LongitudeDegrees>-4.051608480513095855712890625</LongitudeDegrees>
            </Position>
            <AltitudeMeters>1485.199951171875</AltitudeMeters>
            <DistanceMeters>95007.552248767</DistanceMeters>
          </Trackpoint>
          <Trackpoint>
            <Time>2019-08-02T09:32:50.000Z</Time>
            <Position>
              <LatitudeDegrees>40.8629071712493896484375</LatitudeDegrees>
              <LongitudeDegrees>-4.05168282799422740936279296875</LongitudeDegrees>
            </Position>
            <AltitudeMeters>1484.199951171875</AltitudeMeters>
            <DistanceMeters>95048.798440614</DistanceMeters>
          </Trackpoint>
          <Trackpoint>
            <Time>2019-08-02T09:32:52.000Z</Time>
            <Position>
              <LatitudeDegrees>40.8629955165088176727294921875</LatitudeDegrees>
              <LongitudeDegrees>-4.05168852768838405609130859375</LongitudeDegrees>
            </Position>
            <AltitudeMeters>1483.800048828125</AltitudeMeters>
            <DistanceMeters>95058.643226568</DistanceMeters>
          </Trackpoint>
          <Trackpoint>
            <Time>2019-08-02T09:32:56.000Z</Time>
            <Position>
              <LatitudeDegrees>40.86315133608877658843994140625</LatitudeDegrees>
              <LongitudeDegrees>-4.05170596204698085784912109375</LongitudeDegrees>
            </Position>
            <AltitudeMeters>1483.199951171875</AltitudeMeters>
            <DistanceMeters>95076.048427071</DistanceMeters>
          </Trackpoint>
          <Trackpoint>
            <Time>2019-08-02T09:33:01.000Z</Time>
            <Position>
              <LatitudeDegrees>40.86339977569878101348876953125</LatitudeDegrees>
              <LongitudeDegrees>-4.05170227400958538055419921875</LongitudeDegrees>
            </Position>
            <AltitudeMeters>1482.199951171875</AltitudeMeters>
            <DistanceMeters>95103.702017321</DistanceMeters>
          </Trackpoint>
          <Trackpoint>
            <Time>2019-08-02T09:33:09.000Z</Time>
            <Position>
              <LatitudeDegrees>40.863713510334491729736328125</LatitudeDegrees>
              <LongitudeDegrees>-4.0516783855855464935302734375</LongitudeDegrees>
            </Position>
            <AltitudeMeters>1481</AltitudeMeters>
            <DistanceMeters>95138.679206841</DistanceMeters>
          </Trackpoint>
          <Trackpoint>
            <Time>2019-08-02T09:33:14.000Z</Time>
            <Position>
              <LatitudeDegrees>40.86391978897154331207275390625</LatitudeDegrees>
              <LongitudeDegrees>-4.05168467201292514801025390625</LongitudeDegrees>
            </Position>
            <AltitudeMeters>1480</AltitudeMeters>
            <DistanceMeters>95161.64462965</DistanceMeters>
          </Trackpoint>
          <Trackpoint>
            <Time>2019-08-02T09:33:21.000Z</Time>
            <Position>
              <LatitudeDegrees>40.86415414698421955108642578125</LatitudeDegrees>
              <LongitudeDegrees>-4.0516646392643451690673828125</LongitudeDegrees>
            </Position>
            <AltitudeMeters>1479</AltitudeMeters>
            <DistanceMeters>95187.783713491</DistanceMeters>
          </Trackpoint>
          <Trackpoint>
            <Time>2019-08-02T09:33:27.000Z</Time>
            <Position>
              <LatitudeDegrees>40.86435950361192226409912109375</LatitudeDegrees>
              <LongitudeDegrees>-4.05158828012645244598388671875</LongitudeDegrees>
            </Position>
            <AltitudeMeters>1478</AltitudeMeters>
            <DistanceMeters>95211.526704293</DistanceMeters>
          </Trackpoint>
          <Trackpoint>
            <Time>2019-08-02T09:33:35.000Z</Time>
            <Position>
              <LatitudeDegrees>40.86465957574546337127685546875</LatitudeDegrees>
              <LongitudeDegrees>-4.0515114180743694305419921875</LongitudeDegrees>
            </Position>
            <AltitudeMeters>1476.800048828125</AltitudeMeters>
            <DistanceMeters>95245.546135319</DistanceMeters>
          </Trackpoint>
          <Trackpoint>
            <Time>2019-08-02T09:33:39.000Z</Time>
            <Position>
              <LatitudeDegrees>40.86482671089470386505126953125</LatitudeDegrees>
              <LongitudeDegrees>-4.05147596262395381927490234375</LongitudeDegrees>
            </Position>
            <AltitudeMeters>1475.800048828125</AltitudeMeters>
            <DistanceMeters>95264.386844037</DistanceMeters>
          </Trackpoint>
          <Trackpoint>
            <Time>2019-08-02T09:33:43.000Z</Time>
            <Position>
              <LatitudeDegrees>40.8649853803217411041259765625</LatitudeDegrees>
              <LongitudeDegrees>-4.0514560975134372711181640625</LongitudeDegrees>
            </Position>
            <AltitudeMeters>1474.5999755859375</AltitudeMeters>
            <DistanceMeters>95282.125814521</DistanceMeters>
          </Trackpoint>
          <Trackpoint>
            <Time>2019-08-02T09:33:48.000Z</Time>
            <Position>
              <LatitudeDegrees>40.86516483686864376068115234375</LatitudeDegrees>
              <LongitudeDegrees>-4.05140974558889865875244140625</LongitudeDegrees>
            </Position>
            <AltitudeMeters>1473.4000244140625</AltitudeMeters>
            <DistanceMeters>95302.477067214</DistanceMeters>
          </Trackpoint>
          <Trackpoint>
            <Time>2019-08-02T09:33:52.000Z</Time>
            <Position>
              <LatitudeDegrees>40.86533197201788425445556640625</LatitudeDegrees>
              <LongitudeDegrees>-4.05136741697788238525390625</LongitudeDegrees>
            </Position>
            <AltitudeMeters>1472.4000244140625</AltitudeMeters>
            <DistanceMeters>95321.417681697</DistanceMeters>
          </Trackpoint>
          <Trackpoint>
            <Time>2019-08-02T09:33:57.000Z</Time>
            <Position>
              <LatitudeDegrees>40.86557001806795597076416015625</LatitudeDegrees>
              <LongitudeDegrees>-4.05127781443297863006591796875</LongitudeDegrees>
            </Position>
            <AltitudeMeters>1472</AltitudeMeters>
            <DistanceMeters>95348.965268963</DistanceMeters>
          </Trackpoint>
          <Trackpoint>
            <Time>2019-08-02T09:34:05.000Z</Time>
            <Position>
              <LatitudeDegrees>40.86613797582685947418212890625</LatitudeDegrees>
              <LongitudeDegrees>-4.05101244337856769561767578125</LongitudeDegrees>
            </Position>
            <AltitudeMeters>1471.5999755859375</AltitudeMeters>
            <DistanceMeters>95416.010370445</DistanceMeters>
          </Trackpoint>
          <Trackpoint>
            <Time>2019-08-02T09:34:07.000Z</Time>
            <Position>
              <LatitudeDegrees>40.86631290614604949951171875</LatitudeDegrees>
              <LongitudeDegrees>-4.05094672925770282745361328125</LongitudeDegrees>
            </Position>
            <AltitudeMeters>1471.199951171875</AltitudeMeters>
            <DistanceMeters>95436.250837538</DistanceMeters>
          </Trackpoint>
          <Trackpoint>
            <Time>2019-08-02T09:34:09.000Z</Time>
            <Position>
              <LatitudeDegrees>40.86648649536073207855224609375</LatitudeDegrees>
              <LongitudeDegrees>-4.050907753407955169677734375</LongitudeDegrees>
            </Position>
            <AltitudeMeters>1470.5999755859375</AltitudeMeters>
            <DistanceMeters>95455.848009557</DistanceMeters>
          </Trackpoint>
          <Trackpoint>
            <Time>2019-08-02T09:34:10.000Z</Time>
            <Position>
              <LatitudeDegrees>40.86658288724720478057861328125</LatitudeDegrees>
              <LongitudeDegrees>-4.0509067475795745849609375</LongitudeDegrees>
            </Position>
            <AltitudeMeters>1470.199951171875</AltitudeMeters>
            <DistanceMeters>95466.576773905</DistanceMeters>
          </Trackpoint>
          <Trackpoint>
            <Time>2019-08-02T09:34:15.000Z</Time>
            <Position>
              <LatitudeDegrees>40.86713961325585842132568359375</LatitudeDegrees>
              <LongitudeDegrees>-4.050951339304447174072265625</LongitudeDegrees>
            </Position>
            <AltitudeMeters>1469.199951171875</AltitudeMeters>
            <DistanceMeters>95528.654970669</DistanceMeters>
          </Trackpoint>
          <Trackpoint>
            <Time>2019-08-02T09:34:16.000Z</Time>
            <Position>
              <LatitudeDegrees>40.86726198904216289520263671875</LatitudeDegrees>
              <LongitudeDegrees>-4.05095494352281093597412109375</LongitudeDegrees>
            </Position>
            <AltitudeMeters>1469</AltitudeMeters>
            <DistanceMeters>95542.278964992</DistanceMeters>
          </Trackpoint>
          <Trackpoint>
            <Time>2019-08-02T09:34:21.000Z</Time>
            <Position>
              <LatitudeDegrees>40.8678865246474742889404296875</LatitudeDegrees>
              <LongitudeDegrees>-4.05089677311480045318603515625</LongitudeDegrees>
            </Position>
            <AltitudeMeters>1468</AltitudeMeters>
            <DistanceMeters>95611.96329284</DistanceMeters>
          </Trackpoint>
          <Trackpoint>
            <Time>2019-08-02T09:34:24.000Z</Time>
            <Position>
              <LatitudeDegrees>40.8682620339095592498779296875</LatitudeDegrees>
              <LongitudeDegrees>-4.0507637523114681243896484375</LongitudeDegrees>
            </Position>
            <AltitudeMeters>1466.800048828125</AltitudeMeters>
            <DistanceMeters>95655.231868375</DistanceMeters>
          </Trackpoint>
          <Trackpoint>
            <Time>2019-08-02T09:34:26.000Z</Time>
            <Position>
              <LatitudeDegrees>40.86850217543542385101318359375</LatitudeDegrees>
              <LongitudeDegrees>-4.0506692044436931610107421875</LongitudeDegrees>
            </Position>
            <AltitudeMeters>1465.199951171875</AltitudeMeters>
            <DistanceMeters>95683.119578281</DistanceMeters>
          </Trackpoint>
          <Trackpoint>
            <Time>2019-08-02T09:34:29.000Z</Time>
            <Position>
              <LatitudeDegrees>40.868851952254772186279296875</LatitudeDegrees>
              <LongitudeDegrees>-4.05052411369979381561279296875</LongitudeDegrees>
            </Position>
            <AltitudeMeters>1464.199951171875</AltitudeMeters>
            <DistanceMeters>95723.92091126</DistanceMeters>
          </Trackpoint>
          <Trackpoint>
            <Time>2019-08-02T09:34:31.000Z</Time>
            <Position>
              <LatitudeDegrees>40.86907583288848400115966796875</LatitudeDegrees>
              <LongitudeDegrees>-4.050427973270416259765625</LongitudeDegrees>
            </Position>
            <AltitudeMeters>1462.5999755859375</AltitudeMeters>
            <DistanceMeters>95750.120381309</DistanceMeters>
          </Trackpoint>
          <Trackpoint>
            <Time>2019-08-02T09:34:33.000Z</Time>
            <Position>
              <LatitudeDegrees>40.869284458458423614501953125</LatitudeDegrees>
              <LongitudeDegrees>-4.050347842276096343994140625</LongitudeDegrees>
            </Position>
            <AltitudeMeters>1460.800048828125</AltitudeMeters>
            <DistanceMeters>95774.300525841</DistanceMeters>
          </Trackpoint>
          <Trackpoint>
            <Time>2019-08-02T09:34:34.000Z</Time>
            <Position>
              <LatitudeDegrees>40.86938814260065555572509765625</LatitudeDegrees>
              <LongitudeDegrees>-4.0503215231001377105712890625</LongitudeDegrees>
            </Position>
            <AltitudeMeters>1459.800048828125</AltitudeMeters>
            <DistanceMeters>95786.051607875</DistanceMeters>
          </Trackpoint>
          <Trackpoint>
            <Time>2019-08-02T09:34:35.000Z</Time>
            <Position>
              <LatitudeDegrees>40.869495011866092681884765625</LatitudeDegrees>
              <LongitudeDegrees>-4.05030819587409496307373046875</LongitudeDegrees>
            </Position>
            <AltitudeMeters>1458.800048828125</AltitudeMeters>
            <DistanceMeters>95797.99930424</DistanceMeters>
          </Trackpoint>
          <Trackpoint>
            <Time>2019-08-02T09:34:36.000Z</Time>
            <Position>
              <LatitudeDegrees>40.8696085028350353240966796875</LatitudeDegrees>
              <LongitudeDegrees>-4.0503077767789363861083984375</LongitudeDegrees>
            </Position>
            <AltitudeMeters>1458</AltitudeMeters>
            <DistanceMeters>95810.630710365</DistanceMeters>
          </Trackpoint>
          <Trackpoint>
            <Time>2019-08-02T09:34:38.000Z</Time>
            <Position>
              <LatitudeDegrees>40.869852416217327117919921875</LatitudeDegrees>
              <LongitudeDegrees>-4.0503247082233428955078125</LongitudeDegrees>
            </Position>
            <AltitudeMeters>1456.5999755859375</AltitudeMeters>
            <DistanceMeters>95837.816157693</DistanceMeters>
          </Trackpoint>
          <Trackpoint>
            <Time>2019-08-02T09:34:40.000Z</Time>
            <Position>
              <LatitudeDegrees>40.87010647170245647430419921875</LatitudeDegrees>
              <LongitudeDegrees>-4.0503345988690853118896484375</LongitudeDegrees>
            </Position>
            <AltitudeMeters>1455</AltitudeMeters>
            <DistanceMeters>95866.105245071</DistanceMeters>
          </Trackpoint>
          <Trackpoint>
            <Time>2019-08-02T09:34:42.000Z</Time>
            <Position>
              <LatitudeDegrees>40.8703565038740634918212890625</LatitudeDegrees>
              <LongitudeDegrees>-4.05030199326574802398681640625</LongitudeDegrees>
            </Position>
            <AltitudeMeters>1454.199951171875</AltitudeMeters>
            <DistanceMeters>95894.069267669</DistanceMeters>
          </Trackpoint>
          <Trackpoint>
            <Time>2019-08-02T09:34:43.000Z</Time>
            <Position>
              <LatitudeDegrees>40.87047494016587734222412109375</LatitudeDegrees>
              <LongitudeDegrees>-4.05025958083570003509521484375</LongitudeDegrees>
            </Position>
            <AltitudeMeters>1453.5999755859375</AltitudeMeters>
            <DistanceMeters>95907.72603152</DistanceMeters>
          </Trackpoint>
          <Trackpoint>
            <Time>2019-08-02T09:34:45.000Z</Time>
            <Position>
              <LatitudeDegrees>40.87068465538322925567626953125</LatitudeDegrees>
              <LongitudeDegrees>-4.0501552261412143707275390625</LongitudeDegrees>
            </Position>
            <AltitudeMeters>1452.5999755859375</AltitudeMeters>
            <DistanceMeters>95932.665430176</DistanceMeters>
          </Trackpoint>
          <Trackpoint>
            <Time>2019-08-02T09:34:47.000Z</Time>
            <Position>
              <LatitudeDegrees>40.870875678956508636474609375</LatitudeDegrees>
              <LongitudeDegrees>-4.05005372129380702972412109375</LongitudeDegrees>
            </Position>
            <AltitudeMeters>1450.800048828125</AltitudeMeters>
            <DistanceMeters>95955.579088432</DistanceMeters>
          </Trackpoint>
          <Trackpoint>
            <Time>2019-08-02T09:34:49.000Z</Time>
            <Position>
              <LatitudeDegrees>40.87105647660791873931884765625</LatitudeDegrees>
              <LongitudeDegrees>-4.04996034689247608184814453125</LongitudeDegrees>
            </Position>
            <AltitudeMeters>1449.5999755859375</AltitudeMeters>
            <DistanceMeters>95977.182153279</DistanceMeters>
          </Trackpoint>
          <Trackpoint>
            <Time>2019-08-02T09:34:51.000Z</Time>
            <Position>
              <LatitudeDegrees>40.8712542057037353515625</LatitudeDegrees>
              <LongitudeDegrees>-4.04986043460667133331298828125</LongitudeDegrees>
            </Position>
            <AltitudeMeters>1448.199951171875</AltitudeMeters>
            <DistanceMeters>96000.741497045</DistanceMeters>
          </Trackpoint>
          <Trackpoint>
            <Time>2019-08-02T09:34:53.000Z</Time>
            <Position>
              <LatitudeDegrees>40.8714635856449604034423828125</LatitudeDegrees>
              <LongitudeDegrees>-4.04974878765642642974853515625</LongitudeDegrees>
            </Position>
            <AltitudeMeters>1447</AltitudeMeters>
            <DistanceMeters>96025.869011348</DistanceMeters>
          </Trackpoint>
          <Trackpoint>
            <Time>2019-08-02T09:34:55.000Z</Time>
            <Position>
              <LatitudeDegrees>40.8716895617544651031494140625</LatitudeDegrees>
              <LongitudeDegrees>-4.04962607659399509429931640625</LongitudeDegrees>
            </Position>
            <AltitudeMeters>1445.5999755859375</AltitudeMeters>
            <DistanceMeters>96053.058610431</DistanceMeters>
          </Trackpoint>
          <Trackpoint>
            <Time>2019-08-02T09:34:57.000Z</Time>
            <Position>
              <LatitudeDegrees>40.87192685343325138092041015625</LatitudeDegrees>
              <LongitudeDegrees>-4.0495047904551029205322265625</LongitudeDegrees>
            </Position>
            <AltitudeMeters>1444.5999755859375</AltitudeMeters>
            <DistanceMeters>96081.37386069</DistanceMeters>
          </Trackpoint>
          <Trackpoint>
            <Time>2019-08-02T09:34:59.000Z</Time>
            <Position>
              <LatitudeDegrees>40.87217227555811405181884765625</LatitudeDegrees>
              <LongitudeDegrees>-4.0493894554674625396728515625</LongitudeDegrees>
            </Position>
            <AltitudeMeters>1443.199951171875</AltitudeMeters>
            <DistanceMeters>96110.363394911</DistanceMeters>
          </Trackpoint>
          <Trackpoint>
            <Time>2019-08-02T09:35:01.000Z</Time>
            <Position>
              <LatitudeDegrees>40.8724234811961650848388671875</LatitudeDegrees>
              <LongitudeDegrees>-4.04929784126579761505126953125</LongitudeDegrees>
            </Position>
            <AltitudeMeters>1441.5999755859375</AltitudeMeters>
            <DistanceMeters>96139.366942991</DistanceMeters>
          </Trackpoint>
          <Trackpoint>
            <Time>2019-08-02T09:35:02.000Z</Time>
            <Position>
              <LatitudeDegrees>40.87254996411502361297607421875</LatitudeDegrees>
              <LongitudeDegrees>-4.04927168972790241241455078125</LongitudeDegrees>
            </Position>
            <AltitudeMeters>1440.800048828125</AltitudeMeters>
            <DistanceMeters>96153.615881154</DistanceMeters>
          </Trackpoint>
          <Trackpoint>
            <Time>2019-08-02T09:35:03.000Z</Time>
            <Position>
              <LatitudeDegrees>40.87267376482486724853515625</LatitudeDegrees>
              <LongitudeDegrees>-4.0492593683302402496337890625</LongitudeDegrees>
            </Position>
            <AltitudeMeters>1440.199951171875</AltitudeMeters>
            <DistanceMeters>96167.434346933</DistanceMeters>
          </Trackpoint>
          <Trackpoint>
            <Time>2019-08-02T09:35:04.000Z</Time>
            <Position>
              <LatitudeDegrees>40.87279572151601314544677734375</LatitudeDegrees>
              <LongitudeDegrees>-4.04925509355962276458740234375</LongitudeDegrees>
            </Position>
            <AltitudeMeters>1439.199951171875</AltitudeMeters>
            <DistanceMeters>96181.012863082</DistanceMeters>
          </Trackpoint>
          <Trackpoint>
            <Time>2019-08-02T09:35:06.000Z</Time>
            <Position>
              <LatitudeDegrees>40.87303024716675281524658203125</LatitudeDegrees>
              <LongitudeDegrees>-4.0492479689419269561767578125</LongitudeDegrees>
            </Position>
            <AltitudeMeters>1437.4000244140625</AltitudeMeters>
            <DistanceMeters>96207.122911938</DistanceMeters>
          </Trackpoint>
          <Trackpoint>
            <Time>2019-08-02T09:35:08.000Z</Time>
            <Position>
              <LatitudeDegrees>40.8732596598565578460693359375</LatitudeDegrees>
              <LongitudeDegrees>-4.04921226203441619873046875</LongitudeDegrees>
            </Position>
            <AltitudeMeters>1436</AltitudeMeters>
            <DistanceMeters>96232.833214461</DistanceMeters>
          </Trackpoint>
          <Trackpoint>
            <Time>2019-08-02T09:35:10.000Z</Time>
            <Position>
              <LatitudeDegrees>40.873501561582088470458984375</LatitudeDegrees>
              <LongitudeDegrees>-4.0491514094173908233642578125</LongitudeDegrees>
            </Position>
            <AltitudeMeters>1434.800048828125</AltitudeMeters>
            <DistanceMeters>96260.240144584</DistanceMeters>
          </Trackpoint>
          <Trackpoint>
            <Time>2019-08-02T09:35:12.000Z</Time>
            <Position>
              <LatitudeDegrees>40.8737555332481861114501953125</LatitudeDegrees>
              <LongitudeDegrees>-4.04908242635428905487060546875</LongitudeDegrees>
            </Position>
            <AltitudeMeters>1433</AltitudeMeters>
            <DistanceMeters>96289.097772341</DistanceMeters>
          </Trackpoint>
          <Trackpoint>
            <Time>2019-08-02T09:35:14.000Z</Time>
            <Position>
              <LatitudeDegrees>40.87400640361011028289794921875</LatitudeDegrees>
              <LongitudeDegrees>-4.04901235364377498626708984375</LongitudeDegrees>
            </Position>
            <AltitudeMeters>1431.5999755859375</AltitudeMeters>
            <DistanceMeters>96317.636179</DistanceMeters>
          </Trackpoint>
          <Trackpoint>
            <Time>2019-08-02T09:35:15.000Z</Time>
            <Position>
              <LatitudeDegrees>40.8741276897490024566650390625</LatitudeDegrees>
              <LongitudeDegrees>-4.04897480271756649017333984375</LongitudeDegrees>
            </Position>
            <AltitudeMeters>1430.4000244140625</AltitudeMeters>
            <DistanceMeters>96331.500312841</DistanceMeters>
          </Trackpoint>
          <Trackpoint>
            <Time>2019-08-02T09:35:17.000Z</Time>
            <Position>
              <LatitudeDegrees>40.8743432722985744476318359375</LatitudeDegrees>
              <LongitudeDegrees>-4.0489053167402744293212890625</LongitudeDegrees>
            </Position>
            <AltitudeMeters>1429.199951171875</AltitudeMeters>
            <DistanceMeters>96356.197388447</DistanceMeters>
          </Trackpoint>
          <Trackpoint>
            <Time>2019-08-02T09:35:19.000Z</Time>
            <Position>
              <LatitudeDegrees>40.874510072171688079833984375</LatitudeDegrees>
              <LongitudeDegrees>-4.04886265285313129425048828125</LongitudeDegrees>
            </Position>
            <AltitudeMeters>1428</AltitudeMeters>
            <DistanceMeters>96375.106749541</DistanceMeters>
          </Trackpoint>
          <Trackpoint>
            <Time>2019-08-02T09:35:21.000Z</Time>
            <Position>
              <LatitudeDegrees>40.874625742435455322265625</LatitudeDegrees>
              <LongitudeDegrees>-4.04883935116231441497802734375</LongitudeDegrees>
            </Position>
            <AltitudeMeters>1426</AltitudeMeters>
            <DistanceMeters>96388.129570498</DistanceMeters>
          </Trackpoint>
          <Trackpoint>
            <Time>2019-08-02T09:35:23.000Z</Time>
            <Position>
              <LatitudeDegrees>40.87470444850623607635498046875</LatitudeDegrees>
              <LongitudeDegrees>-4.0488602221012115478515625</LongitudeDegrees>
            </Position>
            <AltitudeMeters>1425.199951171875</AltitudeMeters>
            <DistanceMeters>96397.064103265</DistanceMeters>
          </Trackpoint>
          <Trackpoint>
            <Time>2019-08-02T09:35:25.000Z</Time>
            <Position>
              <LatitudeDegrees>40.8747331984341144561767578125</LatitudeDegrees>
              <LongitudeDegrees>-4.04895619489252567291259765625</LongitudeDegrees>
            </Position>
            <AltitudeMeters>1424</AltitudeMeters>
            <DistanceMeters>96405.752684224</DistanceMeters>
          </Trackpoint>
          <Trackpoint>
            <Time>2019-08-02T09:35:28.000Z</Time>
            <Position>
              <LatitudeDegrees>40.8746842481195926666259765625</LatitudeDegrees>
              <LongitudeDegrees>-4.0491225756704807281494140625</LongitudeDegrees>
            </Position>
            <AltitudeMeters>1422</AltitudeMeters>
            <DistanceMeters>96420.777727022</DistanceMeters>
          </Trackpoint>
          <Trackpoint>
            <Time>2019-08-02T09:35:29.000Z</Time>
            <Position>
              <LatitudeDegrees>40.8746658079326152801513671875</LatitudeDegrees>
              <LongitudeDegrees>-4.04917605221271514892578125</LongitudeDegrees>
            </Position>
            <AltitudeMeters>1420.800048828125</AltitudeMeters>
            <DistanceMeters>96425.723682651</DistanceMeters>
          </Trackpoint>
          <Trackpoint>
            <Time>2019-08-02T09:35:31.000Z</Time>
            <Position>
              <LatitudeDegrees>40.8746326155960559844970703125</LatitudeDegrees>
              <LongitudeDegrees>-4.0492882020771503448486328125</LongitudeDegrees>
            </Position>
            <AltitudeMeters>1419.4000244140625</AltitudeMeters>
            <DistanceMeters>96435.85951906</DistanceMeters>
          </Trackpoint>
          <Trackpoint>
            <Time>2019-08-02T09:35:33.000Z</Time>
            <Position>
              <LatitudeDegrees>40.87460118345916271209716796875</LatitudeDegrees>
              <LongitudeDegrees>-4.04941384680569171905517578125</LongitudeDegrees>
            </Position>
            <AltitudeMeters>1418.199951171875</AltitudeMeters>
            <DistanceMeters>96446.997120243</DistanceMeters>
          </Trackpoint>
          <Trackpoint>
            <Time>2019-08-02T09:35:36.000Z</Time>
            <Position>
              <LatitudeDegrees>40.874555669724941253662109375</LatitudeDegrees>
              <LongitudeDegrees>-4.04959958977997303009033203125</LongitudeDegrees>
            </Position>
            <AltitudeMeters>1416.5999755859375</AltitudeMeters>
            <DistanceMeters>96463.429324776</DistanceMeters>
          </Trackpoint>
          <Trackpoint>
            <Time>2019-08-02T09:35:38.000Z</Time>
            <Position>
              <LatitudeDegrees>40.8745280094444751739501953125</LatitudeDegrees>
              <LongitudeDegrees>-4.04970645904541015625</LongitudeDegrees>
            </Position>
            <AltitudeMeters>1415.199951171875</AltitudeMeters>
            <DistanceMeters>96472.935321567</DistanceMeters>
          </Trackpoint>
          <Trackpoint>
            <Time>2019-08-02T09:35:40.000Z</Time>
            <Position>
              <LatitudeDegrees>40.874498002231121063232421875</LatitudeDegrees>
              <LongitudeDegrees>-4.049830175936222076416015625</LongitudeDegrees>
            </Position>
            <AltitudeMeters>1413.800048828125</AltitudeMeters>
            <DistanceMeters>96483.870002275</DistanceMeters>
          </Trackpoint>
          <Trackpoint>
            <Time>2019-08-02T09:35:41.000Z</Time>
            <Position>
              <LatitudeDegrees>40.8744770474731922149658203125</LatitudeDegrees>
              <LongitudeDegrees>-4.049895890057086944580078125</LongitudeDegrees>
            </Position>
            <AltitudeMeters>1413.199951171875</AltitudeMeters>
            <DistanceMeters>96489.872502172</DistanceMeters>
          </Trackpoint>
          <Trackpoint>
            <Time>2019-08-02T09:35:42.000Z</Time>
            <Position>
              <LatitudeDegrees>40.874450393021106719970703125</LatitudeDegrees>
              <LongitudeDegrees>-4.04996336437761783599853515625</LongitudeDegrees>
            </Position>
            <AltitudeMeters>1412.5999755859375</AltitudeMeters>
            <DistanceMeters>96496.279586338</DistanceMeters>
          </Trackpoint>
          <Trackpoint>
            <Time>2019-08-02T09:35:44.000Z</Time>
            <Position>
              <LatitudeDegrees>40.87438166141510009765625</LatitudeDegrees>
              <LongitudeDegrees>-4.05010552145540714263916015625</LongitudeDegrees>
            </Position>
            <AltitudeMeters>1411.199951171875</AltitudeMeters>
            <DistanceMeters>96510.480278826</DistanceMeters>
          </Trackpoint>
          <Trackpoint>
            <Time>2019-08-02T09:35:46.000Z</Time>
            <Position>
              <LatitudeDegrees>40.8742896281182765960693359375</LatitudeDegrees>
              <LongitudeDegrees>-4.0502534620463848114013671875</LongitudeDegrees>
            </Position>
            <AltitudeMeters>1409.5999755859375</AltitudeMeters>
            <DistanceMeters>96526.603206929</DistanceMeters>
          </Trackpoint>
          <Trackpoint>
            <Time>2019-08-02T09:35:47.000Z</Time>
            <Position>
              <LatitudeDegrees>40.8742408454418182373046875</LatitudeDegrees>
              <LongitudeDegrees>-4.05033317394554615020751953125</LongitudeDegrees>
            </Position>
            <AltitudeMeters>1408.5999755859375</AltitudeMeters>
            <DistanceMeters>96535.23391377</DistanceMeters>
          </Trackpoint>
          <Trackpoint>
            <Time>2019-08-02T09:35:49.000Z</Time>
            <Position>
              <LatitudeDegrees>40.87414051406085491180419921875</LatitudeDegrees>
              <LongitudeDegrees>-4.0505005605518817901611328125</LongitudeDegrees>
            </Position>
            <AltitudeMeters>1407.199951171875</AltitudeMeters>
            <DistanceMeters>96553.210798255</DistanceMeters>
          </Trackpoint>
          <Trackpoint>
            <Time>2019-08-02T09:35:51.000Z</Time>
            <Position>
              <LatitudeDegrees>40.87403004057705402374267578125</LatitudeDegrees>
              <LongitudeDegrees>-4.05066761188209056854248046875</LongitudeDegrees>
            </Position>
            <AltitudeMeters>1405.800048828125</AltitudeMeters>
            <DistanceMeters>96571.888322534</DistanceMeters>
          </Trackpoint>
          <Trackpoint>
            <Time>2019-08-02T09:35:53.000Z</Time>
            <Position>
              <LatitudeDegrees>40.873919986188411712646484375</LatitudeDegrees>
              <LongitudeDegrees>-4.0508329868316650390625</LongitudeDegrees>
            </Position>
            <AltitudeMeters>1404.4000244140625</AltitudeMeters>
            <DistanceMeters>96590.42900618</DistanceMeters>
          </Trackpoint>
          <Trackpoint>
            <Time>2019-08-02T09:35:55.000Z</Time>
            <Position>
              <LatitudeDegrees>40.873815380036830902099609375</LatitudeDegrees>
              <LongitudeDegrees>-4.050992913544178009033203125</LongitudeDegrees>
            </Position>
            <AltitudeMeters>1403</AltitudeMeters>
            <DistanceMeters>96608.225660393</DistanceMeters>
          </Trackpoint>
          <Trackpoint>
            <Time>2019-08-02T09:35:57.000Z</Time>
            <Position>
              <LatitudeDegrees>40.8737204968929290771484375</LatitudeDegrees>
              <LongitudeDegrees>-4.05114948749542236328125</LongitudeDegrees>
            </Position>
            <AltitudeMeters>1401.4000244140625</AltitudeMeters>
            <DistanceMeters>96625.113166848</DistanceMeters>
          </Trackpoint>
          <Trackpoint>
            <Time>2019-08-02T09:35:59.000Z</Time>
            <Position>
              <LatitudeDegrees>40.87362435646355152130126953125</LatitudeDegrees>
              <LongitudeDegrees>-4.0512955002486705780029296875</LongitudeDegrees>
            </Position>
            <AltitudeMeters>1400.199951171875</AltitudeMeters>
            <DistanceMeters>96641.407962574</DistanceMeters>
          </Trackpoint>
          <Trackpoint>
            <Time>2019-08-02T09:36:01.000Z</Time>
            <Position>
              <LatitudeDegrees>40.8735392801463603973388671875</LatitudeDegrees>
              <LongitudeDegrees>-4.05143178999423980712890625</LongitudeDegrees>
            </Position>
            <AltitudeMeters>1399</AltitudeMeters>
            <DistanceMeters>96656.281996085</DistanceMeters>
          </Trackpoint>
          <Trackpoint>
            <Time>2019-08-02T09:36:03.000Z</Time>
            <Position>
              <LatitudeDegrees>40.8734725601971149444580078125</LatitudeDegrees>
              <LongitudeDegrees>-4.05154922045767307281494140625</LongitudeDegrees>
            </Position>
            <AltitudeMeters>1397.4000244140625</AltitudeMeters>
            <DistanceMeters>96668.644237538</DistanceMeters>
          </Trackpoint>
          <Trackpoint>
            <Time>2019-08-02T09:36:05.000Z</Time>
            <Position>
              <LatitudeDegrees>40.87341950275003910064697265625</LatitudeDegrees>
              <LongitudeDegrees>-4.0516408346593379974365234375</LongitudeDegrees>
            </Position>
            <AltitudeMeters>1396</AltitudeMeters>
            <DistanceMeters>96678.356507022</DistanceMeters>
          </Trackpoint>
          <Trackpoint>
            <Time>2019-08-02T09:36:07.000Z</Time>
            <Position>
              <LatitudeDegrees>40.87337306700646877288818359375</LatitudeDegrees>
              <LongitudeDegrees>-4.05170998536050319671630859375</LongitudeDegrees>
            </Position>
            <AltitudeMeters>1394.4000244140625</AltitudeMeters>
            <DistanceMeters>96686.140581337</DistanceMeters>
          </Trackpoint>
          <Trackpoint>
            <Time>2019-08-02T09:36:09.000Z</Time>
            <Position>
              <LatitudeDegrees>40.8733397908508777618408203125</LatitudeDegrees>
              <LongitudeDegrees>-4.05177569948136806488037109375</LongitudeDegrees>
            </Position>
            <AltitudeMeters>1392.800048828125</AltitudeMeters>
            <DistanceMeters>96692.79652267</DistanceMeters>
          </Trackpoint>
          <Trackpoint>
            <Time>2019-08-02T09:36:11.000Z</Time>
            <Position>
              <LatitudeDegrees>40.8733196742832660675048828125</LatitudeDegrees>
              <LongitudeDegrees>-4.051843173801898956298828125</LongitudeDegrees>
            </Position>
            <AltitudeMeters>1391.5999755859375</AltitudeMeters>
            <DistanceMeters>96698.900463644</DistanceMeters>
          </Trackpoint>
          <Trackpoint>
            <Time>2019-08-02T09:36:13.000Z</Time>
            <Position>
              <LatitudeDegrees>40.87330735288560390472412109375</LatitudeDegrees>
              <LongitudeDegrees>-4.0519013442099094390869140625</LongitudeDegrees>
            </Position>
            <AltitudeMeters>1390.199951171875</AltitudeMeters>
            <DistanceMeters>96703.984170833</DistanceMeters>
          </Trackpoint>
          <Trackpoint>
            <Time>2019-08-02T09:36:15.000Z</Time>
            <Position>
              <LatitudeDegrees>40.87328824214637279510498046875</LatitudeDegrees>
              <LongitudeDegrees>-4.051956497132778167724609375</LongitudeDegrees>
            </Position>
            <AltitudeMeters>1388.800048828125</AltitudeMeters>
            <DistanceMeters>96709.090917426</DistanceMeters>
          </Trackpoint>
          <Trackpoint>
            <Time>2019-08-02T09:36:17.000Z</Time>
            <Position>
              <LatitudeDegrees>40.87326913140714168548583984375</LatitudeDegrees>
              <LongitudeDegrees>-4.05201651155948638916015625</LongitudeDegrees>
            </Position>
            <AltitudeMeters>1387.199951171875</AltitudeMeters>
            <DistanceMeters>96714.572896485</DistanceMeters>
          </Trackpoint>
          <Trackpoint>
            <Time>2019-08-02T09:36:18.000Z</Time>
            <Position>
              <LatitudeDegrees>40.87325706146657466888427734375</LatitudeDegrees>
              <LongitudeDegrees>-4.05204878188669681549072265625</LongitudeDegrees>
            </Position>
            <AltitudeMeters>1386.4000244140625</AltitudeMeters>
            <DistanceMeters>96717.604829502</DistanceMeters>
          </Trackpoint>
          <Trackpoint>
            <Time>2019-08-02T09:36:19.000Z</Time>
            <Position>
              <LatitudeDegrees>40.873247422277927398681640625</LatitudeDegrees>
              <LongitudeDegrees>-4.052082560956478118896484375</LongitudeDegrees>
            </Position>
            <AltitudeMeters>1385.4000244140625</AltitudeMeters>
            <DistanceMeters>96720.644199207</DistanceMeters>
          </Trackpoint>
          <Trackpoint>
            <Time>2019-08-02T09:36:21.000Z</Time>
            <Position>
              <LatitudeDegrees>40.87322655133903026580810546875</LatitudeDegrees>
              <LongitudeDegrees>-4.05215254984796047210693359375</LongitudeDegrees>
            </Position>
            <AltitudeMeters>1383.800048828125</AltitudeMeters>
            <DistanceMeters>96726.976145149</DistanceMeters>
          </Trackpoint>
          <Trackpoint>
            <Time>2019-08-02T09:36:23.000Z</Time>
            <Position>
              <LatitudeDegrees>40.873205177485942840576171875</LatitudeDegrees>
              <LongitudeDegrees>-4.05222144909203052520751953125</LongitudeDegrees>
            </Position>
            <AltitudeMeters>1382.199951171875</AltitudeMeters>
            <DistanceMeters>96733.243587413</DistanceMeters>
          </Trackpoint>
          <Trackpoint>
            <Time>2019-08-02T09:36:25.000Z</Time>
            <Position>
              <LatitudeDegrees>40.8731852285563945770263671875</LatitudeDegrees>
              <LongitudeDegrees>-4.052288420498371124267578125</LongitudeDegrees>
            </Position>
            <AltitudeMeters>1380.5999755859375</AltitudeMeters>
            <DistanceMeters>96739.301493872</DistanceMeters>
          </Trackpoint>
          <Trackpoint>
            <Time>2019-08-02T09:36:28.000Z</Time>
            <Position>
              <LatitudeDegrees>40.873152874410152435302734375</LatitudeDegrees>
              <LongitudeDegrees>-4.05240149237215518951416015625</LongitudeDegrees>
            </Position>
            <AltitudeMeters>1379</AltitudeMeters>
            <DistanceMeters>96749.47645463</DistanceMeters>
          </Trackpoint>
          <Trackpoint>
            <Time>2019-08-02T09:36:30.000Z</Time>
            <Position>
              <LatitudeDegrees>40.87313200347125530242919921875</LatitudeDegrees>
              <LongitudeDegrees>-4.0524646081030368804931640625</LongitudeDegrees>
            </Position>
            <AltitudeMeters>1377.5999755859375</AltitudeMeters>
            <DistanceMeters>96755.274641813</DistanceMeters>
          </Trackpoint>
          <Trackpoint>
            <Time>2019-08-02T09:36:32.000Z</Time>
            <Position>
              <LatitudeDegrees>40.87311624549329280853271484375</LatitudeDegrees>
              <LongitudeDegrees>-4.05252076685428619384765625</LongitudeDegrees>
            </Position>
            <AltitudeMeters>1376.4000244140625</AltitudeMeters>
            <DistanceMeters>96760.316433676</DistanceMeters>
          </Trackpoint>
          <Trackpoint>
            <Time>2019-08-02T09:36:34.000Z</Time>
            <Position>
              <LatitudeDegrees>40.8731050975620746612548828125</LatitudeDegrees>
              <LongitudeDegrees>-4.05256896279752254486083984375</LongitudeDegrees>
            </Position>
            <AltitudeMeters>1375.199951171875</AltitudeMeters>
            <DistanceMeters>96764.558714</DistanceMeters>
          </Trackpoint>
          <Trackpoint>
            <Time>2019-08-02T09:36:36.000Z</Time>
            <Position>
              <LatitudeDegrees>40.87310467846691608428955078125</LatitudeDegrees>
              <LongitudeDegrees>-4.05261103995144367218017578125</LongitudeDegrees>
            </Position>
            <AltitudeMeters>1374</AltitudeMeters>
            <DistanceMeters>96768.101566842</DistanceMeters>
          </Trackpoint>
          <Trackpoint>
            <Time>2019-08-02T09:36:38.000Z</Time>
            <Position>
              <LatitudeDegrees>40.87313485331833362579345703125</LatitudeDegrees>
              <LongitudeDegrees>-4.0526354312896728515625</LongitudeDegrees>
            </Position>
            <AltitudeMeters>1372.800048828125</AltitudeMeters>
            <DistanceMeters>96772.038013358</DistanceMeters>
          </Trackpoint>
          <Trackpoint>
            <Time>2019-08-02T09:36:41.000Z</Time>
            <Position>
              <LatitudeDegrees>40.87320811115205287933349609375</LatitudeDegrees>
              <LongitudeDegrees>-4.052633084356784820556640625</LongitudeDegrees>
            </Position>
            <AltitudeMeters>1371.4000244140625</AltitudeMeters>
            <DistanceMeters>96780.194273112</DistanceMeters>
          </Trackpoint>
          <Trackpoint>
            <Time>2019-08-02T09:36:44.000Z</Time>
            <Position>
              <LatitudeDegrees>40.87328572757542133331298828125</LatitudeDegrees>
              <LongitudeDegrees>-4.05264423228800296783447265625</LongitudeDegrees>
            </Position>
            <AltitudeMeters>1369.800048828125</AltitudeMeters>
            <DistanceMeters>96788.883893312</DistanceMeters>
          </Trackpoint>
          <Trackpoint>
            <Time>2019-08-02T09:36:47.000Z</Time>
            <Position>
              <LatitudeDegrees>40.8733394555747509002685546875</LatitudeDegrees>
              <LongitudeDegrees>-4.0527271293103694915771484375</LongitudeDegrees>
            </Position>
            <AltitudeMeters>1368.5999755859375</AltitudeMeters>
            <DistanceMeters>96798.072539281</DistanceMeters>
          </Trackpoint>
          <Trackpoint>
            <Time>2019-08-02T09:36:55.000Z</Time>
            <Position>
              <LatitudeDegrees>40.87344716303050518035888671875</LatitudeDegrees>
              <LongitudeDegrees>-4.05309199355542659759521484375</LongitudeDegrees>
            </Position>
            <AltitudeMeters>1367.5999755859375</AltitudeMeters>
            <DistanceMeters>96831.037085981</DistanceMeters>
          </Trackpoint>
          <Trackpoint>
            <Time>2019-08-02T09:37:05.000Z</Time>
            <Position>
              <LatitudeDegrees>40.8736160583794116973876953125</LatitudeDegrees>
              <LongitudeDegrees>-4.05352391302585601806640625</LongitudeDegrees>
            </Position>
            <AltitudeMeters>1366.5999755859375</AltitudeMeters>
            <DistanceMeters>96871.96106621</DistanceMeters>
          </Trackpoint>
          <Trackpoint>
            <Time>2019-08-02T09:37:12.000Z</Time>
            <Position>
              <LatitudeDegrees>40.87375335395336151123046875</LatitudeDegrees>
              <LongitudeDegrees>-4.05379774980247020721435546875</LongitudeDegrees>
            </Position>
            <AltitudeMeters>1365.5999755859375</AltitudeMeters>
            <DistanceMeters>96899.613350259</DistanceMeters>
          </Trackpoint>
          <Trackpoint>
            <Time>2019-08-02T09:37:23.000Z</Time>
            <Position>
              <LatitudeDegrees>40.8739496581256389617919921875</LatitudeDegrees>
              <LongitudeDegrees>-4.05407854355871677398681640625</LongitudeDegrees>
            </Position>
            <AltitudeMeters>1365</AltitudeMeters>
            <DistanceMeters>96931.798100204</DistanceMeters>
          </Trackpoint>
          <Trackpoint>
            <Time>2019-08-02T09:37:25.000Z</Time>
            <Position>
              <LatitudeDegrees>40.873988382518291473388671875</LatitudeDegrees>
              <LongitudeDegrees>-4.0541460178792476654052734375</LongitudeDegrees>
            </Position>
            <AltitudeMeters>1364.5999755859375</AltitudeMeters>
            <DistanceMeters>96938.927004063</DistanceMeters>
          </Trackpoint>
          <Trackpoint>
            <Time>2019-08-02T09:37:32.000Z</Time>
            <Position>
              <LatitudeDegrees>40.874082930386066436767578125</LatitudeDegrees>
              <LongitudeDegrees>-4.05436621047556400299072265625</LongitudeDegrees>
            </Position>
            <AltitudeMeters>1363.5999755859375</AltitudeMeters>
            <DistanceMeters>96960.238214604</DistanceMeters>
          </Trackpoint>
          <Trackpoint>
            <Time>2019-08-02T09:37:38.000Z</Time>
            <Position>
              <LatitudeDegrees>40.8741575293242931365966796875</LatitudeDegrees>
              <LongitudeDegrees>-4.054580032825469970703125</LongitudeDegrees>
            </Position>
            <AltitudeMeters>1362.5999755859375</AltitudeMeters>
            <DistanceMeters>96980.057151638</DistanceMeters>
          </Trackpoint>
          <Trackpoint>
            <Time>2019-08-02T09:37:39.000Z</Time>
            <Position>
              <LatitudeDegrees>40.8741759695112705230712890625</LatitudeDegrees>
              <LongitudeDegrees>-4.0545932762324810028076171875</LongitudeDegrees>
            </Position>
            <AltitudeMeters>1362.4000244140625</AltitudeMeters>
            <DistanceMeters>96982.394499761</DistanceMeters>
          </Trackpoint>
          <Trackpoint>
            <Time>2019-08-02T09:37:43.000Z</Time>
            <Position>
              <LatitudeDegrees>40.8742728643119335174560546875</LatitudeDegrees>
              <LongitudeDegrees>-4.054587073624134063720703125</LongitudeDegrees>
            </Position>
            <AltitudeMeters>1361.5999755859375</AltitudeMeters>
            <DistanceMeters>96993.191642295</DistanceMeters>
          </Trackpoint>
          <Trackpoint>
            <Time>2019-08-02T09:37:46.000Z</Time>
            <Position>
              <LatitudeDegrees>40.87432600557804107666015625</LatitudeDegrees>
              <LongitudeDegrees>-4.05451901257038116455078125</LongitudeDegrees>
            </Position>
            <AltitudeMeters>1360.5999755859375</AltitudeMeters>
            <DistanceMeters>97001.425585089</DistanceMeters>
          </Trackpoint>
          <Trackpoint>
            <Time>2019-08-02T09:37:47.000Z</Time>
            <Position>
              <LatitudeDegrees>40.87435760535299777984619140625</LatitudeDegrees>
              <LongitudeDegrees>-4.05449713580310344696044921875</LongitudeDegrees>
            </Position>
            <AltitudeMeters>1360.5999755859375</AltitudeMeters>
            <DistanceMeters>97005.396292013</DistanceMeters>
          </Trackpoint>
          <Trackpoint>
            <Time>2019-08-02T09:37:50.000Z</Time>
            <Position>
              <LatitudeDegrees>40.874467156827449798583984375</LatitudeDegrees>
              <LongitudeDegrees>-4.05446612276136875152587890625</LongitudeDegrees>
            </Position>
            <AltitudeMeters>1359.5999755859375</AltitudeMeters>
            <DistanceMeters>97017.865448208</DistanceMeters>
          </Trackpoint>
          <Trackpoint>
            <Time>2019-08-02T09:37:53.000Z</Time>
            <Position>
              <LatitudeDegrees>40.874589197337627410888671875</LatitudeDegrees>
              <LongitudeDegrees>-4.05447517521679401397705078125</LongitudeDegrees>
            </Position>
            <AltitudeMeters>1358.199951171875</AltitudeMeters>
            <DistanceMeters>97031.469875678</DistanceMeters>
          </Trackpoint>
          <Trackpoint>
            <Time>2019-08-02T09:37:55.000Z</Time>
            <Position>
              <LatitudeDegrees>40.87465499527752399444580078125</LatitudeDegrees>
              <LongitudeDegrees>-4.05449344776570796966552734375</LongitudeDegrees>
            </Position>
            <AltitudeMeters>1357.199951171875</AltitudeMeters>
            <DistanceMeters>97038.953493393</DistanceMeters>
          </Trackpoint>
          <Trackpoint>
            <Time>2019-08-02T09:38:00.000Z</Time>
            <Position>
              <LatitudeDegrees>40.8748019300401210784912109375</LatitudeDegrees>
              <LongitudeDegrees>-4.0544377081096172332763671875</LongitudeDegrees>
            </Position>
            <AltitudeMeters>1356.4000244140625</AltitudeMeters>
            <DistanceMeters>97055.967256366</DistanceMeters>
          </Trackpoint>
          <Trackpoint>
            <Time>2019-08-02T09:38:01.000Z</Time>
            <Position>
              <LatitudeDegrees>40.87482045404613018035888671875</LatitudeDegrees>
              <LongitudeDegrees>-4.05443628318607807159423828125</LongitudeDegrees>
            </Position>
            <AltitudeMeters>1355.800048828125</AltitudeMeters>
            <DistanceMeters>97058.031765044</DistanceMeters>
          </Trackpoint>
          <Trackpoint>
            <Time>2019-08-02T09:38:04.000Z</Time>
            <Position>
              <LatitudeDegrees>40.87490393780171871185302734375</LatitudeDegrees>
              <LongitudeDegrees>-4.05445329844951629638671875</LongitudeDegrees>
            </Position>
            <AltitudeMeters>1355.199951171875</AltitudeMeters>
            <DistanceMeters>97067.433168568</DistanceMeters>
          </Trackpoint>
          <Trackpoint>
            <Time>2019-08-02T09:38:07.000Z</Time>
            <Position>
              <LatitudeDegrees>40.87499312125146389007568359375</LatitudeDegrees>
              <LongitudeDegrees>-4.05446444638073444366455078125</LongitudeDegrees>
            </Position>
            <AltitudeMeters>1353.800048828125</AltitudeMeters>
            <DistanceMeters>97077.403277971</DistanceMeters>
          </Trackpoint>
          <Trackpoint>
            <Time>2019-08-02T09:38:11.000Z</Time>
            <Position>
              <LatitudeDegrees>40.87511046789586544036865234375</LatitudeDegrees>
              <LongitudeDegrees>-4.05446863733232021331787109375</LongitudeDegrees>
            </Position>
            <AltitudeMeters>1353</AltitudeMeters>
            <DistanceMeters>97090.46901925</DistanceMeters>
          </Trackpoint>
          <Trackpoint>
            <Time>2019-08-02T09:38:15.000Z</Time>
            <Position>
              <LatitudeDegrees>40.8752118051052093505859375</LatitudeDegrees>
              <LongitudeDegrees>-4.054454974830150604248046875</LongitudeDegrees>
            </Position>
            <AltitudeMeters>1352</AltitudeMeters>
            <DistanceMeters>97101.806307643</DistanceMeters>
          </Trackpoint>
          <Trackpoint>
            <Time>2019-08-02T09:38:17.000Z</Time>
            <Position>
              <LatitudeDegrees>40.87524868547916412353515625</LatitudeDegrees>
              <LongitudeDegrees>-4.05444282107055187225341796875</LongitudeDegrees>
            </Position>
            <AltitudeMeters>1351</AltitudeMeters>
            <DistanceMeters>97106.036864522</DistanceMeters>
          </Trackpoint>
          <Trackpoint>
            <Time>2019-08-02T09:38:20.000Z</Time>
            <Position>
              <LatitudeDegrees>40.8752991445362567901611328125</LatitudeDegrees>
              <LongitudeDegrees>-4.05442270450294017791748046875</LongitudeDegrees>
            </Position>
            <AltitudeMeters>1349.800048828125</AltitudeMeters>
            <DistanceMeters>97111.90240723</DistanceMeters>
          </Trackpoint>
          <Trackpoint>
            <Time>2019-08-02T09:38:23.000Z</Time>
            <Position>
              <LatitudeDegrees>40.8753491006791591644287109375</LatitudeDegrees>
              <LongitudeDegrees>-4.0544070303440093994140625</LongitudeDegrees>
            </Position>
            <AltitudeMeters>1348.5999755859375</AltitudeMeters>
            <DistanceMeters>97117.616666273</DistanceMeters>
          </Trackpoint>
          <Trackpoint>
            <Time>2019-08-02T09:38:27.000Z</Time>
            <Position>
              <LatitudeDegrees>40.8754131384193897247314453125</LatitudeDegrees>
              <LongitudeDegrees>-4.05435673892498016357421875</LongitudeDegrees>
            </Position>
            <AltitudeMeters>1347.4000244140625</AltitudeMeters>
            <DistanceMeters>97125.906351535</DistanceMeters>
          </Trackpoint>
          <Trackpoint>
            <Time>2019-08-02T09:38:30.000Z</Time>
            <Position>
              <LatitudeDegrees>40.8754714764654636383056640625</LatitudeDegrees>
              <LongitudeDegrees>-4.05432497151196002960205078125</LongitudeDegrees>
            </Position>
            <AltitudeMeters>1346.199951171875</AltitudeMeters>
            <DistanceMeters>97132.928047725</DistanceMeters>
          </Trackpoint>
          <Trackpoint>
            <Time>2019-08-02T09:38:33.000Z</Time>
            <Position>
              <LatitudeDegrees>40.875532664358615875244140625</LatitudeDegrees>
              <LongitudeDegrees>-4.054290354251861572265625</LongitudeDegrees>
            </Position>
            <AltitudeMeters>1345</AltitudeMeters>
            <DistanceMeters>97140.335256678</DistanceMeters>
          </Trackpoint>
          <Trackpoint>
            <Time>2019-08-02T09:38:36.000Z</Time>
            <Position>
              <LatitudeDegrees>40.8755871467292308807373046875</LatitudeDegrees>
              <LongitudeDegrees>-4.05425003729760646820068359375</LongitudeDegrees>
            </Position>
            <AltitudeMeters>1343.800048828125</AltitudeMeters>
            <DistanceMeters>97147.284562314</DistanceMeters>
          </Trackpoint>
          <Trackpoint>
            <Time>2019-08-02T09:38:39.000Z</Time>
            <Position>
              <LatitudeDegrees>40.87565344758331775665283203125</LatitudeDegrees>
              <LongitudeDegrees>-4.054200835525989532470703125</LongitudeDegrees>
            </Position>
            <AltitudeMeters>1342.800048828125</AltitudeMeters>
            <DistanceMeters>97155.746743251</DistanceMeters>
          </Trackpoint>
          <Trackpoint>
            <Time>2019-08-02T09:38:42.000Z</Time>
            <Position>
              <LatitudeDegrees>40.8757098577916622161865234375</LatitudeDegrees>
              <LongitudeDegrees>-4.054126404225826263427734375</LongitudeDegrees>
            </Position>
            <AltitudeMeters>1341.4000244140625</AltitudeMeters>
            <DistanceMeters>97164.615846695</DistanceMeters>
          </Trackpoint>
          <Trackpoint>
            <Time>2019-08-02T09:38:45.000Z</Time>
            <Position>
              <LatitudeDegrees>40.8757616579532623291015625</LatitudeDegrees>
              <LongitudeDegrees>-4.054068736732006072998046875</LongitudeDegrees>
            </Position>
            <AltitudeMeters>1340.4000244140625</AltitudeMeters>
            <DistanceMeters>97172.152369821</DistanceMeters>
          </Trackpoint>
          <Trackpoint>
            <Time>2019-08-02T09:38:47.000Z</Time>
            <Position>
              <LatitudeDegrees>40.8757712133228778839111328125</LatitudeDegrees>
              <LongitudeDegrees>-4.05406571924686431884765625</LongitudeDegrees>
            </Position>
            <AltitudeMeters>1339.4000244140625</AltitudeMeters>
            <DistanceMeters>97173.252383568</DistanceMeters>
          </Trackpoint>
          <Trackpoint>
            <Time>2019-08-02T09:38:54.000Z</Time>
            <Position>
              <LatitudeDegrees>40.87586115114390850067138671875</LatitudeDegrees>
              <LongitudeDegrees>-4.054029174149036407470703125</LongitudeDegrees>
            </Position>
            <AltitudeMeters>1337.5999755859375</AltitudeMeters>
            <DistanceMeters>97183.724310245</DistanceMeters>
          </Trackpoint>
          <Trackpoint>
            <Time>2019-08-02T09:38:58.000Z</Time>
            <Position>
              <LatitudeDegrees>40.87598352693021297454833984375</LatitudeDegrees>
              <LongitudeDegrees>-4.05397729016840457916259765625</LongitudeDegrees>
            </Position>
            <AltitudeMeters>1336.4000244140625</AltitudeMeters>
            <DistanceMeters>97198.02733027</DistanceMeters>
          </Trackpoint>
          <Trackpoint>
            <Time>2019-08-02T09:39:00.000Z</Time>
            <Position>
              <LatitudeDegrees>40.87606214918196201324462890625</LatitudeDegrees>
              <LongitudeDegrees>-4.05394191853702068328857421875</LongitudeDegrees>
            </Position>
            <AltitudeMeters>1335.5999755859375</AltitudeMeters>
            <DistanceMeters>97207.270357547</DistanceMeters>
          </Trackpoint>
          <Trackpoint>
            <Time>2019-08-02T09:39:01.000Z</Time>
            <Position>
              <LatitudeDegrees>40.8761007897555828094482421875</LatitudeDegrees>
              <LongitudeDegrees>-4.0539203770458698272705078125</LongitudeDegrees>
            </Position>
            <AltitudeMeters>1335.4000244140625</AltitudeMeters>
            <DistanceMeters>97211.937320626</DistanceMeters>
          </Trackpoint>
          <Trackpoint>
            <Time>2019-08-02T09:39:02.000Z</Time>
            <Position>
              <LatitudeDegrees>40.87614362128078937530517578125</LatitudeDegrees>
              <LongitudeDegrees>-4.05390118248760700225830078125</LongitudeDegrees>
            </Position>
            <AltitudeMeters>1335</AltitudeMeters>
            <DistanceMeters>97216.971046334</DistanceMeters>
          </Trackpoint>
          <Trackpoint>
            <Time>2019-08-02T09:39:04.000Z</Time>
            <Position>
              <LatitudeDegrees>40.8762426115572452545166015625</LatitudeDegrees>
              <LongitudeDegrees>-4.05387100763618946075439453125</LongitudeDegrees>
            </Position>
            <AltitudeMeters>1334.199951171875</AltitudeMeters>
            <DistanceMeters>97228.277228808</DistanceMeters>
          </Trackpoint>
          <Trackpoint>
            <Time>2019-08-02T09:39:05.000Z</Time>
            <Position>
              <LatitudeDegrees>40.87628804147243499755859375</LatitudeDegrees>
              <LongitudeDegrees>-4.05386111699044704437255859375</LongitudeDegrees>
            </Position>
            <AltitudeMeters>1333.5999755859375</AltitudeMeters>
            <DistanceMeters>97233.401627534</DistanceMeters>
          </Trackpoint>
          <Trackpoint>
            <Time>2019-08-02T09:39:07.000Z</Time>
            <Position>
              <LatitudeDegrees>40.876371860504150390625</LatitudeDegrees>
              <LongitudeDegrees>-4.0538556687533855438232421875</LongitudeDegrees>
            </Position>
            <AltitudeMeters>1332.800048828125</AltitudeMeters>
            <DistanceMeters>97242.742323364</DistanceMeters>
          </Trackpoint>
          <Trackpoint>
            <Time>2019-08-02T09:39:11.000Z</Time>
            <Position>
              <LatitudeDegrees>40.8765537478029727935791015625</LatitudeDegrees>
              <LongitudeDegrees>-4.053900428116321563720703125</LongitudeDegrees>
            </Position>
            <AltitudeMeters>1331.800048828125</AltitudeMeters>
            <DistanceMeters>97263.333978701</DistanceMeters>
          </Trackpoint>
          <Trackpoint>
            <Time>2019-08-02T09:39:14.000Z</Time>
            <Position>
              <LatitudeDegrees>40.87668207474052906036376953125</LatitudeDegrees>
              <LongitudeDegrees>-4.0539428405463695526123046875</LongitudeDegrees>
            </Position>
            <AltitudeMeters>1330.4000244140625</AltitudeMeters>
            <DistanceMeters>97278.056067371</DistanceMeters>
          </Trackpoint>
          <Trackpoint>
            <Time>2019-08-02T09:39:17.000Z</Time>
            <Position>
              <LatitudeDegrees>40.8768109045922756195068359375</LatitudeDegrees>
              <LongitudeDegrees>-4.05399908311665058135986328125</LongitudeDegrees>
            </Position>
            <AltitudeMeters>1329.199951171875</AltitudeMeters>
            <DistanceMeters>97293.156048504</DistanceMeters>
          </Trackpoint>
          <Trackpoint>
            <Time>2019-08-02T09:39:18.000Z</Time>
            <Position>
              <LatitudeDegrees>40.87685222737491130828857421875</LatitudeDegrees>
              <LongitudeDegrees>-4.05401249416172504425048828125</LongitudeDegrees>
            </Position>
            <AltitudeMeters>1328.4000244140625</AltitudeMeters>
            <DistanceMeters>97297.891202124</DistanceMeters>
          </Trackpoint>
          <Trackpoint>
            <Time>2019-08-02T09:39:19.000Z</Time>
            <Position>
              <LatitudeDegrees>40.876893214881420135498046875</LatitudeDegrees>
              <LongitudeDegrees>-4.054027162492275238037109375</LongitudeDegrees>
            </Position>
            <AltitudeMeters>1328</AltitudeMeters>
            <DistanceMeters>97302.617766323</DistanceMeters>
          </Trackpoint>
          <Trackpoint>
            <Time>2019-08-02T09:39:23.000Z</Time>
            <Position>
              <LatitudeDegrees>40.8770435862243175506591796875</LatitudeDegrees>
              <LongitudeDegrees>-4.05414140783250331878662109375</LongitudeDegrees>
            </Position>
            <AltitudeMeters>1327</AltitudeMeters>
            <DistanceMeters>97321.919186835</DistanceMeters>
          </Trackpoint>
          <Trackpoint>
            <Time>2019-08-02T09:39:25.000Z</Time>
            <Position>
              <LatitudeDegrees>40.877103768289089202880859375</LatitudeDegrees>
              <LongitudeDegrees>-4.0542409010231494903564453125</LongitudeDegrees>
            </Position>
            <AltitudeMeters>1326</AltitudeMeters>
            <DistanceMeters>97332.641636801</DistanceMeters>
          </Trackpoint>
          <Trackpoint>
            <Time>2019-08-02T09:39:26.000Z</Time>
            <Position>
              <LatitudeDegrees>40.877134613692760467529296875</LatitudeDegrees>
              <LongitudeDegrees>-4.0542935393750667572021484375</LongitudeDegrees>
            </Position>
            <AltitudeMeters>1325.4000244140625</AltitudeMeters>
            <DistanceMeters>97338.245796495</DistanceMeters>
          </Trackpoint>
          <Trackpoint>
            <Time>2019-08-02T09:39:28.000Z</Time>
            <Position>
              <LatitudeDegrees>40.87718792259693145751953125</LatitudeDegrees>
              <LongitudeDegrees>-4.054397307336330413818359375</LongitudeDegrees>
            </Position>
            <AltitudeMeters>1324.800048828125</AltitudeMeters>
            <DistanceMeters>97348.80360231</DistanceMeters>
          </Trackpoint>
          <Trackpoint>
            <Time>2019-08-02T09:39:29.000Z</Time>
            <Position>
              <LatitudeDegrees>40.87720946408808231353759765625</LatitudeDegrees>
              <LongitudeDegrees>-4.05444868840277194976806640625</LongitudeDegrees>
            </Position>
            <AltitudeMeters>1324.4000244140625</AltitudeMeters>
            <DistanceMeters>97353.74864498</DistanceMeters>
          </Trackpoint>
          <Trackpoint>
            <Time>2019-08-02T09:39:30.000Z</Time>
            <Position>
              <LatitudeDegrees>40.87723393924534320831298828125</LatitudeDegrees>
              <LongitudeDegrees>-4.05449814163148403167724609375</LongitudeDegrees>
            </Position>
            <AltitudeMeters>1324</AltitudeMeters>
            <DistanceMeters>97358.722819229</DistanceMeters>
          </Trackpoint>
          <Trackpoint>
            <Time>2019-08-02T09:39:33.000Z</Time>
            <Position>
              <LatitudeDegrees>40.87732379324734210968017578125</LatitudeDegrees>
              <LongitudeDegrees>-4.05458263121545314788818359375</LongitudeDegrees>
            </Position>
            <AltitudeMeters>1323.199951171875</AltitudeMeters>
            <DistanceMeters>97370.993781893</DistanceMeters>
          </Trackpoint>
          <Trackpoint>
            <Time>2019-08-02T09:39:35.000Z</Time>
            <Position>
              <LatitudeDegrees>40.8773976378142833709716796875</LatitudeDegrees>
              <LongitudeDegrees>-4.05462990514934062957763671875</LongitudeDegrees>
            </Position>
            <AltitudeMeters>1323</AltitudeMeters>
            <DistanceMeters>97380.125250881</DistanceMeters>
          </Trackpoint>
          <Trackpoint>
            <Time>2019-08-02T09:39:36.000Z</Time>
            <Position>
              <LatitudeDegrees>40.87743644602596759796142578125</LatitudeDegrees>
              <LongitudeDegrees>-4.0546599961817264556884765625</LongitudeDegrees>
            </Position>
            <AltitudeMeters>1322.800048828125</AltitudeMeters>
            <DistanceMeters>97385.131995553</DistanceMeters>
          </Trackpoint>
          <Trackpoint>
            <Time>2019-08-02T09:39:38.000Z</Time>
            <Position>
              <LatitudeDegrees>40.87750039994716644287109375</LatitudeDegrees>
              <LongitudeDegrees>-4.05472462065517902374267578125</LongitudeDegrees>
            </Position>
            <AltitudeMeters>1322.4000244140625</AltitudeMeters>
            <DistanceMeters>97394.089744114</DistanceMeters>
          </Trackpoint>
          <Trackpoint>
            <Time>2019-08-02T09:39:41.000Z</Time>
            <Position>
              <LatitudeDegrees>40.877616740763187408447265625</LatitudeDegrees>
              <LongitudeDegrees>-4.05476569198071956634521484375</LongitudeDegrees>
            </Position>
            <AltitudeMeters>1321.199951171875</AltitudeMeters>
            <DistanceMeters>97407.492217043</DistanceMeters>
          </Trackpoint>
          <Trackpoint>
            <Time>2019-08-02T09:39:45.000Z</Time>
            <Position>
              <LatitudeDegrees>40.8777758292853832244873046875</LatitudeDegrees>
              <LongitudeDegrees>-4.05482687987387180328369140625</LongitudeDegrees>
            </Position>
            <AltitudeMeters>1320</AltitudeMeters>
            <DistanceMeters>97425.932542112</DistanceMeters>
          </Trackpoint>
          <Trackpoint>
            <Time>2019-08-02T09:39:46.000Z</Time>
            <Position>
              <LatitudeDegrees>40.87780751287937164306640625</LatitudeDegrees>
              <LongitudeDegrees>-4.05483123846352100372314453125</LongitudeDegrees>
            </Position>
            <AltitudeMeters>1319.5999755859375</AltitudeMeters>
            <DistanceMeters>97429.477942853</DistanceMeters>
          </Trackpoint>
          <Trackpoint>
            <Time>2019-08-02T09:39:50.000Z</Time>
            <Position>
              <LatitudeDegrees>40.87791086174547672271728515625</LatitudeDegrees>
              <LongitudeDegrees>-4.0548832900822162628173828125</LongitudeDegrees>
            </Position>
            <AltitudeMeters>1319</AltitudeMeters>
            <DistanceMeters>97441.786745498</DistanceMeters>
          </Trackpoint>
          <Trackpoint>
            <Time>2019-08-02T09:39:53.000Z</Time>
            <Position>
              <LatitudeDegrees>40.87799032218754291534423828125</LatitudeDegrees>
              <LongitudeDegrees>-4.0549258701503276824951171875</LongitudeDegrees>
            </Position>
            <AltitudeMeters>1317.5999755859375</AltitudeMeters>
            <DistanceMeters>97451.329244692</DistanceMeters>
          </Trackpoint>
          <Trackpoint>
            <Time>2019-08-02T09:39:54.000Z</Time>
            <Position>
              <LatitudeDegrees>40.87801127694547176361083984375</LatitudeDegrees>
              <LongitudeDegrees>-4.05494087375700473785400390625</LongitudeDegrees>
            </Position>
            <AltitudeMeters>1317.199951171875</AltitudeMeters>
            <DistanceMeters>97453.981494595</DistanceMeters>
          </Trackpoint>
          <Trackpoint>
            <Time>2019-08-02T09:39:56.000Z</Time>
            <Position>
              <LatitudeDegrees>40.87805100716650485992431640625</LatitudeDegrees>
              <LongitudeDegrees>-4.05496484600007534027099609375</LongitudeDegrees>
            </Position>
            <AltitudeMeters>1316.5999755859375</AltitudeMeters>
            <DistanceMeters>97458.841811455</DistanceMeters>
          </Trackpoint>
          <Trackpoint>
            <Time>2019-08-02T09:39:59.000Z</Time>
            <Position>
              <LatitudeDegrees>40.87812962941825389862060546875</LatitudeDegrees>
              <LongitudeDegrees>-4.05497188679873943328857421875</LongitudeDegrees>
            </Position>
            <AltitudeMeters>1315.4000244140625</AltitudeMeters>
            <DistanceMeters>97467.612627907</DistanceMeters>
          </Trackpoint>
          <Trackpoint>
            <Time>2019-08-02T09:40:00.000Z</Time>
            <Position>
              <LatitudeDegrees>40.87816097773611545562744140625</LatitudeDegrees>
              <LongitudeDegrees>-4.05498328618705272674560546875</LongitudeDegrees>
            </Position>
            <AltitudeMeters>1315.199951171875</AltitudeMeters>
            <DistanceMeters>97471.231137385</DistanceMeters>
          </Trackpoint>
          <Trackpoint>
            <Time>2019-08-02T09:40:01.000Z</Time>
            <Position>
              <LatitudeDegrees>40.878192074596881866455078125</LatitudeDegrees>
              <LongitudeDegrees>-4.054998792707920074462890625</LongitudeDegrees>
            </Position>
            <AltitudeMeters>1314.5999755859375</AltitudeMeters>
            <DistanceMeters>97474.931082775</DistanceMeters>
          </Trackpoint>
          <Trackpoint>
            <Time>2019-08-02T09:40:05.000Z</Time>
            <Position>
              <LatitudeDegrees>40.8783142827451229095458984375</LatitudeDegrees>
              <LongitudeDegrees>-4.05504916794598102569580078125</LongitudeDegrees>
            </Position>
            <AltitudeMeters>1313.199951171875</AltitudeMeters>
            <DistanceMeters>97489.178753408</DistanceMeters>
          </Trackpoint>
          <Trackpoint>
            <Time>2019-08-02T09:40:08.000Z</Time>
            <Position>
              <LatitudeDegrees>40.87841243483126163482666015625</LatitudeDegrees>
              <LongitudeDegrees>-4.05509375967085361480712890625</LongitudeDegrees>
            </Position>
            <AltitudeMeters>1312</AltitudeMeters>
            <DistanceMeters>97500.729874978</DistanceMeters>
          </Trackpoint>
          <Trackpoint>
            <Time>2019-08-02T09:40:10.000Z</Time>
            <Position>
              <LatitudeDegrees>40.87849055416882038116455078125</LatitudeDegrees>
              <LongitudeDegrees>-4.055150337517261505126953125</LongitudeDegrees>
            </Position>
            <AltitudeMeters>1311.199951171875</AltitudeMeters>
            <DistanceMeters>97510.642760121</DistanceMeters>
          </Trackpoint>
          <Trackpoint>
            <Time>2019-08-02T09:40:11.000Z</Time>
            <Position>
              <LatitudeDegrees>40.8785285241901874542236328125</LatitudeDegrees>
              <LongitudeDegrees>-4.05519501306116580963134765625</LongitudeDegrees>
            </Position>
            <AltitudeMeters>1310.5999755859375</AltitudeMeters>
            <DistanceMeters>97516.298246905</DistanceMeters>
          </Trackpoint>
          <Trackpoint>
            <Time>2019-08-02T09:40:13.000Z</Time>
            <Position>
              <LatitudeDegrees>40.8786049671471118927001953125</LatitudeDegrees>
              <LongitudeDegrees>-4.05529341660439968109130859375</LongitudeDegrees>
            </Position>
            <AltitudeMeters>1309.5999755859375</AltitudeMeters>
            <DistanceMeters>97528.17088323</DistanceMeters>
          </Trackpoint>
          <Trackpoint>
            <Time>2019-08-02T09:40:16.000Z</Time>
            <Position>
              <LatitudeDegrees>40.87873111478984355926513671875</LatitudeDegrees>
              <LongitudeDegrees>-4.05541964806616306304931640625</LongitudeDegrees>
            </Position>
            <AltitudeMeters>1308.4000244140625</AltitudeMeters>
            <DistanceMeters>97545.777258898</DistanceMeters>
          </Trackpoint>
          <Trackpoint>
            <Time>2019-08-02T09:40:17.000Z</Time>
            <Position>
              <LatitudeDegrees>40.8787682466208934783935546875</LatitudeDegrees>
              <LongitudeDegrees>-4.05546507798135280609130859375</LongitudeDegrees>
            </Position>
            <AltitudeMeters>1308</AltitudeMeters>
            <DistanceMeters>97551.40714063</DistanceMeters>
          </Trackpoint>
          <Trackpoint>
            <Time>2019-08-02T09:40:19.000Z</Time>
            <Position>
              <LatitudeDegrees>40.878808982670307159423828125</LatitudeDegrees>
              <LongitudeDegrees>-4.05556666664779186248779296875</LongitudeDegrees>
            </Position>
            <AltitudeMeters>1307</AltitudeMeters>
            <DistanceMeters>97561.08401475</DistanceMeters>
          </Trackpoint>
          <Trackpoint>
            <Time>2019-08-02T09:40:21.000Z</Time>
            <Position>
              <LatitudeDegrees>40.8788408339023590087890625</LatitudeDegrees>
              <LongitudeDegrees>-4.05565635301172733306884765625</LongitudeDegrees>
            </Position>
            <AltitudeMeters>1306.5999755859375</AltitudeMeters>
            <DistanceMeters>97569.422575094</DistanceMeters>
          </Trackpoint>
          <Trackpoint>
            <Time>2019-08-02T09:40:24.000Z</Time>
            <Position>
              <LatitudeDegrees>40.87888215668499469757080078125</LatitudeDegrees>
              <LongitudeDegrees>-4.05576196499168872833251953125</LongitudeDegrees>
            </Position>
            <AltitudeMeters>1306</AltitudeMeters>
            <DistanceMeters>97579.430201078</DistanceMeters>
          </Trackpoint>
          <Trackpoint>
            <Time>2019-08-02T09:40:29.000Z</Time>
            <Position>
              <LatitudeDegrees>40.87894476950168609619140625</LatitudeDegrees>
              <LongitudeDegrees>-4.05589557252824306488037109375</LongitudeDegrees>
            </Position>
            <AltitudeMeters>1305.4000244140625</AltitudeMeters>
            <DistanceMeters>97592.658383921</DistanceMeters>
          </Trackpoint>
          <Trackpoint>
            <Time>2019-08-02T09:40:30.000Z</Time>
            <Position>
              <LatitudeDegrees>40.8789556659758090972900390625</LatitudeDegrees>
              <LongitudeDegrees>-4.055909402668476104736328125</LongitudeDegrees>
            </Position>
            <AltitudeMeters>1305.199951171875</AltitudeMeters>
            <DistanceMeters>97594.336890356</DistanceMeters>
          </Trackpoint>
          <Trackpoint>
            <Time>2019-08-02T09:40:33.000Z</Time>
            <Position>
              <LatitudeDegrees>40.87896798737347126007080078125</LatitudeDegrees>
              <LongitudeDegrees>-4.055931530892848968505859375</LongitudeDegrees>
            </Position>
            <AltitudeMeters>1304.4000244140625</AltitudeMeters>
            <DistanceMeters>97596.648990106</DistanceMeters>
          </Trackpoint>
          <Trackpoint>
            <Time>2019-08-02T09:41:12.000Z</Time>
            <Position>
              <LatitudeDegrees>40.87905800901353359222412109375</LatitudeDegrees>
              <LongitudeDegrees>-4.0561224706470966339111328125</LongitudeDegrees>
            </Position>
            <AltitudeMeters>1292.4000244140625</AltitudeMeters>
            <DistanceMeters>97615.585313286</DistanceMeters>
          </Trackpoint>
          <Trackpoint>
            <Time>2019-08-02T09:41:17.000Z</Time>
            <Position>
              <LatitudeDegrees>40.879123471677303314208984375</LatitudeDegrees>
              <LongitudeDegrees>-4.05625683255493640899658203125</LongitudeDegrees>
            </Position>
            <AltitudeMeters>1291.5999755859375</AltitudeMeters>
            <DistanceMeters>97629.036880919</DistanceMeters>
          </Trackpoint>
          <Trackpoint>
            <Time>2019-08-02T09:41:18.000Z</Time>
            <Position>
              <LatitudeDegrees>40.8791380561888217926025390625</LatitudeDegrees>
              <LongitudeDegrees>-4.05628390610218048095703125</LongitudeDegrees>
            </Position>
            <AltitudeMeters>1291.4000244140625</AltitudeMeters>
            <DistanceMeters>97631.836542748</DistanceMeters>
          </Trackpoint>
          <Trackpoint>
            <Time>2019-08-02T09:41:22.000Z</Time>
            <Position>
              <LatitudeDegrees>40.87921860627830028533935546875</LatitudeDegrees>
              <LongitudeDegrees>-4.05640125274658203125</LongitudeDegrees>
            </Position>
            <AltitudeMeters>1290.199951171875</AltitudeMeters>
            <DistanceMeters>97645.174177693</DistanceMeters>
          </Trackpoint>
          <Trackpoint>
            <Time>2019-08-02T09:41:25.000Z</Time>
            <Position>
              <LatitudeDegrees>40.87928012944757938385009765625</LatitudeDegrees>
              <LongitudeDegrees>-4.05645850114524364471435546875</LongitudeDegrees>
            </Position>
            <AltitudeMeters>1289.199951171875</AltitudeMeters>
            <DistanceMeters>97653.546780839</DistanceMeters>
          </Trackpoint>
          <Trackpoint>
            <Time>2019-08-02T09:41:30.000Z</Time>
            <Position>
              <LatitudeDegrees>40.87938062846660614013671875</LatitudeDegrees>
              <LongitudeDegrees>-4.056561850011348724365234375</LongitudeDegrees>
            </Position>
            <AltitudeMeters>1288</AltitudeMeters>
            <DistanceMeters>97667.715643161</DistanceMeters>
          </Trackpoint>
          <Trackpoint>
            <Time>2019-08-02T09:41:34.000Z</Time>
            <Position>
              <LatitudeDegrees>40.8794877491891384124755859375</LatitudeDegrees>
              <LongitudeDegrees>-4.05668556690216064453125</LongitudeDegrees>
            </Position>
            <AltitudeMeters>1286.5999755859375</AltitudeMeters>
            <DistanceMeters>97683.544367084</DistanceMeters>
          </Trackpoint>
          <Trackpoint>
            <Time>2019-08-02T09:41:35.000Z</Time>
            <Position>
              <LatitudeDegrees>40.87951934896409511566162109375</LatitudeDegrees>
              <LongitudeDegrees>-4.05672387219965457916259765625</LongitudeDegrees>
            </Position>
            <AltitudeMeters>1286.4000244140625</AltitudeMeters>
            <DistanceMeters>97688.316562888</DistanceMeters>
          </Trackpoint>
          <Trackpoint>
            <Time>2019-08-02T09:41:38.000Z</Time>
            <Position>
              <LatitudeDegrees>40.87963300757110118865966796875</LatitudeDegrees>
              <LongitudeDegrees>-4.056825377047061920166015625</LongitudeDegrees>
            </Position>
            <AltitudeMeters>1285.5999755859375</AltitudeMeters>
            <DistanceMeters>97703.58129651</DistanceMeters>
          </Trackpoint>
          <Trackpoint>
            <Time>2019-08-02T09:41:39.000Z</Time>
            <Position>
              <LatitudeDegrees>40.8796734921634197235107421875</LatitudeDegrees>
              <LongitudeDegrees>-4.0568639338016510009765625</LongitudeDegrees>
            </Position>
            <AltitudeMeters>1285.199951171875</AltitudeMeters>
            <DistanceMeters>97709.134467771</DistanceMeters>
          </Trackpoint>
          <Trackpoint>
            <Time>2019-08-02T09:41:42.000Z</Time>
            <Position>
              <LatitudeDegrees>40.87978555820882320404052734375</LatitudeDegrees>
              <LongitudeDegrees>-4.05698924325406551361083984375</LongitudeDegrees>
            </Position>
            <AltitudeMeters>1284.4000244140625</AltitudeMeters>
            <DistanceMeters>97725.468009287</DistanceMeters>
          </Trackpoint>
          <Trackpoint>
            <Time>2019-08-02T09:41:43.000Z</Time>
            <Position>
              <LatitudeDegrees>40.87982160039246082305908203125</LatitudeDegrees>
              <LongitudeDegrees>-4.0570297278463840484619140625</LongitudeDegrees>
            </Position>
            <AltitudeMeters>1284.199951171875</AltitudeMeters>
            <DistanceMeters>97730.730636431</DistanceMeters>
          </Trackpoint>
          <Trackpoint>
            <Time>2019-08-02T09:41:47.000Z</Time>
            <Position>
              <LatitudeDegrees>40.87998856790363788604736328125</LatitudeDegrees>
              <LongitudeDegrees>-4.05716341920197010040283203125</LongitudeDegrees>
            </Position>
            <AltitudeMeters>1283.4000244140625</AltitudeMeters>
            <DistanceMeters>97752.454583013</DistanceMeters>
          </Trackpoint>
          <Trackpoint>
            <Time>2019-08-02T09:41:56.000Z</Time>
            <Position>
              <LatitudeDegrees>40.88056943379342555999755859375</LatitudeDegrees>
              <LongitudeDegrees>-4.05739056877791881561279296875</LongitudeDegrees>
            </Position>
            <AltitudeMeters>1282.4000244140625</AltitudeMeters>
            <DistanceMeters>97819.872872576</DistanceMeters>
          </Trackpoint>
          <Trackpoint>
            <Time>2019-08-02T09:41:59.000Z</Time>
            <Position>
              <LatitudeDegrees>40.8807832561433315277099609375</LatitudeDegrees>
              <LongitudeDegrees>-4.05746701173484325408935546875</LongitudeDegrees>
            </Position>
            <AltitudeMeters>1282</AltitudeMeters>
            <DistanceMeters>97844.525849984</DistanceMeters>
          </Trackpoint>
          <Trackpoint>
            <Time>2019-08-02T09:42:04.000Z</Time>
            <Position>
              <LatitudeDegrees>40.88106547482311725616455078125</LatitudeDegrees>
              <LongitudeDegrees>-4.05758745968341827392578125</LongitudeDegrees>
            </Position>
            <AltitudeMeters>1281.199951171875</AltitudeMeters>
            <DistanceMeters>97877.532281819</DistanceMeters>
          </Trackpoint>
          <Trackpoint>
            <Time>2019-08-02T09:42:14.000Z</Time>
            <Position>
              <LatitudeDegrees>40.8816103823482990264892578125</LatitudeDegrees>
              <LongitudeDegrees>-4.05785039998590946197509765625</LongitudeDegrees>
            </Position>
            <AltitudeMeters>1280.5999755859375</AltitudeMeters>
            <DistanceMeters>97942.091867813</DistanceMeters>
          </Trackpoint>
          <Trackpoint>
            <Time>2019-08-02T09:42:24.000Z</Time>
            <Position>
              <LatitudeDegrees>40.88199921883642673492431640625</LatitudeDegrees>
              <LongitudeDegrees>-4.05811208300292491912841796875</LongitudeDegrees>
            </Position>
            <AltitudeMeters>1280.199951171875</AltitudeMeters>
            <DistanceMeters>97990.650425875</DistanceMeters>
          </Trackpoint>
          <Trackpoint>
            <Time>2019-08-02T09:42:29.000Z</Time>
            <Position>
              <LatitudeDegrees>40.88222854770720005035400390625</LatitudeDegrees>
              <LongitudeDegrees>-4.05826077796518802642822265625</LongitudeDegrees>
            </Position>
            <AltitudeMeters>1279.4000244140625</AltitudeMeters>
            <DistanceMeters>98019.077235066</DistanceMeters>
          </Trackpoint>
          <Trackpoint>
            <Time>2019-08-02T09:42:33.000Z</Time>
            <Position>
              <LatitudeDegrees>40.8824556134641170501708984375</LatitudeDegrees>
              <LongitudeDegrees>-4.058416597545146942138671875</LongitudeDegrees>
            </Position>
            <AltitudeMeters>1278</AltitudeMeters>
            <DistanceMeters>98047.549116327</DistanceMeters>
          </Trackpoint>
          <Trackpoint>
            <Time>2019-08-02T09:42:36.000Z</Time>
            <Position>
              <LatitudeDegrees>40.88264076970517635345458984375</LatitudeDegrees>
              <LongitudeDegrees>-4.0585483610630035400390625</LongitudeDegrees>
            </Position>
            <AltitudeMeters>1277.199951171875</AltitudeMeters>
            <DistanceMeters>98070.951169147</DistanceMeters>
          </Trackpoint>
          <Trackpoint>
            <Time>2019-08-02T09:42:38.000Z</Time>
            <Position>
              <LatitudeDegrees>40.88276364840567111968994140625</LatitudeDegrees>
              <LongitudeDegrees>-4.0586477704346179962158203125</LongitudeDegrees>
            </Position>
            <AltitudeMeters>1276.800048828125</AltitudeMeters>
            <DistanceMeters>98086.983389701</DistanceMeters>
          </Trackpoint>
          <Trackpoint>
            <Time>2019-08-02T09:42:43.000Z</Time>
            <Position>
              <LatitudeDegrees>40.8830346353352069854736328125</LatitudeDegrees>
              <LongitudeDegrees>-4.05884005129337310791015625</LongitudeDegrees>
            </Position>
            <AltitudeMeters>1276.199951171875</AltitudeMeters>
            <DistanceMeters>98121.210951658</DistanceMeters>
          </Trackpoint>
          <Trackpoint>
            <Time>2019-08-02T09:42:46.000Z</Time>
            <Position>
              <LatitudeDegrees>40.88314636610448360443115234375</LatitudeDegrees>
              <LongitudeDegrees>-4.05896745622158050537109375</LongitudeDegrees>
            </Position>
            <AltitudeMeters>1276</AltitudeMeters>
            <DistanceMeters>98137.630512015</DistanceMeters>
          </Trackpoint>
          <Trackpoint>
            <Time>2019-08-02T09:42:49.000Z</Time>
            <Position>
              <LatitudeDegrees>40.8832394890487194061279296875</LatitudeDegrees>
              <LongitudeDegrees>-4.05909142456948757171630859375</LongitudeDegrees>
            </Position>
            <AltitudeMeters>1275.5999755859375</AltitudeMeters>
            <DistanceMeters>98152.33603039</DistanceMeters>
          </Trackpoint>
          <Trackpoint>
            <Time>2019-08-02T09:42:59.000Z</Time>
            <Position>
              <LatitudeDegrees>40.883558504283428192138671875</LatitudeDegrees>
              <LongitudeDegrees>-4.05967463739216327667236328125</LongitudeDegrees>
            </Position>
            <AltitudeMeters>1274.800048828125</AltitudeMeters>
            <DistanceMeters>98212.910622937</DistanceMeters>
          </Trackpoint>
          <Trackpoint>
            <Time>2019-08-02T09:43:01.000Z</Time>
            <Position>
              <LatitudeDegrees>40.88363721035420894622802734375</LatitudeDegrees>
              <LongitudeDegrees>-4.05977572314441204071044921875</LongitudeDegrees>
            </Position>
            <AltitudeMeters>1274.4000244140625</AltitudeMeters>
            <DistanceMeters>98225.121093533</DistanceMeters>
          </Trackpoint>
          <Trackpoint>
            <Time>2019-08-02T09:43:04.000Z</Time>
            <Position>
              <LatitudeDegrees>40.88375070132315158843994140625</LatitudeDegrees>
              <LongitudeDegrees>-4.059837497770786285400390625</LongitudeDegrees>
            </Position>
            <AltitudeMeters>1273.800048828125</AltitudeMeters>
            <DistanceMeters>98238.780501993</DistanceMeters>
          </Trackpoint>
          <Trackpoint>
            <Time>2019-08-02T09:43:05.000Z</Time>
            <Position>
              <LatitudeDegrees>40.883786492049694061279296875</LatitudeDegrees>
              <LongitudeDegrees>-4.0598457120358943939208984375</LongitudeDegrees>
            </Position>
            <AltitudeMeters>1273.5999755859375</AltitudeMeters>
            <DistanceMeters>98242.824444184</DistanceMeters>
          </Trackpoint>
          <Trackpoint>
            <Time>2019-08-02T09:43:07.000Z</Time>
            <Position>
              <LatitudeDegrees>40.8838644437491893768310546875</LatitudeDegrees>
              <LongitudeDegrees>-4.05987328849732875823974609375</LongitudeDegrees>
            </Position>
            <AltitudeMeters>1273</AltitudeMeters>
            <DistanceMeters>98251.805348526</DistanceMeters>
          </Trackpoint>
          <Trackpoint>
            <Time>2019-08-02T09:43:08.000Z</Time>
            <Position>
              <LatitudeDegrees>40.883906185626983642578125</LatitudeDegrees>
              <LongitudeDegrees>-4.05989608727395534515380859375</LongitudeDegrees>
            </Position>
            <AltitudeMeters>1272.800048828125</AltitudeMeters>
            <DistanceMeters>98256.831893451</DistanceMeters>
          </Trackpoint>
          <Trackpoint>
            <Time>2019-08-02T09:43:13.000Z</Time>
            <Position>
              <LatitudeDegrees>40.88411883451044559478759765625</LatitudeDegrees>
              <LongitudeDegrees>-4.06004444696009159088134765625</LongitudeDegrees>
            </Position>
            <AltitudeMeters>1272</AltitudeMeters>
            <DistanceMeters>98283.590984275</DistanceMeters>
          </Trackpoint>
          <Trackpoint>
            <Time>2019-08-02T09:43:14.000Z</Time>
            <Position>
              <LatitudeDegrees>40.88414967991411685943603515625</LatitudeDegrees>
              <LongitudeDegrees>-4.0600837580859661102294921875</LongitudeDegrees>
            </Position>
            <AltitudeMeters>1271.800048828125</AltitudeMeters>
            <DistanceMeters>98288.359394124</DistanceMeters>
          </Trackpoint>
          <Trackpoint>
            <Time>2019-08-02T09:43:20.000Z</Time>
            <Position>
              <LatitudeDegrees>40.8842503465712070465087890625</LatitudeDegrees>
              <LongitudeDegrees>-4.060302861034870147705078125</LongitudeDegrees>
            </Position>
            <AltitudeMeters>1270.800048828125</AltitudeMeters>
            <DistanceMeters>98309.934016261</DistanceMeters>
          </Trackpoint>
          <Trackpoint>
            <Time>2019-08-02T09:43:27.000Z</Time>
            <Position>
              <LatitudeDegrees>40.88431798852980136871337890625</LatitudeDegrees>
              <LongitudeDegrees>-4.0605658851563930511474609375</LongitudeDegrees>
            </Position>
            <AltitudeMeters>1269.5999755859375</AltitudeMeters>
            <DistanceMeters>98333.312519354</DistanceMeters>
          </Trackpoint>
          <Trackpoint>
            <Time>2019-08-02T09:43:34.000Z</Time>
            <Position>
              <LatitudeDegrees>40.88430918753147125244140625</LatitudeDegrees>
              <LongitudeDegrees>-4.06087844632565975189208984375</LongitudeDegrees>
            </Position>
            <AltitudeMeters>1268.5999755859375</AltitudeMeters>
            <DistanceMeters>98359.632174637</DistanceMeters>
          </Trackpoint>
          <Trackpoint>
            <Time>2019-08-02T09:43:37.000Z</Time>
            <Position>
              <LatitudeDegrees>40.88431455194950103759765625</LatitudeDegrees>
              <LongitudeDegrees>-4.061031080782413482666015625</LongitudeDegrees>
            </Position>
            <AltitudeMeters>1268</AltitudeMeters>
            <DistanceMeters>98372.48995981</DistanceMeters>
          </Trackpoint>
          <Trackpoint>
            <Time>2019-08-02T09:43:40.000Z</Time>
            <Position>
              <LatitudeDegrees>40.88437414728105068206787109375</LatitudeDegrees>
              <LongitudeDegrees>-4.061204083263874053955078125</LongitudeDegrees>
            </Position>
            <AltitudeMeters>1267.5999755859375</AltitudeMeters>
            <DistanceMeters>98388.487785492</DistanceMeters>
          </Trackpoint>
          <Trackpoint>
            <Time>2019-08-02T09:43:41.000Z</Time>
            <Position>
              <LatitudeDegrees>40.88440247811377048492431640625</LatitudeDegrees>
              <LongitudeDegrees>-4.0612646006047725677490234375</LongitudeDegrees>
            </Position>
            <AltitudeMeters>1267.5999755859375</AltitudeMeters>
            <DistanceMeters>98394.477484459</DistanceMeters>
          </Trackpoint>
          <Trackpoint>
            <Time>2019-08-02T09:43:46.000Z</Time>
            <Position>
              <LatitudeDegrees>40.8845953457057476043701171875</LatitudeDegrees>
              <LongitudeDegrees>-4.061544723808765411376953125</LongitudeDegrees>
            </Position>
            <AltitudeMeters>1266.4000244140625</AltitudeMeters>
            <DistanceMeters>98426.359053345</DistanceMeters>
          </Trackpoint>
          <Trackpoint>
            <Time>2019-08-02T09:43:50.000Z</Time>
            <Position>
              <LatitudeDegrees>40.8847616426646709442138671875</LatitudeDegrees>
              <LongitudeDegrees>-4.061744548380374908447265625</LongitudeDegrees>
            </Position>
            <AltitudeMeters>1265.4000244140625</AltitudeMeters>
            <DistanceMeters>98451.36552778</DistanceMeters>
          </Trackpoint>
          <Trackpoint>
            <Time>2019-08-02T09:43:53.000Z</Time>
            <Position>
              <LatitudeDegrees>40.8848498202860355377197265625</LatitudeDegrees>
              <LongitudeDegrees>-4.06188796274363994598388671875</LongitudeDegrees>
            </Position>
            <AltitudeMeters>1264.4000244140625</AltitudeMeters>
            <DistanceMeters>98466.920620139</DistanceMeters>
          </Trackpoint>
          <Trackpoint>
            <Time>2019-08-02T09:43:58.000Z</Time>
            <Position>
              <LatitudeDegrees>40.88488661684095859527587890625</LatitudeDegrees>
              <LongitudeDegrees>-4.06211762689054012298583984375</LongitudeDegrees>
            </Position>
            <AltitudeMeters>1263.5999755859375</AltitudeMeters>
            <DistanceMeters>98486.67543762</DistanceMeters>
          </Trackpoint>
          <Trackpoint>
            <Time>2019-08-02T09:43:59.000Z</Time>
            <Position>
              <LatitudeDegrees>40.88488711975514888763427734375</LatitudeDegrees>
              <LongitudeDegrees>-4.06214579008519649505615234375</LongitudeDegrees>
            </Position>
            <AltitudeMeters>1263.5999755859375</AltitudeMeters>
            <DistanceMeters>98489.045397018</DistanceMeters>
          </Trackpoint>
          <Trackpoint>
            <Time>2019-08-02T09:44:02.000Z</Time>
            <Position>
              <LatitudeDegrees>40.88488779030740261077880859375</LatitudeDegrees>
              <LongitudeDegrees>-4.0621822513639926910400390625</LongitudeDegrees>
            </Position>
            <AltitudeMeters>1262.800048828125</AltitudeMeters>
            <DistanceMeters>98492.115804125</DistanceMeters>
          </Trackpoint>
          <Trackpoint>
            <Time>2019-08-02T09:44:52.000Z</Time>
            <Position>
              <LatitudeDegrees>40.8849187195301055908203125</LatitudeDegrees>
              <LongitudeDegrees>-4.06221200712025165557861328125</LongitudeDegrees>
            </Position>
            <AltitudeMeters>1242.800048828125</AltitudeMeters>
            <DistanceMeters>98496.371897798</DistanceMeters>
          </Trackpoint>
          <Trackpoint>
            <Time>2019-08-02T09:44:56.000Z</Time>
            <Position>
              <LatitudeDegrees>40.8850110881030559539794921875</LatitudeDegrees>
              <LongitudeDegrees>-4.06232357025146484375</LongitudeDegrees>
            </Position>
            <AltitudeMeters>1241.800048828125</AltitudeMeters>
            <DistanceMeters>98510.293879007</DistanceMeters>
          </Trackpoint>
          <Trackpoint>
            <Time>2019-08-02T09:44:59.000Z</Time>
            <Position>
              <LatitudeDegrees>40.88510991074144840240478515625</LatitudeDegrees>
              <LongitudeDegrees>-4.06243689358234405517578125</LongitudeDegrees>
            </Position>
            <AltitudeMeters>1240.800048828125</AltitudeMeters>
            <DistanceMeters>98524.85127692</DistanceMeters>
          </Trackpoint>
          <Trackpoint>
            <Time>2019-08-02T09:45:01.000Z</Time>
            <Position>
              <LatitudeDegrees>40.8851777203381061553955078125</LatitudeDegrees>
              <LongitudeDegrees>-4.0625336207449436187744140625</LongitudeDegrees>
            </Position>
            <AltitudeMeters>1239.800048828125</AltitudeMeters>
            <DistanceMeters>98535.95111309</DistanceMeters>
          </Trackpoint>
          <Trackpoint>
            <Time>2019-08-02T09:45:04.000Z</Time>
            <Position>
              <LatitudeDegrees>40.885292552411556243896484375</LatitudeDegrees>
              <LongitudeDegrees>-4.0626912005245685577392578125</LongitudeDegrees>
            </Position>
            <AltitudeMeters>1238.4000244140625</AltitudeMeters>
            <DistanceMeters>98554.367672791</DistanceMeters>
          </Trackpoint>
          <Trackpoint>
            <Time>2019-08-02T09:45:07.000Z</Time>
            <Position>
              <LatitudeDegrees>40.885436050593852996826171875</LatitudeDegrees>
              <LongitudeDegrees>-4.06283511780202388763427734375</LongitudeDegrees>
            </Position>
            <AltitudeMeters>1237.4000244140625</AltitudeMeters>
            <DistanceMeters>98574.411552931</DistanceMeters>
          </Trackpoint>
          <Trackpoint>
            <Time>2019-08-02T09:45:10.000Z</Time>
            <Position>
              <LatitudeDegrees>40.88558055460453033447265625</LatitudeDegrees>
              <LongitudeDegrees>-4.06298942863941192626953125</LongitudeDegrees>
            </Position>
            <AltitudeMeters>1236.199951171875</AltitudeMeters>
            <DistanceMeters>98595.082429961</DistanceMeters>
          </Trackpoint>
          <Trackpoint>
            <Time>2019-08-02T09:45:13.000Z</Time>
            <Position>
              <LatitudeDegrees>40.885712988674640655517578125</LatitudeDegrees>
              <LongitudeDegrees>-4.06316586770117282867431640625</LongitudeDegrees>
            </Position>
            <AltitudeMeters>1235.4000244140625</AltitudeMeters>
            <DistanceMeters>98616.003851169</DistanceMeters>
          </Trackpoint>
          <Trackpoint>
            <Time>2019-08-02T09:45:18.000Z</Time>
            <Position>
              <LatitudeDegrees>40.8859498612582683563232421875</LatitudeDegrees>
              <LongitudeDegrees>-4.06347532756626605987548828125</LongitudeDegrees>
            </Position>
            <AltitudeMeters>1234.199951171875</AltitudeMeters>
            <DistanceMeters>98653.059883666</DistanceMeters>
          </Trackpoint>
          <Trackpoint>
            <Time>2019-08-02T09:45:24.000Z</Time>
            <Position>
              <LatitudeDegrees>40.88612915016710758209228515625</LatitudeDegrees>
              <LongitudeDegrees>-4.06400338746607303619384765625</LongitudeDegrees>
            </Position>
            <AltitudeMeters>1233</AltitudeMeters>
            <DistanceMeters>98701.769209315</DistanceMeters>
          </Trackpoint>
          <Trackpoint>
            <Time>2019-08-02T09:45:26.000Z</Time>
            <Position>
              <LatitudeDegrees>40.88617374189198017120361328125</LatitudeDegrees>
              <LongitudeDegrees>-4.06419985927641391754150390625</LongitudeDegrees>
            </Position>
            <AltitudeMeters>1232.800048828125</AltitudeMeters>
            <DistanceMeters>98719.030099854</DistanceMeters>
          </Trackpoint>
          <Trackpoint>
            <Time>2019-08-02T09:45:30.000Z</Time>
            <Position>
              <LatitudeDegrees>40.88634657673537731170654296875</LatitudeDegrees>
              <LongitudeDegrees>-4.0645325370132923126220703125</LongitudeDegrees>
            </Position>
            <AltitudeMeters>1232</AltitudeMeters>
            <DistanceMeters>98752.996002852</DistanceMeters>
          </Trackpoint>
          <Trackpoint>
            <Time>2019-08-02T09:45:34.000Z</Time>
            <Position>
              <LatitudeDegrees>40.88651572354137897491455078125</LatitudeDegrees>
              <LongitudeDegrees>-4.06481794081628322601318359375</LongitudeDegrees>
            </Position>
            <AltitudeMeters>1231.199951171875</AltitudeMeters>
            <DistanceMeters>98783.510973321</DistanceMeters>
          </Trackpoint>
          <Trackpoint>
            <Time>2019-08-02T09:45:35.000Z</Time>
            <Position>
              <LatitudeDegrees>40.8865463174879550933837890625</LatitudeDegrees>
              <LongitudeDegrees>-4.06488575041294097900390625</LongitudeDegrees>
            </Position>
            <AltitudeMeters>1231</AltitudeMeters>
            <DistanceMeters>98790.156052238</DistanceMeters>
          </Trackpoint>
          <Trackpoint>
            <Time>2019-08-02T09:45:36.000Z</Time>
            <Position>
              <LatitudeDegrees>40.88657657615840435028076171875</LatitudeDegrees>
              <LongitudeDegrees>-4.0649486146867275238037109375</LongitudeDegrees>
            </Position>
            <AltitudeMeters>1230.4000244140625</AltitudeMeters>
            <DistanceMeters>98796.427815387</DistanceMeters>
          </Trackpoint>
          <Trackpoint>
            <Time>2019-08-02T09:45:40.000Z</Time>
            <Position>
              <LatitudeDegrees>40.88671512901782989501953125</LatitudeDegrees>
              <LongitudeDegrees>-4.0651903487741947174072265625</LongitudeDegrees>
            </Position>
            <AltitudeMeters>1229.800048828125</AltitudeMeters>
            <DistanceMeters>98821.953413044</DistanceMeters>
          </Trackpoint>
          <Trackpoint>
            <Time>2019-08-02T09:45:43.000Z</Time>
            <Position>
              <LatitudeDegrees>40.88684412650763988494873046875</LatitudeDegrees>
              <LongitudeDegrees>-4.065382294356822967529296875</LongitudeDegrees>
            </Position>
            <AltitudeMeters>1229.199951171875</AltitudeMeters>
            <DistanceMeters>98843.563582718</DistanceMeters>
          </Trackpoint>
          <Trackpoint>
            <Time>2019-08-02T09:45:45.000Z</Time>
            <Position>
              <LatitudeDegrees>40.88695049285888671875</LatitudeDegrees>
              <LongitudeDegrees>-4.06548614613711833953857421875</LongitudeDegrees>
            </Position>
            <AltitudeMeters>1228.800048828125</AltitudeMeters>
            <DistanceMeters>98858.278309117</DistanceMeters>
          </Trackpoint>
          <Trackpoint>
            <Time>2019-08-02T09:45:48.000Z</Time>
            <Position>
              <LatitudeDegrees>40.88709390722215175628662109375</LatitudeDegrees>
              <LongitudeDegrees>-4.06565822660923004150390625</LongitudeDegrees>
            </Position>
            <AltitudeMeters>1227.4000244140625</AltitudeMeters>
            <DistanceMeters>98879.829270156</DistanceMeters>
          </Trackpoint>
          <Trackpoint>
            <Time>2019-08-02T09:45:49.000Z</Time>
            <Position>
              <LatitudeDegrees>40.88713984005153179168701171875</LatitudeDegrees>
              <LongitudeDegrees>-4.06571916304528713226318359375</LongitudeDegrees>
            </Position>
            <AltitudeMeters>1227.199951171875</AltitudeMeters>
            <DistanceMeters>98887.070031431</DistanceMeters>
          </Trackpoint>
          <Trackpoint>
            <Time>2019-08-02T09:45:52.000Z</Time>
            <Position>
              <LatitudeDegrees>40.887279398739337921142578125</LatitudeDegrees>
              <LongitudeDegrees>-4.065910018980503082275390625</LongitudeDegrees>
            </Position>
            <AltitudeMeters>1227</AltitudeMeters>
            <DistanceMeters>98909.412628771</DistanceMeters>
          </Trackpoint>
          <Trackpoint>
            <Time>2019-08-02T09:45:53.000Z</Time>
            <Position>
              <LatitudeDegrees>40.8873219788074493408203125</LatitudeDegrees>
              <LongitudeDegrees>-4.06598134897649288177490234375</LongitudeDegrees>
            </Position>
            <AltitudeMeters>1226.5999755859375</AltitudeMeters>
            <DistanceMeters>98917.060360796</DistanceMeters>
          </Trackpoint>
          <Trackpoint>
            <Time>2019-08-02T09:45:55.000Z</Time>
            <Position>
              <LatitudeDegrees>40.88740822859108448028564453125</LatitudeDegrees>
              <LongitudeDegrees>-4.06613188795745372772216796875</LongitudeDegrees>
            </Position>
            <AltitudeMeters>1226</AltitudeMeters>
            <DistanceMeters>98932.953987143</DistanceMeters>
          </Trackpoint>
          <Trackpoint>
            <Time>2019-08-02T09:45:58.000Z</Time>
            <Position>
              <LatitudeDegrees>40.88750579394400119781494140625</LatitudeDegrees>
              <LongitudeDegrees>-4.0663322992622852325439453125</LongitudeDegrees>
            </Position>
            <AltitudeMeters>1225.5999755859375</AltitudeMeters>
            <DistanceMeters>98953.011153083</DistanceMeters>
          </Trackpoint>
          <Trackpoint>
            <Time>2019-08-02T09:46:02.000Z</Time>
            <Position>
              <LatitudeDegrees>40.8876322768628597259521484375</LatitudeDegrees>
              <LongitudeDegrees>-4.06654796563088893890380859375</LongitudeDegrees>
            </Position>
            <AltitudeMeters>1225.199951171875</AltitudeMeters>
            <DistanceMeters>98975.978541824</DistanceMeters>
          </Trackpoint>
          <Trackpoint>
            <Time>2019-08-02T09:46:04.000Z</Time>
            <Position>
              <LatitudeDegrees>40.88771131820976734161376953125</LatitudeDegrees>
              <LongitudeDegrees>-4.06663262285292148590087890625</LongitudeDegrees>
            </Position>
            <AltitudeMeters>1225</AltitudeMeters>
            <DistanceMeters>98987.298293797</DistanceMeters>
          </Trackpoint>
          <Trackpoint>
            <Time>2019-08-02T09:46:06.000Z</Time>
            <Position>
              <LatitudeDegrees>40.88777854107320308685302734375</LatitudeDegrees>
              <LongitudeDegrees>-4.0667353011667728424072265625</LongitudeDegrees>
            </Position>
            <AltitudeMeters>1224.4000244140625</AltitudeMeters>
            <DistanceMeters>98998.727601993</DistanceMeters>
          </Trackpoint>
          <Trackpoint>
            <Time>2019-08-02T09:46:10.000Z</Time>
            <Position>
              <LatitudeDegrees>40.88791348971426486968994140625</LatitudeDegrees>
              <LongitudeDegrees>-4.0669609420001506805419921875</LongitudeDegrees>
            </Position>
            <AltitudeMeters>1223.199951171875</AltitudeMeters>
            <DistanceMeters>99022.936858106</DistanceMeters>
          </Trackpoint>
          <Trackpoint>
            <Time>2019-08-02T09:46:13.000Z</Time>
            <Position>
              <LatitudeDegrees>40.8880144916474819183349609375</LatitudeDegrees>
              <LongitudeDegrees>-4.06713553704321384429931640625</LongitudeDegrees>
            </Position>
            <AltitudeMeters>1222</AltitudeMeters>
            <DistanceMeters>99041.435364717</DistanceMeters>
          </Trackpoint>
          <Trackpoint>
            <Time>2019-08-02T09:46:16.000Z</Time>
            <Position>
              <LatitudeDegrees>40.88810258544981479644775390625</LatitudeDegrees>
              <LongitudeDegrees>-4.06731155700981616973876953125</LongitudeDegrees>
            </Position>
            <AltitudeMeters>1220.800048828125</AltitudeMeters>
            <DistanceMeters>99059.197482012</DistanceMeters>
          </Trackpoint>
          <Trackpoint>
            <Time>2019-08-02T09:46:21.000Z</Time>
            <Position>
              <LatitudeDegrees>40.88826402090489864349365234375</LatitudeDegrees>
              <LongitudeDegrees>-4.06756921671330928802490234375</LongitudeDegrees>
            </Position>
            <AltitudeMeters>1219.199951171875</AltitudeMeters>
            <DistanceMeters>99087.355711043</DistanceMeters>
          </Trackpoint>
          <Trackpoint>
            <Time>2019-08-02T09:46:23.000Z</Time>
            <Position>
              <LatitudeDegrees>40.88833074085414409637451171875</LatitudeDegrees>
              <LongitudeDegrees>-4.067667536437511444091796875</LongitudeDegrees>
            </Position>
            <AltitudeMeters>1218.4000244140625</AltitudeMeters>
            <DistanceMeters>99098.472618266</DistanceMeters>
          </Trackpoint>
          <Trackpoint>
            <Time>2019-08-02T09:46:26.000Z</Time>
            <Position>
              <LatitudeDegrees>40.88843668811023235321044921875</LatitudeDegrees>
              <LongitudeDegrees>-4.06780994497239589691162109375</LongitudeDegrees>
            </Position>
            <AltitudeMeters>1217.199951171875</AltitudeMeters>
            <DistanceMeters>99115.284560233</DistanceMeters>
          </Trackpoint>
          <Trackpoint>
            <Time>2019-08-02T09:46:27.000Z</Time>
            <Position>
              <LatitudeDegrees>40.8884741552174091339111328125</LatitudeDegrees>
              <LongitudeDegrees>-4.06785202212631702423095703125</LongitudeDegrees>
            </Position>
            <AltitudeMeters>1216.800048828125</AltitudeMeters>
            <DistanceMeters>99120.75417112</DistanceMeters>
          </Trackpoint>
          <Trackpoint>
            <Time>2019-08-02T09:46:29.000Z</Time>
            <Position>
              <LatitudeDegrees>40.88854841887950897216796875</LatitudeDegrees>
              <LongitudeDegrees>-4.0679365955293178558349609375</LongitudeDegrees>
            </Position>
            <AltitudeMeters>1216</AltitudeMeters>
            <DistanceMeters>99131.660737812</DistanceMeters>
          </Trackpoint>
          <Trackpoint>
            <Time>2019-08-02T09:46:32.000Z</Time>
            <Position>
              <LatitudeDegrees>40.8886451460421085357666015625</LatitudeDegrees>
              <LongitudeDegrees>-4.06807665713131427764892578125</LongitudeDegrees>
            </Position>
            <AltitudeMeters>1215</AltitudeMeters>
            <DistanceMeters>99147.622963125</DistanceMeters>
          </Trackpoint>
          <Trackpoint>
            <Time>2019-08-02T09:46:35.000Z</Time>
            <Position>
              <LatitudeDegrees>40.88874095119535923004150390625</LatitudeDegrees>
              <LongitudeDegrees>-4.0682125277817249298095703125</LongitudeDegrees>
            </Position>
            <AltitudeMeters>1213.800048828125</AltitudeMeters>
            <DistanceMeters>99163.256518352</DistanceMeters>
          </Trackpoint>
          <Trackpoint>
            <Time>2019-08-02T09:46:38.000Z</Time>
            <Position>
              <LatitudeDegrees>40.8888302184641361236572265625</LatitudeDegrees>
              <LongitudeDegrees>-4.0682996995747089385986328125</LongitudeDegrees>
            </Position>
            <AltitudeMeters>1212.4000244140625</AltitudeMeters>
            <DistanceMeters>99175.606335805</DistanceMeters>
          </Trackpoint>
          <Trackpoint>
            <Time>2019-08-02T09:46:41.000Z</Time>
            <Position>
              <LatitudeDegrees>40.88889350183308124542236328125</LatitudeDegrees>
              <LongitudeDegrees>-4.0683999471366405487060546875</LongitudeDegrees>
            </Position>
            <AltitudeMeters>1211.5999755859375</AltitudeMeters>
            <DistanceMeters>99186.595385459</DistanceMeters>
          </Trackpoint>
          <Trackpoint>
            <Time>2019-08-02T09:46:43.000Z</Time>
            <Position>
              <LatitudeDegrees>40.88893122039735317230224609375</LatitudeDegrees>
              <LongitudeDegrees>-4.068480245769023895263671875</LongitudeDegrees>
            </Position>
            <AltitudeMeters>1211.4000244140625</AltitudeMeters>
            <DistanceMeters>99194.550432644</DistanceMeters>
          </Trackpoint>
          <Trackpoint>
            <Time>2019-08-02T09:46:46.000Z</Time>
            <Position>
              <LatitudeDegrees>40.88898955844342708587646484375</LatitudeDegrees>
              <LongitudeDegrees>-4.06860706396400928497314453125</LongitudeDegrees>
            </Position>
            <AltitudeMeters>1211.199951171875</AltitudeMeters>
            <DistanceMeters>99207.04201865</DistanceMeters>
          </Trackpoint>
          <Trackpoint>
            <Time>2019-08-02T09:46:49.000Z</Time>
            <Position>
              <LatitudeDegrees>40.88910036720335483551025390625</LatitudeDegrees>
              <LongitudeDegrees>-4.06873262487351894378662109375</LongitudeDegrees>
            </Position>
            <AltitudeMeters>1210.4000244140625</AltitudeMeters>
            <DistanceMeters>99223.281580915</DistanceMeters>
          </Trackpoint>
          <Trackpoint>
            <Time>2019-08-02T09:46:53.000Z</Time>
            <Position>
              <LatitudeDegrees>40.88928309269249439239501953125</LatitudeDegrees>
              <LongitudeDegrees>-4.0689176134765148162841796875</LongitudeDegrees>
            </Position>
            <AltitudeMeters>1209.199951171875</AltitudeMeters>
            <DistanceMeters>99248.892294153</DistanceMeters>
          </Trackpoint>
          <Trackpoint>
            <Time>2019-08-02T09:46:57.000Z</Time>
            <Position>
              <LatitudeDegrees>40.8894598670303821563720703125</LatitudeDegrees>
              <LongitudeDegrees>-4.06911299563944339752197265625</LongitudeDegrees>
            </Position>
            <AltitudeMeters>1208.199951171875</AltitudeMeters>
            <DistanceMeters>99274.531727358</DistanceMeters>
          </Trackpoint>
          <Trackpoint>
            <Time>2019-08-02T09:47:01.000Z</Time>
            <Position>
              <LatitudeDegrees>40.88964485563337802886962890625</LatitudeDegrees>
              <LongitudeDegrees>-4.06934970058500766754150390625</LongitudeDegrees>
            </Position>
            <AltitudeMeters>1207</AltitudeMeters>
            <DistanceMeters>99303.177829479</DistanceMeters>
          </Trackpoint>
          <Trackpoint>
            <Time>2019-08-02T09:47:02.000Z</Time>
            <Position>
              <LatitudeDegrees>40.88969246484339237213134765625</LatitudeDegrees>
              <LongitudeDegrees>-4.0694071166217327117919921875</LongitudeDegrees>
            </Position>
            <AltitudeMeters>1206.800048828125</AltitudeMeters>
            <DistanceMeters>99310.349041744</DistanceMeters>
          </Trackpoint>
          <Trackpoint>
            <Time>2019-08-02T09:47:05.000Z</Time>
            <Position>
              <LatitudeDegrees>40.88983495719730854034423828125</LatitudeDegrees>
              <LongitudeDegrees>-4.069586656987667083740234375</LongitudeDegrees>
            </Position>
            <AltitudeMeters>1206</AltitudeMeters>
            <DistanceMeters>99332.251823329</DistanceMeters>
          </Trackpoint>
          <Trackpoint>
            <Time>2019-08-02T09:47:08.000Z</Time>
            <Position>
              <LatitudeDegrees>40.8899674750864505767822265625</LatitudeDegrees>
              <LongitudeDegrees>-4.0697573125362396240234375</LongitudeDegrees>
            </Position>
            <AltitudeMeters>1205</AltitudeMeters>
            <DistanceMeters>99352.836680315</DistanceMeters>
          </Trackpoint>
          <Trackpoint>
            <Time>2019-08-02T09:47:13.000Z</Time>
            <Position>
              <LatitudeDegrees>40.89020007289946079254150390625</LatitudeDegrees>
              <LongitudeDegrees>-4.07003148458898067474365234375</LongitudeDegrees>
            </Position>
            <AltitudeMeters>1204</AltitudeMeters>
            <DistanceMeters>99387.512187504</DistanceMeters>
          </Trackpoint>
          <Trackpoint>
            <Time>2019-08-02T09:47:17.000Z</Time>
            <Position>
              <LatitudeDegrees>40.89039788581430912017822265625</LatitudeDegrees>
              <LongitudeDegrees>-4.0702154673635959625244140625</LongitudeDegrees>
            </Position>
            <AltitudeMeters>1202.800048828125</AltitudeMeters>
            <DistanceMeters>99414.4267325</DistanceMeters>
          </Trackpoint>
          <Trackpoint>
            <Time>2019-08-02T09:47:20.000Z</Time>
            <Position>
              <LatitudeDegrees>40.89055881835520267486572265625</LatitudeDegrees>
              <LongitudeDegrees>-4.0703485719859600067138671875</LongitudeDegrees>
            </Position>
            <AltitudeMeters>1201.4000244140625</AltitudeMeters>
            <DistanceMeters>99435.551750319</DistanceMeters>
          </Trackpoint>
          <Trackpoint>
            <Time>2019-08-02T09:47:23.000Z</Time>
            <Position>
              <LatitudeDegrees>40.89072913862764835357666015625</LatitudeDegrees>
              <LongitudeDegrees>-4.070477820932865142822265625</LongitudeDegrees>
            </Position>
            <AltitudeMeters>1200.4000244140625</AltitudeMeters>
            <DistanceMeters>99457.406448518</DistanceMeters>
          </Trackpoint>
          <Trackpoint>
            <Time>2019-08-02T09:47:26.000Z</Time>
            <Position>
              <LatitudeDegrees>40.89090331457555294036865234375</LatitudeDegrees>
              <LongitudeDegrees>-4.07062165439128875732421875</LongitudeDegrees>
            </Position>
            <AltitudeMeters>1199.4000244140625</AltitudeMeters>
            <DistanceMeters>99480.259928808</DistanceMeters>
          </Trackpoint>
          <Trackpoint>
            <Time>2019-08-02T09:47:29.000Z</Time>
            <Position>
              <LatitudeDegrees>40.89107447303831577301025390625</LatitudeDegrees>
              <LongitudeDegrees>-4.07078954391181468963623046875</LongitudeDegrees>
            </Position>
            <AltitudeMeters>1198</AltitudeMeters>
            <DistanceMeters>99503.976281848</DistanceMeters>
          </Trackpoint>
          <Trackpoint>
            <Time>2019-08-02T09:47:33.000Z</Time>
            <Position>
              <LatitudeDegrees>40.8913028798997402191162109375</LatitudeDegrees>
              <LongitudeDegrees>-4.07100529409945011138916015625</LongitudeDegrees>
            </Position>
            <AltitudeMeters>1197</AltitudeMeters>
            <DistanceMeters>99535.214353984</DistanceMeters>
          </Trackpoint>
          <Trackpoint>
            <Time>2019-08-02T09:47:39.000Z</Time>
            <Position>
              <LatitudeDegrees>40.89164544828236103057861328125</LatitudeDegrees>
              <LongitudeDegrees>-4.0712457709014415740966796875</LongitudeDegrees>
            </Position>
            <AltitudeMeters>1195.5999755859375</AltitudeMeters>
            <DistanceMeters>99578.378872662</DistanceMeters>
          </Trackpoint>
          <Trackpoint>
            <Time>2019-08-02T09:47:41.000Z</Time>
            <Position>
              <LatitudeDegrees>40.89175173081457614898681640625</LatitudeDegrees>
              <LongitudeDegrees>-4.07131592743098735809326171875</LongitudeDegrees>
            </Position>
            <AltitudeMeters>1195</AltitudeMeters>
            <DistanceMeters>99591.599202823</DistanceMeters>
          </Trackpoint>
          <Trackpoint>
            <Time>2019-08-02T09:47:42.000Z</Time>
            <Position>
              <LatitudeDegrees>40.89180034585297107696533203125</LatitudeDegrees>
              <LongitudeDegrees>-4.07135565765202045440673828125</LongitudeDegrees>
            </Position>
            <AltitudeMeters>1194.5999755859375</AltitudeMeters>
            <DistanceMeters>99597.958897187</DistanceMeters>
          </Trackpoint>
          <Trackpoint>
            <Time>2019-08-02T09:47:43.000Z</Time>
            <Position>
              <LatitudeDegrees>40.89184275828301906585693359375</LatitudeDegrees>
              <LongitudeDegrees>-4.07139857299625873565673828125</LongitudeDegrees>
            </Position>
            <AltitudeMeters>1194.199951171875</AltitudeMeters>
            <DistanceMeters>99603.902436456</DistanceMeters>
          </Trackpoint>
          <Trackpoint>
            <Time>2019-08-02T09:47:46.000Z</Time>
            <Position>
              <LatitudeDegrees>40.89194803498685359954833984375</LatitudeDegrees>
              <LongitudeDegrees>-4.0715354494750499725341796875</LongitudeDegrees>
            </Position>
            <AltitudeMeters>1193.5999755859375</AltitudeMeters>
            <DistanceMeters>99620.331893083</DistanceMeters>
          </Trackpoint>
          <Trackpoint>
            <Time>2019-08-02T09:47:49.000Z</Time>
            <Position>
              <LatitudeDegrees>40.89206370525062084197998046875</LatitudeDegrees>
              <LongitudeDegrees>-4.07166025601327419281005859375</LongitudeDegrees>
            </Position>
            <AltitudeMeters>1192.4000244140625</AltitudeMeters>
            <DistanceMeters>99636.945541586</DistanceMeters>
          </Trackpoint>
          <Trackpoint>
            <Time>2019-08-02T09:47:51.000Z</Time>
            <Position>
              <LatitudeDegrees>40.89213495142757892608642578125</LatitudeDegrees>
              <LongitudeDegrees>-4.07172194682061672210693359375</LongitudeDegrees>
            </Position>
            <AltitudeMeters>1191.5999755859375</AltitudeMeters>
            <DistanceMeters>99646.423473875</DistanceMeters>
          </Trackpoint>
          <Trackpoint>
            <Time>2019-08-02T09:47:52.000Z</Time>
            <Position>
              <LatitudeDegrees>40.89216579683125019073486328125</LatitudeDegrees>
              <LongitudeDegrees>-4.07176754437386989593505859375</LongitudeDegrees>
            </Position>
            <AltitudeMeters>1191.4000244140625</AltitudeMeters>
            <DistanceMeters>99651.572483919</DistanceMeters>
          </Trackpoint>
          <Trackpoint>
            <Time>2019-08-02T09:47:55.000Z</Time>
            <Position>
              <LatitudeDegrees>40.8922463469207286834716796875</LatitudeDegrees>
              <LongitudeDegrees>-4.0719149820506572723388671875</LongitudeDegrees>
            </Position>
            <AltitudeMeters>1190.5999755859375</AltitudeMeters>
            <DistanceMeters>99666.878276064</DistanceMeters>
          </Trackpoint>
          <Trackpoint>
            <Time>2019-08-02T09:47:57.000Z</Time>
            <Position>
              <LatitudeDegrees>40.89226998388767242431640625</LatitudeDegrees>
              <LongitudeDegrees>-4.07203006558120250701904296875</LongitudeDegrees>
            </Position>
            <AltitudeMeters>1190.4000244140625</AltitudeMeters>
            <DistanceMeters>99676.912485169</DistanceMeters>
          </Trackpoint>
          <Trackpoint>
            <Time>2019-08-02T09:48:06.000Z</Time>
            <Position>
              <LatitudeDegrees>40.89228012599050998687744140625</LatitudeDegrees>
              <LongitudeDegrees>-4.072425775229930877685546875</LongitudeDegrees>
            </Position>
            <AltitudeMeters>1189.199951171875</AltitudeMeters>
            <DistanceMeters>99710.225820859</DistanceMeters>
          </Trackpoint>
          <Trackpoint>
            <Time>2019-08-02T09:48:08.000Z</Time>
            <Position>
              <LatitudeDegrees>40.89232052676379680633544921875</LatitudeDegrees>
              <LongitudeDegrees>-4.0725302137434482574462890625</LongitudeDegrees>
            </Position>
            <AltitudeMeters>1189</AltitudeMeters>
            <DistanceMeters>99720.097171066</DistanceMeters>
          </Trackpoint>
          <Trackpoint>
            <Time>2019-08-02T09:48:15.000Z</Time>
            <Position>
              <LatitudeDegrees>40.89254759252071380615234375</LatitudeDegrees>
              <LongitudeDegrees>-4.072793908417224884033203125</LongitudeDegrees>
            </Position>
            <AltitudeMeters>1188.5999755859375</AltitudeMeters>
            <DistanceMeters>99753.727097088</DistanceMeters>
          </Trackpoint>
          <Trackpoint>
            <Time>2019-08-02T09:48:17.000Z</Time>
            <Position>
              <LatitudeDegrees>40.8926356025040149688720703125</LatitudeDegrees>
              <LongitudeDegrees>-4.07279533334076404571533203125</LongitudeDegrees>
            </Position>
            <AltitudeMeters>1188.4000244140625</AltitudeMeters>
            <DistanceMeters>99763.523609347</DistanceMeters>
          </Trackpoint>
          <Trackpoint>
            <Time>2019-08-02T09:48:20.000Z</Time>
            <Position>
              <LatitudeDegrees>40.892755798995494842529296875</LatitudeDegrees>
              <LongitudeDegrees>-4.07277152873575687408447265625</LongitudeDegrees>
            </Position>
            <AltitudeMeters>1187.5999755859375</AltitudeMeters>
            <DistanceMeters>99777.050821516</DistanceMeters>
          </Trackpoint>
          <Trackpoint>
            <Time>2019-08-02T09:48:21.000Z</Time>
            <Position>
              <LatitudeDegrees>40.89279301464557647705078125</LatitudeDegrees>
              <LongitudeDegrees>-4.07277622260153293609619140625</LongitudeDegrees>
            </Position>
            <AltitudeMeters>1187.4000244140625</AltitudeMeters>
            <DistanceMeters>99781.211429229</DistanceMeters>
          </Trackpoint>
          <Trackpoint>
            <Time>2019-08-02T09:48:23.000Z</Time>
            <Position>
              <LatitudeDegrees>40.89285981841385364532470703125</LatitudeDegrees>
              <LongitudeDegrees>-4.0728259272873401641845703125</LongitudeDegrees>
            </Position>
            <AltitudeMeters>1186.5999755859375</AltitudeMeters>
            <DistanceMeters>99789.742161089</DistanceMeters>
          </Trackpoint>
          <Trackpoint>
            <Time>2019-08-02T09:48:24.000Z</Time>
            <Position>
              <LatitudeDegrees>40.892891921103000640869140625</LatitudeDegrees>
              <LongitudeDegrees>-4.07286087982356548309326171875</LongitudeDegrees>
            </Position>
            <AltitudeMeters>1186.199951171875</AltitudeMeters>
            <DistanceMeters>99794.370264515</DistanceMeters>
          </Trackpoint>
          <Trackpoint>
            <Time>2019-08-02T09:48:28.000Z</Time>
            <Position>
              <LatitudeDegrees>40.89299242012202739715576171875</LatitudeDegrees>
              <LongitudeDegrees>-4.07299214042723178863525390625</LongitudeDegrees>
            </Position>
            <AltitudeMeters>1185.4000244140625</AltitudeMeters>
            <DistanceMeters>99810.0893606</DistanceMeters>
          </Trackpoint>
          <Trackpoint>
            <Time>2019-08-02T09:48:33.000Z</Time>
            <Position>
              <LatitudeDegrees>40.8930999599397182464599609375</LatitudeDegrees>
              <LongitudeDegrees>-4.0732014365494251251220703125</LongitudeDegrees>
            </Position>
            <AltitudeMeters>1184.4000244140625</AltitudeMeters>
            <DistanceMeters>99831.381495013</DistanceMeters>
          </Trackpoint>
          <Trackpoint>
            <Time>2019-08-02T09:48:39.000Z</Time>
            <Position>
              <LatitudeDegrees>40.89334680698812007904052734375</LatitudeDegrees>
              <LongitudeDegrees>-4.07349161803722381591796875</LongitudeDegrees>
            </Position>
            <AltitudeMeters>1183.4000244140625</AltitudeMeters>
            <DistanceMeters>99868.136447418</DistanceMeters>
          </Trackpoint>
          <Trackpoint>
            <Time>2019-08-02T09:48:43.000Z</Time>
            <Position>
              <LatitudeDegrees>40.89352785609662532806396484375</LatitudeDegrees>
              <LongitudeDegrees>-4.07367057166993618011474609375</LongitudeDegrees>
            </Position>
            <AltitudeMeters>1182.199951171875</AltitudeMeters>
            <DistanceMeters>99893.291079528</DistanceMeters>
          </Trackpoint>
          <Trackpoint>
            <Time>2019-08-02T09:48:46.000Z</Time>
            <Position>
              <LatitudeDegrees>40.89364754967391490936279296875</LatitudeDegrees>
              <LongitudeDegrees>-4.07377450726926326751708984375</LongitudeDegrees>
            </Position>
            <AltitudeMeters>1181</AltitudeMeters>
            <DistanceMeters>99909.226977363</DistanceMeters>
          </Trackpoint>
          <Trackpoint>
            <Time>2019-08-02T09:48:49.000Z</Time>
            <Position>
              <LatitudeDegrees>40.89372265152633190155029296875</LatitudeDegrees>
              <LongitudeDegrees>-4.07385095022618770599365234375</LongitudeDegrees>
            </Position>
            <AltitudeMeters>1179.800048828125</AltitudeMeters>
            <DistanceMeters>99919.774086527</DistanceMeters>
          </Trackpoint>
          <Trackpoint>
            <Time>2019-08-02T09:48:52.000Z</Time>
            <Position>
              <LatitudeDegrees>40.89373874478042125701904296875</LatitudeDegrees>
              <LongitudeDegrees>-4.0738745033740997314453125</LongitudeDegrees>
            </Position>
            <AltitudeMeters>1179</AltitudeMeters>
            <DistanceMeters>99922.446686472</DistanceMeters>
          </Trackpoint>
          <Trackpoint>
            <Time>2019-08-02T09:49:53.000Z</Time>
            <Position>
              <LatitudeDegrees>40.893813259899616241455078125</LatitudeDegrees>
              <LongitudeDegrees>-4.073945581912994384765625</LongitudeDegrees>
            </Position>
            <AltitudeMeters>1158.4000244140625</AltitudeMeters>
            <DistanceMeters>99932.672108476</DistanceMeters>
          </Trackpoint>
          <Trackpoint>
            <Time>2019-08-02T09:49:57.000Z</Time>
            <Position>
              <LatitudeDegrees>40.8939009346067905426025390625</LatitudeDegrees>
              <LongitudeDegrees>-4.07404147088527679443359375</LongitudeDegrees>
            </Position>
            <AltitudeMeters>1157.4000244140625</AltitudeMeters>
            <DistanceMeters>99945.333861008</DistanceMeters>
          </Trackpoint>
          <Trackpoint>
            <Time>2019-08-02T09:50:02.000Z</Time>
            <Position>
              <LatitudeDegrees>40.89411475695669651031494140625</LatitudeDegrees>
              <LongitudeDegrees>-4.07424422912299633026123046875</LongitudeDegrees>
            </Position>
            <AltitudeMeters>1156.4000244140625</AltitudeMeters>
            <DistanceMeters>99974.615352745</DistanceMeters>
          </Trackpoint>
          <Trackpoint>
            <Time>2019-08-02T09:50:04.000Z</Time>
            <Position>
              <LatitudeDegrees>40.89420746080577373504638671875</LatitudeDegrees>
              <LongitudeDegrees>-4.074344895780086517333984375</LongitudeDegrees>
            </Position>
            <AltitudeMeters>1156.199951171875</AltitudeMeters>
            <DistanceMeters>99987.964492363</DistanceMeters>
          </Trackpoint>
          <Trackpoint>
            <Time>2019-08-02T09:50:07.000Z</Time>
            <Position>
              <LatitudeDegrees>40.8943203650414943695068359375</LatitudeDegrees>
              <LongitudeDegrees>-4.0745408646762371063232421875</LongitudeDegrees>
            </Position>
            <AltitudeMeters>1155.800048828125</AltitudeMeters>
            <DistanceMeters>100008.69556706</DistanceMeters>
          </Trackpoint>
          <Trackpoint>
            <Time>2019-08-02T09:50:10.000Z</Time>
            <Position>
              <LatitudeDegrees>40.8944521285593509674072265625</LatitudeDegrees>
              <LongitudeDegrees>-4.0747175551950931549072265625</LongitudeDegrees>
            </Position>
            <AltitudeMeters>1155.4000244140625</AltitudeMeters>
            <DistanceMeters>100029.57789025</DistanceMeters>
          </Trackpoint>
          <Trackpoint>
            <Time>2019-08-02T09:50:18.000Z</Time>
            <Position>
              <LatitudeDegrees>40.89483694173395633697509765625</LatitudeDegrees>
              <LongitudeDegrees>-4.075115025043487548828125</LongitudeDegrees>
            </Position>
            <AltitudeMeters>1154.199951171875</AltitudeMeters>
            <DistanceMeters>100083.9171369</DistanceMeters>
          </Trackpoint>
          <Trackpoint>
            <Time>2019-08-02T09:50:21.000Z</Time>
            <Position>
              <LatitudeDegrees>40.89498999528586864471435546875</LatitudeDegrees>
              <LongitudeDegrees>-4.07524645328521728515625</LongitudeDegrees>
            </Position>
            <AltitudeMeters>1154.199951171875</AltitudeMeters>
            <DistanceMeters>100104.22663792</DistanceMeters>
          </Trackpoint>
          <Trackpoint>
            <Time>2019-08-02T09:50:25.000Z</Time>
            <Position>
              <LatitudeDegrees>40.89518093504011631011962890625</LatitudeDegrees>
              <LongitudeDegrees>-4.07546631060540676116943359375</LongitudeDegrees>
            </Position>
            <AltitudeMeters>1153.800048828125</AltitudeMeters>
            <DistanceMeters>100132.40105717</DistanceMeters>
          </Trackpoint>
          <Trackpoint>
            <Time>2019-08-02T09:50:27.000Z</Time>
            <Position>
              <LatitudeDegrees>40.895276404917240142822265625</LatitudeDegrees>
              <LongitudeDegrees>-4.0755795501172542572021484375</LongitudeDegrees>
            </Position>
            <AltitudeMeters>1153.4000244140625</AltitudeMeters>
            <DistanceMeters>100146.67279162</DistanceMeters>
          </Trackpoint>
          <Trackpoint>
            <Time>2019-08-02T09:50:32.000Z</Time>
            <Position>
              <LatitudeDegrees>40.89553616009652614593505859375</LatitudeDegrees>
              <LongitudeDegrees>-4.0758164227008819580078125</LongitudeDegrees>
            </Position>
            <AltitudeMeters>1153.199951171875</AltitudeMeters>
            <DistanceMeters>100181.78718779</DistanceMeters>
          </Trackpoint>
          <Trackpoint>
            <Time>2019-08-02T09:50:39.000Z</Time>
            <Position>
              <LatitudeDegrees>40.89588333852589130401611328125</LatitudeDegrees>
              <LongitudeDegrees>-4.076119177043437957763671875</LongitudeDegrees>
            </Position>
            <AltitudeMeters>1152.199951171875</AltitudeMeters>
            <DistanceMeters>100228.06880739</DistanceMeters>
          </Trackpoint>
          <Trackpoint>
            <Time>2019-08-02T09:50:41.000Z</Time>
            <Position>
              <LatitudeDegrees>40.895979143679141998291015625</LatitudeDegrees>
              <LongitudeDegrees>-4.07620676793158054351806640625</LongitudeDegrees>
            </Position>
            <AltitudeMeters>1151.800048828125</AltitudeMeters>
            <DistanceMeters>100241.0308135</DistanceMeters>
          </Trackpoint>
          <Trackpoint>
            <Time>2019-08-02T09:50:50.000Z</Time>
            <Position>
              <LatitudeDegrees>40.8963923715054988861083984375</LatitudeDegrees>
              <LongitudeDegrees>-4.07668554224073886871337890625</LongitudeDegrees>
            </Position>
            <AltitudeMeters>1151.4000244140625</AltitudeMeters>
            <DistanceMeters>100302.16911395</DistanceMeters>
          </Trackpoint>
          <Trackpoint>
            <Time>2019-08-02T09:50:53.000Z</Time>
            <Position>
              <LatitudeDegrees>40.89652958326041698455810546875</LatitudeDegrees>
              <LongitudeDegrees>-4.07684504985809326171875</LongitudeDegrees>
            </Position>
            <AltitudeMeters>1151.199951171875</AltitudeMeters>
            <DistanceMeters>100322.49950153</DistanceMeters>
          </Trackpoint>
          <Trackpoint>
            <Time>2019-08-02T09:50:57.000Z</Time>
            <Position>
              <LatitudeDegrees>40.896753631532192230224609375</LatitudeDegrees>
              <LongitudeDegrees>-4.07699055969715118408203125</LongitudeDegrees>
            </Position>
            <AltitudeMeters>1150</AltitudeMeters>
            <DistanceMeters>100350.27950141</DistanceMeters>
          </Trackpoint>
          <Trackpoint>
            <Time>2019-08-02T09:51:04.000Z</Time>
            <Position>
              <LatitudeDegrees>40.8971058391034603118896484375</LatitudeDegrees>
              <LongitudeDegrees>-4.07725869677960872650146484375</LongitudeDegrees>
            </Position>
            <AltitudeMeters>1149</AltitudeMeters>
            <DistanceMeters>100395.5084242</DistanceMeters>
          </Trackpoint>
          <Trackpoint>
            <Time>2019-08-02T09:51:09.000Z</Time>
            <Position>
              <LatitudeDegrees>40.89732402004301548004150390625</LatitudeDegrees>
              <LongitudeDegrees>-4.0774480439722537994384765625</LongitudeDegrees>
            </Position>
            <AltitudeMeters>1148</AltitudeMeters>
            <DistanceMeters>100424.55117512</DistanceMeters>
          </Trackpoint>
          <Trackpoint>
            <Time>2019-08-02T09:51:16.000Z</Time>
            <Position>
              <LatitudeDegrees>40.897600539028644561767578125</LatitudeDegrees>
              <LongitudeDegrees>-4.0776854194700717926025390625</LongitudeDegrees>
            </Position>
            <AltitudeMeters>1147</AltitudeMeters>
            <DistanceMeters>100461.23985614</DistanceMeters>
          </Trackpoint>
          <Trackpoint>
            <Time>2019-08-02T09:51:26.000Z</Time>
            <Position>
              <LatitudeDegrees>40.89800949208438396453857421875</LatitudeDegrees>
              <LongitudeDegrees>-4.077988006174564361572265625</LongitudeDegrees>
            </Position>
            <AltitudeMeters>1146</AltitudeMeters>
            <DistanceMeters>100513.39229697</DistanceMeters>
          </Trackpoint>
          <Trackpoint>
            <Time>2019-08-02T09:51:27.000Z</Time>
            <Position>
              <LatitudeDegrees>40.89805492199957370758056640625</LatitudeDegrees>
              <LongitudeDegrees>-4.0780104696750640869140625</LongitudeDegrees>
            </Position>
            <AltitudeMeters>1146</AltitudeMeters>
            <DistanceMeters>100518.79045005</DistanceMeters>
          </Trackpoint>
          <Trackpoint>
            <Time>2019-08-02T09:51:31.000Z</Time>
            <Position>
              <LatitudeDegrees>40.89824728667736053466796875</LatitudeDegrees>
              <LongitudeDegrees>-4.078094959259033203125</LongitudeDegrees>
            </Position>
            <AltitudeMeters>1146</AltitudeMeters>
            <DistanceMeters>100541.35004022</DistanceMeters>
          </Trackpoint>
          <Trackpoint>
            <Time>2019-08-02T09:51:42.000Z</Time>
            <Position>
              <LatitudeDegrees>40.898761935532093048095703125</LatitudeDegrees>
              <LongitudeDegrees>-4.0783982165157794952392578125</LongitudeDegrees>
            </Position>
            <AltitudeMeters>1145</AltitudeMeters>
            <DistanceMeters>100604.05629626</DistanceMeters>
          </Trackpoint>
          <Trackpoint>
            <Time>2019-08-02T09:51:45.000Z</Time>
            <Position>
              <LatitudeDegrees>40.89889294467866420745849609375</LatitudeDegrees>
              <LongitudeDegrees>-4.07847876660525798797607421875</LongitudeDegrees>
            </Position>
            <AltitudeMeters>1144.800048828125</AltitudeMeters>
            <DistanceMeters>100620.13575983</DistanceMeters>
          </Trackpoint>
          <Trackpoint>
            <Time>2019-08-02T09:51:53.000Z</Time>
            <Position>
              <LatitudeDegrees>40.8992398716509342193603515625</LatitudeDegrees>
              <LongitudeDegrees>-4.078669287264347076416015625</LongitudeDegrees>
            </Position>
            <AltitudeMeters>1144</AltitudeMeters>
            <DistanceMeters>100661.94384251</DistanceMeters>
          </Trackpoint>
          <Trackpoint>
            <Time>2019-08-02T09:52:05.000Z</Time>
            <Position>
              <LatitudeDegrees>40.89976399205625057220458984375</LatitudeDegrees>
              <LongitudeDegrees>-4.07892845571041107177734375</LongitudeDegrees>
            </Position>
            <AltitudeMeters>1143.4000244140625</AltitudeMeters>
            <DistanceMeters>100724.22093214</DistanceMeters>
          </Trackpoint>
          <Trackpoint>
            <Time>2019-08-02T09:52:08.000Z</Time>
            <Position>
              <LatitudeDegrees>40.89991034008562564849853515625</LatitudeDegrees>
              <LongitudeDegrees>-4.0789805911481380462646484375</LongitudeDegrees>
            </Position>
            <AltitudeMeters>1143</AltitudeMeters>
            <DistanceMeters>100741.08971303</DistanceMeters>
          </Trackpoint>
          <Trackpoint>
            <Time>2019-08-02T09:52:15.000Z</Time>
            <Position>
              <LatitudeDegrees>40.900253914296627044677734375</LatitudeDegrees>
              <LongitudeDegrees>-4.07905041240155696868896484375</LongitudeDegrees>
            </Position>
            <AltitudeMeters>1141.800048828125</AltitudeMeters>
            <DistanceMeters>100779.7787752</DistanceMeters>
          </Trackpoint>
          <Trackpoint>
            <Time>2019-08-02T09:52:19.000Z</Time>
            <Position>
              <LatitudeDegrees>40.9004545770585536956787109375</LatitudeDegrees>
              <LongitudeDegrees>-4.07909416593611240386962890625</LongitudeDegrees>
            </Position>
            <AltitudeMeters>1141.199951171875</AltitudeMeters>
            <DistanceMeters>100802.41429016</DistanceMeters>
          </Trackpoint>
          <Trackpoint>
            <Time>2019-08-02T09:52:21.000Z</Time>
            <Position>
              <LatitudeDegrees>40.90055088512599468231201171875</LatitudeDegrees>
              <LongitudeDegrees>-4.079131968319416046142578125</LongitudeDegrees>
            </Position>
            <AltitudeMeters>1141.199951171875</AltitudeMeters>
            <DistanceMeters>100813.59599121</DistanceMeters>
          </Trackpoint>
          <Trackpoint>
            <Time>2019-08-02T09:52:26.000Z</Time>
            <Position>
              <LatitudeDegrees>40.90079697780311107635498046875</LatitudeDegrees>
              <LongitudeDegrees>-4.07920095138251781463623046875</LongitudeDegrees>
            </Position>
            <AltitudeMeters>1141</AltitudeMeters>
            <DistanceMeters>100841.59454468</DistanceMeters>
          </Trackpoint>
          <Trackpoint>
            <Time>2019-08-02T09:52:37.000Z</Time>
            <Position>
              <LatitudeDegrees>40.90133258141577243804931640625</LatitudeDegrees>
              <LongitudeDegrees>-4.0793892927467823028564453125</LongitudeDegrees>
            </Position>
            <AltitudeMeters>1140.199951171875</AltitudeMeters>
            <DistanceMeters>100903.27808243</DistanceMeters>
          </Trackpoint>
          <Trackpoint>
            <Time>2019-08-02T09:52:39.000Z</Time>
            <Position>
              <LatitudeDegrees>40.90142964385449886322021484375</LatitudeDegrees>
              <LongitudeDegrees>-4.0794285200536251068115234375</LongitudeDegrees>
            </Position>
            <AltitudeMeters>1140</AltitudeMeters>
            <DistanceMeters>100914.57387723</DistanceMeters>
          </Trackpoint>
          <Trackpoint>
            <Time>2019-08-02T09:52:51.000Z</Time>
            <Position>
              <LatitudeDegrees>40.901976563036441802978515625</LatitudeDegrees>
              <LongitudeDegrees>-4.0796591900289058685302734375</LongitudeDegrees>
            </Position>
            <AltitudeMeters>1139.199951171875</AltitudeMeters>
            <DistanceMeters>100978.46533439</DistanceMeters>
          </Trackpoint>
          <Trackpoint>
            <Time>2019-08-02T09:53:03.000Z</Time>
            <Position>
              <LatitudeDegrees>40.9025086462497711181640625</LatitudeDegrees>
              <LongitudeDegrees>-4.0799307636916637420654296875</LongitudeDegrees>
            </Position>
            <AltitudeMeters>1139.5999755859375</AltitudeMeters>
            <DistanceMeters>101041.94118798</DistanceMeters>
          </Trackpoint>
          <Trackpoint>
            <Time>2019-08-02T09:53:05.000Z</Time>
            <Position>
              <LatitudeDegrees>40.9026020206511020660400390625</LatitudeDegrees>
              <LongitudeDegrees>-4.07997309230268001556396484375</LongitudeDegrees>
            </Position>
            <AltitudeMeters>1139.5999755859375</AltitudeMeters>
            <DistanceMeters>101052.92653921</DistanceMeters>
          </Trackpoint>
          <Trackpoint>
            <Time>2019-08-02T09:53:10.000Z</Time>
            <Position>
              <LatitudeDegrees>40.90285523794591426849365234375</LatitudeDegrees>
              <LongitudeDegrees>-4.08006261102855205535888671875</LongitudeDegrees>
            </Position>
            <AltitudeMeters>1139.199951171875</AltitudeMeters>
            <DistanceMeters>101082.09896667</DistanceMeters>
          </Trackpoint>
          <Trackpoint>
            <Time>2019-08-02T09:53:17.000Z</Time>
            <Position>
              <LatitudeDegrees>40.90316570363938808441162109375</LatitudeDegrees>
              <LongitudeDegrees>-4.08025573007762432098388671875</LongitudeDegrees>
            </Position>
            <AltitudeMeters>1139.199951171875</AltitudeMeters>
            <DistanceMeters>101120.28291884</DistanceMeters>
          </Trackpoint>
          <Trackpoint>
            <Time>2019-08-02T09:53:28.000Z</Time>
            <Position>
              <LatitudeDegrees>40.9036574698984622955322265625</LatitudeDegrees>
              <LongitudeDegrees>-4.080610536038875579833984375</LongitudeDegrees>
            </Position>
            <AltitudeMeters>1138</AltitudeMeters>
            <DistanceMeters>101182.62681688</DistanceMeters>
          </Trackpoint>
          <Trackpoint>
            <Time>2019-08-02T09:53:34.000Z</Time>
            <Position>
              <LatitudeDegrees>40.9039437957108020782470703125</LatitudeDegrees>
              <LongitudeDegrees>-4.08084891736507415771484375</LongitudeDegrees>
            </Position>
            <AltitudeMeters>1136.800048828125</AltitudeMeters>
            <DistanceMeters>101220.27982595</DistanceMeters>
          </Trackpoint>
          <Trackpoint>
            <Time>2019-08-02T09:53:39.000Z</Time>
            <Position>
              <LatitudeDegrees>40.90418435633182525634765625</LatitudeDegrees>
              <LongitudeDegrees>-4.08101345412433147430419921875</LongitudeDegrees>
            </Position>
            <AltitudeMeters>1136.5999755859375</AltitudeMeters>
            <DistanceMeters>101250.42082578</DistanceMeters>
          </Trackpoint>
          <Trackpoint>
            <Time>2019-08-02T09:53:41.000Z</Time>
            <Position>
              <LatitudeDegrees>40.90426255948841571807861328125</LatitudeDegrees>
              <LongitudeDegrees>-4.0810760669410228729248046875</LongitudeDegrees>
            </Position>
            <AltitudeMeters>1136.199951171875</AltitudeMeters>
            <DistanceMeters>101260.59489902</DistanceMeters>
          </Trackpoint>
          <Trackpoint>
            <Time>2019-08-02T09:53:44.000Z</Time>
            <Position>
              <LatitudeDegrees>40.90438677929341793060302734375</LatitudeDegrees>
              <LongitudeDegrees>-4.0811540186405181884765625</LongitudeDegrees>
            </Position>
            <AltitudeMeters>1135.800048828125</AltitudeMeters>
            <DistanceMeters>101275.89685583</DistanceMeters>
          </Trackpoint>
          <Trackpoint>
            <Time>2019-08-02T09:53:54.000Z</Time>
            <Position>
              <LatitudeDegrees>40.904682241380214691162109375</LatitudeDegrees>
              <LongitudeDegrees>-4.081085622310638427734375</LongitudeDegrees>
            </Position>
            <AltitudeMeters>1134.199951171875</AltitudeMeters>
            <DistanceMeters>101309.28167596</DistanceMeters>
          </Trackpoint>
          <Trackpoint>
            <Time>2019-08-02T09:53:56.000Z</Time>
            <Position>
              <LatitudeDegrees>40.90474435128271579742431640625</LatitudeDegrees>
              <LongitudeDegrees>-4.08113348297774791717529296875</LongitudeDegrees>
            </Position>
            <AltitudeMeters>1133</AltitudeMeters>
            <DistanceMeters>101317.28143544</DistanceMeters>
          </Trackpoint>
          <Trackpoint>
            <Time>2019-08-02T09:53:59.000Z</Time>
            <Position>
              <LatitudeDegrees>40.9048768691718578338623046875</LatitudeDegrees>
              <LongitudeDegrees>-4.08123917877674102783203125</LongitudeDegrees>
            </Position>
            <AltitudeMeters>1132</AltitudeMeters>
            <DistanceMeters>101334.50356919</DistanceMeters>
          </Trackpoint>
          <Trackpoint>
            <Time>2019-08-02T09:54:00.000Z</Time>
            <Position>
              <LatitudeDegrees>40.9049315191805362701416015625</LatitudeDegrees>
              <LongitudeDegrees>-4.0812711976468563079833984375</LongitudeDegrees>
            </Position>
            <AltitudeMeters>1131.5999755859375</AltitudeMeters>
            <DistanceMeters>101341.1554392</DistanceMeters>
          </Trackpoint>
          <Trackpoint>
            <Time>2019-08-02T09:54:04.000Z</Time>
            <Position>
              <LatitudeDegrees>40.9051541425287723541259765625</LatitudeDegrees>
              <LongitudeDegrees>-4.08138074912130832672119140625</LongitudeDegrees>
            </Position>
            <AltitudeMeters>1130.800048828125</AltitudeMeters>
            <DistanceMeters>101367.5923425</DistanceMeters>
          </Trackpoint>
          <Trackpoint>
            <Time>2019-08-02T09:54:15.000Z</Time>
            <Position>
              <LatitudeDegrees>40.905691087245941162109375</LatitudeDegrees>
              <LongitudeDegrees>-4.08163757063448429107666015625</LongitudeDegrees>
            </Position>
            <AltitudeMeters>1130.5999755859375</AltitudeMeters>
            <DistanceMeters>101431.14042309</DistanceMeters>
          </Trackpoint>
          <Trackpoint>
            <Time>2019-08-02T09:54:27.000Z</Time>
            <Position>
              <LatitudeDegrees>40.9062273614108562469482421875</LatitudeDegrees>
              <LongitudeDegrees>-4.0819052048027515411376953125</LongitudeDegrees>
            </Position>
            <AltitudeMeters>1131.199951171875</AltitudeMeters>
            <DistanceMeters>101494.93357704</DistanceMeters>
          </Trackpoint>
          <Trackpoint>
            <Time>2019-08-02T09:54:31.000Z</Time>
            <Position>
              <LatitudeDegrees>40.90635887347161769866943359375</LatitudeDegrees>
              <LongitudeDegrees>-4.0820151753723621368408203125</LongitudeDegrees>
            </Position>
            <AltitudeMeters>1131.800048828125</AltitudeMeters>
            <DistanceMeters>101512.2495722</DistanceMeters>
          </Trackpoint>
          <Trackpoint>
            <Time>2019-08-02T09:54:32.000Z</Time>
            <Position>
              <LatitudeDegrees>40.90635887347161769866943359375</LatitudeDegrees>
              <LongitudeDegrees>-4.0820151753723621368408203125</LongitudeDegrees>
            </Position>
            <AltitudeMeters>1132</AltitudeMeters>
            <DistanceMeters>101512.34459892</DistanceMeters>
          </Trackpoint>
          <Trackpoint>
            <Time>2019-08-02T09:54:43.000Z</Time>
            <Position>
              <LatitudeDegrees>40.90683815069496631622314453125</LatitudeDegrees>
              <LongitudeDegrees>-4.08236998133361339569091796875</LongitudeDegrees>
            </Position>
            <AltitudeMeters>1132.4000244140625</AltitudeMeters>
            <DistanceMeters>101573.47093457</DistanceMeters>
          </Trackpoint>
          <Trackpoint>
            <Time>2019-08-02T09:54:56.000Z</Time>
            <Position>
              <LatitudeDegrees>40.90742387808859348297119140625</LatitudeDegrees>
              <LongitudeDegrees>-4.08250945620238780975341796875</LongitudeDegrees>
            </Position>
            <AltitudeMeters>1131.4000244140625</AltitudeMeters>
            <DistanceMeters>101639.71082568</DistanceMeters>
          </Trackpoint>
          <Trackpoint>
            <Time>2019-08-02T09:55:02.000Z</Time>
            <Position>
              <LatitudeDegrees>40.90767617337405681610107421875</LatitudeDegrees>
              <LongitudeDegrees>-4.082564525306224822998046875</LongitudeDegrees>
            </Position>
            <AltitudeMeters>1131</AltitudeMeters>
            <DistanceMeters>101668.17112833</DistanceMeters>
          </Trackpoint>
          <Trackpoint>
            <Time>2019-08-02T09:55:15.000Z</Time>
            <Position>
              <LatitudeDegrees>40.90821295045316219329833984375</LatitudeDegrees>
              <LongitudeDegrees>-4.08275253139436244964599609375</LongitudeDegrees>
            </Position>
            <AltitudeMeters>1130</AltitudeMeters>
            <DistanceMeters>101729.97327728</DistanceMeters>
          </Trackpoint>
          <Trackpoint>
            <Time>2019-08-02T09:55:18.000Z</Time>
            <Position>
              <LatitudeDegrees>40.90834940783679485321044921875</LatitudeDegrees>
              <LongitudeDegrees>-4.08278991468250751495361328125</LongitudeDegrees>
            </Position>
            <AltitudeMeters>1130</AltitudeMeters>
            <DistanceMeters>101745.48331391</DistanceMeters>
          </Trackpoint>
          <Trackpoint>
            <Time>2019-08-02T09:55:27.000Z</Time>
            <Position>
              <LatitudeDegrees>40.908783338963985443115234375</LatitudeDegrees>
              <LongitudeDegrees>-4.08292201347649097442626953125</LongitudeDegrees>
            </Position>
            <AltitudeMeters>1128.800048828125</AltitudeMeters>
            <DistanceMeters>101795.04245588</DistanceMeters>
          </Trackpoint>
          <Trackpoint>
            <Time>2019-08-02T09:55:34.000Z</Time>
            <Position>
              <LatitudeDegrees>40.90912808664143085479736328125</LatitudeDegrees>
              <LongitudeDegrees>-4.083147905766963958740234375</LongitudeDegrees>
            </Position>
            <AltitudeMeters>1127.800048828125</AltitudeMeters>
            <DistanceMeters>101837.86061185</DistanceMeters>
          </Trackpoint>
          <Trackpoint>
            <Time>2019-08-02T09:55:35.000Z</Time>
            <Position>
              <LatitudeDegrees>40.90912808664143085479736328125</LatitudeDegrees>
              <LongitudeDegrees>-4.083147905766963958740234375</LongitudeDegrees>
            </Position>
            <AltitudeMeters>1127.800048828125</AltitudeMeters>
            <DistanceMeters>101837.86061185</DistanceMeters>
          </Trackpoint>
          <Trackpoint>
            <Time>2019-08-02T09:55:36.000Z</Time>
            <Position>
              <LatitudeDegrees>40.9091699123382568359375</LatitudeDegrees>
              <LongitudeDegrees>-4.0831966884434223175048828125</LongitudeDegrees>
            </Position>
            <AltitudeMeters>1127.5999755859375</AltitudeMeters>
            <DistanceMeters>101844.06651839</DistanceMeters>
          </Trackpoint>
          <Trackpoint>
            <Time>2019-08-02T09:55:37.000Z</Time>
            <Position>
              <LatitudeDegrees>40.909247361123561859130859375</LatitudeDegrees>
              <LongitudeDegrees>-4.08330104313790798187255859375</LongitudeDegrees>
            </Position>
            <AltitudeMeters>1127.4000244140625</AltitudeMeters>
            <DistanceMeters>101856.36945062</DistanceMeters>
          </Trackpoint>
          <Trackpoint>
            <Time>2019-08-02T09:55:44.000Z</Time>
            <Position>
              <LatitudeDegrees>40.909490101039409637451171875</LatitudeDegrees>
              <LongitudeDegrees>-4.083678312599658966064453125</LongitudeDegrees>
            </Position>
            <AltitudeMeters>1126.800048828125</AltitudeMeters>
            <DistanceMeters>101898.0468719</DistanceMeters>
          </Trackpoint>
          <Trackpoint>
            <Time>2019-08-02T09:55:48.000Z</Time>
            <Position>
              <LatitudeDegrees>40.9096123091876506805419921875</LatitudeDegrees>
              <LongitudeDegrees>-4.0838146023452281951904296875</LongitudeDegrees>
            </Position>
            <AltitudeMeters>1126.5999755859375</AltitudeMeters>
            <DistanceMeters>101915.83591344</DistanceMeters>
          </Trackpoint>
          <Trackpoint>
            <Time>2019-08-02T09:55:53.000Z</Time>
            <Position>
              <LatitudeDegrees>40.90985077433288097381591796875</LatitudeDegrees>
              <LongitudeDegrees>-4.08406916074454784393310546875</LongitudeDegrees>
            </Position>
            <AltitudeMeters>1125.800048828125</AltitudeMeters>
            <DistanceMeters>101949.9379284</DistanceMeters>
          </Trackpoint>
          <Trackpoint>
            <Time>2019-08-02T09:55:55.000Z</Time>
            <Position>
              <LatitudeDegrees>40.90993593446910381317138671875</LatitudeDegrees>
              <LongitudeDegrees>-4.08413462340831756591796875</LongitudeDegrees>
            </Position>
            <AltitudeMeters>1125.5999755859375</AltitudeMeters>
            <DistanceMeters>101960.90023917</DistanceMeters>
          </Trackpoint>
          <Trackpoint>
            <Time>2019-08-02T09:55:56.000Z</Time>
            <Position>
              <LatitudeDegrees>40.9099760837852954864501953125</LatitudeDegrees>
              <LongitudeDegrees>-4.0841683186590671539306640625</LongitudeDegrees>
            </Position>
            <AltitudeMeters>1125.4000244140625</AltitudeMeters>
            <DistanceMeters>101966.191956</DistanceMeters>
          </Trackpoint>
          <Trackpoint>
            <Time>2019-08-02T09:56:01.000Z</Time>
            <Position>
              <LatitudeDegrees>40.9101943485438823699951171875</LatitudeDegrees>
              <LongitudeDegrees>-4.084290526807308197021484375</LongitudeDegrees>
            </Position>
            <AltitudeMeters>1124.5999755859375</AltitudeMeters>
            <DistanceMeters>101992.57055719</DistanceMeters>
          </Trackpoint>
          <Trackpoint>
            <Time>2019-08-02T09:56:02.000Z</Time>
            <Position>
              <LatitudeDegrees>40.91023332439363002777099609375</LatitudeDegrees>
              <LongitudeDegrees>-4.08432665280997753143310546875</LongitudeDegrees>
            </Position>
            <AltitudeMeters>1124.5999755859375</AltitudeMeters>
            <DistanceMeters>101997.86568583</DistanceMeters>
          </Trackpoint>
          <Trackpoint>
            <Time>2019-08-02T09:56:04.000Z</Time>
            <Position>
              <LatitudeDegrees>40.91030222363770008087158203125</LatitudeDegrees>
              <LongitudeDegrees>-4.0844160877168178558349609375</LongitudeDegrees>
            </Position>
            <AltitudeMeters>1124.4000244140625</AltitudeMeters>
            <DistanceMeters>102008.60832876</DistanceMeters>
          </Trackpoint>
          <Trackpoint>
            <Time>2019-08-02T09:56:16.000Z</Time>
            <Position>
              <LatitudeDegrees>40.91078619472682476043701171875</LatitudeDegrees>
              <LongitudeDegrees>-4.08480660058557987213134765625</LongitudeDegrees>
            </Position>
            <AltitudeMeters>1123.4000244140625</AltitudeMeters>
            <DistanceMeters>102071.70055703</DistanceMeters>
          </Trackpoint>
          <Trackpoint>
            <Time>2019-08-02T09:56:27.000Z</Time>
            <Position>
              <LatitudeDegrees>40.9112471155822277069091796875</LatitudeDegrees>
              <LongitudeDegrees>-4.0852056629955768585205078125</LongitudeDegrees>
            </Position>
            <AltitudeMeters>1123.5999755859375</AltitudeMeters>
            <DistanceMeters>102133.00766614</DistanceMeters>
          </Trackpoint>
          <Trackpoint>
            <Time>2019-08-02T09:56:29.000Z</Time>
            <Position>
              <LatitudeDegrees>40.91133286245167255401611328125</LatitudeDegrees>
              <LongitudeDegrees>-4.0852899849414825439453125</LongitudeDegrees>
            </Position>
            <AltitudeMeters>1123.4000244140625</AltitudeMeters>
            <DistanceMeters>102144.89854235</DistanceMeters>
          </Trackpoint>
          <Trackpoint>
            <Time>2019-08-02T09:56:40.000Z</Time>
            <Position>
              <LatitudeDegrees>40.9118066914379596710205078125</LatitudeDegrees>
              <LongitudeDegrees>-4.085729531943798065185546875</LongitudeDegrees>
            </Position>
            <AltitudeMeters>1123</AltitudeMeters>
            <DistanceMeters>102209.30520704</DistanceMeters>
          </Trackpoint>
          <Trackpoint>
            <Time>2019-08-02T09:56:46.000Z</Time>
            <Position>
              <LatitudeDegrees>40.91204867698252201080322265625</LatitudeDegrees>
              <LongitudeDegrees>-4.08596598543226718902587890625</LongitudeDegrees>
            </Position>
            <AltitudeMeters>1122.800048828125</AltitudeMeters>
            <DistanceMeters>102242.78618118</DistanceMeters>
          </Trackpoint>
          <Trackpoint>
            <Time>2019-08-02T09:56:48.000Z</Time>
            <Position>
              <LatitudeDegrees>40.91212579049170017242431640625</LatitudeDegrees>
              <LongitudeDegrees>-4.086067490279674530029296875</LongitudeDegrees>
            </Position>
            <AltitudeMeters>1122.4000244140625</AltitudeMeters>
            <DistanceMeters>102254.89230115</DistanceMeters>
          </Trackpoint>
          <Trackpoint>
            <Time>2019-08-02T09:56:55.000Z</Time>
            <Position>
              <LatitudeDegrees>40.9124547801911830902099609375</LatitudeDegrees>
              <LongitudeDegrees>-4.0863647125661373138427734375</LongitudeDegrees>
            </Position>
            <AltitudeMeters>1121.199951171875</AltitudeMeters>
            <DistanceMeters>102299.22997792</DistanceMeters>
          </Trackpoint>
          <Trackpoint>
            <Time>2019-08-02T09:56:59.000Z</Time>
            <Position>
              <LatitudeDegrees>40.91263423673808574676513671875</LatitudeDegrees>
              <LongitudeDegrees>-4.08652623184025287628173828125</LongitudeDegrees>
            </Position>
            <AltitudeMeters>1120.199951171875</AltitudeMeters>
            <DistanceMeters>102323.38620983</DistanceMeters>
          </Trackpoint>
          <Trackpoint>
            <Time>2019-08-02T09:57:00.000Z</Time>
            <Position>
              <LatitudeDegrees>40.91267480514943599700927734375</LatitudeDegrees>
              <LongitudeDegrees>-4.0865720808506011962890625</LongitudeDegrees>
            </Position>
            <AltitudeMeters>1120</AltitudeMeters>
            <DistanceMeters>102329.32442913</DistanceMeters>
          </Trackpoint>
          <Trackpoint>
            <Time>2019-08-02T09:57:05.000Z</Time>
            <Position>
              <LatitudeDegrees>40.91287714429199695587158203125</LatitudeDegrees>
              <LongitudeDegrees>-4.08679864369332790374755859375</LongitudeDegrees>
            </Position>
            <AltitudeMeters>1119.199951171875</AltitudeMeters>
            <DistanceMeters>102358.82590076</DistanceMeters>
          </Trackpoint>
          <Trackpoint>
            <Time>2019-08-02T09:57:09.000Z</Time>
            <Position>
              <LatitudeDegrees>40.91304629109799861907958984375</LatitudeDegrees>
              <LongitudeDegrees>-4.08695940859615802764892578125</LongitudeDegrees>
            </Position>
            <AltitudeMeters>1118.199951171875</AltitudeMeters>
            <DistanceMeters>102382.00540783</DistanceMeters>
          </Trackpoint>
          <Trackpoint>
            <Time>2019-08-02T09:57:14.000Z</Time>
            <Position>
              <LatitudeDegrees>40.91326296329498291015625</LatitudeDegrees>
              <LongitudeDegrees>-4.08714515157043933868408203125</LongitudeDegrees>
            </Position>
            <AltitudeMeters>1117</AltitudeMeters>
            <DistanceMeters>102410.73963846</DistanceMeters>
          </Trackpoint>
          <Trackpoint>
            <Time>2019-08-02T09:57:20.000Z</Time>
            <Position>
              <LatitudeDegrees>40.913538224995136260986328125</LatitudeDegrees>
              <LongitudeDegrees>-4.0872974507510662078857421875</LongitudeDegrees>
            </Position>
            <AltitudeMeters>1115.800048828125</AltitudeMeters>
            <DistanceMeters>102443.94709056</DistanceMeters>
          </Trackpoint>
          <Trackpoint>
            <Time>2019-08-02T09:57:28.000Z</Time>
            <Position>
              <LatitudeDegrees>40.91386503539979457855224609375</LatitudeDegrees>
              <LongitudeDegrees>-4.08759140409529209136962890625</LongitudeDegrees>
            </Position>
            <AltitudeMeters>1115.199951171875</AltitudeMeters>
            <DistanceMeters>102487.92916618</DistanceMeters>
          </Trackpoint>
          <Trackpoint>
            <Time>2019-08-02T09:57:32.000Z</Time>
            <Position>
              <LatitudeDegrees>40.9140228666365146636962890625</LatitudeDegrees>
              <LongitudeDegrees>-4.087674133479595184326171875</LongitudeDegrees>
            </Position>
            <AltitudeMeters>1114.800048828125</AltitudeMeters>
            <DistanceMeters>102506.82419548</DistanceMeters>
          </Trackpoint>
          <Trackpoint>
            <Time>2019-08-02T09:57:45.000Z</Time>
            <Position>
              <LatitudeDegrees>40.9144764952361583709716796875</LatitudeDegrees>
              <LongitudeDegrees>-4.0881465375423431396484375</LongitudeDegrees>
            </Position>
            <AltitudeMeters>1114.4000244140625</AltitudeMeters>
            <DistanceMeters>102571.07363973</DistanceMeters>
          </Trackpoint>
          <Trackpoint>
            <Time>2019-08-02T09:57:49.000Z</Time>
            <Position>
              <LatitudeDegrees>40.9146049059927463531494140625</LatitudeDegrees>
              <LongitudeDegrees>-4.08829799853265285491943359375</LongitudeDegrees>
            </Position>
            <AltitudeMeters>1113.800048828125</AltitudeMeters>
            <DistanceMeters>102590.21934141</DistanceMeters>
          </Trackpoint>
          <Trackpoint>
            <Time>2019-08-02T09:58:02.000Z</Time>
            <Position>
              <LatitudeDegrees>40.915030874311923980712890625</LatitudeDegrees>
              <LongitudeDegrees>-4.0887820534408092498779296875</LongitudeDegrees>
            </Position>
            <AltitudeMeters>1113</AltitudeMeters>
            <DistanceMeters>102652.71253865</DistanceMeters>
          </Trackpoint>
          <Trackpoint>
            <Time>2019-08-02T09:58:07.000Z</Time>
            <Position>
              <LatitudeDegrees>40.91518954373896121978759765625</LatitudeDegrees>
              <LongitudeDegrees>-4.08893703483045101165771484375</LongitudeDegrees>
            </Position>
            <AltitudeMeters>1112.800048828125</AltitudeMeters>
            <DistanceMeters>102674.66268122</DistanceMeters>
          </Trackpoint>
          <Trackpoint>
            <Time>2019-08-02T09:58:21.000Z</Time>
            <Position>
              <LatitudeDegrees>40.91559405438601970672607421875</LatitudeDegrees>
              <LongitudeDegrees>-4.08945755101740360260009765625</LongitudeDegrees>
            </Position>
            <AltitudeMeters>1112</AltitudeMeters>
            <DistanceMeters>102737.46175244</DistanceMeters>
          </Trackpoint>
          <Trackpoint>
            <Time>2019-08-02T09:58:29.000Z</Time>
            <Position>
              <LatitudeDegrees>40.91583210043609142303466796875</LatitudeDegrees>
              <LongitudeDegrees>-4.08976265229284763336181640625</LongitudeDegrees>
            </Position>
            <AltitudeMeters>1111.5999755859375</AltitudeMeters>
            <DistanceMeters>102774.34656472</DistanceMeters>
          </Trackpoint>
          <Trackpoint>
            <Time>2019-08-02T09:58:36.000Z</Time>
            <Position>
              <LatitudeDegrees>40.916045419871807098388671875</LatitudeDegrees>
              <LongitudeDegrees>-4.0900346450507640838623046875</LongitudeDegrees>
            </Position>
            <AltitudeMeters>1110.199951171875</AltitudeMeters>
            <DistanceMeters>102807.31713739</DistanceMeters>
          </Trackpoint>
          <Trackpoint>
            <Time>2019-08-02T09:58:43.000Z</Time>
            <Position>
              <LatitudeDegrees>40.9162765927612781524658203125</LatitudeDegrees>
              <LongitudeDegrees>-4.090319462120532989501953125</LongitudeDegrees>
            </Position>
            <AltitudeMeters>1109</AltitudeMeters>
            <DistanceMeters>102842.47239849</DistanceMeters>
          </Trackpoint>
          <Trackpoint>
            <Time>2019-08-02T09:58:51.000Z</Time>
            <Position>
              <LatitudeDegrees>40.9165531955659389495849609375</LatitudeDegrees>
              <LongitudeDegrees>-4.090666808187961578369140625</LongitudeDegrees>
            </Position>
            <AltitudeMeters>1107.800048828125</AltitudeMeters>
            <DistanceMeters>102884.91392919</DistanceMeters>
          </Trackpoint>
          <Trackpoint>
            <Time>2019-08-02T09:58:57.000Z</Time>
            <Position>
              <LatitudeDegrees>40.9167654253542423248291015625</LatitudeDegrees>
              <LongitudeDegrees>-4.09091055393218994140625</LongitudeDegrees>
            </Position>
            <AltitudeMeters>1107</AltitudeMeters>
            <DistanceMeters>102916.19100181</DistanceMeters>
          </Trackpoint>
          <Trackpoint>
            <Time>2019-08-02T09:59:07.000Z</Time>
            <Position>
              <LatitudeDegrees>40.9171000309288501739501953125</LatitudeDegrees>
              <LongitudeDegrees>-4.0913187526166439056396484375</LongitudeDegrees>
            </Position>
            <AltitudeMeters>1105.800048828125</AltitudeMeters>
            <DistanceMeters>102966.84353876</DistanceMeters>
          </Trackpoint>
          <Trackpoint>
            <Time>2019-08-02T09:59:18.000Z</Time>
            <Position>
              <LatitudeDegrees>40.91748937033116817474365234375</LatitudeDegrees>
              <LongitudeDegrees>-4.09182443283498287200927734375</LongitudeDegrees>
            </Position>
            <AltitudeMeters>1106</AltitudeMeters>
            <DistanceMeters>103027.5619657</DistanceMeters>
          </Trackpoint>
          <Trackpoint>
            <Time>2019-08-02T09:59:29.000Z</Time>
            <Position>
              <LatitudeDegrees>40.91786555014550685882568359375</LatitudeDegrees>
              <LongitudeDegrees>-4.09230723045766353607177734375</LongitudeDegrees>
            </Position>
            <AltitudeMeters>1106.199951171875</AltitudeMeters>
            <DistanceMeters>103085.88785814</DistanceMeters>
          </Trackpoint>
          <Trackpoint>
            <Time>2019-08-02T09:59:33.000Z</Time>
            <Position>
              <LatitudeDegrees>40.91801122762262821197509765625</LatitudeDegrees>
              <LongitudeDegrees>-4.09226900897920131683349609375</LongitudeDegrees>
            </Position>
            <AltitudeMeters>1106.800048828125</AltitudeMeters>
            <DistanceMeters>103102.41759053</DistanceMeters>
          </Trackpoint>
          <Trackpoint>
            <Time>2019-08-02T09:59:35.000Z</Time>
            <Position>
              <LatitudeDegrees>40.9180823899805545806884765625</LatitudeDegrees>
              <LongitudeDegrees>-4.0922048874199390411376953125</LongitudeDegrees>
            </Position>
            <AltitudeMeters>1107</AltitudeMeters>
            <DistanceMeters>103112.00069428</DistanceMeters>
          </Trackpoint>
          <Trackpoint>
            <Time>2019-08-02T09:59:46.000Z</Time>
            <Position>
              <LatitudeDegrees>40.91849905438721179962158203125</LatitudeDegrees>
              <LongitudeDegrees>-4.09175184555351734161376953125</LongitudeDegrees>
            </Position>
            <AltitudeMeters>1106.199951171875</AltitudeMeters>
            <DistanceMeters>103172.02185694</DistanceMeters>
          </Trackpoint>
          <Trackpoint>
            <Time>2019-08-02T09:59:54.000Z</Time>
            <Position>
              <LatitudeDegrees>40.91884396970272064208984375</LatitudeDegrees>
              <LongitudeDegrees>-4.091386310756206512451171875</LongitudeDegrees>
            </Position>
            <AltitudeMeters>1105.4000244140625</AltitudeMeters>
            <DistanceMeters>103221.20430978</DistanceMeters>
          </Trackpoint>
          <Trackpoint>
            <Time>2019-08-02T10:00:03.000Z</Time>
            <Position>
              <LatitudeDegrees>40.9191814251244068145751953125</LatitudeDegrees>
              <LongitudeDegrees>-4.090925641357898712158203125</LongitudeDegrees>
            </Position>
            <AltitudeMeters>1104.4000244140625</AltitudeMeters>
            <DistanceMeters>103275.16542847</DistanceMeters>
          </Trackpoint>
          <Trackpoint>
            <Time>2019-08-02T10:00:04.000Z</Time>
            <Position>
              <LatitudeDegrees>40.9192189760506153106689453125</LatitudeDegrees>
              <LongitudeDegrees>-4.09087392501533031463623046875</LongitudeDegrees>
            </Position>
            <AltitudeMeters>1104.199951171875</AltitudeMeters>
            <DistanceMeters>103281.19644396</DistanceMeters>
          </Trackpoint>
          <Trackpoint>
            <Time>2019-08-02T10:00:14.000Z</Time>
            <Position>
              <LatitudeDegrees>40.9196467883884906768798828125</LatitudeDegrees>
              <LongitudeDegrees>-4.0903353877365589141845703125</LongitudeDegrees>
            </Position>
            <AltitudeMeters>1104.199951171875</AltitudeMeters>
            <DistanceMeters>103346.91358344</DistanceMeters>
          </Trackpoint>
          <Trackpoint>
            <Time>2019-08-02T10:00:18.000Z</Time>
            <Position>
              <LatitudeDegrees>40.9197954833507537841796875</LatitudeDegrees>
              <LongitudeDegrees>-4.09012307412922382354736328125</LongitudeDegrees>
            </Position>
            <AltitudeMeters>1103.199951171875</AltitudeMeters>
            <DistanceMeters>103371.26008787</DistanceMeters>
          </Trackpoint>
          <Trackpoint>
            <Time>2019-08-02T10:00:29.000Z</Time>
            <Position>
              <LatitudeDegrees>40.92019337229430675506591796875</LatitudeDegrees>
              <LongitudeDegrees>-4.08963709138333797454833984375</LongitudeDegrees>
            </Position>
            <AltitudeMeters>1103</AltitudeMeters>
            <DistanceMeters>103431.52440886</DistanceMeters>
          </Trackpoint>
          <Trackpoint>
            <Time>2019-08-02T10:00:37.000Z</Time>
            <Position>
              <LatitudeDegrees>40.9204675443470478057861328125</LatitudeDegrees>
              <LongitudeDegrees>-4.08931396901607513427734375</LongitudeDegrees>
            </Position>
            <AltitudeMeters>1102.800048828125</AltitudeMeters>
            <DistanceMeters>103472.38655901</DistanceMeters>
          </Trackpoint>
          <Trackpoint>
            <Time>2019-08-02T10:00:39.000Z</Time>
            <Position>
              <LatitudeDegrees>40.920544825494289398193359375</LatitudeDegrees>
              <LongitudeDegrees>-4.08924783580005168914794921875</LongitudeDegrees>
            </Position>
            <AltitudeMeters>1102.800048828125</AltitudeMeters>
            <DistanceMeters>103482.63006858</DistanceMeters>
          </Trackpoint>
          <Trackpoint>
            <Time>2019-08-02T10:00:44.000Z</Time>
            <Position>
              <LatitudeDegrees>40.9207914210855960845947265625</LatitudeDegrees>
              <LongitudeDegrees>-4.08924959599971771240234375</LongitudeDegrees>
            </Position>
            <AltitudeMeters>1102.4000244140625</AltitudeMeters>
            <DistanceMeters>103510.07700151</DistanceMeters>
          </Trackpoint>
          <Trackpoint>
            <Time>2019-08-02T10:00:55.000Z</Time>
            <Position>
              <LatitudeDegrees>40.92133733443915843963623046875</LatitudeDegrees>
              <LongitudeDegrees>-4.08930399455130100250244140625</LongitudeDegrees>
            </Position>
            <AltitudeMeters>1103.4000244140625</AltitudeMeters>
            <DistanceMeters>103571.01024704</DistanceMeters>
          </Trackpoint>
          <Trackpoint>
            <Time>2019-08-02T10:01:07.000Z</Time>
            <Position>
              <LatitudeDegrees>40.92169842682778835296630859375</LatitudeDegrees>
              <LongitudeDegrees>-4.0892239473760128021240234375</LongitudeDegrees>
            </Position>
            <AltitudeMeters>1103.5999755859375</AltitudeMeters>
            <DistanceMeters>103611.76042345</DistanceMeters>
          </Trackpoint>
          <Trackpoint>
            <Time>2019-08-02T10:01:22.000Z</Time>
            <Position>
              <LatitudeDegrees>40.922115929424762725830078125</LatitudeDegrees>
              <LongitudeDegrees>-4.089718647301197052001953125</LongitudeDegrees>
            </Position>
            <AltitudeMeters>1103.199951171875</AltitudeMeters>
            <DistanceMeters>103674.13255949</DistanceMeters>
          </Trackpoint>
          <Trackpoint>
            <Time>2019-08-02T10:01:34.000Z</Time>
            <Position>
              <LatitudeDegrees>40.9224594198167324066162109375</LatitudeDegrees>
              <LongitudeDegrees>-4.09029624424874782562255859375</LongitudeDegrees>
            </Position>
            <AltitudeMeters>1104.199951171875</AltitudeMeters>
            <DistanceMeters>103735.94858757</DistanceMeters>
          </Trackpoint>
          <Trackpoint>
            <Time>2019-08-02T10:01:35.000Z</Time>
            <Position>
              <LatitudeDegrees>40.92248951084911823272705078125</LatitudeDegrees>
              <LongitudeDegrees>-4.0903508104383945465087890625</LongitudeDegrees>
            </Position>
            <AltitudeMeters>1104.4000244140625</AltitudeMeters>
            <DistanceMeters>103741.62956401</DistanceMeters>
          </Trackpoint>
          <Trackpoint>
            <Time>2019-08-02T10:01:46.000Z</Time>
            <Position>
              <LatitudeDegrees>40.9228379465639591217041015625</LatitudeDegrees>
              <LongitudeDegrees>-4.0908942930400371551513671875</LongitudeDegrees>
            </Position>
            <AltitudeMeters>1105.199951171875</AltitudeMeters>
            <DistanceMeters>103801.57199061</DistanceMeters>
          </Trackpoint>
          <Trackpoint>
            <Time>2019-08-02T10:01:47.000Z</Time>
            <Position>
              <LatitudeDegrees>40.92286401428282260894775390625</LatitudeDegrees>
              <LongitudeDegrees>-4.0909462608397006988525390625</LongitudeDegrees>
            </Position>
            <AltitudeMeters>1105.4000244140625</AltitudeMeters>
            <DistanceMeters>103806.81656999</DistanceMeters>
          </Trackpoint>
          <Trackpoint>
            <Time>2019-08-02T10:01:52.000Z</Time>
            <Position>
              <LatitudeDegrees>40.9229670278728008270263671875</LatitudeDegrees>
              <LongitudeDegrees>-4.09122579731047153472900390625</LongitudeDegrees>
            </Position>
            <AltitudeMeters>1106.4000244140625</AltitudeMeters>
            <DistanceMeters>103832.97223078</DistanceMeters>
          </Trackpoint>
          <Trackpoint>
            <Time>2019-08-02T10:01:58.000Z</Time>
            <Position>
              <LatitudeDegrees>40.92307783663272857666015625</LatitudeDegrees>
              <LongitudeDegrees>-4.09152653999626636505126953125</LongitudeDegrees>
            </Position>
            <AltitudeMeters>1107.199951171875</AltitudeMeters>
            <DistanceMeters>103861.11105135</DistanceMeters>
          </Trackpoint>
          <Trackpoint>
            <Time>2019-08-02T10:02:00.000Z</Time>
            <Position>
              <LatitudeDegrees>40.92313039116561412811279296875</LatitudeDegrees>
              <LongitudeDegrees>-4.091610275208950042724609375</LongitudeDegrees>
            </Position>
            <AltitudeMeters>1107.199951171875</AltitudeMeters>
            <DistanceMeters>103870.2657299</DistanceMeters>
          </Trackpoint>
          <Trackpoint>
            <Time>2019-08-02T10:02:03.000Z</Time>
            <Position>
              <LatitudeDegrees>40.92320733703672885894775390625</LatitudeDegrees>
              <LongitudeDegrees>-4.0917401947081089019775390625</LongitudeDegrees>
            </Position>
            <AltitudeMeters>1107.199951171875</AltitudeMeters>
            <DistanceMeters>103884.14873936</DistanceMeters>
          </Trackpoint>
          <Trackpoint>
            <Time>2019-08-02T10:02:06.000Z</Time>
            <Position>
              <LatitudeDegrees>40.9232945926487445831298828125</LatitudeDegrees>
              <LongitudeDegrees>-4.09187656827270984649658203125</LongitudeDegrees>
            </Position>
            <AltitudeMeters>1107.800048828125</AltitudeMeters>
            <DistanceMeters>103899.17678687</DistanceMeters>
          </Trackpoint>
          <Trackpoint>
            <Time>2019-08-02T10:02:09.000Z</Time>
            <Position>
              <LatitudeDegrees>40.92338101007044315338134765625</LatitudeDegrees>
              <LongitudeDegrees>-4.09201956354081630706787109375</LongitudeDegrees>
            </Position>
            <AltitudeMeters>1109.199951171875</AltitudeMeters>
            <DistanceMeters>103914.57580656</DistanceMeters>
          </Trackpoint>
          <Trackpoint>
            <Time>2019-08-02T10:02:10.000Z</Time>
            <Position>
              <LatitudeDegrees>40.92342308722436428070068359375</LatitudeDegrees>
              <LongitudeDegrees>-4.09204940311610698699951171875</LongitudeDegrees>
            </Position>
            <AltitudeMeters>1109.4000244140625</AltitudeMeters>
            <DistanceMeters>103919.889661</DistanceMeters>
          </Trackpoint>
          <Trackpoint>
            <Time>2019-08-02T10:02:12.000Z</Time>
            <Position>
              <LatitudeDegrees>40.92350439168512821197509765625</LatitudeDegrees>
              <LongitudeDegrees>-4.09210346639156341552734375</LongitudeDegrees>
            </Position>
            <AltitudeMeters>1110.4000244140625</AltitudeMeters>
            <DistanceMeters>103930.01703027</DistanceMeters>
          </Trackpoint>
          <Trackpoint>
            <Time>2019-08-02T10:02:14.000Z</Time>
            <Position>
              <LatitudeDegrees>40.92358049936592578887939453125</LatitudeDegrees>
              <LongitudeDegrees>-4.092180244624614715576171875</LongitudeDegrees>
            </Position>
            <AltitudeMeters>1111.5999755859375</AltitudeMeters>
            <DistanceMeters>103940.66850342</DistanceMeters>
          </Trackpoint>
          <Trackpoint>
            <Time>2019-08-02T10:02:15.000Z</Time>
            <Position>
              <LatitudeDegrees>40.92362140305340290069580078125</LatitudeDegrees>
              <LongitudeDegrees>-4.09221720881760120391845703125</LongitudeDegrees>
            </Position>
            <AltitudeMeters>1112.199951171875</AltitudeMeters>
            <DistanceMeters>103946.18087199</DistanceMeters>
          </Trackpoint>
          <Trackpoint>
            <Time>2019-08-02T10:02:18.000Z</Time>
            <Position>
              <LatitudeDegrees>40.92373472638428211212158203125</LatitudeDegrees>
              <LongitudeDegrees>-4.0923316217958927154541015625</LongitudeDegrees>
            </Position>
            <AltitudeMeters>1112.800048828125</AltitudeMeters>
            <DistanceMeters>103962.04464205</DistanceMeters>
          </Trackpoint>
          <Trackpoint>
            <Time>2019-08-02T10:02:27.000Z</Time>
            <Position>
              <LatitudeDegrees>40.924025662243366241455078125</LatitudeDegrees>
              <LongitudeDegrees>-4.09275482408702373504638671875</LongitudeDegrees>
            </Position>
            <AltitudeMeters>1112.5999755859375</AltitudeMeters>
            <DistanceMeters>104010.16157628</DistanceMeters>
          </Trackpoint>
          <Trackpoint>
            <Time>2019-08-02T10:02:30.000Z</Time>
            <Position>
              <LatitudeDegrees>40.9240928851068019866943359375</LatitudeDegrees>
              <LongitudeDegrees>-4.0929210372269153594970703125</LongitudeDegrees>
            </Position>
            <AltitudeMeters>1112.800048828125</AltitudeMeters>
            <DistanceMeters>104026.01652087</DistanceMeters>
          </Trackpoint>
          <Trackpoint>
            <Time>2019-08-02T10:02:34.000Z</Time>
            <Position>
              <LatitudeDegrees>40.92419975437223911285400390625</LatitudeDegrees>
              <LongitudeDegrees>-4.09315598197281360626220703125</LongitudeDegrees>
            </Position>
            <AltitudeMeters>1113.5999755859375</AltitudeMeters>
            <DistanceMeters>104049.07905613</DistanceMeters>
          </Trackpoint>
          <Trackpoint>
            <Time>2019-08-02T10:02:35.000Z</Time>
            <Position>
              <LatitudeDegrees>40.9242189489305019378662109375</LatitudeDegrees>
              <LongitudeDegrees>-4.093221612274646759033203125</LongitudeDegrees>
            </Position>
            <AltitudeMeters>1114</AltitudeMeters>
            <DistanceMeters>104054.9974737</DistanceMeters>
          </Trackpoint>
          <Trackpoint>
            <Time>2019-08-02T10:02:37.000Z</Time>
            <Position>
              <LatitudeDegrees>40.92426211573183536529541015625</LatitudeDegrees>
              <LongitudeDegrees>-4.09335228614509105682373046875</LongitudeDegrees>
            </Position>
            <AltitudeMeters>1114.4000244140625</AltitudeMeters>
            <DistanceMeters>104066.99156174</DistanceMeters>
          </Trackpoint>
          <Trackpoint>
            <Time>2019-08-02T10:02:40.000Z</Time>
            <Position>
              <LatitudeDegrees>40.924348868429660797119140625</LatitudeDegrees>
              <LongitudeDegrees>-4.09351154230535030364990234375</LongitudeDegrees>
            </Position>
            <AltitudeMeters>1115</AltitudeMeters>
            <DistanceMeters>104083.50270973</DistanceMeters>
          </Trackpoint>
          <Trackpoint>
            <Time>2019-08-02T10:02:41.000Z</Time>
            <Position>
              <LatitudeDegrees>40.92438348568975925445556640625</LatitudeDegrees>
              <LongitudeDegrees>-4.09355747513473033905029296875</LongitudeDegrees>
            </Position>
            <AltitudeMeters>1115.199951171875</AltitudeMeters>
            <DistanceMeters>104088.95826945</DistanceMeters>
          </Trackpoint>
          <Trackpoint>
            <Time>2019-08-02T10:02:45.000Z</Time>
            <Position>
              <LatitudeDegrees>40.924519188702106475830078125</LatitudeDegrees>
              <LongitudeDegrees>-4.09376299940049648284912109375</LongitudeDegrees>
            </Position>
            <AltitudeMeters>1115.5999755859375</AltitudeMeters>
            <DistanceMeters>104111.91189314</DistanceMeters>
          </Trackpoint>
          <Trackpoint>
            <Time>2019-08-02T10:02:51.000Z</Time>
            <Position>
              <LatitudeDegrees>40.92467685230076313018798828125</LatitudeDegrees>
              <LongitudeDegrees>-4.09419768489897251129150390625</LongitudeDegrees>
            </Position>
            <AltitudeMeters>1116.5999755859375</AltitudeMeters>
            <DistanceMeters>104152.46136329</DistanceMeters>
          </Trackpoint>
          <Trackpoint>
            <Time>2019-08-02T10:02:53.000Z</Time>
            <Position>
              <LatitudeDegrees>40.92472814954817295074462890625</LatitudeDegrees>
              <LongitudeDegrees>-4.09434637986123561859130859375</LongitudeDegrees>
            </Position>
            <AltitudeMeters>1117</AltitudeMeters>
            <DistanceMeters>104166.20775844</DistanceMeters>
          </Trackpoint>
          <Trackpoint>
            <Time>2019-08-02T10:02:55.000Z</Time>
            <Position>
              <LatitudeDegrees>40.92478581704199314117431640625</LatitudeDegrees>
              <LongitudeDegrees>-4.09448132850229740142822265625</LongitudeDegrees>
            </Position>
            <AltitudeMeters>1117.4000244140625</AltitudeMeters>
            <DistanceMeters>104179.24617165</DistanceMeters>
          </Trackpoint>
          <Trackpoint>
            <Time>2019-08-02T10:02:57.000Z</Time>
            <Position>
              <LatitudeDegrees>40.92484096996486186981201171875</LatitudeDegrees>
              <LongitudeDegrees>-4.09461007453501224517822265625</LongitudeDegrees>
            </Position>
            <AltitudeMeters>1117.800048828125</AltitudeMeters>
            <DistanceMeters>104191.69285762</DistanceMeters>
          </Trackpoint>
          <Trackpoint>
            <Time>2019-08-02T10:02:58.000Z</Time>
            <Position>
              <LatitudeDegrees>40.92487114481627941131591796875</LatitudeDegrees>
              <LongitudeDegrees>-4.09467059187591075897216796875</LongitudeDegrees>
            </Position>
            <AltitudeMeters>1117.800048828125</AltitudeMeters>
            <DistanceMeters>104197.79087818</DistanceMeters>
          </Trackpoint>
          <Trackpoint>
            <Time>2019-08-02T10:03:03.000Z</Time>
            <Position>
              <LatitudeDegrees>40.92503241263329982757568359375</LatitudeDegrees>
              <LongitudeDegrees>-4.09493193961679935455322265625</LongitudeDegrees>
            </Position>
            <AltitudeMeters>1118.199951171875</AltitudeMeters>
            <DistanceMeters>104226.16745262</DistanceMeters>
          </Trackpoint>
          <Trackpoint>
            <Time>2019-08-02T10:03:06.000Z</Time>
            <Position>
              <LatitudeDegrees>40.92511740513145923614501953125</LatitudeDegrees>
              <LongitudeDegrees>-4.09510376863181591033935546875</LongitudeDegrees>
            </Position>
            <AltitudeMeters>1118.800048828125</AltitudeMeters>
            <DistanceMeters>104243.43880303</DistanceMeters>
          </Trackpoint>
          <Trackpoint>
            <Time>2019-08-02T10:03:12.000Z</Time>
            <Position>
              <LatitudeDegrees>40.92526509426534175872802734375</LatitudeDegrees>
              <LongitudeDegrees>-4.095476679503917694091796875</LongitudeDegrees>
            </Position>
            <AltitudeMeters>1120.199951171875</AltitudeMeters>
            <DistanceMeters>104278.84616996</DistanceMeters>
          </Trackpoint>
          <Trackpoint>
            <Time>2019-08-02T10:03:18.000Z</Time>
            <Position>
              <LatitudeDegrees>40.925339274108409881591796875</LatitudeDegrees>
              <LongitudeDegrees>-4.0959267877042293548583984375</LongitudeDegrees>
            </Position>
            <AltitudeMeters>1120.800048828125</AltitudeMeters>
            <DistanceMeters>104317.58841108</DistanceMeters>
          </Trackpoint>
          <Trackpoint>
            <Time>2019-08-02T10:03:20.000Z</Time>
            <Position>
              <LatitudeDegrees>40.92535008676350116729736328125</LatitudeDegrees>
              <LongitudeDegrees>-4.09606777131557464599609375</LongitudeDegrees>
            </Position>
            <AltitudeMeters>1120.4000244140625</AltitudeMeters>
            <DistanceMeters>104329.50583707</DistanceMeters>
          </Trackpoint>
          <Trackpoint>
            <Time>2019-08-02T10:03:31.000Z</Time>
            <Position>
              <LatitudeDegrees>40.92559115029871463775634765625</LatitudeDegrees>
              <LongitudeDegrees>-4.096775539219379425048828125</LongitudeDegrees>
            </Position>
            <AltitudeMeters>1120.4000244140625</AltitudeMeters>
            <DistanceMeters>104394.79410006</DistanceMeters>
          </Trackpoint>
          <Trackpoint>
            <Time>2019-08-02T10:03:32.000Z</Time>
            <Position>
              <LatitudeDegrees>40.9256207384169101715087890625</LatitudeDegrees>
              <LongitudeDegrees>-4.09683647565543651580810546875</LongitudeDegrees>
            </Position>
            <AltitudeMeters>1120.4000244140625</AltitudeMeters>
            <DistanceMeters>104400.88619446</DistanceMeters>
          </Trackpoint>
          <Trackpoint>
            <Time>2019-08-02T10:03:38.000Z</Time>
            <Position>
              <LatitudeDegrees>40.925846882164478302001953125</LatitudeDegrees>
              <LongitudeDegrees>-4.0971601009368896484375</LongitudeDegrees>
            </Position>
            <AltitudeMeters>1120.800048828125</AltitudeMeters>
            <DistanceMeters>104437.95660171</DistanceMeters>
          </Trackpoint>
          <Trackpoint>
            <Time>2019-08-02T10:03:41.000Z</Time>
            <Position>
              <LatitudeDegrees>40.92596850357949733734130859375</LatitudeDegrees>
              <LongitudeDegrees>-4.097283147275447845458984375</LongitudeDegrees>
            </Position>
            <AltitudeMeters>1120.199951171875</AltitudeMeters>
            <DistanceMeters>104454.99529173</DistanceMeters>
          </Trackpoint>
          <Trackpoint>
            <Time>2019-08-02T10:03:45.000Z</Time>
            <Position>
              <LatitudeDegrees>40.92610714025795459747314453125</LatitudeDegrees>
              <LongitudeDegrees>-4.0974838100373744964599609375</LongitudeDegrees>
            </Position>
            <AltitudeMeters>1119.800048828125</AltitudeMeters>
            <DistanceMeters>104477.86141266</DistanceMeters>
          </Trackpoint>
          <Trackpoint>
            <Time>2019-08-02T10:03:46.000Z</Time>
            <Position>
              <LatitudeDegrees>40.9261447750031948089599609375</LatitudeDegrees>
              <LongitudeDegrees>-4.09753619693219661712646484375</LongitudeDegrees>
            </Position>
            <AltitudeMeters>1119.5999755859375</AltitudeMeters>
            <DistanceMeters>104483.94015207</DistanceMeters>
          </Trackpoint>
          <Trackpoint>
            <Time>2019-08-02T10:03:47.000Z</Time>
            <Position>
              <LatitudeDegrees>40.926186181604862213134765625</LatitudeDegrees>
              <LongitudeDegrees>-4.0975860692560672760009765625</LongitudeDegrees>
            </Position>
            <AltitudeMeters>1119.5999755859375</AltitudeMeters>
            <DistanceMeters>104490.17147045</DistanceMeters>
          </Trackpoint>
          <Trackpoint>
            <Time>2019-08-02T10:03:52.000Z</Time>
            <Position>
              <LatitudeDegrees>40.926398746669292449951171875</LatitudeDegrees>
              <LongitudeDegrees>-4.0978395380079746246337890625</LongitudeDegrees>
            </Position>
            <AltitudeMeters>1118.4000244140625</AltitudeMeters>
            <DistanceMeters>104522.0160553</DistanceMeters>
          </Trackpoint>
          <Trackpoint>
            <Time>2019-08-02T10:03:55.000Z</Time>
            <Position>
              <LatitudeDegrees>40.92650972306728363037109375</LatitudeDegrees>
              <LongitudeDegrees>-4.098009355366230010986328125</LongitudeDegrees>
            </Position>
            <AltitudeMeters>1117.5999755859375</AltitudeMeters>
            <DistanceMeters>104540.89745933</DistanceMeters>
          </Trackpoint>
          <Trackpoint>
            <Time>2019-08-02T10:04:00.000Z</Time>
            <Position>
              <LatitudeDegrees>40.92669010162353515625</LatitudeDegrees>
              <LongitudeDegrees>-4.09828352741897106170654296875</LongitudeDegrees>
            </Position>
            <AltitudeMeters>1116.4000244140625</AltitudeMeters>
            <DistanceMeters>104571.46948956</DistanceMeters>
          </Trackpoint>
          <Trackpoint>
            <Time>2019-08-02T10:04:03.000Z</Time>
            <Position>
              <LatitudeDegrees>40.9268116392195224761962890625</LatitudeDegrees>
              <LongitudeDegrees>-4.0984252654016017913818359375</LongitudeDegrees>
            </Position>
            <AltitudeMeters>1115.5999755859375</AltitudeMeters>
            <DistanceMeters>104589.49853922</DistanceMeters>
          </Trackpoint>
          <Trackpoint>
            <Time>2019-08-02T10:04:05.000Z</Time>
            <Position>
              <LatitudeDegrees>40.926890261471271514892578125</LatitudeDegrees>
              <LongitudeDegrees>-4.098525680601596832275390625</LongitudeDegrees>
            </Position>
            <AltitudeMeters>1115</AltitudeMeters>
            <DistanceMeters>104601.65973126</DistanceMeters>
          </Trackpoint>
          <Trackpoint>
            <Time>2019-08-02T10:04:07.000Z</Time>
            <Position>
              <LatitudeDegrees>40.92696477659046649932861328125</LatitudeDegrees>
              <LongitudeDegrees>-4.09863171167671680450439453125</LongitudeDegrees>
            </Position>
            <AltitudeMeters>1114.199951171875</AltitudeMeters>
            <DistanceMeters>104613.83687729</DistanceMeters>
          </Trackpoint>
          <Trackpoint>
            <Time>2019-08-02T10:04:11.000Z</Time>
            <Position>
              <LatitudeDegrees>40.92711615376174449920654296875</LatitudeDegrees>
              <LongitudeDegrees>-4.09883757121860980987548828125</LongitudeDegrees>
            </Position>
            <AltitudeMeters>1113.199951171875</AltitudeMeters>
            <DistanceMeters>104637.99366991</DistanceMeters>
          </Trackpoint>
          <Trackpoint>
            <Time>2019-08-02T10:04:15.000Z</Time>
            <Position>
              <LatitudeDegrees>40.9272676147520542144775390625</LatitudeDegrees>
              <LongitudeDegrees>-4.0990277566015720367431640625</LongitudeDegrees>
            </Position>
            <AltitudeMeters>1112.199951171875</AltitudeMeters>
            <DistanceMeters>104661.23076205</DistanceMeters>
          </Trackpoint>
          <Trackpoint>
            <Time>2019-08-02T10:04:16.000Z</Time>
            <Position>
              <LatitudeDegrees>40.92730038799345493316650390625</LatitudeDegrees>
              <LongitudeDegrees>-4.09908366389572620391845703125</LongitudeDegrees>
            </Position>
            <AltitudeMeters>1112</AltitudeMeters>
            <DistanceMeters>104667.18189302</DistanceMeters>
          </Trackpoint>
          <Trackpoint>
            <Time>2019-08-02T10:04:19.000Z</Time>
            <Position>
              <LatitudeDegrees>40.9273980371654033660888671875</LatitudeDegrees>
              <LongitudeDegrees>-4.09925750456750392913818359375</LongitudeDegrees>
            </Position>
            <AltitudeMeters>1111</AltitudeMeters>
            <DistanceMeters>104685.39829358</DistanceMeters>
          </Trackpoint>
          <Trackpoint>
            <Time>2019-08-02T10:04:25.000Z</Time>
            <Position>
              <LatitudeDegrees>40.92761269770562648773193359375</LatitudeDegrees>
              <LongitudeDegrees>-4.09957434050738811492919921875</LongitudeDegrees>
            </Position>
            <AltitudeMeters>1109.800048828125</AltitudeMeters>
            <DistanceMeters>104721.18540972</DistanceMeters>
          </Trackpoint>
          <Trackpoint>
            <Time>2019-08-02T10:04:28.000Z</Time>
            <Position>
              <LatitudeDegrees>40.92771797440946102142333984375</LatitudeDegrees>
              <LongitudeDegrees>-4.0997283160686492919921875</LongitudeDegrees>
            </Position>
            <AltitudeMeters>1108.800048828125</AltitudeMeters>
            <DistanceMeters>104738.64810371</DistanceMeters>
          </Trackpoint>
          <Trackpoint>
            <Time>2019-08-02T10:04:32.000Z</Time>
            <Position>
              <LatitudeDegrees>40.92783766798675060272216796875</LatitudeDegrees>
              <LongitudeDegrees>-4.09995689056813716888427734375</LongitudeDegrees>
            </Position>
            <AltitudeMeters>1107.800048828125</AltitudeMeters>
            <DistanceMeters>104762.03471677</DistanceMeters>
          </Trackpoint>
          <Trackpoint>
            <Time>2019-08-02T10:04:43.000Z</Time>
            <Position>
              <LatitudeDegrees>40.92812952585518360137939453125</LatitudeDegrees>
              <LongitudeDegrees>-4.10059793852269649505615234375</LongitudeDegrees>
            </Position>
            <AltitudeMeters>1107.5999755859375</AltitudeMeters>
            <DistanceMeters>104824.97296931</DistanceMeters>
          </Trackpoint>
          <Trackpoint>
            <Time>2019-08-02T10:04:54.000Z</Time>
            <Position>
              <LatitudeDegrees>40.928428508341312408447265625</LatitudeDegrees>
              <LongitudeDegrees>-4.10125021822750568389892578125</LongitudeDegrees>
            </Position>
            <AltitudeMeters>1108.4000244140625</AltitudeMeters>
            <DistanceMeters>104889.12958538</DistanceMeters>
          </Trackpoint>
          <Trackpoint>
            <Time>2019-08-02T10:04:56.000Z</Time>
            <Position>
              <LatitudeDegrees>40.92848919332027435302734375</LatitudeDegrees>
              <LongitudeDegrees>-4.1013606078922748565673828125</LongitudeDegrees>
            </Position>
            <AltitudeMeters>1108.199951171875</AltitudeMeters>
            <DistanceMeters>104900.60934738</DistanceMeters>
          </Trackpoint>
          <Trackpoint>
            <Time>2019-08-02T10:05:00.000Z</Time>
            <Position>
              <LatitudeDegrees>40.928567312657833099365234375</LatitudeDegrees>
              <LongitudeDegrees>-4.10160544328391551971435546875</LongitudeDegrees>
            </Position>
            <AltitudeMeters>1108.4000244140625</AltitudeMeters>
            <DistanceMeters>104922.95841041</DistanceMeters>
          </Trackpoint>
          <Trackpoint>
            <Time>2019-08-02T10:05:05.000Z</Time>
            <Position>
              <LatitudeDegrees>40.92865808866918087005615234375</LatitudeDegrees>
              <LongitudeDegrees>-4.10191657952964305877685546875</LongitudeDegrees>
            </Position>
            <AltitudeMeters>1108.800048828125</AltitudeMeters>
            <DistanceMeters>104951.00530006</DistanceMeters>
          </Trackpoint>
          <Trackpoint>
            <Time>2019-08-02T10:05:10.000Z</Time>
            <Position>
              <LatitudeDegrees>40.92879504896700382232666015625</LatitudeDegrees>
              <LongitudeDegrees>-4.10223894752562046051025390625</LongitudeDegrees>
            </Position>
            <AltitudeMeters>1109</AltitudeMeters>
            <DistanceMeters>104982.10590469</DistanceMeters>
          </Trackpoint>
          <Trackpoint>
            <Time>2019-08-02T10:05:20.000Z</Time>
            <Position>
              <LatitudeDegrees>40.92914256267249584197998046875</LatitudeDegrees>
              <LongitudeDegrees>-4.102869518101215362548828125</LongitudeDegrees>
            </Position>
            <AltitudeMeters>1108.800048828125</AltitudeMeters>
            <DistanceMeters>105047.73944678</DistanceMeters>
          </Trackpoint>
          <Trackpoint>
            <Time>2019-08-02T10:05:24.000Z</Time>
            <Position>
              <LatitudeDegrees>40.92926963232457637786865234375</LatitudeDegrees>
              <LongitudeDegrees>-4.10308283753693103790283203125</LongitudeDegrees>
            </Position>
            <AltitudeMeters>1108.4000244140625</AltitudeMeters>
            <DistanceMeters>105070.58245375</DistanceMeters>
          </Trackpoint>
          <Trackpoint>
            <Time>2019-08-02T10:05:29.000Z</Time>
            <Position>
              <LatitudeDegrees>40.9294113703072071075439453125</LatitudeDegrees>
              <LongitudeDegrees>-4.10330579616129398345947265625</LongitudeDegrees>
            </Position>
            <AltitudeMeters>1107.5999755859375</AltitudeMeters>
            <DistanceMeters>105095.08516161</DistanceMeters>
          </Trackpoint>
          <Trackpoint>
            <Time>2019-08-02T10:05:34.000Z</Time>
            <Position>
              <LatitudeDegrees>40.9295940957963466644287109375</LatitudeDegrees>
              <LongitudeDegrees>-4.10357368178665637969970703125</LongitudeDegrees>
            </Position>
            <AltitudeMeters>1106.199951171875</AltitudeMeters>
            <DistanceMeters>105125.4342604</DistanceMeters>
          </Trackpoint>
          <Trackpoint>
            <Time>2019-08-02T10:05:37.000Z</Time>
            <Position>
              <LatitudeDegrees>40.929709263145923614501953125</LatitudeDegrees>
              <LongitudeDegrees>-4.10377618856728076934814453125</LongitudeDegrees>
            </Position>
            <AltitudeMeters>1105.800048828125</AltitudeMeters>
            <DistanceMeters>105146.74822497</DistanceMeters>
          </Trackpoint>
          <Trackpoint>
            <Time>2019-08-02T10:05:40.000Z</Time>
            <Position>
              <LatitudeDegrees>40.92978763394057750701904296875</LatitudeDegrees>
              <LongitudeDegrees>-4.1040216945111751556396484375</LongitudeDegrees>
            </Position>
            <AltitudeMeters>1105.4000244140625</AltitudeMeters>
            <DistanceMeters>105169.16002927</DistanceMeters>
          </Trackpoint>
          <Trackpoint>
            <Time>2019-08-02T10:05:48.000Z</Time>
            <Position>
              <LatitudeDegrees>40.93005786649882793426513671875</LatitudeDegrees>
              <LongitudeDegrees>-4.1045075096189975738525390625</LongitudeDegrees>
            </Position>
            <AltitudeMeters>1104.5999755859375</AltitudeMeters>
            <DistanceMeters>105219.89041254</DistanceMeters>
          </Trackpoint>
          <Trackpoint>
            <Time>2019-08-02T10:05:56.000Z</Time>
            <Position>
              <LatitudeDegrees>40.9302462078630924224853515625</LatitudeDegrees>
              <LongitudeDegrees>-4.10486130975186824798583984375</LongitudeDegrees>
            </Position>
            <AltitudeMeters>1104.199951171875</AltitudeMeters>
            <DistanceMeters>105256.28502386</DistanceMeters>
          </Trackpoint>
          <Trackpoint>
            <Time>2019-08-02T10:06:04.000Z</Time>
            <Position>
              <LatitudeDegrees>40.9303893707692623138427734375</LatitudeDegrees>
              <LongitudeDegrees>-4.10525492392480373382568359375</LongitudeDegrees>
            </Position>
            <AltitudeMeters>1103.800048828125</AltitudeMeters>
            <DistanceMeters>105293.0197018</DistanceMeters>
          </Trackpoint>
          <Trackpoint>
            <Time>2019-08-02T10:06:06.000Z</Time>
            <Position>
              <LatitudeDegrees>40.93042398802936077117919921875</LatitudeDegrees>
              <LongitudeDegrees>-4.1053353063762187957763671875</LongitudeDegrees>
            </Position>
            <AltitudeMeters>1103.5999755859375</AltitudeMeters>
            <DistanceMeters>105300.79971481</DistanceMeters>
          </Trackpoint>
          <Trackpoint>
            <Time>2019-08-02T10:06:22.000Z</Time>
            <Position>
              <LatitudeDegrees>40.93063252978026866912841796875</LatitudeDegrees>
              <LongitudeDegrees>-4.10603108815848827362060546875</LongitudeDegrees>
            </Position>
            <AltitudeMeters>1102.800048828125</AltitudeMeters>
            <DistanceMeters>105363.74341918</DistanceMeters>
          </Trackpoint>
          <Trackpoint>
            <Time>2019-08-02T10:06:26.000Z</Time>
            <Position>
              <LatitudeDegrees>40.93064778484404087066650390625</LatitudeDegrees>
              <LongitudeDegrees>-4.1062177531421184539794921875</LongitudeDegrees>
            </Position>
            <AltitudeMeters>1102</AltitudeMeters>
            <DistanceMeters>105379.53158659</DistanceMeters>
          </Trackpoint>
          <Trackpoint>
            <Time>2019-08-02T10:06:29.000Z</Time>
            <Position>
              <LatitudeDegrees>40.930662788450717926025390625</LatitudeDegrees>
              <LongitudeDegrees>-4.10637374036014080047607421875</LongitudeDegrees>
            </Position>
            <AltitudeMeters>1100.800048828125</AltitudeMeters>
            <DistanceMeters>105392.75430719</DistanceMeters>
          </Trackpoint>
          <Trackpoint>
            <Time>2019-08-02T10:06:33.000Z</Time>
            <Position>
              <LatitudeDegrees>40.93071567825973033905029296875</LatitudeDegrees>
              <LongitudeDegrees>-4.10656903870403766632080078125</LongitudeDegrees>
            </Position>
            <AltitudeMeters>1099.4000244140625</AltitudeMeters>
            <DistanceMeters>105410.19966951</DistanceMeters>
          </Trackpoint>
          <Trackpoint>
            <Time>2019-08-02T10:06:39.000Z</Time>
            <Position>
              <LatitudeDegrees>40.93085548840463161468505859375</LatitudeDegrees>
              <LongitudeDegrees>-4.10679568536579608917236328125</LongitudeDegrees>
            </Position>
            <AltitudeMeters>1098.199951171875</AltitudeMeters>
            <DistanceMeters>105434.80388245</DistanceMeters>
          </Trackpoint>
          <Trackpoint>
            <Time>2019-08-02T10:06:42.000Z</Time>
            <Position>
              <LatitudeDegrees>40.93094198964536190032958984375</LatitudeDegrees>
              <LongitudeDegrees>-4.10690247081220149993896484375</LongitudeDegrees>
            </Position>
            <AltitudeMeters>1097.199951171875</AltitudeMeters>
            <DistanceMeters>105447.96911269</DistanceMeters>
          </Trackpoint>
          <Trackpoint>
            <Time>2019-08-02T10:06:44.000Z</Time>
            <Position>
              <LatitudeDegrees>40.9310035966336727142333984375</LatitudeDegrees>
              <LongitudeDegrees>-4.10696248523890972137451171875</LongitudeDegrees>
            </Position>
            <AltitudeMeters>1096</AltitudeMeters>
            <DistanceMeters>105456.48342146</DistanceMeters>
          </Trackpoint>
          <Trackpoint>
            <Time>2019-08-02T10:06:47.000Z</Time>
            <Position>
              <LatitudeDegrees>40.9310961328446865081787109375</LatitudeDegrees>
              <LongitudeDegrees>-4.1070385091006755828857421875</LongitudeDegrees>
            </Position>
            <AltitudeMeters>1095</AltitudeMeters>
            <DistanceMeters>105468.60594034</DistanceMeters>
          </Trackpoint>
          <Trackpoint>
            <Time>2019-08-02T10:06:50.000Z</Time>
            <Position>
              <LatitudeDegrees>40.93117408454418182373046875</LatitudeDegrees>
              <LongitudeDegrees>-4.10711050964891910552978515625</LongitudeDegrees>
            </Position>
            <AltitudeMeters>1093.800048828125</AltitudeMeters>
            <DistanceMeters>105479.18553379</DistanceMeters>
          </Trackpoint>
          <Trackpoint>
            <Time>2019-08-02T10:06:53.000Z</Time>
            <Position>
              <LatitudeDegrees>40.93125463463366031646728515625</LatitudeDegrees>
              <LongitudeDegrees>-4.10718410275876522064208984375</LongitudeDegrees>
            </Position>
            <AltitudeMeters>1092.800048828125</AltitudeMeters>
            <DistanceMeters>105490.07884524</DistanceMeters>
          </Trackpoint>
          <Trackpoint>
            <Time>2019-08-02T10:06:56.000Z</Time>
            <Position>
              <LatitudeDegrees>40.9313013218343257904052734375</LatitudeDegrees>
              <LongitudeDegrees>-4.10722701810300350189208984375</LongitudeDegrees>
            </Position>
            <AltitudeMeters>1091.4000244140625</AltitudeMeters>
            <DistanceMeters>105496.40508416</DistanceMeters>
          </Trackpoint>
          <Trackpoint>
            <Time>2019-08-02T10:06:59.000Z</Time>
            <Position>
              <LatitudeDegrees>40.9313234500586986541748046875</LatitudeDegrees>
              <LongitudeDegrees>-4.1072626411914825439453125</LongitudeDegrees>
            </Position>
            <AltitudeMeters>1091</AltitudeMeters>
            <DistanceMeters>105500.28375756</DistanceMeters>
          </Trackpoint>
          <Trackpoint>
            <Time>2019-08-02T10:07:02.000Z</Time>
            <Position>
              <LatitudeDegrees>40.9313003160059452056884765625</LatitudeDegrees>
              <LongitudeDegrees>-4.107300527393817901611328125</LongitudeDegrees>
            </Position>
            <AltitudeMeters>1090.4000244140625</AltitudeMeters>
            <DistanceMeters>105504.37983886</DistanceMeters>
          </Trackpoint>
          <Trackpoint>
            <Time>2019-08-02T10:07:06.000Z</Time>
            <Position>
              <LatitudeDegrees>40.9312681294977664947509765625</LatitudeDegrees>
              <LongitudeDegrees>-4.10727412439882755279541015625</LongitudeDegrees>
            </Position>
            <AltitudeMeters>1089</AltitudeMeters>
            <DistanceMeters>105508.59328523</DistanceMeters>
          </Trackpoint>
          <Trackpoint>
            <Time>2019-08-02T10:07:08.000Z</Time>
            <Position>
              <LatitudeDegrees>40.931268967688083648681640625</LatitudeDegrees>
              <LongitudeDegrees>-4.10727269947528839111328125</LongitudeDegrees>
            </Position>
            <AltitudeMeters>1088.4000244140625</AltitudeMeters>
            <DistanceMeters>105508.75787633</DistanceMeters>
          </Trackpoint>
          <Trackpoint>
            <Time>2019-08-02T10:10:54.000Z</Time>
            <Position>
              <LatitudeDegrees>40.93131565488874912261962890625</LatitudeDegrees>
              <LongitudeDegrees>-4.10725333727896213531494140625</LongitudeDegrees>
            </Position>
            <AltitudeMeters>1061.5999755859375</AltitudeMeters>
            <DistanceMeters>105514.20266659</DistanceMeters>
          </Trackpoint>
          <Trackpoint>
            <Time>2019-08-02T10:11:03.000Z</Time>
            <Position>
              <LatitudeDegrees>40.93160055577754974365234375</LatitudeDegrees>
              <LongitudeDegrees>-4.1071551851928234100341796875</LongitudeDegrees>
            </Position>
            <AltitudeMeters>1061.4000244140625</AltitudeMeters>
            <DistanceMeters>105546.96925016</DistanceMeters>
          </Trackpoint>
          <Trackpoint>
            <Time>2019-08-02T10:11:09.000Z</Time>
            <Position>
              <LatitudeDegrees>40.93192401342093944549560546875</LatitudeDegrees>
              <LongitudeDegrees>-4.1071240045130252838134765625</LongitudeDegrees>
            </Position>
            <AltitudeMeters>1061.199951171875</AltitudeMeters>
            <DistanceMeters>105583.06602038</DistanceMeters>
          </Trackpoint>
          <Trackpoint>
            <Time>2019-08-02T10:11:13.000Z</Time>
            <Position>
              <LatitudeDegrees>40.93212383799254894256591796875</LatitudeDegrees>
              <LongitudeDegrees>-4.10718192346394062042236328125</LongitudeDegrees>
            </Position>
            <AltitudeMeters>1061</AltitudeMeters>
            <DistanceMeters>105605.8337945</DistanceMeters>
          </Trackpoint>
          <Trackpoint>
            <Time>2019-08-02T10:11:18.000Z</Time>
            <Position>
              <LatitudeDegrees>40.932233221828937530517578125</LatitudeDegrees>
              <LongitudeDegrees>-4.1072517447173595428466796875</LongitudeDegrees>
            </Position>
            <AltitudeMeters>1060.5999755859375</AltitudeMeters>
            <DistanceMeters>105619.34965357</DistanceMeters>
          </Trackpoint>
          <Trackpoint>
            <Time>2019-08-02T10:11:21.000Z</Time>
            <Position>
              <LatitudeDegrees>40.93227722682058811187744140625</LatitudeDegrees>
              <LongitudeDegrees>-4.1072825901210308074951171875</LongitudeDegrees>
            </Position>
            <AltitudeMeters>1060.199951171875</AltitudeMeters>
            <DistanceMeters>105624.89143036</DistanceMeters>
          </Trackpoint>
          <Trackpoint>
            <Time>2019-08-02T10:11:23.000Z</Time>
            <Position>
              <LatitudeDegrees>40.93233422376215457916259765625</LatitudeDegrees>
              <LongitudeDegrees>-4.1073147766292095184326171875</LongitudeDegrees>
            </Position>
            <AltitudeMeters>1059.5999755859375</AltitudeMeters>
            <DistanceMeters>105631.78790863</DistanceMeters>
          </Trackpoint>
          <Trackpoint>
            <Time>2019-08-02T10:11:24.000Z</Time>
            <Position>
              <LatitudeDegrees>40.93237210996448993682861328125</LatitudeDegrees>
              <LongitudeDegrees>-4.10733179189264774322509765625</LongitudeDegrees>
            </Position>
            <AltitudeMeters>1059.4000244140625</AltitudeMeters>
            <DistanceMeters>105636.24100283</DistanceMeters>
          </Trackpoint>
          <Trackpoint>
            <Time>2019-08-02T10:11:26.000Z</Time>
            <Position>
              <LatitudeDegrees>40.93245483934879302978515625</LatitudeDegrees>
              <LongitudeDegrees>-4.10737940110266208648681640625</LongitudeDegrees>
            </Position>
            <AltitudeMeters>1058.800048828125</AltitudeMeters>
            <DistanceMeters>105646.28240878</DistanceMeters>
          </Trackpoint>
          <Trackpoint>
            <Time>2019-08-02T10:11:29.000Z</Time>
            <Position>
              <LatitudeDegrees>40.932520218193531036376953125</LatitudeDegrees>
              <LongitudeDegrees>-4.10756430588662624359130859375</LongitudeDegrees>
            </Position>
            <AltitudeMeters>1058.199951171875</AltitudeMeters>
            <DistanceMeters>105663.44913662</DistanceMeters>
          </Trackpoint>
          <Trackpoint>
            <Time>2019-08-02T10:11:33.000Z</Time>
            <Position>
              <LatitudeDegrees>40.93238937668502330780029296875</LatitudeDegrees>
              <LongitudeDegrees>-4.10782297141849994659423828125</LongitudeDegrees>
            </Position>
            <AltitudeMeters>1057.4000244140625</AltitudeMeters>
            <DistanceMeters>105689.6246414</DistanceMeters>
          </Trackpoint>
          <Trackpoint>
            <Time>2019-08-02T10:11:36.000Z</Time>
            <Position>
              <LatitudeDegrees>40.9322866983711719512939453125</LatitudeDegrees>
              <LongitudeDegrees>-4.107960350811481475830078125</LongitudeDegrees>
            </Position>
            <AltitudeMeters>1057.199951171875</AltitudeMeters>
            <DistanceMeters>105705.87420955</DistanceMeters>
          </Trackpoint>
          <Trackpoint>
            <Time>2019-08-02T10:11:39.000Z</Time>
            <Position>
              <LatitudeDegrees>40.932207070291042327880859375</LatitudeDegrees>
              <LongitudeDegrees>-4.10810284316539764404296875</LongitudeDegrees>
            </Position>
            <AltitudeMeters>1056.5999755859375</AltitudeMeters>
            <DistanceMeters>105720.77735554</DistanceMeters>
          </Trackpoint>
          <Trackpoint>
            <Time>2019-08-02T10:11:44.000Z</Time>
            <Position>
              <LatitudeDegrees>40.93210523016750812530517578125</LatitudeDegrees>
              <LongitudeDegrees>-4.10835354588925838470458984375</LongitudeDegrees>
            </Position>
            <AltitudeMeters>1056</AltitudeMeters>
            <DistanceMeters>105744.71239491</DistanceMeters>
          </Trackpoint>
          <Trackpoint>
            <Time>2019-08-02T10:11:48.000Z</Time>
            <Position>
              <LatitudeDegrees>40.932030715048313140869140625</LatitudeDegrees>
              <LongitudeDegrees>-4.10854498855769634246826171875</LongitudeDegrees>
            </Position>
            <AltitudeMeters>1054.800048828125</AltitudeMeters>
            <DistanceMeters>105762.82140527</DistanceMeters>
          </Trackpoint>
          <Trackpoint>
            <Time>2019-08-02T10:11:53.000Z</Time>
            <Position>
              <LatitudeDegrees>40.93193993903696537017822265625</LatitudeDegrees>
              <LongitudeDegrees>-4.108781106770038604736328125</LongitudeDegrees>
            </Position>
            <AltitudeMeters>1053.5999755859375</AltitudeMeters>
            <DistanceMeters>105785.09903982</DistanceMeters>
          </Trackpoint>
          <Trackpoint>
            <Time>2019-08-02T10:12:00.000Z</Time>
            <Position>
              <LatitudeDegrees>40.93180230818688869476318359375</LatitudeDegrees>
              <LongitudeDegrees>-4.10911026410758495330810546875</LongitudeDegrees>
            </Position>
            <AltitudeMeters>1052.5999755859375</AltitudeMeters>
            <DistanceMeters>105816.73337452</DistanceMeters>
          </Trackpoint>
          <Trackpoint>
            <Time>2019-08-02T10:12:06.000Z</Time>
            <Position>
              <LatitudeDegrees>40.9316570498049259185791015625</LatitudeDegrees>
              <LongitudeDegrees>-4.10937152802944183349609375</LongitudeDegrees>
            </Position>
            <AltitudeMeters>1051.4000244140625</AltitudeMeters>
            <DistanceMeters>105844.01034555</DistanceMeters>
          </Trackpoint>
          <Trackpoint>
            <Time>2019-08-02T10:12:12.000Z</Time>
            <Position>
              <LatitudeDegrees>40.93148329295217990875244140625</LatitudeDegrees>
              <LongitudeDegrees>-4.10959306173026561737060546875</LongitudeDegrees>
            </Position>
            <AltitudeMeters>1050.4000244140625</AltitudeMeters>
            <DistanceMeters>105870.86241333</DistanceMeters>
          </Trackpoint>
          <Trackpoint>
            <Time>2019-08-02T10:12:19.000Z</Time>
            <Position>
              <LatitudeDegrees>40.93125522136688232421875</LatitudeDegrees>
              <LongitudeDegrees>-4.10979322157800197601318359375</LongitudeDegrees>
            </Position>
            <AltitudeMeters>1049</AltitudeMeters>
            <DistanceMeters>105901.32021714</DistanceMeters>
          </Trackpoint>
          <Trackpoint>
            <Time>2019-08-02T10:12:27.000Z</Time>
            <Position>
              <LatitudeDegrees>40.93097166158258914947509765625</LatitudeDegrees>
              <LongitudeDegrees>-4.10995901562273502349853515625</LongitudeDegrees>
            </Position>
            <AltitudeMeters>1048</AltitudeMeters>
            <DistanceMeters>105935.82289787</DistanceMeters>
          </Trackpoint>
          <Trackpoint>
            <Time>2019-08-02T10:12:38.000Z</Time>
            <Position>
              <LatitudeDegrees>40.9305492974817752838134765625</LatitudeDegrees>
              <LongitudeDegrees>-4.1101056151092052459716796875</LongitudeDegrees>
            </Position>
            <AltitudeMeters>1046.800048828125</AltitudeMeters>
            <DistanceMeters>105984.42235049</DistanceMeters>
          </Trackpoint>
          <Trackpoint>
            <Time>2019-08-02T10:12:41.000Z</Time>
            <Position>
              <LatitudeDegrees>40.93042717315256595611572265625</LatitudeDegrees>
              <LongitudeDegrees>-4.11013453267514705657958984375</LongitudeDegrees>
            </Position>
            <AltitudeMeters>1046.4000244140625</AltitudeMeters>
            <DistanceMeters>105998.2310106</DistanceMeters>
          </Trackpoint>
          <Trackpoint>
            <Time>2019-08-02T10:12:49.000Z</Time>
            <Position>
              <LatitudeDegrees>40.93010815791785717010498046875</LatitudeDegrees>
              <LongitudeDegrees>-4.110158421099185943603515625</LongitudeDegrees>
            </Position>
            <AltitudeMeters>1045.5999755859375</AltitudeMeters>
            <DistanceMeters>106033.79487748</DistanceMeters>
          </Trackpoint>
          <Trackpoint>
            <Time>2019-08-02T10:13:04.000Z</Time>
            <Position>
              <LatitudeDegrees>40.9295501746237277984619140625</LatitudeDegrees>
              <LongitudeDegrees>-4.11019437946379184722900390625</LongitudeDegrees>
            </Position>
            <AltitudeMeters>1044.5999755859375</AltitudeMeters>
            <DistanceMeters>106095.97314481</DistanceMeters>
          </Trackpoint>
          <Trackpoint>
            <Time>2019-08-02T10:13:09.000Z</Time>
            <Position>
              <LatitudeDegrees>40.9293835423886775970458984375</LatitudeDegrees>
              <LongitudeDegrees>-4.11017744801938533782958984375</LongitudeDegrees>
            </Position>
            <AltitudeMeters>1044.4000244140625</AltitudeMeters>
            <DistanceMeters>106114.57412353</DistanceMeters>
          </Trackpoint>
          <Trackpoint>
            <Time>2019-08-02T10:13:18.000Z</Time>
            <Position>
              <LatitudeDegrees>40.9290544688701629638671875</LatitudeDegrees>
              <LongitudeDegrees>-4.1100992448627948760986328125</LongitudeDegrees>
            </Position>
            <AltitudeMeters>1043</AltitudeMeters>
            <DistanceMeters>106151.78627426</DistanceMeters>
          </Trackpoint>
          <Trackpoint>
            <Time>2019-08-02T10:13:31.000Z</Time>
            <Position>
              <LatitudeDegrees>40.9285205416381359100341796875</LatitudeDegrees>
              <LongitudeDegrees>-4.1099661402404308319091796875</LongitudeDegrees>
            </Position>
            <AltitudeMeters>1042.5999755859375</AltitudeMeters>
            <DistanceMeters>106212.25836648</DistanceMeters>
          </Trackpoint>
          <Trackpoint>
            <Time>2019-08-02T10:13:43.000Z</Time>
            <Position>
              <LatitudeDegrees>40.92800430022180080413818359375</LatitudeDegrees>
              <LongitudeDegrees>-4.109840579330921173095703125</LongitudeDegrees>
            </Position>
            <AltitudeMeters>1042.199951171875</AltitudeMeters>
            <DistanceMeters>106270.67916443</DistanceMeters>
          </Trackpoint>
          <Trackpoint>
            <Time>2019-08-02T10:13:48.000Z</Time>
            <Position>
              <LatitudeDegrees>40.92778687365353107452392578125</LatitudeDegrees>
              <LongitudeDegrees>-4.10980663262307643890380859375</LongitudeDegrees>
            </Position>
            <AltitudeMeters>1041.5999755859375</AltitudeMeters>
            <DistanceMeters>106295.04680089</DistanceMeters>
          </Trackpoint>
          <Trackpoint>
            <Time>2019-08-02T10:13:50.000Z</Time>
            <Position>
              <LatitudeDegrees>40.92771847732365131378173828125</LatitudeDegrees>
              <LongitudeDegrees>-4.10987704060971736907958984375</LongitudeDegrees>
            </Position>
            <AltitudeMeters>1041.4000244140625</AltitudeMeters>
            <DistanceMeters>106304.69095909</DistanceMeters>
          </Trackpoint>
          <Trackpoint>
            <Time>2019-08-02T10:13:51.000Z</Time>
            <Position>
              <LatitudeDegrees>40.92768595553934574127197265625</LatitudeDegrees>
              <LongitudeDegrees>-4.1099153459072113037109375</LongitudeDegrees>
            </Position>
            <AltitudeMeters>1041.199951171875</AltitudeMeters>
            <DistanceMeters>106309.5363898</DistanceMeters>
          </Trackpoint>
          <Trackpoint>
            <Time>2019-08-02T10:13:59.000Z</Time>
            <Position>
              <LatitudeDegrees>40.92737951315939426422119140625</LatitudeDegrees>
              <LongitudeDegrees>-4.1102004982531070709228515625</LongitudeDegrees>
            </Position>
            <AltitudeMeters>1040.4000244140625</AltitudeMeters>
            <DistanceMeters>106351.22984127</DistanceMeters>
          </Trackpoint>
          <Trackpoint>
            <Time>2019-08-02T10:14:00.000Z</Time>
            <Position>
              <LatitudeDegrees>40.927343554794788360595703125</LatitudeDegrees>
              <LongitudeDegrees>-4.1102613508701324462890625</LongitudeDegrees>
            </Position>
            <AltitudeMeters>1040.4000244140625</AltitudeMeters>
            <DistanceMeters>106357.7265002</DistanceMeters>
          </Trackpoint>
          <Trackpoint>
            <Time>2019-08-02T10:14:09.000Z</Time>
            <Position>
              <LatitudeDegrees>40.92697240412235260009765625</LatitudeDegrees>
              <LongitudeDegrees>-4.1108353435993194580078125</LongitudeDegrees>
            </Position>
            <AltitudeMeters>1039.5999755859375</AltitudeMeters>
            <DistanceMeters>106421.25916125</DistanceMeters>
          </Trackpoint>
          <Trackpoint>
            <Time>2019-08-02T10:14:16.000Z</Time>
            <Position>
              <LatitudeDegrees>40.92667811550199985504150390625</LatitudeDegrees>
              <LongitudeDegrees>-4.11136834882199764251708984375</LongitudeDegrees>
            </Position>
            <AltitudeMeters>1040.5999755859375</AltitudeMeters>
            <DistanceMeters>106476.77436638</DistanceMeters>
          </Trackpoint>
          <Trackpoint>
            <Time>2019-08-02T10:14:18.000Z</Time>
            <Position>
              <LatitudeDegrees>40.92661726288497447967529296875</LatitudeDegrees>
              <LongitudeDegrees>-4.11157764494419097900390625</LongitudeDegrees>
            </Position>
            <AltitudeMeters>1041.199951171875</AltitudeMeters>
            <DistanceMeters>106495.63327915</DistanceMeters>
          </Trackpoint>
          <Trackpoint>
            <Time>2019-08-02T10:14:24.000Z</Time>
            <Position>
              <LatitudeDegrees>40.9264703281223773956298828125</LatitudeDegrees>
              <LongitudeDegrees>-4.11230796016752719879150390625</LongitudeDegrees>
            </Position>
            <AltitudeMeters>1041.800048828125</AltitudeMeters>
            <DistanceMeters>106559.18874842</DistanceMeters>
          </Trackpoint>
          <Trackpoint>
            <Time>2019-08-02T10:14:27.000Z</Time>
            <Position>
              <LatitudeDegrees>40.9263898618519306182861328125</LatitudeDegrees>
              <LongitudeDegrees>-4.11269369535148143768310546875</LongitudeDegrees>
            </Position>
            <AltitudeMeters>1042.199951171875</AltitudeMeters>
            <DistanceMeters>106592.84055115</DistanceMeters>
          </Trackpoint>
          <Trackpoint>
            <Time>2019-08-02T10:14:31.000Z</Time>
            <Position>
              <LatitudeDegrees>40.926281400024890899658203125</LatitudeDegrees>
              <LongitudeDegrees>-4.11324053071439266204833984375</LongitudeDegrees>
            </Position>
            <AltitudeMeters>1043.199951171875</AltitudeMeters>
            <DistanceMeters>106640.38459205</DistanceMeters>
          </Trackpoint>
          <Trackpoint>
            <Time>2019-08-02T10:14:36.000Z</Time>
            <Position>
              <LatitudeDegrees>40.9261300228536128997802734375</LatitudeDegrees>
              <LongitudeDegrees>-4.1139306128025054931640625</LongitudeDegrees>
            </Position>
            <AltitudeMeters>1044.199951171875</AltitudeMeters>
            <DistanceMeters>106700.81321468</DistanceMeters>
          </Trackpoint>
          <Trackpoint>
            <Time>2019-08-02T10:14:41.000Z</Time>
            <Position>
              <LatitudeDegrees>40.9260257519781589508056640625</LatitudeDegrees>
              <LongitudeDegrees>-4.11461667157709598541259765625</LongitudeDegrees>
            </Position>
            <AltitudeMeters>1045</AltitudeMeters>
            <DistanceMeters>106759.66291441</DistanceMeters>
          </Trackpoint>
          <Trackpoint>
            <Time>2019-08-02T10:14:42.000Z</Time>
            <Position>
              <LatitudeDegrees>40.9260334633290767669677734375</LatitudeDegrees>
              <LongitudeDegrees>-4.11474667489528656005859375</LongitudeDegrees>
            </Position>
            <AltitudeMeters>1045.199951171875</AltitudeMeters>
            <DistanceMeters>106770.6293431</DistanceMeters>
          </Trackpoint>
          <Trackpoint>
            <Time>2019-08-02T10:14:46.000Z</Time>
            <Position>
              <LatitudeDegrees>40.9262017719447612762451171875</LatitudeDegrees>
              <LongitudeDegrees>-4.11520776338875293731689453125</LongitudeDegrees>
            </Position>
            <AltitudeMeters>1046.4000244140625</AltitudeMeters>
            <DistanceMeters>106813.69248927</DistanceMeters>
          </Trackpoint>
          <Trackpoint>
            <Time>2019-08-02T10:14:48.000Z</Time>
            <Position>
              <LatitudeDegrees>40.92635055072605609893798828125</LatitudeDegrees>
              <LongitudeDegrees>-4.11536685191094875335693359375</LongitudeDegrees>
            </Position>
            <AltitudeMeters>1047.5999755859375</AltitudeMeters>
            <DistanceMeters>106834.9810185</DistanceMeters>
          </Trackpoint>
          <Trackpoint>
            <Time>2019-08-02T10:14:51.000Z</Time>
            <Position>
              <LatitudeDegrees>40.926601588726043701171875</LatitudeDegrees>
              <LongitudeDegrees>-4.11549593321979045867919921875</LongitudeDegrees>
            </Position>
            <AltitudeMeters>1048.800048828125</AltitudeMeters>
            <DistanceMeters>106864.95648724</DistanceMeters>
          </Trackpoint>
          <Trackpoint>
            <Time>2019-08-02T10:14:52.000Z</Time>
            <Position>
              <LatitudeDegrees>40.9266845695674419403076171875</LatitudeDegrees>
              <LongitudeDegrees>-4.11552451550960540771484375</LongitudeDegrees>
            </Position>
            <AltitudeMeters>1049.199951171875</AltitudeMeters>
            <DistanceMeters>106874.49993269</DistanceMeters>
          </Trackpoint>
          <Trackpoint>
            <Time>2019-08-02T10:14:56.000Z</Time>
            <Position>
              <LatitudeDegrees>40.9269987232983112335205078125</LatitudeDegrees>
              <LongitudeDegrees>-4.1156440414488315582275390625</LongitudeDegrees>
            </Position>
            <AltitudeMeters>1049.800048828125</AltitudeMeters>
            <DistanceMeters>106910.88188791</DistanceMeters>
          </Trackpoint>
          <Trackpoint>
            <Time>2019-08-02T10:15:00.000Z</Time>
            <Position>
              <LatitudeDegrees>40.92729317955672740936279296875</LatitudeDegrees>
              <LongitudeDegrees>-4.11572962068021297454833984375</LongitudeDegrees>
            </Position>
            <AltitudeMeters>1050.4000244140625</AltitudeMeters>
            <DistanceMeters>106944.43614235</DistanceMeters>
          </Trackpoint>
          <Trackpoint>
            <Time>2019-08-02T10:15:02.000Z</Time>
            <Position>
              <LatitudeDegrees>40.9274335764348506927490234375</LatitudeDegrees>
              <LongitudeDegrees>-4.11571905948221683502197265625</LongitudeDegrees>
            </Position>
            <AltitudeMeters>1051</AltitudeMeters>
            <DistanceMeters>106960.0875932</DistanceMeters>
          </Trackpoint>
          <Trackpoint>
            <Time>2019-08-02T10:15:04.000Z</Time>
            <Position>
              <LatitudeDegrees>40.9275499172508716583251953125</LatitudeDegrees>
              <LongitudeDegrees>-4.11567999981343746185302734375</LongitudeDegrees>
            </Position>
            <AltitudeMeters>1051.4000244140625</AltitudeMeters>
            <DistanceMeters>106973.44687577</DistanceMeters>
          </Trackpoint>
          <Trackpoint>
            <Time>2019-08-02T10:15:06.000Z</Time>
            <Position>
              <LatitudeDegrees>40.92764186672866344451904296875</LatitudeDegrees>
              <LongitudeDegrees>-4.115656279027462005615234375</LongitudeDegrees>
            </Position>
            <AltitudeMeters>1051.800048828125</AltitudeMeters>
            <DistanceMeters>106983.87386577</DistanceMeters>
          </Trackpoint>
          <Trackpoint>
            <Time>2019-08-02T10:15:07.000Z</Time>
            <Position>
              <LatitudeDegrees>40.92768662609159946441650390625</LatitudeDegrees>
              <LongitudeDegrees>-4.11566390655934810638427734375</LongitudeDegrees>
            </Position>
            <AltitudeMeters>1052</AltitudeMeters>
            <DistanceMeters>106988.89681646</DistanceMeters>
          </Trackpoint>
          <Trackpoint>
            <Time>2019-08-02T10:15:12.000Z</Time>
            <Position>
              <LatitudeDegrees>40.9278298728168010711669921875</LatitudeDegrees>
              <LongitudeDegrees>-4.11590195260941982269287109375</LongitudeDegrees>
            </Position>
            <AltitudeMeters>1053</AltitudeMeters>
            <DistanceMeters>107014.48812991</DistanceMeters>
          </Trackpoint>
          <Trackpoint>
            <Time>2019-08-02T10:15:13.000Z</Time>
            <Position>
              <LatitudeDegrees>40.9278456307947635650634765625</LatitudeDegrees>
              <LongitudeDegrees>-4.11597269587218761444091796875</LongitudeDegrees>
            </Position>
            <AltitudeMeters>1053.199951171875</AltitudeMeters>
            <DistanceMeters>107020.69039769</DistanceMeters>
          </Trackpoint>
          <Trackpoint>
            <Time>2019-08-02T10:15:19.000Z</Time>
            <Position>
              <LatitudeDegrees>40.92793171294033527374267578125</LatitudeDegrees>
              <LongitudeDegrees>-4.116406626999378204345703125</LongitudeDegrees>
            </Position>
            <AltitudeMeters>1054.199951171875</AltitudeMeters>
            <DistanceMeters>107058.41767879</DistanceMeters>
          </Trackpoint>
          <Trackpoint>
            <Time>2019-08-02T10:15:23.000Z</Time>
            <Position>
              <LatitudeDegrees>40.92785543762147426605224609375</LatitudeDegrees>
              <LongitudeDegrees>-4.11656294949352741241455078125</LongitudeDegrees>
            </Position>
            <AltitudeMeters>1055.4000244140625</AltitudeMeters>
            <DistanceMeters>107074.06624464</DistanceMeters>
          </Trackpoint>
          <Trackpoint>
            <Time>2019-08-02T10:15:24.000Z</Time>
            <Position>
              <LatitudeDegrees>40.92782291583716869354248046875</LatitudeDegrees>
              <LongitudeDegrees>-4.11657728254795074462890625</LongitudeDegrees>
            </Position>
            <AltitudeMeters>1055.4000244140625</AltitudeMeters>
            <DistanceMeters>107077.88154059</DistanceMeters>
          </Trackpoint>
          <Trackpoint>
            <Time>2019-08-02T10:15:27.000Z</Time>
            <Position>
              <LatitudeDegrees>40.92775921337306499481201171875</LatitudeDegrees>
              <LongitudeDegrees>-4.11664173938333988189697265625</LongitudeDegrees>
            </Position>
            <AltitudeMeters>1055.4000244140625</AltitudeMeters>
            <DistanceMeters>107086.8064666</DistanceMeters>
          </Trackpoint>
          <Trackpoint>
            <Time>2019-08-02T10:15:34.000Z</Time>
            <Position>
              <LatitudeDegrees>40.92783113010227680206298828125</LatitudeDegrees>
              <LongitudeDegrees>-4.1169244609773159027099609375</LongitudeDegrees>
            </Position>
            <AltitudeMeters>1054.5999755859375</AltitudeMeters>
            <DistanceMeters>107111.89243933</DistanceMeters>
          </Trackpoint>
          <Trackpoint>
            <Time>2019-08-02T10:15:37.000Z</Time>
            <Position>
              <LatitudeDegrees>40.9278442896902561187744140625</LatitudeDegrees>
              <LongitudeDegrees>-4.1170072741806507110595703125</LongitudeDegrees>
            </Position>
            <AltitudeMeters>1054.4000244140625</AltitudeMeters>
            <DistanceMeters>107119.00866506</DistanceMeters>
          </Trackpoint>
          <Trackpoint>
            <Time>2019-08-02T10:15:41.000Z</Time>
            <Position>
              <LatitudeDegrees>40.92773205600678920745849609375</LatitudeDegrees>
              <LongitudeDegrees>-4.11710073240101337432861328125</LongitudeDegrees>
            </Position>
            <AltitudeMeters>1054</AltitudeMeters>
            <DistanceMeters>107133.76720408</DistanceMeters>
          </Trackpoint>
          <Trackpoint>
            <Time>2019-08-02T10:15:45.000Z</Time>
            <Position>
              <LatitudeDegrees>40.927575565874576568603515625</LatitudeDegrees>
              <LongitudeDegrees>-4.11719226278364658355712890625</LongitudeDegrees>
            </Position>
            <AltitudeMeters>1053.4000244140625</AltitudeMeters>
            <DistanceMeters>107152.81004551</DistanceMeters>
          </Trackpoint>
          <Trackpoint>
            <Time>2019-08-02T10:15:50.000Z</Time>
            <Position>
              <LatitudeDegrees>40.927447490394115447998046875</LatitudeDegrees>
              <LongitudeDegrees>-4.117398373782634735107421875</LongitudeDegrees>
            </Position>
            <AltitudeMeters>1052.4000244140625</AltitudeMeters>
            <DistanceMeters>107175.2516458</DistanceMeters>
          </Trackpoint>
          <Trackpoint>
            <Time>2019-08-02T10:15:54.000Z</Time>
            <Position>
              <LatitudeDegrees>40.9273594804108142852783203125</LatitudeDegrees>
              <LongitudeDegrees>-4.11762409843504428863525390625</LongitudeDegrees>
            </Position>
            <AltitudeMeters>1051.199951171875</AltitudeMeters>
            <DistanceMeters>107196.61174042</DistanceMeters>
          </Trackpoint>
          <Trackpoint>
            <Time>2019-08-02T10:15:59.000Z</Time>
            <Position>
              <LatitudeDegrees>40.92724825255572795867919921875</LatitudeDegrees>
              <LongitudeDegrees>-4.1178949177265167236328125</LongitudeDegrees>
            </Position>
            <AltitudeMeters>1050.199951171875</AltitudeMeters>
            <DistanceMeters>107222.53314004</DistanceMeters>
          </Trackpoint>
          <Trackpoint>
            <Time>2019-08-02T10:16:04.000Z</Time>
            <Position>
              <LatitudeDegrees>40.92725378461182117462158203125</LatitudeDegrees>
              <LongitudeDegrees>-4.1181389987468719482421875</LongitudeDegrees>
            </Position>
            <AltitudeMeters>1050.5999755859375</AltitudeMeters>
            <DistanceMeters>107243.0679271</DistanceMeters>
          </Trackpoint>
          <Trackpoint>
            <Time>2019-08-02T10:16:06.000Z</Time>
            <Position>
              <LatitudeDegrees>40.92727825976908206939697265625</LatitudeDegrees>
              <LongitudeDegrees>-4.11819926463067531585693359375</LongitudeDegrees>
            </Position>
            <AltitudeMeters>1051</AltitudeMeters>
            <DistanceMeters>107248.82234196</DistanceMeters>
          </Trackpoint>
          <Trackpoint>
            <Time>2019-08-02T10:16:12.000Z</Time>
            <Position>
              <LatitudeDegrees>40.92732511460781097412109375</LatitudeDegrees>
              <LongitudeDegrees>-4.11838106811046600341796875</LongitudeDegrees>
            </Position>
            <AltitudeMeters>1052.199951171875</AltitudeMeters>
            <DistanceMeters>107264.9757654</DistanceMeters>
          </Trackpoint>
          <Trackpoint>
            <Time>2019-08-02T10:16:14.000Z</Time>
            <Position>
              <LatitudeDegrees>40.92734548263251781463623046875</LatitudeDegrees>
              <LongitudeDegrees>-4.11845474503934383392333984375</LongitudeDegrees>
            </Position>
            <AltitudeMeters>1052.5999755859375</AltitudeMeters>
            <DistanceMeters>107271.57311096</DistanceMeters>
          </Trackpoint>
          <Trackpoint>
            <Time>2019-08-02T10:16:15.000Z</Time>
            <Position>
              <LatitudeDegrees>40.9273611567914485931396484375</LatitudeDegrees>
              <LongitudeDegrees>-4.1184878535568714141845703125</LongitudeDegrees>
            </Position>
            <AltitudeMeters>1052.800048828125</AltitudeMeters>
            <DistanceMeters>107274.86081556</DistanceMeters>
          </Trackpoint>
          <Trackpoint>
            <Time>2019-08-02T10:16:20.000Z</Time>
            <Position>
              <LatitudeDegrees>40.92747188173234462738037109375</LatitudeDegrees>
              <LongitudeDegrees>-4.11848743446171283721923828125</LongitudeDegrees>
            </Position>
            <AltitudeMeters>1053.4000244140625</AltitudeMeters>
            <DistanceMeters>107287.18501475</DistanceMeters>
          </Trackpoint>
          <Trackpoint>
            <Time>2019-08-02T10:16:21.000Z</Time>
            <Position>
              <LatitudeDegrees>40.92748747207224369049072265625</LatitudeDegrees>
              <LongitudeDegrees>-4.1184801422059535980224609375</LongitudeDegrees>
            </Position>
            <AltitudeMeters>1053.199951171875</AltitudeMeters>
            <DistanceMeters>107289.02765111</DistanceMeters>
          </Trackpoint>
          <Trackpoint>
            <Time>2019-08-02T10:16:24.000Z</Time>
            <Position>
              <LatitudeDegrees>40.92748738825321197509765625</LatitudeDegrees>
              <LongitudeDegrees>-4.1185233928263187408447265625</LongitudeDegrees>
            </Position>
            <AltitudeMeters>1053.199951171875</AltitudeMeters>
            <DistanceMeters>107292.66482886</DistanceMeters>
          </Trackpoint>
          <Trackpoint>
            <Time>2019-08-02T10:16:30.000Z</Time>
            <Position>
              <LatitudeDegrees>40.92736534774303436279296875</LatitudeDegrees>
              <LongitudeDegrees>-4.11868072114884853363037109375</LongitudeDegrees>
            </Position>
            <AltitudeMeters>1051.5999755859375</AltitudeMeters>
            <DistanceMeters>107311.62640906</DistanceMeters>
          </Trackpoint>
          <Trackpoint>
            <Time>2019-08-02T10:16:34.000Z</Time>
            <Position>
              <LatitudeDegrees>40.9274089336395263671875</LatitudeDegrees>
              <LongitudeDegrees>-4.1188704036176204681396484375</LongitudeDegrees>
            </Position>
            <AltitudeMeters>1051.199951171875</AltitudeMeters>
            <DistanceMeters>107328.29892666</DistanceMeters>
          </Trackpoint>
          <Trackpoint>
            <Time>2019-08-02T10:16:40.000Z</Time>
            <Position>
              <LatitudeDegrees>40.92760364525020122528076171875</LatitudeDegrees>
              <LongitudeDegrees>-4.11905354820191860198974609375</LongitudeDegrees>
            </Position>
            <AltitudeMeters>1051.4000244140625</AltitudeMeters>
            <DistanceMeters>107354.88569637</DistanceMeters>
          </Trackpoint>
          <Trackpoint>
            <Time>2019-08-02T10:16:52.000Z</Time>
            <Position>
              <LatitudeDegrees>40.92768494971096515655517578125</LatitudeDegrees>
              <LongitudeDegrees>-4.11921666003763675689697265625</LongitudeDegrees>
            </Position>
            <AltitudeMeters>1051.800048828125</AltitudeMeters>
            <DistanceMeters>107371.31845043</DistanceMeters>
          </Trackpoint>
          <Trackpoint>
            <Time>2019-08-02T10:16:58.000Z</Time>
            <Position>
              <LatitudeDegrees>40.9275207482278347015380859375</LatitudeDegrees>
              <LongitudeDegrees>-4.1192848049104213714599609375</LongitudeDegrees>
            </Position>
            <AltitudeMeters>1051</AltitudeMeters>
            <DistanceMeters>107390.47193277</DistanceMeters>
          </Trackpoint>
          <Trackpoint>
            <Time>2019-08-02T10:17:01.000Z</Time>
            <Position>
              <LatitudeDegrees>40.92744019813835620880126953125</LatitudeDegrees>
              <LongitudeDegrees>-4.119324199855327606201171875</LongitudeDegrees>
            </Position>
            <AltitudeMeters>1049.5999755859375</AltitudeMeters>
            <DistanceMeters>107400.03003318</DistanceMeters>
          </Trackpoint>
          <Trackpoint>
            <Time>2019-08-02T10:17:04.000Z</Time>
            <Position>
              <LatitudeDegrees>40.9273507632315158843994140625</LatitudeDegrees>
              <LongitudeDegrees>-4.11933551542460918426513671875</LongitudeDegrees>
            </Position>
            <AltitudeMeters>1048.800048828125</AltitudeMeters>
            <DistanceMeters>107410.02908345</DistanceMeters>
          </Trackpoint>
          <Trackpoint>
            <Time>2019-08-02T10:17:06.000Z</Time>
            <Position>
              <LatitudeDegrees>40.9272873960435390472412109375</LatitudeDegrees>
              <LongitudeDegrees>-4.1193330846726894378662109375</LongitudeDegrees>
            </Position>
            <AltitudeMeters>1047.800048828125</AltitudeMeters>
            <DistanceMeters>107417.084777</DistanceMeters>
          </Trackpoint>
          <Trackpoint>
            <Time>2019-08-02T10:17:07.000Z</Time>
            <Position>
              <LatitudeDegrees>40.927253030240535736083984375</LatitudeDegrees>
              <LongitudeDegrees>-4.1193337552249431610107421875</LongitudeDegrees>
            </Position>
            <AltitudeMeters>1047.5999755859375</AltitudeMeters>
            <DistanceMeters>107420.9118887</DistanceMeters>
          </Trackpoint>
          <Trackpoint>
            <Time>2019-08-02T10:17:10.000Z</Time>
            <Position>
              <LatitudeDegrees>40.9271412156522274017333984375</LatitudeDegrees>
              <LongitudeDegrees>-4.119346998631954193115234375</LongitudeDegrees>
            </Position>
            <AltitudeMeters>1046.4000244140625</AltitudeMeters>
            <DistanceMeters>107433.40708865</DistanceMeters>
          </Trackpoint>
          <Trackpoint>
            <Time>2019-08-02T10:17:13.000Z</Time>
            <Position>
              <LatitudeDegrees>40.927016325294971466064453125</LatitudeDegrees>
              <LongitudeDegrees>-4.11936803720891475677490234375</LongitudeDegrees>
            </Position>
            <AltitudeMeters>1045</AltitudeMeters>
            <DistanceMeters>107447.41958244</DistanceMeters>
          </Trackpoint>
          <Trackpoint>
            <Time>2019-08-02T10:17:16.000Z</Time>
            <Position>
              <LatitudeDegrees>40.926896966993808746337890625</LatitudeDegrees>
              <LongitudeDegrees>-4.1193847171962261199951171875</LongitudeDegrees>
            </Position>
            <AltitudeMeters>1044</AltitudeMeters>
            <DistanceMeters>107460.77818905</DistanceMeters>
          </Trackpoint>
          <Trackpoint>
            <Time>2019-08-02T10:17:20.000Z</Time>
            <Position>
              <LatitudeDegrees>40.9267787821590900421142578125</LatitudeDegrees>
              <LongitudeDegrees>-4.11936937831342220306396484375</LongitudeDegrees>
            </Position>
            <AltitudeMeters>1043</AltitudeMeters>
            <DistanceMeters>107473.99544516</DistanceMeters>
          </Trackpoint>
          <Trackpoint>
            <Time>2019-08-02T10:17:25.000Z</Time>
            <Position>
              <LatitudeDegrees>40.9267264790832996368408203125</LatitudeDegrees>
              <LongitudeDegrees>-4.1192185878753662109375</LongitudeDegrees>
            </Position>
            <AltitudeMeters>1042</AltitudeMeters>
            <DistanceMeters>107487.94852539</DistanceMeters>
          </Trackpoint>
          <Trackpoint>
            <Time>2019-08-02T10:17:29.000Z</Time>
            <Position>
              <LatitudeDegrees>40.92666051350533962249755859375</LatitudeDegrees>
              <LongitudeDegrees>-4.119205512106418609619140625</LongitudeDegrees>
            </Position>
            <AltitudeMeters>1040.800048828125</AltitudeMeters>
            <DistanceMeters>107495.37278203</DistanceMeters>
          </Trackpoint>
          <Trackpoint>
            <Time>2019-08-02T10:17:30.000Z</Time>
            <Position>
              <LatitudeDegrees>40.92664651572704315185546875</LatitudeDegrees>
              <LongitudeDegrees>-4.119213558733463287353515625</LongitudeDegrees>
            </Position>
            <AltitudeMeters>1040.4000244140625</AltitudeMeters>
            <DistanceMeters>107497.07267158</DistanceMeters>
          </Trackpoint>
          <Trackpoint>
            <Time>2019-08-02T10:17:31.000Z</Time>
            <Position>
              <LatitudeDegrees>40.9266312606632709503173828125</LatitudeDegrees>
              <LongitudeDegrees>-4.11921833641827106475830078125</LongitudeDegrees>
            </Position>
            <AltitudeMeters>1040</AltitudeMeters>
            <DistanceMeters>107498.81971646</DistanceMeters>
          </Trackpoint>
          <Trackpoint>
            <Time>2019-08-02T10:17:32.000Z</Time>
            <Position>
              <LatitudeDegrees>40.9266148321330547332763671875</LatitudeDegrees>
              <LongitudeDegrees>-4.11921464838087558746337890625</LongitudeDegrees>
            </Position>
            <AltitudeMeters>1039.5999755859375</AltitudeMeters>
            <DistanceMeters>107500.67699652</DistanceMeters>
          </Trackpoint>
          <Trackpoint>
            <Time>2019-08-02T10:17:36.000Z</Time>
            <Position>
              <LatitudeDegrees>40.92655322514474391937255859375</LatitudeDegrees>
              <LongitudeDegrees>-4.11920316517353057861328125</LongitudeDegrees>
            </Position>
            <AltitudeMeters>1038.5999755859375</AltitudeMeters>
            <DistanceMeters>107507.60156913</DistanceMeters>
          </Trackpoint>
          <Trackpoint>
            <Time>2019-08-02T10:17:40.000Z</Time>
            <Position>
              <LatitudeDegrees>40.92649606056511402130126953125</LatitudeDegrees>
              <LongitudeDegrees>-4.119247086346149444580078125</LongitudeDegrees>
            </Position>
            <AltitudeMeters>1037.199951171875</AltitudeMeters>
            <DistanceMeters>107514.95801176</DistanceMeters>
          </Trackpoint>
          <Trackpoint>
            <Time>2019-08-02T10:17:43.000Z</Time>
            <Position>
              <LatitudeDegrees>40.9264339506626129150390625</LatitudeDegrees>
              <LongitudeDegrees>-4.11926141940057277679443359375</LongitudeDegrees>
            </Position>
            <AltitudeMeters>1036.199951171875</AltitudeMeters>
            <DistanceMeters>107521.97584882</DistanceMeters>
          </Trackpoint>
          <Trackpoint>
            <Time>2019-08-02T10:17:47.000Z</Time>
            <Position>
              <LatitudeDegrees>40.92636228539049625396728515625</LatitudeDegrees>
              <LongitudeDegrees>-4.11924314685165882110595703125</LongitudeDegrees>
            </Position>
            <AltitudeMeters>1035.199951171875</AltitudeMeters>
            <DistanceMeters>107530.09827078</DistanceMeters>
          </Trackpoint>
          <Trackpoint>
            <Time>2019-08-02T10:17:50.000Z</Time>
            <Position>
              <LatitudeDegrees>40.92630746774375438690185546875</LatitudeDegrees>
              <LongitudeDegrees>-4.11927298642694950103759765625</LongitudeDegrees>
            </Position>
            <AltitudeMeters>1034.199951171875</AltitudeMeters>
            <DistanceMeters>107536.69561634</DistanceMeters>
          </Trackpoint>
          <Trackpoint>
            <Time>2019-08-02T10:17:54.000Z</Time>
            <Position>
              <LatitudeDegrees>40.9262658096849918365478515625</LatitudeDegrees>
              <LongitudeDegrees>-4.11922604776918888092041015625</LongitudeDegrees>
            </Position>
            <AltitudeMeters>1033.199951171875</AltitudeMeters>
            <DistanceMeters>107542.78548694</DistanceMeters>
          </Trackpoint>
          <Trackpoint>
            <Time>2019-08-02T10:17:55.000Z</Time>
            <Position>
              <LatitudeDegrees>40.9262738563120365142822265625</LatitudeDegrees>
              <LongitudeDegrees>-4.1192143969237804412841796875</LongitudeDegrees>
            </Position>
            <AltitudeMeters>1032.800048828125</AltitudeMeters>
            <DistanceMeters>107544.11586094</DistanceMeters>
          </Trackpoint>
          <Trackpoint>
            <Time>2019-08-02T10:17:58.000Z</Time>
            <Position>
              <LatitudeDegrees>40.9263308532536029815673828125</LatitudeDegrees>
              <LongitudeDegrees>-4.11921523511409759521484375</LongitudeDegrees>
            </Position>
            <AltitudeMeters>1031.800048828125</AltitudeMeters>
            <DistanceMeters>107550.46062893</DistanceMeters>
          </Trackpoint>
          <Trackpoint>
            <Time>2019-08-02T10:18:00.000Z</Time>
            <Position>
              <LatitudeDegrees>40.9263883531093597412109375</LatitudeDegrees>
              <LongitudeDegrees>-4.11921598948538303375244140625</LongitudeDegrees>
            </Position>
            <AltitudeMeters>1031.5999755859375</AltitudeMeters>
            <DistanceMeters>107556.86066227</DistanceMeters>
          </Trackpoint>
          <Trackpoint>
            <Time>2019-08-02T10:18:05.000Z</Time>
            <Position>
              <LatitudeDegrees>40.9264820627868175506591796875</LatitudeDegrees>
              <LongitudeDegrees>-4.1191993094980716705322265625</LongitudeDegrees>
            </Position>
            <AltitudeMeters>1030.800048828125</AltitudeMeters>
            <DistanceMeters>107567.38420053</DistanceMeters>
          </Trackpoint>
          <Trackpoint>
            <Time>2019-08-02T10:18:06.000Z</Time>
            <Position>
              <LatitudeDegrees>40.92650025151669979095458984375</LatitudeDegrees>
              <LongitudeDegrees>-4.1192019917070865631103515625</LongitudeDegrees>
            </Position>
            <AltitudeMeters>1030.800048828125</AltitudeMeters>
            <DistanceMeters>107569.42229649</DistanceMeters>
          </Trackpoint>
          <Trackpoint>
            <Time>2019-08-02T10:18:11.000Z</Time>
            <Position>
              <LatitudeDegrees>40.9266198612749576568603515625</LatitudeDegrees>
              <LongitudeDegrees>-4.119186066091060638427734375</LongitudeDegrees>
            </Position>
            <AltitudeMeters>1029.800048828125</AltitudeMeters>
            <DistanceMeters>107582.8025168</DistanceMeters>
          </Trackpoint>
          <Trackpoint>
            <Time>2019-08-02T10:18:18.000Z</Time>
            <Position>
              <LatitudeDegrees>40.92683829367160797119140625</LatitudeDegrees>
              <LongitudeDegrees>-4.11923828534781932830810546875</LongitudeDegrees>
            </Position>
            <AltitudeMeters>1028.800048828125</AltitudeMeters>
            <DistanceMeters>107607.50800055</DistanceMeters>
          </Trackpoint>
          <Trackpoint>
            <Time>2019-08-02T10:18:33.000Z</Time>
            <Position>
              <LatitudeDegrees>40.92729066498577594757080078125</LatitudeDegrees>
              <LongitudeDegrees>-4.1192516125738620758056640625</LongitudeDegrees>
            </Position>
            <AltitudeMeters>1030.199951171875</AltitudeMeters>
            <DistanceMeters>107657.87036617</DistanceMeters>
          </Trackpoint>
          <Trackpoint>
            <Time>2019-08-02T10:18:40.000Z</Time>
            <Position>
              <LatitudeDegrees>40.92752133496105670928955078125</LatitudeDegrees>
              <LongitudeDegrees>-4.119218252599239349365234375</LongitudeDegrees>
            </Position>
            <AltitudeMeters>1031.4000244140625</AltitudeMeters>
            <DistanceMeters>107683.69736148</DistanceMeters>
          </Trackpoint>
          <Trackpoint>
            <Time>2019-08-02T10:18:57.000Z</Time>
            <Position>
              <LatitudeDegrees>40.9280618838965892791748046875</LatitudeDegrees>
              <LongitudeDegrees>-4.1191340982913970947265625</LongitudeDegrees>
            </Position>
            <AltitudeMeters>1032.4000244140625</AltitudeMeters>
            <DistanceMeters>107744.27627701</DistanceMeters>
          </Trackpoint>
          <Trackpoint>
            <Time>2019-08-02T10:18:58.000Z</Time>
            <Position>
              <LatitudeDegrees>40.9280937351286411285400390625</LatitudeDegrees>
              <LongitudeDegrees>-4.11913049407303333282470703125</LongitudeDegrees>
            </Position>
            <AltitudeMeters>1032.4000244140625</AltitudeMeters>
            <DistanceMeters>107747.83438988</DistanceMeters>
          </Trackpoint>
          <Trackpoint>
            <Time>2019-08-02T10:19:04.000Z</Time>
            <Position>
              <LatitudeDegrees>40.92828107066452503204345703125</LatitudeDegrees>
              <LongitudeDegrees>-4.11909311078488826751708984375</LongitudeDegrees>
            </Position>
            <AltitudeMeters>1033.800048828125</AltitudeMeters>
            <DistanceMeters>107768.92068719</DistanceMeters>
          </Trackpoint>
          <Trackpoint>
            <Time>2019-08-02T10:19:08.000Z</Time>
            <Position>
              <LatitudeDegrees>40.92839875258505344390869140625</LatitudeDegrees>
              <LongitudeDegrees>-4.1190735809504985809326171875</LongitudeDegrees>
            </Position>
            <AltitudeMeters>1035</AltitudeMeters>
            <DistanceMeters>107782.12153622</DistanceMeters>
          </Trackpoint>
          <Trackpoint>
            <Time>2019-08-02T10:19:11.000Z</Time>
            <Position>
              <LatitudeDegrees>40.92849078588187694549560546875</LatitudeDegrees>
              <LongitudeDegrees>-4.11905371583998203277587890625</LongitudeDegrees>
            </Position>
            <AltitudeMeters>1036.199951171875</AltitudeMeters>
            <DistanceMeters>107792.49991527</DistanceMeters>
          </Trackpoint>
          <Trackpoint>
            <Time>2019-08-02T10:19:18.000Z</Time>
            <Position>
              <LatitudeDegrees>40.928698070347309112548828125</LatitudeDegrees>
              <LongitudeDegrees>-4.11901147104799747467041015625</LongitudeDegrees>
            </Position>
            <AltitudeMeters>1037.199951171875</AltitudeMeters>
            <DistanceMeters>107815.84304923</DistanceMeters>
          </Trackpoint>
          <Trackpoint>
            <Time>2019-08-02T10:19:31.000Z</Time>
            <Position>
              <LatitudeDegrees>40.92908472754061222076416015625</LatitudeDegrees>
              <LongitudeDegrees>-4.11892689764499664306640625</LongitudeDegrees>
            </Position>
            <AltitudeMeters>1036</AltitudeMeters>
            <DistanceMeters>107859.46248489</DistanceMeters>
          </Trackpoint>
          <Trackpoint>
            <Time>2019-08-02T10:19:46.000Z</Time>
            <Position>
              <LatitudeDegrees>40.9294863045215606689453125</LatitudeDegrees>
              <LongitudeDegrees>-4.1186839900910854339599609375</LongitudeDegrees>
            </Position>
            <AltitudeMeters>1037.4000244140625</AltitudeMeters>
            <DistanceMeters>107908.60517146</DistanceMeters>
          </Trackpoint>
          <Trackpoint>
            <Time>2019-08-02T10:19:52.000Z</Time>
            <Position>
              <LatitudeDegrees>40.92955210246145725250244140625</LatitudeDegrees>
              <LongitudeDegrees>-4.118436388671398162841796875</LongitudeDegrees>
            </Position>
            <AltitudeMeters>1038.4000244140625</AltitudeMeters>
            <DistanceMeters>107930.67654509</DistanceMeters>
          </Trackpoint>
          <Trackpoint>
            <Time>2019-08-02T10:20:07.000Z</Time>
            <Position>
              <LatitudeDegrees>40.9296598099172115325927734375</LatitudeDegrees>
              <LongitudeDegrees>-4.11769081838428974151611328125</LongitudeDegrees>
            </Position>
            <AltitudeMeters>1038.800048828125</AltitudeMeters>
            <DistanceMeters>107994.50762382</DistanceMeters>
          </Trackpoint>
          <Trackpoint>
            <Time>2019-08-02T10:20:12.000Z</Time>
            <Position>
              <LatitudeDegrees>40.92969291843473911285400390625</LatitudeDegrees>
              <LongitudeDegrees>-4.11743885837495326995849609375</LongitudeDegrees>
            </Position>
            <AltitudeMeters>1039.5999755859375</AltitudeMeters>
            <DistanceMeters>108016.01307418</DistanceMeters>
          </Trackpoint>
          <Trackpoint>
            <Time>2019-08-02T10:20:26.000Z</Time>
            <Position>
              <LatitudeDegrees>40.92982568778097629547119140625</LatitudeDegrees>
              <LongitudeDegrees>-4.11678272299468517303466796875</LongitudeDegrees>
            </Position>
            <AltitudeMeters>1040.800048828125</AltitudeMeters>
            <DistanceMeters>108073.13227183</DistanceMeters>
          </Trackpoint>
          <Trackpoint>
            <Time>2019-08-02T10:20:36.000Z</Time>
            <Position>
              <LatitudeDegrees>40.93010581098496913909912109375</LatitudeDegrees>
              <LongitudeDegrees>-4.11641727201640605926513671875</LongitudeDegrees>
            </Position>
            <AltitudeMeters>1041.5999755859375</AltitudeMeters>
            <DistanceMeters>108116.90968785</DistanceMeters>
          </Trackpoint>
          <Trackpoint>
            <Time>2019-08-02T10:20:38.000Z</Time>
            <Position>
              <LatitudeDegrees>40.9301761351525783538818359375</LatitudeDegrees>
              <LongitudeDegrees>-4.11636295728385448455810546875</LongitudeDegrees>
            </Position>
            <AltitudeMeters>1042</AltitudeMeters>
            <DistanceMeters>108125.97216794</DistanceMeters>
          </Trackpoint>
          <Trackpoint>
            <Time>2019-08-02T10:20:53.000Z</Time>
            <Position>
              <LatitudeDegrees>40.9306639619171619415283203125</LatitudeDegrees>
              <LongitudeDegrees>-4.116047881543636322021484375</LongitudeDegrees>
            </Position>
            <AltitudeMeters>1042.5999755859375</AltitudeMeters>
            <DistanceMeters>108186.38763896</DistanceMeters>
          </Trackpoint>
          <Trackpoint>
            <Time>2019-08-02T10:20:55.000Z</Time>
            <Position>
              <LatitudeDegrees>40.9307166002690792083740234375</LatitudeDegrees>
              <LongitudeDegrees>-4.11601359955966472625732421875</LongitudeDegrees>
            </Position>
            <AltitudeMeters>1043</AltitudeMeters>
            <DistanceMeters>108192.91757165</DistanceMeters>
          </Trackpoint>
          <Trackpoint>
            <Time>2019-08-02T10:20:58.000Z</Time>
            <Position>
              <LatitudeDegrees>40.93081190250813961029052734375</LatitudeDegrees>
              <LongitudeDegrees>-4.11595911718904972076416015625</LongitudeDegrees>
            </Position>
            <AltitudeMeters>1044.199951171875</AltitudeMeters>
            <DistanceMeters>108204.4718198</DistanceMeters>
          </Trackpoint>
          <Trackpoint>
            <Time>2019-08-02T10:21:02.000Z</Time>
            <Position>
              <LatitudeDegrees>40.9309375472366809844970703125</LatitudeDegrees>
              <LongitudeDegrees>-4.11586783826351165771484375</LongitudeDegrees>
            </Position>
            <AltitudeMeters>1045.5999755859375</AltitudeMeters>
            <DistanceMeters>108220.42385898</DistanceMeters>
          </Trackpoint>
          <Trackpoint>
            <Time>2019-08-02T10:21:06.000Z</Time>
            <Position>
              <LatitudeDegrees>40.93105615116655826568603515625</LatitudeDegrees>
              <LongitudeDegrees>-4.11577119491994380950927734375</LongitudeDegrees>
            </Position>
            <AltitudeMeters>1046.5999755859375</AltitudeMeters>
            <DistanceMeters>108235.9254513</DistanceMeters>
          </Trackpoint>
          <Trackpoint>
            <Time>2019-08-02T10:21:12.000Z</Time>
            <Position>
              <LatitudeDegrees>40.9312483482062816619873046875</LatitudeDegrees>
              <LongitudeDegrees>-4.115648232400417327880859375</LongitudeDegrees>
            </Position>
            <AltitudeMeters>1047.5999755859375</AltitudeMeters>
            <DistanceMeters>108259.68517055</DistanceMeters>
          </Trackpoint>
          <Trackpoint>
            <Time>2019-08-02T10:21:28.000Z</Time>
            <Position>
              <LatitudeDegrees>40.93174832873046398162841796875</LatitudeDegrees>
              <LongitudeDegrees>-4.11528336815536022186279296875</LongitudeDegrees>
            </Position>
            <AltitudeMeters>1048.4000244140625</AltitudeMeters>
            <DistanceMeters>108323.23126173</DistanceMeters>
          </Trackpoint>
          <Trackpoint>
            <Time>2019-08-02T10:21:38.000Z</Time>
            <Position>
              <LatitudeDegrees>40.9320436231791973114013671875</LatitudeDegrees>
              <LongitudeDegrees>-4.115081615746021270751953125</LongitudeDegrees>
            </Position>
            <AltitudeMeters>1046.5999755859375</AltitudeMeters>
            <DistanceMeters>108360.21838856</DistanceMeters>
          </Trackpoint>
          <Trackpoint>
            <Time>2019-08-02T10:21:55.000Z</Time>
            <Position>
              <LatitudeDegrees>40.93253530561923980712890625</LatitudeDegrees>
              <LongitudeDegrees>-4.1147569008171558380126953125</LongitudeDegrees>
            </Position>
            <AltitudeMeters>1046.4000244140625</AltitudeMeters>
            <DistanceMeters>108421.37706811</DistanceMeters>
          </Trackpoint>
          <Trackpoint>
            <Time>2019-08-02T10:22:05.000Z</Time>
            <Position>
              <LatitudeDegrees>40.9328117407858371734619140625</LatitudeDegrees>
              <LongitudeDegrees>-4.1145916096866130828857421875</LongitudeDegrees>
            </Position>
            <AltitudeMeters>1045.4000244140625</AltitudeMeters>
            <DistanceMeters>108455.13830919</DistanceMeters>
          </Trackpoint>
          <Trackpoint>
            <Time>2019-08-02T10:22:12.000Z</Time>
            <Position>
              <LatitudeDegrees>40.93298734165728092193603515625</LatitudeDegrees>
              <LongitudeDegrees>-4.11449949257075786590576171875</LongitudeDegrees>
            </Position>
            <AltitudeMeters>1044.4000244140625</AltitudeMeters>
            <DistanceMeters>108476.16177517</DistanceMeters>
          </Trackpoint>
          <Trackpoint>
            <Time>2019-08-02T10:22:18.000Z</Time>
            <Position>
              <LatitudeDegrees>40.9331423230469226837158203125</LatitudeDegrees>
              <LongitudeDegrees>-4.1144206188619136810302734375</LongitudeDegrees>
            </Position>
            <AltitudeMeters>1043.5999755859375</AltitudeMeters>
            <DistanceMeters>108494.64245565</DistanceMeters>
          </Trackpoint>
          <Trackpoint>
            <Time>2019-08-02T10:22:23.000Z</Time>
            <Position>
              <LatitudeDegrees>40.933261848986148834228515625</LatitudeDegrees>
              <LongitudeDegrees>-4.1143562458455562591552734375</LongitudeDegrees>
            </Position>
            <AltitudeMeters>1042.5999755859375</AltitudeMeters>
            <DistanceMeters>108509.00501344</DistanceMeters>
          </Trackpoint>
          <Trackpoint>
            <Time>2019-08-02T10:22:28.000Z</Time>
            <Position>
              <LatitudeDegrees>40.93339755199849605560302734375</LatitudeDegrees>
              <LongitudeDegrees>-4.11430151201784610748291015625</LongitudeDegrees>
            </Position>
            <AltitudeMeters>1041.199951171875</AltitudeMeters>
            <DistanceMeters>108524.79489662</DistanceMeters>
          </Trackpoint>
          <Trackpoint>
            <Time>2019-08-02T10:22:34.000Z</Time>
            <Position>
              <LatitudeDegrees>40.93354247510433197021484375</LatitudeDegrees>
              <LongitudeDegrees>-4.1142301820218563079833984375</LongitudeDegrees>
            </Position>
            <AltitudeMeters>1040.199951171875</AltitudeMeters>
            <DistanceMeters>108542.00391713</DistanceMeters>
          </Trackpoint>
          <Trackpoint>
            <Time>2019-08-02T10:22:44.000Z</Time>
            <Position>
              <LatitudeDegrees>40.93377641402184963226318359375</LatitudeDegrees>
              <LongitudeDegrees>-4.11409196443855762481689453125</LongitudeDegrees>
            </Position>
            <AltitudeMeters>1039</AltitudeMeters>
            <DistanceMeters>108570.51763247</DistanceMeters>
          </Trackpoint>
          <Trackpoint>
            <Time>2019-08-02T10:22:50.000Z</Time>
            <Position>
              <LatitudeDegrees>40.93393986113369464874267578125</LatitudeDegrees>
              <LongitudeDegrees>-4.11401837132871150970458984375</LongitudeDegrees>
            </Position>
            <AltitudeMeters>1037.800048828125</AltitudeMeters>
            <DistanceMeters>108589.73324659</DistanceMeters>
          </Trackpoint>
          <Trackpoint>
            <Time>2019-08-02T10:22:54.000Z</Time>
            <Position>
              <LatitudeDegrees>40.93404295854270458221435546875</LatitudeDegrees>
              <LongitudeDegrees>-4.113971181213855743408203125</LongitudeDegrees>
            </Position>
            <AltitudeMeters>1036.800048828125</AltitudeMeters>
            <DistanceMeters>108601.87511745</DistanceMeters>
          </Trackpoint>
          <Trackpoint>
            <Time>2019-08-02T10:22:56.000Z</Time>
            <Position>
              <LatitudeDegrees>40.93409341759979724884033203125</LatitudeDegrees>
              <LongitudeDegrees>-4.113961793482303619384765625</LongitudeDegrees>
            </Position>
            <AltitudeMeters>1036.199951171875</AltitudeMeters>
            <DistanceMeters>108607.54654869</DistanceMeters>
          </Trackpoint>
          <Trackpoint>
            <Time>2019-08-02T10:22:59.000Z</Time>
            <Position>
              <LatitudeDegrees>40.93416080810129642486572265625</LatitudeDegrees>
              <LongitudeDegrees>-4.11399356089532375335693359375</LongitudeDegrees>
            </Position>
            <AltitudeMeters>1035.4000244140625</AltitudeMeters>
            <DistanceMeters>108615.50840379</DistanceMeters>
          </Trackpoint>
          <Trackpoint>
            <Time>2019-08-02T10:23:02.000Z</Time>
            <Position>
              <LatitudeDegrees>40.93423373065888881683349609375</LatitudeDegrees>
              <LongitudeDegrees>-4.114022813737392425537109375</LongitudeDegrees>
            </Position>
            <AltitudeMeters>1034.800048828125</AltitudeMeters>
            <DistanceMeters>108623.98977095</DistanceMeters>
          </Trackpoint>
          <Trackpoint>
            <Time>2019-08-02T10:23:05.000Z</Time>
            <Position>
              <LatitudeDegrees>40.93427748419344425201416015625</LatitudeDegrees>
              <LongitudeDegrees>-4.11402792669832706451416015625</LongitudeDegrees>
            </Position>
            <AltitudeMeters>1034.4000244140625</AltitudeMeters>
            <DistanceMeters>108628.87972416</DistanceMeters>
          </Trackpoint>
          <Trackpoint>
            <Time>2019-08-02T10:23:09.000Z</Time>
            <Position>
              <LatitudeDegrees>40.93429927714169025421142578125</LatitudeDegrees>
              <LongitudeDegrees>-4.114046953618526458740234375</LongitudeDegrees>
            </Position>
            <AltitudeMeters>1033.199951171875</AltitudeMeters>
            <DistanceMeters>108631.78698259</DistanceMeters>
          </Trackpoint>
          <Trackpoint>
            <Time>2019-08-02T10:23:11.000Z</Time>
            <Position>
              <LatitudeDegrees>40.93430128879845142364501953125</LatitudeDegrees>
              <LongitudeDegrees>-4.1140518151223659515380859375</LongitudeDegrees>
            </Position>
            <AltitudeMeters>1032.5999755859375</AltitudeMeters>
            <DistanceMeters>108632.25251651</DistanceMeters>
          </Trackpoint>
          <Trackpoint>
            <Time>2019-08-02T10:56:23.000Z</Time>
            <Position>
              <LatitudeDegrees>40.93424965627491474151611328125</LatitudeDegrees>
              <LongitudeDegrees>-4.1140105761587619781494140625</LongitudeDegrees>
            </Position>
            <AltitudeMeters>1042.199951171875</AltitudeMeters>
            <DistanceMeters>108638.9638518</DistanceMeters>
          </Trackpoint>
          <Trackpoint>
            <Time>2019-08-02T10:56:26.000Z</Time>
            <Position>
              <LatitudeDegrees>40.934195257723331451416015625</LatitudeDegrees>
              <LongitudeDegrees>-4.1140487976372241973876953125</LongitudeDegrees>
            </Position>
            <AltitudeMeters>1041</AltitudeMeters>
            <DistanceMeters>108645.81830201</DistanceMeters>
          </Trackpoint>
          <Trackpoint>
            <Time>2019-08-02T10:56:29.000Z</Time>
            <Position>
              <LatitudeDegrees>40.93412049114704132080078125</LatitudeDegrees>
              <LongitudeDegrees>-4.11407000385224819183349609375</LongitudeDegrees>
            </Position>
            <AltitudeMeters>1039.5999755859375</AltitudeMeters>
            <DistanceMeters>108654.32836741</DistanceMeters>
          </Trackpoint>
          <Trackpoint>
            <Time>2019-08-02T10:56:32.000Z</Time>
            <Position>
              <LatitudeDegrees>40.93403457663953304290771484375</LatitudeDegrees>
              <LongitudeDegrees>-4.114100933074951171875</LongitudeDegrees>
            </Position>
            <AltitudeMeters>1038.4000244140625</AltitudeMeters>
            <DistanceMeters>108664.23760811</DistanceMeters>
          </Trackpoint>
          <Trackpoint>
            <Time>2019-08-02T10:56:35.000Z</Time>
            <Position>
              <LatitudeDegrees>40.93394287861883640289306640625</LatitudeDegrees>
              <LongitudeDegrees>-4.11414929665625095367431640625</LongitudeDegrees>
            </Position>
            <AltitudeMeters>1037</AltitudeMeters>
            <DistanceMeters>108675.22378132</DistanceMeters>
          </Trackpoint>
          <Trackpoint>
            <Time>2019-08-02T10:56:38.000Z</Time>
            <Position>
              <LatitudeDegrees>40.9338497556746006011962890625</LatitudeDegrees>
              <LongitudeDegrees>-4.114205539226531982421875</LongitudeDegrees>
            </Position>
            <AltitudeMeters>1035.800048828125</AltitudeMeters>
            <DistanceMeters>108686.61668783</DistanceMeters>
          </Trackpoint>
          <Trackpoint>
            <Time>2019-08-02T10:56:40.000Z</Time>
            <Position>
              <LatitudeDegrees>40.93378060497343540191650390625</LatitudeDegrees>
              <LongitudeDegrees>-4.114256836473941802978515625</LongitudeDegrees>
            </Position>
            <AltitudeMeters>1035.199951171875</AltitudeMeters>
            <DistanceMeters>108695.43934383</DistanceMeters>
          </Trackpoint>
          <Trackpoint>
            <Time>2019-08-02T10:56:41.000Z</Time>
            <Position>
              <LatitudeDegrees>40.93374322168529033660888671875</LatitudeDegrees>
              <LongitudeDegrees>-4.11427938379347324371337890625</LongitudeDegrees>
            </Position>
            <AltitudeMeters>1034.800048828125</AltitudeMeters>
            <DistanceMeters>108700.01248904</DistanceMeters>
          </Trackpoint>
          <Trackpoint>
            <Time>2019-08-02T10:56:44.000Z</Time>
            <Position>
              <LatitudeDegrees>40.93360760249197483062744140625</LatitudeDegrees>
              <LongitudeDegrees>-4.11435616202652454376220703125</LongitudeDegrees>
            </Position>
            <AltitudeMeters>1033.4000244140625</AltitudeMeters>
            <DistanceMeters>108716.42984941</DistanceMeters>
          </Trackpoint>
          <Trackpoint>
            <Time>2019-08-02T10:56:47.000Z</Time>
            <Position>
              <LatitudeDegrees>40.93345572240650653839111328125</LatitudeDegrees>
              <LongitudeDegrees>-4.11444962024688720703125</LongitudeDegrees>
            </Position>
            <AltitudeMeters>1031.800048828125</AltitudeMeters>
            <DistanceMeters>108735.07180457</DistanceMeters>
          </Trackpoint>
          <Trackpoint>
            <Time>2019-08-02T10:56:51.000Z</Time>
            <Position>
              <LatitudeDegrees>40.9332090429961681365966796875</LatitudeDegrees>
              <LongitudeDegrees>-4.11457627080380916595458984375</LongitudeDegrees>
            </Position>
            <AltitudeMeters>1030.4000244140625</AltitudeMeters>
            <DistanceMeters>108764.52073513</DistanceMeters>
          </Trackpoint>
          <Trackpoint>
            <Time>2019-08-02T10:56:54.000Z</Time>
            <Position>
              <LatitudeDegrees>40.93300142325460910797119140625</LatitudeDegrees>
              <LongitudeDegrees>-4.11469294689595699310302734375</LongitudeDegrees>
            </Position>
            <AltitudeMeters>1029.199951171875</AltitudeMeters>
            <DistanceMeters>108789.62541907</DistanceMeters>
          </Trackpoint>
          <Trackpoint>
            <Time>2019-08-02T10:56:58.000Z</Time>
            <Position>
              <LatitudeDegrees>40.93269783072173595428466796875</LatitudeDegrees>
              <LongitudeDegrees>-4.11483409814536571502685546875</LongitudeDegrees>
            </Position>
            <AltitudeMeters>1028.199951171875</AltitudeMeters>
            <DistanceMeters>108825.43965015</DistanceMeters>
          </Trackpoint>
          <Trackpoint>
            <Time>2019-08-02T10:57:05.000Z</Time>
            <Position>
              <LatitudeDegrees>40.93218921683728694915771484375</LatitudeDegrees>
              <LongitudeDegrees>-4.1151438094675540924072265625</LongitudeDegrees>
            </Position>
            <AltitudeMeters>1027</AltitudeMeters>
            <DistanceMeters>108887.75239917</DistanceMeters>
          </Trackpoint>
          <Trackpoint>
            <Time>2019-08-02T10:57:12.000Z</Time>
            <Position>
              <LatitudeDegrees>40.931721590459346771240234375</LatitudeDegrees>
              <LongitudeDegrees>-4.115462489426136016845703125</LongitudeDegrees>
            </Position>
            <AltitudeMeters>1025.800048828125</AltitudeMeters>
            <DistanceMeters>108946.29332871</DistanceMeters>
          </Trackpoint>
          <Trackpoint>
            <Time>2019-08-02T10:57:18.000Z</Time>
            <Position>
              <LatitudeDegrees>40.93133040703833103179931640625</LatitudeDegrees>
              <LongitudeDegrees>-4.1156919859349727630615234375</LongitudeDegrees>
            </Position>
            <AltitudeMeters>1024.800048828125</AltitudeMeters>
            <DistanceMeters>108993.91792699</DistanceMeters>
          </Trackpoint>
          <Trackpoint>
            <Time>2019-08-02T10:57:22.000Z</Time>
            <Position>
              <LatitudeDegrees>40.9310786984860897064208984375</LatitudeDegrees>
              <LongitudeDegrees>-4.11584881134331226348876953125</LongitudeDegrees>
            </Position>
            <AltitudeMeters>1023.79998779296875</AltitudeMeters>
            <DistanceMeters>109024.88205779</DistanceMeters>
          </Trackpoint>
          <Trackpoint>
            <Time>2019-08-02T10:57:28.000Z</Time>
            <Position>
              <LatitudeDegrees>40.93071048147976398468017578125</LatitudeDegrees>
              <LongitudeDegrees>-4.1160882823169231414794921875</LongitudeDegrees>
            </Position>
            <AltitudeMeters>1022.5999755859375</AltitudeMeters>
            <DistanceMeters>109070.54513797</DistanceMeters>
          </Trackpoint>
          <Trackpoint>
            <Time>2019-08-02T10:57:35.000Z</Time>
            <Position>
              <LatitudeDegrees>40.9303524903953075408935546875</LatitudeDegrees>
              <LongitudeDegrees>-4.1163209639489650726318359375</LongitudeDegrees>
            </Position>
            <AltitudeMeters>1021.5999755859375</AltitudeMeters>
            <DistanceMeters>109114.93492262</DistanceMeters>
          </Trackpoint>
          <Trackpoint>
            <Time>2019-08-02T10:57:41.000Z</Time>
            <Position>
              <LatitudeDegrees>40.93009860254824161529541015625</LatitudeDegrees>
              <LongitudeDegrees>-4.11650042049586772918701171875</LongitudeDegrees>
            </Position>
            <AltitudeMeters>1020.5999755859375</AltitudeMeters>
            <DistanceMeters>109146.97006157</DistanceMeters>
          </Trackpoint>
          <Trackpoint>
            <Time>2019-08-02T10:57:43.000Z</Time>
            <Position>
              <LatitudeDegrees>40.93002073466777801513671875</LatitudeDegrees>
              <LongitudeDegrees>-4.11655071191489696502685546875</LongitudeDegrees>
            </Position>
            <AltitudeMeters>1020.4000244140625</AltitudeMeters>
            <DistanceMeters>109156.61421977</DistanceMeters>
          </Trackpoint>
          <Trackpoint>
            <Time>2019-08-02T10:57:48.000Z</Time>
            <Position>
              <LatitudeDegrees>40.92986759729683399200439453125</LatitudeDegrees>
              <LongitudeDegrees>-4.1167370416224002838134765625</LongitudeDegrees>
            </Position>
            <AltitudeMeters>1019.5999755859375</AltitudeMeters>
            <DistanceMeters>109179.76605075</DistanceMeters>
          </Trackpoint>
          <Trackpoint>
            <Time>2019-08-02T10:57:52.000Z</Time>
            <Position>
              <LatitudeDegrees>40.929778330028057098388671875</LatitudeDegrees>
              <LongitudeDegrees>-4.11693125031888484954833984375</LongitudeDegrees>
            </Position>
            <AltitudeMeters>1019</AltitudeMeters>
            <DistanceMeters>109198.88201537</DistanceMeters>
          </Trackpoint>
          <Trackpoint>
            <Time>2019-08-02T10:57:54.000Z</Time>
            <Position>
              <LatitudeDegrees>40.92975318431854248046875</LatitudeDegrees>
              <LongitudeDegrees>-4.1170340962707996368408203125</LongitudeDegrees>
            </Position>
            <AltitudeMeters>1018.4000244140625</AltitudeMeters>
            <DistanceMeters>109207.97185582</DistanceMeters>
          </Trackpoint>
          <Trackpoint>
            <Time>2019-08-02T10:57:59.000Z</Time>
            <Position>
              <LatitudeDegrees>40.92970817349851131439208984375</LatitudeDegrees>
              <LongitudeDegrees>-4.11730893887579441070556640625</LongitudeDegrees>
            </Position>
            <AltitudeMeters>1017.4000244140625</AltitudeMeters>
            <DistanceMeters>109231.62033768</DistanceMeters>
          </Trackpoint>
          <Trackpoint>
            <Time>2019-08-02T10:58:03.000Z</Time>
            <Position>
              <LatitudeDegrees>40.92967364005744457244873046875</LatitudeDegrees>
              <LongitudeDegrees>-4.11753005348145961761474609375</LongitudeDegrees>
            </Position>
            <AltitudeMeters>1016</AltitudeMeters>
            <DistanceMeters>109250.6071413</DistanceMeters>
          </Trackpoint>
          <Trackpoint>
            <Time>2019-08-02T10:58:06.000Z</Time>
            <Position>
              <LatitudeDegrees>40.9296472370624542236328125</LatitudeDegrees>
              <LongitudeDegrees>-4.11769769154489040374755859375</LongitudeDegrees>
            </Position>
            <AltitudeMeters>1014.5999755859375</AltitudeMeters>
            <DistanceMeters>109265.00705955</DistanceMeters>
          </Trackpoint>
          <Trackpoint>
            <Time>2019-08-02T10:58:10.000Z</Time>
            <Position>
              <LatitudeDegrees>40.92961438000202178955078125</LatitudeDegrees>
              <LongitudeDegrees>-4.117917381227016448974609375</LongitudeDegrees>
            </Position>
            <AltitudeMeters>1013.4000244140625</AltitudeMeters>
            <DistanceMeters>109283.83961865</DistanceMeters>
          </Trackpoint>
          <Trackpoint>
            <Time>2019-08-02T10:58:14.000Z</Time>
            <Position>
              <LatitudeDegrees>40.92958613298833370208740234375</LatitudeDegrees>
              <LongitudeDegrees>-4.1181314550340175628662109375</LongitudeDegrees>
            </Position>
            <AltitudeMeters>1012</AltitudeMeters>
            <DistanceMeters>109302.11343125</DistanceMeters>
          </Trackpoint>
          <Trackpoint>
            <Time>2019-08-02T10:58:21.000Z</Time>
            <Position>
              <LatitudeDegrees>40.9295384399592876434326171875</LatitudeDegrees>
              <LongitudeDegrees>-4.11849028430879116058349609375</LongitudeDegrees>
            </Position>
            <AltitudeMeters>1010.79998779296875</AltitudeMeters>
            <DistanceMeters>109332.75096356</DistanceMeters>
          </Trackpoint>
          <Trackpoint>
            <Time>2019-08-02T10:58:23.000Z</Time>
            <Position>
              <LatitudeDegrees>40.9295203350484371185302734375</LatitudeDegrees>
              <LongitudeDegrees>-4.1185941360890865325927734375</LongitudeDegrees>
            </Position>
            <AltitudeMeters>1010.5999755859375</AltitudeMeters>
            <DistanceMeters>109341.71375108</DistanceMeters>
          </Trackpoint>
          <Trackpoint>
            <Time>2019-08-02T10:58:28.000Z</Time>
            <Position>
              <LatitudeDegrees>40.92941111885011196136474609375</LatitudeDegrees>
              <LongitudeDegrees>-4.11879974417388439178466796875</LongitudeDegrees>
            </Position>
            <AltitudeMeters>1009.79998779296875</AltitudeMeters>
            <DistanceMeters>109362.84902542</DistanceMeters>
          </Trackpoint>
          <Trackpoint>
            <Time>2019-08-02T10:58:30.000Z</Time>
            <Position>
              <LatitudeDegrees>40.9293399564921855926513671875</LatitudeDegrees>
              <LongitudeDegrees>-4.118857495486736297607421875</LongitudeDegrees>
            </Position>
            <AltitudeMeters>1009.20001220703125</AltitudeMeters>
            <DistanceMeters>109372.13931447</DistanceMeters>
          </Trackpoint>
          <Trackpoint>
            <Time>2019-08-02T10:58:33.000Z</Time>
            <Position>
              <LatitudeDegrees>40.9292095340788364410400390625</LatitudeDegrees>
              <LongitudeDegrees>-4.1189129836857318878173828125</LongitudeDegrees>
            </Position>
            <AltitudeMeters>1008.4000244140625</AltitudeMeters>
            <DistanceMeters>109387.38717918</DistanceMeters>
          </Trackpoint>
          <Trackpoint>
            <Time>2019-08-02T10:58:35.000Z</Time>
            <Position>
              <LatitudeDegrees>40.9291035868227481842041015625</LatitudeDegrees>
              <LongitudeDegrees>-4.11893418990075588226318359375</LongitudeDegrees>
            </Position>
            <AltitudeMeters>1008.20001220703125</AltitudeMeters>
            <DistanceMeters>109399.31369435</DistanceMeters>
          </Trackpoint>
          <Trackpoint>
            <Time>2019-08-02T10:58:44.000Z</Time>
            <Position>
              <LatitudeDegrees>40.92850352637469768524169921875</LatitudeDegrees>
              <LongitudeDegrees>-4.1190511174499988555908203125</LongitudeDegrees>
            </Position>
            <AltitudeMeters>1007.20001220703125</AltitudeMeters>
            <DistanceMeters>109466.82146413</DistanceMeters>
          </Trackpoint>
          <Trackpoint>
            <Time>2019-08-02T10:58:51.000Z</Time>
            <Position>
              <LatitudeDegrees>40.92795132659375667572021484375</LatitudeDegrees>
              <LongitudeDegrees>-4.11915622651576995849609375</LongitudeDegrees>
            </Position>
            <AltitudeMeters>1006.4000244140625</AltitudeMeters>
            <DistanceMeters>109528.91456905</DistanceMeters>
          </Trackpoint>
          <Trackpoint>
            <Time>2019-08-02T10:58:58.000Z</Time>
            <Position>
              <LatitudeDegrees>40.9275274537503719329833984375</LatitudeDegrees>
              <LongitudeDegrees>-4.11925354041159152984619140625</LongitudeDegrees>
            </Position>
            <AltitudeMeters>1006.20001220703125</AltitudeMeters>
            <DistanceMeters>109576.79690764</DistanceMeters>
          </Trackpoint>
          <Trackpoint>
            <Time>2019-08-02T10:59:03.000Z</Time>
            <Position>
              <LatitudeDegrees>40.92755352146923542022705078125</LatitudeDegrees>
              <LongitudeDegrees>-4.1193810291588306427001953125</LongitudeDegrees>
            </Position>
            <AltitudeMeters>1006.4000244140625</AltitudeMeters>
            <DistanceMeters>109587.90365668</DistanceMeters>
          </Trackpoint>
          <Trackpoint>
            <Time>2019-08-02T10:59:06.000Z</Time>
            <Position>
              <LatitudeDegrees>40.92757112346589565277099609375</LatitudeDegrees>
              <LongitudeDegrees>-4.119397960603237152099609375</LongitudeDegrees>
            </Position>
            <AltitudeMeters>1007</AltitudeMeters>
            <DistanceMeters>109590.32450769</DistanceMeters>
          </Trackpoint>
          <Trackpoint>
            <Time>2019-08-02T10:59:20.000Z</Time>
            <Position>
              <LatitudeDegrees>40.92754564248025417327880859375</LatitudeDegrees>
              <LongitudeDegrees>-4.11934372968971729278564453125</LongitudeDegrees>
            </Position>
            <AltitudeMeters>1005.20001220703125</AltitudeMeters>
            <DistanceMeters>109595.69414773</DistanceMeters>
          </Trackpoint>
          <Trackpoint>
            <Time>2019-08-02T10:59:24.000Z</Time>
            <Position>
              <LatitudeDegrees>40.9275013022124767303466796875</LatitudeDegrees>
              <LongitudeDegrees>-4.119350016117095947265625</LongitudeDegrees>
            </Position>
            <AltitudeMeters>1004.4000244140625</AltitudeMeters>
            <DistanceMeters>109600.65741767</DistanceMeters>
          </Trackpoint>
          <Trackpoint>
            <Time>2019-08-02T10:59:26.000Z</Time>
            <Position>
              <LatitudeDegrees>40.9274664334952831268310546875</LatitudeDegrees>
              <LongitudeDegrees>-4.11932579241693019866943359375</LongitudeDegrees>
            </Position>
            <AltitudeMeters>1004</AltitudeMeters>
            <DistanceMeters>109605.0410238</DistanceMeters>
          </Trackpoint>
          <Trackpoint>
            <Time>2019-08-02T10:59:30.000Z</Time>
            <Position>
              <LatitudeDegrees>40.9273517690598964691162109375</LatitudeDegrees>
              <LongitudeDegrees>-4.11928287707269191741943359375</LongitudeDegrees>
            </Position>
            <AltitudeMeters>1002.79998779296875</AltitudeMeters>
            <DistanceMeters>109618.30397555</DistanceMeters>
          </Trackpoint>
          <Trackpoint>
            <Time>2019-08-02T10:59:34.000Z</Time>
            <Position>
              <LatitudeDegrees>40.9271943569183349609375</LatitudeDegrees>
              <LongitudeDegrees>-4.1192977130413055419921875</LongitudeDegrees>
            </Position>
            <AltitudeMeters>1001.79998779296875</AltitudeMeters>
            <DistanceMeters>109635.86824415</DistanceMeters>
          </Trackpoint>
          <Trackpoint>
            <Time>2019-08-02T10:59:40.000Z</Time>
            <Position>
              <LatitudeDegrees>40.92690308578312397003173828125</LatitudeDegrees>
              <LongitudeDegrees>-4.11931640468537807464599609375</LongitudeDegrees>
            </Position>
            <AltitudeMeters>1001.20001220703125</AltitudeMeters>
            <DistanceMeters>109668.325258</DistanceMeters>
          </Trackpoint>
          <Trackpoint>
            <Time>2019-08-02T10:59:48.000Z</Time>
            <Position>
              <LatitudeDegrees>40.92658482491970062255859375</LatitudeDegrees>
              <LongitudeDegrees>-4.1191716492176055908203125</LongitudeDegrees>
            </Position>
            <AltitudeMeters>1001.79998779296875</AltitudeMeters>
            <DistanceMeters>109705.78157772</DistanceMeters>
          </Trackpoint>
          <Trackpoint>
            <Time>2019-08-02T10:59:51.000Z</Time>
            <Position>
              <LatitudeDegrees>40.92655339278280735015869140625</LatitudeDegrees>
              <LongitudeDegrees>-4.119146168231964111328125</LongitudeDegrees>
            </Position>
            <AltitudeMeters>1002</AltitudeMeters>
            <DistanceMeters>109709.88426739</DistanceMeters>
          </Trackpoint>
          <Trackpoint>
            <Time>2019-08-02T11:05:27.000Z</Time>
            <Position>
              <LatitudeDegrees>40.926803760230541229248046875</LatitudeDegrees>
              <LongitudeDegrees>-4.1193099506199359893798828125</LongitudeDegrees>
            </Position>
            <AltitudeMeters>1050.5999755859375</AltitudeMeters>
            <DistanceMeters>109740.96860813</DistanceMeters>
          </Trackpoint>
          <Trackpoint>
            <Time>2019-08-02T11:05:36.000Z</Time>
            <Position>
              <LatitudeDegrees>40.92693326063454151153564453125</LatitudeDegrees>
              <LongitudeDegrees>-4.1193924285471439361572265625</LongitudeDegrees>
            </Position>
            <AltitudeMeters>1049.800048828125</AltitudeMeters>
            <DistanceMeters>109756.96417583</DistanceMeters>
          </Trackpoint>
          <Trackpoint>
            <Time>2019-08-02T11:05:37.000Z</Time>
            <Position>
              <LatitudeDegrees>40.9269558079540729522705078125</LatitudeDegrees>
              <LongitudeDegrees>-4.1193894110620021820068359375</LongitudeDegrees>
            </Position>
            <AltitudeMeters>1049.199951171875</AltitudeMeters>
            <DistanceMeters>109759.48551948</DistanceMeters>
          </Trackpoint>
          <Trackpoint>
            <Time>2019-08-02T11:05:40.000Z</Time>
            <Position>
              <LatitudeDegrees>40.92704172246158123016357421875</LatitudeDegrees>
              <LongitudeDegrees>-4.11937038414180278778076171875</LongitudeDegrees>
            </Position>
            <AltitudeMeters>1047.800048828125</AltitudeMeters>
            <DistanceMeters>109769.18103885</DistanceMeters>
          </Trackpoint>
          <Trackpoint>
            <Time>2019-08-02T11:05:44.000Z</Time>
            <Position>
              <LatitudeDegrees>40.92717415653169155120849609375</LatitudeDegrees>
              <LongitudeDegrees>-4.119321517646312713623046875</LongitudeDegrees>
            </Position>
            <AltitudeMeters>1046.5999755859375</AltitudeMeters>
            <DistanceMeters>109784.48299566</DistanceMeters>
          </Trackpoint>
          <Trackpoint>
            <Time>2019-08-02T11:05:48.000Z</Time>
            <Position>
              <LatitudeDegrees>40.9273128770291805267333984375</LatitudeDegrees>
              <LongitudeDegrees>-4.11929846741259098052978515625</LongitudeDegrees>
            </Position>
            <AltitudeMeters>1045.199951171875</AltitudeMeters>
            <DistanceMeters>109800.04418231</DistanceMeters>
          </Trackpoint>
          <Trackpoint>
            <Time>2019-08-02T11:05:51.000Z</Time>
            <Position>
              <LatitudeDegrees>40.9274064190685749053955078125</LatitudeDegrees>
              <LongitudeDegrees>-4.11933551542460918426513671875</LongitudeDegrees>
            </Position>
            <AltitudeMeters>1044</AltitudeMeters>
            <DistanceMeters>109810.9121812</DistanceMeters>
          </Trackpoint>
          <Trackpoint>
            <Time>2019-08-02T11:05:54.000Z</Time>
            <Position>
              <LatitudeDegrees>40.92749099247157573699951171875</LatitudeDegrees>
              <LongitudeDegrees>-4.11936451680958271026611328125</LongitudeDegrees>
            </Position>
            <AltitudeMeters>1042.800048828125</AltitudeMeters>
            <DistanceMeters>109820.63606573</DistanceMeters>
          </Trackpoint>
          <Trackpoint>
            <Time>2019-08-02T11:05:57.000Z</Time>
            <Position>
              <LatitudeDegrees>40.92755486257374286651611328125</LatitudeDegrees>
              <LongitudeDegrees>-4.1193813644349575042724609375</LongitudeDegrees>
            </Position>
            <AltitudeMeters>1041.800048828125</AltitudeMeters>
            <DistanceMeters>109827.88430585</DistanceMeters>
          </Trackpoint>
          <Trackpoint>
            <Time>2019-08-02T11:05:59.000Z</Time>
            <Position>
              <LatitudeDegrees>40.9276079200208187103271484375</LatitudeDegrees>
              <LongitudeDegrees>-4.1193706355988979339599609375</LongitudeDegrees>
            </Position>
            <AltitudeMeters>1040.5999755859375</AltitudeMeters>
            <DistanceMeters>109833.85815403</DistanceMeters>
          </Trackpoint>
          <Trackpoint>
            <Time>2019-08-02T11:06:01.000Z</Time>
            <Position>
              <LatitudeDegrees>40.92767371796071529388427734375</LatitudeDegrees>
              <LongitudeDegrees>-4.11937574855983257293701171875</LongitudeDegrees>
            </Position>
            <AltitudeMeters>1039.5999755859375</AltitudeMeters>
            <DistanceMeters>109841.19431485</DistanceMeters>
          </Trackpoint>
          <Trackpoint>
            <Time>2019-08-02T11:06:03.000Z</Time>
            <Position>
              <LatitudeDegrees>40.9277428686618804931640625</LatitudeDegrees>
              <LongitudeDegrees>-4.1194246150553226470947265625</LongitudeDegrees>
            </Position>
            <AltitudeMeters>1038.199951171875</AltitudeMeters>
            <DistanceMeters>109849.9197131</DistanceMeters>
          </Trackpoint>
          <Trackpoint>
            <Time>2019-08-02T11:06:07.000Z</Time>
            <Position>
              <LatitudeDegrees>40.9278174676001071929931640625</LatitudeDegrees>
              <LongitudeDegrees>-4.11968529224395751953125</LongitudeDegrees>
            </Position>
            <AltitudeMeters>1036.800048828125</AltitudeMeters>
            <DistanceMeters>109873.36032084</DistanceMeters>
          </Trackpoint>
          <Trackpoint>
            <Time>2019-08-02T11:06:10.000Z</Time>
            <Position>
              <LatitudeDegrees>40.92777212150394916534423828125</LatitudeDegrees>
              <LongitudeDegrees>-4.1198671795427799224853515625</LongitudeDegrees>
            </Position>
            <AltitudeMeters>1035.5999755859375</AltitudeMeters>
            <DistanceMeters>109889.46671821</DistanceMeters>
          </Trackpoint>
          <Trackpoint>
            <Time>2019-08-02T11:06:11.000Z</Time>
            <Position>
              <LatitudeDegrees>40.9277547709643840789794921875</LatitudeDegrees>
              <LongitudeDegrees>-4.1199141182005405426025390625</LongitudeDegrees>
            </Position>
            <AltitudeMeters>1035.199951171875</AltitudeMeters>
            <DistanceMeters>109893.86163954</DistanceMeters>
          </Trackpoint>
          <Trackpoint>
            <Time>2019-08-02T11:06:12.000Z</Time>
            <Position>
              <LatitudeDegrees>40.9277380071580410003662109375</LatitudeDegrees>
              <LongitudeDegrees>-4.11995694972574710845947265625</LongitudeDegrees>
            </Position>
            <AltitudeMeters>1034.5999755859375</AltitudeMeters>
            <DistanceMeters>109897.91895754</DistanceMeters>
          </Trackpoint>
          <Trackpoint>
            <Time>2019-08-02T11:06:15.000Z</Time>
            <Position>
              <LatitudeDegrees>40.92768989503383636474609375</LatitudeDegrees>
              <LongitudeDegrees>-4.12005904130637645721435546875</LongitudeDegrees>
            </Position>
            <AltitudeMeters>1033.5999755859375</AltitudeMeters>
            <DistanceMeters>109908.03740637</DistanceMeters>
          </Trackpoint>
          <Trackpoint>
            <Time>2019-08-02T11:06:18.000Z</Time>
            <Position>
              <LatitudeDegrees>40.9276505000889301300048828125</LatitudeDegrees>
              <LongitudeDegrees>-4.12014403380453586578369140625</LongitudeDegrees>
            </Position>
            <AltitudeMeters>1032.4000244140625</AltitudeMeters>
            <DistanceMeters>109916.42294185</DistanceMeters>
          </Trackpoint>
          <Trackpoint>
            <Time>2019-08-02T11:06:20.000Z</Time>
            <Position>
              <LatitudeDegrees>40.92762283980846405029296875</LatitudeDegrees>
              <LongitudeDegrees>-4.120195917785167694091796875</LongitudeDegrees>
            </Position>
            <AltitudeMeters>1031.199951171875</AltitudeMeters>
            <DistanceMeters>109921.76307119</DistanceMeters>
          </Trackpoint>
          <Trackpoint>
            <Time>2019-08-02T11:06:23.000Z</Time>
            <Position>
              <LatitudeDegrees>40.92758671380579471588134765625</LatitudeDegrees>
              <LongitudeDegrees>-4.12027093581855297088623046875</LongitudeDegrees>
            </Position>
            <AltitudeMeters>1029.800048828125</AltitudeMeters>
            <DistanceMeters>109929.24367168</DistanceMeters>
          </Trackpoint>
          <Trackpoint>
            <Time>2019-08-02T11:06:26.000Z</Time>
            <Position>
              <LatitudeDegrees>40.927544720470905303955078125</LatitudeDegrees>
              <LongitudeDegrees>-4.12033698521554470062255859375</LongitudeDegrees>
            </Position>
            <AltitudeMeters>1028.5999755859375</AltitudeMeters>
            <DistanceMeters>109936.5018716</DistanceMeters>
          </Trackpoint>
          <Trackpoint>
            <Time>2019-08-02T11:06:28.000Z</Time>
            <Position>
              <LatitudeDegrees>40.9275194071233272552490234375</LatitudeDegrees>
              <LongitudeDegrees>-4.1203788109123706817626953125</LongitudeDegrees>
            </Position>
            <AltitudeMeters>1027.4000244140625</AltitudeMeters>
            <DistanceMeters>109941.00838265</DistanceMeters>
          </Trackpoint>
          <Trackpoint>
            <Time>2019-08-02T11:06:31.000Z</Time>
            <Position>
              <LatitudeDegrees>40.92748344875872135162353515625</LatitudeDegrees>
              <LongitudeDegrees>-4.12044125609099864959716796875</LongitudeDegrees>
            </Position>
            <AltitudeMeters>1025.800048828125</AltitudeMeters>
            <DistanceMeters>109947.60983317</DistanceMeters>
          </Trackpoint>
          <Trackpoint>
            <Time>2019-08-02T11:06:34.000Z</Time>
            <Position>
              <LatitudeDegrees>40.92744992114603519439697265625</LatitudeDegrees>
              <LongitudeDegrees>-4.1205028630793094635009765625</LongitudeDegrees>
            </Position>
            <AltitudeMeters>1024.4000244140625</AltitudeMeters>
            <DistanceMeters>109953.99432728</DistanceMeters>
          </Trackpoint>
          <Trackpoint>
            <Time>2019-08-02T11:06:36.000Z</Time>
            <Position>
              <LatitudeDegrees>40.92742427252233028411865234375</LatitudeDegrees>
              <LongitudeDegrees>-4.1205395758152008056640625</LongitudeDegrees>
            </Position>
            <AltitudeMeters>1023.4000244140625</AltitudeMeters>
            <DistanceMeters>109958.19811838</DistanceMeters>
          </Trackpoint>
          <Trackpoint>
            <Time>2019-08-02T11:06:38.000Z</Time>
            <Position>
              <LatitudeDegrees>40.92740214429795742034912109375</LatitudeDegrees>
              <LongitudeDegrees>-4.12058047950267791748046875</LongitudeDegrees>
            </Position>
            <AltitudeMeters>1022</AltitudeMeters>
            <DistanceMeters>109962.42760788</DistanceMeters>
          </Trackpoint>
          <Trackpoint>
            <Time>2019-08-02T11:06:42.000Z</Time>
            <Position>
              <LatitudeDegrees>40.927355624735355377197265625</LatitudeDegrees>
              <LongitudeDegrees>-4.12066773511469364166259765625</LongitudeDegrees>
            </Position>
            <AltitudeMeters>1020.79998779296875</AltitudeMeters>
            <DistanceMeters>109971.40800947</DistanceMeters>
          </Trackpoint>
          <Trackpoint>
            <Time>2019-08-02T11:06:45.000Z</Time>
            <Position>
              <LatitudeDegrees>40.92731245793402194976806640625</LatitudeDegrees>
              <LongitudeDegrees>-4.1207278333604335784912109375</LongitudeDegrees>
            </Position>
            <AltitudeMeters>1019.79998779296875</AltitudeMeters>
            <DistanceMeters>109978.38066546</DistanceMeters>
          </Trackpoint>
          <Trackpoint>
            <Time>2019-08-02T11:06:47.000Z</Time>
            <Position>
              <LatitudeDegrees>40.92728295363485813140869140625</LatitudeDegrees>
              <LongitudeDegrees>-4.12076689302921295166015625</LongitudeDegrees>
            </Position>
            <AltitudeMeters>1018.4000244140625</AltitudeMeters>
            <DistanceMeters>109983.02532397</DistanceMeters>
          </Trackpoint>
          <Trackpoint>
            <Time>2019-08-02T11:06:50.000Z</Time>
            <Position>
              <LatitudeDegrees>40.92724339105188846588134765625</LatitudeDegrees>
              <LongitudeDegrees>-4.1208265721797943115234375</LongitudeDegrees>
            </Position>
            <AltitudeMeters>1017.20001220703125</AltitudeMeters>
            <DistanceMeters>109989.70226095</DistanceMeters>
          </Trackpoint>
          <Trackpoint>
            <Time>2019-08-02T11:06:53.000Z</Time>
            <Position>
              <LatitudeDegrees>40.92720433138310909271240234375</LatitudeDegrees>
              <LongitudeDegrees>-4.12088851444423198699951171875</LongitudeDegrees>
            </Position>
            <AltitudeMeters>1015.79998779296875</AltitudeMeters>
            <DistanceMeters>109996.48719497</DistanceMeters>
          </Trackpoint>
          <Trackpoint>
            <Time>2019-08-02T11:06:56.000Z</Time>
            <Position>
              <LatitudeDegrees>40.927166528999805450439453125</LatitudeDegrees>
              <LongitudeDegrees>-4.120950289070606231689453125</LongitudeDegrees>
            </Position>
            <AltitudeMeters>1014.4000244140625</AltitudeMeters>
            <DistanceMeters>110003.17156616</DistanceMeters>
          </Trackpoint>
          <Trackpoint>
            <Time>2019-08-02T11:06:59.000Z</Time>
            <Position>
              <LatitudeDegrees>40.92712529003620147705078125</LatitudeDegrees>
              <LongitudeDegrees>-4.121009297668933868408203125</LongitudeDegrees>
            </Position>
            <AltitudeMeters>1013</AltitudeMeters>
            <DistanceMeters>110009.93183368</DistanceMeters>
          </Trackpoint>
          <Trackpoint>
            <Time>2019-08-02T11:07:02.000Z</Time>
            <Position>
              <LatitudeDegrees>40.92708170413970947265625</LatitudeDegrees>
              <LongitudeDegrees>-4.12106461822986602783203125</LongitudeDegrees>
            </Position>
            <AltitudeMeters>1011.5999755859375</AltitudeMeters>
            <DistanceMeters>110016.65325261</DistanceMeters>
          </Trackpoint>
          <Trackpoint>
            <Time>2019-08-02T11:07:05.000Z</Time>
            <Position>
              <LatitudeDegrees>40.92705018818378448486328125</LatitudeDegrees>
              <LongitudeDegrees>-4.121145419776439666748046875</LongitudeDegrees>
            </Position>
            <AltitudeMeters>1009.79998779296875</AltitudeMeters>
            <DistanceMeters>110024.29980379</DistanceMeters>
          </Trackpoint>
          <Trackpoint>
            <Time>2019-08-02T11:07:07.000Z</Time>
            <Position>
              <LatitudeDegrees>40.92703049071133136749267578125</LatitudeDegrees>
              <LongitudeDegrees>-4.12121172063052654266357421875</LongitudeDegrees>
            </Position>
            <AltitudeMeters>1008.5999755859375</AltitudeMeters>
            <DistanceMeters>110030.29025651</DistanceMeters>
          </Trackpoint>
          <Trackpoint>
            <Time>2019-08-02T11:07:09.000Z</Time>
            <Position>
              <LatitudeDegrees>40.92700618319213390350341796875</LatitudeDegrees>
              <LongitudeDegrees>-4.12128263153135776519775390625</LongitudeDegrees>
            </Position>
            <AltitudeMeters>1007.4000244140625</AltitudeMeters>
            <DistanceMeters>110036.83814189</DistanceMeters>
          </Trackpoint>
          <Trackpoint>
            <Time>2019-08-02T11:07:12.000Z</Time>
            <Position>
              <LatitudeDegrees>40.92696310020983219146728515625</LatitudeDegrees>
              <LongitudeDegrees>-4.12139696069061756134033203125</LongitudeDegrees>
            </Position>
            <AltitudeMeters>1005.79998779296875</AltitudeMeters>
            <DistanceMeters>110047.58162536</DistanceMeters>
          </Trackpoint>
          <Trackpoint>
            <Time>2019-08-02T11:07:14.000Z</Time>
            <Position>
              <LatitudeDegrees>40.92693678103387355804443359375</LatitudeDegrees>
              <LongitudeDegrees>-4.121480025351047515869140625</LongitudeDegrees>
            </Position>
            <AltitudeMeters>1004.79998779296875</AltitudeMeters>
            <DistanceMeters>110055.15639306</DistanceMeters>
          </Trackpoint>
          <Trackpoint>
            <Time>2019-08-02T11:07:16.000Z</Time>
            <Position>
              <LatitudeDegrees>40.92690794728696346282958984375</LatitudeDegrees>
              <LongitudeDegrees>-4.12156426347792148590087890625</LongitudeDegrees>
            </Position>
            <AltitudeMeters>1003.79998779296875</AltitudeMeters>
            <DistanceMeters>110062.93350384</DistanceMeters>
          </Trackpoint>
          <Trackpoint>
            <Time>2019-08-02T11:07:19.000Z</Time>
            <Position>
              <LatitudeDegrees>40.92686503194272518157958984375</LatitudeDegrees>
              <LongitudeDegrees>-4.12169250659644603729248046875</LongitudeDegrees>
            </Position>
            <AltitudeMeters>1002.4000244140625</AltitudeMeters>
            <DistanceMeters>110074.72830599</DistanceMeters>
          </Trackpoint>
          <Trackpoint>
            <Time>2019-08-02T11:07:22.000Z</Time>
            <Position>
              <LatitudeDegrees>40.92681876383721828460693359375</LatitudeDegrees>
              <LongitudeDegrees>-4.12183013744652271270751953125</LongitudeDegrees>
            </Position>
            <AltitudeMeters>1001.4000244140625</AltitudeMeters>
            <DistanceMeters>110087.39576266</DistanceMeters>
          </Trackpoint>
          <Trackpoint>
            <Time>2019-08-02T11:07:25.000Z</Time>
            <Position>
              <LatitudeDegrees>40.9267687238752841949462890625</LatitudeDegrees>
              <LongitudeDegrees>-4.121970199048519134521484375</LongitudeDegrees>
            </Position>
            <AltitudeMeters>999.79998779296875</AltitudeMeters>
            <DistanceMeters>110100.42447621</DistanceMeters>
          </Trackpoint>
          <Trackpoint>
            <Time>2019-08-02T11:07:29.000Z</Time>
            <Position>
              <LatitudeDegrees>40.92670108191668987274169921875</LatitudeDegrees>
              <LongitudeDegrees>-4.122161306440830230712890625</LongitudeDegrees>
            </Position>
            <AltitudeMeters>998.4000244140625</AltitudeMeters>
            <DistanceMeters>110118.17133527</DistanceMeters>
          </Trackpoint>
          <Trackpoint>
            <Time>2019-08-02T11:07:30.000Z</Time>
            <Position>
              <LatitudeDegrees>40.92668331228196620941162109375</LatitudeDegrees>
              <LongitudeDegrees>-4.12220967002213001251220703125</LongitudeDegrees>
            </Position>
            <AltitudeMeters>998.20001220703125</AltitudeMeters>
            <DistanceMeters>110122.69284973</DistanceMeters>
          </Trackpoint>
          <Trackpoint>
            <Time>2019-08-02T11:07:32.000Z</Time>
            <Position>
              <LatitudeDegrees>40.92664777301251888275146484375</LatitudeDegrees>
              <LongitudeDegrees>-4.12230924703180789947509765625</LongitudeDegrees>
            </Position>
            <AltitudeMeters>997.20001220703125</AltitudeMeters>
            <DistanceMeters>110131.95393315</DistanceMeters>
          </Trackpoint>
          <Trackpoint>
            <Time>2019-08-02T11:07:36.000Z</Time>
            <Position>
              <LatitudeDegrees>40.92657811939716339111328125</LatitudeDegrees>
              <LongitudeDegrees>-4.122515022754669189453125</LongitudeDegrees>
            </Position>
            <AltitudeMeters>996.20001220703125</AltitudeMeters>
            <DistanceMeters>110150.91598957</DistanceMeters>
          </Trackpoint>
          <Trackpoint>
            <Time>2019-08-02T11:07:41.000Z</Time>
            <Position>
              <LatitudeDegrees>40.92647946439683437347412109375</LatitudeDegrees>
              <LongitudeDegrees>-4.12279757671058177947998046875</LongitudeDegrees>
            </Position>
            <AltitudeMeters>994.5999755859375</AltitudeMeters>
            <DistanceMeters>110177.09166684</DistanceMeters>
          </Trackpoint>
          <Trackpoint>
            <Time>2019-08-02T11:07:48.000Z</Time>
            <Position>
              <LatitudeDegrees>40.926335714757442474365234375</LatitudeDegrees>
              <LongitudeDegrees>-4.12320644594728946685791015625</LongitudeDegrees>
            </Position>
            <AltitudeMeters>993.5999755859375</AltitudeMeters>
            <DistanceMeters>110215.01554158</DistanceMeters>
          </Trackpoint>
          <Trackpoint>
            <Time>2019-08-02T11:07:53.000Z</Time>
            <Position>
              <LatitudeDegrees>40.9262332879006862640380859375</LatitudeDegrees>
              <LongitudeDegrees>-4.12351154722273349761962890625</LongitudeDegrees>
            </Position>
            <AltitudeMeters>992.20001220703125</AltitudeMeters>
            <DistanceMeters>110243.09171463</DistanceMeters>
          </Trackpoint>
          <Trackpoint>
            <Time>2019-08-02T11:07:59.000Z</Time>
            <Position>
              <LatitudeDegrees>40.92610563151538372039794921875</LatitudeDegrees>
              <LongitudeDegrees>-4.12388026714324951171875</LongitudeDegrees>
            </Position>
            <AltitudeMeters>991.20001220703125</AltitudeMeters>
            <DistanceMeters>110277.19955461</DistanceMeters>
          </Trackpoint>
          <Trackpoint>
            <Time>2019-08-02T11:08:04.000Z</Time>
            <Position>
              <LatitudeDegrees>40.92599582858383655548095703125</LatitudeDegrees>
              <LongitudeDegrees>-4.12418662570416927337646484375</LongitudeDegrees>
            </Position>
            <AltitudeMeters>989.79998779296875</AltitudeMeters>
            <DistanceMeters>110305.71437836</DistanceMeters>
          </Trackpoint>
          <Trackpoint>
            <Time>2019-08-02T11:08:08.000Z</Time>
            <Position>
              <LatitudeDegrees>40.9259117580950260162353515625</LatitudeDegrees>
              <LongitudeDegrees>-4.12443355657160282135009765625</LongitudeDegrees>
            </Position>
            <AltitudeMeters>988.5999755859375</AltitudeMeters>
            <DistanceMeters>110328.49087637</DistanceMeters>
          </Trackpoint>
          <Trackpoint>
            <Time>2019-08-02T11:08:12.000Z</Time>
            <Position>
              <LatitudeDegrees>40.92582852579653263092041015625</LatitudeDegrees>
              <LongitudeDegrees>-4.12468333728611469268798828125</LongitudeDegrees>
            </Position>
            <AltitudeMeters>987.4000244140625</AltitudeMeters>
            <DistanceMeters>110351.44843377</DistanceMeters>
          </Trackpoint>
          <Trackpoint>
            <Time>2019-08-02T11:08:17.000Z</Time>
            <Position>
              <LatitudeDegrees>40.9257193095982074737548828125</LatitudeDegrees>
              <LongitudeDegrees>-4.124999083578586578369140625</LongitudeDegrees>
            </Position>
            <AltitudeMeters>985.79998779296875</AltitudeMeters>
            <DistanceMeters>110380.65148976</DistanceMeters>
          </Trackpoint>
          <Trackpoint>
            <Time>2019-08-02T11:08:21.000Z</Time>
            <Position>
              <LatitudeDegrees>40.925632975995540618896484375</LatitudeDegrees>
              <LongitudeDegrees>-4.1252481937408447265625</LongitudeDegrees>
            </Position>
            <AltitudeMeters>984.79998779296875</AltitudeMeters>
            <DistanceMeters>110403.69933732</DistanceMeters>
          </Trackpoint>
          <Trackpoint>
            <Time>2019-08-02T11:08:25.000Z</Time>
            <Position>
              <LatitudeDegrees>40.9255489893257617950439453125</LatitudeDegrees>
              <LongitudeDegrees>-4.1254954598844051361083984375</LongitudeDegrees>
            </Position>
            <AltitudeMeters>983.5999755859375</AltitudeMeters>
            <DistanceMeters>110426.49763045</DistanceMeters>
          </Trackpoint>
          <Trackpoint>
            <Time>2019-08-02T11:08:28.000Z</Time>
            <Position>
              <LatitudeDegrees>40.9254862926900386810302734375</LatitudeDegrees>
              <LongitudeDegrees>-4.1256842203438282012939453125</LongitudeDegrees>
            </Position>
            <AltitudeMeters>982.4000244140625</AltitudeMeters>
            <DistanceMeters>110443.83785783</DistanceMeters>
          </Trackpoint>
          <Trackpoint>
            <Time>2019-08-02T11:08:30.000Z</Time>
            <Position>
              <LatitudeDegrees>40.925442874431610107421875</LatitudeDegrees>
              <LongitudeDegrees>-4.12580785341560840606689453125</LongitudeDegrees>
            </Position>
            <AltitudeMeters>982.20001220703125</AltitudeMeters>
            <DistanceMeters>110455.30266453</DistanceMeters>
          </Trackpoint>
          <Trackpoint>
            <Time>2019-08-02T11:08:33.000Z</Time>
            <Position>
              <LatitudeDegrees>40.92538344673812389373779296875</LatitudeDegrees>
              <LongitudeDegrees>-4.12599376402795314788818359375</LongitudeDegrees>
            </Position>
            <AltitudeMeters>981.4000244140625</AltitudeMeters>
            <DistanceMeters>110472.2781704</DistanceMeters>
          </Trackpoint>
          <Trackpoint>
            <Time>2019-08-02T11:08:36.000Z</Time>
            <Position>
              <LatitudeDegrees>40.92533282004296779632568359375</LatitudeDegrees>
              <LongitudeDegrees>-4.12618135102093219757080078125</LongitudeDegrees>
            </Position>
            <AltitudeMeters>980.5999755859375</AltitudeMeters>
            <DistanceMeters>110489.02957707</DistanceMeters>
          </Trackpoint>
          <Trackpoint>
            <Time>2019-08-02T11:08:39.000Z</Time>
            <Position>
              <LatitudeDegrees>40.92530348338186740875244140625</LatitudeDegrees>
              <LongitudeDegrees>-4.12637799046933650970458984375</LongitudeDegrees>
            </Position>
            <AltitudeMeters>980.20001220703125</AltitudeMeters>
            <DistanceMeters>110505.88550556</DistanceMeters>
          </Trackpoint>
          <Trackpoint>
            <Time>2019-08-02T11:08:45.000Z</Time>
            <Position>
              <LatitudeDegrees>40.92524640262126922607421875</LatitudeDegrees>
              <LongitudeDegrees>-4.12677713669836521148681640625</LongitudeDegrees>
            </Position>
            <AltitudeMeters>978.79998779296875</AltitudeMeters>
            <DistanceMeters>110540.04810499</DistanceMeters>
          </Trackpoint>
          <Trackpoint>
            <Time>2019-08-02T11:08:56.000Z</Time>
            <Position>
              <LatitudeDegrees>40.9252452291548252105712890625</LatitudeDegrees>
              <LongitudeDegrees>-4.12752312608063220977783203125</LongitudeDegrees>
            </Position>
            <AltitudeMeters>977.79998779296875</AltitudeMeters>
            <DistanceMeters>110602.78286774</DistanceMeters>
          </Trackpoint>
          <Trackpoint>
            <Time>2019-08-02T11:08:57.000Z</Time>
            <Position>
              <LatitudeDegrees>40.92525201849639415740966796875</LatitudeDegrees>
              <LongitudeDegrees>-4.12758951075375080108642578125</LongitudeDegrees>
            </Position>
            <AltitudeMeters>977.79998779296875</AltitudeMeters>
            <DistanceMeters>110608.41595647</DistanceMeters>
          </Trackpoint>
          <Trackpoint>
            <Time>2019-08-02T11:09:09.000Z</Time>
            <Position>
              <LatitudeDegrees>40.9253890626132488250732421875</LatitudeDegrees>
              <LongitudeDegrees>-4.12832242436707019805908203125</LongitudeDegrees>
            </Position>
            <AltitudeMeters>977.79998779296875</AltitudeMeters>
            <DistanceMeters>110671.91030117</DistanceMeters>
          </Trackpoint>
          <Trackpoint>
            <Time>2019-08-02T11:09:13.000Z</Time>
            <Position>
              <LatitudeDegrees>40.92546458356082439422607421875</LatitudeDegrees>
              <LongitudeDegrees>-4.12855275906622409820556640625</LongitudeDegrees>
            </Position>
            <AltitudeMeters>978.5999755859375</AltitudeMeters>
            <DistanceMeters>110693.02569898</DistanceMeters>
          </Trackpoint>
          <Trackpoint>
            <Time>2019-08-02T11:09:19.000Z</Time>
            <Position>
              <LatitudeDegrees>40.92559433542191982269287109375</LatitudeDegrees>
              <LongitudeDegrees>-4.12888837046921253204345703125</LongitudeDegrees>
            </Position>
            <AltitudeMeters>979.4000244140625</AltitudeMeters>
            <DistanceMeters>110724.72932257</DistanceMeters>
          </Trackpoint>
          <Trackpoint>
            <Time>2019-08-02T11:09:24.000Z</Time>
            <Position>
              <LatitudeDegrees>40.9257307089865207672119140625</LatitudeDegrees>
              <LongitudeDegrees>-4.1291563399136066436767578125</LongitudeDegrees>
            </Position>
            <AltitudeMeters>980.79998779296875</AltitudeMeters>
            <DistanceMeters>110751.89931979</DistanceMeters>
          </Trackpoint>
          <Trackpoint>
            <Time>2019-08-02T11:09:26.000Z</Time>
            <Position>
              <LatitudeDegrees>40.925788544118404388427734375</LatitudeDegrees>
              <LongitudeDegrees>-4.12926002405583858489990234375</LongitudeDegrees>
            </Position>
            <AltitudeMeters>981.5999755859375</AltitudeMeters>
            <DistanceMeters>110762.73694888</DistanceMeters>
          </Trackpoint>
          <Trackpoint>
            <Time>2019-08-02T11:09:29.000Z</Time>
            <Position>
              <LatitudeDegrees>40.92588208615779876708984375</LatitudeDegrees>
              <LongitudeDegrees>-4.12940989248454570770263671875</LongitudeDegrees>
            </Position>
            <AltitudeMeters>983</AltitudeMeters>
            <DistanceMeters>110779.08430593</DistanceMeters>
          </Trackpoint>
          <Trackpoint>
            <Time>2019-08-02T11:09:32.000Z</Time>
            <Position>
              <LatitudeDegrees>40.92598057352006435394287109375</LatitudeDegrees>
              <LongitudeDegrees>-4.12956026382744312286376953125</LongitudeDegrees>
            </Position>
            <AltitudeMeters>984.4000244140625</AltitudeMeters>
            <DistanceMeters>110795.81980266</DistanceMeters>
          </Trackpoint>
          <Trackpoint>
            <Time>2019-08-02T11:09:34.000Z</Time>
            <Position>
              <LatitudeDegrees>40.92605106532573699951171875</LatitudeDegrees>
              <LongitudeDegrees>-4.1296590864658355712890625</LongitudeDegrees>
            </Position>
            <AltitudeMeters>985.5999755859375</AltitudeMeters>
            <DistanceMeters>110807.24871581</DistanceMeters>
          </Trackpoint>
          <Trackpoint>
            <Time>2019-08-02T11:09:36.000Z</Time>
            <Position>
              <LatitudeDegrees>40.926126502454280853271484375</LatitudeDegrees>
              <LongitudeDegrees>-4.1297534666955471038818359375</LongitudeDegrees>
            </Position>
            <AltitudeMeters>986.79998779296875</AltitudeMeters>
            <DistanceMeters>110818.80296395</DistanceMeters>
          </Trackpoint>
          <Trackpoint>
            <Time>2019-08-02T11:09:39.000Z</Time>
            <Position>
              <LatitudeDegrees>40.92624359764158725738525390625</LatitudeDegrees>
              <LongitudeDegrees>-4.12988715805113315582275390625</LongitudeDegrees>
            </Position>
            <AltitudeMeters>988</AltitudeMeters>
            <DistanceMeters>110836.01513256</DistanceMeters>
          </Trackpoint>
          <Trackpoint>
            <Time>2019-08-02T11:09:41.000Z</Time>
            <Position>
              <LatitudeDegrees>40.92632255516946315765380859375</LatitudeDegrees>
              <LongitudeDegrees>-4.12996745668351650238037109375</LongitudeDegrees>
            </Position>
            <AltitudeMeters>989.20001220703125</AltitudeMeters>
            <DistanceMeters>110847.09787138</DistanceMeters>
          </Trackpoint>
          <Trackpoint>
            <Time>2019-08-02T11:09:43.000Z</Time>
            <Position>
              <LatitudeDegrees>40.92640168033540248870849609375</LatitudeDegrees>
              <LongitudeDegrees>-4.13004222325980663299560546875</LongitudeDegrees>
            </Position>
            <AltitudeMeters>990.20001220703125</AltitudeMeters>
            <DistanceMeters>110857.91882333</DistanceMeters>
          </Trackpoint>
          <Trackpoint>
            <Time>2019-08-02T11:09:45.000Z</Time>
            <Position>
              <LatitudeDegrees>40.9264822304248809814453125</LatitudeDegrees>
              <LongitudeDegrees>-4.13011028431355953216552734375</LongitudeDegrees>
            </Position>
            <AltitudeMeters>991.20001220703125</AltitudeMeters>
            <DistanceMeters>110868.55545004</DistanceMeters>
          </Trackpoint>
          <Trackpoint>
            <Time>2019-08-02T11:09:47.000Z</Time>
            <Position>
              <LatitudeDegrees>40.92656261287629604339599609375</LatitudeDegrees>
              <LongitudeDegrees>-4.13017348386347293853759765625</LongitudeDegrees>
            </Position>
            <AltitudeMeters>992.4000244140625</AltitudeMeters>
            <DistanceMeters>110878.96163459</DistanceMeters>
          </Trackpoint>
          <Trackpoint>
            <Time>2019-08-02T11:09:49.000Z</Time>
            <Position>
              <LatitudeDegrees>40.92664517462253570556640625</LatitudeDegrees>
              <LongitudeDegrees>-4.130231402814388275146484375</LongitudeDegrees>
            </Position>
            <AltitudeMeters>993.79998779296875</AltitudeMeters>
            <DistanceMeters>110889.36217715</DistanceMeters>
          </Trackpoint>
          <Trackpoint>
            <Time>2019-08-02T11:09:51.000Z</Time>
            <Position>
              <LatitudeDegrees>40.9267301671206951141357421875</LatitudeDegrees>
              <LongitudeDegrees>-4.13028471171855926513671875</LongitudeDegrees>
            </Position>
            <AltitudeMeters>995</AltitudeMeters>
            <DistanceMeters>110899.83065401</DistanceMeters>
          </Trackpoint>
          <Trackpoint>
            <Time>2019-08-02T11:09:53.000Z</Time>
            <Position>
              <LatitudeDegrees>40.926815830171108245849609375</LatitudeDegrees>
              <LongitudeDegrees>-4.13033701479434967041015625</LongitudeDegrees>
            </Position>
            <AltitudeMeters>996.20001220703125</AltitudeMeters>
            <DistanceMeters>110910.33056845</DistanceMeters>
          </Trackpoint>
          <Trackpoint>
            <Time>2019-08-02T11:09:55.000Z</Time>
            <Position>
              <LatitudeDegrees>40.926901996135711669921875</LatitudeDegrees>
              <LongitudeDegrees>-4.130384959280490875244140625</LongitudeDegrees>
            </Position>
            <AltitudeMeters>997.79998779296875</AltitudeMeters>
            <DistanceMeters>110920.73414939</DistanceMeters>
          </Trackpoint>
          <Trackpoint>
            <Time>2019-08-02T11:09:57.000Z</Time>
            <Position>
              <LatitudeDegrees>40.92698925174772739410400390625</LatitudeDegrees>
              <LongitudeDegrees>-4.13042963482439517974853515625</LongitudeDegrees>
            </Position>
            <AltitudeMeters>999</AltitudeMeters>
            <DistanceMeters>110931.1472737</DistanceMeters>
          </Trackpoint>
          <Trackpoint>
            <Time>2019-08-02T11:09:59.000Z</Time>
            <Position>
              <LatitudeDegrees>40.927077345550060272216796875</LatitudeDegrees>
              <LongitudeDegrees>-4.13047037087380886077880859375</LongitudeDegrees>
            </Position>
            <AltitudeMeters>1000.4000244140625</AltitudeMeters>
            <DistanceMeters>110941.53348057</DistanceMeters>
          </Trackpoint>
          <Trackpoint>
            <Time>2019-08-02T11:10:01.000Z</Time>
            <Position>
              <LatitudeDegrees>40.92716543935239315032958984375</LatitudeDegrees>
              <LongitudeDegrees>-4.13050641305744647979736328125</LongitudeDegrees>
            </Position>
            <AltitudeMeters>1001.4000244140625</AltitudeMeters>
            <DistanceMeters>110951.79592578</DistanceMeters>
          </Trackpoint>
          <Trackpoint>
            <Time>2019-08-02T11:10:05.000Z</Time>
            <Position>
              <LatitudeDegrees>40.92734120786190032958984375</LatitudeDegrees>
              <LongitudeDegrees>-4.13056910969316959381103515625</LongitudeDegrees>
            </Position>
            <AltitudeMeters>1002.5999755859375</AltitudeMeters>
            <DistanceMeters>110972.05735059</DistanceMeters>
          </Trackpoint>
          <Trackpoint>
            <Time>2019-08-02T11:10:09.000Z</Time>
            <Position>
              <LatitudeDegrees>40.92751211486756801605224609375</LatitudeDegrees>
              <LongitudeDegrees>-4.13062862120568752288818359375</LongitudeDegrees>
            </Position>
            <AltitudeMeters>1003.79998779296875</AltitudeMeters>
            <DistanceMeters>110991.72719185</DistanceMeters>
          </Trackpoint>
          <Trackpoint>
            <Time>2019-08-02T11:10:22.000Z</Time>
            <Position>
              <LatitudeDegrees>40.9280566871166229248046875</LatitudeDegrees>
              <LongitudeDegrees>-4.1308042220771312713623046875</LongitudeDegrees>
            </Position>
            <AltitudeMeters>1003</AltitudeMeters>
            <DistanceMeters>111054.11199462</DistanceMeters>
          </Trackpoint>
          <Trackpoint>
            <Time>2019-08-02T11:10:28.000Z</Time>
            <Position>
              <LatitudeDegrees>40.9283032827079296112060546875</LatitudeDegrees>
              <LongitudeDegrees>-4.1309141926467418670654296875</LongitudeDegrees>
            </Position>
            <AltitudeMeters>1002.4000244140625</AltitudeMeters>
            <DistanceMeters>111083.07472794</DistanceMeters>
          </Trackpoint>
          <Trackpoint>
            <Time>2019-08-02T11:10:34.000Z</Time>
            <Position>
              <LatitudeDegrees>40.92855281196534633636474609375</LatitudeDegrees>
              <LongitudeDegrees>-4.1310727782547473907470703125</LongitudeDegrees>
            </Position>
            <AltitudeMeters>1004.20001220703125</AltitudeMeters>
            <DistanceMeters>111113.88376047</DistanceMeters>
          </Trackpoint>
          <Trackpoint>
            <Time>2019-08-02T11:10:37.000Z</Time>
            <Position>
              <LatitudeDegrees>40.92867719940841197967529296875</LatitudeDegrees>
              <LongitudeDegrees>-4.1311584413051605224609375</LongitudeDegrees>
            </Position>
            <AltitudeMeters>1005.79998779296875</AltitudeMeters>
            <DistanceMeters>111129.49014447</DistanceMeters>
          </Trackpoint>
          <Trackpoint>
            <Time>2019-08-02T11:10:39.000Z</Time>
            <Position>
              <LatitudeDegrees>40.9287632815539836883544921875</LatitudeDegrees>
              <LongitudeDegrees>-4.13121250458061695098876953125</LongitudeDegrees>
            </Position>
            <AltitudeMeters>1007</AltitudeMeters>
            <DistanceMeters>111140.09573886</DistanceMeters>
          </Trackpoint>
          <Trackpoint>
            <Time>2019-08-02T11:10:41.000Z</Time>
            <Position>
              <LatitudeDegrees>40.92885690741240978240966796875</LatitudeDegrees>
              <LongitudeDegrees>-4.13128115236759185791015625</LongitudeDegrees>
            </Position>
            <AltitudeMeters>1008.5999755859375</AltitudeMeters>
            <DistanceMeters>111152.00861766</DistanceMeters>
          </Trackpoint>
          <Trackpoint>
            <Time>2019-08-02T11:10:43.000Z</Time>
            <Position>
              <LatitudeDegrees>40.92896067537367343902587890625</LatitudeDegrees>
              <LongitudeDegrees>-4.131350554525852203369140625</LongitudeDegrees>
            </Position>
            <AltitudeMeters>1010.20001220703125</AltitudeMeters>
            <DistanceMeters>111164.94900937</DistanceMeters>
          </Trackpoint>
          <Trackpoint>
            <Time>2019-08-02T11:10:45.000Z</Time>
            <Position>
              <LatitudeDegrees>40.92905958183109760284423828125</LatitudeDegrees>
              <LongitudeDegrees>-4.1313607804477214813232421875</LongitudeDegrees>
            </Position>
            <AltitudeMeters>1011.79998779296875</AltitudeMeters>
            <DistanceMeters>111175.99093366</DistanceMeters>
          </Trackpoint>
          <Trackpoint>
            <Time>2019-08-02T11:10:47.000Z</Time>
            <Position>
              <LatitudeDegrees>40.929170139133930206298828125</LatitudeDegrees>
              <LongitudeDegrees>-4.13140319287776947021484375</LongitudeDegrees>
            </Position>
            <AltitudeMeters>1013.20001220703125</AltitudeMeters>
            <DistanceMeters>111188.80263533</DistanceMeters>
          </Trackpoint>
          <Trackpoint>
            <Time>2019-08-02T11:10:49.000Z</Time>
            <Position>
              <LatitudeDegrees>40.9292846359312534332275390625</LatitudeDegrees>
              <LongitudeDegrees>-4.131443090736865997314453125</LongitudeDegrees>
            </Position>
            <AltitudeMeters>1014.5999755859375</AltitudeMeters>
            <DistanceMeters>111201.98089129</DistanceMeters>
          </Trackpoint>
          <Trackpoint>
            <Time>2019-08-02T11:10:59.000Z</Time>
            <Position>
              <LatitudeDegrees>40.9295246936380863189697265625</LatitudeDegrees>
              <LongitudeDegrees>-4.1318807937204837799072265625</LongitudeDegrees>
            </Position>
            <AltitudeMeters>1021</AltitudeMeters>
            <DistanceMeters>111247.46316258</DistanceMeters>
          </Trackpoint>
          <Trackpoint>
            <Time>2019-08-02T11:11:00.000Z</Time>
            <Position>
              <LatitudeDegrees>40.92952209524810314178466796875</LatitudeDegrees>
              <LongitudeDegrees>-4.131912477314472198486328125</LongitudeDegrees>
            </Position>
            <AltitudeMeters>1021.79998779296875</AltitudeMeters>
            <DistanceMeters>111250.14419612</DistanceMeters>
          </Trackpoint>
          <Trackpoint>
            <Time>2019-08-02T11:11:02.000Z</Time>
            <Position>
              <LatitudeDegrees>40.9295106120407581329345703125</LatitudeDegrees>
              <LongitudeDegrees>-4.13201197050511837005615234375</LongitudeDegrees>
            </Position>
            <AltitudeMeters>1023.20001220703125</AltitudeMeters>
            <DistanceMeters>111258.60797757</DistanceMeters>
          </Trackpoint>
          <Trackpoint>
            <Time>2019-08-02T11:11:04.000Z</Time>
            <Position>
              <LatitudeDegrees>40.92955864034593105316162109375</LatitudeDegrees>
              <LongitudeDegrees>-4.13211456499993801116943359375</LongitudeDegrees>
            </Position>
            <AltitudeMeters>1024.800048828125</AltitudeMeters>
            <DistanceMeters>111268.7567239</DistanceMeters>
          </Trackpoint>
          <Trackpoint>
            <Time>2019-08-02T11:11:09.000Z</Time>
            <Position>
              <LatitudeDegrees>40.92966425232589244842529296875</LatitudeDegrees>
              <LongitudeDegrees>-4.13241262547671794891357421875</LongitudeDegrees>
            </Position>
            <AltitudeMeters>1026</AltitudeMeters>
            <DistanceMeters>111296.44033977</DistanceMeters>
          </Trackpoint>
          <Trackpoint>
            <Time>2019-08-02T11:11:10.000Z</Time>
            <Position>
              <LatitudeDegrees>40.929684452712535858154296875</LatitudeDegrees>
              <LongitudeDegrees>-4.13247331045567989349365234375</LongitudeDegrees>
            </Position>
            <AltitudeMeters>1026.199951171875</AltitudeMeters>
            <DistanceMeters>111302.0170398</DistanceMeters>
          </Trackpoint>
          <Trackpoint>
            <Time>2019-08-02T11:11:14.000Z</Time>
            <Position>
              <LatitudeDegrees>40.9297647513449192047119140625</LatitudeDegrees>
              <LongitudeDegrees>-4.13268621079623699188232421875</LongitudeDegrees>
            </Position>
            <AltitudeMeters>1026.4000244140625</AltitudeMeters>
            <DistanceMeters>111322.02687712</DistanceMeters>
          </Trackpoint>
          <Trackpoint>
            <Time>2019-08-02T11:11:24.000Z</Time>
            <Position>
              <LatitudeDegrees>40.929944626986980438232421875</LatitudeDegrees>
              <LongitudeDegrees>-4.13328384049236774444580078125</LongitudeDegrees>
            </Position>
            <AltitudeMeters>1025</AltitudeMeters>
            <DistanceMeters>111376.12270703</DistanceMeters>
          </Trackpoint>
          <Trackpoint>
            <Time>2019-08-02T11:11:29.000Z</Time>
            <Position>
              <LatitudeDegrees>40.93001528643071651458740234375</LatitudeDegrees>
              <LongitudeDegrees>-4.13361257873475551605224609375</LongitudeDegrees>
            </Position>
            <AltitudeMeters>1024.199951171875</AltitudeMeters>
            <DistanceMeters>111404.8632222</DistanceMeters>
          </Trackpoint>
          <Trackpoint>
            <Time>2019-08-02T11:11:33.000Z</Time>
            <Position>
              <LatitudeDegrees>40.930075384676456451416015625</LatitudeDegrees>
              <LongitudeDegrees>-4.13389219902455806732177734375</LongitudeDegrees>
            </Position>
            <AltitudeMeters>1023</AltitudeMeters>
            <DistanceMeters>111429.30929467</DistanceMeters>
          </Trackpoint>
          <Trackpoint>
            <Time>2019-08-02T11:11:36.000Z</Time>
            <Position>
              <LatitudeDegrees>40.9301211498677730560302734375</LatitudeDegrees>
              <LongitudeDegrees>-4.1341103799641132354736328125</LongitudeDegrees>
            </Position>
            <AltitudeMeters>1022</AltitudeMeters>
            <DistanceMeters>111448.34976497</DistanceMeters>
          </Trackpoint>
          <Trackpoint>
            <Time>2019-08-02T11:11:40.000Z</Time>
            <Position>
              <LatitudeDegrees>40.93018510378897190093994140625</LatitudeDegrees>
              <LongitudeDegrees>-4.13441187702119350433349609375</LongitudeDegrees>
            </Position>
            <AltitudeMeters>1020.79998779296875</AltitudeMeters>
            <DistanceMeters>111474.68279746</DistanceMeters>
          </Trackpoint>
          <Trackpoint>
            <Time>2019-08-02T11:11:44.000Z</Time>
            <Position>
              <LatitudeDegrees>40.9302498959004878997802734375</LatitudeDegrees>
              <LongitudeDegrees>-4.134714044630527496337890625</LongitudeDegrees>
            </Position>
            <AltitudeMeters>1019.5999755859375</AltitudeMeters>
            <DistanceMeters>111501.0954381</DistanceMeters>
          </Trackpoint>
          <Trackpoint>
            <Time>2019-08-02T11:11:49.000Z</Time>
            <Position>
              <LatitudeDegrees>40.93032726086676120758056640625</LatitudeDegrees>
              <LongitudeDegrees>-4.135086871683597564697265625</LongitudeDegrees>
            </Position>
            <AltitudeMeters>1018.20001220703125</AltitudeMeters>
            <DistanceMeters>111533.6072144</DistanceMeters>
          </Trackpoint>
          <Trackpoint>
            <Time>2019-08-02T11:11:52.000Z</Time>
            <Position>
              <LatitudeDegrees>40.93037671409547328948974609375</LatitudeDegrees>
              <LongitudeDegrees>-4.1353096626698970794677734375</LongitudeDegrees>
            </Position>
            <AltitudeMeters>1017</AltitudeMeters>
            <DistanceMeters>111553.13329664</DistanceMeters>
          </Trackpoint>
          <Trackpoint>
            <Time>2019-08-02T11:11:56.000Z</Time>
            <Position>
              <LatitudeDegrees>40.930438823997974395751953125</LatitudeDegrees>
              <LongitudeDegrees>-4.13560487329959869384765625</LongitudeDegrees>
            </Position>
            <AltitudeMeters>1015.4000244140625</AltitudeMeters>
            <DistanceMeters>111578.90218683</DistanceMeters>
          </Trackpoint>
          <Trackpoint>
            <Time>2019-08-02T11:11:58.000Z</Time>
            <Position>
              <LatitudeDegrees>40.93047075904905796051025390625</LatitudeDegrees>
              <LongitudeDegrees>-4.1357498802244663238525390625</LongitudeDegrees>
            </Position>
            <AltitudeMeters>1014.4000244140625</AltitudeMeters>
            <DistanceMeters>111591.60310355</DistanceMeters>
          </Trackpoint>
          <Trackpoint>
            <Time>2019-08-02T11:12:01.000Z</Time>
            <Position>
              <LatitudeDegrees>40.93051669187843799591064453125</LatitudeDegrees>
              <LongitudeDegrees>-4.1359678097069263458251953125</LongitudeDegrees>
            </Position>
            <AltitudeMeters>1013</AltitudeMeters>
            <DistanceMeters>111610.62839157</DistanceMeters>
          </Trackpoint>
          <Trackpoint>
            <Time>2019-08-02T11:12:04.000Z</Time>
            <Position>
              <LatitudeDegrees>40.9305630438029766082763671875</LatitudeDegrees>
              <LongitudeDegrees>-4.136185236275196075439453125</LongitudeDegrees>
            </Position>
            <AltitudeMeters>1011.5999755859375</AltitudeMeters>
            <DistanceMeters>111629.62565545</DistanceMeters>
          </Trackpoint>
          <Trackpoint>
            <Time>2019-08-02T11:12:06.000Z</Time>
            <Position>
              <LatitudeDegrees>40.9305938892066478729248046875</LatitudeDegrees>
              <LongitudeDegrees>-4.13633133284747600555419921875</LongitudeDegrees>
            </Position>
            <AltitudeMeters>1010.4000244140625</AltitudeMeters>
            <DistanceMeters>111642.38190794</DistanceMeters>
          </Trackpoint>
          <Trackpoint>
            <Time>2019-08-02T11:12:08.000Z</Time>
            <Position>
              <LatitudeDegrees>40.9306260757148265838623046875</LatitudeDegrees>
              <LongitudeDegrees>-4.1364787705242633819580078125</LongitudeDegrees>
            </Position>
            <AltitudeMeters>1009.4000244140625</AltitudeMeters>
            <DistanceMeters>111655.28701158</DistanceMeters>
          </Trackpoint>
          <Trackpoint>
            <Time>2019-08-02T11:12:10.000Z</Time>
            <Position>
              <LatitudeDegrees>40.93065775930881500244140625</LatitudeDegrees>
              <LongitudeDegrees>-4.13662570528686046600341796875</LongitudeDegrees>
            </Position>
            <AltitudeMeters>1008.5999755859375</AltitudeMeters>
            <DistanceMeters>111668.13601495</DistanceMeters>
          </Trackpoint>
          <Trackpoint>
            <Time>2019-08-02T11:12:14.000Z</Time>
            <Position>
              <LatitudeDegrees>40.93072104267776012420654296875</LatitudeDegrees>
              <LongitudeDegrees>-4.13691722787916660308837890625</LongitudeDegrees>
            </Position>
            <AltitudeMeters>1007.4000244140625</AltitudeMeters>
            <DistanceMeters>111693.64144</DistanceMeters>
          </Trackpoint>
          <Trackpoint>
            <Time>2019-08-02T11:12:17.000Z</Time>
            <Position>
              <LatitudeDegrees>40.9307709150016307830810546875</LatitudeDegrees>
              <LongitudeDegrees>-4.137133397161960601806640625</LongitudeDegrees>
            </Position>
            <AltitudeMeters>1006.20001220703125</AltitudeMeters>
            <DistanceMeters>111712.64749556</DistanceMeters>
          </Trackpoint>
          <Trackpoint>
            <Time>2019-08-02T11:12:21.000Z</Time>
            <Position>
              <LatitudeDegrees>40.93083101324737071990966796875</LatitudeDegrees>
              <LongitudeDegrees>-4.13742030970752239227294921875</LongitudeDegrees>
            </Position>
            <AltitudeMeters>1004.79998779296875</AltitudeMeters>
            <DistanceMeters>111737.68374381</DistanceMeters>
          </Trackpoint>
          <Trackpoint>
            <Time>2019-08-02T11:12:24.000Z</Time>
            <Position>
              <LatitudeDegrees>40.93087426386773586273193359375</LatitudeDegrees>
              <LongitudeDegrees>-4.1376361437141895294189453125</LongitudeDegrees>
            </Position>
            <AltitudeMeters>1003.79998779296875</AltitudeMeters>
            <DistanceMeters>111756.46059936</DistanceMeters>
          </Trackpoint>
          <Trackpoint>
            <Time>2019-08-02T11:12:28.000Z</Time>
            <Position>
              <LatitudeDegrees>40.930936373770236968994140625</LatitudeDegrees>
              <LongitudeDegrees>-4.13792255334556102752685546875</LongitudeDegrees>
            </Position>
            <AltitudeMeters>1002.5999755859375</AltitudeMeters>
            <DistanceMeters>111781.51685736</DistanceMeters>
          </Trackpoint>
          <Trackpoint>
            <Time>2019-08-02T11:12:32.000Z</Time>
            <Position>
              <LatitudeDegrees>40.930995382368564605712890625</LatitudeDegrees>
              <LongitudeDegrees>-4.13820502348244190216064453125</LongitudeDegrees>
            </Position>
            <AltitudeMeters>1001.5999755859375</AltitudeMeters>
            <DistanceMeters>111806.16067588</DistanceMeters>
          </Trackpoint>
          <Trackpoint>
            <Time>2019-08-02T11:12:38.000Z</Time>
            <Position>
              <LatitudeDegrees>40.9310837276279926300048828125</LatitudeDegrees>
              <LongitudeDegrees>-4.1386164911091327667236328125</LongitudeDegrees>
            </Position>
            <AltitudeMeters>1000.4000244140625</AltitudeMeters>
            <DistanceMeters>111842.13026432</DistanceMeters>
          </Trackpoint>
          <Trackpoint>
            <Time>2019-08-02T11:12:43.000Z</Time>
            <Position>
              <LatitudeDegrees>40.93115639872848987579345703125</LatitudeDegrees>
              <LongitudeDegrees>-4.1389601491391658782958984375</LongitudeDegrees>
            </Position>
            <AltitudeMeters>999.4000244140625</AltitudeMeters>
            <DistanceMeters>111872.13855123</DistanceMeters>
          </Trackpoint>
          <Trackpoint>
            <Time>2019-08-02T11:12:48.000Z</Time>
            <Position>
              <LatitudeDegrees>40.93122965656220912933349609375</LatitudeDegrees>
              <LongitudeDegrees>-4.13929668255150318145751953125</LongitudeDegrees>
            </Position>
            <AltitudeMeters>998.20001220703125</AltitudeMeters>
            <DistanceMeters>111901.58824838</DistanceMeters>
          </Trackpoint>
          <Trackpoint>
            <Time>2019-08-02T11:12:53.000Z</Time>
            <Position>
              <LatitudeDegrees>40.9313009865581989288330078125</LatitudeDegrees>
              <LongitudeDegrees>-4.13963078521192073822021484375</LongitudeDegrees>
            </Position>
            <AltitudeMeters>997</AltitudeMeters>
            <DistanceMeters>111930.78264502</DistanceMeters>
          </Trackpoint>
          <Trackpoint>
            <Time>2019-08-02T11:12:57.000Z</Time>
            <Position>
              <LatitudeDegrees>40.9313529543578624725341796875</LatitudeDegrees>
              <LongitudeDegrees>-4.13989498279988765716552734375</LongitudeDegrees>
            </Position>
            <AltitudeMeters>995.79998779296875</AltitudeMeters>
            <DistanceMeters>111953.73921905</DistanceMeters>
          </Trackpoint>
          <Trackpoint>
            <Time>2019-08-02T11:13:03.000Z</Time>
            <Position>
              <LatitudeDegrees>40.931437276303768157958984375</LatitudeDegrees>
              <LongitudeDegrees>-4.14029077626764774322509765625</LongitudeDegrees>
            </Position>
            <AltitudeMeters>994.5999755859375</AltitudeMeters>
            <DistanceMeters>111988.31876015</DistanceMeters>
          </Trackpoint>
          <Trackpoint>
            <Time>2019-08-02T11:13:07.000Z</Time>
            <Position>
              <LatitudeDegrees>40.93149594962596893310546875</LatitudeDegrees>
              <LongitudeDegrees>-4.140563942492008209228515625</LongitudeDegrees>
            </Position>
            <AltitudeMeters>993.5999755859375</AltitudeMeters>
            <DistanceMeters>112012.19903208</DistanceMeters>
          </Trackpoint>
          <Trackpoint>
            <Time>2019-08-02T11:13:14.000Z</Time>
            <Position>
              <LatitudeDegrees>40.9316013939678668975830078125</LatitudeDegrees>
              <LongitudeDegrees>-4.14106224663555622100830078125</LongitudeDegrees>
            </Position>
            <AltitudeMeters>992.20001220703125</AltitudeMeters>
            <DistanceMeters>112055.7129672</DistanceMeters>
          </Trackpoint>
          <Trackpoint>
            <Time>2019-08-02T11:13:18.000Z</Time>
            <Position>
              <LatitudeDegrees>40.93166291713714599609375</LatitudeDegrees>
              <LongitudeDegrees>-4.141352511942386627197265625</LongitudeDegrees>
            </Position>
            <AltitudeMeters>991.20001220703125</AltitudeMeters>
            <DistanceMeters>112081.06320231</DistanceMeters>
          </Trackpoint>
          <Trackpoint>
            <Time>2019-08-02T11:13:23.000Z</Time>
            <Position>
              <LatitudeDegrees>40.93174447305500507354736328125</LatitudeDegrees>
              <LongitudeDegrees>-4.1417238302528858184814453125</LongitudeDegrees>
            </Position>
            <AltitudeMeters>990.20001220703125</AltitudeMeters>
            <DistanceMeters>112113.57928341</DistanceMeters>
          </Trackpoint>
          <Trackpoint>
            <Time>2019-08-02T11:13:31.000Z</Time>
            <Position>
              <LatitudeDegrees>40.9318739734590053558349609375</LatitudeDegrees>
              <LongitudeDegrees>-4.1423249803483486175537109375</LongitudeDegrees>
            </Position>
            <AltitudeMeters>989</AltitudeMeters>
            <DistanceMeters>112166.14323123</DistanceMeters>
          </Trackpoint>
          <Trackpoint>
            <Time>2019-08-02T11:13:38.000Z</Time>
            <Position>
              <LatitudeDegrees>40.93198520131409168243408203125</LatitudeDegrees>
              <LongitudeDegrees>-4.14284256286919116973876953125</LongitudeDegrees>
            </Position>
            <AltitudeMeters>988</AltitudeMeters>
            <DistanceMeters>112211.39171576</DistanceMeters>
          </Trackpoint>
          <Trackpoint>
            <Time>2019-08-02T11:13:48.000Z</Time>
            <Position>
              <LatitudeDegrees>40.93212869949638843536376953125</LatitudeDegrees>
              <LongitudeDegrees>-4.1435795836150646209716796875</LongitudeDegrees>
            </Position>
            <AltitudeMeters>987.20001220703125</AltitudeMeters>
            <DistanceMeters>112275.39070875</DistanceMeters>
          </Trackpoint>
          <Trackpoint>
            <Time>2019-08-02T11:13:50.000Z</Time>
            <Position>
              <LatitudeDegrees>40.9321485646069049835205078125</LatitudeDegrees>
              <LongitudeDegrees>-4.1437230817973613739013671875</LongitudeDegrees>
            </Position>
            <AltitudeMeters>987</AltitudeMeters>
            <DistanceMeters>112287.65762335</DistanceMeters>
          </Trackpoint>
          <Trackpoint>
            <Time>2019-08-02T11:13:58.000Z</Time>
            <Position>
              <LatitudeDegrees>40.932194329798221588134765625</LatitudeDegrees>
              <LongitudeDegrees>-4.144310317933559417724609375</LongitudeDegrees>
            </Position>
            <AltitudeMeters>985.5999755859375</AltitudeMeters>
            <DistanceMeters>112337.29860029</DistanceMeters>
          </Trackpoint>
          <Trackpoint>
            <Time>2019-08-02T11:14:02.000Z</Time>
            <Position>
              <LatitudeDegrees>40.93219759874045848846435546875</LatitudeDegrees>
              <LongitudeDegrees>-4.144606031477451324462890625</LongitudeDegrees>
            </Position>
            <AltitudeMeters>985</AltitudeMeters>
            <DistanceMeters>112362.16711141</DistanceMeters>
          </Trackpoint>
          <Trackpoint>
            <Time>2019-08-02T11:14:03.000Z</Time>
            <Position>
              <LatitudeDegrees>40.9321961738169193267822265625</LatitudeDegrees>
              <LongitudeDegrees>-4.144679792225360870361328125</LongitudeDegrees>
            </Position>
            <AltitudeMeters>985</AltitudeMeters>
            <DistanceMeters>112368.3715627</DistanceMeters>
          </Trackpoint>
          <Trackpoint>
            <Time>2019-08-02T11:14:13.000Z</Time>
            <Position>
              <LatitudeDegrees>40.93213406391441822052001953125</LatitudeDegrees>
              <LongitudeDegrees>-4.1454189084470272064208984375</LongitudeDegrees>
            </Position>
            <AltitudeMeters>984.79998779296875</AltitudeMeters>
            <DistanceMeters>112430.90491719</DistanceMeters>
          </Trackpoint>
          <Trackpoint>
            <Time>2019-08-02T11:14:18.000Z</Time>
            <Position>
              <LatitudeDegrees>40.9320657514035701751708984375</LatitudeDegrees>
              <LongitudeDegrees>-4.14578578434884548187255859375</LongitudeDegrees>
            </Position>
            <AltitudeMeters>984.5999755859375</AltitudeMeters>
            <DistanceMeters>112462.67767858</DistanceMeters>
          </Trackpoint>
          <Trackpoint>
            <Time>2019-08-02T11:14:28.000Z</Time>
            <Position>
              <LatitudeDegrees>40.9318739734590053558349609375</LatitudeDegrees>
              <LongitudeDegrees>-4.14648684673011302947998046875</LongitudeDegrees>
            </Position>
            <AltitudeMeters>983.79998779296875</AltitudeMeters>
            <DistanceMeters>112525.37349332</DistanceMeters>
          </Trackpoint>
          <Trackpoint>
            <Time>2019-08-02T11:14:31.000Z</Time>
            <Position>
              <LatitudeDegrees>40.9317945130169391632080078125</LatitudeDegrees>
              <LongitudeDegrees>-4.14668776094913482666015625</LongitudeDegrees>
            </Position>
            <AltitudeMeters>983.5999755859375</AltitudeMeters>
            <DistanceMeters>112544.44287134</DistanceMeters>
          </Trackpoint>
          <Trackpoint>
            <Time>2019-08-02T11:14:41.000Z</Time>
            <Position>
              <LatitudeDegrees>40.93148413114249706268310546875</LatitudeDegrees>
              <LongitudeDegrees>-4.14732872508466243743896484375</LongitudeDegrees>
            </Position>
            <AltitudeMeters>983</AltitudeMeters>
            <DistanceMeters>112608.46126225</DistanceMeters>
          </Trackpoint>
          <Trackpoint>
            <Time>2019-08-02T11:14:46.000Z</Time>
            <Position>
              <LatitudeDegrees>40.93130425550043582916259765625</LatitudeDegrees>
              <LongitudeDegrees>-4.1476287133991718292236328125</LongitudeDegrees>
            </Position>
            <AltitudeMeters>982.4000244140625</AltitudeMeters>
            <DistanceMeters>112640.66592651</DistanceMeters>
          </Trackpoint>
          <Trackpoint>
            <Time>2019-08-02T11:14:52.000Z</Time>
            <Position>
              <LatitudeDegrees>40.9310854040086269378662109375</LatitudeDegrees>
              <LongitudeDegrees>-4.147972203791141510009765625</LongitudeDegrees>
            </Position>
            <AltitudeMeters>981.20001220703125</AltitudeMeters>
            <DistanceMeters>112678.44953281</DistanceMeters>
          </Trackpoint>
          <Trackpoint>
            <Time>2019-08-02T11:14:58.000Z</Time>
            <Position>
              <LatitudeDegrees>40.93087208457291126251220703125</LatitudeDegrees>
              <LongitudeDegrees>-4.14831343106925487518310546875</LongitudeDegrees>
            </Position>
            <AltitudeMeters>980.20001220703125</AltitudeMeters>
            <DistanceMeters>112715.69248922</DistanceMeters>
          </Trackpoint>
          <Trackpoint>
            <Time>2019-08-02T11:15:08.000Z</Time>
            <Position>
              <LatitudeDegrees>40.93052239157259464263916015625</LatitudeDegrees>
              <LongitudeDegrees>-4.1488699056208133697509765625</LongitudeDegrees>
            </Position>
            <AltitudeMeters>979</AltitudeMeters>
            <DistanceMeters>112776.55722959</DistanceMeters>
          </Trackpoint>
          <Trackpoint>
            <Time>2019-08-02T11:15:11.000Z</Time>
            <Position>
              <LatitudeDegrees>40.93041845597326755523681640625</LatitudeDegrees>
              <LongitudeDegrees>-4.14903938770294189453125</LongitudeDegrees>
            </Position>
            <AltitudeMeters>979</AltitudeMeters>
            <DistanceMeters>112794.91288846</DistanceMeters>
          </Trackpoint>
          <Trackpoint>
            <Time>2019-08-02T11:15:21.000Z</Time>
            <Position>
              <LatitudeDegrees>40.93006239272654056549072265625</LatitudeDegrees>
              <LongitudeDegrees>-4.1496039927005767822265625</LongitudeDegrees>
            </Position>
            <AltitudeMeters>978.20001220703125</AltitudeMeters>
            <DistanceMeters>112856.75695752</DistanceMeters>
          </Trackpoint>
          <Trackpoint>
            <Time>2019-08-02T11:15:24.000Z</Time>
            <Position>
              <LatitudeDegrees>40.92995778657495975494384765625</LatitudeDegrees>
              <LongitudeDegrees>-4.14977355860173702239990234375</LongitudeDegrees>
            </Position>
            <AltitudeMeters>977.79998779296875</AltitudeMeters>
            <DistanceMeters>112875.16517983</DistanceMeters>
          </Trackpoint>
          <Trackpoint>
            <Time>2019-08-02T11:15:30.000Z</Time>
            <Position>
              <LatitudeDegrees>40.92975544743239879608154296875</LatitudeDegrees>
              <LongitudeDegrees>-4.15010632015764713287353515625</LongitudeDegrees>
            </Position>
            <AltitudeMeters>976.79998779296875</AltitudeMeters>
            <DistanceMeters>112911.08402087</DistanceMeters>
          </Trackpoint>
          <Trackpoint>
            <Time>2019-08-02T11:15:40.000Z</Time>
            <Position>
              <LatitudeDegrees>40.92943668365478515625</LatitudeDegrees>
              <LongitudeDegrees>-4.15068869479000568389892578125</LongitudeDegrees>
            </Position>
            <AltitudeMeters>975.79998779296875</AltitudeMeters>
            <DistanceMeters>112971.55730769</DistanceMeters>
          </Trackpoint>
          <Trackpoint>
            <Time>2019-08-02T11:15:48.000Z</Time>
            <Position>
              <LatitudeDegrees>40.9291880764067173004150390625</LatitudeDegrees>
              <LongitudeDegrees>-4.151329658925533294677734375</LongitudeDegrees>
            </Position>
            <AltitudeMeters>974.79998779296875</AltitudeMeters>
            <DistanceMeters>113032.14419756</DistanceMeters>
          </Trackpoint>
          <Trackpoint>
            <Time>2019-08-02T11:15:56.000Z</Time>
            <Position>
              <LatitudeDegrees>40.929016582667827606201171875</LatitudeDegrees>
              <LongitudeDegrees>-4.15204287506639957427978515625</LongitudeDegrees>
            </Position>
            <AltitudeMeters>974.20001220703125</AltitudeMeters>
            <DistanceMeters>113095.08338269</DistanceMeters>
          </Trackpoint>
          <Trackpoint>
            <Time>2019-08-02T11:16:04.000Z</Time>
            <Position>
              <LatitudeDegrees>40.92892228625714778900146484375</LatitudeDegrees>
              <LongitudeDegrees>-4.15276296436786651611328125</LongitudeDegrees>
            </Position>
            <AltitudeMeters>975</AltitudeMeters>
            <DistanceMeters>113156.53929756</DistanceMeters>
          </Trackpoint>
          <Trackpoint>
            <Time>2019-08-02T11:16:08.000Z</Time>
            <Position>
              <LatitudeDegrees>40.92889127321541309356689453125</LatitudeDegrees>
              <LongitudeDegrees>-4.1531285829842090606689453125</LongitudeDegrees>
            </Position>
            <AltitudeMeters>974.79998779296875</AltitudeMeters>
            <DistanceMeters>113187.47775426</DistanceMeters>
          </Trackpoint>
          <Trackpoint>
            <Time>2019-08-02T11:16:11.000Z</Time>
            <Position>
              <LatitudeDegrees>40.92887266539037227630615234375</LatitudeDegrees>
              <LongitudeDegrees>-4.15337123908102512359619140625</LongitudeDegrees>
            </Position>
            <AltitudeMeters>975.5999755859375</AltitudeMeters>
            <DistanceMeters>113207.98768067</DistanceMeters>
          </Trackpoint>
          <Trackpoint>
            <Time>2019-08-02T11:16:15.000Z</Time>
            <Position>
              <LatitudeDegrees>40.928860343992710113525390625</LatitudeDegrees>
              <LongitudeDegrees>-4.15366041474044322967529296875</LongitudeDegrees>
            </Position>
            <AltitudeMeters>976.5999755859375</AltitudeMeters>
            <DistanceMeters>113232.34345579</DistanceMeters>
          </Trackpoint>
          <Trackpoint>
            <Time>2019-08-02T11:16:21.000Z</Time>
            <Position>
              <LatitudeDegrees>40.92887266539037227630615234375</LatitudeDegrees>
              <LongitudeDegrees>-4.1540457308292388916015625</LongitudeDegrees>
            </Position>
            <AltitudeMeters>977.79998779296875</AltitudeMeters>
            <DistanceMeters>113264.77416752</DistanceMeters>
          </Trackpoint>
          <Trackpoint>
            <Time>2019-08-02T11:16:28.000Z</Time>
            <Position>
              <LatitudeDegrees>40.92893552966415882110595703125</LatitudeDegrees>
              <LongitudeDegrees>-4.15449391119182109832763671875</LongitudeDegrees>
            </Position>
            <AltitudeMeters>978.79998779296875</AltitudeMeters>
            <DistanceMeters>113303.10611136</DistanceMeters>
          </Trackpoint>
          <Trackpoint>
            <Time>2019-08-02T11:16:39.000Z</Time>
            <Position>
              <LatitudeDegrees>40.929124541580677032470703125</LatitudeDegrees>
              <LongitudeDegrees>-4.15522531606256961822509765625</LongitudeDegrees>
            </Position>
            <AltitudeMeters>979.20001220703125</AltitudeMeters>
            <DistanceMeters>113368.10910737</DistanceMeters>
          </Trackpoint>
          <Trackpoint>
            <Time>2019-08-02T11:16:48.000Z</Time>
            <Position>
              <LatitudeDegrees>40.92941329814493656158447265625</LatitudeDegrees>
              <LongitudeDegrees>-4.15587902069091796875</LongitudeDegrees>
            </Position>
            <AltitudeMeters>979</AltitudeMeters>
            <DistanceMeters>113431.78551529</DistanceMeters>
          </Trackpoint>
          <Trackpoint>
            <Time>2019-08-02T11:16:57.000Z</Time>
            <Position>
              <LatitudeDegrees>40.9297553636133670806884765625</LatitudeDegrees>
              <LongitudeDegrees>-4.15644857101142406463623046875</LongitudeDegrees>
            </Position>
            <AltitudeMeters>979.5999755859375</AltitudeMeters>
            <DistanceMeters>113492.96825704</DistanceMeters>
          </Trackpoint>
          <Trackpoint>
            <Time>2019-08-02T11:17:00.000Z</Time>
            <Position>
              <LatitudeDegrees>40.92988318763673305511474609375</LatitudeDegrees>
              <LongitudeDegrees>-4.15660925209522247314453125</LongitudeDegrees>
            </Position>
            <AltitudeMeters>980.20001220703125</AltitudeMeters>
            <DistanceMeters>113512.58891501</DistanceMeters>
          </Trackpoint>
          <Trackpoint>
            <Time>2019-08-02T11:17:03.000Z</Time>
            <Position>
              <LatitudeDegrees>40.9300118498504161834716796875</LatitudeDegrees>
              <LongitudeDegrees>-4.1567643173038959503173828125</LongitudeDegrees>
            </Position>
            <AltitudeMeters>981.20001220703125</AltitudeMeters>
            <DistanceMeters>113531.95642247</DistanceMeters>
          </Trackpoint>
          <Trackpoint>
            <Time>2019-08-02T11:17:06.000Z</Time>
            <Position>
              <LatitudeDegrees>40.93013699166476726531982421875</LatitudeDegrees>
              <LongitudeDegrees>-4.15691158734261989593505859375</LongitudeDegrees>
            </Position>
            <AltitudeMeters>982.5999755859375</AltitudeMeters>
            <DistanceMeters>113550.5937753</DistanceMeters>
          </Trackpoint>
          <Trackpoint>
            <Time>2019-08-02T11:17:09.000Z</Time>
            <Position>
              <LatitudeDegrees>40.93025953508913516998291015625</LatitudeDegrees>
              <LongitudeDegrees>-4.15705240331590175628662109375</LongitudeDegrees>
            </Position>
            <AltitudeMeters>983.5999755859375</AltitudeMeters>
            <DistanceMeters>113568.65585165</DistanceMeters>
          </Trackpoint>
          <Trackpoint>
            <Time>2019-08-02T11:17:12.000Z</Time>
            <Position>
              <LatitudeDegrees>40.93038107268512248992919921875</LatitudeDegrees>
              <LongitudeDegrees>-4.1571904532611370086669921875</LongitudeDegrees>
            </Position>
            <AltitudeMeters>984.79998779296875</AltitudeMeters>
            <DistanceMeters>113586.48140437</DistanceMeters>
          </Trackpoint>
          <Trackpoint>
            <Time>2019-08-02T11:17:15.000Z</Time>
            <Position>
              <LatitudeDegrees>40.93049950897693634033203125</LatitudeDegrees>
              <LongitudeDegrees>-4.1573198698461055755615234375</LongitudeDegrees>
            </Position>
            <AltitudeMeters>986.4000244140625</AltitudeMeters>
            <DistanceMeters>113603.57512291</DistanceMeters>
          </Trackpoint>
          <Trackpoint>
            <Time>2019-08-02T11:17:18.000Z</Time>
            <Position>
              <LatitudeDegrees>40.9306116588413715362548828125</LatitudeDegrees>
              <LongitudeDegrees>-4.1574467718601226806640625</LongitudeDegrees>
            </Position>
            <AltitudeMeters>988.20001220703125</AltitudeMeters>
            <DistanceMeters>113619.99688295</DistanceMeters>
          </Trackpoint>
          <Trackpoint>
            <Time>2019-08-02T11:17:20.000Z</Time>
            <Position>
              <LatitudeDegrees>40.9306860901415348052978515625</LatitudeDegrees>
              <LongitudeDegrees>-4.15752790868282318115234375</LongitudeDegrees>
            </Position>
            <AltitudeMeters>989.4000244140625</AltitudeMeters>
            <DistanceMeters>113630.72901345</DistanceMeters>
          </Trackpoint>
          <Trackpoint>
            <Time>2019-08-02T11:17:22.000Z</Time>
            <Position>
              <LatitudeDegrees>40.93076261691749095916748046875</LatitudeDegrees>
              <LongitudeDegrees>-4.157609380781650543212890625</LongitudeDegrees>
            </Position>
            <AltitudeMeters>990.5999755859375</AltitudeMeters>
            <DistanceMeters>113641.65997734</DistanceMeters>
          </Trackpoint>
          <Trackpoint>
            <Time>2019-08-02T11:17:24.000Z</Time>
            <Position>
              <LatitudeDegrees>40.9308429993689060211181640625</LatitudeDegrees>
              <LongitudeDegrees>-4.15768674574792385101318359375</LongitudeDegrees>
            </Position>
            <AltitudeMeters>991.5999755859375</AltitudeMeters>
            <DistanceMeters>113652.7215114</DistanceMeters>
          </Trackpoint>
          <Trackpoint>
            <Time>2019-08-02T11:17:26.000Z</Time>
            <Position>
              <LatitudeDegrees>40.9309311769902706146240234375</LatitudeDegrees>
              <LongitudeDegrees>-4.15774994529783725738525390625</LongitudeDegrees>
            </Position>
            <AltitudeMeters>992.5999755859375</AltitudeMeters>
            <DistanceMeters>113663.88219572</DistanceMeters>
          </Trackpoint>
          <Trackpoint>
            <Time>2019-08-02T11:17:28.000Z</Time>
            <Position>
              <LatitudeDegrees>40.9310297481715679168701171875</LatitudeDegrees>
              <LongitudeDegrees>-4.1577835567295551300048828125</LongitudeDegrees>
            </Position>
            <AltitudeMeters>993.79998779296875</AltitudeMeters>
            <DistanceMeters>113675.21151638</DistanceMeters>
          </Trackpoint>
          <Trackpoint>
            <Time>2019-08-02T11:17:31.000Z</Time>
            <Position>
              <LatitudeDegrees>40.93118003569543361663818359375</LatitudeDegrees>
              <LongitudeDegrees>-4.15776930749416351318359375</LongitudeDegrees>
            </Position>
            <AltitudeMeters>994.5999755859375</AltitudeMeters>
            <DistanceMeters>113691.98151044</DistanceMeters>
          </Trackpoint>
          <Trackpoint>
            <Time>2019-08-02T11:17:32.000Z</Time>
            <Position>
              <LatitudeDegrees>40.93122798018157482147216796875</LatitudeDegrees>
              <LongitudeDegrees>-4.15775950066745281219482421875</LongitudeDegrees>
            </Position>
            <AltitudeMeters>994.79998779296875</AltitudeMeters>
            <DistanceMeters>113697.38049986</DistanceMeters>
          </Trackpoint>
          <Trackpoint>
            <Time>2019-08-02T11:17:33.000Z</Time>
            <Position>
              <LatitudeDegrees>40.93127441592514514923095703125</LatitudeDegrees>
              <LongitudeDegrees>-4.15775665082037448883056640625</LongitudeDegrees>
            </Position>
            <AltitudeMeters>994.79998779296875</AltitudeMeters>
            <DistanceMeters>113702.55313135</DistanceMeters>
          </Trackpoint>
          <Trackpoint>
            <Time>2019-08-02T11:17:37.000Z</Time>
            <Position>
              <LatitudeDegrees>40.9314223565161228179931640625</LatitudeDegrees>
              <LongitudeDegrees>-4.15789176709949970245361328125</LongitudeDegrees>
            </Position>
            <AltitudeMeters>995.20001220703125</AltitudeMeters>
            <DistanceMeters>113722.55845534</DistanceMeters>
          </Trackpoint>
          <Trackpoint>
            <Time>2019-08-02T11:17:41.000Z</Time>
            <Position>
              <LatitudeDegrees>40.9315623342990875244140625</LatitudeDegrees>
              <LongitudeDegrees>-4.15807683952152729034423828125</LongitudeDegrees>
            </Position>
            <AltitudeMeters>996.4000244140625</AltitudeMeters>
            <DistanceMeters>113744.57924336</DistanceMeters>
          </Trackpoint>
          <Trackpoint>
            <Time>2019-08-02T11:17:45.000Z</Time>
            <Position>
              <LatitudeDegrees>40.93167440034449100494384765625</LatitudeDegrees>
              <LongitudeDegrees>-4.158207513391971588134765625</LongitudeDegrees>
            </Position>
            <AltitudeMeters>997.5999755859375</AltitudeMeters>
            <DistanceMeters>113761.20212937</DistanceMeters>
          </Trackpoint>
          <Trackpoint>
            <Time>2019-08-02T11:17:48.000Z</Time>
            <Position>
              <LatitudeDegrees>40.93182544223964214324951171875</LatitudeDegrees>
              <LongitudeDegrees>-4.1583910770714282989501953125</LongitudeDegrees>
            </Position>
            <AltitudeMeters>999</AltitudeMeters>
            <DistanceMeters>113784.0243731</DistanceMeters>
          </Trackpoint>
          <Trackpoint>
            <Time>2019-08-02T11:17:51.000Z</Time>
            <Position>
              <LatitudeDegrees>40.9319356642663478851318359375</LatitudeDegrees>
              <LongitudeDegrees>-4.15853348560631275177001953125</LongitudeDegrees>
            </Position>
            <AltitudeMeters>1000</AltitudeMeters>
            <DistanceMeters>113801.16767699</DistanceMeters>
          </Trackpoint>
          <Trackpoint>
            <Time>2019-08-02T11:17:54.000Z</Time>
            <Position>
              <LatitudeDegrees>40.9320436231791973114013671875</LatitudeDegrees>
              <LongitudeDegrees>-4.1586774028837680816650390625</LongitudeDegrees>
            </Position>
            <AltitudeMeters>1001.20001220703125</AltitudeMeters>
            <DistanceMeters>113818.22172935</DistanceMeters>
          </Trackpoint>
          <Trackpoint>
            <Time>2019-08-02T11:17:58.000Z</Time>
            <Position>
              <LatitudeDegrees>40.93218670226633548736572265625</LatitudeDegrees>
              <LongitudeDegrees>-4.158872030675411224365234375</LongitudeDegrees>
            </Position>
            <AltitudeMeters>1002.5999755859375</AltitudeMeters>
            <DistanceMeters>113841.05682874</DistanceMeters>
          </Trackpoint>
          <Trackpoint>
            <Time>2019-08-02T11:18:01.000Z</Time>
            <Position>
              <LatitudeDegrees>40.93229382298886775970458984375</LatitudeDegrees>
              <LongitudeDegrees>-4.15902324020862579345703125</LongitudeDegrees>
            </Position>
            <AltitudeMeters>1004</AltitudeMeters>
            <DistanceMeters>113858.48691457</DistanceMeters>
          </Trackpoint>
          <Trackpoint>
            <Time>2019-08-02T11:18:05.000Z</Time>
            <Position>
              <LatitudeDegrees>40.93243497423827648162841796875</LatitudeDegrees>
              <LongitudeDegrees>-4.15922666899859905242919921875</LongitudeDegrees>
            </Position>
            <AltitudeMeters>1005.20001220703125</AltitudeMeters>
            <DistanceMeters>113881.7121512</DistanceMeters>
          </Trackpoint>
          <Trackpoint>
            <Time>2019-08-02T11:18:08.000Z</Time>
            <Position>
              <LatitudeDegrees>40.9325478784739971160888671875</LatitudeDegrees>
              <LongitudeDegrees>-4.1593764536082744598388671875</LongitudeDegrees>
            </Position>
            <AltitudeMeters>1006.4000244140625</AltitudeMeters>
            <DistanceMeters>113899.5042382</DistanceMeters>
          </Trackpoint>
          <Trackpoint>
            <Time>2019-08-02T11:18:11.000Z</Time>
            <Position>
              <LatitudeDegrees>40.93265977688133716583251953125</LatitudeDegrees>
              <LongitudeDegrees>-4.15953344665467739105224609375</LongitudeDegrees>
            </Position>
            <AltitudeMeters>1007.79998779296875</AltitudeMeters>
            <DistanceMeters>113917.65284801</DistanceMeters>
          </Trackpoint>
          <Trackpoint>
            <Time>2019-08-02T11:18:14.000Z</Time>
            <Position>
              <LatitudeDegrees>40.93277494423091411590576171875</LatitudeDegrees>
              <LongitudeDegrees>-4.1596892662346363067626953125</LongitudeDegrees>
            </Position>
            <AltitudeMeters>1009</AltitudeMeters>
            <DistanceMeters>113935.98266128</DistanceMeters>
          </Trackpoint>
          <Trackpoint>
            <Time>2019-08-02T11:18:17.000Z</Time>
            <Position>
              <LatitudeDegrees>40.93288977630436420440673828125</LatitudeDegrees>
              <LongitudeDegrees>-4.159849695861339569091796875</LongitudeDegrees>
            </Position>
            <AltitudeMeters>1010</AltitudeMeters>
            <DistanceMeters>113954.56591216</DistanceMeters>
          </Trackpoint>
          <Trackpoint>
            <Time>2019-08-02T11:18:20.000Z</Time>
            <Position>
              <LatitudeDegrees>40.93300829641520977020263671875</LatitudeDegrees>
              <LongitudeDegrees>-4.16001163423061370849609375</LongitudeDegrees>
            </Position>
            <AltitudeMeters>1011.20001220703125</AltitudeMeters>
            <DistanceMeters>113973.52439661</DistanceMeters>
          </Trackpoint>
          <Trackpoint>
            <Time>2019-08-02T11:18:25.000Z</Time>
            <Position>
              <LatitudeDegrees>40.93321599997580051422119140625</LatitudeDegrees>
              <LongitudeDegrees>-4.16029016487300395965576171875</LongitudeDegrees>
            </Position>
            <AltitudeMeters>1012.20001220703125</AltitudeMeters>
            <DistanceMeters>114006.43246474</DistanceMeters>
          </Trackpoint>
          <Trackpoint>
            <Time>2019-08-02T11:18:28.000Z</Time>
            <Position>
              <LatitudeDegrees>40.93334223143756389617919921875</LatitudeDegrees>
              <LongitudeDegrees>-4.16045478545129299163818359375</LongitudeDegrees>
            </Position>
            <AltitudeMeters>1013.4000244140625</AltitudeMeters>
            <DistanceMeters>114026.15548765</DistanceMeters>
          </Trackpoint>
          <Trackpoint>
            <Time>2019-08-02T11:18:33.000Z</Time>
            <Position>
              <LatitudeDegrees>40.933552198112010955810546875</LatitudeDegrees>
              <LongitudeDegrees>-4.16073289699852466583251953125</LongitudeDegrees>
            </Position>
            <AltitudeMeters>1014.5999755859375</AltitudeMeters>
            <DistanceMeters>114059.21604501</DistanceMeters>
          </Trackpoint>
          <Trackpoint>
            <Time>2019-08-02T11:18:38.000Z</Time>
            <Position>
              <LatitudeDegrees>40.93376568518579006195068359375</LatitudeDegrees>
              <LongitudeDegrees>-4.16101804934442043304443359375</LongitudeDegrees>
            </Position>
            <AltitudeMeters>1015.79998779296875</AltitudeMeters>
            <DistanceMeters>114092.97260506</DistanceMeters>
          </Trackpoint>
          <Trackpoint>
            <Time>2019-08-02T11:18:44.000Z</Time>
            <Position>
              <LatitudeDegrees>40.9340294636785984039306640625</LatitudeDegrees>
              <LongitudeDegrees>-4.161360450088977813720703125</LongitudeDegrees>
            </Position>
            <AltitudeMeters>1017</AltitudeMeters>
            <DistanceMeters>114134.0927188</DistanceMeters>
          </Trackpoint>
          <Trackpoint>
            <Time>2019-08-02T11:18:53.000Z</Time>
            <Position>
              <LatitudeDegrees>40.934433303773403167724609375</LatitudeDegrees>
              <LongitudeDegrees>-4.161853305995464324951171875</LongitudeDegrees>
            </Position>
            <AltitudeMeters>1018.20001220703125</AltitudeMeters>
            <DistanceMeters>114195.22983766</DistanceMeters>
          </Trackpoint>
          <Trackpoint>
            <Time>2019-08-02T11:19:02.000Z</Time>
            <Position>
              <LatitudeDegrees>40.93489137478172779083251953125</LatitudeDegrees>
              <LongitudeDegrees>-4.162378013134002685546875</LongitudeDegrees>
            </Position>
            <AltitudeMeters>1018.79998779296875</AltitudeMeters>
            <DistanceMeters>114262.65314982</DistanceMeters>
          </Trackpoint>
          <Trackpoint>
            <Time>2019-08-02T11:19:10.000Z</Time>
            <Position>
              <LatitudeDegrees>40.93530477024614810943603515625</LatitudeDegrees>
              <LongitudeDegrees>-4.16286005638539791107177734375</LongitudeDegrees>
            </Position>
            <AltitudeMeters>1019.5999755859375</AltitudeMeters>
            <DistanceMeters>114323.97123125</DistanceMeters>
          </Trackpoint>
          <Trackpoint>
            <Time>2019-08-02T11:19:19.000Z</Time>
            <Position>
              <LatitudeDegrees>40.93572705052793025970458984375</LatitudeDegrees>
              <LongitudeDegrees>-4.16334520094096660614013671875</LongitudeDegrees>
            </Position>
            <AltitudeMeters>1019.20001220703125</AltitudeMeters>
            <DistanceMeters>114386.20524146</DistanceMeters>
          </Trackpoint>
          <Trackpoint>
            <Time>2019-08-02T11:19:29.000Z</Time>
            <Position>
              <LatitudeDegrees>40.93617816455662250518798828125</LatitudeDegrees>
              <LongitudeDegrees>-4.16385565884411334991455078125</LongitudeDegrees>
            </Position>
            <AltitudeMeters>1018.5999755859375</AltitudeMeters>
            <DistanceMeters>114452.25974537</DistanceMeters>
          </Trackpoint>
          <Trackpoint>
            <Time>2019-08-02T11:19:30.000Z</Time>
            <Position>
              <LatitudeDegrees>40.936220996081829071044921875</LatitudeDegrees>
              <LongitudeDegrees>-4.163905195891857147216796875</LongitudeDegrees>
            </Position>
            <AltitudeMeters>1018.4000244140625</AltitudeMeters>
            <DistanceMeters>114458.59026504</DistanceMeters>
          </Trackpoint>
          <Trackpoint>
            <Time>2019-08-02T11:19:37.000Z</Time>
            <Position>
              <LatitudeDegrees>40.9365279413759708404541015625</LatitudeDegrees>
              <LongitudeDegrees>-4.16425488889217376708984375</LongitudeDegrees>
            </Position>
            <AltitudeMeters>1017.4000244140625</AltitudeMeters>
            <DistanceMeters>114503.66439175</DistanceMeters>
          </Trackpoint>
          <Trackpoint>
            <Time>2019-08-02T11:19:40.000Z</Time>
            <Position>
              <LatitudeDegrees>40.93665660358965396881103515625</LatitudeDegrees>
              <LongitudeDegrees>-4.164397381246089935302734375</LongitudeDegrees>
            </Position>
            <AltitudeMeters>1017.20001220703125</AltitudeMeters>
            <DistanceMeters>114522.33538801</DistanceMeters>
          </Trackpoint>
          <Trackpoint>
            <Time>2019-08-02T11:19:46.000Z</Time>
            <Position>
              <LatitudeDegrees>40.93691862188279628753662109375</LatitudeDegrees>
              <LongitudeDegrees>-4.16468781419098377227783203125</LongitudeDegrees>
            </Position>
            <AltitudeMeters>1016.79998779296875</AltitudeMeters>
            <DistanceMeters>114560.37243453</DistanceMeters>
          </Trackpoint>
          <Trackpoint>
            <Time>2019-08-02T11:19:53.000Z</Time>
            <Position>
              <LatitudeDegrees>40.93722389079630374908447265625</LatitudeDegrees>
              <LongitudeDegrees>-4.16504488326609134674072265625</LongitudeDegrees>
            </Position>
            <AltitudeMeters>1015.5999755859375</AltitudeMeters>
            <DistanceMeters>114605.71342331</DistanceMeters>
          </Trackpoint>
          <Trackpoint>
            <Time>2019-08-02T11:20:04.000Z</Time>
            <Position>
              <LatitudeDegrees>40.9376544691622257232666015625</LatitudeDegrees>
              <LongitudeDegrees>-4.1655389964580535888671875</LongitudeDegrees>
            </Position>
            <AltitudeMeters>1014.79998779296875</AltitudeMeters>
            <DistanceMeters>114669.13846973</DistanceMeters>
          </Trackpoint>
          <Trackpoint>
            <Time>2019-08-02T11:20:14.000Z</Time>
            <Position>
              <LatitudeDegrees>40.93807549215853214263916015625</LatitudeDegrees>
              <LongitudeDegrees>-4.165995307266712188720703125</LongitudeDegrees>
            </Position>
            <AltitudeMeters>1014.79998779296875</AltitudeMeters>
            <DistanceMeters>114729.70173162</DistanceMeters>
          </Trackpoint>
          <Trackpoint>
            <Time>2019-08-02T11:20:24.000Z</Time>
            <Position>
              <LatitudeDegrees>40.93849559314548969268798828125</LatitudeDegrees>
              <LongitudeDegrees>-4.16644767858088016510009765625</LongitudeDegrees>
            </Position>
            <AltitudeMeters>1014.5999755859375</AltitudeMeters>
            <DistanceMeters>114789.97594132</DistanceMeters>
          </Trackpoint>
          <Trackpoint>
            <Time>2019-08-02T11:20:30.000Z</Time>
            <Position>
              <LatitudeDegrees>40.9387387521564960479736328125</LatitudeDegrees>
              <LongitudeDegrees>-4.166716150939464569091796875</LongitudeDegrees>
            </Position>
            <AltitudeMeters>1014.5999755859375</AltitudeMeters>
            <DistanceMeters>114825.21778696</DistanceMeters>
          </Trackpoint>
          <Trackpoint>
            <Time>2019-08-02T11:20:37.000Z</Time>
            <Position>
              <LatitudeDegrees>40.9390140138566493988037109375</LatitudeDegrees>
              <LongitudeDegrees>-4.16702670045197010040283203125</LongitudeDegrees>
            </Position>
            <AltitudeMeters>1013.79998779296875</AltitudeMeters>
            <DistanceMeters>114865.47189281</DistanceMeters>
          </Trackpoint>
          <Trackpoint>
            <Time>2019-08-02T11:20:48.000Z</Time>
            <Position>
              <LatitudeDegrees>40.93945900909602642059326171875</LatitudeDegrees>
              <LongitudeDegrees>-4.16752559132874011993408203125</LongitudeDegrees>
            </Position>
            <AltitudeMeters>1013.5999755859375</AltitudeMeters>
            <DistanceMeters>114930.37611263</DistanceMeters>
          </Trackpoint>
          <Trackpoint>
            <Time>2019-08-02T11:20:56.000Z</Time>
            <Position>
              <LatitudeDegrees>40.939786992967128753662109375</LatitudeDegrees>
              <LongitudeDegrees>-4.1678941436111927032470703125</LongitudeDegrees>
            </Position>
            <AltitudeMeters>1013.20001220703125</AltitudeMeters>
            <DistanceMeters>114978.25958275</DistanceMeters>
          </Trackpoint>
          <Trackpoint>
            <Time>2019-08-02T11:21:04.000Z</Time>
            <Position>
              <LatitudeDegrees>40.94010693021118640899658203125</LatitudeDegrees>
              <LongitudeDegrees>-4.16826018132269382476806640625</LongitudeDegrees>
            </Position>
            <AltitudeMeters>1012.4000244140625</AltitudeMeters>
            <DistanceMeters>115025.32515458</DistanceMeters>
          </Trackpoint>
          <Trackpoint>
            <Time>2019-08-02T11:21:11.000Z</Time>
            <Position>
              <LatitudeDegrees>40.94038990326225757598876953125</LatitudeDegrees>
              <LongitudeDegrees>-4.16857969947159290313720703125</LongitudeDegrees>
            </Position>
            <AltitudeMeters>1011.4000244140625</AltitudeMeters>
            <DistanceMeters>115066.72126076</DistanceMeters>
          </Trackpoint>
          <Trackpoint>
            <Time>2019-08-02T11:21:19.000Z</Time>
            <Position>
              <LatitudeDegrees>40.9406684339046478271484375</LatitudeDegrees>
              <LongitudeDegrees>-4.16891120374202728271484375</LongitudeDegrees>
            </Position>
            <AltitudeMeters>1010.5999755859375</AltitudeMeters>
            <DistanceMeters>115108.40929732</DistanceMeters>
          </Trackpoint>
          <Trackpoint>
            <Time>2019-08-02T11:21:24.000Z</Time>
            <Position>
              <LatitudeDegrees>40.94083716161549091339111328125</LatitudeDegrees>
              <LongitudeDegrees>-4.16914061643183231353759765625</LongitudeDegrees>
            </Position>
            <AltitudeMeters>1009.4000244140625</AltitudeMeters>
            <DistanceMeters>115135.32954537</DistanceMeters>
          </Trackpoint>
          <Trackpoint>
            <Time>2019-08-02T11:21:29.000Z</Time>
            <Position>
              <LatitudeDegrees>40.9409549273550510406494140625</LatitudeDegrees>
              <LongitudeDegrees>-4.1693183965981006622314453125</LongitudeDegrees>
            </Position>
            <AltitudeMeters>1008.5999755859375</AltitudeMeters>
            <DistanceMeters>115155.20989712</DistanceMeters>
          </Trackpoint>
          <Trackpoint>
            <Time>2019-08-02T11:21:34.000Z</Time>
            <Position>
              <LatitudeDegrees>40.94105861149728298187255859375</LatitudeDegrees>
              <LongitudeDegrees>-4.1695081628859043121337890625</LongitudeDegrees>
            </Position>
            <AltitudeMeters>1007.5999755859375</AltitudeMeters>
            <DistanceMeters>115174.90084485</DistanceMeters>
          </Trackpoint>
          <Trackpoint>
            <Time>2019-08-02T11:21:46.000Z</Time>
            <Position>
              <LatitudeDegrees>40.9413244016468524932861328125</LatitudeDegrees>
              <LongitudeDegrees>-4.16996086947619915008544921875</LongitudeDegrees>
            </Position>
            <AltitudeMeters>1006.79998779296875</AltitudeMeters>
            <DistanceMeters>115223.10683962</DistanceMeters>
          </Trackpoint>
          <Trackpoint>
            <Time>2019-08-02T11:21:50.000Z</Time>
            <Position>
              <LatitudeDegrees>40.94141702167689800262451171875</LatitudeDegrees>
              <LongitudeDegrees>-4.170108139514923095703125</LongitudeDegrees>
            </Position>
            <AltitudeMeters>1005.79998779296875</AltitudeMeters>
            <DistanceMeters>115239.21828206</DistanceMeters>
          </Trackpoint>
          <Trackpoint>
            <Time>2019-08-02T11:21:53.000Z</Time>
            <Position>
              <LatitudeDegrees>40.9415037743747234344482421875</LatitudeDegrees>
              <LongitudeDegrees>-4.1702115722000598907470703125</LongitudeDegrees>
            </Position>
            <AltitudeMeters>1005.20001220703125</AltitudeMeters>
            <DistanceMeters>115252.21264235</DistanceMeters>
          </Trackpoint>
          <Trackpoint>
            <Time>2019-08-02T11:21:58.000Z</Time>
            <Position>
              <LatitudeDegrees>40.94167250208556652069091796875</LatitudeDegrees>
              <LongitudeDegrees>-4.17037091217935085296630859375</LongitudeDegrees>
            </Position>
            <AltitudeMeters>1005</AltitudeMeters>
            <DistanceMeters>115275.28085435</DistanceMeters>
          </Trackpoint>
          <Trackpoint>
            <Time>2019-08-02T11:22:09.000Z</Time>
            <Position>
              <LatitudeDegrees>40.94208505935966968536376953125</LatitudeDegrees>
              <LongitudeDegrees>-4.17077257297933101654052734375</LongitudeDegrees>
            </Position>
            <AltitudeMeters>1004</AltitudeMeters>
            <DistanceMeters>115332.2797756</DistanceMeters>
          </Trackpoint>
          <Trackpoint>
            <Time>2019-08-02T11:22:13.000Z</Time>
            <Position>
              <LatitudeDegrees>40.942241214215755462646484375</LatitudeDegrees>
              <LongitudeDegrees>-4.170958064496517181396484375</LongitudeDegrees>
            </Position>
            <AltitudeMeters>1002.79998779296875</AltitudeMeters>
            <DistanceMeters>115355.63122515</DistanceMeters>
          </Trackpoint>
          <Trackpoint>
            <Time>2019-08-02T11:22:17.000Z</Time>
            <Position>
              <LatitudeDegrees>40.942389406263828277587890625</LatitudeDegrees>
              <LongitudeDegrees>-4.17116031982004642486572265625</LongitudeDegrees>
            </Position>
            <AltitudeMeters>1001.79998779296875</AltitudeMeters>
            <DistanceMeters>115379.32091048</DistanceMeters>
          </Trackpoint>
          <Trackpoint>
            <Time>2019-08-02T11:22:23.000Z</Time>
            <Position>
              <LatitudeDegrees>40.94261680729687213897705078125</LatitudeDegrees>
              <LongitudeDegrees>-4.171454608440399169921875</LongitudeDegrees>
            </Position>
            <AltitudeMeters>1001.4000244140625</AltitudeMeters>
            <DistanceMeters>115414.71539586</DistanceMeters>
          </Trackpoint>
          <Trackpoint>
            <Time>2019-08-02T11:22:28.000Z</Time>
            <Position>
              <LatitudeDegrees>40.94281076453626155853271484375</LatitudeDegrees>
              <LongitudeDegrees>-4.17172081768512725830078125</LongitudeDegrees>
            </Position>
            <AltitudeMeters>1001</AltitudeMeters>
            <DistanceMeters>115445.81120933</DistanceMeters>
          </Trackpoint>
          <Trackpoint>
            <Time>2019-08-02T11:22:35.000Z</Time>
            <Position>
              <LatitudeDegrees>40.94309574924409389495849609375</LatitudeDegrees>
              <LongitudeDegrees>-4.17210697196424007415771484375</LongitudeDegrees>
            </Position>
            <AltitudeMeters>1000.20001220703125</AltitudeMeters>
            <DistanceMeters>115491.19957326</DistanceMeters>
          </Trackpoint>
          <Trackpoint>
            <Time>2019-08-02T11:22:40.000Z</Time>
            <Position>
              <LatitudeDegrees>40.9433182887732982635498046875</LatitudeDegrees>
              <LongitudeDegrees>-4.17240209877490997314453125</LongitudeDegrees>
            </Position>
            <AltitudeMeters>999.20001220703125</AltitudeMeters>
            <DistanceMeters>115526.25863607</DistanceMeters>
          </Trackpoint>
          <Trackpoint>
            <Time>2019-08-02T11:22:47.000Z</Time>
            <Position>
              <LatitudeDegrees>40.94367183744907379150390625</LatitudeDegrees>
              <LongitudeDegrees>-4.1728775203227996826171875</LongitudeDegrees>
            </Position>
            <AltitudeMeters>998.20001220703125</AltitudeMeters>
            <DistanceMeters>115582.34855168</DistanceMeters>
          </Trackpoint>
          <Trackpoint>
            <Time>2019-08-02T11:22:55.000Z</Time>
            <Position>
              <LatitudeDegrees>40.94410710968077182769775390625</LatitudeDegrees>
              <LongitudeDegrees>-4.17343952693045139312744140625</LongitudeDegrees>
            </Position>
            <AltitudeMeters>997.5999755859375</AltitudeMeters>
            <DistanceMeters>115650.02098416</DistanceMeters>
          </Trackpoint>
          <Trackpoint>
            <Time>2019-08-02T11:22:57.000Z</Time>
            <Position>
              <LatitudeDegrees>40.94421875663101673126220703125</LatitudeDegrees>
              <LongitudeDegrees>-4.1735804267227649688720703125</LongitudeDegrees>
            </Position>
            <AltitudeMeters>997.4000244140625</AltitudeMeters>
            <DistanceMeters>115667.18902701</DistanceMeters>
          </Trackpoint>
          <Trackpoint>
            <Time>2019-08-02T11:23:05.000Z</Time>
            <Position>
              <LatitudeDegrees>40.9446500055491924285888671875</LatitudeDegrees>
              <LongitudeDegrees>-4.17412499897181987762451171875</LongitudeDegrees>
            </Position>
            <AltitudeMeters>996.79998779296875</AltitudeMeters>
            <DistanceMeters>115733.52121322</DistanceMeters>
          </Trackpoint>
          <Trackpoint>
            <Time>2019-08-02T11:23:06.000Z</Time>
            <Position>
              <LatitudeDegrees>40.94470356591045856475830078125</LatitudeDegrees>
              <LongitudeDegrees>-4.174190126359462738037109375</LongitudeDegrees>
            </Position>
            <AltitudeMeters>996.5999755859375</AltitudeMeters>
            <DistanceMeters>115741.61579379</DistanceMeters>
          </Trackpoint>
          <Trackpoint>
            <Time>2019-08-02T11:23:10.000Z</Time>
            <Position>
              <LatitudeDegrees>40.94491328112781047821044921875</LatitudeDegrees>
              <LongitudeDegrees>-4.17445893399417400360107421875</LongitudeDegrees>
            </Position>
            <AltitudeMeters>995.4000244140625</AltitudeMeters>
            <DistanceMeters>115774.10506473</DistanceMeters>
          </Trackpoint>
          <Trackpoint>
            <Time>2019-08-02T11:23:16.000Z</Time>
            <Position>
              <LatitudeDegrees>40.94522760249674320220947265625</LatitudeDegrees>
              <LongitudeDegrees>-4.1748501174151897430419921875</LongitudeDegrees>
            </Position>
            <AltitudeMeters>994.5999755859375</AltitudeMeters>
            <DistanceMeters>115822.12055053</DistanceMeters>
          </Trackpoint>
          <Trackpoint>
            <Time>2019-08-02T11:23:22.000Z</Time>
            <Position>
              <LatitudeDegrees>40.945538990199565887451171875</LatitudeDegrees>
              <LongitudeDegrees>-4.1752507723867893218994140625</LongitudeDegrees>
            </Position>
            <AltitudeMeters>993.5999755859375</AltitudeMeters>
            <DistanceMeters>115870.45002015</DistanceMeters>
          </Trackpoint>
          <Trackpoint>
            <Time>2019-08-02T11:23:25.000Z</Time>
            <Position>
              <LatitudeDegrees>40.945681147277355194091796875</LatitudeDegrees>
              <LongitudeDegrees>-4.17546258307993412017822265625</LongitudeDegrees>
            </Position>
            <AltitudeMeters>993.20001220703125</AltitudeMeters>
            <DistanceMeters>115894.27085018</DistanceMeters>
          </Trackpoint>
          <Trackpoint>
            <Time>2019-08-02T11:23:27.000Z</Time>
            <Position>
              <LatitudeDegrees>40.9457527287304401397705078125</LatitudeDegrees>
              <LongitudeDegrees>-4.1756115294992923736572265625</LongitudeDegrees>
            </Position>
            <AltitudeMeters>992.5999755859375</AltitudeMeters>
            <DistanceMeters>115909.11236812</DistanceMeters>
          </Trackpoint>
          <Trackpoint>
            <Time>2019-08-02T11:23:29.000Z</Time>
            <Position>
              <LatitudeDegrees>40.94578835181891918182373046875</LatitudeDegrees>
              <LongitudeDegrees>-4.17576969601213932037353515625</LongitudeDegrees>
            </Position>
            <AltitudeMeters>991.20001220703125</AltitudeMeters>
            <DistanceMeters>115922.98757009</DistanceMeters>
          </Trackpoint>
          <Trackpoint>
            <Time>2019-08-02T11:23:32.000Z</Time>
            <Position>
              <LatitudeDegrees>40.94576119445264339447021484375</LatitudeDegrees>
              <LongitudeDegrees>-4.17600338347256183624267578125</LongitudeDegrees>
            </Position>
            <AltitudeMeters>990.20001220703125</AltitudeMeters>
            <DistanceMeters>115942.86474204</DistanceMeters>
          </Trackpoint>
          <Trackpoint>
            <Time>2019-08-02T11:23:34.000Z</Time>
            <Position>
              <LatitudeDegrees>40.9457078017294406890869140625</LatitudeDegrees>
              <LongitudeDegrees>-4.17613715864717960357666015625</LongitudeDegrees>
            </Position>
            <AltitudeMeters>988.5999755859375</AltitudeMeters>
            <DistanceMeters>115955.5848407</DistanceMeters>
          </Trackpoint>
          <Trackpoint>
            <Time>2019-08-02T11:23:36.000Z</Time>
            <Position>
              <LatitudeDegrees>40.9456444345414638519287109375</LatitudeDegrees>
              <LongitudeDegrees>-4.17625970207154750823974609375</LongitudeDegrees>
            </Position>
            <AltitudeMeters>987.20001220703125</AltitudeMeters>
            <DistanceMeters>115968.06991897</DistanceMeters>
          </Trackpoint>
          <Trackpoint>
            <Time>2019-08-02T11:23:38.000Z</Time>
            <Position>
              <LatitudeDegrees>40.94558265991508960723876953125</LatitudeDegrees>
              <LongitudeDegrees>-4.176380150020122528076171875</LongitudeDegrees>
            </Position>
            <AltitudeMeters>986</AltitudeMeters>
            <DistanceMeters>115980.30993524</DistanceMeters>
          </Trackpoint>
          <Trackpoint>
            <Time>2019-08-02T11:23:41.000Z</Time>
            <Position>
              <LatitudeDegrees>40.94548827968537807464599609375</LatitudeDegrees>
              <LongitudeDegrees>-4.17655440978705883026123046875</LongitudeDegrees>
            </Position>
            <AltitudeMeters>984.20001220703125</AltitudeMeters>
            <DistanceMeters>115998.33698134</DistanceMeters>
          </Trackpoint>
          <Trackpoint>
            <Time>2019-08-02T11:23:43.000Z</Time>
            <Position>
              <LatitudeDegrees>40.94541837461292743682861328125</LatitudeDegrees>
              <LongitudeDegrees>-4.1766636259853839874267578125</LongitudeDegrees>
            </Position>
            <AltitudeMeters>982.79998779296875</AltitudeMeters>
            <DistanceMeters>116010.37203124</DistanceMeters>
          </Trackpoint>
          <Trackpoint>
            <Time>2019-08-02T11:23:45.000Z</Time>
            <Position>
              <LatitudeDegrees>40.94535333104431629180908203125</LatitudeDegrees>
              <LongitudeDegrees>-4.1767749376595020294189453125</LongitudeDegrees>
            </Position>
            <AltitudeMeters>981.20001220703125</AltitudeMeters>
            <DistanceMeters>116022.20352502</DistanceMeters>
          </Trackpoint>
          <Trackpoint>
            <Time>2019-08-02T11:23:47.000Z</Time>
            <Position>
              <LatitudeDegrees>40.945287533104419708251953125</LatitudeDegrees>
              <LongitudeDegrees>-4.17688365094363689422607421875</LongitudeDegrees>
            </Position>
            <AltitudeMeters>980</AltitudeMeters>
            <DistanceMeters>116033.91535072</DistanceMeters>
          </Trackpoint>
          <Trackpoint>
            <Time>2019-08-02T11:23:49.000Z</Time>
            <Position>
              <LatitudeDegrees>40.94522508792579174041748046875</LatitudeDegrees>
              <LongitudeDegrees>-4.1769932024180889129638671875</LongitudeDegrees>
            </Position>
            <AltitudeMeters>978.79998779296875</AltitudeMeters>
            <DistanceMeters>116045.45356622</DistanceMeters>
          </Trackpoint>
          <Trackpoint>
            <Time>2019-08-02T11:23:51.000Z</Time>
            <Position>
              <LatitudeDegrees>40.945163480937480926513671875</LatitudeDegrees>
              <LongitudeDegrees>-4.17710292153060436248779296875</LongitudeDegrees>
            </Position>
            <AltitudeMeters>977.5999755859375</AltitudeMeters>
            <DistanceMeters>116056.94708563</DistanceMeters>
          </Trackpoint>
          <Trackpoint>
            <Time>2019-08-02T11:23:52.000Z</Time>
            <Position>
              <LatitudeDegrees>40.94513758085668087005615234375</LatitudeDegrees>
              <LongitudeDegrees>-4.17716092430055141448974609375</LongitudeDegrees>
            </Position>
            <AltitudeMeters>977</AltitudeMeters>
            <DistanceMeters>116062.61214447</DistanceMeters>
          </Trackpoint>
          <Trackpoint>
            <Time>2019-08-02T11:23:53.000Z</Time>
            <Position>
              <LatitudeDegrees>40.94511863775551319122314453125</LatitudeDegrees>
              <LongitudeDegrees>-4.17722261510789394378662109375</LongitudeDegrees>
            </Position>
            <AltitudeMeters>976.4000244140625</AltitudeMeters>
            <DistanceMeters>116068.20985519</DistanceMeters>
          </Trackpoint>
          <Trackpoint>
            <Time>2019-08-02T11:23:55.000Z</Time>
            <Position>
              <LatitudeDegrees>40.94510950148105621337890625</LatitudeDegrees>
              <LongitudeDegrees>-4.17728614993393421173095703125</LongitudeDegrees>
            </Position>
            <AltitudeMeters>975.4000244140625</AltitudeMeters>
            <DistanceMeters>116073.64717716</DistanceMeters>
          </Trackpoint>
          <Trackpoint>
            <Time>2019-08-02T11:23:56.000Z</Time>
            <Position>
              <LatitudeDegrees>40.9451234154403209686279296875</LatitudeDegrees>
              <LongitudeDegrees>-4.17740282602608203887939453125</LongitudeDegrees>
            </Position>
            <AltitudeMeters>974.5999755859375</AltitudeMeters>
            <DistanceMeters>116083.57780981</DistanceMeters>
          </Trackpoint>
          <Trackpoint>
            <Time>2019-08-02T11:23:57.000Z</Time>
            <Position>
              <LatitudeDegrees>40.945139341056346893310546875</LatitudeDegrees>
              <LongitudeDegrees>-4.17744741775095462799072265625</LongitudeDegrees>
            </Position>
            <AltitudeMeters>974</AltitudeMeters>
            <DistanceMeters>116087.72428609</DistanceMeters>
          </Trackpoint>
          <Trackpoint>
            <Time>2019-08-02T11:23:59.000Z</Time>
            <Position>
              <LatitudeDegrees>40.9451572783291339874267578125</LatitudeDegrees>
              <LongitudeDegrees>-4.1774816997349262237548828125</LongitudeDegrees>
            </Position>
            <AltitudeMeters>972.79998779296875</AltitudeMeters>
            <DistanceMeters>116091.22869817</DistanceMeters>
          </Trackpoint>
          <Trackpoint>
            <Time>2019-08-02T11:24:00.000Z</Time>
            <Position>
              <LatitudeDegrees>40.94519575126469135284423828125</LatitudeDegrees>
              <LongitudeDegrees>-4.1775299794971942901611328125</LongitudeDegrees>
            </Position>
            <AltitudeMeters>972.20001220703125</AltitudeMeters>
            <DistanceMeters>116097.12877822</DistanceMeters>
          </Trackpoint>
          <Trackpoint>
            <Time>2019-08-02T11:24:01.000Z</Time>
            <Position>
              <LatitudeDegrees>40.9452233277261257171630859375</LatitudeDegrees>
              <LongitudeDegrees>-4.1775390319526195526123046875</LongitudeDegrees>
            </Position>
            <AltitudeMeters>971.20001220703125</AltitudeMeters>
            <DistanceMeters>116100.29046996</DistanceMeters>
          </Trackpoint>
          <Trackpoint>
            <Time>2019-08-02T11:24:03.000Z</Time>
            <Position>
              <LatitudeDegrees>40.94525643624365329742431640625</LatitudeDegrees>
              <LongitudeDegrees>-4.17753576301038265228271484375</LongitudeDegrees>
            </Position>
            <AltitudeMeters>970.4000244140625</AltitudeMeters>
            <DistanceMeters>116103.98797395</DistanceMeters>
          </Trackpoint>
          <Trackpoint>
            <Time>2019-08-02T11:24:04.000Z</Time>
            <Position>
              <LatitudeDegrees>40.94533438794314861297607421875</LatitudeDegrees>
              <LongitudeDegrees>-4.17748563922941684722900390625</LongitudeDegrees>
            </Position>
            <AltitudeMeters>969.79998779296875</AltitudeMeters>
            <DistanceMeters>116113.63400462</DistanceMeters>
          </Trackpoint>
          <Trackpoint>
            <Time>2019-08-02T11:24:05.000Z</Time>
            <Position>
              <LatitudeDegrees>40.9453768841922283172607421875</LatitudeDegrees>
              <LongitudeDegrees>-4.1774453222751617431640625</LongitudeDegrees>
            </Position>
            <AltitudeMeters>969.20001220703125</AltitudeMeters>
            <DistanceMeters>116119.45317867</DistanceMeters>
          </Trackpoint>
          <Trackpoint>
            <Time>2019-08-02T11:24:07.000Z</Time>
            <Position>
              <LatitudeDegrees>40.94546866603195667266845703125</LatitudeDegrees>
              <LongitudeDegrees>-4.17735907249152660369873046875</LongitudeDegrees>
            </Position>
            <AltitudeMeters>968</AltitudeMeters>
            <DistanceMeters>116131.98013634</DistanceMeters>
          </Trackpoint>
          <Trackpoint>
            <Time>2019-08-02T11:24:08.000Z</Time>
            <Position>
              <LatitudeDegrees>40.94551057554781436920166015625</LatitudeDegrees>
              <LongitudeDegrees>-4.1773100383579730987548828125</LongitudeDegrees>
            </Position>
            <AltitudeMeters>967.5999755859375</AltitudeMeters>
            <DistanceMeters>116138.20565544</DistanceMeters>
          </Trackpoint>
          <Trackpoint>
            <Time>2019-08-02T11:24:09.000Z</Time>
            <Position>
              <LatitudeDegrees>40.94554946757853031158447265625</LatitudeDegrees>
              <LongitudeDegrees>-4.17725798673927783966064453125</LongitudeDegrees>
            </Position>
            <AltitudeMeters>966.79998779296875</AltitudeMeters>
            <DistanceMeters>116144.36115711</DistanceMeters>
          </Trackpoint>
          <Trackpoint>
            <Time>2019-08-02T11:24:11.000Z</Time>
            <Position>
              <LatitudeDegrees>40.94562255777418613433837890625</LatitudeDegrees>
              <LongitudeDegrees>-4.17715002782642841339111328125</LongitudeDegrees>
            </Position>
            <AltitudeMeters>965.5999755859375</AltitudeMeters>
            <DistanceMeters>116156.549051</DistanceMeters>
          </Trackpoint>
          <Trackpoint>
            <Time>2019-08-02T11:24:14.000Z</Time>
            <Position>
              <LatitudeDegrees>40.945730768144130706787109375</LatitudeDegrees>
              <LongitudeDegrees>-4.17698876000940799713134765625</LongitudeDegrees>
            </Position>
            <AltitudeMeters>964.20001220703125</AltitudeMeters>
            <DistanceMeters>116174.68397267</DistanceMeters>
          </Trackpoint>
          <Trackpoint>
            <Time>2019-08-02T11:24:17.000Z</Time>
            <Position>
              <LatitudeDegrees>40.94582573510706424713134765625</LatitudeDegrees>
              <LongitudeDegrees>-4.1768181882798671722412109375</LongitudeDegrees>
            </Position>
            <AltitudeMeters>962.79998779296875</AltitudeMeters>
            <DistanceMeters>116192.49837714</DistanceMeters>
          </Trackpoint>
          <Trackpoint>
            <Time>2019-08-02T11:24:19.000Z</Time>
            <Position>
              <LatitudeDegrees>40.94588608480989933013916015625</LatitudeDegrees>
              <LongitudeDegrees>-4.1767021827399730682373046875</LongitudeDegrees>
            </Position>
            <AltitudeMeters>961.5999755859375</AltitudeMeters>
            <DistanceMeters>116204.33978867</DistanceMeters>
          </Trackpoint>
          <Trackpoint>
            <Time>2019-08-02T11:24:20.000Z</Time>
            <Position>
              <LatitudeDegrees>40.94591952860355377197265625</LatitudeDegrees>
              <LongitudeDegrees>-4.1766478680074214935302734375</LongitudeDegrees>
            </Position>
            <AltitudeMeters>961</AltitudeMeters>
            <DistanceMeters>116210.23144496</DistanceMeters>
          </Trackpoint>
          <Trackpoint>
            <Time>2019-08-02T11:24:21.000Z</Time>
            <Position>
              <LatitudeDegrees>40.9459569118916988372802734375</LatitudeDegrees>
              <LongitudeDegrees>-4.17659866623580455780029296875</LongitudeDegrees>
            </Position>
            <AltitudeMeters>960.4000244140625</AltitudeMeters>
            <DistanceMeters>116216.09852698</DistanceMeters>
          </Trackpoint>
          <Trackpoint>
            <Time>2019-08-02T11:24:24.000Z</Time>
            <Position>
              <LatitudeDegrees>40.94609764404594898223876953125</LatitudeDegrees>
              <LongitudeDegrees>-4.17649053968489170074462890625</LongitudeDegrees>
            </Position>
            <AltitudeMeters>959.20001220703125</AltitudeMeters>
            <DistanceMeters>116234.20903323</DistanceMeters>
          </Trackpoint>
          <Trackpoint>
            <Time>2019-08-02T11:24:26.000Z</Time>
            <Position>
              <LatitudeDegrees>40.94622152857482433319091796875</LatitudeDegrees>
              <LongitudeDegrees>-4.1764839179813861846923828125</LongitudeDegrees>
            </Position>
            <AltitudeMeters>958.20001220703125</AltitudeMeters>
            <DistanceMeters>116248.00918946</DistanceMeters>
          </Trackpoint>
          <Trackpoint>
            <Time>2019-08-02T11:24:28.000Z</Time>
            <Position>
              <LatitudeDegrees>40.9463498555123805999755859375</LatitudeDegrees>
              <LongitudeDegrees>-4.17654284276068210601806640625</LongitudeDegrees>
            </Position>
            <AltitudeMeters>956.79998779296875</AltitudeMeters>
            <DistanceMeters>116263.12680187</DistanceMeters>
          </Trackpoint>
          <Trackpoint>
            <Time>2019-08-02T11:24:31.000Z</Time>
            <Position>
              <LatitudeDegrees>40.946521349251270294189453125</LatitudeDegrees>
              <LongitudeDegrees>-4.17669765651226043701171875</LongitudeDegrees>
            </Position>
            <AltitudeMeters>955.79998779296875</AltitudeMeters>
            <DistanceMeters>116286.22904501</DistanceMeters>
          </Trackpoint>
          <Trackpoint>
            <Time>2019-08-02T11:24:35.000Z</Time>
            <Position>
              <LatitudeDegrees>40.94670030288398265838623046875</LatitudeDegrees>
              <LongitudeDegrees>-4.17694567702710628509521484375</LongitudeDegrees>
            </Position>
            <AltitudeMeters>954.5999755859375</AltitudeMeters>
            <DistanceMeters>116315.06429043</DistanceMeters>
          </Trackpoint>
          <Trackpoint>
            <Time>2019-08-02T11:24:39.000Z</Time>
            <Position>
              <LatitudeDegrees>40.94685536809265613555908203125</LatitudeDegrees>
              <LongitudeDegrees>-4.177186824381351470947265625</LongitudeDegrees>
            </Position>
            <AltitudeMeters>953.4000244140625</AltitudeMeters>
            <DistanceMeters>116341.68856452</DistanceMeters>
          </Trackpoint>
          <Trackpoint>
            <Time>2019-08-02T11:24:46.000Z</Time>
            <Position>
              <LatitudeDegrees>40.9471156261861324310302734375</LatitudeDegrees>
              <LongitudeDegrees>-4.1775889880955219268798828125</LongitudeDegrees>
            </Position>
            <AltitudeMeters>952.4000244140625</AltitudeMeters>
            <DistanceMeters>116386.21017748</DistanceMeters>
          </Trackpoint>
          <Trackpoint>
            <Time>2019-08-02T11:24:52.000Z</Time>
            <Position>
              <LatitudeDegrees>40.947336740791797637939453125</LatitudeDegrees>
              <LongitudeDegrees>-4.17792610824108123779296875</LongitudeDegrees>
            </Position>
            <AltitudeMeters>951.4000244140625</AltitudeMeters>
            <DistanceMeters>116423.74548908</DistanceMeters>
          </Trackpoint>
          <Trackpoint>
            <Time>2019-08-02T11:25:01.000Z</Time>
            <Position>
              <LatitudeDegrees>40.94769121147692203521728515625</LatitudeDegrees>
              <LongitudeDegrees>-4.17846783064305782318115234375</LongitudeDegrees>
            </Position>
            <AltitudeMeters>950.5999755859375</AltitudeMeters>
            <DistanceMeters>116483.99984481</DistanceMeters>
          </Trackpoint>
          <Trackpoint>
            <Time>2019-08-02T11:25:02.000Z</Time>
            <Position>
              <LatitudeDegrees>40.9477328695356845855712890625</LatitudeDegrees>
              <LongitudeDegrees>-4.17853186838328838348388671875</LongitudeDegrees>
            </Position>
            <AltitudeMeters>950.5999755859375</AltitudeMeters>
            <DistanceMeters>116491.10527635</DistanceMeters>
          </Trackpoint>
          <Trackpoint>
            <Time>2019-08-02T11:25:11.000Z</Time>
            <Position>
              <LatitudeDegrees>40.9480936266481876373291015625</LatitudeDegrees>
              <LongitudeDegrees>-4.1790849901735782623291015625</LongitudeDegrees>
            </Position>
            <AltitudeMeters>950.4000244140625</AltitudeMeters>
            <DistanceMeters>116552.54171914</DistanceMeters>
          </Trackpoint>
          <Trackpoint>
            <Time>2019-08-02T11:25:20.000Z</Time>
            <Position>
              <LatitudeDegrees>40.9484795294702053070068359375</LatitudeDegrees>
              <LongitudeDegrees>-4.17959033511579036712646484375</LongitudeDegrees>
            </Position>
            <AltitudeMeters>950.4000244140625</AltitudeMeters>
            <DistanceMeters>116612.95382708</DistanceMeters>
          </Trackpoint>
          <Trackpoint>
            <Time>2019-08-02T11:25:26.000Z</Time>
            <Position>
              <LatitudeDegrees>40.94869025051593780517578125</LatitudeDegrees>
              <LongitudeDegrees>-4.17990901507437229156494140625</LongitudeDegrees>
            </Position>
            <AltitudeMeters>949.79998779296875</AltitudeMeters>
            <DistanceMeters>116648.55981833</DistanceMeters>
          </Trackpoint>
          <Trackpoint>
            <Time>2019-08-02T11:25:31.000Z</Time>
            <Position>
              <LatitudeDegrees>40.948853194713592529296875</LatitudeDegrees>
              <LongitudeDegrees>-4.18016466312110424041748046875</LongitudeDegrees>
            </Position>
            <AltitudeMeters>948.79998779296875</AltitudeMeters>
            <DistanceMeters>116676.68098321</DistanceMeters>
          </Trackpoint>
          <Trackpoint>
            <Time>2019-08-02T11:25:35.000Z</Time>
            <Position>
              <LatitudeDegrees>40.9489911608397960662841796875</LatitudeDegrees>
              <LongitudeDegrees>-4.18037739582359790802001953125</LongitudeDegrees>
            </Position>
            <AltitudeMeters>947.79998779296875</AltitudeMeters>
            <DistanceMeters>116700.25239754</DistanceMeters>
          </Trackpoint>
          <Trackpoint>
            <Time>2019-08-02T11:25:40.000Z</Time>
            <Position>
              <LatitudeDegrees>40.94914010725915431976318359375</LatitudeDegrees>
              <LongitudeDegrees>-4.180599264800548553466796875</LongitudeDegrees>
            </Position>
            <AltitudeMeters>946.5999755859375</AltitudeMeters>
            <DistanceMeters>116725.20663709</DistanceMeters>
          </Trackpoint>
          <Trackpoint>
            <Time>2019-08-02T11:25:44.000Z</Time>
            <Position>
              <LatitudeDegrees>40.94935518689453601837158203125</LatitudeDegrees>
              <LongitudeDegrees>-4.180917777121067047119140625</LongitudeDegrees>
            </Position>
            <AltitudeMeters>945.5999755859375</AltitudeMeters>
            <DistanceMeters>116761.12321544</DistanceMeters>
          </Trackpoint>
          <Trackpoint>
            <Time>2019-08-02T11:25:48.000Z</Time>
            <Position>
              <LatitudeDegrees>40.9495467133820056915283203125</LatitudeDegrees>
              <LongitudeDegrees>-4.18120183981955051422119140625</LongitudeDegrees>
            </Position>
            <AltitudeMeters>944.20001220703125</AltitudeMeters>
            <DistanceMeters>116793.13353931</DistanceMeters>
          </Trackpoint>
          <Trackpoint>
            <Time>2019-08-02T11:25:51.000Z</Time>
            <Position>
              <LatitudeDegrees>40.9496969170868396759033203125</LatitudeDegrees>
              <LongitudeDegrees>-4.1814123094081878662109375</LongitudeDegrees>
            </Position>
            <AltitudeMeters>943.20001220703125</AltitudeMeters>
            <DistanceMeters>116817.47559256</DistanceMeters>
          </Trackpoint>
          <Trackpoint>
            <Time>2019-08-02T11:25:53.000Z</Time>
            <Position>
              <LatitudeDegrees>40.94979004003107547760009765625</LatitudeDegrees>
              <LongitudeDegrees>-4.18155505321919918060302734375</LongitudeDegrees>
            </Position>
            <AltitudeMeters>942.20001220703125</AltitudeMeters>
            <DistanceMeters>116833.33196094</DistanceMeters>
          </Trackpoint>
          <Trackpoint>
            <Time>2019-08-02T11:25:55.000Z</Time>
            <Position>
              <LatitudeDegrees>40.9498796425759792327880859375</LatitudeDegrees>
              <LongitudeDegrees>-4.18170006014406681060791015625</LongitudeDegrees>
            </Position>
            <AltitudeMeters>941.5999755859375</AltitudeMeters>
            <DistanceMeters>116849.08147426</DistanceMeters>
          </Trackpoint>
          <Trackpoint>
            <Time>2019-08-02T11:25:58.000Z</Time>
            <Position>
              <LatitudeDegrees>40.9500078856945037841796875</LatitudeDegrees>
              <LongitudeDegrees>-4.18191254138946533203125</LongitudeDegrees>
            </Position>
            <AltitudeMeters>940.79998779296875</AltitudeMeters>
            <DistanceMeters>116871.94641043</DistanceMeters>
          </Trackpoint>
          <Trackpoint>
            <Time>2019-08-02T11:26:02.000Z</Time>
            <Position>
              <LatitudeDegrees>40.95018231309950351715087890625</LatitudeDegrees>
              <LongitudeDegrees>-4.182193838059902191162109375</LongitudeDegrees>
            </Position>
            <AltitudeMeters>939.79998779296875</AltitudeMeters>
            <DistanceMeters>116902.54176603</DistanceMeters>
          </Trackpoint>
          <Trackpoint>
            <Time>2019-08-02T11:26:06.000Z</Time>
            <Position>
              <LatitudeDegrees>40.95032514072954654693603515625</LatitudeDegrees>
              <LongitudeDegrees>-4.1824253462255001068115234375</LongitudeDegrees>
            </Position>
            <AltitudeMeters>938.4000244140625</AltitudeMeters>
            <DistanceMeters>116927.67071777</DistanceMeters>
          </Trackpoint>
          <Trackpoint>
            <Time>2019-08-02T11:26:20.000Z</Time>
            <Position>
              <LatitudeDegrees>40.95071406103670597076416015625</LatitudeDegrees>
              <LongitudeDegrees>-4.18306446634232997894287109375</LongitudeDegrees>
            </Position>
            <AltitudeMeters>937.79998779296875</AltitudeMeters>
            <DistanceMeters>116996.666264</DistanceMeters>
          </Trackpoint>
          <Trackpoint>
            <Time>2019-08-02T11:26:29.000Z</Time>
            <Position>
              <LatitudeDegrees>40.95099669881165027618408203125</LatitudeDegrees>
              <LongitudeDegrees>-4.18351038359105587005615234375</LongitudeDegrees>
            </Position>
            <AltitudeMeters>937.4000244140625</AltitudeMeters>
            <DistanceMeters>117045.60253084</DistanceMeters>
          </Trackpoint>
          <Trackpoint>
            <Time>2019-08-02T11:26:40.000Z</Time>
            <Position>
              <LatitudeDegrees>40.95138545148074626922607421875</LatitudeDegrees>
              <LongitudeDegrees>-4.18410164304077625274658203125</LongitudeDegrees>
            </Position>
            <AltitudeMeters>937</AltitudeMeters>
            <DistanceMeters>117111.50079958</DistanceMeters>
          </Trackpoint>
          <Trackpoint>
            <Time>2019-08-02T11:26:46.000Z</Time>
            <Position>
              <LatitudeDegrees>40.95161209814250469207763671875</LatitudeDegrees>
              <LongitudeDegrees>-4.18444312177598476409912109375</LongitudeDegrees>
            </Position>
            <AltitudeMeters>936.20001220703125</AltitudeMeters>
            <DistanceMeters>117149.71548292</DistanceMeters>
          </Trackpoint>
          <Trackpoint>
            <Time>2019-08-02T11:26:55.000Z</Time>
            <Position>
              <LatitudeDegrees>40.95196296460926532745361328125</LatitudeDegrees>
              <LongitudeDegrees>-4.1850166954100131988525390625</LongitudeDegrees>
            </Position>
            <AltitudeMeters>935.5999755859375</AltitudeMeters>
            <DistanceMeters>117211.76247004</DistanceMeters>
          </Trackpoint>
          <Trackpoint>
            <Time>2019-08-02T11:26:58.000Z</Time>
            <Position>
              <LatitudeDegrees>40.95207142643630504608154296875</LatitudeDegrees>
              <LongitudeDegrees>-4.18518944643437862396240234375</LongitudeDegrees>
            </Position>
            <AltitudeMeters>935.4000244140625</AltitudeMeters>
            <DistanceMeters>117230.64674336</DistanceMeters>
          </Trackpoint>
          <Trackpoint>
            <Time>2019-08-02T11:27:09.000Z</Time>
            <Position>
              <LatitudeDegrees>40.95240938477218151092529296875</LatitudeDegrees>
              <LongitudeDegrees>-4.18576058931648731231689453125</LongitudeDegrees>
            </Position>
            <AltitudeMeters>934.4000244140625</AltitudeMeters>
            <DistanceMeters>117291.63849831</DistanceMeters>
          </Trackpoint>
          <Trackpoint>
            <Time>2019-08-02T11:27:11.000Z</Time>
            <Position>
              <LatitudeDegrees>40.95247124321758747100830078125</LatitudeDegrees>
              <LongitudeDegrees>-4.18586620129644870758056640625</LongitudeDegrees>
            </Position>
            <AltitudeMeters>934.20001220703125</AltitudeMeters>
            <DistanceMeters>117302.87297108</DistanceMeters>
          </Trackpoint>
          <Trackpoint>
            <Time>2019-08-02T11:27:16.000Z</Time>
            <Position>
              <LatitudeDegrees>40.952628739178180694580078125</LatitudeDegrees>
              <LongitudeDegrees>-4.18613861314952373504638671875</LongitudeDegrees>
            </Position>
            <AltitudeMeters>933.20001220703125</AltitudeMeters>
            <DistanceMeters>117331.71166107</DistanceMeters>
          </Trackpoint>
          <Trackpoint>
            <Time>2019-08-02T11:27:25.000Z</Time>
            <Position>
              <LatitudeDegrees>40.9528957866132259368896484375</LatitudeDegrees>
              <LongitudeDegrees>-4.18660171329975128173828125</LongitudeDegrees>
            </Position>
            <AltitudeMeters>932</AltitudeMeters>
            <DistanceMeters>117380.69016643</DistanceMeters>
          </Trackpoint>
          <Trackpoint>
            <Time>2019-08-02T11:27:31.000Z</Time>
            <Position>
              <LatitudeDegrees>40.95313525758683681488037109375</LatitudeDegrees>
              <LongitudeDegrees>-4.18705643154680728912353515625</LongitudeDegrees>
            </Position>
            <AltitudeMeters>931</AltitudeMeters>
            <DistanceMeters>117427.28931388</DistanceMeters>
          </Trackpoint>
          <Trackpoint>
            <Time>2019-08-02T11:27:36.000Z</Time>
            <Position>
              <LatitudeDegrees>40.95328412018716335296630859375</LatitudeDegrees>
              <LongitudeDegrees>-4.187357760965824127197265625</LongitudeDegrees>
            </Position>
            <AltitudeMeters>929.79998779296875</AltitudeMeters>
            <DistanceMeters>117457.55677686</DistanceMeters>
          </Trackpoint>
          <Trackpoint>
            <Time>2019-08-02T11:27:41.000Z</Time>
            <Position>
              <LatitudeDegrees>40.95342795364558696746826171875</LatitudeDegrees>
              <LongitudeDegrees>-4.18767484836280345916748046875</LongitudeDegrees>
            </Position>
            <AltitudeMeters>928.79998779296875</AltitudeMeters>
            <DistanceMeters>117488.64925061</DistanceMeters>
          </Trackpoint>
          <Trackpoint>
            <Time>2019-08-02T11:27:48.000Z</Time>
            <Position>
              <LatitudeDegrees>40.95359089784324169158935546875</LatitudeDegrees>
              <LongitudeDegrees>-4.18814532458782196044921875</LongitudeDegrees>
            </Position>
            <AltitudeMeters>927.79998779296875</AltitudeMeters>
            <DistanceMeters>117532.15758229</DistanceMeters>
          </Trackpoint>
          <Trackpoint>
            <Time>2019-08-02T11:27:53.000Z</Time>
            <Position>
              <LatitudeDegrees>40.953692905604839324951171875</LatitudeDegrees>
              <LongitudeDegrees>-4.18844765983521938323974609375</LongitudeDegrees>
            </Position>
            <AltitudeMeters>926.4000244140625</AltitudeMeters>
            <DistanceMeters>117559.99246254</DistanceMeters>
          </Trackpoint>
          <Trackpoint>
            <Time>2019-08-02T11:27:58.000Z</Time>
            <Position>
              <LatitudeDegrees>40.95377814956009387969970703125</LatitudeDegrees>
              <LongitudeDegrees>-4.18869945220649242401123046875</LongitudeDegrees>
            </Position>
            <AltitudeMeters>925.20001220703125</AltitudeMeters>
            <DistanceMeters>117583.18715794</DistanceMeters>
          </Trackpoint>
          <Trackpoint>
            <Time>2019-08-02T11:28:02.000Z</Time>
            <Position>
              <LatitudeDegrees>40.9537614695727825164794921875</LatitudeDegrees>
              <LongitudeDegrees>-4.18871068395674228668212890625</LongitudeDegrees>
            </Position>
            <AltitudeMeters>924.20001220703125</AltitudeMeters>
            <DistanceMeters>117585.26908894</DistanceMeters>
          </Trackpoint>
          <Trackpoint>
            <Time>2019-08-02T11:28:04.000Z</Time>
            <Position>
              <LatitudeDegrees>40.9537574462592601776123046875</LatitudeDegrees>
              <LongitudeDegrees>-4.18867279775440692901611328125</LongitudeDegrees>
            </Position>
            <AltitudeMeters>923.79998779296875</AltitudeMeters>
            <DistanceMeters>117588.48458851</DistanceMeters>
          </Trackpoint>
          <Trackpoint>
            <Time>2019-08-02T11:28:06.000Z</Time>
            <Position>
              <LatitudeDegrees>40.953745879232883453369140625</LatitudeDegrees>
              <LongitudeDegrees>-4.18861898593604564666748046875</LongitudeDegrees>
            </Position>
            <AltitudeMeters>923</AltitudeMeters>
            <DistanceMeters>117593.1881709</DistanceMeters>
          </Trackpoint>
          <Trackpoint>
            <Time>2019-08-02T11:28:09.000Z</Time>
            <Position>
              <LatitudeDegrees>40.9537138603627681732177734375</LatitudeDegrees>
              <LongitudeDegrees>-4.18852594681084156036376953125</LongitudeDegrees>
            </Position>
            <AltitudeMeters>921.79998779296875</AltitudeMeters>
            <DistanceMeters>117601.78270552</DistanceMeters>
          </Trackpoint>
          <Trackpoint>
            <Time>2019-08-02T11:28:12.000Z</Time>
            <Position>
              <LatitudeDegrees>40.95367874018847942352294921875</LatitudeDegrees>
              <LongitudeDegrees>-4.1884157247841358184814453125</LongitudeDegrees>
            </Position>
            <AltitudeMeters>920.5999755859375</AltitudeMeters>
            <DistanceMeters>117611.83938769</DistanceMeters>
          </Trackpoint>
          <Trackpoint>
            <Time>2019-08-02T11:28:17.000Z</Time>
            <Position>
              <LatitudeDegrees>40.95360866747796535491943359375</LatitudeDegrees>
              <LongitudeDegrees>-4.18821665458381175994873046875</LongitudeDegrees>
            </Position>
            <AltitudeMeters>919.4000244140625</AltitudeMeters>
            <DistanceMeters>117630.30149118</DistanceMeters>
          </Trackpoint>
          <Trackpoint>
            <Time>2019-08-02T11:28:23.000Z</Time>
            <Position>
              <LatitudeDegrees>40.95353566110134124755859375</LatitudeDegrees>
              <LongitudeDegrees>-4.18798347003757953643798828125</LongitudeDegrees>
            </Position>
            <AltitudeMeters>918.4000244140625</AltitudeMeters>
            <DistanceMeters>117651.52055435</DistanceMeters>
          </Trackpoint>
          <Trackpoint>
            <Time>2019-08-02T11:28:25.000Z</Time>
            <Position>
              <LatitudeDegrees>40.95356139354407787322998046875</LatitudeDegrees>
              <LongitudeDegrees>-4.18795128352940082550048828125</LongitudeDegrees>
            </Position>
            <AltitudeMeters>918.20001220703125</AltitudeMeters>
            <DistanceMeters>117655.46158612</DistanceMeters>
          </Trackpoint>
          <Trackpoint>
            <Time>2019-08-02T11:28:30.000Z</Time>
            <Position>
              <LatitudeDegrees>40.953648984432220458984375</LatitudeDegrees>
              <LongitudeDegrees>-4.18803359381854534149169921875</LongitudeDegrees>
            </Position>
            <AltitudeMeters>917.20001220703125</AltitudeMeters>
            <DistanceMeters>117667.41683811</DistanceMeters>
          </Trackpoint>
          <Trackpoint>
            <Time>2019-08-02T11:28:31.000Z</Time>
            <Position>
              <LatitudeDegrees>40.9536776505410671234130859375</LatitudeDegrees>
              <LongitudeDegrees>-4.18806276284158229827880859375</LongitudeDegrees>
            </Position>
            <AltitudeMeters>917</AltitudeMeters>
            <DistanceMeters>117671.44063321</DistanceMeters>
          </Trackpoint>
          <Trackpoint>
            <Time>2019-08-02T11:28:38.000Z</Time>
            <Position>
              <LatitudeDegrees>40.95396422781050205230712890625</LatitudeDegrees>
              <LongitudeDegrees>-4.18826996348798274993896484375</LongitudeDegrees>
            </Position>
            <AltitudeMeters>917.20001220703125</AltitudeMeters>
            <DistanceMeters>117707.78260593</DistanceMeters>
          </Trackpoint>
          <Trackpoint>
            <Time>2019-08-02T11:28:43.000Z</Time>
            <Position>
              <LatitudeDegrees>40.95423613674938678741455078125</LatitudeDegrees>
              <LongitudeDegrees>-4.18837205506861209869384765625</LongitudeDegrees>
            </Position>
            <AltitudeMeters>916.79998779296875</AltitudeMeters>
            <DistanceMeters>117739.23989327</DistanceMeters>
          </Trackpoint>
          <Trackpoint>
            <Time>2019-08-02T11:28:50.000Z</Time>
            <Position>
              <LatitudeDegrees>40.95449144951999187469482421875</LatitudeDegrees>
              <LongitudeDegrees>-4.1887637414038181304931640625</LongitudeDegrees>
            </Position>
            <AltitudeMeters>917.5999755859375</AltitudeMeters>
            <DistanceMeters>117782.73182555</DistanceMeters>
          </Trackpoint>
          <Trackpoint>
            <Time>2019-08-02T11:28:52.000Z</Time>
            <Position>
              <LatitudeDegrees>40.95454073511064052581787109375</LatitudeDegrees>
              <LongitudeDegrees>-4.18886256404221057891845703125</LongitudeDegrees>
            </Position>
            <AltitudeMeters>918</AltitudeMeters>
            <DistanceMeters>117792.68697944</DistanceMeters>
          </Trackpoint>
          <Trackpoint>
            <Time>2019-08-02T11:29:07.000Z</Time>
            <Position>
              <LatitudeDegrees>40.954696051776409149169921875</LatitudeDegrees>
              <LongitudeDegrees>-4.18958474881947040557861328125</LongitudeDegrees>
            </Position>
            <AltitudeMeters>918.5999755859375</AltitudeMeters>
            <DistanceMeters>117855.80625254</DistanceMeters>
          </Trackpoint>
          <Trackpoint>
            <Time>2019-08-02T11:29:09.000Z</Time>
            <Position>
              <LatitudeDegrees>40.9547072835266590118408203125</LatitudeDegrees>
              <LongitudeDegrees>-4.189687259495258331298828125</LongitudeDegrees>
            </Position>
            <AltitudeMeters>919</AltitudeMeters>
            <DistanceMeters>117864.51352087</DistanceMeters>
          </Trackpoint>
          <Trackpoint>
            <Time>2019-08-02T11:29:22.000Z</Time>
            <Position>
              <LatitudeDegrees>40.95479772426187992095947265625</LatitudeDegrees>
              <LongitudeDegrees>-4.19035814702510833740234375</LongitudeDegrees>
            </Position>
            <AltitudeMeters>918</AltitudeMeters>
            <DistanceMeters>117921.79863203</DistanceMeters>
          </Trackpoint>
          <Trackpoint>
            <Time>2019-08-02T11:29:28.000Z</Time>
            <Position>
              <LatitudeDegrees>40.95486938953399658203125</LatitudeDegrees>
              <LongitudeDegrees>-4.190664924681186676025390625</LongitudeDegrees>
            </Position>
            <AltitudeMeters>917</AltitudeMeters>
            <DistanceMeters>117948.79123746</DistanceMeters>
          </Trackpoint>
          <Trackpoint>
            <Time>2019-08-02T11:29:30.000Z</Time>
            <Position>
              <LatitudeDegrees>40.95490803010761737823486328125</LatitudeDegrees>
              <LongitudeDegrees>-4.19076575897634029388427734375</LongitudeDegrees>
            </Position>
            <AltitudeMeters>916.79998779296875</AltitudeMeters>
            <DistanceMeters>117958.29580924</DistanceMeters>
          </Trackpoint>
          <Trackpoint>
            <Time>2019-08-02T11:29:34.000Z</Time>
            <Position>
              <LatitudeDegrees>40.95499168150126934051513671875</LatitudeDegrees>
              <LongitudeDegrees>-4.19097094796597957611083984375</LongitudeDegrees>
            </Position>
            <AltitudeMeters>916.4000244140625</AltitudeMeters>
            <DistanceMeters>117977.89620649</DistanceMeters>
          </Trackpoint>
          <Trackpoint>
            <Time>2019-08-02T11:29:40.000Z</Time>
            <Position>
              <LatitudeDegrees>40.9552226029336452484130859375</LatitudeDegrees>
              <LongitudeDegrees>-4.191201366484165191650390625</LongitudeDegrees>
            </Position>
            <AltitudeMeters>915.79998779296875</AltitudeMeters>
            <DistanceMeters>118010.07899238</DistanceMeters>
          </Trackpoint>
          <Trackpoint>
            <Time>2019-08-02T11:29:48.000Z</Time>
            <Position>
              <LatitudeDegrees>40.955629460513591766357421875</LatitudeDegrees>
              <LongitudeDegrees>-4.19140529818832874298095703125</LongitudeDegrees>
            </Position>
            <AltitudeMeters>917.79998779296875</AltitudeMeters>
            <DistanceMeters>118058.49899659</DistanceMeters>
          </Trackpoint>
          <Trackpoint>
            <Time>2019-08-02T11:29:50.000Z</Time>
            <Position>
              <LatitudeDegrees>40.95572702586650848388671875</LatitudeDegrees>
              <LongitudeDegrees>-4.191467575728893280029296875</LongitudeDegrees>
            </Position>
            <AltitudeMeters>918.79998779296875</AltitudeMeters>
            <DistanceMeters>118070.55428797</DistanceMeters>
          </Trackpoint>
          <Trackpoint>
            <Time>2019-08-02T11:29:51.000Z</Time>
            <Position>
              <LatitudeDegrees>40.95577505417168140411376953125</LatitudeDegrees>
              <LongitudeDegrees>-4.1914908774197101593017578125</LongitudeDegrees>
            </Position>
            <AltitudeMeters>919.20001220703125</AltitudeMeters>
            <DistanceMeters>118076.24796643</DistanceMeters>
          </Trackpoint>
          <Trackpoint>
            <Time>2019-08-02T11:29:54.000Z</Time>
            <Position>
              <LatitudeDegrees>40.9559055604040622711181640625</LatitudeDegrees>
              <LongitudeDegrees>-4.1915619559586048126220703125</LongitudeDegrees>
            </Position>
            <AltitudeMeters>920.5999755859375</AltitudeMeters>
            <DistanceMeters>118091.95441919</DistanceMeters>
          </Trackpoint>
          <Trackpoint>
            <Time>2019-08-02T11:29:58.000Z</Time>
            <Position>
              <LatitudeDegrees>40.95605291426181793212890625</LatitudeDegrees>
              <LongitudeDegrees>-4.19171291403472423553466796875</LongitudeDegrees>
            </Position>
            <AltitudeMeters>921.5999755859375</AltitudeMeters>
            <DistanceMeters>118112.69072022</DistanceMeters>
          </Trackpoint>
          <Trackpoint>
            <Time>2019-08-02T11:30:00.000Z</Time>
            <Position>
              <LatitudeDegrees>40.95612374134361743927001953125</LatitudeDegrees>
              <LongitudeDegrees>-4.1918033547699451446533203125</LongitudeDegrees>
            </Position>
            <AltitudeMeters>922.79998779296875</AltitudeMeters>
            <DistanceMeters>118123.64231715</DistanceMeters>
          </Trackpoint>
          <Trackpoint>
            <Time>2019-08-02T11:30:04.000Z</Time>
            <Position>
              <LatitudeDegrees>40.9562669880688190460205078125</LatitudeDegrees>
              <LongitudeDegrees>-4.19198817573487758636474609375</LongitudeDegrees>
            </Position>
            <AltitudeMeters>923.79998779296875</AltitudeMeters>
            <DistanceMeters>118145.9029208</DistanceMeters>
          </Trackpoint>
          <Trackpoint>
            <Time>2019-08-02T11:30:13.000Z</Time>
            <Position>
              <LatitudeDegrees>40.956652723252773284912109375</LatitudeDegrees>
              <LongitudeDegrees>-4.1924893297255039215087890625</LongitudeDegrees>
            </Position>
            <AltitudeMeters>924</AltitudeMeters>
            <DistanceMeters>118206.05085265</DistanceMeters>
          </Trackpoint>
          <Trackpoint>
            <Time>2019-08-02T11:30:20.000Z</Time>
            <Position>
              <LatitudeDegrees>40.95703954808413982391357421875</LatitudeDegrees>
              <LongitudeDegrees>-4.19300825335085391998291015625</LongitudeDegrees>
            </Position>
            <AltitudeMeters>924.4000244140625</AltitudeMeters>
            <DistanceMeters>118267.3391791</DistanceMeters>
          </Trackpoint>
          <Trackpoint>
            <Time>2019-08-02T11:30:27.000Z</Time>
            <Position>
              <LatitudeDegrees>40.9574189968407154083251953125</LatitudeDegrees>
              <LongitudeDegrees>-4.1935209743678569793701171875</LongitudeDegrees>
            </Position>
            <AltitudeMeters>924.5999755859375</AltitudeMeters>
            <DistanceMeters>118327.6798707</DistanceMeters>
          </Trackpoint>
          <Trackpoint>
            <Time>2019-08-02T11:30:29.000Z</Time>
            <Position>
              <LatitudeDegrees>40.95751471817493438720703125</LatitudeDegrees>
              <LongitudeDegrees>-4.19365298934280872344970703125</LongitudeDegrees>
            </Position>
            <AltitudeMeters>924.79998779296875</AltitudeMeters>
            <DistanceMeters>118343.06304928</DistanceMeters>
          </Trackpoint>
          <Trackpoint>
            <Time>2019-08-02T11:30:32.000Z</Time>
            <Position>
              <LatitudeDegrees>40.9576298855245113372802734375</LatitudeDegrees>
              <LongitudeDegrees>-4.1938777081668376922607421875</LongitudeDegrees>
            </Position>
            <AltitudeMeters>925</AltitudeMeters>
            <DistanceMeters>118365.89043615</DistanceMeters>
          </Trackpoint>
          <Trackpoint>
            <Time>2019-08-02T11:30:41.000Z</Time>
            <Position>
              <LatitudeDegrees>40.9577626548707485198974609375</LatitudeDegrees>
              <LongitudeDegrees>-4.1946220211684703826904296875</LongitudeDegrees>
            </Position>
            <AltitudeMeters>925.4000244140625</AltitudeMeters>
            <DistanceMeters>118430.17479687</DistanceMeters>
          </Trackpoint>
          <Trackpoint>
            <Time>2019-08-02T11:30:47.000Z</Time>
            <Position>
              <LatitudeDegrees>40.95783197320997714996337890625</LatitudeDegrees>
              <LongitudeDegrees>-4.19507640413939952850341796875</LongitudeDegrees>
            </Position>
            <AltitudeMeters>925</AltitudeMeters>
            <DistanceMeters>118469.13911032</DistanceMeters>
          </Trackpoint>
          <Trackpoint>
            <Time>2019-08-02T11:30:53.000Z</Time>
            <Position>
              <LatitudeDegrees>40.9580405987799167633056640625</LatitudeDegrees>
              <LongitudeDegrees>-4.1951903142035007476806640625</LongitudeDegrees>
            </Position>
            <AltitudeMeters>924.20001220703125</AltitudeMeters>
            <DistanceMeters>118494.25602097</DistanceMeters>
          </Trackpoint>
          <Trackpoint>
            <Time>2019-08-02T11:30:55.000Z</Time>
            <Position>
              <LatitudeDegrees>40.958115868270397186279296875</LatitudeDegrees>
              <LongitudeDegrees>-4.19520087540149688720703125</LongitudeDegrees>
            </Position>
            <AltitudeMeters>924</AltitudeMeters>
            <DistanceMeters>118502.67969835</DistanceMeters>
          </Trackpoint>
          <Trackpoint>
            <Time>2019-08-02T11:31:10.000Z</Time>
            <Position>
              <LatitudeDegrees>40.95864384435117244720458984375</LatitudeDegrees>
              <LongitudeDegrees>-4.1952999494969844818115234375</LongitudeDegrees>
            </Position>
            <AltitudeMeters>923.5999755859375</AltitudeMeters>
            <DistanceMeters>118562.03162234</DistanceMeters>
          </Trackpoint>
          <Trackpoint>
            <Time>2019-08-02T11:31:15.000Z</Time>
            <Position>
              <LatitudeDegrees>40.95876186154782772064208984375</LatitudeDegrees>
              <LongitudeDegrees>-4.19549851678311824798583984375</LongitudeDegrees>
            </Position>
            <AltitudeMeters>923</AltitudeMeters>
            <DistanceMeters>118583.27089019</DistanceMeters>
          </Trackpoint>
          <Trackpoint>
            <Time>2019-08-02T11:31:18.000Z</Time>
            <Position>
              <LatitudeDegrees>40.9588412381708621978759765625</LatitudeDegrees>
              <LongitudeDegrees>-4.1956342197954654693603515625</LongitudeDegrees>
            </Position>
            <AltitudeMeters>922.79998779296875</AltitudeMeters>
            <DistanceMeters>118597.69806116</DistanceMeters>
          </Trackpoint>
          <Trackpoint>
            <Time>2019-08-02T11:31:30.000Z</Time>
            <Position>
              <LatitudeDegrees>40.95918933860957622528076171875</LatitudeDegrees>
              <LongitudeDegrees>-4.196208380162715911865234375</LongitudeDegrees>
            </Position>
            <AltitudeMeters>924</AltitudeMeters>
            <DistanceMeters>118659.58613766</DistanceMeters>
          </Trackpoint>
          <Trackpoint>
            <Time>2019-08-02T11:31:38.000Z</Time>
            <Position>
              <LatitudeDegrees>40.9594397060573101043701171875</LatitudeDegrees>
              <LongitudeDegrees>-4.19660408981144428253173828125</LongitudeDegrees>
            </Position>
            <AltitudeMeters>924.4000244140625</AltitudeMeters>
            <DistanceMeters>118702.97725425</DistanceMeters>
          </Trackpoint>
          <Trackpoint>
            <Time>2019-08-02T11:31:45.000Z</Time>
            <Position>
              <LatitudeDegrees>40.95964682288467884063720703125</LatitudeDegrees>
              <LongitudeDegrees>-4.19693366624414920806884765625</LongitudeDegrees>
            </Position>
            <AltitudeMeters>925.4000244140625</AltitudeMeters>
            <DistanceMeters>118739.01606521</DistanceMeters>
          </Trackpoint>
          <Trackpoint>
            <Time>2019-08-02T11:31:47.000Z</Time>
            <Position>
              <LatitudeDegrees>40.95972619950771331787109375</LatitudeDegrees>
              <LongitudeDegrees>-4.197031147778034210205078125</LongitudeDegrees>
            </Position>
            <AltitudeMeters>925.79998779296875</AltitudeMeters>
            <DistanceMeters>118751.06536266</DistanceMeters>
          </Trackpoint>
          <Trackpoint>
            <Time>2019-08-02T11:31:50.000Z</Time>
            <Position>
              <LatitudeDegrees>40.959869362413883209228515625</LatitudeDegrees>
              <LongitudeDegrees>-4.19706995598971843719482421875</LongitudeDegrees>
            </Position>
            <AltitudeMeters>926.4000244140625</AltitudeMeters>
            <DistanceMeters>118767.33020571</DistanceMeters>
          </Trackpoint>
          <Trackpoint>
            <Time>2019-08-02T11:31:51.000Z</Time>
            <Position>
              <LatitudeDegrees>40.9598956815898418426513671875</LatitudeDegrees>
              <LongitudeDegrees>-4.1970527730882167816162109375</LongitudeDegrees>
            </Position>
            <AltitudeMeters>926.4000244140625</AltitudeMeters>
            <DistanceMeters>118770.59586342</DistanceMeters>
          </Trackpoint>
          <Trackpoint>
            <Time>2019-08-02T11:31:58.000Z</Time>
            <Position>
              <LatitudeDegrees>40.9600700251758098602294921875</LatitudeDegrees>
              <LongitudeDegrees>-4.1968643479049205780029296875</LongitudeDegrees>
            </Position>
            <AltitudeMeters>927.20001220703125</AltitudeMeters>
            <DistanceMeters>118795.64329025</DistanceMeters>
          </Trackpoint>
          <Trackpoint>
            <Time>2019-08-02T11:31:59.000Z</Time>
            <Position>
              <LatitudeDegrees>40.9600666724145412445068359375</LatitudeDegrees>
              <LongitudeDegrees>-4.196807853877544403076171875</LongitudeDegrees>
            </Position>
            <AltitudeMeters>927.4000244140625</AltitudeMeters>
            <DistanceMeters>118800.40601553</DistanceMeters>
          </Trackpoint>
          <Trackpoint>
            <Time>2019-08-02T11:32:04.000Z</Time>
            <Position>
              <LatitudeDegrees>40.95998444594442844390869140625</LatitudeDegrees>
              <LongitudeDegrees>-4.19657827354967594146728515625</LongitudeDegrees>
            </Position>
            <AltitudeMeters>928.4000244140625</AltitudeMeters>
            <DistanceMeters>118821.76315067</DistanceMeters>
          </Trackpoint>
          <Trackpoint>
            <Time>2019-08-02T11:32:14.000Z</Time>
            <Position>
              <LatitudeDegrees>40.95973785035312175750732421875</LatitudeDegrees>
              <LongitudeDegrees>-4.19615800492465496063232421875</LongitudeDegrees>
            </Position>
            <AltitudeMeters>926.4000244140625</AltitudeMeters>
            <DistanceMeters>118866.49702061</DistanceMeters>
          </Trackpoint>
          <Trackpoint>
            <Time>2019-08-02T11:32:24.000Z</Time>
            <Position>
              <LatitudeDegrees>40.9594557993113994598388671875</LatitudeDegrees>
              <LongitudeDegrees>-4.19570789672434329986572265625</LongitudeDegrees>
            </Position>
            <AltitudeMeters>925.20001220703125</AltitudeMeters>
            <DistanceMeters>118915.65817082</DistanceMeters>
          </Trackpoint>
          <Trackpoint>
            <Time>2019-08-02T11:32:29.000Z</Time>
            <Position>
              <LatitudeDegrees>40.95930509269237518310546875</LatitudeDegrees>
              <LongitudeDegrees>-4.1954752989113330841064453125</LongitudeDegrees>
            </Position>
            <AltitudeMeters>924.4000244140625</AltitudeMeters>
            <DistanceMeters>118941.41829888</DistanceMeters>
          </Trackpoint>
          <Trackpoint>
            <Time>2019-08-02T11:32:36.000Z</Time>
            <Position>
              <LatitudeDegrees>40.95907484181225299835205078125</LatitudeDegrees>
              <LongitudeDegrees>-4.19513105414807796478271484375</LongitudeDegrees>
            </Position>
            <AltitudeMeters>923.20001220703125</AltitudeMeters>
            <DistanceMeters>118980.07023243</DistanceMeters>
          </Trackpoint>
          <Trackpoint>
            <Time>2019-08-02T11:32:41.000Z</Time>
            <Position>
              <LatitudeDegrees>40.95891608856618404388427734375</LatitudeDegrees>
              <LongitudeDegrees>-4.194884039461612701416015625</LongitudeDegrees>
            </Position>
            <AltitudeMeters>922.20001220703125</AltitudeMeters>
            <DistanceMeters>119007.33346137</DistanceMeters>
          </Trackpoint>
          <Trackpoint>
            <Time>2019-08-02T11:32:46.000Z</Time>
            <Position>
              <LatitudeDegrees>40.9587691538035869598388671875</LatitudeDegrees>
              <LongitudeDegrees>-4.19465362094342708587646484375</LongitudeDegrees>
            </Position>
            <AltitudeMeters>921.20001220703125</AltitudeMeters>
            <DistanceMeters>119032.68227159</DistanceMeters>
          </Trackpoint>
          <Trackpoint>
            <Time>2019-08-02T11:32:56.000Z</Time>
            <Position>
              <LatitudeDegrees>40.9584828279912471771240234375</LatitudeDegrees>
              <LongitudeDegrees>-4.19419647194445133209228515625</LongitudeDegrees>
            </Position>
            <AltitudeMeters>920.20001220703125</AltitudeMeters>
            <DistanceMeters>119082.6030526</DistanceMeters>
          </Trackpoint>
          <Trackpoint>
            <Time>2019-08-02T11:33:06.000Z</Time>
            <Position>
              <LatitudeDegrees>40.95821653492748737335205078125</LatitudeDegrees>
              <LongitudeDegrees>-4.19379062019288539886474609375</LongitudeDegrees>
            </Position>
            <AltitudeMeters>919</AltitudeMeters>
            <DistanceMeters>119127.79362582</DistanceMeters>
          </Trackpoint>
          <Trackpoint>
            <Time>2019-08-02T11:33:07.000Z</Time>
            <Position>
              <LatitudeDegrees>40.95821083523333072662353515625</LatitudeDegrees>
              <LongitudeDegrees>-4.1937476210296154022216796875</LongitudeDegrees>
            </Position>
            <AltitudeMeters>919</AltitudeMeters>
            <DistanceMeters>119131.46170623</DistanceMeters>
          </Trackpoint>
          <Trackpoint>
            <Time>2019-08-02T11:33:12.000Z</Time>
            <Position>
              <LatitudeDegrees>40.95833086408674716949462890625</LatitudeDegrees>
              <LongitudeDegrees>-4.19371518306434154510498046875</LongitudeDegrees>
            </Position>
            <AltitudeMeters>917.79998779296875</AltitudeMeters>
            <DistanceMeters>119145.09696361</DistanceMeters>
          </Trackpoint>
          <Trackpoint>
            <Time>2019-08-02T11:33:25.000Z</Time>
            <Position>
              <LatitudeDegrees>40.95885314047336578369140625</LatitudeDegrees>
              <LongitudeDegrees>-4.19407627545297145843505859375</LongitudeDegrees>
            </Position>
            <AltitudeMeters>918.4000244140625</AltitudeMeters>
            <DistanceMeters>119210.67386575</DistanceMeters>
          </Trackpoint>
          <Trackpoint>
            <Time>2019-08-02T11:33:28.000Z</Time>
            <Position>
              <LatitudeDegrees>40.95899135805666446685791015625</LatitudeDegrees>
              <LongitudeDegrees>-4.194156490266323089599609375</LongitudeDegrees>
            </Position>
            <AltitudeMeters>919</AltitudeMeters>
            <DistanceMeters>119227.47049275</DistanceMeters>
          </Trackpoint>
          <Trackpoint>
            <Time>2019-08-02T11:33:33.000Z</Time>
            <Position>
              <LatitudeDegrees>40.95923124812543392181396484375</LatitudeDegrees>
              <LongitudeDegrees>-4.19428045861423015594482421875</LongitudeDegrees>
            </Position>
            <AltitudeMeters>920.20001220703125</AltitudeMeters>
            <DistanceMeters>119256.13203692</DistanceMeters>
          </Trackpoint>
          <Trackpoint>
            <Time>2019-08-02T11:33:39.000Z</Time>
            <Position>
              <LatitudeDegrees>40.95953819341957569122314453125</LatitudeDegrees>
              <LongitudeDegrees>-4.194401912391185760498046875</LongitudeDegrees>
            </Position>
            <AltitudeMeters>921.4000244140625</AltitudeMeters>
            <DistanceMeters>119291.78833444</DistanceMeters>
          </Trackpoint>
          <Trackpoint>
            <Time>2019-08-02T11:33:43.000Z</Time>
            <Position>
              <LatitudeDegrees>40.959745980799198150634765625</LatitudeDegrees>
              <LongitudeDegrees>-4.1944701410830020904541015625</LongitudeDegrees>
            </Position>
            <AltitudeMeters>923</AltitudeMeters>
            <DistanceMeters>119315.61598699</DistanceMeters>
          </Trackpoint>
          <Trackpoint>
            <Time>2019-08-02T11:33:54.000Z</Time>
            <Position>
              <LatitudeDegrees>40.96032969653606414794921875</LatitudeDegrees>
              <LongitudeDegrees>-4.194582961499691009521484375</LongitudeDegrees>
            </Position>
            <AltitudeMeters>923.5999755859375</AltitudeMeters>
            <DistanceMeters>119381.27305161</DistanceMeters>
          </Trackpoint>
          <Trackpoint>
            <Time>2019-08-02T11:34:05.000Z</Time>
            <Position>
              <LatitudeDegrees>40.96091383136808872222900390625</LatitudeDegrees>
              <LongitudeDegrees>-4.1946548782289028167724609375</LongitudeDegrees>
            </Position>
            <AltitudeMeters>923.20001220703125</AltitudeMeters>
            <DistanceMeters>119446.56878296</DistanceMeters>
          </Trackpoint>
          <Trackpoint>
            <Time>2019-08-02T11:34:16.000Z</Time>
            <Position>
              <LatitudeDegrees>40.96146971918642520904541015625</LatitudeDegrees>
              <LongitudeDegrees>-4.1947172395884990692138671875</LongitudeDegrees>
            </Position>
            <AltitudeMeters>923.4000244140625</AltitudeMeters>
            <DistanceMeters>119508.66174246</DistanceMeters>
          </Trackpoint>
          <Trackpoint>
            <Time>2019-08-02T11:34:27.000Z</Time>
            <Position>
              <LatitudeDegrees>40.962039940059185028076171875</LatitudeDegrees>
              <LongitudeDegrees>-4.1947809420526027679443359375</LongitudeDegrees>
            </Position>
            <AltitudeMeters>924</AltitudeMeters>
            <DistanceMeters>119572.35388955</DistanceMeters>
          </Trackpoint>
          <Trackpoint>
            <Time>2019-08-02T11:34:38.000Z</Time>
            <Position>
              <LatitudeDegrees>40.96261049620807170867919921875</LatitudeDegrees>
              <LongitudeDegrees>-4.1948503442108631134033203125</LongitudeDegrees>
            </Position>
            <AltitudeMeters>922.5999755859375</AltitudeMeters>
            <DistanceMeters>119636.1253115</DistanceMeters>
          </Trackpoint>
          <Trackpoint>
            <Time>2019-08-02T11:34:49.000Z</Time>
            <Position>
              <LatitudeDegrees>40.96317820250988006591796875</LatitudeDegrees>
              <LongitudeDegrees>-4.19491547159850597381591796875</LongitudeDegrees>
            </Position>
            <AltitudeMeters>922.79998779296875</AltitudeMeters>
            <DistanceMeters>119699.5487918</DistanceMeters>
          </Trackpoint>
          <Trackpoint>
            <Time>2019-08-02T11:34:51.000Z</Time>
            <Position>
              <LatitudeDegrees>40.96328012645244598388671875</LatitudeDegrees>
              <LongitudeDegrees>-4.19492997229099273681640625</LongitudeDegrees>
            </Position>
            <AltitudeMeters>922.4000244140625</AltitudeMeters>
            <DistanceMeters>119710.95793515</DistanceMeters>
          </Trackpoint>
          <Trackpoint>
            <Time>2019-08-02T11:34:57.000Z</Time>
            <Position>
              <LatitudeDegrees>40.9635837189853191375732421875</LatitudeDegrees>
              <LongitudeDegrees>-4.1949670203030109405517578125</LongitudeDegrees>
            </Position>
            <AltitudeMeters>921.4000244140625</AltitudeMeters>
            <DistanceMeters>119744.89165419</DistanceMeters>
          </Trackpoint>
          <Trackpoint>
            <Time>2019-08-02T11:35:03.000Z</Time>
            <Position>
              <LatitudeDegrees>40.96388722769916057586669921875</LatitudeDegrees>
              <LongitudeDegrees>-4.1950003802776336669921875</LongitudeDegrees>
            </Position>
            <AltitudeMeters>920</AltitudeMeters>
            <DistanceMeters>119778.78916305</DistanceMeters>
          </Trackpoint>
          <Trackpoint>
            <Time>2019-08-02T11:35:15.000Z</Time>
            <Position>
              <LatitudeDegrees>40.96446876414120197296142578125</LatitudeDegrees>
              <LongitudeDegrees>-4.19506299309432506561279296875</LongitudeDegrees>
            </Position>
            <AltitudeMeters>919.20001220703125</AltitudeMeters>
            <DistanceMeters>119843.72892068</DistanceMeters>
          </Trackpoint>
          <Trackpoint>
            <Time>2019-08-02T11:35:26.000Z</Time>
            <Position>
              <LatitudeDegrees>40.96501140855252742767333984375</LatitudeDegrees>
              <LongitudeDegrees>-4.19512703083455562591552734375</LongitudeDegrees>
            </Position>
            <AltitudeMeters>921</AltitudeMeters>
            <DistanceMeters>119904.36571954</DistanceMeters>
          </Trackpoint>
          <Trackpoint>
            <Time>2019-08-02T11:35:37.000Z</Time>
            <Position>
              <LatitudeDegrees>40.9655910171568393707275390625</LatitudeDegrees>
              <LongitudeDegrees>-4.1952181421220302581787109375</LongitudeDegrees>
            </Position>
            <AltitudeMeters>920.20001220703125</AltitudeMeters>
            <DistanceMeters>119969.3301544</DistanceMeters>
          </Trackpoint>
          <Trackpoint>
            <Time>2019-08-02T11:35:48.000Z</Time>
            <Position>
              <LatitudeDegrees>40.96614615060389041900634765625</LatitudeDegrees>
              <LongitudeDegrees>-4.195400364696979522705078125</LongitudeDegrees>
            </Position>
            <AltitudeMeters>920.4000244140625</AltitudeMeters>
            <DistanceMeters>120032.98727297</DistanceMeters>
          </Trackpoint>
          <Trackpoint>
            <Time>2019-08-02T11:35:59.000Z</Time>
            <Position>
              <LatitudeDegrees>40.96669047139585018157958984375</LatitudeDegrees>
              <LongitudeDegrees>-4.1956804879009723663330078125</LongitudeDegrees>
            </Position>
            <AltitudeMeters>921</AltitudeMeters>
            <DistanceMeters>120097.98471203</DistanceMeters>
          </Trackpoint>
          <Trackpoint>
            <Time>2019-08-02T11:36:02.000Z</Time>
            <Position>
              <LatitudeDegrees>40.96683095209300518035888671875</LatitudeDegrees>
              <LongitudeDegrees>-4.19577461667358875274658203125</LongitudeDegrees>
            </Position>
            <AltitudeMeters>921.5999755859375</AltitudeMeters>
            <DistanceMeters>120115.5075454</DistanceMeters>
          </Trackpoint>
          <Trackpoint>
            <Time>2019-08-02T11:36:09.000Z</Time>
            <Position>
              <LatitudeDegrees>40.96715063787996768951416015625</LatitudeDegrees>
              <LongitudeDegrees>-4.1960023529827594757080078125</LongitudeDegrees>
            </Position>
            <AltitudeMeters>922.5999755859375</AltitudeMeters>
            <DistanceMeters>120155.91021794</DistanceMeters>
          </Trackpoint>
          <Trackpoint>
            <Time>2019-08-02T11:36:14.000Z</Time>
            <Position>
              <LatitudeDegrees>40.96736387349665164947509765625</LatitudeDegrees>
              <LongitudeDegrees>-4.19618499465286731719970703125</LongitudeDegrees>
            </Position>
            <AltitudeMeters>923.79998779296875</AltitudeMeters>
            <DistanceMeters>120184.17487543</DistanceMeters>
          </Trackpoint>
          <Trackpoint>
            <Time>2019-08-02T11:36:24.000Z</Time>
            <Position>
              <LatitudeDegrees>40.967759750783443450927734375</LatitudeDegrees>
              <LongitudeDegrees>-4.19659336097538471221923828125</LongitudeDegrees>
            </Position>
            <AltitudeMeters>925.20001220703125</AltitudeMeters>
            <DistanceMeters>120240.02568999</DistanceMeters>
          </Trackpoint>
          <Trackpoint>
            <Time>2019-08-02T11:36:36.000Z</Time>
            <Position>
              <LatitudeDegrees>40.96819904632866382598876953125</LatitudeDegrees>
              <LongitudeDegrees>-4.19709317386150360107421875</LongitudeDegrees>
            </Position>
            <AltitudeMeters>926.20001220703125</AltitudeMeters>
            <DistanceMeters>120304.4857503</DistanceMeters>
          </Trackpoint>
          <Trackpoint>
            <Time>2019-08-02T11:36:48.000Z</Time>
            <Position>
              <LatitudeDegrees>40.9686192311346530914306640625</LatitudeDegrees>
              <LongitudeDegrees>-4.1975887119770050048828125</LongitudeDegrees>
            </Position>
            <AltitudeMeters>927</AltitudeMeters>
            <DistanceMeters>120367.10799457</DistanceMeters>
          </Trackpoint>
          <Trackpoint>
            <Time>2019-08-02T11:37:00.000Z</Time>
            <Position>
              <LatitudeDegrees>40.96904377453029155731201171875</LatitudeDegrees>
              <LongitudeDegrees>-4.19807964004576206207275390625</LongitudeDegrees>
            </Position>
            <AltitudeMeters>927.20001220703125</AltitudeMeters>
            <DistanceMeters>120429.83757524</DistanceMeters>
          </Trackpoint>
          <Trackpoint>
            <Time>2019-08-02T11:37:04.000Z</Time>
            <Position>
              <LatitudeDegrees>40.96918626688420772552490234375</LatitudeDegrees>
              <LongitudeDegrees>-4.19824794866144657135009765625</LongitudeDegrees>
            </Position>
            <AltitudeMeters>927.4000244140625</AltitudeMeters>
            <DistanceMeters>120451.08853176</DistanceMeters>
          </Trackpoint>
          <Trackpoint>
            <Time>2019-08-02T11:37:10.000Z</Time>
            <Position>
              <LatitudeDegrees>40.96937854774296283721923828125</LatitudeDegrees>
              <LongitudeDegrees>-4.1984803788363933563232421875</LongitudeDegrees>
            </Position>
            <AltitudeMeters>928.5999755859375</AltitudeMeters>
            <DistanceMeters>120480.0637337</DistanceMeters>
          </Trackpoint>
          <Trackpoint>
            <Time>2019-08-02T11:37:22.000Z</Time>
            <Position>
              <LatitudeDegrees>40.96980057656764984130859375</LatitudeDegrees>
              <LongitudeDegrees>-4.19897432439029216766357421875</LongitudeDegrees>
            </Position>
            <AltitudeMeters>928.4000244140625</AltitudeMeters>
            <DistanceMeters>120542.75011377</DistanceMeters>
          </Trackpoint>
          <Trackpoint>
            <Time>2019-08-02T11:37:27.000Z</Time>
            <Position>
              <LatitudeDegrees>40.96996486186981201171875</LatitudeDegrees>
              <LongitudeDegrees>-4.19917347840964794158935546875</LongitudeDegrees>
            </Position>
            <AltitudeMeters>927.79998779296875</AltitudeMeters>
            <DistanceMeters>120567.53879348</DistanceMeters>
          </Trackpoint>
          <Trackpoint>
            <Time>2019-08-02T11:37:34.000Z</Time>
            <Position>
              <LatitudeDegrees>40.9702070988714694976806640625</LatitudeDegrees>
              <LongitudeDegrees>-4.199457876384258270263671875</LongitudeDegrees>
            </Position>
            <AltitudeMeters>926.5999755859375</AltitudeMeters>
            <DistanceMeters>120603.56858295</DistanceMeters>
          </Trackpoint>
          <Trackpoint>
            <Time>2019-08-02T11:37:41.000Z</Time>
            <Position>
              <LatitudeDegrees>40.97046375274658203125</LatitudeDegrees>
              <LongitudeDegrees>-4.19975250028073787689208984375</LongitudeDegrees>
            </Position>
            <AltitudeMeters>925.5999755859375</AltitudeMeters>
            <DistanceMeters>120641.3716623</DistanceMeters>
          </Trackpoint>
          <Trackpoint>
            <Time>2019-08-02T11:37:53.000Z</Time>
            <Position>
              <LatitudeDegrees>40.9708863683044910430908203125</LatitudeDegrees>
              <LongitudeDegrees>-4.2002415843307971954345703125</LongitudeDegrees>
            </Position>
            <AltitudeMeters>925</AltitudeMeters>
            <DistanceMeters>120703.8369654</DistanceMeters>
          </Trackpoint>
          <Trackpoint>
            <Time>2019-08-02T11:38:06.000Z</Time>
            <Position>
              <LatitudeDegrees>40.9713175334036350250244140625</LatitudeDegrees>
              <LongitudeDegrees>-4.20075112022459506988525390625</LongitudeDegrees>
            </Position>
            <AltitudeMeters>925.20001220703125</AltitudeMeters>
            <DistanceMeters>120768.15299449</DistanceMeters>
          </Trackpoint>
          <Trackpoint>
            <Time>2019-08-02T11:38:18.000Z</Time>
            <Position>
              <LatitudeDegrees>40.97173822112381458282470703125</LatitudeDegrees>
              <LongitudeDegrees>-4.2012283019721508026123046875</LongitudeDegrees>
            </Position>
            <AltitudeMeters>925</AltitudeMeters>
            <DistanceMeters>120829.80131452</DistanceMeters>
          </Trackpoint>
          <Trackpoint>
            <Time>2019-08-02T11:38:30.000Z</Time>
            <Position>
              <LatitudeDegrees>40.9721905924379825592041015625</LatitudeDegrees>
              <LongitudeDegrees>-4.201651923358440399169921875</LongitudeDegrees>
            </Position>
            <AltitudeMeters>925.5999755859375</AltitudeMeters>
            <DistanceMeters>120891.46523241</DistanceMeters>
          </Trackpoint>
          <Trackpoint>
            <Time>2019-08-02T11:38:42.000Z</Time>
            <Position>
              <LatitudeDegrees>40.97268084995448589324951171875</LatitudeDegrees>
              <LongitudeDegrees>-4.20200086198747158050537109375</LongitudeDegrees>
            </Position>
            <AltitudeMeters>927.20001220703125</AltitudeMeters>
            <DistanceMeters>120953.41171823</DistanceMeters>
          </Trackpoint>
          <Trackpoint>
            <Time>2019-08-02T11:38:50.000Z</Time>
            <Position>
              <LatitudeDegrees>40.97301411442458629608154296875</LatitudeDegrees>
              <LongitudeDegrees>-4.20217788778245449066162109375</LongitudeDegrees>
            </Position>
            <AltitudeMeters>928.4000244140625</AltitudeMeters>
            <DistanceMeters>120993.37663749</DistanceMeters>
          </Trackpoint>
          <Trackpoint>
            <Time>2019-08-02T11:38:59.000Z</Time>
            <Position>
              <LatitudeDegrees>40.97340068779885768890380859375</LatitudeDegrees>
              <LongitudeDegrees>-4.20233010314404964447021484375</LongitudeDegrees>
            </Position>
            <AltitudeMeters>929.79998779296875</AltitudeMeters>
            <DistanceMeters>121038.26426403</DistanceMeters>
          </Trackpoint>
          <Trackpoint>
            <Time>2019-08-02T11:39:04.000Z</Time>
            <Position>
              <LatitudeDegrees>40.97362004220485687255859375</LatitudeDegrees>
              <LongitudeDegrees>-4.2024000920355319976806640625</LongitudeDegrees>
            </Position>
            <AltitudeMeters>930.79998779296875</AltitudeMeters>
            <DistanceMeters>121063.37739942</DistanceMeters>
          </Trackpoint>
          <Trackpoint>
            <Time>2019-08-02T11:39:11.000Z</Time>
            <Position>
              <LatitudeDegrees>40.973926149308681488037109375</LatitudeDegrees>
              <LongitudeDegrees>-4.20248466543853282928466796875</LongitudeDegrees>
            </Position>
            <AltitudeMeters>932</AltitudeMeters>
            <DistanceMeters>121098.18105518</DistanceMeters>
          </Trackpoint>
          <Trackpoint>
            <Time>2019-08-02T11:39:17.000Z</Time>
            <Position>
              <LatitudeDegrees>40.9741861559450626373291015625</LatitudeDegrees>
              <LongitudeDegrees>-4.2025553248822689056396484375</LongitudeDegrees>
            </Position>
            <AltitudeMeters>933.20001220703125</AltitudeMeters>
            <DistanceMeters>121127.72305576</DistanceMeters>
          </Trackpoint>
          <Trackpoint>
            <Time>2019-08-02T11:39:21.000Z</Time>
            <Position>
              <LatitudeDegrees>40.974361337721347808837890625</LatitudeDegrees>
              <LongitudeDegrees>-4.2026059515774250030517578125</LongitudeDegrees>
            </Position>
            <AltitudeMeters>934.20001220703125</AltitudeMeters>
            <DistanceMeters>121147.67979701</DistanceMeters>
          </Trackpoint>
          <Trackpoint>
            <Time>2019-08-02T11:39:33.000Z</Time>
            <Position>
              <LatitudeDegrees>40.9749083407223224639892578125</LatitudeDegrees>
              <LongitudeDegrees>-4.20275825075805187225341796875</LongitudeDegrees>
            </Position>
            <AltitudeMeters>934.79998779296875</AltitudeMeters>
            <DistanceMeters>121209.89298207</DistanceMeters>
          </Trackpoint>
          <Trackpoint>
            <Time>2019-08-02T11:39:36.000Z</Time>
            <Position>
              <LatitudeDegrees>40.9750424511730670928955078125</LatitudeDegrees>
              <LongitudeDegrees>-4.20279278419911861419677734375</LongitudeDegrees>
            </Position>
            <AltitudeMeters>935.5999755859375</AltitudeMeters>
            <DistanceMeters>121225.09933494</DistanceMeters>
          </Trackpoint>
          <Trackpoint>
            <Time>2019-08-02T11:39:46.000Z</Time>
            <Position>
              <LatitudeDegrees>40.9754793159663677215576171875</LatitudeDegrees>
              <LongitudeDegrees>-4.20291247777640819549560546875</LongitudeDegrees>
            </Position>
            <AltitudeMeters>936.79998779296875</AltitudeMeters>
            <DistanceMeters>121274.75258913</DistanceMeters>
          </Trackpoint>
          <Trackpoint>
            <Time>2019-08-02T11:39:54.000Z</Time>
            <Position>
              <LatitudeDegrees>40.9758283384144306182861328125</LatitudeDegrees>
              <LongitudeDegrees>-4.2030107975006103515625</LongitudeDegrees>
            </Position>
            <AltitudeMeters>938</AltitudeMeters>
            <DistanceMeters>121314.46818559</DistanceMeters>
          </Trackpoint>
          <Trackpoint>
            <Time>2019-08-02T11:40:06.000Z</Time>
            <Position>
              <LatitudeDegrees>40.97635715268552303314208984375</LatitudeDegrees>
              <LongitudeDegrees>-4.2031648568809032440185546875</LongitudeDegrees>
            </Position>
            <AltitudeMeters>938</AltitudeMeters>
            <DistanceMeters>121374.73303103</DistanceMeters>
          </Trackpoint>
          <Trackpoint>
            <Time>2019-08-02T11:40:19.000Z</Time>
            <Position>
              <LatitudeDegrees>40.97692427225410938262939453125</LatitudeDegrees>
              <LongitudeDegrees>-4.20332134701311588287353515625</LongitudeDegrees>
            </Position>
            <AltitudeMeters>938</AltitudeMeters>
            <DistanceMeters>121439.20975965</DistanceMeters>
          </Trackpoint>
          <Trackpoint>
            <Time>2019-08-02T11:40:31.000Z</Time>
            <Position>
              <LatitudeDegrees>40.9774685092270374298095703125</LatitudeDegrees>
              <LongitudeDegrees>-4.20347238890826702117919921875</LongitudeDegrees>
            </Position>
            <AltitudeMeters>939.4000244140625</AltitudeMeters>
            <DistanceMeters>121501.09980591</DistanceMeters>
          </Trackpoint>
          <Trackpoint>
            <Time>2019-08-02T11:40:33.000Z</Time>
            <Position>
              <LatitudeDegrees>40.97756129689514636993408203125</LatitudeDegrees>
              <LongitudeDegrees>-4.203499294817447662353515625</LongitudeDegrees>
            </Position>
            <AltitudeMeters>939.4000244140625</AltitudeMeters>
            <DistanceMeters>121511.67171473</DistanceMeters>
          </Trackpoint>
          <Trackpoint>
            <Time>2019-08-02T11:40:44.000Z</Time>
            <Position>
              <LatitudeDegrees>40.97809874452650547027587890625</LatitudeDegrees>
              <LongitudeDegrees>-4.20365042053163051605224609375</LongitudeDegrees>
            </Position>
            <AltitudeMeters>938.79998779296875</AltitudeMeters>
            <DistanceMeters>121572.82374967</DistanceMeters>
          </Trackpoint>
          <Trackpoint>
            <Time>2019-08-02T11:40:45.000Z</Time>
            <Position>
              <LatitudeDegrees>40.9781496226787567138671875</LatitudeDegrees>
              <LongitudeDegrees>-4.203665256500244140625</LongitudeDegrees>
            </Position>
            <AltitudeMeters>938.5999755859375</AltitudeMeters>
            <DistanceMeters>121578.62193685</DistanceMeters>
          </Trackpoint>
          <Trackpoint>
            <Time>2019-08-02T11:40:56.000Z</Time>
            <Position>
              <LatitudeDegrees>40.9786879085004329681396484375</LatitudeDegrees>
              <LongitudeDegrees>-4.20381939969956874847412109375</LongitudeDegrees>
            </Position>
            <AltitudeMeters>938.4000244140625</AltitudeMeters>
            <DistanceMeters>121639.91829267</DistanceMeters>
          </Trackpoint>
          <Trackpoint>
            <Time>2019-08-02T11:41:07.000Z</Time>
            <Position>
              <LatitudeDegrees>40.97923315130174160003662109375</LatitudeDegrees>
              <LongitudeDegrees>-4.20398251153528690338134765625</LongitudeDegrees>
            </Position>
            <AltitudeMeters>938.4000244140625</AltitudeMeters>
            <DistanceMeters>121702.13343719</DistanceMeters>
          </Trackpoint>
          <Trackpoint>
            <Time>2019-08-02T11:41:17.000Z</Time>
            <Position>
              <LatitudeDegrees>40.97971913404762744903564453125</LatitudeDegrees>
              <LongitudeDegrees>-4.20411863364279270172119140625</LongitudeDegrees>
            </Position>
            <AltitudeMeters>938</AltitudeMeters>
            <DistanceMeters>121757.42045001</DistanceMeters>
          </Trackpoint>
          <Trackpoint>
            <Time>2019-08-02T11:41:29.000Z</Time>
            <Position>
              <LatitudeDegrees>40.980273596942424774169921875</LatitudeDegrees>
              <LongitudeDegrees>-4.20428073965013027191162109375</LongitudeDegrees>
            </Position>
            <AltitudeMeters>937.79998779296875</AltitudeMeters>
            <DistanceMeters>121820.61871637</DistanceMeters>
          </Trackpoint>
          <Trackpoint>
            <Time>2019-08-02T11:41:41.000Z</Time>
            <Position>
              <LatitudeDegrees>40.98082638345658779144287109375</LatitudeDegrees>
              <LongitudeDegrees>-4.2044412530958652496337890625</LongitudeDegrees>
            </Position>
            <AltitudeMeters>937.5999755859375</AltitudeMeters>
            <DistanceMeters>121883.60587495</DistanceMeters>
          </Trackpoint>
          <Trackpoint>
            <Time>2019-08-02T11:41:53.000Z</Time>
            <Position>
              <LatitudeDegrees>40.981389395892620086669921875</LatitudeDegrees>
              <LongitudeDegrees>-4.20459589920938014984130859375</LongitudeDegrees>
            </Position>
            <AltitudeMeters>937.4000244140625</AltitudeMeters>
            <DistanceMeters>121947.6033864</DistanceMeters>
          </Trackpoint>
          <Trackpoint>
            <Time>2019-08-02T11:41:56.000Z</Time>
            <Position>
              <LatitudeDegrees>40.9815307147800922393798828125</LatitudeDegrees>
              <LongitudeDegrees>-4.20463428832590579986572265625</LongitudeDegrees>
            </Position>
            <AltitudeMeters>937.4000244140625</AltitudeMeters>
            <DistanceMeters>121963.65980825</DistanceMeters>
          </Trackpoint>
          <Trackpoint>
            <Time>2019-08-02T11:42:05.000Z</Time>
            <Position>
              <LatitudeDegrees>40.98189524374902248382568359375</LatitudeDegrees>
              <LongitudeDegrees>-4.20473478734493255615234375</LongitudeDegrees>
            </Position>
            <AltitudeMeters>936.79998779296875</AltitudeMeters>
            <DistanceMeters>122005.10213394</DistanceMeters>
          </Trackpoint>
          <Trackpoint>
            <Time>2019-08-02T11:42:11.000Z</Time>
            <Position>
              <LatitudeDegrees>40.98215541802346706390380859375</LatitudeDegrees>
              <LongitudeDegrees>-4.20480142347514629364013671875</LongitudeDegrees>
            </Position>
            <AltitudeMeters>936.5999755859375</AltitudeMeters>
            <DistanceMeters>122034.59641159</DistanceMeters>
          </Trackpoint>
          <Trackpoint>
            <Time>2019-08-02T11:42:12.000Z</Time>
            <Position>
              <LatitudeDegrees>40.9821943938732147216796875</LatitudeDegrees>
              <LongitudeDegrees>-4.204816259443759918212890625</LongitudeDegrees>
            </Position>
            <AltitudeMeters>936.4000244140625</AltitudeMeters>
            <DistanceMeters>122039.10993045</DistanceMeters>
          </Trackpoint>
          <Trackpoint>
            <Time>2019-08-02T11:42:19.000Z</Time>
            <Position>
              <LatitudeDegrees>40.9824674762785434722900390625</LatitudeDegrees>
              <LongitudeDegrees>-4.2048942111432552337646484375</LongitudeDegrees>
            </Position>
            <AltitudeMeters>935.20001220703125</AltitudeMeters>
            <DistanceMeters>122070.2024042</DistanceMeters>
          </Trackpoint>
          <Trackpoint>
            <Time>2019-08-02T11:42:26.000Z</Time>
            <Position>
              <LatitudeDegrees>40.98273427225649356842041015625</LatitudeDegrees>
              <LongitudeDegrees>-4.20496369712054729461669921875</LongitudeDegrees>
            </Position>
            <AltitudeMeters>934.4000244140625</AltitudeMeters>
            <DistanceMeters>122100.46598848</DistanceMeters>
          </Trackpoint>
          <Trackpoint>
            <Time>2019-08-02T11:42:32.000Z</Time>
            <Position>
              <LatitudeDegrees>40.982960499823093414306640625</LatitudeDegrees>
              <LongitudeDegrees>-4.20502438209950923919677734375</LongitudeDegrees>
            </Position>
            <AltitudeMeters>933.20001220703125</AltitudeMeters>
            <DistanceMeters>122126.15661493</DistanceMeters>
          </Trackpoint>
          <Trackpoint>
            <Time>2019-08-02T11:42:40.000Z</Time>
            <Position>
              <LatitudeDegrees>40.98322863690555095672607421875</LatitudeDegrees>
              <LongitudeDegrees>-4.205104596912860870361328125</LongitudeDegrees>
            </Position>
            <AltitudeMeters>932.4000244140625</AltitudeMeters>
            <DistanceMeters>122156.75226567</DistanceMeters>
          </Trackpoint>
          <Trackpoint>
            <Time>2019-08-02T11:42:53.000Z</Time>
            <Position>
              <LatitudeDegrees>40.98377882502973079681396484375</LatitudeDegrees>
              <LongitudeDegrees>-4.20526762492954730987548828125</LongitudeDegrees>
            </Position>
            <AltitudeMeters>932.20001220703125</AltitudeMeters>
            <DistanceMeters>122219.50264403</DistanceMeters>
          </Trackpoint>
          <Trackpoint>
            <Time>2019-08-02T11:43:05.000Z</Time>
            <Position>
              <LatitudeDegrees>40.98431845195591449737548828125</LatitudeDegrees>
              <LongitudeDegrees>-4.2054262943565845489501953125</LongitudeDegrees>
            </Position>
            <AltitudeMeters>933.5999755859375</AltitudeMeters>
            <DistanceMeters>122281.02596548</DistanceMeters>
          </Trackpoint>
          <Trackpoint>
            <Time>2019-08-02T11:43:17.000Z</Time>
            <Position>
              <LatitudeDegrees>40.98485958762466907501220703125</LatitudeDegrees>
              <LongitudeDegrees>-4.20557607896625995635986328125</LongitudeDegrees>
            </Position>
            <AltitudeMeters>931.4000244140625</AltitudeMeters>
            <DistanceMeters>122342.55633173</DistanceMeters>
          </Trackpoint>
          <Trackpoint>
            <Time>2019-08-02T11:43:20.000Z</Time>
            <Position>
              <LatitudeDegrees>40.9849981404840946197509765625</LatitudeDegrees>
              <LongitudeDegrees>-4.2056210897862911224365234375</LongitudeDegrees>
            </Position>
            <AltitudeMeters>930.79998779296875</AltitudeMeters>
            <DistanceMeters>122358.43461042</DistanceMeters>
          </Trackpoint>
          <Trackpoint>
            <Time>2019-08-02T11:43:21.000Z</Time>
            <Position>
              <LatitudeDegrees>40.98504566587507724761962890625</LatitudeDegrees>
              <LongitudeDegrees>-4.205635674297809600830078125</LongitudeDegrees>
            </Position>
            <AltitudeMeters>930.5999755859375</AltitudeMeters>
            <DistanceMeters>122363.8652853</DistanceMeters>
          </Trackpoint>
          <Trackpoint>
            <Time>2019-08-02T11:43:32.000Z</Time>
            <Position>
              <LatitudeDegrees>40.9855764918029308319091796875</LatitudeDegrees>
              <LongitudeDegrees>-4.20582485385239124298095703125</LongitudeDegrees>
            </Position>
            <AltitudeMeters>930.20001220703125</AltitudeMeters>
            <DistanceMeters>122425.04802706</DistanceMeters>
          </Trackpoint>
          <Trackpoint>
            <Time>2019-08-02T11:43:35.000Z</Time>
            <Position>
              <LatitudeDegrees>40.985723845660686492919921875</LatitudeDegrees>
              <LongitudeDegrees>-4.20588277280330657958984375</LongitudeDegrees>
            </Position>
            <AltitudeMeters>929.4000244140625</AltitudeMeters>
            <DistanceMeters>122442.15547508</DistanceMeters>
          </Trackpoint>
          <Trackpoint>
            <Time>2019-08-02T11:43:44.000Z</Time>
            <Position>
              <LatitudeDegrees>40.986173115670680999755859375</LatitudeDegrees>
              <LongitudeDegrees>-4.20607614330947399139404296875</LongitudeDegrees>
            </Position>
            <AltitudeMeters>928.20001220703125</AltitudeMeters>
            <DistanceMeters>122494.73333622</DistanceMeters>
          </Trackpoint>
          <Trackpoint>
            <Time>2019-08-02T11:43:55.000Z</Time>
            <Position>
              <LatitudeDegrees>40.98672858439385890960693359375</LatitudeDegrees>
              <LongitudeDegrees>-4.2063422687351703643798828125</LongitudeDegrees>
            </Position>
            <AltitudeMeters>927.79998779296875</AltitudeMeters>
            <DistanceMeters>122560.47712748</DistanceMeters>
          </Trackpoint>
          <Trackpoint>
            <Time>2019-08-02T11:44:05.000Z</Time>
            <Position>
              <LatitudeDegrees>40.9872206859290599822998046875</LatitudeDegrees>
              <LongitudeDegrees>-4.20666706748306751251220703125</LongitudeDegrees>
            </Position>
            <AltitudeMeters>927.5999755859375</AltitudeMeters>
            <DistanceMeters>122621.6706425</DistanceMeters>
          </Trackpoint>
          <Trackpoint>
            <Time>2019-08-02T11:44:09.000Z</Time>
            <Position>
              <LatitudeDegrees>40.98741338588297367095947265625</LatitudeDegrees>
              <LongitudeDegrees>-4.20683034695684909820556640625</LongitudeDegrees>
            </Position>
            <AltitudeMeters>927.4000244140625</AltitudeMeters>
            <DistanceMeters>122647.13035474</DistanceMeters>
          </Trackpoint>
          <Trackpoint>
            <Time>2019-08-02T11:44:13.000Z</Time>
            <Position>
              <LatitudeDegrees>40.987604744732379913330078125</LatitudeDegrees>
              <LongitudeDegrees>-4.20699723064899444580078125</LongitudeDegrees>
            </Position>
            <AltitudeMeters>926.4000244140625</AltitudeMeters>
            <DistanceMeters>122672.62976031</DistanceMeters>
          </Trackpoint>
          <Trackpoint>
            <Time>2019-08-02T11:44:17.000Z</Time>
            <Position>
              <LatitudeDegrees>40.98778420127928256988525390625</LatitudeDegrees>
              <LongitudeDegrees>-4.2071697302162647247314453125</LongitudeDegrees>
            </Position>
            <AltitudeMeters>925.4000244140625</AltitudeMeters>
            <DistanceMeters>122697.3076327</DistanceMeters>
          </Trackpoint>
          <Trackpoint>
            <Time>2019-08-02T11:44:27.000Z</Time>
            <Position>
              <LatitudeDegrees>40.9882037155330181121826171875</LatitudeDegrees>
              <LongitudeDegrees>-4.20757549814879894256591796875</LongitudeDegrees>
            </Position>
            <AltitudeMeters>924.4000244140625</AltitudeMeters>
            <DistanceMeters>122755.12121722</DistanceMeters>
          </Trackpoint>
          <Trackpoint>
            <Time>2019-08-02T11:44:33.000Z</Time>
            <Position>
              <LatitudeDegrees>40.98844888620078563690185546875</LatitudeDegrees>
              <LongitudeDegrees>-4.20780281536281108856201171875</LongitudeDegrees>
            </Position>
            <AltitudeMeters>923.20001220703125</AltitudeMeters>
            <DistanceMeters>122788.42858895</DistanceMeters>
          </Trackpoint>
          <Trackpoint>
            <Time>2019-08-02T11:44:45.000Z</Time>
            <Position>
              <LatitudeDegrees>40.9889279119670391082763671875</LatitudeDegrees>
              <LongitudeDegrees>-4.20825577341020107269287109375</LongitudeDegrees>
            </Position>
            <AltitudeMeters>922.4000244140625</AltitudeMeters>
            <DistanceMeters>122853.93322652</DistanceMeters>
          </Trackpoint>
          <Trackpoint>
            <Time>2019-08-02T11:44:46.000Z</Time>
            <Position>
              <LatitudeDegrees>40.9889691509306430816650390625</LatitudeDegrees>
              <LongitudeDegrees>-4.2082939110696315765380859375</LongitudeDegrees>
            </Position>
            <AltitudeMeters>922.4000244140625</AltitudeMeters>
            <DistanceMeters>122859.53093724</DistanceMeters>
          </Trackpoint>
          <Trackpoint>
            <Time>2019-08-02T11:44:58.000Z</Time>
            <Position>
              <LatitudeDegrees>40.98944867961108684539794921875</LatitudeDegrees>
              <LongitudeDegrees>-4.20873773284256458282470703125</LongitudeDegrees>
            </Position>
            <AltitudeMeters>922.5999755859375</AltitudeMeters>
            <DistanceMeters>122924.63838501</DistanceMeters>
          </Trackpoint>
          <Trackpoint>
            <Time>2019-08-02T11:45:10.000Z</Time>
            <Position>
              <LatitudeDegrees>40.98992125131189823150634765625</LatitudeDegrees>
              <LongitudeDegrees>-4.20917308889329433441162109375</LongitudeDegrees>
            </Position>
            <AltitudeMeters>922.20001220703125</AltitudeMeters>
            <DistanceMeters>122988.70372982</DistanceMeters>
          </Trackpoint>
          <Trackpoint>
            <Time>2019-08-02T11:45:22.000Z</Time>
            <Position>
              <LatitudeDegrees>40.99039030261337757110595703125</LatitudeDegrees>
              <LongitudeDegrees>-4.20961582101881504058837890625</LongitudeDegrees>
            </Position>
            <AltitudeMeters>922.79998779296875</AltitudeMeters>
            <DistanceMeters>123052.80521837</DistanceMeters>
          </Trackpoint>
          <Trackpoint>
            <Time>2019-08-02T11:45:34.000Z</Time>
            <Position>
              <LatitudeDegrees>40.99085767753422260284423828125</LatitudeDegrees>
              <LongitudeDegrees>-4.21004111878573894500732421875</LongitudeDegrees>
            </Position>
            <AltitudeMeters>921.79998779296875</AltitudeMeters>
            <DistanceMeters>123115.91404696</DistanceMeters>
          </Trackpoint>
          <Trackpoint>
            <Time>2019-08-02T11:45:36.000Z</Time>
            <Position>
              <LatitudeDegrees>40.99093210883438587188720703125</LatitudeDegrees>
              <LongitudeDegrees>-4.21010951511561870574951171875</LongitudeDegrees>
            </Position>
            <AltitudeMeters>921.5999755859375</AltitudeMeters>
            <DistanceMeters>123125.99673512</DistanceMeters>
          </Trackpoint>
          <Trackpoint>
            <Time>2019-08-02T11:45:48.000Z</Time>
            <Position>
              <LatitudeDegrees>40.99138523451983928680419921875</LatitudeDegrees>
              <LongitudeDegrees>-4.21052525751292705535888671875</LongitudeDegrees>
            </Position>
            <AltitudeMeters>922.4000244140625</AltitudeMeters>
            <DistanceMeters>123187.34396831</DistanceMeters>
          </Trackpoint>
          <Trackpoint>
            <Time>2019-08-02T11:45:50.000Z</Time>
            <Position>
              <LatitudeDegrees>40.99146251566708087921142578125</LatitudeDegrees>
              <LongitudeDegrees>-4.21059667132794857025146484375</LongitudeDegrees>
            </Position>
            <AltitudeMeters>922.79998779296875</AltitudeMeters>
            <DistanceMeters>123197.83140513</DistanceMeters>
          </Trackpoint>
          <Trackpoint>
            <Time>2019-08-02T11:46:02.000Z</Time>
            <Position>
              <LatitudeDegrees>40.99190390668809413909912109375</LatitudeDegrees>
              <LongitudeDegrees>-4.21101258136332035064697265625</LongitudeDegrees>
            </Position>
            <AltitudeMeters>923</AltitudeMeters>
            <DistanceMeters>123258.11752407</DistanceMeters>
          </Trackpoint>
          <Trackpoint>
            <Time>2019-08-02T11:46:14.000Z</Time>
            <Position>
              <LatitudeDegrees>40.9923534281551837921142578125</LatitudeDegrees>
              <LongitudeDegrees>-4.21143435873091220855712890625</LongitudeDegrees>
            </Position>
            <AltitudeMeters>921.79998779296875</AltitudeMeters>
            <DistanceMeters>123319.42662161</DistanceMeters>
          </Trackpoint>
          <Trackpoint>
            <Time>2019-08-02T11:46:16.000Z</Time>
            <Position>
              <LatitudeDegrees>40.99243045784533023834228515625</LatitudeDegrees>
              <LongitudeDegrees>-4.2115061916410923004150390625</LongitudeDegrees>
            </Position>
            <AltitudeMeters>921.79998779296875</AltitudeMeters>
            <DistanceMeters>123329.91061371</DistanceMeters>
          </Trackpoint>
          <Trackpoint>
            <Time>2019-08-02T11:46:26.000Z</Time>
            <Position>
              <LatitudeDegrees>40.9928213059902191162109375</LatitudeDegrees>
              <LongitudeDegrees>-4.211868457496166229248046875</LongitudeDegrees>
            </Position>
            <AltitudeMeters>920.5999755859375</AltitudeMeters>
            <DistanceMeters>123383.00164018</DistanceMeters>
          </Trackpoint>
          <Trackpoint>
            <Time>2019-08-02T11:46:34.000Z</Time>
            <Position>
              <LatitudeDegrees>40.9931299276649951934814453125</LatitudeDegrees>
              <LongitudeDegrees>-4.21215335838496685028076171875</LongitudeDegrees>
            </Position>
            <AltitudeMeters>919.5999755859375</AltitudeMeters>
            <DistanceMeters>123424.86799921</DistanceMeters>
          </Trackpoint>
          <Trackpoint>
            <Time>2019-08-02T11:46:43.000Z</Time>
            <Position>
              <LatitudeDegrees>40.99349982105195522308349609375</LatitudeDegrees>
              <LongitudeDegrees>-4.21249299310147762298583984375</LongitudeDegrees>
            </Position>
            <AltitudeMeters>918.79998779296875</AltitudeMeters>
            <DistanceMeters>123474.95843632</DistanceMeters>
          </Trackpoint>
          <Trackpoint>
            <Time>2019-08-02T11:46:55.000Z</Time>
            <Position>
              <LatitudeDegrees>40.9939778409898281097412109375</LatitudeDegrees>
              <LongitudeDegrees>-4.21294159255921840667724609375</LongitudeDegrees>
            </Position>
            <AltitudeMeters>918</AltitudeMeters>
            <DistanceMeters>123540.15798177</DistanceMeters>
          </Trackpoint>
          <Trackpoint>
            <Time>2019-08-02T11:46:58.000Z</Time>
            <Position>
              <LatitudeDegrees>40.9940978698432445526123046875</LatitudeDegrees>
              <LongitudeDegrees>-4.21305424533784389495849609375</LongitudeDegrees>
            </Position>
            <AltitudeMeters>917.5999755859375</AltitudeMeters>
            <DistanceMeters>123556.52962582</DistanceMeters>
          </Trackpoint>
          <Trackpoint>
            <Time>2019-08-02T11:47:10.000Z</Time>
            <Position>
              <LatitudeDegrees>40.99457689560949802398681640625</LatitudeDegrees>
              <LongitudeDegrees>-4.21349488198757171630859375</LongitudeDegrees>
            </Position>
            <AltitudeMeters>917.20001220703125</AltitudeMeters>
            <DistanceMeters>123621.43648905</DistanceMeters>
          </Trackpoint>
          <Trackpoint>
            <Time>2019-08-02T11:47:21.000Z</Time>
            <Position>
              <LatitudeDegrees>40.99502633325755596160888671875</LatitudeDegrees>
              <LongitudeDegrees>-4.2139094509184360504150390625</LongitudeDegrees>
            </Position>
            <AltitudeMeters>917.4000244140625</AltitudeMeters>
            <DistanceMeters>123682.38929335</DistanceMeters>
          </Trackpoint>
          <Trackpoint>
            <Time>2019-08-02T11:47:32.000Z</Time>
            <Position>
              <LatitudeDegrees>40.9954771958291530609130859375</LatitudeDegrees>
              <LongitudeDegrees>-4.2143238522112369537353515625</LongitudeDegrees>
            </Position>
            <AltitudeMeters>917.4000244140625</AltitudeMeters>
            <DistanceMeters>123743.46412407</DistanceMeters>
          </Trackpoint>
          <Trackpoint>
            <Time>2019-08-02T11:47:44.000Z</Time>
            <Position>
              <LatitudeDegrees>40.99595739506185054779052734375</LatitudeDegrees>
              <LongitudeDegrees>-4.2147694341838359832763671875</LongitudeDegrees>
            </Position>
            <AltitudeMeters>917</AltitudeMeters>
            <DistanceMeters>123808.71530922</DistanceMeters>
          </Trackpoint>
          <Trackpoint>
            <Time>2019-08-02T11:47:49.000Z</Time>
            <Position>
              <LatitudeDegrees>40.996149592101573944091796875</LatitudeDegrees>
              <LongitudeDegrees>-4.2149531655013561248779296875</LongitudeDegrees>
            </Position>
            <AltitudeMeters>916.79998779296875</AltitudeMeters>
            <DistanceMeters>123835.09408157</DistanceMeters>
          </Trackpoint>
          <Trackpoint>
            <Time>2019-08-02T11:47:58.000Z</Time>
            <Position>
              <LatitudeDegrees>40.9964947588741779327392578125</LatitudeDegrees>
              <LongitudeDegrees>-4.21527720987796783447265625</LongitudeDegrees>
            </Position>
            <AltitudeMeters>915.79998779296875</AltitudeMeters>
            <DistanceMeters>123882.17845209</DistanceMeters>
          </Trackpoint>
          <Trackpoint>
            <Time>2019-08-02T11:48:07.000Z</Time>
            <Position>
              <LatitudeDegrees>40.99682961590588092803955078125</LatitudeDegrees>
              <LongitudeDegrees>-4.2155865021049976348876953125</LongitudeDegrees>
            </Position>
            <AltitudeMeters>914.79998779296875</AltitudeMeters>
            <DistanceMeters>123927.61125988</DistanceMeters>
          </Trackpoint>
          <Trackpoint>
            <Time>2019-08-02T11:48:20.000Z</Time>
            <Position>
              <LatitudeDegrees>40.9973000921308994293212890625</LatitudeDegrees>
              <LongitudeDegrees>-4.21602361835539340972900390625</LongitudeDegrees>
            </Position>
            <AltitudeMeters>913.79998779296875</AltitudeMeters>
            <DistanceMeters>123991.56769793</DistanceMeters>
          </Trackpoint>
          <Trackpoint>
            <Time>2019-08-02T11:48:22.000Z</Time>
            <Position>
              <LatitudeDegrees>40.997372008860111236572265625</LatitudeDegrees>
              <LongitudeDegrees>-4.21608991920948028564453125</LongitudeDegrees>
            </Position>
            <AltitudeMeters>913.5999755859375</AltitudeMeters>
            <DistanceMeters>124001.31893913</DistanceMeters>
          </Trackpoint>
          <Trackpoint>
            <Time>2019-08-02T11:48:27.000Z</Time>
            <Position>
              <LatitudeDegrees>40.99755180068314075469970703125</LatitudeDegrees>
              <LongitudeDegrees>-4.21626023948192596435546875</LongitudeDegrees>
            </Position>
            <AltitudeMeters>912.5999755859375</AltitudeMeters>
            <DistanceMeters>124025.91893106</DistanceMeters>
          </Trackpoint>
          <Trackpoint>
            <Time>2019-08-02T11:48:36.000Z</Time>
            <Position>
              <LatitudeDegrees>40.9978826344013214111328125</LatitudeDegrees>
              <LongitudeDegrees>-4.216571040451526641845703125</LongitudeDegrees>
            </Position>
            <AltitudeMeters>911.5999755859375</AltitudeMeters>
            <DistanceMeters>124071.05812078</DistanceMeters>
          </Trackpoint>
          <Trackpoint>
            <Time>2019-08-02T11:48:48.000Z</Time>
            <Position>
              <LatitudeDegrees>40.99833819083869457244873046875</LatitudeDegrees>
              <LongitudeDegrees>-4.21699441038072109222412109375</LongitudeDegrees>
            </Position>
            <AltitudeMeters>910.5999755859375</AltitudeMeters>
            <DistanceMeters>124132.99163151</DistanceMeters>
          </Trackpoint>
          <Trackpoint>
            <Time>2019-08-02T11:49:00.000Z</Time>
            <Position>
              <LatitudeDegrees>40.99879349581897258758544921875</LatitudeDegrees>
              <LongitudeDegrees>-4.21741669066250324249267578125</LongitudeDegrees>
            </Position>
            <AltitudeMeters>910.79998779296875</AltitudeMeters>
            <DistanceMeters>124194.84957031</DistanceMeters>
          </Trackpoint>
          <Trackpoint>
            <Time>2019-08-02T11:49:06.000Z</Time>
            <Position>
              <LatitudeDegrees>40.999024920165538787841796875</LatitudeDegrees>
              <LongitudeDegrees>-4.21762892045080661773681640625</LongitudeDegrees>
            </Position>
            <AltitudeMeters>910.4000244140625</AltitudeMeters>
            <DistanceMeters>124226.17525318</DistanceMeters>
          </Trackpoint>
          <Trackpoint>
            <Time>2019-08-02T11:49:17.000Z</Time>
            <Position>
              <LatitudeDegrees>40.999437309801578521728515625</LatitudeDegrees>
              <LongitudeDegrees>-4.21801582910120487213134765625</LongitudeDegrees>
            </Position>
            <AltitudeMeters>909.4000244140625</AltitudeMeters>
            <DistanceMeters>124282.41669988</DistanceMeters>
          </Trackpoint>
          <Trackpoint>
            <Time>2019-08-02T11:49:29.000Z</Time>
            <Position>
              <LatitudeDegrees>40.9998904354870319366455078125</LatitudeDegrees>
              <LongitudeDegrees>-4.218435846269130706787109375</LongitudeDegrees>
            </Position>
            <AltitudeMeters>909</AltitudeMeters>
            <DistanceMeters>124343.9665085</DistanceMeters>
          </Trackpoint>
          <Trackpoint>
            <Time>2019-08-02T11:49:41.000Z</Time>
            <Position>
              <LatitudeDegrees>41.00035588257014751434326171875</LatitudeDegrees>
              <LongitudeDegrees>-4.2188644967973232269287109375</LongitudeDegrees>
            </Position>
            <AltitudeMeters>909</AltitudeMeters>
            <DistanceMeters>124407.0558742</DistanceMeters>
          </Trackpoint>
          <Trackpoint>
            <Time>2019-08-02T11:49:53.000Z</Time>
            <Position>
              <LatitudeDegrees>41.00082325749099254608154296875</LatitudeDegrees>
              <LongitudeDegrees>-4.2192959971725940704345703125</LongitudeDegrees>
            </Position>
            <AltitudeMeters>908.79998779296875</AltitudeMeters>
            <DistanceMeters>124470.45799427</DistanceMeters>
          </Trackpoint>
          <Trackpoint>
            <Time>2019-08-02T11:50:01.000Z</Time>
            <Position>
              <LatitudeDegrees>41.00113372318446636199951171875</LatitudeDegrees>
              <LongitudeDegrees>-4.2195839993655681610107421875</LongitudeDegrees>
            </Position>
            <AltitudeMeters>908.4000244140625</AltitudeMeters>
            <DistanceMeters>124512.64000919</DistanceMeters>
          </Trackpoint>
          <Trackpoint>
            <Time>2019-08-02T11:50:11.000Z</Time>
            <Position>
              <LatitudeDegrees>41.001509986817836761474609375</LatitudeDegrees>
              <LongitudeDegrees>-4.2199449241161346435546875</LongitudeDegrees>
            </Position>
            <AltitudeMeters>907.4000244140625</AltitudeMeters>
            <DistanceMeters>124564.34091729</DistanceMeters>
          </Trackpoint>
          <Trackpoint>
            <Time>2019-08-02T11:50:23.000Z</Time>
            <Position>
              <LatitudeDegrees>41.00196571089327335357666015625</LatitudeDegrees>
              <LongitudeDegrees>-4.2204265482723712921142578125</LongitudeDegrees>
            </Position>
            <AltitudeMeters>906.79998779296875</AltitudeMeters>
            <DistanceMeters>124629.22148083</DistanceMeters>
          </Trackpoint>
          <Trackpoint>
            <Time>2019-08-02T11:50:26.000Z</Time>
            <Position>
              <LatitudeDegrees>41.00207266397774219512939453125</LatitudeDegrees>
              <LongitudeDegrees>-4.2205506004393100738525390625</LongitudeDegrees>
            </Position>
            <AltitudeMeters>906.20001220703125</AltitudeMeters>
            <DistanceMeters>124645.04193054</DistanceMeters>
          </Trackpoint>
          <Trackpoint>
            <Time>2019-08-02T11:50:31.000Z</Time>
            <Position>
              <LatitudeDegrees>41.00224499590694904327392578125</LatitudeDegrees>
              <LongitudeDegrees>-4.22076425515115261077880859375</LongitudeDegrees>
            </Position>
            <AltitudeMeters>905</AltitudeMeters>
            <DistanceMeters>124671.30955588</DistanceMeters>
          </Trackpoint>
          <Trackpoint>
            <Time>2019-08-02T11:50:35.000Z</Time>
            <Position>
              <LatitudeDegrees>41.00238027982413768768310546875</LatitudeDegrees>
              <LongitudeDegrees>-4.22093692235648632049560546875</LongitudeDegrees>
            </Position>
            <AltitudeMeters>904</AltitudeMeters>
            <DistanceMeters>124692.21586497</DistanceMeters>
          </Trackpoint>
          <Trackpoint>
            <Time>2019-08-02T11:50:39.000Z</Time>
            <Position>
              <LatitudeDegrees>41.002513468265533447265625</LatitudeDegrees>
              <LongitudeDegrees>-4.22111528925597667694091796875</LongitudeDegrees>
            </Position>
            <AltitudeMeters>902.79998779296875</AltitudeMeters>
            <DistanceMeters>124713.29252459</DistanceMeters>
          </Trackpoint>
          <Trackpoint>
            <Time>2019-08-02T11:50:42.000Z</Time>
            <Position>
              <LatitudeDegrees>41.002614386379718780517578125</LatitudeDegrees>
              <LongitudeDegrees>-4.22125057317316532135009765625</LongitudeDegrees>
            </Position>
            <AltitudeMeters>901.5999755859375</AltitudeMeters>
            <DistanceMeters>124729.27058208</DistanceMeters>
          </Trackpoint>
          <Trackpoint>
            <Time>2019-08-02T11:50:45.000Z</Time>
            <Position>
              <LatitudeDegrees>41.0027161426842212677001953125</LatitudeDegrees>
              <LongitudeDegrees>-4.2213918082416057586669921875</LongitudeDegrees>
            </Position>
            <AltitudeMeters>900.5999755859375</AltitudeMeters>
            <DistanceMeters>124745.67198377</DistanceMeters>
          </Trackpoint>
          <Trackpoint>
            <Time>2019-08-02T11:50:50.000Z</Time>
            <Position>
              <LatitudeDegrees>41.00288352929055690765380859375</LatitudeDegrees>
              <LongitudeDegrees>-4.22163211740553379058837890625</LongitudeDegrees>
            </Position>
            <AltitudeMeters>899.20001220703125</AltitudeMeters>
            <DistanceMeters>124773.14111531</DistanceMeters>
          </Trackpoint>
          <Trackpoint>
            <Time>2019-08-02T11:50:54.000Z</Time>
            <Position>
              <LatitudeDegrees>41.00301437079906463623046875</LatitudeDegrees>
              <LongitudeDegrees>-4.22182942740619182586669921875</LongitudeDegrees>
            </Position>
            <AltitudeMeters>898</AltitudeMeters>
            <DistanceMeters>124795.20369088</DistanceMeters>
          </Trackpoint>
          <Trackpoint>
            <Time>2019-08-02T11:50:58.000Z</Time>
            <Position>
              <LatitudeDegrees>41.00314202718436717987060546875</LatitudeDegrees>
              <LongitudeDegrees>-4.222028665244579315185546875</LongitudeDegrees>
            </Position>
            <AltitudeMeters>896.79998779296875</AltitudeMeters>
            <DistanceMeters>124817.15712432</DistanceMeters>
          </Trackpoint>
          <Trackpoint>
            <Time>2019-08-02T11:51:02.000Z</Time>
            <Position>
              <LatitudeDegrees>41.003265492618083953857421875</LatitudeDegrees>
              <LongitudeDegrees>-4.2222356982529163360595703125</LongitudeDegrees>
            </Position>
            <AltitudeMeters>895.4000244140625</AltitudeMeters>
            <DistanceMeters>124839.32158346</DistanceMeters>
          </Trackpoint>
          <Trackpoint>
            <Time>2019-08-02T11:51:06.000Z</Time>
            <Position>
              <LatitudeDegrees>41.003386862576007843017578125</LatitudeDegrees>
              <LongitudeDegrees>-4.22244901768863201141357421875</LongitudeDegrees>
            </Position>
            <AltitudeMeters>894.4000244140625</AltitudeMeters>
            <DistanceMeters>124861.76117175</DistanceMeters>
          </Trackpoint>
          <Trackpoint>
            <Time>2019-08-02T11:51:09.000Z</Time>
            <Position>
              <LatitudeDegrees>41.00347495637834072113037109375</LatitudeDegrees>
              <LongitudeDegrees>-4.2226071842014789581298828125</LongitudeDegrees>
            </Position>
            <AltitudeMeters>893.20001220703125</AltitudeMeters>
            <DistanceMeters>124878.27286663</DistanceMeters>
          </Trackpoint>
          <Trackpoint>
            <Time>2019-08-02T11:51:12.000Z</Time>
            <Position>
              <LatitudeDegrees>41.0035610385239124298095703125</LatitudeDegrees>
              <LongitudeDegrees>-4.22276727855205535888671875</LongitudeDegrees>
            </Position>
            <AltitudeMeters>892.20001220703125</AltitudeMeters>
            <DistanceMeters>124894.78401462</DistanceMeters>
          </Trackpoint>
          <Trackpoint>
            <Time>2019-08-02T11:51:17.000Z</Time>
            <Position>
              <LatitudeDegrees>41.00369506515562534332275390625</LatitudeDegrees>
              <LongitudeDegrees>-4.22303407453000545501708984375</LongitudeDegrees>
            </Position>
            <AltitudeMeters>891</AltitudeMeters>
            <DistanceMeters>124921.70476582</DistanceMeters>
          </Trackpoint>
          <Trackpoint>
            <Time>2019-08-02T11:51:22.000Z</Time>
            <Position>
              <LatitudeDegrees>41.0038259066641330718994140625</LatitudeDegrees>
              <LongitudeDegrees>-4.2233115993440151214599609375</LongitudeDegrees>
            </Position>
            <AltitudeMeters>889.79998779296875</AltitudeMeters>
            <DistanceMeters>124949.19082202</DistanceMeters>
          </Trackpoint>
          <Trackpoint>
            <Time>2019-08-02T11:51:27.000Z</Time>
            <Position>
              <LatitudeDegrees>41.003948785364627838134765625</LatitudeDegrees>
              <LongitudeDegrees>-4.22359339892864227294921875</LongitudeDegrees>
            </Position>
            <AltitudeMeters>888.5999755859375</AltitudeMeters>
            <DistanceMeters>124976.52797799</DistanceMeters>
          </Trackpoint>
          <Trackpoint>
            <Time>2019-08-02T11:51:30.000Z</Time>
            <Position>
              <LatitudeDegrees>41.0040195286273956298828125</LatitudeDegrees>
              <LongitudeDegrees>-4.223762042820453643798828125</LongitudeDegrees>
            </Position>
            <AltitudeMeters>887.5999755859375</AltitudeMeters>
            <DistanceMeters>124992.73442126</DistanceMeters>
          </Trackpoint>
          <Trackpoint>
            <Time>2019-08-02T11:51:41.000Z</Time>
            <Position>
              <LatitudeDegrees>41.00429001264274120330810546875</LatitudeDegrees>
              <LongitudeDegrees>-4.22440074384212493896484375</LongitudeDegrees>
            </Position>
            <AltitudeMeters>887.20001220703125</AltitudeMeters>
            <DistanceMeters>125054.25216502</DistanceMeters>
          </Trackpoint>
          <Trackpoint>
            <Time>2019-08-02T11:51:44.000Z</Time>
            <Position>
              <LatitudeDegrees>41.00436461158096790313720703125</LatitudeDegrees>
              <LongitudeDegrees>-4.224571399390697479248046875</LongitudeDegrees>
            </Position>
            <AltitudeMeters>886.4000244140625</AltitudeMeters>
            <DistanceMeters>125070.81764095</DistanceMeters>
          </Trackpoint>
          <Trackpoint>
            <Time>2019-08-02T11:51:48.000Z</Time>
            <Position>
              <LatitudeDegrees>41.0044599138200283050537109375</LatitudeDegrees>
              <LongitudeDegrees>-4.22480030916631221771240234375</LongitudeDegrees>
            </Position>
            <AltitudeMeters>885</AltitudeMeters>
            <DistanceMeters>125092.77683224</DistanceMeters>
          </Trackpoint>
          <Trackpoint>
            <Time>2019-08-02T11:51:53.000Z</Time>
            <Position>
              <LatitudeDegrees>41.00457608699798583984375</LatitudeDegrees>
              <LongitudeDegrees>-4.22507666051387786865234375</LongitudeDegrees>
            </Position>
            <AltitudeMeters>883.5999755859375</AltitudeMeters>
            <DistanceMeters>125119.34729397</DistanceMeters>
          </Trackpoint>
          <Trackpoint>
            <Time>2019-08-02T11:51:57.000Z</Time>
            <Position>
              <LatitudeDegrees>41.0046677850186824798583984375</LatitudeDegrees>
              <LongitudeDegrees>-4.225298278033733367919921875</LongitudeDegrees>
            </Position>
            <AltitudeMeters>882.5999755859375</AltitudeMeters>
            <DistanceMeters>125140.57635555</DistanceMeters>
          </Trackpoint>
          <Trackpoint>
            <Time>2019-08-02T11:52:03.000Z</Time>
            <Position>
              <LatitudeDegrees>41.0048049129545688629150390625</LatitudeDegrees>
              <LongitudeDegrees>-4.2256226576864719390869140625</LongitudeDegrees>
            </Position>
            <AltitudeMeters>881.4000244140625</AltitudeMeters>
            <DistanceMeters>125171.80618802</DistanceMeters>
          </Trackpoint>
          <Trackpoint>
            <Time>2019-08-02T11:52:10.000Z</Time>
            <Position>
              <LatitudeDegrees>41.0049584694206714630126953125</LatitudeDegrees>
              <LongitudeDegrees>-4.2259944789111614227294921875</LongitudeDegrees>
            </Position>
            <AltitudeMeters>880.20001220703125</AltitudeMeters>
            <DistanceMeters>125207.40786761</DistanceMeters>
          </Trackpoint>
          <Trackpoint>
            <Time>2019-08-02T11:52:16.000Z</Time>
            <Position>
              <LatitudeDegrees>41.0051009617745876312255859375</LatitudeDegrees>
              <LongitudeDegrees>-4.22633620910346508026123046875</LongitudeDegrees>
            </Position>
            <AltitudeMeters>879</AltitudeMeters>
            <DistanceMeters>125240.20131</DistanceMeters>
          </Trackpoint>
          <Trackpoint>
            <Time>2019-08-02T11:52:19.000Z</Time>
            <Position>
              <LatitudeDegrees>41.00517623126506805419921875</LatitudeDegrees>
              <LongitudeDegrees>-4.226520359516143798828125</LongitudeDegrees>
            </Position>
            <AltitudeMeters>877.79998779296875</AltitudeMeters>
            <DistanceMeters>125257.79203567</DistanceMeters>
          </Trackpoint>
          <Trackpoint>
            <Time>2019-08-02T11:52:22.000Z</Time>
            <Position>
              <LatitudeDegrees>41.0052518360316753387451171875</LatitudeDegrees>
              <LongitudeDegrees>-4.2267055995762348175048828125</LongitudeDegrees>
            </Position>
            <AltitudeMeters>877.20001220703125</AltitudeMeters>
            <DistanceMeters>125275.48079337</DistanceMeters>
          </Trackpoint>
          <Trackpoint>
            <Time>2019-08-02T11:52:24.000Z</Time>
            <Position>
              <LatitudeDegrees>41.00530187599360942840576171875</LatitudeDegrees>
              <LongitudeDegrees>-4.22682587988674640655517578125</LongitudeDegrees>
            </Position>
            <AltitudeMeters>876.5999755859375</AltitudeMeters>
            <DistanceMeters>125287.01705215</DistanceMeters>
          </Trackpoint>
          <Trackpoint>
            <Time>2019-08-02T11:52:30.000Z</Time>
            <Position>
              <LatitudeDegrees>41.00544872693717479705810546875</LatitudeDegrees>
              <LongitudeDegrees>-4.22718814574182033538818359375</LongitudeDegrees>
            </Position>
            <AltitudeMeters>875.20001220703125</AltitudeMeters>
            <DistanceMeters>125321.55740014</DistanceMeters>
          </Trackpoint>
          <Trackpoint>
            <Time>2019-08-02T11:52:35.000Z</Time>
            <Position>
              <LatitudeDegrees>41.00557177327573299407958984375</LatitudeDegrees>
              <LongitudeDegrees>-4.22747547738254070281982421875</LongitudeDegrees>
            </Position>
            <AltitudeMeters>874</AltitudeMeters>
            <DistanceMeters>125349.30650244</DistanceMeters>
          </Trackpoint>
          <Trackpoint>
            <Time>2019-08-02T11:52:41.000Z</Time>
            <Position>
              <LatitudeDegrees>41.0057198815047740936279296875</LatitudeDegrees>
              <LongitudeDegrees>-4.227821566164493560791015625</LongitudeDegrees>
            </Position>
            <AltitudeMeters>872.5999755859375</AltitudeMeters>
            <DistanceMeters>125382.72457561</DistanceMeters>
          </Trackpoint>
          <Trackpoint>
            <Time>2019-08-02T11:52:46.000Z</Time>
            <Position>
              <LatitudeDegrees>41.00584410130977630615234375</LatitudeDegrees>
              <LongitudeDegrees>-4.2281231470406055450439453125</LongitudeDegrees>
            </Position>
            <AltitudeMeters>871.5999755859375</AltitudeMeters>
            <DistanceMeters>125411.58298565</DistanceMeters>
          </Trackpoint>
          <Trackpoint>
            <Time>2019-08-02T11:52:50.000Z</Time>
            <Position>
              <LatitudeDegrees>41.00594342686235904693603515625</LatitudeDegrees>
              <LongitudeDegrees>-4.22836370766162872314453125</LongitudeDegrees>
            </Position>
            <AltitudeMeters>870.20001220703125</AltitudeMeters>
            <DistanceMeters>125434.61476393</DistanceMeters>
          </Trackpoint>
          <Trackpoint>
            <Time>2019-08-02T11:53:01.000Z</Time>
            <Position>
              <LatitudeDegrees>41.0062229633331298828125</LatitudeDegrees>
              <LongitudeDegrees>-4.2290263809263706207275390625</LongitudeDegrees>
            </Position>
            <AltitudeMeters>869</AltitudeMeters>
            <DistanceMeters>125498.38023837</DistanceMeters>
          </Trackpoint>
          <Trackpoint>
            <Time>2019-08-02T11:53:12.000Z</Time>
            <Position>
              <LatitudeDegrees>41.00649629719555377960205078125</LatitudeDegrees>
              <LongitudeDegrees>-4.22967505641281604766845703125</LongitudeDegrees>
            </Position>
            <AltitudeMeters>867.79998779296875</AltitudeMeters>
            <DistanceMeters>125560.78233613</DistanceMeters>
          </Trackpoint>
          <Trackpoint>
            <Time>2019-08-02T11:53:24.000Z</Time>
            <Position>
              <LatitudeDegrees>41.0067806951701641082763671875</LatitudeDegrees>
              <LongitudeDegrees>-4.230350218713283538818359375</LongitudeDegrees>
            </Position>
            <AltitudeMeters>868.79998779296875</AltitudeMeters>
            <DistanceMeters>125625.72709947</DistanceMeters>
          </Trackpoint>
          <Trackpoint>
            <Time>2019-08-02T11:53:36.000Z</Time>
            <Position>
              <LatitudeDegrees>41.007053442299365997314453125</LatitudeDegrees>
              <LongitudeDegrees>-4.230997301638126373291015625</LongitudeDegrees>
            </Position>
            <AltitudeMeters>868.79998779296875</AltitudeMeters>
            <DistanceMeters>125687.98025978</DistanceMeters>
          </Trackpoint>
          <Trackpoint>
            <Time>2019-08-02T11:53:48.000Z</Time>
            <Position>
              <LatitudeDegrees>41.0073268599808216094970703125</LatitudeDegrees>
              <LongitudeDegrees>-4.2316378466784954071044921875</LongitudeDegrees>
            </Position>
            <AltitudeMeters>868.20001220703125</AltitudeMeters>
            <DistanceMeters>125749.79102876</DistanceMeters>
          </Trackpoint>
          <Trackpoint>
            <Time>2019-08-02T11:53:58.000Z</Time>
            <Position>
              <LatitudeDegrees>41.007557027041912078857421875</LatitudeDegrees>
              <LongitudeDegrees>-4.23218510113656520843505859375</LongitudeDegrees>
            </Position>
            <AltitudeMeters>868.20001220703125</AltitudeMeters>
            <DistanceMeters>125802.4125813</DistanceMeters>
          </Trackpoint>
          <Trackpoint>
            <Time>2019-08-02T11:54:10.000Z</Time>
            <Position>
              <LatitudeDegrees>41.00782935507595539093017578125</LatitudeDegrees>
              <LongitudeDegrees>-4.23283838666975498199462890625</LongitudeDegrees>
            </Position>
            <AltitudeMeters>867.79998779296875</AltitudeMeters>
            <DistanceMeters>125865.097953</DistanceMeters>
          </Trackpoint>
          <Trackpoint>
            <Time>2019-08-02T11:54:22.000Z</Time>
            <Position>
              <LatitudeDegrees>41.0081083886325359344482421875</LatitudeDegrees>
              <LongitudeDegrees>-4.23349586315453052520751953125</LongitudeDegrees>
            </Position>
            <AltitudeMeters>867.5999755859375</AltitudeMeters>
            <DistanceMeters>125928.45398168</DistanceMeters>
          </Trackpoint>
          <Trackpoint>
            <Time>2019-08-02T11:54:32.000Z</Time>
            <Position>
              <LatitudeDegrees>41.0083407349884510040283203125</LatitudeDegrees>
              <LongitudeDegrees>-4.2340491525828838348388671875</LongitudeDegrees>
            </Position>
            <AltitudeMeters>868.79998779296875</AltitudeMeters>
            <DistanceMeters>125981.63584177</DistanceMeters>
          </Trackpoint>
          <Trackpoint>
            <Time>2019-08-02T11:54:36.000Z</Time>
            <Position>
              <LatitudeDegrees>41.00843570195138454437255859375</LatitudeDegrees>
              <LongitudeDegrees>-4.23427688889205455780029296875</LongitudeDegrees>
            </Position>
            <AltitudeMeters>870</AltitudeMeters>
            <DistanceMeters>126003.48950698</DistanceMeters>
          </Trackpoint>
          <Trackpoint>
            <Time>2019-08-02T11:54:48.000Z</Time>
            <Position>
              <LatitudeDegrees>41.00871364586055278778076171875</LatitudeDegrees>
              <LongitudeDegrees>-4.23493855632841587066650390625</LongitudeDegrees>
            </Position>
            <AltitudeMeters>870.5999755859375</AltitudeMeters>
            <DistanceMeters>126067.09312375</DistanceMeters>
          </Trackpoint>
          <Trackpoint>
            <Time>2019-08-02T11:55:00.000Z</Time>
            <Position>
              <LatitudeDegrees>41.00897558033466339111328125</LatitudeDegrees>
              <LongitudeDegrees>-4.235574491322040557861328125</LongitudeDegrees>
            </Position>
            <AltitudeMeters>869.79998779296875</AltitudeMeters>
            <DistanceMeters>126127.94347121</DistanceMeters>
          </Trackpoint>
          <Trackpoint>
            <Time>2019-08-02T11:55:12.000Z</Time>
            <Position>
              <LatitudeDegrees>41.00924246013164520263671875</LatitudeDegrees>
              <LongitudeDegrees>-4.2362046428024768829345703125</LongitudeDegrees>
            </Position>
            <AltitudeMeters>870.20001220703125</AltitudeMeters>
            <DistanceMeters>126188.63527133</DistanceMeters>
          </Trackpoint>
          <Trackpoint>
            <Time>2019-08-02T11:55:13.000Z</Time>
            <Position>
              <LatitudeDegrees>41.0092650912702083587646484375</LatitudeDegrees>
              <LongitudeDegrees>-4.23625585623085498809814453125</LongitudeDegrees>
            </Position>
            <AltitudeMeters>870.4000244140625</AltitudeMeters>
            <DistanceMeters>126193.62032604</DistanceMeters>
          </Trackpoint>
          <Trackpoint>
            <Time>2019-08-02T11:55:26.000Z</Time>
            <Position>
              <LatitudeDegrees>41.009545214474201202392578125</LatitudeDegrees>
              <LongitudeDegrees>-4.23692992888391017913818359375</LongitudeDegrees>
            </Position>
            <AltitudeMeters>871.20001220703125</AltitudeMeters>
            <DistanceMeters>126258.25225524</DistanceMeters>
          </Trackpoint>
          <Trackpoint>
            <Time>2019-08-02T11:55:39.000Z</Time>
            <Position>
              <LatitudeDegrees>41.0098253376781940460205078125</LatitudeDegrees>
              <LongitudeDegrees>-4.23760551027953624725341796875</LongitudeDegrees>
            </Position>
            <AltitudeMeters>871</AltitudeMeters>
            <DistanceMeters>126322.99502344</DistanceMeters>
          </Trackpoint>
          <Trackpoint>
            <Time>2019-08-02T11:55:51.000Z</Time>
            <Position>
              <LatitudeDegrees>41.0100925527513027191162109375</LatitudeDegrees>
              <LongitudeDegrees>-4.238236248493194580078125</LongitudeDegrees>
            </Position>
            <AltitudeMeters>871.5999755859375</AltitudeMeters>
            <DistanceMeters>126383.74749783</DistanceMeters>
          </Trackpoint>
          <Trackpoint>
            <Time>2019-08-02T11:55:54.000Z</Time>
            <Position>
              <LatitudeDegrees>41.01016019470989704132080078125</LatitudeDegrees>
              <LongitudeDegrees>-4.23839223571121692657470703125</LongitudeDegrees>
            </Position>
            <AltitudeMeters>872</AltitudeMeters>
            <DistanceMeters>126398.85764187</DistanceMeters>
          </Trackpoint>
          <Trackpoint>
            <Time>2019-08-02T11:56:03.000Z</Time>
            <Position>
              <LatitudeDegrees>41.0103570856153964996337890625</LatitudeDegrees>
              <LongitudeDegrees>-4.23886715434491634368896484375</LongitudeDegrees>
            </Position>
            <AltitudeMeters>873</AltitudeMeters>
            <DistanceMeters>126444.36839482</DistanceMeters>
          </Trackpoint>
          <Trackpoint>
            <Time>2019-08-02T11:56:14.000Z</Time>
            <Position>
              <LatitudeDegrees>41.01060728542506694793701171875</LatitudeDegrees>
              <LongitudeDegrees>-4.23945589922368526458740234375</LongitudeDegrees>
            </Position>
            <AltitudeMeters>873.79998779296875</AltitudeMeters>
            <DistanceMeters>126501.11804313</DistanceMeters>
          </Trackpoint>
          <Trackpoint>
            <Time>2019-08-02T11:56:27.000Z</Time>
            <Position>
              <LatitudeDegrees>41.010890342295169830322265625</LatitudeDegrees>
              <LongitudeDegrees>-4.24012812785804271697998046875</LongitudeDegrees>
            </Position>
            <AltitudeMeters>874.4000244140625</AltitudeMeters>
            <DistanceMeters>126565.7718341</DistanceMeters>
          </Trackpoint>
          <Trackpoint>
            <Time>2019-08-02T11:56:31.000Z</Time>
            <Position>
              <LatitudeDegrees>41.01097726263105869293212890625</LatitudeDegrees>
              <LongitudeDegrees>-4.24033566378057003021240234375</LongitudeDegrees>
            </Position>
            <AltitudeMeters>874.5999755859375</AltitudeMeters>
            <DistanceMeters>126585.70707085</DistanceMeters>
          </Trackpoint>
          <Trackpoint>
            <Time>2019-08-02T11:56:43.000Z</Time>
            <Position>
              <LatitudeDegrees>41.011243723332881927490234375</LatitudeDegrees>
              <LongitudeDegrees>-4.24096397124230861663818359375</LongitudeDegrees>
            </Position>
            <AltitudeMeters>874.79998779296875</AltitudeMeters>
            <DistanceMeters>126646.23961003</DistanceMeters>
          </Trackpoint>
          <Trackpoint>
            <Time>2019-08-02T11:56:48.000Z</Time>
            <Position>
              <LatitudeDegrees>41.01135444827377796173095703125</LatitudeDegrees>
              <LongitudeDegrees>-4.241226576268672943115234375</LongitudeDegrees>
            </Position>
            <AltitudeMeters>875.5999755859375</AltitudeMeters>
            <DistanceMeters>126671.50456686</DistanceMeters>
          </Trackpoint>
          <Trackpoint>
            <Time>2019-08-02T11:56:51.000Z</Time>
            <Position>
              <LatitudeDegrees>41.011423431336879730224609375</LatitudeDegrees>
              <LongitudeDegrees>-4.24138725735247135162353515625</LongitudeDegrees>
            </Position>
            <AltitudeMeters>877</AltitudeMeters>
            <DistanceMeters>126687.03089678</DistanceMeters>
          </Trackpoint>
          <Trackpoint>
            <Time>2019-08-02T11:56:54.000Z</Time>
            <Position>
              <LatitudeDegrees>41.01149476133286952972412109375</LatitudeDegrees>
              <LongitudeDegrees>-4.2415476031601428985595703125</LongitudeDegrees>
            </Position>
            <AltitudeMeters>878.5999755859375</AltitudeMeters>
            <DistanceMeters>126702.66329674</DistanceMeters>
          </Trackpoint>
          <Trackpoint>
            <Time>2019-08-02T11:57:06.000Z</Time>
            <Position>
              <LatitudeDegrees>41.01179466582834720611572265625</LatitudeDegrees>
              <LongitudeDegrees>-4.24215520732104778289794921875</LongitudeDegrees>
            </Position>
            <AltitudeMeters>879.20001220703125</AltitudeMeters>
            <DistanceMeters>126763.64113302</DistanceMeters>
          </Trackpoint>
          <Trackpoint>
            <Time>2019-08-02T11:57:10.000Z</Time>
            <Position>
              <LatitudeDegrees>41.01190430112183094024658203125</LatitudeDegrees>
              <LongitudeDegrees>-4.2423435486853122711181640625</LongitudeDegrees>
            </Position>
            <AltitudeMeters>879.4000244140625</AltitudeMeters>
            <DistanceMeters>126783.61890363</DistanceMeters>
          </Trackpoint>
          <Trackpoint>
            <Time>2019-08-02T11:57:14.000Z</Time>
            <Position>
              <LatitudeDegrees>41.0120247490704059600830078125</LatitudeDegrees>
              <LongitudeDegrees>-4.24252199940383434295654296875</LongitudeDegrees>
            </Position>
            <AltitudeMeters>879.79998779296875</AltitudeMeters>
            <DistanceMeters>126803.72710427</DistanceMeters>
          </Trackpoint>
          <Trackpoint>
            <Time>2019-08-02T11:57:15.000Z</Time>
            <Position>
              <LatitudeDegrees>41.0120555944740772247314453125</LatitudeDegrees>
              <LongitudeDegrees>-4.24256692640483379364013671875</LongitudeDegrees>
            </Position>
            <AltitudeMeters>879.79998779296875</AltitudeMeters>
            <DistanceMeters>126808.82854332</DistanceMeters>
          </Trackpoint>
          <Trackpoint>
            <Time>2019-08-02T11:57:27.000Z</Time>
            <Position>
              <LatitudeDegrees>41.0124850831925868988037109375</LatitudeDegrees>
              <LongitudeDegrees>-4.24307503737509250640869140625</LongitudeDegrees>
            </Position>
            <AltitudeMeters>880.20001220703125</AltitudeMeters>
            <DistanceMeters>126872.90798168</DistanceMeters>
          </Trackpoint>
          <Trackpoint>
            <Time>2019-08-02T11:57:32.000Z</Time>
            <Position>
              <LatitudeDegrees>41.0126812197268009185791015625</LatitudeDegrees>
              <LongitudeDegrees>-4.24326631240546703338623046875</LongitudeDegrees>
            </Position>
            <AltitudeMeters>880.20001220703125</AltitudeMeters>
            <DistanceMeters>126900.01209279</DistanceMeters>
          </Trackpoint>
          <Trackpoint>
            <Time>2019-08-02T11:57:38.000Z</Time>
            <Position>
              <LatitudeDegrees>41.01293141953647136688232421875</LatitudeDegrees>
              <LongitudeDegrees>-4.24347502179443836212158203125</LongitudeDegrees>
            </Position>
            <AltitudeMeters>881.4000244140625</AltitudeMeters>
            <DistanceMeters>126932.91686791</DistanceMeters>
          </Trackpoint>
          <Trackpoint>
            <Time>2019-08-02T11:57:42.000Z</Time>
            <Position>
              <LatitudeDegrees>41.01310207508504390716552734375</LatitudeDegrees>
              <LongitudeDegrees>-4.243596978485584259033203125</LongitudeDegrees>
            </Position>
            <AltitudeMeters>882.5999755859375</AltitudeMeters>
            <DistanceMeters>126954.49651207</DistanceMeters>
          </Trackpoint>
          <Trackpoint>
            <Time>2019-08-02T11:57:46.000Z</Time>
            <Position>
              <LatitudeDegrees>41.01328413002192974090576171875</LatitudeDegrees>
              <LongitudeDegrees>-4.2437111400067806243896484375</LongitudeDegrees>
            </Position>
            <AltitudeMeters>883.79998779296875</AltitudeMeters>
            <DistanceMeters>126976.91335226</DistanceMeters>
          </Trackpoint>
          <Trackpoint>
            <Time>2019-08-02T11:57:48.000Z</Time>
            <Position>
              <LatitudeDegrees>41.0133777558803558349609375</LatitudeDegrees>
              <LongitudeDegrees>-4.24376352690160274505615234375</LongitudeDegrees>
            </Position>
            <AltitudeMeters>885.4000244140625</AltitudeMeters>
            <DistanceMeters>126988.22512415</DistanceMeters>
          </Trackpoint>
          <Trackpoint>
            <Time>2019-08-02T11:57:51.000Z</Time>
            <Position>
              <LatitudeDegrees>41.01352301426231861114501953125</LatitudeDegrees>
              <LongitudeDegrees>-4.2438311688601970672607421875</LongitudeDegrees>
            </Position>
            <AltitudeMeters>886.5999755859375</AltitudeMeters>
            <DistanceMeters>127005.36210597</DistanceMeters>
          </Trackpoint>
          <Trackpoint>
            <Time>2019-08-02T11:57:54.000Z</Time>
            <Position>
              <LatitudeDegrees>41.0136701166629791259765625</LatitudeDegrees>
              <LongitudeDegrees>-4.24389562569558620452880859375</LongitudeDegrees>
            </Position>
            <AltitudeMeters>888</AltitudeMeters>
            <DistanceMeters>127022.60677116</DistanceMeters>
          </Trackpoint>
          <Trackpoint>
            <Time>2019-08-02T11:57:57.000Z</Time>
            <Position>
              <LatitudeDegrees>41.01381889544427394866943359375</LatitudeDegrees>
              <LongitudeDegrees>-4.2439471744000911712646484375</LongitudeDegrees>
            </Position>
            <AltitudeMeters>889.4000244140625</AltitudeMeters>
            <DistanceMeters>127039.72266261</DistanceMeters>
          </Trackpoint>
          <Trackpoint>
            <Time>2019-08-02T11:58:00.000Z</Time>
            <Position>
              <LatitudeDegrees>41.0139732062816619873046875</LatitudeDegrees>
              <LongitudeDegrees>-4.24399520270526409149169921875</LongitudeDegrees>
            </Position>
            <AltitudeMeters>890.5999755859375</AltitudeMeters>
            <DistanceMeters>127057.36490382</DistanceMeters>
          </Trackpoint>
          <Trackpoint>
            <Time>2019-08-02T11:58:03.000Z</Time>
            <Position>
              <LatitudeDegrees>41.0141282714903354644775390625</LatitudeDegrees>
              <LongitudeDegrees>-4.24403057433664798736572265625</LongitudeDegrees>
            </Position>
            <AltitudeMeters>892</AltitudeMeters>
            <DistanceMeters>127074.87768533</DistanceMeters>
          </Trackpoint>
          <Trackpoint>
            <Time>2019-08-02T11:58:05.000Z</Time>
            <Position>
              <LatitudeDegrees>41.01423245854675769805908203125</LatitudeDegrees>
              <LongitudeDegrees>-4.24405236728489398956298828125</LongitudeDegrees>
            </Position>
            <AltitudeMeters>893.20001220703125</AltitudeMeters>
            <DistanceMeters>127086.6176196</DistanceMeters>
          </Trackpoint>
          <Trackpoint>
            <Time>2019-08-02T11:58:08.000Z</Time>
            <Position>
              <LatitudeDegrees>41.01438836194574832916259765625</LatitudeDegrees>
              <LongitudeDegrees>-4.24407701008021831512451171875</LongitudeDegrees>
            </Position>
            <AltitudeMeters>894.79998779296875</AltitudeMeters>
            <DistanceMeters>127104.09271975</DistanceMeters>
          </Trackpoint>
          <Trackpoint>
            <Time>2019-08-02T11:58:10.000Z</Time>
            <Position>
              <LatitudeDegrees>41.01449313573539257049560546875</LatitudeDegrees>
              <LongitudeDegrees>-4.24408975057303905487060546875</LongitudeDegrees>
            </Position>
            <AltitudeMeters>895.79998779296875</AltitudeMeters>
            <DistanceMeters>127115.80338886</DistanceMeters>
          </Trackpoint>
          <Trackpoint>
            <Time>2019-08-02T11:58:13.000Z</Time>
            <Position>
              <LatitudeDegrees>41.014651469886302947998046875</LatitudeDegrees>
              <LongitudeDegrees>-4.24410366453230381011962890625</LongitudeDegrees>
            </Position>
            <AltitudeMeters>897.20001220703125</AltitudeMeters>
            <DistanceMeters>127133.46481379</DistanceMeters>
          </Trackpoint>
          <Trackpoint>
            <Time>2019-08-02T11:58:15.000Z</Time>
            <Position>
              <LatitudeDegrees>41.0147572495043277740478515625</LatitudeDegrees>
              <LongitudeDegrees>-4.24410559237003326416015625</LongitudeDegrees>
            </Position>
            <AltitudeMeters>898.5999755859375</AltitudeMeters>
            <DistanceMeters>127145.23892665</DistanceMeters>
          </Trackpoint>
          <Trackpoint>
            <Time>2019-08-02T11:58:18.000Z</Time>
            <Position>
              <LatitudeDegrees>41.0149165056645870208740234375</LatitudeDegrees>
              <LongitudeDegrees>-4.24410617910325527191162109375</LongitudeDegrees>
            </Position>
            <AltitudeMeters>900</AltitudeMeters>
            <DistanceMeters>127162.96440209</DistanceMeters>
          </Trackpoint>
          <Trackpoint>
            <Time>2019-08-02T11:58:21.000Z</Time>
            <Position>
              <LatitudeDegrees>41.01507517509162425994873046875</LatitudeDegrees>
              <LongitudeDegrees>-4.24409930594265460968017578125</LongitudeDegrees>
            </Position>
            <AltitudeMeters>901.20001220703125</AltitudeMeters>
            <DistanceMeters>127180.63400574</DistanceMeters>
          </Trackpoint>
          <Trackpoint>
            <Time>2019-08-02T11:58:24.000Z</Time>
            <Position>
              <LatitudeDegrees>41.0152323357760906219482421875</LatitudeDegrees>
              <LongitudeDegrees>-4.24409075640141963958740234375</LongitudeDegrees>
            </Position>
            <AltitudeMeters>902.4000244140625</AltitudeMeters>
            <DistanceMeters>127198.14059863</DistanceMeters>
          </Trackpoint>
          <Trackpoint>
            <Time>2019-08-02T11:58:27.000Z</Time>
            <Position>
              <LatitudeDegrees>41.0153895802795886993408203125</LatitudeDegrees>
              <LongitudeDegrees>-4.2440822906792163848876953125</LongitudeDegrees>
            </Position>
            <AltitudeMeters>903.5999755859375</AltitudeMeters>
            <DistanceMeters>127215.65647364</DistanceMeters>
          </Trackpoint>
          <Trackpoint>
            <Time>2019-08-02T11:58:32.000Z</Time>
            <Position>
              <LatitudeDegrees>41.01564950309693813323974609375</LatitudeDegrees>
              <LongitudeDegrees>-4.24405940808355808258056640625</LongitudeDegrees>
            </Position>
            <AltitudeMeters>904.79998779296875</AltitudeMeters>
            <DistanceMeters>127244.650057</DistanceMeters>
          </Trackpoint>
          <Trackpoint>
            <Time>2019-08-02T11:58:38.000Z</Time>
            <Position>
              <LatitudeDegrees>41.01595946587622165679931640625</LatitudeDegrees>
              <LongitudeDegrees>-4.24403493292629718780517578125</LongitudeDegrees>
            </Position>
            <AltitudeMeters>906</AltitudeMeters>
            <DistanceMeters>127279.21079096</DistanceMeters>
          </Trackpoint>
          <Trackpoint>
            <Time>2019-08-02T11:58:43.000Z</Time>
            <Position>
              <LatitudeDegrees>41.016214191913604736328125</LatitudeDegrees>
              <LongitudeDegrees>-4.2440150678157806396484375</LongitudeDegrees>
            </Position>
            <AltitudeMeters>907.20001220703125</AltitudeMeters>
            <DistanceMeters>127307.61122208</DistanceMeters>
          </Trackpoint>
          <Trackpoint>
            <Time>2019-08-02T11:58:48.000Z</Time>
            <Position>
              <LatitudeDegrees>41.0164721868932247161865234375</LatitudeDegrees>
              <LongitudeDegrees>-4.24399889074265956878662109375</LongitudeDegrees>
            </Position>
            <AltitudeMeters>908.4000244140625</AltitudeMeters>
            <DistanceMeters>127336.35864868</DistanceMeters>
          </Trackpoint>
          <Trackpoint>
            <Time>2019-08-02T11:58:54.000Z</Time>
            <Position>
              <LatitudeDegrees>41.01677351631224155426025390625</LatitudeDegrees>
              <LongitudeDegrees>-4.24397525377571582794189453125</LongitudeDegrees>
            </Position>
            <AltitudeMeters>909.4000244140625</AltitudeMeters>
            <DistanceMeters>127369.95580013</DistanceMeters>
          </Trackpoint>
          <Trackpoint>
            <Time>2019-08-02T11:59:00.000Z</Time>
            <Position>
              <LatitudeDegrees>41.0170756839215755462646484375</LatitudeDegrees>
              <LongitudeDegrees>-4.243956394493579864501953125</LongitudeDegrees>
            </Position>
            <AltitudeMeters>910.4000244140625</AltitudeMeters>
            <DistanceMeters>127403.62504034</DistanceMeters>
          </Trackpoint>
          <Trackpoint>
            <Time>2019-08-02T11:59:06.000Z</Time>
            <Position>
              <LatitudeDegrees>41.01737181656062602996826171875</LatitudeDegrees>
              <LongitudeDegrees>-4.24394189380109310150146484375</LongitudeDegrees>
            </Position>
            <AltitudeMeters>911.4000244140625</AltitudeMeters>
            <DistanceMeters>127436.60766167</DistanceMeters>
          </Trackpoint>
          <Trackpoint>
            <Time>2019-08-02T11:59:10.000Z</Time>
            <Position>
              <LatitudeDegrees>41.0175641812384128570556640625</LatitudeDegrees>
              <LongitudeDegrees>-4.24393485300242900848388671875</LongitudeDegrees>
            </Position>
            <AltitudeMeters>912.79998779296875</AltitudeMeters>
            <DistanceMeters>127458.02643856</DistanceMeters>
          </Trackpoint>
          <Trackpoint>
            <Time>2019-08-02T11:59:14.000Z</Time>
            <Position>
              <LatitudeDegrees>41.0177583061158657073974609375</LatitudeDegrees>
              <LongitudeDegrees>-4.243933595716953277587890625</LongitudeDegrees>
            </Position>
            <AltitudeMeters>913.79998779296875</AltitudeMeters>
            <DistanceMeters>127479.63305611</DistanceMeters>
          </Trackpoint>
          <Trackpoint>
            <Time>2019-08-02T11:59:17.000Z</Time>
            <Position>
              <LatitudeDegrees>41.01790507324039936065673828125</LatitudeDegrees>
              <LongitudeDegrees>-4.243936948478221893310546875</LongitudeDegrees>
            </Position>
            <AltitudeMeters>915</AltitudeMeters>
            <DistanceMeters>127495.97101987</DistanceMeters>
          </Trackpoint>
          <Trackpoint>
            <Time>2019-08-02T11:59:21.000Z</Time>
            <Position>
              <LatitudeDegrees>41.01810120977461338043212890625</LatitudeDegrees>
              <LongitudeDegrees>-4.24394591711461544036865234375</LongitudeDegrees>
            </Position>
            <AltitudeMeters>916.4000244140625</AltitudeMeters>
            <DistanceMeters>127517.81455917</DistanceMeters>
          </Trackpoint>
          <Trackpoint>
            <Time>2019-08-02T11:59:26.000Z</Time>
            <Position>
              <LatitudeDegrees>41.01834562607109546661376953125</LatitudeDegrees>
              <LongitudeDegrees>-4.24396284855902194976806640625</LongitudeDegrees>
            </Position>
            <AltitudeMeters>917.5999755859375</AltitudeMeters>
            <DistanceMeters>127545.0557532</DistanceMeters>
          </Trackpoint>
          <Trackpoint>
            <Time>2019-08-02T11:59:33.000Z</Time>
            <Position>
              <LatitudeDegrees>41.01869699545204639434814453125</LatitudeDegrees>
              <LongitudeDegrees>-4.2440018244087696075439453125</LongitudeDegrees>
            </Position>
            <AltitudeMeters>918.5999755859375</AltitudeMeters>
            <DistanceMeters>127584.30052072</DistanceMeters>
          </Trackpoint>
          <Trackpoint>
            <Time>2019-08-02T11:59:37.000Z</Time>
            <Position>
              <LatitudeDegrees>41.01889749057590961456298828125</LatitudeDegrees>
              <LongitudeDegrees>-4.24403627403080463409423828125</LongitudeDegrees>
            </Position>
            <AltitudeMeters>919.79998779296875</AltitudeMeters>
            <DistanceMeters>127606.80279853</DistanceMeters>
          </Trackpoint>
          <Trackpoint>
            <Time>2019-08-02T11:59:41.000Z</Time>
            <Position>
              <LatitudeDegrees>41.01909463293850421905517578125</LatitudeDegrees>
              <LongitudeDegrees>-4.24408036284148693084716796875</LongitudeDegrees>
            </Position>
            <AltitudeMeters>921.20001220703125</AltitudeMeters>
            <DistanceMeters>127629.05528765</DistanceMeters>
          </Trackpoint>
          <Trackpoint>
            <Time>2019-08-02T11:59:47.000Z</Time>
            <Position>
              <LatitudeDegrees>41.0193778574466705322265625</LatitudeDegrees>
              <LongitudeDegrees>-4.2441583983600139617919921875</LongitudeDegrees>
            </Position>
            <AltitudeMeters>922.5999755859375</AltitudeMeters>
            <DistanceMeters>127661.252801</DistanceMeters>
          </Trackpoint>
          <Trackpoint>
            <Time>2019-08-02T11:59:54.000Z</Time>
            <Position>
              <LatitudeDegrees>41.0197099484503269195556640625</LatitudeDegrees>
              <LongitudeDegrees>-4.2442564666271209716796875</LongitudeDegrees>
            </Position>
            <AltitudeMeters>923.79998779296875</AltitudeMeters>
            <DistanceMeters>127699.12163224</DistanceMeters>
          </Trackpoint>
          <Trackpoint>
            <Time>2019-08-02T12:00:01.000Z</Time>
            <Position>
              <LatitudeDegrees>41.02007213048636913299560546875</LatitudeDegrees>
              <LongitudeDegrees>-4.244379512965679168701171875</LongitudeDegrees>
            </Position>
            <AltitudeMeters>925</AltitudeMeters>
            <DistanceMeters>127740.73660696</DistanceMeters>
          </Trackpoint>
          <Trackpoint>
            <Time>2019-08-02T12:00:10.000Z</Time>
            <Position>
              <LatitudeDegrees>41.02052408270537853240966796875</LatitudeDegrees>
              <LongitudeDegrees>-4.2445644177496433258056640625</LongitudeDegrees>
            </Position>
            <AltitudeMeters>926.20001220703125</AltitudeMeters>
            <DistanceMeters>127793.38174978</DistanceMeters>
          </Trackpoint>
          <Trackpoint>
            <Time>2019-08-02T12:00:16.000Z</Time>
            <Position>
              <LatitudeDegrees>41.02081325836479663848876953125</LatitudeDegrees>
              <LongitudeDegrees>-4.24471034668385982513427734375</LongitudeDegrees>
            </Position>
            <AltitudeMeters>927.4000244140625</AltitudeMeters>
            <DistanceMeters>127827.82129798</DistanceMeters>
          </Trackpoint>
          <Trackpoint>
            <Time>2019-08-02T12:00:25.000Z</Time>
            <Position>
              <LatitudeDegrees>41.02124023251235485076904296875</LatitudeDegrees>
              <LongitudeDegrees>-4.24494336359202861785888671875</LongitudeDegrees>
            </Position>
            <AltitudeMeters>926.5999755859375</AltitudeMeters>
            <DistanceMeters>127879.21502737</DistanceMeters>
          </Trackpoint>
          <Trackpoint>
            <Time>2019-08-02T12:00:36.000Z</Time>
            <Position>
              <LatitudeDegrees>41.02176996879279613494873046875</LatitudeDegrees>
              <LongitudeDegrees>-4.24525081180036067962646484375</LongitudeDegrees>
            </Position>
            <AltitudeMeters>926.4000244140625</AltitudeMeters>
            <DistanceMeters>127943.58045887</DistanceMeters>
          </Trackpoint>
          <Trackpoint>
            <Time>2019-08-02T12:00:47.000Z</Time>
            <Position>
              <LatitudeDegrees>41.0222865454852581024169921875</LatitudeDegrees>
              <LongitudeDegrees>-4.245555661618709564208984375</LongitudeDegrees>
            </Position>
            <AltitudeMeters>926.5999755859375</AltitudeMeters>
            <DistanceMeters>128006.51770708</DistanceMeters>
          </Trackpoint>
          <Trackpoint>
            <Time>2019-08-02T12:00:58.000Z</Time>
            <Position>
              <LatitudeDegrees>41.02279071696102619171142578125</LatitudeDegrees>
              <LongitudeDegrees>-4.24585296772420406341552734375</LongitudeDegrees>
            </Position>
            <AltitudeMeters>926.79998779296875</AltitudeMeters>
            <DistanceMeters>128067.93584783</DistanceMeters>
          </Trackpoint>
          <Trackpoint>
            <Time>2019-08-02T12:01:09.000Z</Time>
            <Position>
              <LatitudeDegrees>41.02328407578170299530029296875</LatitudeDegrees>
              <LongitudeDegrees>-4.24614750780165195465087890625</LongitudeDegrees>
            </Position>
            <AltitudeMeters>926.4000244140625</AltitudeMeters>
            <DistanceMeters>128128.16059776</DistanceMeters>
          </Trackpoint>
          <Trackpoint>
            <Time>2019-08-02T12:01:20.000Z</Time>
            <Position>
              <LatitudeDegrees>41.0237835533916950225830078125</LatitudeDegrees>
              <LongitudeDegrees>-4.24644540064036846160888671875</LongitudeDegrees>
            </Position>
            <AltitudeMeters>927.20001220703125</AltitudeMeters>
            <DistanceMeters>128189.12184595</DistanceMeters>
          </Trackpoint>
          <Trackpoint>
            <Time>2019-08-02T12:01:23.000Z</Time>
            <Position>
              <LatitudeDegrees>41.02391892112791538238525390625</LatitudeDegrees>
              <LongitudeDegrees>-4.24652704037725925445556640625</LongitudeDegrees>
            </Position>
            <AltitudeMeters>927</AltitudeMeters>
            <DistanceMeters>128205.67505227</DistanceMeters>
          </Trackpoint>
          <Trackpoint>
            <Time>2019-08-02T12:01:35.000Z</Time>
            <Position>
              <LatitudeDegrees>41.02444647811353206634521484375</LatitudeDegrees>
              <LongitudeDegrees>-4.2468416132032871246337890625</LongitudeDegrees>
            </Position>
            <AltitudeMeters>927.5999755859375</AltitudeMeters>
            <DistanceMeters>128270.06096342</DistanceMeters>
          </Trackpoint>
          <Trackpoint>
            <Time>2019-08-02T12:01:47.000Z</Time>
            <Position>
              <LatitudeDegrees>41.0249697603285312652587890625</LatitudeDegrees>
              <LongitudeDegrees>-4.24715534783899784088134765625</LongitudeDegrees>
            </Position>
            <AltitudeMeters>928</AltitudeMeters>
            <DistanceMeters>128333.98421296</DistanceMeters>
          </Trackpoint>
          <Trackpoint>
            <Time>2019-08-02T12:01:59.000Z</Time>
            <Position>
              <LatitudeDegrees>41.02550335228443145751953125</LatitudeDegrees>
              <LongitudeDegrees>-4.2474710941314697265625</LongitudeDegrees>
            </Position>
            <AltitudeMeters>928</AltitudeMeters>
            <DistanceMeters>128399.02331758</DistanceMeters>
          </Trackpoint>
          <Trackpoint>
            <Time>2019-08-02T12:02:10.000Z</Time>
            <Position>
              <LatitudeDegrees>41.0259769298136234283447265625</LatitudeDegrees>
              <LongitudeDegrees>-4.24775834195315837860107421875</LongitudeDegrees>
            </Position>
            <AltitudeMeters>927.4000244140625</AltitudeMeters>
            <DistanceMeters>128456.98976912</DistanceMeters>
          </Trackpoint>
          <Trackpoint>
            <Time>2019-08-02T12:02:14.000Z</Time>
            <Position>
              <LatitudeDegrees>41.02615605108439922332763671875</LatitudeDegrees>
              <LongitudeDegrees>-4.247864373028278350830078125</LongitudeDegrees>
            </Position>
            <AltitudeMeters>926</AltitudeMeters>
            <DistanceMeters>128478.82400499</DistanceMeters>
          </Trackpoint>
          <Trackpoint>
            <Time>2019-08-02T12:02:19.000Z</Time>
            <Position>
              <LatitudeDegrees>41.02637548930943012237548828125</LatitudeDegrees>
              <LongitudeDegrees>-4.24799672327935695648193359375</LongitudeDegrees>
            </Position>
            <AltitudeMeters>925</AltitudeMeters>
            <DistanceMeters>128505.65740219</DistanceMeters>
          </Trackpoint>
          <Trackpoint>
            <Time>2019-08-02T12:02:22.000Z</Time>
            <Position>
              <LatitudeDegrees>41.02650306187570095062255859375</LatitudeDegrees>
              <LongitudeDegrees>-4.2480734176933765411376953125</LongitudeDegrees>
            </Position>
            <AltitudeMeters>924</AltitudeMeters>
            <DistanceMeters>128521.24844538</DistanceMeters>
          </Trackpoint>
          <Trackpoint>
            <Time>2019-08-02T12:02:30.000Z</Time>
            <Position>
              <LatitudeDegrees>41.02684102021157741546630859375</LatitudeDegrees>
              <LongitudeDegrees>-4.24827550537884235382080078125</LongitudeDegrees>
            </Position>
            <AltitudeMeters>923.20001220703125</AltitudeMeters>
            <DistanceMeters>128562.51400809</DistanceMeters>
          </Trackpoint>
          <Trackpoint>
            <Time>2019-08-02T12:02:38.000Z</Time>
            <Position>
              <LatitudeDegrees>41.02716623805463314056396484375</LatitudeDegrees>
              <LongitudeDegrees>-4.248473905026912689208984375</LongitudeDegrees>
            </Position>
            <AltitudeMeters>922</AltitudeMeters>
            <DistanceMeters>128602.36069353</DistanceMeters>
          </Trackpoint>
          <Trackpoint>
            <Time>2019-08-02T12:02:43.000Z</Time>
            <Position>
              <LatitudeDegrees>41.0273679904639720916748046875</LatitudeDegrees>
              <LongitudeDegrees>-4.248596616089344024658203125</LongitudeDegrees>
            </Position>
            <AltitudeMeters>921.20001220703125</AltitudeMeters>
            <DistanceMeters>128627.06727378</DistanceMeters>
          </Trackpoint>
          <Trackpoint>
            <Time>2019-08-02T12:02:54.000Z</Time>
            <Position>
              <LatitudeDegrees>41.0278212837874889373779296875</LatitudeDegrees>
              <LongitudeDegrees>-4.248878918588161468505859375</LongitudeDegrees>
            </Position>
            <AltitudeMeters>920.4000244140625</AltitudeMeters>
            <DistanceMeters>128682.81046605</DistanceMeters>
          </Trackpoint>
          <Trackpoint>
            <Time>2019-08-02T12:03:03.000Z</Time>
            <Position>
              <LatitudeDegrees>41.02819536812603473663330078125</LatitudeDegrees>
              <LongitudeDegrees>-4.24910531379282474517822265625</LongitudeDegrees>
            </Position>
            <AltitudeMeters>919.20001220703125</AltitudeMeters>
            <DistanceMeters>128728.58089957</DistanceMeters>
          </Trackpoint>
          <Trackpoint>
            <Time>2019-08-02T12:03:08.000Z</Time>
            <Position>
              <LatitudeDegrees>41.02840944193303585052490234375</LatitudeDegrees>
              <LongitudeDegrees>-4.2492265999317169189453125</LongitudeDegrees>
            </Position>
            <AltitudeMeters>918.20001220703125</AltitudeMeters>
            <DistanceMeters>128754.49271742</DistanceMeters>
          </Trackpoint>
          <Trackpoint>
            <Time>2019-08-02T12:03:14.000Z</Time>
            <Position>
              <LatitudeDegrees>41.02865888737142086029052734375</LatitudeDegrees>
              <LongitudeDegrees>-4.2493736185133457183837890625</LongitudeDegrees>
            </Position>
            <AltitudeMeters>916.79998779296875</AltitudeMeters>
            <DistanceMeters>128784.87705426</DistanceMeters>
          </Trackpoint>
          <Trackpoint>
            <Time>2019-08-02T12:03:19.000Z</Time>
            <Position>
              <LatitudeDegrees>41.0288814269006252288818359375</LatitudeDegrees>
              <LongitudeDegrees>-4.2495050467550754547119140625</LongitudeDegrees>
            </Position>
            <AltitudeMeters>916</AltitudeMeters>
            <DistanceMeters>128811.99332308</DistanceMeters>
          </Trackpoint>
          <Trackpoint>
            <Time>2019-08-02T12:03:24.000Z</Time>
            <Position>
              <LatitudeDegrees>41.0291040502488613128662109375</LatitudeDegrees>
              <LongitudeDegrees>-4.2496361397206783294677734375</LongitudeDegrees>
            </Position>
            <AltitudeMeters>914.79998779296875</AltitudeMeters>
            <DistanceMeters>128839.10676114</DistanceMeters>
          </Trackpoint>
          <Trackpoint>
            <Time>2019-08-02T12:03:36.000Z</Time>
            <Position>
              <LatitudeDegrees>41.02963739074766635894775390625</LatitudeDegrees>
              <LongitudeDegrees>-4.24994945526123046875</LongitudeDegrees>
            </Position>
            <AltitudeMeters>914.20001220703125</AltitudeMeters>
            <DistanceMeters>128904.03671477</DistanceMeters>
          </Trackpoint>
          <Trackpoint>
            <Time>2019-08-02T12:03:40.000Z</Time>
            <Position>
              <LatitudeDegrees>41.02980989031493663787841796875</LatitudeDegrees>
              <LongitudeDegrees>-4.25005213357508182525634765625</LongitudeDegrees>
            </Position>
            <AltitudeMeters>914</AltitudeMeters>
            <DistanceMeters>128925.08336225</DistanceMeters>
          </Trackpoint>
          <Trackpoint>
            <Time>2019-08-02T12:03:48.000Z</Time>
            <Position>
              <LatitudeDegrees>41.03016444481909275054931640625</LatitudeDegrees>
              <LongitudeDegrees>-4.25026536919176578521728515625</LongitudeDegrees>
            </Position>
            <AltitudeMeters>913</AltitudeMeters>
            <DistanceMeters>128968.41741949</DistanceMeters>
          </Trackpoint>
          <Trackpoint>
            <Time>2019-08-02T12:03:52.000Z</Time>
            <Position>
              <LatitudeDegrees>41.030335016548633575439453125</LatitudeDegrees>
              <LongitudeDegrees>-4.2503678798675537109375</LongitudeDegrees>
            </Position>
            <AltitudeMeters>911.79998779296875</AltitudeMeters>
            <DistanceMeters>128989.26230419</DistanceMeters>
          </Trackpoint>
          <Trackpoint>
            <Time>2019-08-02T12:03:59.000Z</Time>
            <Position>
              <LatitudeDegrees>41.0305956937372684478759765625</LatitudeDegrees>
              <LongitudeDegrees>-4.25052118487656116485595703125</LongitudeDegrees>
            </Position>
            <AltitudeMeters>910.79998779296875</AltitudeMeters>
            <DistanceMeters>129021.00321831</DistanceMeters>
          </Trackpoint>
          <Trackpoint>
            <Time>2019-08-02T12:04:04.000Z</Time>
            <Position>
              <LatitudeDegrees>41.030793003737926483154296875</LatitudeDegrees>
              <LongitudeDegrees>-4.25063853152096271514892578125</LongitudeDegrees>
            </Position>
            <AltitudeMeters>909.5999755859375</AltitudeMeters>
            <DistanceMeters>129045.07313053</DistanceMeters>
          </Trackpoint>
          <Trackpoint>
            <Time>2019-08-02T12:04:10.000Z</Time>
            <Position>
              <LatitudeDegrees>41.03104370646178722381591796875</LatitudeDegrees>
              <LongitudeDegrees>-4.250785969197750091552734375</LongitudeDegrees>
            </Position>
            <AltitudeMeters>908.5999755859375</AltitudeMeters>
            <DistanceMeters>129075.599344</DistanceMeters>
          </Trackpoint>
          <Trackpoint>
            <Time>2019-08-02T12:04:16.000Z</Time>
            <Position>
              <LatitudeDegrees>41.031298935413360595703125</LatitudeDegrees>
              <LongitudeDegrees>-4.250940196216106414794921875</LongitudeDegrees>
            </Position>
            <AltitudeMeters>907.5999755859375</AltitudeMeters>
            <DistanceMeters>129106.81876537</DistanceMeters>
          </Trackpoint>
          <Trackpoint>
            <Time>2019-08-02T12:04:27.000Z</Time>
            <Position>
              <LatitudeDegrees>41.03179740719497203826904296875</LatitudeDegrees>
              <LongitudeDegrees>-4.25123632885515689849853515625</LongitudeDegrees>
            </Position>
            <AltitudeMeters>908.5999755859375</AltitudeMeters>
            <DistanceMeters>129167.61618589</DistanceMeters>
          </Trackpoint>
          <Trackpoint>
            <Time>2019-08-02T12:04:39.000Z</Time>
            <Position>
              <LatitudeDegrees>41.03232647292315959930419921875</LatitudeDegrees>
              <LongitudeDegrees>-4.251551069319248199462890625</LongitudeDegrees>
            </Position>
            <AltitudeMeters>908.20001220703125</AltitudeMeters>
            <DistanceMeters>129232.15982451</DistanceMeters>
          </Trackpoint>
          <Trackpoint>
            <Time>2019-08-02T12:04:50.000Z</Time>
            <Position>
              <LatitudeDegrees>41.0328360088169574737548828125</LatitudeDegrees>
              <LongitudeDegrees>-4.25184921361505985260009765625</LongitudeDegrees>
            </Position>
            <AltitudeMeters>907.4000244140625</AltitudeMeters>
            <DistanceMeters>129294.15075491</DistanceMeters>
          </Trackpoint>
          <Trackpoint>
            <Time>2019-08-02T12:04:58.000Z</Time>
            <Position>
              <LatitudeDegrees>41.03319785557687282562255859375</LatitudeDegrees>
              <LongitudeDegrees>-4.25206865184009075164794921875</LongitudeDegrees>
            </Position>
            <AltitudeMeters>906.79998779296875</AltitudeMeters>
            <DistanceMeters>129338.43901514</DistanceMeters>
          </Trackpoint>
          <Trackpoint>
            <Time>2019-08-02T12:05:09.000Z</Time>
            <Position>
              <LatitudeDegrees>41.033695153892040252685546875</LatitudeDegrees>
              <LongitudeDegrees>-4.25235338509082794189453125</LongitudeDegrees>
            </Position>
            <AltitudeMeters>906.20001220703125</AltitudeMeters>
            <DistanceMeters>129398.73105038</DistanceMeters>
          </Trackpoint>
          <Trackpoint>
            <Time>2019-08-02T12:05:12.000Z</Time>
            <Position>
              <LatitudeDegrees>41.0338290967047214508056640625</LatitudeDegrees>
              <LongitudeDegrees>-4.2524343542754650115966796875</LongitudeDegrees>
            </Position>
            <AltitudeMeters>905.79998779296875</AltitudeMeters>
            <DistanceMeters>129415.11592672</DistanceMeters>
          </Trackpoint>
          <Trackpoint>
            <Time>2019-08-02T12:05:21.000Z</Time>
            <Position>
              <LatitudeDegrees>41.03422815911471843719482421875</LatitudeDegrees>
              <LongitudeDegrees>-4.25266720354557037353515625</LongitudeDegrees>
            </Position>
            <AltitudeMeters>907.4000244140625</AltitudeMeters>
            <DistanceMeters>129463.64416341</DistanceMeters>
          </Trackpoint>
          <Trackpoint>
            <Time>2019-08-02T12:05:37.000Z</Time>
            <Position>
              <LatitudeDegrees>41.03483635000884532928466796875</LatitudeDegrees>
              <LongitudeDegrees>-4.25304883159697055816650390625</LongitudeDegrees>
            </Position>
            <AltitudeMeters>918.4000244140625</AltitudeMeters>
            <DistanceMeters>129538.53673001</DistanceMeters>
          </Trackpoint>
          <Trackpoint>
            <Time>2019-08-02T12:05:40.000Z</Time>
            <Position>
              <LatitudeDegrees>41.0350012220442295074462890625</LatitudeDegrees>
              <LongitudeDegrees>-4.25314438529312610626220703125</LongitudeDegrees>
            </Position>
            <AltitudeMeters>919.5999755859375</AltitudeMeters>
            <DistanceMeters>129558.56415959</DistanceMeters>
          </Trackpoint>
          <Trackpoint>
            <Time>2019-08-02T12:05:50.000Z</Time>
            <Position>
              <LatitudeDegrees>41.03551276959478855133056640625</LatitudeDegrees>
              <LongitudeDegrees>-4.2534338124096393585205078125</LongitudeDegrees>
            </Position>
            <AltitudeMeters>919.79998779296875</AltitudeMeters>
            <DistanceMeters>129620.46879464</DistanceMeters>
          </Trackpoint>
          <Trackpoint>
            <Time>2019-08-02T12:06:01.000Z</Time>
            <Position>
              <LatitudeDegrees>41.03605113923549652099609375</LatitudeDegrees>
              <LongitudeDegrees>-4.2537419311702251434326171875</LongitudeDegrees>
            </Position>
            <AltitudeMeters>918.5999755859375</AltitudeMeters>
            <DistanceMeters>129685.73561593</DistanceMeters>
          </Trackpoint>
          <Trackpoint>
            <Time>2019-08-02T12:06:06.000Z</Time>
            <Position>
              <LatitudeDegrees>41.03630469180643558502197265625</LatitudeDegrees>
              <LongitudeDegrees>-4.25389490090310573577880859375</LongitudeDegrees>
            </Position>
            <AltitudeMeters>917.79998779296875</AltitudeMeters>
            <DistanceMeters>129716.74142181</DistanceMeters>
          </Trackpoint>
          <Trackpoint>
            <Time>2019-08-02T12:06:11.000Z</Time>
            <Position>
              <LatitudeDegrees>41.036549024283885955810546875</LatitudeDegrees>
              <LongitudeDegrees>-4.25404074601829051971435546875</LongitudeDegrees>
            </Position>
            <AltitudeMeters>916.5999755859375</AltitudeMeters>
            <DistanceMeters>129746.5654316</DistanceMeters>
          </Trackpoint>
          <Trackpoint>
            <Time>2019-08-02T12:06:17.000Z</Time>
            <Position>
              <LatitudeDegrees>41.0368412174284458160400390625</LatitudeDegrees>
              <LongitudeDegrees>-4.254211485385894775390625</LongitudeDegrees>
            </Position>
            <AltitudeMeters>915.5999755859375</AltitudeMeters>
            <DistanceMeters>129782.10593093</DistanceMeters>
          </Trackpoint>
          <Trackpoint>
            <Time>2019-08-02T12:06:21.000Z</Time>
            <Position>
              <LatitudeDegrees>41.0370346717536449432373046875</LatitudeDegrees>
              <LongitudeDegrees>-4.254324138164520263671875</LongitudeDegrees>
            </Position>
            <AltitudeMeters>914.4000244140625</AltitudeMeters>
            <DistanceMeters>129805.62326692</DistanceMeters>
          </Trackpoint>
          <Trackpoint>
            <Time>2019-08-02T12:06:28.000Z</Time>
            <Position>
              <LatitudeDegrees>41.03738377802073955535888671875</LatitudeDegrees>
              <LongitudeDegrees>-4.25453242845833301544189453125</LongitudeDegrees>
            </Position>
            <AltitudeMeters>913.20001220703125</AltitudeMeters>
            <DistanceMeters>129848.23297438</DistanceMeters>
          </Trackpoint>
          <Trackpoint>
            <Time>2019-08-02T12:06:32.000Z</Time>
            <Position>
              <LatitudeDegrees>41.03758896701037883758544921875</LatitudeDegrees>
              <LongitudeDegrees>-4.2546528764069080352783203125</LongitudeDegrees>
            </Position>
            <AltitudeMeters>912.4000244140625</AltitudeMeters>
            <DistanceMeters>129873.20945874</DistanceMeters>
          </Trackpoint>
          <Trackpoint>
            <Time>2019-08-02T12:06:34.000Z</Time>
            <Position>
              <LatitudeDegrees>41.0376904718577861785888671875</LatitudeDegrees>
              <LongitudeDegrees>-4.25471297465264797210693359375</LongitudeDegrees>
            </Position>
            <AltitudeMeters>911.4000244140625</AltitudeMeters>
            <DistanceMeters>129885.58265219</DistanceMeters>
          </Trackpoint>
          <Trackpoint>
            <Time>2019-08-02T12:06:36.000Z</Time>
            <Position>
              <LatitudeDegrees>41.0377917252480983734130859375</LatitudeDegrees>
              <LongitudeDegrees>-4.25477047450840473175048828125</LongitudeDegrees>
            </Position>
            <AltitudeMeters>910.4000244140625</AltitudeMeters>
            <DistanceMeters>129897.8429398</DistanceMeters>
          </Trackpoint>
          <Trackpoint>
            <Time>2019-08-02T12:06:39.000Z</Time>
            <Position>
              <LatitudeDegrees>41.037942431867122650146484375</LatitudeDegrees>
              <LongitudeDegrees>-4.25486016087234020233154296875</LongitudeDegrees>
            </Position>
            <AltitudeMeters>908.79998779296875</AltitudeMeters>
            <DistanceMeters>129916.22931987</DistanceMeters>
          </Trackpoint>
          <Trackpoint>
            <Time>2019-08-02T12:06:43.000Z</Time>
            <Position>
              <LatitudeDegrees>41.03814016096293926239013671875</LatitudeDegrees>
              <LongitudeDegrees>-4.25498060882091522216796875</LongitudeDegrees>
            </Position>
            <AltitudeMeters>907.5999755859375</AltitudeMeters>
            <DistanceMeters>129940.44901776</DistanceMeters>
          </Trackpoint>
          <Trackpoint>
            <Time>2019-08-02T12:06:46.000Z</Time>
            <Position>
              <LatitudeDegrees>41.038293801248073577880859375</LatitudeDegrees>
              <LongitudeDegrees>-4.25506643950939178466796875</LongitudeDegrees>
            </Position>
            <AltitudeMeters>906.5999755859375</AltitudeMeters>
            <DistanceMeters>129959.0057668</DistanceMeters>
          </Trackpoint>
          <Trackpoint>
            <Time>2019-08-02T12:06:51.000Z</Time>
            <Position>
              <LatitudeDegrees>41.03854852728545665740966796875</LatitudeDegrees>
              <LongitudeDegrees>-4.25521773286163806915283203125</LongitudeDegrees>
            </Position>
            <AltitudeMeters>905.79998779296875</AltitudeMeters>
            <DistanceMeters>129990.07238185</DistanceMeters>
          </Trackpoint>
          <Trackpoint>
            <Time>2019-08-02T12:06:54.000Z</Time>
            <Position>
              <LatitudeDegrees>41.03869856335222721099853515625</LatitudeDegrees>
              <LongitudeDegrees>-4.25531043671071529388427734375</LongitudeDegrees>
            </Position>
            <AltitudeMeters>904.5999755859375</AltitudeMeters>
            <DistanceMeters>130008.49629494</DistanceMeters>
          </Trackpoint>
          <Trackpoint>
            <Time>2019-08-02T12:06:57.000Z</Time>
            <Position>
              <LatitudeDegrees>41.0388508625328540802001953125</LatitudeDegrees>
              <LongitudeDegrees>-4.2554037272930145263671875</LongitudeDegrees>
            </Position>
            <AltitudeMeters>903.5999755859375</AltitudeMeters>
            <DistanceMeters>130027.16946745</DistanceMeters>
          </Trackpoint>
          <Trackpoint>
            <Time>2019-08-02T12:07:00.000Z</Time>
            <Position>
              <LatitudeDegrees>41.03900483809411525726318359375</LatitudeDegrees>
              <LongitudeDegrees>-4.2554940842092037200927734375</LongitudeDegrees>
            </Position>
            <AltitudeMeters>902.20001220703125</AltitudeMeters>
            <DistanceMeters>130045.91094241</DistanceMeters>
          </Trackpoint>
          <Trackpoint>
            <Time>2019-08-02T12:07:03.000Z</Time>
            <Position>
              <LatitudeDegrees>41.0391564667224884033203125</LatitudeDegrees>
              <LongitudeDegrees>-4.25558469258248805999755859375</LongitudeDegrees>
            </Position>
            <AltitudeMeters>901.20001220703125</AltitudeMeters>
            <DistanceMeters>130064.42286832</DistanceMeters>
          </Trackpoint>
          <Trackpoint>
            <Time>2019-08-02T12:07:06.000Z</Time>
            <Position>
              <LatitudeDegrees>41.03930809535086154937744140625</LatitudeDegrees>
              <LongitudeDegrees>-4.25567622296512126922607421875</LongitudeDegrees>
            </Position>
            <AltitudeMeters>900.20001220703125</AltitudeMeters>
            <DistanceMeters>130082.96598701</DistanceMeters>
          </Trackpoint>
          <Trackpoint>
            <Time>2019-08-02T12:07:09.000Z</Time>
            <Position>
              <LatitudeDegrees>41.039444468915462493896484375</LatitudeDegrees>
              <LongitudeDegrees>-4.25576205365359783172607421875</LongitudeDegrees>
            </Position>
            <AltitudeMeters>899.4000244140625</AltitudeMeters>
            <DistanceMeters>130099.76798927</DistanceMeters>
          </Trackpoint>
          <Trackpoint>
            <Time>2019-08-02T12:07:15.000Z</Time>
            <Position>
              <LatitudeDegrees>41.039743535220623016357421875</LatitudeDegrees>
              <LongitudeDegrees>-4.25593421794474124908447265625</LongitudeDegrees>
            </Position>
            <AltitudeMeters>898.20001220703125</AltitudeMeters>
            <DistanceMeters>130136.0571226</DistanceMeters>
          </Trackpoint>
          <Trackpoint>
            <Time>2019-08-02T12:07:23.000Z</Time>
            <Position>
              <LatitudeDegrees>41.0401480458676815032958984375</LatitudeDegrees>
              <LongitudeDegrees>-4.25617243163287639617919921875</LongitudeDegrees>
            </Position>
            <AltitudeMeters>897.20001220703125</AltitudeMeters>
            <DistanceMeters>130185.3213946</DistanceMeters>
          </Trackpoint>
          <Trackpoint>
            <Time>2019-08-02T12:07:33.000Z</Time>
            <Position>
              <LatitudeDegrees>41.0406477749347686767578125</LatitudeDegrees>
              <LongitudeDegrees>-4.25646261312067508697509765625</LongitudeDegrees>
            </Position>
            <AltitudeMeters>897</AltitudeMeters>
            <DistanceMeters>130246.04294459</DistanceMeters>
          </Trackpoint>
          <Trackpoint>
            <Time>2019-08-02T12:07:42.000Z</Time>
            <Position>
              <LatitudeDegrees>41.041079945862293243408203125</LatitudeDegrees>
              <LongitudeDegrees>-4.25672044046223163604736328125</LongitudeDegrees>
            </Position>
            <AltitudeMeters>896</AltitudeMeters>
            <DistanceMeters>130298.78979059</DistanceMeters>
          </Trackpoint>
          <Trackpoint>
            <Time>2019-08-02T12:07:49.000Z</Time>
            <Position>
              <LatitudeDegrees>41.0414053313434123992919921875</LatitudeDegrees>
              <LongitudeDegrees>-4.2569112963974475860595703125</LongitudeDegrees>
            </Position>
            <AltitudeMeters>894.79998779296875</AltitudeMeters>
            <DistanceMeters>130338.39165363</DistanceMeters>
          </Trackpoint>
          <Trackpoint>
            <Time>2019-08-02T12:07:55.000Z</Time>
            <Position>
              <LatitudeDegrees>41.0416886396706104278564453125</LatitudeDegrees>
              <LongitudeDegrees>-4.2570796050131320953369140625</LongitudeDegrees>
            </Position>
            <AltitudeMeters>894</AltitudeMeters>
            <DistanceMeters>130372.94507094</DistanceMeters>
          </Trackpoint>
          <Trackpoint>
            <Time>2019-08-02T12:08:02.000Z</Time>
            <Position>
              <LatitudeDegrees>41.04200857691466808319091796875</LatitudeDegrees>
              <LongitudeDegrees>-4.257270209491252899169921875</LongitudeDegrees>
            </Position>
            <AltitudeMeters>892.79998779296875</AltitudeMeters>
            <DistanceMeters>130411.98428432</DistanceMeters>
          </Trackpoint>
          <Trackpoint>
            <Time>2019-08-02T12:08:11.000Z</Time>
            <Position>
              <LatitudeDegrees>41.04242742061614990234375</LatitudeDegrees>
              <LongitudeDegrees>-4.25751739181578159332275390625</LongitudeDegrees>
            </Position>
            <AltitudeMeters>891.79998779296875</AltitudeMeters>
            <DistanceMeters>130463.01194881</DistanceMeters>
          </Trackpoint>
          <Trackpoint>
            <Time>2019-08-02T12:08:16.000Z</Time>
            <Position>
              <LatitudeDegrees>41.04266085661947727203369140625</LatitudeDegrees>
              <LongitudeDegrees>-4.25765887834131717681884765625</LongitudeDegrees>
            </Position>
            <AltitudeMeters>890.4000244140625</AltitudeMeters>
            <DistanceMeters>130491.57976722</DistanceMeters>
          </Trackpoint>
          <Trackpoint>
            <Time>2019-08-02T12:08:21.000Z</Time>
            <Position>
              <LatitudeDegrees>41.04289001785218715667724609375</LatitudeDegrees>
              <LongitudeDegrees>-4.25779826939105987548828125</LongitudeDegrees>
            </Position>
            <AltitudeMeters>889.4000244140625</AltitudeMeters>
            <DistanceMeters>130519.64178508</DistanceMeters>
          </Trackpoint>
          <Trackpoint>
            <Time>2019-08-02T12:08:25.000Z</Time>
            <Position>
              <LatitudeDegrees>41.043064780533313751220703125</LatitudeDegrees>
              <LongitudeDegrees>-4.25790681503713130950927734375</LongitudeDegrees>
            </Position>
            <AltitudeMeters>888.20001220703125</AltitudeMeters>
            <DistanceMeters>130541.12160644</DistanceMeters>
          </Trackpoint>
          <Trackpoint>
            <Time>2019-08-02T12:08:32.000Z</Time>
            <Position>
              <LatitudeDegrees>41.04338488541543483734130859375</LatitudeDegrees>
              <LongitudeDegrees>-4.2580964975059032440185546875</LongitudeDegrees>
            </Position>
            <AltitudeMeters>887</AltitudeMeters>
            <DistanceMeters>130580.14601332</DistanceMeters>
          </Trackpoint>
          <Trackpoint>
            <Time>2019-08-02T12:08:38.000Z</Time>
            <Position>
              <LatitudeDegrees>41.043666936457157135009765625</LatitudeDegrees>
              <LongitudeDegrees>-4.25825801678001880645751953125</LongitudeDegrees>
            </Position>
            <AltitudeMeters>885.5999755859375</AltitudeMeters>
            <DistanceMeters>130614.34176962</DistanceMeters>
          </Trackpoint>
          <Trackpoint>
            <Time>2019-08-02T12:08:44.000Z</Time>
            <Position>
              <LatitudeDegrees>41.0439457185566425323486328125</LatitudeDegrees>
              <LongitudeDegrees>-4.25840117968618869781494140625</LongitudeDegrees>
            </Position>
            <AltitudeMeters>884.5999755859375</AltitudeMeters>
            <DistanceMeters>130647.61686321</DistanceMeters>
          </Trackpoint>
          <Trackpoint>
            <Time>2019-08-02T12:08:55.000Z</Time>
            <Position>
              <LatitudeDegrees>41.0444818250834941864013671875</LatitudeDegrees>
              <LongitudeDegrees>-4.25860318355262279510498046875</LongitudeDegrees>
            </Position>
            <AltitudeMeters>884</AltitudeMeters>
            <DistanceMeters>130709.64929501</DistanceMeters>
          </Trackpoint>
          <Trackpoint>
            <Time>2019-08-02T12:09:06.000Z</Time>
            <Position>
              <LatitudeDegrees>41.045037545263767242431640625</LatitudeDegrees>
              <LongitudeDegrees>-4.25872958265244960784912109375</LongitudeDegrees>
            </Position>
            <AltitudeMeters>884.20001220703125</AltitudeMeters>
            <DistanceMeters>130772.40550124</DistanceMeters>
          </Trackpoint>
          <Trackpoint>
            <Time>2019-08-02T12:09:17.000Z</Time>
            <Position>
              <LatitudeDegrees>41.045582033693790435791015625</LatitudeDegrees>
              <LongitudeDegrees>-4.2587479390203952789306640625</LongitudeDegrees>
            </Position>
            <AltitudeMeters>885.79998779296875</AltitudeMeters>
            <DistanceMeters>130833.02762964</DistanceMeters>
          </Trackpoint>
          <Trackpoint>
            <Time>2019-08-02T12:09:23.000Z</Time>
            <Position>
              <LatitudeDegrees>41.04587263427674770355224609375</LatitudeDegrees>
              <LongitudeDegrees>-4.25871868617832660675048828125</LongitudeDegrees>
            </Position>
            <AltitudeMeters>886.79998779296875</AltitudeMeters>
            <DistanceMeters>130865.46502329</DistanceMeters>
          </Trackpoint>
          <Trackpoint>
            <Time>2019-08-02T12:09:34.000Z</Time>
            <Position>
              <LatitudeDegrees>41.046409495174884796142578125</LatitudeDegrees>
              <LongitudeDegrees>-4.258605279028415679931640625</LongitudeDegrees>
            </Position>
            <AltitudeMeters>887.5999755859375</AltitudeMeters>
            <DistanceMeters>130925.97234627</DistanceMeters>
          </Trackpoint>
          <Trackpoint>
            <Time>2019-08-02T12:09:45.000Z</Time>
            <Position>
              <LatitudeDegrees>41.04694484733045101165771484375</LatitudeDegrees>
              <LongitudeDegrees>-4.25843956880271434783935546875</LongitudeDegrees>
            </Position>
            <AltitudeMeters>886.5999755859375</AltitudeMeters>
            <DistanceMeters>130987.16017973</DistanceMeters>
          </Trackpoint>
          <Trackpoint>
            <Time>2019-08-02T12:09:54.000Z</Time>
            <Position>
              <LatitudeDegrees>41.04732974432408809661865234375</LatitudeDegrees>
              <LongitudeDegrees>-4.25831568427383899688720703125</LongitudeDegrees>
            </Position>
            <AltitudeMeters>885.5999755859375</AltitudeMeters>
            <DistanceMeters>131031.24407522</DistanceMeters>
          </Trackpoint>
          <Trackpoint>
            <Time>2019-08-02T12:10:00.000Z</Time>
            <Position>
              <LatitudeDegrees>41.04766778647899627685546875</LatitudeDegrees>
              <LongitudeDegrees>-4.2582098208367824554443359375</LongitudeDegrees>
            </Position>
            <AltitudeMeters>884.5999755859375</AltitudeMeters>
            <DistanceMeters>131069.90406801</DistanceMeters>
          </Trackpoint>
          <Trackpoint>
            <Time>2019-08-02T12:10:07.000Z</Time>
            <Position>
              <LatitudeDegrees>41.04800842702388763427734375</LatitudeDegrees>
              <LongitudeDegrees>-4.2581020295619964599609375</LongitudeDegrees>
            </Position>
            <AltitudeMeters>883.4000244140625</AltitudeMeters>
            <DistanceMeters>131108.88274747</DistanceMeters>
          </Trackpoint>
          <Trackpoint>
            <Time>2019-08-02T12:10:17.000Z</Time>
            <Position>
              <LatitudeDegrees>41.04848879389464855194091796875</LatitudeDegrees>
              <LongitudeDegrees>-4.25794905982911586761474609375</LongitudeDegrees>
            </Position>
            <AltitudeMeters>882.20001220703125</AltitudeMeters>
            <DistanceMeters>131163.86865653</DistanceMeters>
          </Trackpoint>
          <Trackpoint>
            <Time>2019-08-02T12:10:29.000Z</Time>
            <Position>
              <LatitudeDegrees>41.0490469448268413543701171875</LatitudeDegrees>
              <LongitudeDegrees>-4.2577729560434818267822265625</LongitudeDegrees>
            </Position>
            <AltitudeMeters>881.79998779296875</AltitudeMeters>
            <DistanceMeters>131227.72639647</DistanceMeters>
          </Trackpoint>
          <Trackpoint>
            <Time>2019-08-02T12:10:41.000Z</Time>
            <Position>
              <LatitudeDegrees>41.04961532168090343475341796875</LatitudeDegrees>
              <LongitudeDegrees>-4.25759173929691314697265625</LongitudeDegrees>
            </Position>
            <AltitudeMeters>881.5999755859375</AltitudeMeters>
            <DistanceMeters>131292.79097337</DistanceMeters>
          </Trackpoint>
          <Trackpoint>
            <Time>2019-08-02T12:10:53.000Z</Time>
            <Position>
              <LatitudeDegrees>41.05018076486885547637939453125</LatitudeDegrees>
              <LongitudeDegrees>-4.257406331598758697509765625</LongitudeDegrees>
            </Position>
            <AltitudeMeters>882.20001220703125</AltitudeMeters>
            <DistanceMeters>131357.6214824</DistanceMeters>
          </Trackpoint>
          <Trackpoint>
            <Time>2019-08-02T12:11:05.000Z</Time>
            <Position>
              <LatitudeDegrees>41.050744615495204925537109375</LatitudeDegrees>
              <LongitudeDegrees>-4.2572220973670482635498046875</LongitudeDegrees>
            </Position>
            <AltitudeMeters>882.4000244140625</AltitudeMeters>
            <DistanceMeters>131422.25627571</DistanceMeters>
          </Trackpoint>
          <Trackpoint>
            <Time>2019-08-02T12:11:17.000Z</Time>
            <Position>
              <LatitudeDegrees>41.05130393989384174346923828125</LatitudeDegrees>
              <LongitudeDegrees>-4.2570430599153041839599609375</LongitudeDegrees>
            </Position>
            <AltitudeMeters>881.79998779296875</AltitudeMeters>
            <DistanceMeters>131486.29835937</DistanceMeters>
          </Trackpoint>
          <Trackpoint>
            <Time>2019-08-02T12:11:25.000Z</Time>
            <Position>
              <LatitudeDegrees>41.051676012575626373291015625</LatitudeDegrees>
              <LongitudeDegrees>-4.2569243721663951873779296875</LongitudeDegrees>
            </Position>
            <AltitudeMeters>880.79998779296875</AltitudeMeters>
            <DistanceMeters>131528.89195746</DistanceMeters>
          </Trackpoint>
          <Trackpoint>
            <Time>2019-08-02T12:11:30.000Z</Time>
            <Position>
              <LatitudeDegrees>41.0519222728908061981201171875</LatitudeDegrees>
              <LongitudeDegrees>-4.2568469233810901641845703125</LongitudeDegrees>
            </Position>
            <AltitudeMeters>879.79998779296875</AltitudeMeters>
            <DistanceMeters>131557.0615687</DistanceMeters>
          </Trackpoint>
          <Trackpoint>
            <Time>2019-08-02T12:11:40.000Z</Time>
            <Position>
              <LatitudeDegrees>41.05239761061966419219970703125</LatitudeDegrees>
              <LongitudeDegrees>-4.25670795142650604248046875</LongitudeDegrees>
            </Position>
            <AltitudeMeters>878.79998779296875</AltitudeMeters>
            <DistanceMeters>131611.23813123</DistanceMeters>
          </Trackpoint>
          <Trackpoint>
            <Time>2019-08-02T12:11:52.000Z</Time>
            <Position>
              <LatitudeDegrees>41.05295483954250812530517578125</LatitudeDegrees>
              <LongitudeDegrees>-4.25659253261983394622802734375</LongitudeDegrees>
            </Position>
            <AltitudeMeters>879</AltitudeMeters>
            <DistanceMeters>131674.01088278</DistanceMeters>
          </Trackpoint>
          <Trackpoint>
            <Time>2019-08-02T12:11:56.000Z</Time>
            <Position>
              <LatitudeDegrees>41.05313421227037906646728515625</LatitudeDegrees>
              <LongitudeDegrees>-4.2565763555467128753662109375</LongitudeDegrees>
            </Position>
            <AltitudeMeters>879.79998779296875</AltitudeMeters>
            <DistanceMeters>131694.02139701</DistanceMeters>
          </Trackpoint>
          <Trackpoint>
            <Time>2019-08-02T12:12:02.000Z</Time>
            <Position>
              <LatitudeDegrees>41.05340025387704372406005859375</LatitudeDegrees>
              <LongitudeDegrees>-4.25657057203352451324462890625</LongitudeDegrees>
            </Position>
            <AltitudeMeters>880.79998779296875</AltitudeMeters>
            <DistanceMeters>131723.6363624</DistanceMeters>
          </Trackpoint>
          <Trackpoint>
            <Time>2019-08-02T12:12:05.000Z</Time>
            <Position>
              <LatitudeDegrees>41.05353302322328090667724609375</LatitudeDegrees>
              <LongitudeDegrees>-4.256575517356395721435546875</LongitudeDegrees>
            </Position>
            <AltitudeMeters>882</AltitudeMeters>
            <DistanceMeters>131738.41966075</DistanceMeters>
          </Trackpoint>
          <Trackpoint>
            <Time>2019-08-02T12:12:08.000Z</Time>
            <Position>
              <LatitudeDegrees>41.0536673851311206817626953125</LatitudeDegrees>
              <LongitudeDegrees>-4.2565874196588993072509765625</LongitudeDegrees>
            </Position>
            <AltitudeMeters>883</AltitudeMeters>
            <DistanceMeters>131753.40739512</DistanceMeters>
          </Trackpoint>
          <Trackpoint>
            <Time>2019-08-02T12:12:13.000Z</Time>
            <Position>
              <LatitudeDegrees>41.05389042757451534271240234375</LatitudeDegrees>
              <LongitudeDegrees>-4.25662077963352203369140625</LongitudeDegrees>
            </Position>
            <AltitudeMeters>884.20001220703125</AltitudeMeters>
            <DistanceMeters>131778.38984423</DistanceMeters>
          </Trackpoint>
          <Trackpoint>
            <Time>2019-08-02T12:12:16.000Z</Time>
            <Position>
              <LatitudeDegrees>41.05401967652142047882080078125</LatitudeDegrees>
              <LongitudeDegrees>-4.25664500333368778228759765625</LongitudeDegrees>
            </Position>
            <AltitudeMeters>885.20001220703125</AltitudeMeters>
            <DistanceMeters>131792.91836917</DistanceMeters>
          </Trackpoint>
          <Trackpoint>
            <Time>2019-08-02T12:12:20.000Z</Time>
            <Position>
              <LatitudeDegrees>41.0541984625160694122314453125</LatitudeDegrees>
              <LongitudeDegrees>-4.2566856555640697479248046875</LongitudeDegrees>
            </Position>
            <AltitudeMeters>886.4000244140625</AltitudeMeters>
            <DistanceMeters>131813.1081359</DistanceMeters>
          </Trackpoint>
          <Trackpoint>
            <Time>2019-08-02T12:12:23.000Z</Time>
            <Position>
              <LatitudeDegrees>41.0543377697467803955078125</LatitudeDegrees>
              <LongitudeDegrees>-4.25672697834670543670654296875</LongitudeDegrees>
            </Position>
            <AltitudeMeters>887.4000244140625</AltitudeMeters>
            <DistanceMeters>131828.99664801</DistanceMeters>
          </Trackpoint>
          <Trackpoint>
            <Time>2019-08-02T12:12:27.000Z</Time>
            <Position>
              <LatitudeDegrees>41.05452728457748889923095703125</LatitudeDegrees>
              <LongitudeDegrees>-4.25679235719144344329833984375</LongitudeDegrees>
            </Position>
            <AltitudeMeters>888.79998779296875</AltitudeMeters>
            <DistanceMeters>131850.79218038</DistanceMeters>
          </Trackpoint>
          <Trackpoint>
            <Time>2019-08-02T12:12:32.000Z</Time>
            <Position>
              <LatitudeDegrees>41.0547533445060253143310546875</LatitudeDegrees>
              <LongitudeDegrees>-4.25688539631664752960205078125</LongitudeDegrees>
            </Position>
            <AltitudeMeters>889.79998779296875</AltitudeMeters>
            <DistanceMeters>131877.1370409</DistanceMeters>
          </Trackpoint>
          <Trackpoint>
            <Time>2019-08-02T12:12:42.000Z</Time>
            <Position>
              <LatitudeDegrees>41.0551665723323822021484375</LatitudeDegrees>
              <LongitudeDegrees>-4.257092177867889404296875</LongitudeDegrees>
            </Position>
            <AltitudeMeters>891</AltitudeMeters>
            <DistanceMeters>131926.29571132</DistanceMeters>
          </Trackpoint>
          <Trackpoint>
            <Time>2019-08-02T12:12:51.000Z</Time>
            <Position>
              <LatitudeDegrees>41.055534370243549346923828125</LatitudeDegrees>
              <LongitudeDegrees>-4.2573498375713825225830078125</LongitudeDegrees>
            </Position>
            <AltitudeMeters>889.79998779296875</AltitudeMeters>
            <DistanceMeters>131972.59322978</DistanceMeters>
          </Trackpoint>
          <Trackpoint>
            <Time>2019-08-02T12:12:56.000Z</Time>
            <Position>
              <LatitudeDegrees>41.05573377572000026702880859375</LatitudeDegrees>
              <LongitudeDegrees>-4.2575100995600223541259765625</LongitudeDegrees>
            </Position>
            <AltitudeMeters>888.4000244140625</AltitudeMeters>
            <DistanceMeters>131998.5452673</DistanceMeters>
          </Trackpoint>
          <Trackpoint>
            <Time>2019-08-02T12:13:00.000Z</Time>
            <Position>
              <LatitudeDegrees>41.05589252896606922149658203125</LatitudeDegrees>
              <LongitudeDegrees>-4.2576425336301326751708984375</LongitudeDegrees>
            </Position>
            <AltitudeMeters>887.20001220703125</AltitudeMeters>
            <DistanceMeters>132019.42002164</DistanceMeters>
          </Trackpoint>
          <Trackpoint>
            <Time>2019-08-02T12:13:03.000Z</Time>
            <Position>
              <LatitudeDegrees>41.056013815104961395263671875</LatitudeDegrees>
              <LongitudeDegrees>-4.2577427811920642852783203125</LongitudeDegrees>
            </Position>
            <AltitudeMeters>886.20001220703125</AltitudeMeters>
            <DistanceMeters>132035.32671023</DistanceMeters>
          </Trackpoint>
          <Trackpoint>
            <Time>2019-08-02T12:13:06.000Z</Time>
            <Position>
              <LatitudeDegrees>41.05613443069159984588623046875</LatitudeDegrees>
              <LongitudeDegrees>-4.25784629769623279571533203125</LongitudeDegrees>
            </Position>
            <AltitudeMeters>884.79998779296875</AltitudeMeters>
            <DistanceMeters>132051.317761</DistanceMeters>
          </Trackpoint>
          <Trackpoint>
            <Time>2019-08-02T12:13:09.000Z</Time>
            <Position>
              <LatitudeDegrees>41.05625412426888942718505859375</LatitudeDegrees>
              <LongitudeDegrees>-4.2579479701817035675048828125</LongitudeDegrees>
            </Position>
            <AltitudeMeters>883.4000244140625</AltitudeMeters>
            <DistanceMeters>132067.13878148</DistanceMeters>
          </Trackpoint>
          <Trackpoint>
            <Time>2019-08-02T12:13:12.000Z</Time>
            <Position>
              <LatitudeDegrees>41.05637365020811557769775390625</LatitudeDegrees>
              <LongitudeDegrees>-4.25805039703845977783203125</LongitudeDegrees>
            </Position>
            <AltitudeMeters>882.4000244140625</AltitudeMeters>
            <DistanceMeters>132082.97834094</DistanceMeters>
          </Trackpoint>
          <Trackpoint>
            <Time>2019-08-02T12:13:15.000Z</Time>
            <Position>
              <LatitudeDegrees>41.05649468488991260528564453125</LatitudeDegrees>
              <LongitudeDegrees>-4.2581427656114101409912109375</LongitudeDegrees>
            </Position>
            <AltitudeMeters>881.20001220703125</AltitudeMeters>
            <DistanceMeters>132098.52123755</DistanceMeters>
          </Trackpoint>
          <Trackpoint>
            <Time>2019-08-02T12:13:18.000Z</Time>
            <Position>
              <LatitudeDegrees>41.05661286972463130950927734375</LatitudeDegrees>
              <LongitudeDegrees>-4.2582363076508045196533203125</LongitudeDegrees>
            </Position>
            <AltitudeMeters>880</AltitudeMeters>
            <DistanceMeters>132113.84029845</DistanceMeters>
          </Trackpoint>
          <Trackpoint>
            <Time>2019-08-02T12:13:22.000Z</Time>
            <Position>
              <LatitudeDegrees>41.0567727126181125640869140625</LatitudeDegrees>
              <LongitudeDegrees>-4.2583541572093963623046875</LongitudeDegrees>
            </Position>
            <AltitudeMeters>879</AltitudeMeters>
            <DistanceMeters>132134.19598777</DistanceMeters>
          </Trackpoint>
          <Trackpoint>
            <Time>2019-08-02T12:13:27.000Z</Time>
            <Position>
              <LatitudeDegrees>41.05698217637836933135986328125</LatitudeDegrees>
              <LongitudeDegrees>-4.2584901116788387298583984375</LongitudeDegrees>
            </Position>
            <AltitudeMeters>877.79998779296875</AltitudeMeters>
            <DistanceMeters>132160.15220038</DistanceMeters>
          </Trackpoint>
          <Trackpoint>
            <Time>2019-08-02T12:13:32.000Z</Time>
            <Position>
              <LatitudeDegrees>41.05719625018537044525146484375</LatitudeDegrees>
              <LongitudeDegrees>-4.2586077935993671417236328125</LongitudeDegrees>
            </Position>
            <AltitudeMeters>876.5999755859375</AltitudeMeters>
            <DistanceMeters>132185.94508355</DistanceMeters>
          </Trackpoint>
          <Trackpoint>
            <Time>2019-08-02T12:13:45.000Z</Time>
            <Position>
              <LatitudeDegrees>41.057745851576328277587890625</LatitudeDegrees>
              <LongitudeDegrees>-4.2588468454778194427490234375</LongitudeDegrees>
            </Position>
            <AltitudeMeters>876.20001220703125</AltitudeMeters>
            <DistanceMeters>132250.32292986</DistanceMeters>
          </Trackpoint>
          <Trackpoint>
            <Time>2019-08-02T12:13:52.000Z</Time>
            <Position>
              <LatitudeDegrees>41.0580511204898357391357421875</LatitudeDegrees>
              <LongitudeDegrees>-4.25892907194793224334716796875</LongitudeDegrees>
            </Position>
            <AltitudeMeters>877.79998779296875</AltitudeMeters>
            <DistanceMeters>132284.99374923</DistanceMeters>
          </Trackpoint>
          <Trackpoint>
            <Time>2019-08-02T12:13:57.000Z</Time>
            <Position>
              <LatitudeDegrees>41.0582700558006763458251953125</LatitudeDegrees>
              <LongitudeDegrees>-4.25897014327347278594970703125</LongitudeDegrees>
            </Position>
            <AltitudeMeters>878.79998779296875</AltitudeMeters>
            <DistanceMeters>132309.60420061</DistanceMeters>
          </Trackpoint>
          <Trackpoint>
            <Time>2019-08-02T12:14:01.000Z</Time>
            <Position>
              <LatitudeDegrees>41.058447919785976409912109375</LatitudeDegrees>
              <LongitudeDegrees>-4.2589953728020191192626953125</LongitudeDegrees>
            </Position>
            <AltitudeMeters>880.20001220703125</AltitudeMeters>
            <DistanceMeters>132329.51314773</DistanceMeters>
          </Trackpoint>
          <Trackpoint>
            <Time>2019-08-02T12:14:05.000Z</Time>
            <Position>
              <LatitudeDegrees>41.05862787924706935882568359375</LatitudeDegrees>
              <LongitudeDegrees>-4.25900937058031558990478515625</LongitudeDegrees>
            </Position>
            <AltitudeMeters>881.4000244140625</AltitudeMeters>
            <DistanceMeters>132349.57751585</DistanceMeters>
          </Trackpoint>
          <Trackpoint>
            <Time>2019-08-02T12:14:09.000Z</Time>
            <Position>
              <LatitudeDegrees>41.05881077237427234649658203125</LatitudeDegrees>
              <LongitudeDegrees>-4.2590144835412502288818359375</LongitudeDegrees>
            </Position>
            <AltitudeMeters>882.5999755859375</AltitudeMeters>
            <DistanceMeters>132369.93852785</DistanceMeters>
          </Trackpoint>
          <Trackpoint>
            <Time>2019-08-02T12:14:15.000Z</Time>
            <Position>
              <LatitudeDegrees>41.05909290723502635955810546875</LatitudeDegrees>
              <LongitudeDegrees>-4.2590017430484294891357421875</LongitudeDegrees>
            </Position>
            <AltitudeMeters>883.5999755859375</AltitudeMeters>
            <DistanceMeters>132401.35890655</DistanceMeters>
          </Trackpoint>
          <Trackpoint>
            <Time>2019-08-02T12:14:20.000Z</Time>
            <Position>
              <LatitudeDegrees>41.05932475067675113677978515625</LatitudeDegrees>
              <LongitudeDegrees>-4.25896846689283847808837890625</LongitudeDegrees>
            </Position>
            <AltitudeMeters>885</AltitudeMeters>
            <DistanceMeters>132427.31424941</DistanceMeters>
          </Trackpoint>
          <Trackpoint>
            <Time>2019-08-02T12:14:21.000Z</Time>
            <Position>
              <LatitudeDegrees>41.059371270239353179931640625</LatitudeDegrees>
              <LongitudeDegrees>-4.25896075554192066192626953125</LongitudeDegrees>
            </Position>
            <AltitudeMeters>885.20001220703125</AltitudeMeters>
            <DistanceMeters>132432.53293799</DistanceMeters>
          </Trackpoint>
          <Trackpoint>
            <Time>2019-08-02T12:14:30.000Z</Time>
            <Position>
              <LatitudeDegrees>41.059788353741168975830078125</LatitudeDegrees>
              <LongitudeDegrees>-4.25885464064776897430419921875</LongitudeDegrees>
            </Position>
            <AltitudeMeters>886</AltitudeMeters>
            <DistanceMeters>132479.80163667</DistanceMeters>
          </Trackpoint>
          <Trackpoint>
            <Time>2019-08-02T12:14:42.000Z</Time>
            <Position>
              <LatitudeDegrees>41.060341894626617431640625</LatitudeDegrees>
              <LongitudeDegrees>-4.25863821990787982940673828125</LongitudeDegrees>
            </Position>
            <AltitudeMeters>886</AltitudeMeters>
            <DistanceMeters>132544.03336953</DistanceMeters>
          </Trackpoint>
          <Trackpoint>
            <Time>2019-08-02T12:14:54.000Z</Time>
            <Position>
              <LatitudeDegrees>41.060886383056640625</LatitudeDegrees>
              <LongitudeDegrees>-4.2583643831312656402587890625</LongitudeDegrees>
            </Position>
            <AltitudeMeters>885</AltitudeMeters>
            <DistanceMeters>132608.84716191</DistanceMeters>
          </Trackpoint>
          <Trackpoint>
            <Time>2019-08-02T12:15:05.000Z</Time>
            <Position>
              <LatitudeDegrees>41.06135518290102481842041015625</LatitudeDegrees>
              <LongitudeDegrees>-4.25813899375498294830322265625</LongitudeDegrees>
            </Position>
            <AltitudeMeters>887.20001220703125</AltitudeMeters>
            <DistanceMeters>132664.3482952</DistanceMeters>
          </Trackpoint>
          <Trackpoint>
            <Time>2019-08-02T12:15:14.000Z</Time>
            <Position>
              <LatitudeDegrees>41.061725579202175140380859375</LatitudeDegrees>
              <LongitudeDegrees>-4.2580009438097476959228515625</LongitudeDegrees>
            </Position>
            <AltitudeMeters>888.4000244140625</AltitudeMeters>
            <DistanceMeters>132707.17109058</DistanceMeters>
          </Trackpoint>
          <Trackpoint>
            <Time>2019-08-02T12:15:19.000Z</Time>
            <Position>
              <LatitudeDegrees>41.061946190893650054931640625</LatitudeDegrees>
              <LongitudeDegrees>-4.2579345591366291046142578125</LongitudeDegrees>
            </Position>
            <AltitudeMeters>889.4000244140625</AltitudeMeters>
            <DistanceMeters>132732.3494044</DistanceMeters>
          </Trackpoint>
          <Trackpoint>
            <Time>2019-08-02T12:15:21.000Z</Time>
            <Position>
              <LatitudeDegrees>41.06203579343855381011962890625</LatitudeDegrees>
              <LongitudeDegrees>-4.25791452638804912567138671875</LongitudeDegrees>
            </Position>
            <AltitudeMeters>890.4000244140625</AltitudeMeters>
            <DistanceMeters>132742.46294363</DistanceMeters>
          </Trackpoint>
          <Trackpoint>
            <Time>2019-08-02T12:15:25.000Z</Time>
            <Position>
              <LatitudeDegrees>41.062223128974437713623046875</LatitudeDegrees>
              <LongitudeDegrees>-4.25788686610758304595947265625</LongitudeDegrees>
            </Position>
            <AltitudeMeters>891.5999755859375</AltitudeMeters>
            <DistanceMeters>132763.44255245</DistanceMeters>
          </Trackpoint>
          <Trackpoint>
            <Time>2019-08-02T12:15:28.000Z</Time>
            <Position>
              <LatitudeDegrees>41.0623667947947978973388671875</LatitudeDegrees>
              <LongitudeDegrees>-4.25787496380507946014404296875</LongitudeDegrees>
            </Position>
            <AltitudeMeters>892.79998779296875</AltitudeMeters>
            <DistanceMeters>132779.46378595</DistanceMeters>
          </Trackpoint>
          <Trackpoint>
            <Time>2019-08-02T12:15:34.000Z</Time>
            <Position>
              <LatitudeDegrees>41.06265018694102764129638671875</LatitudeDegrees>
              <LongitudeDegrees>-4.2578658275306224822998046875</LongitudeDegrees>
            </Position>
            <AltitudeMeters>894</AltitudeMeters>
            <DistanceMeters>132811.01508794</DistanceMeters>
          </Trackpoint>
          <Trackpoint>
            <Time>2019-08-02T12:15:38.000Z</Time>
            <Position>
              <LatitudeDegrees>41.06283123604953289031982421875</LatitudeDegrees>
              <LongitudeDegrees>-4.25787613727152347564697265625</LongitudeDegrees>
            </Position>
            <AltitudeMeters>895</AltitudeMeters>
            <DistanceMeters>132831.18449407</DistanceMeters>
          </Trackpoint>
          <Trackpoint>
            <Time>2019-08-02T12:15:43.000Z</Time>
            <Position>
              <LatitudeDegrees>41.063061319291591644287109375</LatitudeDegrees>
              <LongitudeDegrees>-4.2578980140388011932373046875</LongitudeDegrees>
            </Position>
            <AltitudeMeters>896.5999755859375</AltitudeMeters>
            <DistanceMeters>132856.85912261</DistanceMeters>
          </Trackpoint>
          <Trackpoint>
            <Time>2019-08-02T12:15:47.000Z</Time>
            <Position>
              <LatitudeDegrees>41.06325452215969562530517578125</LatitudeDegrees>
              <LongitudeDegrees>-4.25793078728020191192626953125</LongitudeDegrees>
            </Position>
            <AltitudeMeters>897.5999755859375</AltitudeMeters>
            <DistanceMeters>132878.53812993</DistanceMeters>
          </Trackpoint>
          <Trackpoint>
            <Time>2019-08-02T12:15:52.000Z</Time>
            <Position>
              <LatitudeDegrees>41.0634892992675304412841796875</LatitudeDegrees>
              <LongitudeDegrees>-4.25798962824046611785888671875</LongitudeDegrees>
            </Position>
            <AltitudeMeters>898.79998779296875</AltitudeMeters>
            <DistanceMeters>132905.13169169</DistanceMeters>
          </Trackpoint>
          <Trackpoint>
            <Time>2019-08-02T12:16:04.000Z</Time>
            <Position>
              <LatitudeDegrees>41.0640441812574863433837890625</LatitudeDegrees>
              <LongitudeDegrees>-4.25819833762943744659423828125</LongitudeDegrees>
            </Position>
            <AltitudeMeters>900</AltitudeMeters>
            <DistanceMeters>132969.32658047</DistanceMeters>
          </Trackpoint>
          <Trackpoint>
            <Time>2019-08-02T12:16:16.000Z</Time>
            <Position>
              <LatitudeDegrees>41.0645675472915172576904296875</LatitudeDegrees>
              <LongitudeDegrees>-4.25847913138568401336669921875</LongitudeDegrees>
            </Position>
            <AltitudeMeters>900.20001220703125</AltitudeMeters>
            <DistanceMeters>133032.16374532</DistanceMeters>
          </Trackpoint>
          <Trackpoint>
            <Time>2019-08-02T12:16:23.000Z</Time>
            <Position>
              <LatitudeDegrees>41.064865104854106903076171875</LatitudeDegrees>
              <LongitudeDegrees>-4.2586963064968585968017578125</LongitudeDegrees>
            </Position>
            <AltitudeMeters>899</AltitudeMeters>
            <DistanceMeters>133069.9659886</DistanceMeters>
          </Trackpoint>
          <Trackpoint>
            <Time>2019-08-02T12:16:27.000Z</Time>
            <Position>
              <LatitudeDegrees>41.06503483839333057403564453125</LatitudeDegrees>
              <LongitudeDegrees>-4.25883091986179351806640625</LongitudeDegrees>
            </Position>
            <AltitudeMeters>898</AltitudeMeters>
            <DistanceMeters>133091.97734298</DistanceMeters>
          </Trackpoint>
          <Trackpoint>
            <Time>2019-08-02T12:16:32.000Z</Time>
            <Position>
              <LatitudeDegrees>41.06523759663105010986328125</LatitudeDegrees>
              <LongitudeDegrees>-4.2590153217315673828125</LongitudeDegrees>
            </Position>
            <AltitudeMeters>896.5999755859375</AltitudeMeters>
            <DistanceMeters>133119.34058198</DistanceMeters>
          </Trackpoint>
          <Trackpoint>
            <Time>2019-08-02T12:16:35.000Z</Time>
            <Position>
              <LatitudeDegrees>41.0653537698090076446533203125</LatitudeDegrees>
              <LongitudeDegrees>-4.25913266837596893310546875</LongitudeDegrees>
            </Position>
            <AltitudeMeters>895.5999755859375</AltitudeMeters>
            <DistanceMeters>133135.59376186</DistanceMeters>
          </Trackpoint>
          <Trackpoint>
            <Time>2019-08-02T12:16:38.000Z</Time>
            <Position>
              <LatitudeDegrees>41.0654694400727748870849609375</LatitudeDegrees>
              <LongitudeDegrees>-4.25925663672387599945068359375</LongitudeDegrees>
            </Position>
            <AltitudeMeters>894.4000244140625</AltitudeMeters>
            <DistanceMeters>133152.14587711</DistanceMeters>
          </Trackpoint>
          <Trackpoint>
            <Time>2019-08-02T12:16:41.000Z</Time>
            <Position>
              <LatitudeDegrees>41.06558117084205150604248046875</LatitudeDegrees>
              <LongitudeDegrees>-4.2593839578330516815185546875</LongitudeDegrees>
            </Position>
            <AltitudeMeters>893.20001220703125</AltitudeMeters>
            <DistanceMeters>133168.54122144</DistanceMeters>
          </Trackpoint>
          <Trackpoint>
            <Time>2019-08-02T12:16:43.000Z</Time>
            <Position>
              <LatitudeDegrees>41.06565308757126331329345703125</LatitudeDegrees>
              <LongitudeDegrees>-4.2594711296260356903076171875</LongitudeDegrees>
            </Position>
            <AltitudeMeters>891.79998779296875</AltitudeMeters>
            <DistanceMeters>133179.38468147</DistanceMeters>
          </Trackpoint>
          <Trackpoint>
            <Time>2019-08-02T12:16:46.000Z</Time>
            <Position>
              <LatitudeDegrees>41.06575786136090755462646484375</LatitudeDegrees>
              <LongitudeDegrees>-4.25960649736225605010986328125</LongitudeDegrees>
            </Position>
            <AltitudeMeters>890.79998779296875</AltitudeMeters>
            <DistanceMeters>133195.66450775</DistanceMeters>
          </Trackpoint>
          <Trackpoint>
            <Time>2019-08-02T12:16:49.000Z</Time>
            <Position>
              <LatitudeDegrees>41.06585643254220485687255859375</LatitudeDegrees>
              <LongitudeDegrees>-4.25974546931684017181396484375</LongitudeDegrees>
            </Position>
            <AltitudeMeters>889.5999755859375</AltitudeMeters>
            <DistanceMeters>133211.67587465</DistanceMeters>
          </Trackpoint>
          <Trackpoint>
            <Time>2019-08-02T12:16:52.000Z</Time>
            <Position>
              <LatitudeDegrees>41.06595047749578952789306640625</LatitudeDegrees>
              <LongitudeDegrees>-4.25988762639462947845458984375</LongitudeDegrees>
            </Position>
            <AltitudeMeters>888.4000244140625</AltitudeMeters>
            <DistanceMeters>133227.54675845</DistanceMeters>
          </Trackpoint>
          <Trackpoint>
            <Time>2019-08-02T12:16:55.000Z</Time>
            <Position>
              <LatitudeDegrees>41.06604804284870624542236328125</LatitudeDegrees>
              <LongitudeDegrees>-4.2600263468921184539794921875</LongitudeDegrees>
            </Position>
            <AltitudeMeters>887</AltitudeMeters>
            <DistanceMeters>133243.46649857</DistanceMeters>
          </Trackpoint>
          <Trackpoint>
            <Time>2019-08-02T12:16:58.000Z</Time>
            <Position>
              <LatitudeDegrees>41.06614611111581325531005859375</LatitudeDegrees>
              <LongitudeDegrees>-4.26016825251281261444091796875</LongitudeDegrees>
            </Position>
            <AltitudeMeters>885.79998779296875</AltitudeMeters>
            <DistanceMeters>133259.62048102</DistanceMeters>
          </Trackpoint>
          <Trackpoint>
            <Time>2019-08-02T12:17:01.000Z</Time>
            <Position>
              <LatitudeDegrees>41.06623931787908077239990234375</LatitudeDegrees>
              <LongitudeDegrees>-4.26030672155320644378662109375</LongitudeDegrees>
            </Position>
            <AltitudeMeters>884.5999755859375</AltitudeMeters>
            <DistanceMeters>133275.1976176</DistanceMeters>
          </Trackpoint>
          <Trackpoint>
            <Time>2019-08-02T12:17:11.000Z</Time>
            <Position>
              <LatitudeDegrees>41.0665587522089481353759765625</LatitudeDegrees>
              <LongitudeDegrees>-4.26078298129141330718994140625</LongitudeDegrees>
            </Position>
            <AltitudeMeters>883.5999755859375</AltitudeMeters>
            <DistanceMeters>133328.68896459</DistanceMeters>
          </Trackpoint>
          <Trackpoint>
            <Time>2019-08-02T12:17:15.000Z</Time>
            <Position>
              <LatitudeDegrees>41.0666801221668720245361328125</LatitudeDegrees>
              <LongitudeDegrees>-4.2609654553234577178955078125</LongitudeDegrees>
            </Position>
            <AltitudeMeters>882.20001220703125</AltitudeMeters>
            <DistanceMeters>133349.10843446</DistanceMeters>
          </Trackpoint>
          <Trackpoint>
            <Time>2019-08-02T12:17:20.000Z</Time>
            <Position>
              <LatitudeDegrees>41.06682856567203998565673828125</LatitudeDegrees>
              <LongitudeDegrees>-4.2611874081194400787353515625</LongitudeDegrees>
            </Position>
            <AltitudeMeters>881</AltitudeMeters>
            <DistanceMeters>133374.00579632</DistanceMeters>
          </Trackpoint>
          <Trackpoint>
            <Time>2019-08-02T12:17:23.000Z</Time>
            <Position>
              <LatitudeDegrees>41.066917665302753448486328125</LatitudeDegrees>
              <LongitudeDegrees>-4.2613188363611698150634765625</LongitudeDegrees>
            </Position>
            <AltitudeMeters>879.79998779296875</AltitudeMeters>
            <DistanceMeters>133388.83757612</DistanceMeters>
          </Trackpoint>
          <Trackpoint>
            <Time>2019-08-02T12:17:26.000Z</Time>
            <Position>
              <LatitudeDegrees>41.067005507647991180419921875</LatitudeDegrees>
              <LongitudeDegrees>-4.26144800148904323577880859375</LongitudeDegrees>
            </Position>
            <AltitudeMeters>878.5999755859375</AltitudeMeters>
            <DistanceMeters>133403.43461979</DistanceMeters>
          </Trackpoint>
          <Trackpoint>
            <Time>2019-08-02T12:17:30.000Z</Time>
            <Position>
              <LatitudeDegrees>41.06712344102561473846435546875</LatitudeDegrees>
              <LongitudeDegrees>-4.26162268035113811492919921875</LongitudeDegrees>
            </Position>
            <AltitudeMeters>877.20001220703125</AltitudeMeters>
            <DistanceMeters>133423.11088716</DistanceMeters>
          </Trackpoint>
          <Trackpoint>
            <Time>2019-08-02T12:17:33.000Z</Time>
            <Position>
              <LatitudeDegrees>41.067213378846645355224609375</LatitudeDegrees>
              <LongitudeDegrees>-4.2617530189454555511474609375</LongitudeDegrees>
            </Position>
            <AltitudeMeters>876</AltitudeMeters>
            <DistanceMeters>133437.9377955</DistanceMeters>
          </Trackpoint>
          <Trackpoint>
            <Time>2019-08-02T12:17:38.000Z</Time>
            <Position>
              <LatitudeDegrees>41.0673567093908786773681640625</LatitudeDegrees>
              <LongitudeDegrees>-4.26196734420955181121826171875</LongitudeDegrees>
            </Position>
            <AltitudeMeters>874.5999755859375</AltitudeMeters>
            <DistanceMeters>133461.9782396</DistanceMeters>
          </Trackpoint>
          <Trackpoint>
            <Time>2019-08-02T12:17:42.000Z</Time>
            <Position>
              <LatitudeDegrees>41.06747145764529705047607421875</LatitudeDegrees>
              <LongitudeDegrees>-4.262134730815887451171875</LongitudeDegrees>
            </Position>
            <AltitudeMeters>873.5999755859375</AltitudeMeters>
            <DistanceMeters>133480.96266509</DistanceMeters>
          </Trackpoint>
          <Trackpoint>
            <Time>2019-08-02T12:17:45.000Z</Time>
            <Position>
              <LatitudeDegrees>41.06755829416215419769287109375</LatitudeDegrees>
              <LongitudeDegrees>-4.26226171664893627166748046875</LongitudeDegrees>
            </Position>
            <AltitudeMeters>872.4000244140625</AltitudeMeters>
            <DistanceMeters>133495.34878068</DistanceMeters>
          </Trackpoint>
          <Trackpoint>
            <Time>2019-08-02T12:17:50.000Z</Time>
            <Position>
              <LatitudeDegrees>41.0676986910402774810791015625</LatitudeDegrees>
              <LongitudeDegrees>-4.26246858201920986175537109375</LongitudeDegrees>
            </Position>
            <AltitudeMeters>871</AltitudeMeters>
            <DistanceMeters>133518.70525683</DistanceMeters>
          </Trackpoint>
          <Trackpoint>
            <Time>2019-08-02T12:17:53.000Z</Time>
            <Position>
              <LatitudeDegrees>41.0677828453481197357177734375</LatitudeDegrees>
              <LongitudeDegrees>-4.2625932209193706512451171875</LongitudeDegrees>
            </Position>
            <AltitudeMeters>870</AltitudeMeters>
            <DistanceMeters>133532.7451122</DistanceMeters>
          </Trackpoint>
          <Trackpoint>
            <Time>2019-08-02T12:17:57.000Z</Time>
            <Position>
              <LatitudeDegrees>41.0678951628506183624267578125</LatitudeDegrees>
              <LongitudeDegrees>-4.26276111043989658355712890625</LongitudeDegrees>
            </Position>
            <AltitudeMeters>868.5999755859375</AltitudeMeters>
            <DistanceMeters>133551.58006862</DistanceMeters>
          </Trackpoint>
          <Trackpoint>
            <Time>2019-08-02T12:18:00.000Z</Time>
            <Position>
              <LatitudeDegrees>41.0679803229868412017822265625</LatitudeDegrees>
              <LongitudeDegrees>-4.26288549788296222686767578125</LongitudeDegrees>
            </Position>
            <AltitudeMeters>867</AltitudeMeters>
            <DistanceMeters>133565.6792921</DistanceMeters>
          </Trackpoint>
          <Trackpoint>
            <Time>2019-08-02T12:18:04.000Z</Time>
            <Position>
              <LatitudeDegrees>41.068093478679656982421875</LatitudeDegrees>
              <LongitudeDegrees>-4.26305430941283702850341796875</LongitudeDegrees>
            </Position>
            <AltitudeMeters>866</AltitudeMeters>
            <DistanceMeters>133584.6342039</DistanceMeters>
          </Trackpoint>
          <Trackpoint>
            <Time>2019-08-02T12:18:10.000Z</Time>
            <Position>
              <LatitudeDegrees>41.068262122571468353271484375</LatitudeDegrees>
              <LongitudeDegrees>-4.263307191431522369384765625</LongitudeDegrees>
            </Position>
            <AltitudeMeters>864.79998779296875</AltitudeMeters>
            <DistanceMeters>133612.96491718</DistanceMeters>
          </Trackpoint>
          <Trackpoint>
            <Time>2019-08-02T12:18:21.000Z</Time>
            <Position>
              <LatitudeDegrees>41.06857158243656158447265625</LatitudeDegrees>
              <LongitudeDegrees>-4.26377247087657451629638671875</LongitudeDegrees>
            </Position>
            <AltitudeMeters>863.4000244140625</AltitudeMeters>
            <DistanceMeters>133665.02949811</DistanceMeters>
          </Trackpoint>
          <Trackpoint>
            <Time>2019-08-02T12:18:29.000Z</Time>
            <Position>
              <LatitudeDegrees>41.068806611001491546630859375</LatitudeDegrees>
              <LongitudeDegrees>-4.26411964930593967437744140625</LongitudeDegrees>
            </Position>
            <AltitudeMeters>862.20001220703125</AltitudeMeters>
            <DistanceMeters>133704.18315679</DistanceMeters>
          </Trackpoint>
          <Trackpoint>
            <Time>2019-08-02T12:18:32.000Z</Time>
            <Position>
              <LatitudeDegrees>41.06889084912836551666259765625</LatitudeDegrees>
              <LongitudeDegrees>-4.26424470730125904083251953125</LongitudeDegrees>
            </Position>
            <AltitudeMeters>861.79998779296875</AltitudeMeters>
            <DistanceMeters>133718.25545498</DistanceMeters>
          </Trackpoint>
          <Trackpoint>
            <Time>2019-08-02T12:18:37.000Z</Time>
            <Position>
              <LatitudeDegrees>41.06903669424355030059814453125</LatitudeDegrees>
              <LongitudeDegrees>-4.26445819437503814697265625</LongitudeDegrees>
            </Position>
            <AltitudeMeters>861</AltitudeMeters>
            <DistanceMeters>133742.43037064</DistanceMeters>
          </Trackpoint>
          <Trackpoint>
            <Time>2019-08-02T12:18:48.000Z</Time>
            <Position>
              <LatitudeDegrees>41.06937129981815814971923828125</LatitudeDegrees>
              <LongitudeDegrees>-4.26496203057467937469482421875</LongitudeDegrees>
            </Position>
            <AltitudeMeters>862</AltitudeMeters>
            <DistanceMeters>133798.77239797</DistanceMeters>
          </Trackpoint>
          <Trackpoint>
            <Time>2019-08-02T12:19:00.000Z</Time>
            <Position>
              <LatitudeDegrees>41.06974278576672077178955078125</LatitudeDegrees>
              <LongitudeDegrees>-4.265513978898525238037109375</LongitudeDegrees>
            </Position>
            <AltitudeMeters>862.5999755859375</AltitudeMeters>
            <DistanceMeters>133860.85837651</DistanceMeters>
          </Trackpoint>
          <Trackpoint>
            <Time>2019-08-02T12:19:13.000Z</Time>
            <Position>
              <LatitudeDegrees>41.070126928389072418212890625</LatitudeDegrees>
              <LongitudeDegrees>-4.26607799716293811798095703125</LongitudeDegrees>
            </Position>
            <AltitudeMeters>861</AltitudeMeters>
            <DistanceMeters>133924.63893105</DistanceMeters>
          </Trackpoint>
          <Trackpoint>
            <Time>2019-08-02T12:19:20.000Z</Time>
            <Position>
              <LatitudeDegrees>41.07032650150358676910400390625</LatitudeDegrees>
              <LongitudeDegrees>-4.26638108678162097930908203125</LongitudeDegrees>
            </Position>
            <AltitudeMeters>860.5999755859375</AltitudeMeters>
            <DistanceMeters>133958.40605593</DistanceMeters>
          </Trackpoint>
          <Trackpoint>
            <Time>2019-08-02T12:19:33.000Z</Time>
            <Position>
              <LatitudeDegrees>41.0707188583910465240478515625</LatitudeDegrees>
              <LongitudeDegrees>-4.26695122383534908294677734375</LongitudeDegrees>
            </Position>
            <AltitudeMeters>859.79998779296875</AltitudeMeters>
            <DistanceMeters>134023.18103512</DistanceMeters>
          </Trackpoint>
          <Trackpoint>
            <Time>2019-08-02T12:19:40.000Z</Time>
            <Position>
              <LatitudeDegrees>41.0709253884851932525634765625</LatitudeDegrees>
              <LongitudeDegrees>-4.2672510445117950439453125</LongitudeDegrees>
            </Position>
            <AltitudeMeters>859.20001220703125</AltitudeMeters>
            <DistanceMeters>134057.2594751</DistanceMeters>
          </Trackpoint>
          <Trackpoint>
            <Time>2019-08-02T12:19:53.000Z</Time>
            <Position>
              <LatitudeDegrees>41.07129846699535846710205078125</LatitudeDegrees>
              <LongitudeDegrees>-4.267800562083721160888671875</LongitudeDegrees>
            </Position>
            <AltitudeMeters>858.4000244140625</AltitudeMeters>
            <DistanceMeters>134119.3111192</DistanceMeters>
          </Trackpoint>
          <Trackpoint>
            <Time>2019-08-02T12:20:06.000Z</Time>
            <Position>
              <LatitudeDegrees>41.0716831125319004058837890625</LatitudeDegrees>
              <LongitudeDegrees>-4.26834899000823497772216796875</LongitudeDegrees>
            </Position>
            <AltitudeMeters>858.20001220703125</AltitudeMeters>
            <DistanceMeters>134182.16452073</DistanceMeters>
          </Trackpoint>
          <Trackpoint>
            <Time>2019-08-02T12:20:19.000Z</Time>
            <Position>
              <LatitudeDegrees>41.07209089212119579315185546875</LatitudeDegrees>
              <LongitudeDegrees>-4.268860034644603729248046875</LongitudeDegrees>
            </Position>
            <AltitudeMeters>858.5999755859375</AltitudeMeters>
            <DistanceMeters>134244.60452044</DistanceMeters>
          </Trackpoint>
          <Trackpoint>
            <Time>2019-08-02T12:20:26.000Z</Time>
            <Position>
              <LatitudeDegrees>41.0723244957625865936279296875</LatitudeDegrees>
              <LongitudeDegrees>-4.26912817172706127166748046875</LongitudeDegrees>
            </Position>
            <AltitudeMeters>859.5999755859375</AltitudeMeters>
            <DistanceMeters>134278.98804321</DistanceMeters>
          </Trackpoint>
          <Trackpoint>
            <Time>2019-08-02T12:20:29.000Z</Time>
            <Position>
              <LatitudeDegrees>41.07243471778929233551025390625</LatitudeDegrees>
              <LongitudeDegrees>-4.2692424170672893524169921875</LongitudeDegrees>
            </Position>
            <AltitudeMeters>860.5999755859375</AltitudeMeters>
            <DistanceMeters>134294.55706187</DistanceMeters>
          </Trackpoint>
          <Trackpoint>
            <Time>2019-08-02T12:20:32.000Z</Time>
            <Position>
              <LatitudeDegrees>41.072550304234027862548828125</LatitudeDegrees>
              <LongitudeDegrees>-4.2693614400923252105712890625</LongitudeDegrees>
            </Position>
            <AltitudeMeters>862</AltitudeMeters>
            <DistanceMeters>134310.84326571</DistanceMeters>
          </Trackpoint>
          <Trackpoint>
            <Time>2019-08-02T12:20:44.000Z</Time>
            <Position>
              <LatitudeDegrees>41.0730032622814178466796875</LatitudeDegrees>
              <LongitudeDegrees>-4.2698321677744388580322265625</LongitudeDegrees>
            </Position>
            <AltitudeMeters>862.5999755859375</AltitudeMeters>
            <DistanceMeters>134374.88816936</DistanceMeters>
          </Trackpoint>
          <Trackpoint>
            <Time>2019-08-02T12:20:53.000Z</Time>
            <Position>
              <LatitudeDegrees>41.07335153035819530487060546875</LatitudeDegrees>
              <LongitudeDegrees>-4.27015210501849651336669921875</LongitudeDegrees>
            </Position>
            <AltitudeMeters>861.79998779296875</AltitudeMeters>
            <DistanceMeters>134422.03932958</DistanceMeters>
          </Trackpoint>
          <Trackpoint>
            <Time>2019-08-02T12:21:05.000Z</Time>
            <Position>
              <LatitudeDegrees>41.07379375956952571868896484375</LatitudeDegrees>
              <LongitudeDegrees>-4.27055443637073040008544921875</LongitudeDegrees>
            </Position>
            <AltitudeMeters>860.4000244140625</AltitudeMeters>
            <DistanceMeters>134481.72457933</DistanceMeters>
          </Trackpoint>
          <Trackpoint>
            <Time>2019-08-02T12:21:10.000Z</Time>
            <Position>
              <LatitudeDegrees>41.07397246174514293670654296875</LatitudeDegrees>
              <LongitudeDegrees>-4.27071788348257541656494140625</LongitudeDegrees>
            </Position>
            <AltitudeMeters>860</AltitudeMeters>
            <DistanceMeters>134505.88436226</DistanceMeters>
          </Trackpoint>
          <Trackpoint>
            <Time>2019-08-02T12:21:23.000Z</Time>
            <Position>
              <LatitudeDegrees>41.07444025576114654541015625</LatitudeDegrees>
              <LongitudeDegrees>-4.27113094367086887359619140625</LongitudeDegrees>
            </Position>
            <AltitudeMeters>860.20001220703125</AltitudeMeters>
            <DistanceMeters>134568.43114489</DistanceMeters>
          </Trackpoint>
          <Trackpoint>
            <Time>2019-08-02T12:21:36.000Z</Time>
            <Position>
              <LatitudeDegrees>41.07490067370235919952392578125</LatitudeDegrees>
              <LongitudeDegrees>-4.27157669328153133392333984375</LongitudeDegrees>
            </Position>
            <AltitudeMeters>860.20001220703125</AltitudeMeters>
            <DistanceMeters>134631.87334507</DistanceMeters>
          </Trackpoint>
          <Trackpoint>
            <Time>2019-08-02T12:21:43.000Z</Time>
            <Position>
              <LatitudeDegrees>41.07515246607363224029541015625</LatitudeDegrees>
              <LongitudeDegrees>-4.27181021310389041900634765625</LongitudeDegrees>
            </Position>
            <AltitudeMeters>861.20001220703125</AltitudeMeters>
            <DistanceMeters>134666.06844119</DistanceMeters>
          </Trackpoint>
          <Trackpoint>
            <Time>2019-08-02T12:21:45.000Z</Time>
            <Position>
              <LatitudeDegrees>41.075216419994831085205078125</LatitudeDegrees>
              <LongitudeDegrees>-4.2718649469316005706787109375</LongitudeDegrees>
            </Position>
            <AltitudeMeters>862.20001220703125</AltitudeMeters>
            <DistanceMeters>134674.5396877</DistanceMeters>
          </Trackpoint>
          <Trackpoint>
            <Time>2019-08-02T12:21:48.000Z</Time>
            <Position>
              <LatitudeDegrees>41.0753094591200351715087890625</LatitudeDegrees>
              <LongitudeDegrees>-4.27194960415363311767578125</LongitudeDegrees>
            </Position>
            <AltitudeMeters>863.5999755859375</AltitudeMeters>
            <DistanceMeters>134687.09688464</DistanceMeters>
          </Trackpoint>
          <Trackpoint>
            <Time>2019-08-02T12:21:50.000Z</Time>
            <Position>
              <LatitudeDegrees>41.07538078911602497100830078125</LatitudeDegrees>
              <LongitudeDegrees>-4.27201121114194393157958984375</LongitudeDegrees>
            </Position>
            <AltitudeMeters>865</AltitudeMeters>
            <DistanceMeters>134696.57052859</DistanceMeters>
          </Trackpoint>
          <Trackpoint>
            <Time>2019-08-02T12:21:54.000Z</Time>
            <Position>
              <LatitudeDegrees>41.07552160508930683135986328125</LatitudeDegrees>
              <LongitudeDegrees>-4.27214046008884906768798828125</LongitudeDegrees>
            </Position>
            <AltitudeMeters>865.79998779296875</AltitudeMeters>
            <DistanceMeters>134715.62948593</DistanceMeters>
          </Trackpoint>
          <Trackpoint>
            <Time>2019-08-02T12:21:58.000Z</Time>
            <Position>
              <LatitudeDegrees>41.07566409744322299957275390625</LatitudeDegrees>
              <LongitudeDegrees>-4.27226166240870952606201171875</LongitudeDegrees>
            </Position>
            <AltitudeMeters>867.20001220703125</AltitudeMeters>
            <DistanceMeters>134734.46971536</DistanceMeters>
          </Trackpoint>
          <Trackpoint>
            <Time>2019-08-02T12:22:01.000Z</Time>
            <Position>
              <LatitudeDegrees>41.0757805220782756805419921875</LatitudeDegrees>
              <LongitudeDegrees>-4.2723571322858333587646484375</LongitudeDegrees>
            </Position>
            <AltitudeMeters>868.4000244140625</AltitudeMeters>
            <DistanceMeters>134749.70365656</DistanceMeters>
          </Trackpoint>
          <Trackpoint>
            <Time>2019-08-02T12:22:03.000Z</Time>
            <Position>
              <LatitudeDegrees>41.0758579708635807037353515625</LatitudeDegrees>
              <LongitudeDegrees>-4.2724181525409221649169921875</LongitudeDegrees>
            </Position>
            <AltitudeMeters>869.4000244140625</AltitudeMeters>
            <DistanceMeters>134759.7293127</DistanceMeters>
          </Trackpoint>
          <Trackpoint>
            <Time>2019-08-02T12:22:07.000Z</Time>
            <Position>
              <LatitudeDegrees>41.0760081745684146881103515625</LatitudeDegrees>
              <LongitudeDegrees>-4.272548742592334747314453125</LongitudeDegrees>
            </Position>
            <AltitudeMeters>870.5999755859375</AltitudeMeters>
            <DistanceMeters>134779.71792852</DistanceMeters>
          </Trackpoint>
          <Trackpoint>
            <Time>2019-08-02T12:22:10.000Z</Time>
            <Position>
              <LatitudeDegrees>41.076115630567073822021484375</LatitudeDegrees>
              <LongitudeDegrees>-4.27263985387980937957763671875</LongitudeDegrees>
            </Position>
            <AltitudeMeters>872</AltitudeMeters>
            <DistanceMeters>134793.91226068</DistanceMeters>
          </Trackpoint>
          <Trackpoint>
            <Time>2019-08-02T12:22:12.000Z</Time>
            <Position>
              <LatitudeDegrees>41.07619048096239566802978515625</LatitudeDegrees>
              <LongitudeDegrees>-4.27271193824708461761474609375</LongitudeDegrees>
            </Position>
            <AltitudeMeters>873</AltitudeMeters>
            <DistanceMeters>134804.20764981</DistanceMeters>
          </Trackpoint>
          <Trackpoint>
            <Time>2019-08-02T12:22:15.000Z</Time>
            <Position>
              <LatitudeDegrees>41.0763012059032917022705078125</LatitudeDegrees>
              <LongitudeDegrees>-4.2728198133409023284912109375</LongitudeDegrees>
            </Position>
            <AltitudeMeters>874.20001220703125</AltitudeMeters>
            <DistanceMeters>134819.49839012</DistanceMeters>
          </Trackpoint>
          <Trackpoint>
            <Time>2019-08-02T12:22:18.000Z</Time>
            <Position>
              <LatitudeDegrees>41.07641838490962982177734375</LatitudeDegrees>
              <LongitudeDegrees>-4.27292601205408573150634765625</LongitudeDegrees>
            </Position>
            <AltitudeMeters>875.4000244140625</AltitudeMeters>
            <DistanceMeters>134835.29399116</DistanceMeters>
          </Trackpoint>
          <Trackpoint>
            <Time>2019-08-02T12:22:21.000Z</Time>
            <Position>
              <LatitudeDegrees>41.07654117979109287261962890625</LatitudeDegrees>
              <LongitudeDegrees>-4.273034222424030303955078125</LongitudeDegrees>
            </Position>
            <AltitudeMeters>876.4000244140625</AltitudeMeters>
            <DistanceMeters>134851.70199832</DistanceMeters>
          </Trackpoint>
          <Trackpoint>
            <Time>2019-08-02T12:22:32.000Z</Time>
            <Position>
              <LatitudeDegrees>41.07700645923614501953125</LatitudeDegrees>
              <LongitudeDegrees>-4.27344418130815029144287109375</LongitudeDegrees>
            </Position>
            <AltitudeMeters>876.5999755859375</AltitudeMeters>
            <DistanceMeters>134913.87082507</DistanceMeters>
          </Trackpoint>
          <Trackpoint>
            <Time>2019-08-02T12:22:43.000Z</Time>
            <Position>
              <LatitudeDegrees>41.07746100984513759613037109375</LatitudeDegrees>
              <LongitudeDegrees>-4.27385422401130199432373046875</LongitudeDegrees>
            </Position>
            <AltitudeMeters>875.5999755859375</AltitudeMeters>
            <DistanceMeters>134975.05238608</DistanceMeters>
          </Trackpoint>
          <Trackpoint>
            <Time>2019-08-02T12:22:45.000Z</Time>
            <Position>
              <LatitudeDegrees>41.077544577419757843017578125</LatitudeDegrees>
              <LongitudeDegrees>-4.2739312537014484405517578125</LongitudeDegrees>
            </Position>
            <AltitudeMeters>875.4000244140625</AltitudeMeters>
            <DistanceMeters>134986.37851808</DistanceMeters>
          </Trackpoint>
          <Trackpoint>
            <Time>2019-08-02T12:22:53.000Z</Time>
            <Position>
              <LatitudeDegrees>41.0778790153563022613525390625</LatitudeDegrees>
              <LongitudeDegrees>-4.27423417568206787109375</LongitudeDegrees>
            </Position>
            <AltitudeMeters>874.4000244140625</AltitudeMeters>
            <DistanceMeters>135031.4512424</DistanceMeters>
          </Trackpoint>
          <Trackpoint>
            <Time>2019-08-02T12:23:04.000Z</Time>
            <Position>
              <LatitudeDegrees>41.07833574526011943817138671875</LatitudeDegrees>
              <LongitudeDegrees>-4.27466131746768951416015625</LongitudeDegrees>
            </Position>
            <AltitudeMeters>873.5999755859375</AltitudeMeters>
            <DistanceMeters>135093.64874958</DistanceMeters>
          </Trackpoint>
          <Trackpoint>
            <Time>2019-08-02T12:23:07.000Z</Time>
            <Position>
              <LatitudeDegrees>41.07845862396061420440673828125</LatitudeDegrees>
              <LongitudeDegrees>-4.274780340492725372314453125</LongitudeDegrees>
            </Position>
            <AltitudeMeters>873.20001220703125</AltitudeMeters>
            <DistanceMeters>135110.58324596</DistanceMeters>
          </Trackpoint>
          <Trackpoint>
            <Time>2019-08-02T12:23:14.000Z</Time>
            <Position>
              <LatitudeDegrees>41.078725419938564300537109375</LatitudeDegrees>
              <LongitudeDegrees>-4.27506901323795318603515625</LongitudeDegrees>
            </Position>
            <AltitudeMeters>872.20001220703125</AltitudeMeters>
            <DistanceMeters>135148.90270225</DistanceMeters>
          </Trackpoint>
          <Trackpoint>
            <Time>2019-08-02T12:23:25.000Z</Time>
            <Position>
              <LatitudeDegrees>41.0791108198463916778564453125</LatitudeDegrees>
              <LongitudeDegrees>-4.275577962398529052734375</LongitudeDegrees>
            </Position>
            <AltitudeMeters>871</AltitudeMeters>
            <DistanceMeters>135209.42882647</DistanceMeters>
          </Trackpoint>
          <Trackpoint>
            <Time>2019-08-02T12:23:29.000Z</Time>
            <Position>
              <LatitudeDegrees>41.07923805713653564453125</LatitudeDegrees>
              <LongitudeDegrees>-4.275780804455280303955078125</LongitudeDegrees>
            </Position>
            <AltitudeMeters>871</AltitudeMeters>
            <DistanceMeters>135231.56903129</DistanceMeters>
          </Trackpoint>
          <Trackpoint>
            <Time>2019-08-02T12:23:41.000Z</Time>
            <Position>
              <LatitudeDegrees>41.07956268824636936187744140625</LatitudeDegrees>
              <LongitudeDegrees>-4.27639176137745380401611328125</LongitudeDegrees>
            </Position>
            <AltitudeMeters>869.79998779296875</AltitudeMeters>
            <DistanceMeters>135294.28263121</DistanceMeters>
          </Trackpoint>
          <Trackpoint>
            <Time>2019-08-02T12:23:53.000Z</Time>
            <Position>
              <LatitudeDegrees>41.07983954250812530517578125</LatitudeDegrees>
              <LongitudeDegrees>-4.27702878601849079132080078125</LongitudeDegrees>
            </Position>
            <AltitudeMeters>870</AltitudeMeters>
            <DistanceMeters>135355.9752447</DistanceMeters>
          </Trackpoint>
          <Trackpoint>
            <Time>2019-08-02T12:24:06.000Z</Time>
            <Position>
              <LatitudeDegrees>41.080083288252353668212890625</LatitudeDegrees>
              <LongitudeDegrees>-4.2776809819042682647705078125</LongitudeDegrees>
            </Position>
            <AltitudeMeters>869.79998779296875</AltitudeMeters>
            <DistanceMeters>135417.04985364</DistanceMeters>
          </Trackpoint>
          <Trackpoint>
            <Time>2019-08-02T12:24:22.000Z</Time>
            <Position>
              <LatitudeDegrees>41.0803230106830596923828125</LatitudeDegrees>
              <LongitudeDegrees>-4.278345666825771331787109375</LongitudeDegrees>
            </Position>
            <AltitudeMeters>869</AltitudeMeters>
            <DistanceMeters>135478.8701179</DistanceMeters>
          </Trackpoint>
          <Trackpoint>
            <Time>2019-08-02T12:24:26.000Z</Time>
            <Position>
              <LatitudeDegrees>41.08040557242929935455322265625</LatitudeDegrees>
              <LongitudeDegrees>-4.27855429239571094512939453125</LongitudeDegrees>
            </Position>
            <AltitudeMeters>868.5999755859375</AltitudeMeters>
            <DistanceMeters>135498.63887225</DistanceMeters>
          </Trackpoint>
          <Trackpoint>
            <Time>2019-08-02T12:24:39.000Z</Time>
            <Position>
              <LatitudeDegrees>41.08067161403596401214599609375</LatitudeDegrees>
              <LongitudeDegrees>-4.27923792041838169097900390625</LongitudeDegrees>
            </Position>
            <AltitudeMeters>868.20001220703125</AltitudeMeters>
            <DistanceMeters>135563.18649808</DistanceMeters>
          </Trackpoint>
          <Trackpoint>
            <Time>2019-08-02T12:24:52.000Z</Time>
            <Position>
              <LatitudeDegrees>41.08094268478453159332275390625</LatitudeDegrees>
              <LongitudeDegrees>-4.2798788845539093017578125</LongitudeDegrees>
            </Position>
            <AltitudeMeters>868.20001220703125</AltitudeMeters>
            <DistanceMeters>135624.84734065</DistanceMeters>
          </Trackpoint>
          <Trackpoint>
            <Time>2019-08-02T12:24:59.000Z</Time>
            <Position>
              <LatitudeDegrees>41.0811151005327701568603515625</LatitudeDegrees>
              <LongitudeDegrees>-4.28021483123302459716796875</LongitudeDegrees>
            </Position>
            <AltitudeMeters>867.20001220703125</AltitudeMeters>
            <DistanceMeters>135658.94511862</DistanceMeters>
          </Trackpoint>
          <Trackpoint>
            <Time>2019-08-02T12:25:06.000Z</Time>
            <Position>
              <LatitudeDegrees>41.08129623346030712127685546875</LatitudeDegrees>
              <LongitudeDegrees>-4.28053560666739940643310546875</LongitudeDegrees>
            </Position>
            <AltitudeMeters>866.20001220703125</AltitudeMeters>
            <DistanceMeters>135692.57115097</DistanceMeters>
          </Trackpoint>
          <Trackpoint>
            <Time>2019-08-02T12:25:11.000Z</Time>
            <Position>
              <LatitudeDegrees>41.0814316011965274810791015625</LatitudeDegrees>
              <LongitudeDegrees>-4.2807554639875888824462890625</LongitudeDegrees>
            </Position>
            <AltitudeMeters>865</AltitudeMeters>
            <DistanceMeters>135716.38781073</DistanceMeters>
          </Trackpoint>
          <Trackpoint>
            <Time>2019-08-02T12:25:20.000Z</Time>
            <Position>
              <LatitudeDegrees>41.08168012462556362152099609375</LatitudeDegrees>
              <LongitudeDegrees>-4.2811222560703754425048828125</LongitudeDegrees>
            </Position>
            <AltitudeMeters>863.79998779296875</AltitudeMeters>
            <DistanceMeters>135757.76526188</DistanceMeters>
          </Trackpoint>
          <Trackpoint>
            <Time>2019-08-02T12:25:34.000Z</Time>
            <Position>
              <LatitudeDegrees>41.0820820368826389312744140625</LatitudeDegrees>
              <LongitudeDegrees>-4.28163581527769565582275390625</LongitudeDegrees>
            </Position>
            <AltitudeMeters>863.79998779296875</AltitudeMeters>
            <DistanceMeters>135819.87378026</DistanceMeters>
          </Trackpoint>
          <Trackpoint>
            <Time>2019-08-02T12:25:42.000Z</Time>
            <Position>
              <LatitudeDegrees>41.0823324881494045257568359375</LatitudeDegrees>
              <LongitudeDegrees>-4.28191459737718105316162109375</LongitudeDegrees>
            </Position>
            <AltitudeMeters>864.79998779296875</AltitudeMeters>
            <DistanceMeters>135856.26169184</DistanceMeters>
          </Trackpoint>
          <Trackpoint>
            <Time>2019-08-02T12:25:54.000Z</Time>
            <Position>
              <LatitudeDegrees>41.082710511982440948486328125</LatitudeDegrees>
              <LongitudeDegrees>-4.2823151685297489166259765625</LongitudeDegrees>
            </Position>
            <AltitudeMeters>865.79998779296875</AltitudeMeters>
            <DistanceMeters>135910.11007015</DistanceMeters>
          </Trackpoint>
          <Trackpoint>
            <Time>2019-08-02T12:25:58.000Z</Time>
            <Position>
              <LatitudeDegrees>41.08284252695739269256591796875</LatitudeDegrees>
              <LongitudeDegrees>-4.2824538052082061767578125</LongitudeDegrees>
            </Position>
            <AltitudeMeters>867.20001220703125</AltitudeMeters>
            <DistanceMeters>135928.84985865</DistanceMeters>
          </Trackpoint>
          <Trackpoint>
            <Time>2019-08-02T12:26:02.000Z</Time>
            <Position>
              <LatitudeDegrees>41.08297747559845447540283203125</LatitudeDegrees>
              <LongitudeDegrees>-4.28259663283824920654296875</LongitudeDegrees>
            </Position>
            <AltitudeMeters>868.20001220703125</AltitudeMeters>
            <DistanceMeters>135948.06359293</DistanceMeters>
          </Trackpoint>
          <Trackpoint>
            <Time>2019-08-02T12:26:15.000Z</Time>
            <Position>
              <LatitudeDegrees>41.0834043659269809722900390625</LatitudeDegrees>
              <LongitudeDegrees>-4.28303542546927928924560546875</LongitudeDegrees>
            </Position>
            <AltitudeMeters>868</AltitudeMeters>
            <DistanceMeters>136008.16932313</DistanceMeters>
          </Trackpoint>
          <Trackpoint>
            <Time>2019-08-02T12:26:30.000Z</Time>
            <Position>
              <LatitudeDegrees>41.08385841362178325653076171875</LatitudeDegrees>
              <LongitudeDegrees>-4.28350280039012432098388671875</LongitudeDegrees>
            </Position>
            <AltitudeMeters>868</AltitudeMeters>
            <DistanceMeters>136072.13296152</DistanceMeters>
          </Trackpoint>
          <Trackpoint>
            <Time>2019-08-02T12:26:39.000Z</Time>
            <Position>
              <LatitudeDegrees>41.0841195099055767059326171875</LatitudeDegrees>
              <LongitudeDegrees>-4.283774793148040771484375</LongitudeDegrees>
            </Position>
            <AltitudeMeters>869</AltitudeMeters>
            <DistanceMeters>136109.08149392</DistanceMeters>
          </Trackpoint>
          <Trackpoint>
            <Time>2019-08-02T12:26:54.000Z</Time>
            <Position>
              <LatitudeDegrees>41.0845587216317653656005859375</LatitudeDegrees>
              <LongitudeDegrees>-4.28422984667122364044189453125</LongitudeDegrees>
            </Position>
            <AltitudeMeters>869.5999755859375</AltitudeMeters>
            <DistanceMeters>136171.10686517</DistanceMeters>
          </Trackpoint>
          <Trackpoint>
            <Time>2019-08-02T12:27:09.000Z</Time>
            <Position>
              <LatitudeDegrees>41.085011847317218780517578125</LatitudeDegrees>
              <LongitudeDegrees>-4.2846999876201152801513671875</LongitudeDegrees>
            </Position>
            <AltitudeMeters>868</AltitudeMeters>
            <DistanceMeters>136235.13174425</DistanceMeters>
          </Trackpoint>
          <Trackpoint>
            <Time>2019-08-02T12:27:11.000Z</Time>
            <Position>
              <LatitudeDegrees>41.0850730352103710174560546875</LatitudeDegrees>
              <LongitudeDegrees>-4.2847610078752040863037109375</LongitudeDegrees>
            </Position>
            <AltitudeMeters>867.79998779296875</AltitudeMeters>
            <DistanceMeters>136243.65135425</DistanceMeters>
          </Trackpoint>
          <Trackpoint>
            <Time>2019-08-02T12:27:19.000Z</Time>
            <Position>
              <LatitudeDegrees>41.08531259000301361083984375</LatitudeDegrees>
              <LongitudeDegrees>-4.28500936366617679595947265625</LongitudeDegrees>
            </Position>
            <AltitudeMeters>866.4000244140625</AltitudeMeters>
            <DistanceMeters>136277.48940521</DistanceMeters>
          </Trackpoint>
          <Trackpoint>
            <Time>2019-08-02T12:27:23.000Z</Time>
            <Position>
              <LatitudeDegrees>41.08542951755225658416748046875</LatitudeDegrees>
              <LongitudeDegrees>-4.2851365171372890472412109375</LongitudeDegrees>
            </Position>
            <AltitudeMeters>865.79998779296875</AltitudeMeters>
            <DistanceMeters>136294.31664821</DistanceMeters>
          </Trackpoint>
          <Trackpoint>
            <Time>2019-08-02T12:27:27.000Z</Time>
            <Position>
              <LatitudeDegrees>41.085549294948577880859375</LatitudeDegrees>
              <LongitudeDegrees>-4.285255037248134613037109375</LongitudeDegrees>
            </Position>
            <AltitudeMeters>865</AltitudeMeters>
            <DistanceMeters>136310.9476807</DistanceMeters>
          </Trackpoint>
          <Trackpoint>
            <Time>2019-08-02T12:27:36.000Z</Time>
            <Position>
              <LatitudeDegrees>41.0857895202934741973876953125</LatitudeDegrees>
              <LongitudeDegrees>-4.285517223179340362548828125</LongitudeDegrees>
            </Position>
            <AltitudeMeters>863.79998779296875</AltitudeMeters>
            <DistanceMeters>136345.56976133</DistanceMeters>
          </Trackpoint>
          <Trackpoint>
            <Time>2019-08-02T12:27:44.000Z</Time>
            <Position>
              <LatitudeDegrees>41.08603737317025661468505859375</LatitudeDegrees>
              <LongitudeDegrees>-4.28576608188450336456298828125</LongitudeDegrees>
            </Position>
            <AltitudeMeters>865</AltitudeMeters>
            <DistanceMeters>136380.16548928</DistanceMeters>
          </Trackpoint>
          <Trackpoint>
            <Time>2019-08-02T12:27:58.000Z</Time>
            <Position>
              <LatitudeDegrees>41.08645923435688018798828125</LatitudeDegrees>
              <LongitudeDegrees>-4.28621225059032440185546875</LongitudeDegrees>
            </Position>
            <AltitudeMeters>865.4000244140625</AltitudeMeters>
            <DistanceMeters>136440.21244826</DistanceMeters>
          </Trackpoint>
          <Trackpoint>
            <Time>2019-08-02T12:28:05.000Z</Time>
            <Position>
              <LatitudeDegrees>41.086662076413631439208984375</LatitudeDegrees>
              <LongitudeDegrees>-4.2864209599792957305908203125</LongitudeDegrees>
            </Position>
            <AltitudeMeters>865.79998779296875</AltitudeMeters>
            <DistanceMeters>136468.7827953</DistanceMeters>
          </Trackpoint>
          <Trackpoint>
            <Time>2019-08-02T12:28:08.000Z</Time>
            <Position>
              <LatitudeDegrees>41.08675000257790088653564453125</LatitudeDegrees>
              <LongitudeDegrees>-4.2865145020186901092529296875</LongitudeDegrees>
            </Position>
            <AltitudeMeters>867</AltitudeMeters>
            <DistanceMeters>136481.3263216</DistanceMeters>
          </Trackpoint>
          <Trackpoint>
            <Time>2019-08-02T12:28:11.000Z</Time>
            <Position>
              <LatitudeDegrees>41.0868369229137897491455078125</LatitudeDegrees>
              <LongitudeDegrees>-4.2866087146103382110595703125</LongitudeDegrees>
            </Position>
            <AltitudeMeters>868</AltitudeMeters>
            <DistanceMeters>136493.81863048</DistanceMeters>
          </Trackpoint>
          <Trackpoint>
            <Time>2019-08-02T12:28:17.000Z</Time>
            <Position>
              <LatitudeDegrees>41.087015457451343536376953125</LatitudeDegrees>
              <LongitudeDegrees>-4.28679655306041240692138671875</LongitudeDegrees>
            </Position>
            <AltitudeMeters>869</AltitudeMeters>
            <DistanceMeters>136519.17937169</DistanceMeters>
          </Trackpoint>
          <Trackpoint>
            <Time>2019-08-02T12:28:22.000Z</Time>
            <Position>
              <LatitudeDegrees>41.087158955633640289306640625</LatitudeDegrees>
              <LongitudeDegrees>-4.286963939666748046875</LongitudeDegrees>
            </Position>
            <AltitudeMeters>870</AltitudeMeters>
            <DistanceMeters>136540.44583234</DistanceMeters>
          </Trackpoint>
          <Trackpoint>
            <Time>2019-08-02T12:28:24.000Z</Time>
            <Position>
              <LatitudeDegrees>41.08721536584198474884033203125</LatitudeDegrees>
              <LongitudeDegrees>-4.28703225217759609222412109375</LongitudeDegrees>
            </Position>
            <AltitudeMeters>871.20001220703125</AltitudeMeters>
            <DistanceMeters>136548.94634243</DistanceMeters>
          </Trackpoint>
          <Trackpoint>
            <Time>2019-08-02T12:28:27.000Z</Time>
            <Position>
              <LatitudeDegrees>41.087299771606922149658203125</LatitudeDegrees>
              <LongitudeDegrees>-4.287133254110813140869140625</LongitudeDegrees>
            </Position>
            <AltitudeMeters>872.20001220703125</AltitudeMeters>
            <DistanceMeters>136561.59739277</DistanceMeters>
          </Trackpoint>
          <Trackpoint>
            <Time>2019-08-02T12:28:31.000Z</Time>
            <Position>
              <LatitudeDegrees>41.08741435222327709197998046875</LatitudeDegrees>
              <LongitudeDegrees>-4.28727532736957073211669921875</LongitudeDegrees>
            </Position>
            <AltitudeMeters>873.20001220703125</AltitudeMeters>
            <DistanceMeters>136579.05284577</DistanceMeters>
          </Trackpoint>
          <Trackpoint>
            <Time>2019-08-02T12:28:33.000Z</Time>
            <Position>
              <LatitudeDegrees>41.08746933750808238983154296875</LatitudeDegrees>
              <LongitudeDegrees>-4.28734816610813140869140625</LongitudeDegrees>
            </Position>
            <AltitudeMeters>874.20001220703125</AltitudeMeters>
            <DistanceMeters>136587.70079889</DistanceMeters>
          </Trackpoint>
          <Trackpoint>
            <Time>2019-08-02T12:28:36.000Z</Time>
            <Position>
              <LatitudeDegrees>41.087547205388545989990234375</LatitudeDegrees>
              <LongitudeDegrees>-4.2874656803905963897705078125</LongitudeDegrees>
            </Position>
            <AltitudeMeters>875.20001220703125</AltitudeMeters>
            <DistanceMeters>136600.82687441</DistanceMeters>
          </Trackpoint>
          <Trackpoint>
            <Time>2019-08-02T12:28:40.000Z</Time>
            <Position>
              <LatitudeDegrees>41.08765658922493457794189453125</LatitudeDegrees>
              <LongitudeDegrees>-4.287618063390254974365234375</LongitudeDegrees>
            </Position>
            <AltitudeMeters>876.20001220703125</AltitudeMeters>
            <DistanceMeters>136618.47986107</DistanceMeters>
          </Trackpoint>
          <Trackpoint>
            <Time>2019-08-02T12:28:54.000Z</Time>
            <Position>
              <LatitudeDegrees>41.08800896443426609039306640625</LatitudeDegrees>
              <LongitudeDegrees>-4.28819029591977596282958984375</LongitudeDegrees>
            </Position>
            <AltitudeMeters>876.20001220703125</AltitudeMeters>
            <DistanceMeters>136680.46846074</DistanceMeters>
          </Trackpoint>
          <Trackpoint>
            <Time>2019-08-02T12:29:08.000Z</Time>
            <Position>
              <LatitudeDegrees>41.08829579316079616546630859375</LatitudeDegrees>
              <LongitudeDegrees>-4.28884693421423435211181640625</LongitudeDegrees>
            </Position>
            <AltitudeMeters>877.20001220703125</AltitudeMeters>
            <DistanceMeters>136744.13522471</DistanceMeters>
          </Trackpoint>
          <Trackpoint>
            <Time>2019-08-02T12:29:13.000Z</Time>
            <Position>
              <LatitudeDegrees>41.08838011510670185089111328125</LatitudeDegrees>
              <LongitudeDegrees>-4.28909822367131710052490234375</LongitudeDegrees>
            </Position>
            <AltitudeMeters>878.4000244140625</AltitudeMeters>
            <DistanceMeters>136767.21009042</DistanceMeters>
          </Trackpoint>
          <Trackpoint>
            <Time>2019-08-02T12:29:27.000Z</Time>
            <Position>
              <LatitudeDegrees>41.08858698047697544097900390625</LatitudeDegrees>
              <LongitudeDegrees>-4.28981604985892772674560546875</LongitudeDegrees>
            </Position>
            <AltitudeMeters>879.20001220703125</AltitudeMeters>
            <DistanceMeters>136831.67869553</DistanceMeters>
          </Trackpoint>
          <Trackpoint>
            <Time>2019-08-02T12:29:28.000Z</Time>
            <Position>
              <LatitudeDegrees>41.0885989665985107421875</LatitudeDegrees>
              <LongitudeDegrees>-4.2898702807724475860595703125</LongitudeDegrees>
            </Position>
            <AltitudeMeters>879.4000244140625</AltitudeMeters>
            <DistanceMeters>136836.42051905</DistanceMeters>
          </Trackpoint>
          <Trackpoint>
            <Time>2019-08-02T12:29:41.000Z</Time>
            <Position>
              <LatitudeDegrees>41.0887505114078521728515625</LatitudeDegrees>
              <LongitudeDegrees>-4.29057695902884006500244140625</LongitudeDegrees>
            </Position>
            <AltitudeMeters>880</AltitudeMeters>
            <DistanceMeters>136898.05492218</DistanceMeters>
          </Trackpoint>
          <Trackpoint>
            <Time>2019-08-02T12:29:55.000Z</Time>
            <Position>
              <LatitudeDegrees>41.08891018666326999664306640625</LatitudeDegrees>
              <LongitudeDegrees>-4.29130819626152515411376953125</LongitudeDegrees>
            </Position>
            <AltitudeMeters>879.79998779296875</AltitudeMeters>
            <DistanceMeters>136961.91909592</DistanceMeters>
          </Trackpoint>
          <Trackpoint>
            <Time>2019-08-02T12:30:02.000Z</Time>
            <Position>
              <LatitudeDegrees>41.0889836959540843963623046875</LatitudeDegrees>
              <LongitudeDegrees>-4.2916591465473175048828125</LongitudeDegrees>
            </Position>
            <AltitudeMeters>880.20001220703125</AltitudeMeters>
            <DistanceMeters>136992.47487645</DistanceMeters>
          </Trackpoint>
          <Trackpoint>
            <Time>2019-08-02T12:30:15.000Z</Time>
            <Position>
              <LatitudeDegrees>41.08911587856709957122802734375</LatitudeDegrees>
              <LongitudeDegrees>-4.2923027090728282928466796875</LongitudeDegrees>
            </Position>
            <AltitudeMeters>881.20001220703125</AltitudeMeters>
            <DistanceMeters>137048.43012084</DistanceMeters>
          </Trackpoint>
          <Trackpoint>
            <Time>2019-08-02T12:30:29.000Z</Time>
            <Position>
              <LatitudeDegrees>41.08926004730165004730224609375</LatitudeDegrees>
              <LongitudeDegrees>-4.29301542229950428009033203125</LongitudeDegrees>
            </Position>
            <AltitudeMeters>881.20001220703125</AltitudeMeters>
            <DistanceMeters>137110.33329718</DistanceMeters>
          </Trackpoint>
          <Trackpoint>
            <Time>2019-08-02T12:30:38.000Z</Time>
            <Position>
              <LatitudeDegrees>41.0893540084362030029296875</LatitudeDegrees>
              <LongitudeDegrees>-4.29346854798495769500732421875</LongitudeDegrees>
            </Position>
            <AltitudeMeters>880.20001220703125</AltitudeMeters>
            <DistanceMeters>137149.75690225</DistanceMeters>
          </Trackpoint>
          <Trackpoint>
            <Time>2019-08-02T12:30:52.000Z</Time>
            <Position>
              <LatitudeDegrees>41.089503206312656402587890625</LatitudeDegrees>
              <LongitudeDegrees>-4.2941722087562084197998046875</LongitudeDegrees>
            </Position>
            <AltitudeMeters>879.4000244140625</AltitudeMeters>
            <DistanceMeters>137211.07601453</DistanceMeters>
          </Trackpoint>
          <Trackpoint>
            <Time>2019-08-02T12:30:55.000Z</Time>
            <Position>
              <LatitudeDegrees>41.08953882940113544464111328125</LatitudeDegrees>
              <LongitudeDegrees>-4.2943224124610424041748046875</LongitudeDegrees>
            </Position>
            <AltitudeMeters>879</AltitudeMeters>
            <DistanceMeters>137224.28506965</DistanceMeters>
          </Trackpoint>
          <Trackpoint>
            <Time>2019-08-02T12:31:09.000Z</Time>
            <Position>
              <LatitudeDegrees>41.08974670059978961944580078125</LatitudeDegrees>
              <LongitudeDegrees>-4.2949845828115940093994140625</LongitudeDegrees>
            </Position>
            <AltitudeMeters>879.20001220703125</AltitudeMeters>
            <DistanceMeters>137284.45776803</DistanceMeters>
          </Trackpoint>
          <Trackpoint>
            <Time>2019-08-02T12:31:25.000Z</Time>
            <Position>
              <LatitudeDegrees>41.09003218822181224822998046875</LatitudeDegrees>
              <LongitudeDegrees>-4.2956336773931980133056640625</LongitudeDegrees>
            </Position>
            <AltitudeMeters>879.5999755859375</AltitudeMeters>
            <DistanceMeters>137347.50117178</DistanceMeters>
          </Trackpoint>
          <Trackpoint>
            <Time>2019-08-02T12:31:42.000Z</Time>
            <Position>
              <LatitudeDegrees>41.090366207063198089599609375</LatitudeDegrees>
              <LongitudeDegrees>-4.296215213835239410400390625</LongitudeDegrees>
            </Position>
            <AltitudeMeters>878</AltitudeMeters>
            <DistanceMeters>137408.8352295</DistanceMeters>
          </Trackpoint>
          <Trackpoint>
            <Time>2019-08-02T12:31:45.000Z</Time>
            <Position>
              <LatitudeDegrees>41.0904186777770519256591796875</LatitudeDegrees>
              <LongitudeDegrees>-4.29630649276077747344970703125</LongitudeDegrees>
            </Position>
            <AltitudeMeters>877.79998779296875</AltitudeMeters>
            <DistanceMeters>137418.46533256</DistanceMeters>
          </Trackpoint>
          <Trackpoint>
            <Time>2019-08-02T12:32:03.000Z</Time>
            <Position>
              <LatitudeDegrees>41.09079980291426181793212890625</LatitudeDegrees>
              <LongitudeDegrees>-4.29681493900716304779052734375</LongitudeDegrees>
            </Position>
            <AltitudeMeters>877.5999755859375</AltitudeMeters>
            <DistanceMeters>137478.61986982</DistanceMeters>
          </Trackpoint>
          <Trackpoint>
            <Time>2019-08-02T12:32:18.000Z</Time>
            <Position>
              <LatitudeDegrees>41.09118050895631313323974609375</LatitudeDegrees>
              <LongitudeDegrees>-4.29720737971365451812744140625</LongitudeDegrees>
            </Position>
            <AltitudeMeters>876.5999755859375</AltitudeMeters>
            <DistanceMeters>137532.27808219</DistanceMeters>
          </Trackpoint>
          <Trackpoint>
            <Time>2019-08-02T12:32:23.000Z</Time>
            <Position>
              <LatitudeDegrees>41.09131193719804286956787109375</LatitudeDegrees>
              <LongitudeDegrees>-4.29733126424252986907958984375</LongitudeDegrees>
            </Position>
            <AltitudeMeters>875.79998779296875</AltitudeMeters>
            <DistanceMeters>137550.22178319</DistanceMeters>
          </Trackpoint>
          <Trackpoint>
            <Time>2019-08-02T12:32:27.000Z</Time>
            <Position>
              <LatitudeDegrees>41.09141687862575054168701171875</LatitudeDegrees>
              <LongitudeDegrees>-4.29742178879678249359130859375</LongitudeDegrees>
            </Position>
            <AltitudeMeters>874.5999755859375</AltitudeMeters>
            <DistanceMeters>137564.1534903</DistanceMeters>
          </Trackpoint>
          <Trackpoint>
            <Time>2019-08-02T12:32:31.000Z</Time>
            <Position>
              <LatitudeDegrees>41.09152249060571193695068359375</LatitudeDegrees>
              <LongitudeDegrees>-4.297508709132671356201171875</LongitudeDegrees>
            </Position>
            <AltitudeMeters>873</AltitudeMeters>
            <DistanceMeters>137577.98567233</DistanceMeters>
          </Trackpoint>
          <Trackpoint>
            <Time>2019-08-02T12:32:35.000Z</Time>
            <Position>
              <LatitudeDegrees>41.0916286893188953399658203125</LatitudeDegrees>
              <LongitudeDegrees>-4.297594539821147918701171875</LongitudeDegrees>
            </Position>
            <AltitudeMeters>872</AltitudeMeters>
            <DistanceMeters>137591.82568612</DistanceMeters>
          </Trackpoint>
          <Trackpoint>
            <Time>2019-08-02T12:32:39.000Z</Time>
            <Position>
              <LatitudeDegrees>41.09173740260303020477294921875</LatitudeDegrees>
              <LongitudeDegrees>-4.29768129251897335052490234375</LongitudeDegrees>
            </Position>
            <AltitudeMeters>870.79998779296875</AltitudeMeters>
            <DistanceMeters>137605.94538964</DistanceMeters>
          </Trackpoint>
          <Trackpoint>
            <Time>2019-08-02T12:32:45.000Z</Time>
            <Position>
              <LatitudeDegrees>41.0918989218771457672119140625</LatitudeDegrees>
              <LongitudeDegrees>-4.2978096194565296173095703125</LongitudeDegrees>
            </Position>
            <AltitudeMeters>869.79998779296875</AltitudeMeters>
            <DistanceMeters>137626.89915725</DistanceMeters>
          </Trackpoint>
          <Trackpoint>
            <Time>2019-08-02T12:32:52.000Z</Time>
            <Position>
              <LatitudeDegrees>41.0920980758965015411376953125</LatitudeDegrees>
              <LongitudeDegrees>-4.29796409793198108673095703125</LongitudeDegrees>
            </Position>
            <AltitudeMeters>870.79998779296875</AltitudeMeters>
            <DistanceMeters>137652.57519259</DistanceMeters>
          </Trackpoint>
          <Trackpoint>
            <Time>2019-08-02T12:32:56.000Z</Time>
            <Position>
              <LatitudeDegrees>41.09221701510250568389892578125</LatitudeDegrees>
              <LongitudeDegrees>-4.29805755615234375</LongitudeDegrees>
            </Position>
            <AltitudeMeters>872</AltitudeMeters>
            <DistanceMeters>137667.96071903</DistanceMeters>
          </Trackpoint>
          <Trackpoint>
            <Time>2019-08-02T12:33:02.000Z</Time>
            <Position>
              <LatitudeDegrees>41.09235732816159725189208984375</LatitudeDegrees>
              <LongitudeDegrees>-4.2981661856174468994140625</LongitudeDegrees>
            </Position>
            <AltitudeMeters>873.20001220703125</AltitudeMeters>
            <DistanceMeters>137686.04203308</DistanceMeters>
          </Trackpoint>
          <Trackpoint>
            <Time>2019-08-02T12:33:11.000Z</Time>
            <Position>
              <LatitudeDegrees>41.0926311649382114410400390625</LatitudeDegrees>
              <LongitudeDegrees>-4.2983896471560001373291015625</LongitudeDegrees>
            </Position>
            <AltitudeMeters>874</AltitudeMeters>
            <DistanceMeters>137721.8234714</DistanceMeters>
          </Trackpoint>
          <Trackpoint>
            <Time>2019-08-02T12:33:28.000Z</Time>
            <Position>
              <LatitudeDegrees>41.09310298226773738861083984375</LatitudeDegrees>
              <LongitudeDegrees>-4.2987584508955478668212890625</LongitudeDegrees>
            </Position>
            <AltitudeMeters>874.79998779296875</AltitudeMeters>
            <DistanceMeters>137782.77257187</DistanceMeters>
          </Trackpoint>
          <Trackpoint>
            <Time>2019-08-02T12:33:29.000Z</Time>
            <Position>
              <LatitudeDegrees>41.0931305587291717529296875</LatitudeDegrees>
              <LongitudeDegrees>-4.2987802438437938690185546875</LongitudeDegrees>
            </Position>
            <AltitudeMeters>874.79998779296875</AltitudeMeters>
            <DistanceMeters>137786.34461582</DistanceMeters>
          </Trackpoint>
          <Trackpoint>
            <Time>2019-08-02T12:33:44.000Z</Time>
            <Position>
              <LatitudeDegrees>41.09353833831846714019775390625</LatitudeDegrees>
              <LongitudeDegrees>-4.2991057969629764556884765625</LongitudeDegrees>
            </Position>
            <AltitudeMeters>872.5999755859375</AltitudeMeters>
            <DistanceMeters>137839.3132088</DistanceMeters>
          </Trackpoint>
          <Trackpoint>
            <Time>2019-08-02T12:34:01.000Z</Time>
            <Position>
              <LatitudeDegrees>41.09400571323931217193603515625</LatitudeDegrees>
              <LongitudeDegrees>-4.29949496872723102569580078125</LongitudeDegrees>
            </Position>
            <AltitudeMeters>871.4000244140625</AltitudeMeters>
            <DistanceMeters>137900.72737971</DistanceMeters>
          </Trackpoint>
          <Trackpoint>
            <Time>2019-08-02T12:34:12.000Z</Time>
            <Position>
              <LatitudeDegrees>41.09429807402193546295166015625</LatitudeDegrees>
              <LongitudeDegrees>-4.29977358318865299224853515625</LongitudeDegrees>
            </Position>
            <AltitudeMeters>870.4000244140625</AltitudeMeters>
            <DistanceMeters>137940.79057938</DistanceMeters>
          </Trackpoint>
          <Trackpoint>
            <Time>2019-08-02T12:34:29.000Z</Time>
            <Position>
              <LatitudeDegrees>41.09471465460956096649169921875</LatitudeDegrees>
              <LongitudeDegrees>-4.3002658523619174957275390625</LongitudeDegrees>
            </Position>
            <AltitudeMeters>870.4000244140625</AltitudeMeters>
            <DistanceMeters>138002.87786691</DistanceMeters>
          </Trackpoint>
          <Trackpoint>
            <Time>2019-08-02T12:34:39.000Z</Time>
            <Position>
              <LatitudeDegrees>41.09493501484394073486328125</LatitudeDegrees>
              <LongitudeDegrees>-4.3005880527198314666748046875</LongitudeDegrees>
            </Position>
            <AltitudeMeters>871</AltitudeMeters>
            <DistanceMeters>138039.37381649</DistanceMeters>
          </Trackpoint>
          <Trackpoint>
            <Time>2019-08-02T12:34:47.000Z</Time>
            <Position>
              <LatitudeDegrees>41.0951008088886737823486328125</LatitudeDegrees>
              <LongitudeDegrees>-4.300865493714809417724609375</LongitudeDegrees>
            </Position>
            <AltitudeMeters>872</AltitudeMeters>
            <DistanceMeters>138069.07388362</DistanceMeters>
          </Trackpoint>
          <Trackpoint>
            <Time>2019-08-02T12:34:50.000Z</Time>
            <Position>
              <LatitudeDegrees>41.09516660682857036590576171875</LatitudeDegrees>
              <LongitudeDegrees>-4.300978481769561767578125</LongitudeDegrees>
            </Position>
            <AltitudeMeters>873</AltitudeMeters>
            <DistanceMeters>138081.05101993</DistanceMeters>
          </Trackpoint>
          <Trackpoint>
            <Time>2019-08-02T12:34:52.000Z</Time>
            <Position>
              <LatitudeDegrees>41.09520566649734973907470703125</LatitudeDegrees>
              <LongitudeDegrees>-4.3010537512600421905517578125</LongitudeDegrees>
            </Position>
            <AltitudeMeters>874</AltitudeMeters>
            <DistanceMeters>138088.71703177</DistanceMeters>
          </Trackpoint>
          <Trackpoint>
            <Time>2019-08-02T12:34:58.000Z</Time>
            <Position>
              <LatitudeDegrees>41.095312871038913726806640625</LatitudeDegrees>
              <LongitudeDegrees>-4.3012740276753902435302734375</LongitudeDegrees>
            </Position>
            <AltitudeMeters>875.4000244140625</AltitudeMeters>
            <DistanceMeters>138110.71155962</DistanceMeters>
          </Trackpoint>
          <Trackpoint>
            <Time>2019-08-02T12:35:02.000Z</Time>
            <Position>
              <LatitudeDegrees>41.09538185410201549530029296875</LatitudeDegrees>
              <LongitudeDegrees>-4.3014238961040973663330078125</LongitudeDegrees>
            </Position>
            <AltitudeMeters>876.5999755859375</AltitudeMeters>
            <DistanceMeters>138125.44161993</DistanceMeters>
          </Trackpoint>
          <Trackpoint>
            <Time>2019-08-02T12:35:06.000Z</Time>
            <Position>
              <LatitudeDegrees>41.0954461432993412017822265625</LatitudeDegrees>
              <LongitudeDegrees>-4.301584661006927490234375</LongitudeDegrees>
            </Position>
            <AltitudeMeters>877.5999755859375</AltitudeMeters>
            <DistanceMeters>138140.70753664</DistanceMeters>
          </Trackpoint>
          <Trackpoint>
            <Time>2019-08-02T12:35:11.000Z</Time>
            <Position>
              <LatitudeDegrees>41.09552451409399509429931640625</LatitudeDegrees>
              <LongitudeDegrees>-4.30178892798721790313720703125</LongitudeDegrees>
            </Position>
            <AltitudeMeters>878.4000244140625</AltitudeMeters>
            <DistanceMeters>138159.93372137</DistanceMeters>
          </Trackpoint>
          <Trackpoint>
            <Time>2019-08-02T12:35:18.000Z</Time>
            <Position>
              <LatitudeDegrees>41.09562442637979984283447265625</LatitudeDegrees>
              <LongitudeDegrees>-4.3020800314843654632568359375</LongitudeDegrees>
            </Position>
            <AltitudeMeters>879.5999755859375</AltitudeMeters>
            <DistanceMeters>138186.76408968</DistanceMeters>
          </Trackpoint>
          <Trackpoint>
            <Time>2019-08-02T12:35:25.000Z</Time>
            <Position>
              <LatitudeDegrees>41.0957143642008304595947265625</LatitudeDegrees>
              <LongitudeDegrees>-4.302387647330760955810546875</LongitudeDegrees>
            </Position>
            <AltitudeMeters>880.5999755859375</AltitudeMeters>
            <DistanceMeters>138214.44020221</DistanceMeters>
          </Trackpoint>
          <Trackpoint>
            <Time>2019-08-02T12:35:31.000Z</Time>
            <Position>
              <LatitudeDegrees>41.09577530063688755035400390625</LatitudeDegrees>
              <LongitudeDegrees>-4.3026454746723175048828125</LongitudeDegrees>
            </Position>
            <AltitudeMeters>881.5999755859375</AltitudeMeters>
            <DistanceMeters>138237.10501985</DistanceMeters>
          </Trackpoint>
          <Trackpoint>
            <Time>2019-08-02T12:35:39.000Z</Time>
            <Position>
              <LatitudeDegrees>41.09584084711968898773193359375</LatitudeDegrees>
              <LongitudeDegrees>-4.302983097732067108154296875</LongitudeDegrees>
            </Position>
            <AltitudeMeters>882.5999755859375</AltitudeMeters>
            <DistanceMeters>138266.34886398</DistanceMeters>
          </Trackpoint>
          <Trackpoint>
            <Time>2019-08-02T12:35:44.000Z</Time>
            <Position>
              <LatitudeDegrees>41.0958752967417240142822265625</LatitudeDegrees>
              <LongitudeDegrees>-4.30320211686193943023681640625</LongitudeDegrees>
            </Position>
            <AltitudeMeters>883.5999755859375</AltitudeMeters>
            <DistanceMeters>138285.11537701</DistanceMeters>
          </Trackpoint>
          <Trackpoint>
            <Time>2019-08-02T12:35:49.000Z</Time>
            <Position>
              <LatitudeDegrees>41.09590471722185611724853515625</LatitudeDegrees>
              <LongitudeDegrees>-4.30341862142086029052734375</LongitudeDegrees>
            </Position>
            <AltitudeMeters>884.79998779296875</AltitudeMeters>
            <DistanceMeters>138303.56842968</DistanceMeters>
          </Trackpoint>
          <Trackpoint>
            <Time>2019-08-02T12:35:55.000Z</Time>
            <Position>
              <LatitudeDegrees>41.09593220986425876617431640625</LatitudeDegrees>
              <LongitudeDegrees>-4.30368390865623950958251953125</LongitudeDegrees>
            </Position>
            <AltitudeMeters>885.79998779296875</AltitudeMeters>
            <DistanceMeters>138326.029939</DistanceMeters>
          </Trackpoint>
          <Trackpoint>
            <Time>2019-08-02T12:36:01.000Z</Time>
            <Position>
              <LatitudeDegrees>41.09595115296542644500732421875</LatitudeDegrees>
              <LongitudeDegrees>-4.30394156835973262786865234375</LongitudeDegrees>
            </Position>
            <AltitudeMeters>887</AltitudeMeters>
            <DistanceMeters>138347.74473883</DistanceMeters>
          </Trackpoint>
          <Trackpoint>
            <Time>2019-08-02T12:36:05.000Z</Time>
            <Position>
              <LatitudeDegrees>41.0959576070308685302734375</LatitudeDegrees>
              <LongitudeDegrees>-4.30412094108760356903076171875</LongitudeDegrees>
            </Position>
            <AltitudeMeters>888</AltitudeMeters>
            <DistanceMeters>138362.80759715</DistanceMeters>
          </Trackpoint>
          <Trackpoint>
            <Time>2019-08-02T12:36:10.000Z</Time>
            <Position>
              <LatitudeDegrees>41.0959614627063274383544921875</LatitudeDegrees>
              <LongitudeDegrees>-4.30434130132198333740234375</LongitudeDegrees>
            </Position>
            <AltitudeMeters>889.20001220703125</AltitudeMeters>
            <DistanceMeters>138381.29609394</DistanceMeters>
          </Trackpoint>
          <Trackpoint>
            <Time>2019-08-02T12:36:15.000Z</Time>
            <Position>
              <LatitudeDegrees>41.09595953486859798431396484375</LatitudeDegrees>
              <LongitudeDegrees>-4.30456233210861682891845703125</LongitudeDegrees>
            </Position>
            <AltitudeMeters>890.4000244140625</AltitudeMeters>
            <DistanceMeters>138399.83677759</DistanceMeters>
          </Trackpoint>
          <Trackpoint>
            <Time>2019-08-02T12:36:21.000Z</Time>
            <Position>
              <LatitudeDegrees>41.095947884023189544677734375</LatitudeDegrees>
              <LongitudeDegrees>-4.304828457534313201904296875</LongitudeDegrees>
            </Position>
            <AltitudeMeters>891.5999755859375</AltitudeMeters>
            <DistanceMeters>138422.19654531</DistanceMeters>
          </Trackpoint>
          <Trackpoint>
            <Time>2019-08-02T12:36:24.000Z</Time>
            <Position>
              <LatitudeDegrees>41.0959396697580814361572265625</LatitudeDegrees>
              <LongitudeDegrees>-4.30496030487120151519775390625</LongitudeDegrees>
            </Position>
            <AltitudeMeters>892.5999755859375</AltitudeMeters>
            <DistanceMeters>138433.29312687</DistanceMeters>
          </Trackpoint>
          <Trackpoint>
            <Time>2019-08-02T12:36:30.000Z</Time>
            <Position>
              <LatitudeDegrees>41.0959141887724399566650390625</LatitudeDegrees>
              <LongitudeDegrees>-4.305228106677532196044921875</LongitudeDegrees>
            </Position>
            <AltitudeMeters>893.5999755859375</AltitudeMeters>
            <DistanceMeters>138455.93422622</DistanceMeters>
          </Trackpoint>
          <Trackpoint>
            <Time>2019-08-02T12:36:38.000Z</Time>
            <Position>
              <LatitudeDegrees>41.0958699323236942291259765625</LatitudeDegrees>
              <LongitudeDegrees>-4.30560864508152008056640625</LongitudeDegrees>
            </Position>
            <AltitudeMeters>894.79998779296875</AltitudeMeters>
            <DistanceMeters>138488.23100918</DistanceMeters>
          </Trackpoint>
          <Trackpoint>
            <Time>2019-08-02T12:36:49.000Z</Time>
            <Position>
              <LatitudeDegrees>41.095803044736385345458984375</LatitudeDegrees>
              <LongitudeDegrees>-4.30615187622606754302978515625</LongitudeDegrees>
            </Position>
            <AltitudeMeters>895.79998779296875</AltitudeMeters>
            <DistanceMeters>138534.40059674</DistanceMeters>
          </Trackpoint>
          <Trackpoint>
            <Time>2019-08-02T12:37:01.000Z</Time>
            <Position>
              <LatitudeDegrees>41.09571428038179874420166015625</LatitudeDegrees>
              <LongitudeDegrees>-4.30673106573522090911865234375</LongitudeDegrees>
            </Position>
            <AltitudeMeters>896.79998779296875</AltitudeMeters>
            <DistanceMeters>138583.97649902</DistanceMeters>
          </Trackpoint>
          <Trackpoint>
            <Time>2019-08-02T12:37:15.000Z</Time>
            <Position>
              <LatitudeDegrees>41.0956141166388988494873046875</LatitudeDegrees>
              <LongitudeDegrees>-4.3074843473732471466064453125</LongitudeDegrees>
            </Position>
            <AltitudeMeters>897.4000244140625</AltitudeMeters>
            <DistanceMeters>138648.13670412</DistanceMeters>
          </Trackpoint>
          <Trackpoint>
            <Time>2019-08-02T12:37:29.000Z</Time>
            <Position>
              <LatitudeDegrees>41.09551370143890380859375</LatitudeDegrees>
              <LongitudeDegrees>-4.3082025088369846343994140625</LongitudeDegrees>
            </Position>
            <AltitudeMeters>897.20001220703125</AltitudeMeters>
            <DistanceMeters>138709.40322071</DistanceMeters>
          </Trackpoint>
          <Trackpoint>
            <Time>2019-08-02T12:37:37.000Z</Time>
            <Position>
              <LatitudeDegrees>41.09545544721186161041259765625</LatitudeDegrees>
              <LongitudeDegrees>-4.30859955959022045135498046875</LongitudeDegrees>
            </Position>
            <AltitudeMeters>898</AltitudeMeters>
            <DistanceMeters>138743.33268174</DistanceMeters>
          </Trackpoint>
          <Trackpoint>
            <Time>2019-08-02T12:37:41.000Z</Time>
            <Position>
              <LatitudeDegrees>41.09542896039783954620361328125</LatitudeDegrees>
              <LongitudeDegrees>-4.30879519321024417877197265625</LongitudeDegrees>
            </Position>
            <AltitudeMeters>899.5999755859375</AltitudeMeters>
            <DistanceMeters>138760.00547015</DistanceMeters>
          </Trackpoint>
          <Trackpoint>
            <Time>2019-08-02T12:37:47.000Z</Time>
            <Position>
              <LatitudeDegrees>41.0953862965106964111328125</LatitudeDegrees>
              <LongitudeDegrees>-4.309086464345455169677734375</LongitudeDegrees>
            </Position>
            <AltitudeMeters>900.5999755859375</AltitudeMeters>
            <DistanceMeters>138784.89412587</DistanceMeters>
          </Trackpoint>
          <Trackpoint>
            <Time>2019-08-02T12:37:52.000Z</Time>
            <Position>
              <LatitudeDegrees>41.09535251744091510772705078125</LatitudeDegrees>
              <LongitudeDegrees>-4.309335239231586456298828125</LongitudeDegrees>
            </Position>
            <AltitudeMeters>901.5999755859375</AltitudeMeters>
            <DistanceMeters>138806.09701143</DistanceMeters>
          </Trackpoint>
          <Trackpoint>
            <Time>2019-08-02T12:37:59.000Z</Time>
            <Position>
              <LatitudeDegrees>41.09530038200318813323974609375</LatitudeDegrees>
              <LongitudeDegrees>-4.3096894584596157073974609375</LongitudeDegrees>
            </Position>
            <AltitudeMeters>903</AltitudeMeters>
            <DistanceMeters>138836.3698441</DistanceMeters>
          </Trackpoint>
          <Trackpoint>
            <Time>2019-08-02T12:38:13.000Z</Time>
            <Position>
              <LatitudeDegrees>41.09519829042255878448486328125</LatitudeDegrees>
              <LongitudeDegrees>-4.31040787138044834136962890625</LongitudeDegrees>
            </Position>
            <AltitudeMeters>902.20001220703125</AltitudeMeters>
            <DistanceMeters>138897.6916807</DistanceMeters>
          </Trackpoint>
          <Trackpoint>
            <Time>2019-08-02T12:38:15.000Z</Time>
            <Position>
              <LatitudeDegrees>41.0951842926442623138427734375</LatitudeDegrees>
              <LongitudeDegrees>-4.3105115555226802825927734375</LongitudeDegrees>
            </Position>
            <AltitudeMeters>901.79998779296875</AltitudeMeters>
            <DistanceMeters>138906.52661028</DistanceMeters>
          </Trackpoint>
          <Trackpoint>
            <Time>2019-08-02T12:38:26.000Z</Time>
            <Position>
              <LatitudeDegrees>41.09510265290737152099609375</LatitudeDegrees>
              <LongitudeDegrees>-4.31108898483216762542724609375</LongitudeDegrees>
            </Position>
            <AltitudeMeters>900.79998779296875</AltitudeMeters>
            <DistanceMeters>138955.8060021</DistanceMeters>
          </Trackpoint>
          <Trackpoint>
            <Time>2019-08-02T12:38:40.000Z</Time>
            <Position>
              <LatitudeDegrees>41.0950008966028690338134765625</LatitudeDegrees>
              <LongitudeDegrees>-4.3118214793503284454345703125</LongitudeDegrees>
            </Position>
            <AltitudeMeters>900.5999755859375</AltitudeMeters>
            <DistanceMeters>139018.28236318</DistanceMeters>
          </Trackpoint>
          <Trackpoint>
            <Time>2019-08-02T12:38:53.000Z</Time>
            <Position>
              <LatitudeDegrees>41.09489788301289081573486328125</LatitudeDegrees>
              <LongitudeDegrees>-4.3125560693442821502685546875</LongitudeDegrees>
            </Position>
            <AltitudeMeters>900.79998779296875</AltitudeMeters>
            <DistanceMeters>139080.95707397</DistanceMeters>
          </Trackpoint>
          <Trackpoint>
            <Time>2019-08-02T12:39:06.000Z</Time>
            <Position>
              <LatitudeDegrees>41.0947960428893566131591796875</LatitudeDegrees>
              <LongitudeDegrees>-4.313294850289821624755859375</LongitudeDegrees>
            </Position>
            <AltitudeMeters>900.79998779296875</AltitudeMeters>
            <DistanceMeters>139143.95398053</DistanceMeters>
          </Trackpoint>
          <Trackpoint>
            <Time>2019-08-02T12:39:20.000Z</Time>
            <Position>
              <LatitudeDegrees>41.0946674644947052001953125</LatitudeDegrees>
              <LongitudeDegrees>-4.314043857157230377197265625</LongitudeDegrees>
            </Position>
            <AltitudeMeters>901.5999755859375</AltitudeMeters>
            <DistanceMeters>139208.38994121</DistanceMeters>
          </Trackpoint>
          <Trackpoint>
            <Time>2019-08-02T12:39:34.000Z</Time>
            <Position>
              <LatitudeDegrees>41.0944984853267669677734375</LatitudeDegrees>
              <LongitudeDegrees>-4.3147635273635387420654296875</LongitudeDegrees>
            </Position>
            <AltitudeMeters>902</AltitudeMeters>
            <DistanceMeters>139271.61792065</DistanceMeters>
          </Trackpoint>
          <Trackpoint>
            <Time>2019-08-02T12:39:36.000Z</Time>
            <Position>
              <LatitudeDegrees>41.09447300434112548828125</LatitudeDegrees>
              <LongitudeDegrees>-4.3148664571344852447509765625</LongitudeDegrees>
            </Position>
            <AltitudeMeters>902.4000244140625</AltitudeMeters>
            <DistanceMeters>139280.70577403</DistanceMeters>
          </Trackpoint>
          <Trackpoint>
            <Time>2019-08-02T12:39:44.000Z</Time>
            <Position>
              <LatitudeDegrees>41.09437602572143077850341796875</LatitudeDegrees>
              <LongitudeDegrees>-4.3152687884867191314697265625</LongitudeDegrees>
            </Position>
            <AltitudeMeters>903.5999755859375</AltitudeMeters>
            <DistanceMeters>139316.13761575</DistanceMeters>
          </Trackpoint>
          <Trackpoint>
            <Time>2019-08-02T12:39:59.000Z</Time>
            <Position>
              <LatitudeDegrees>41.09420813620090484619140625</LatitudeDegrees>
              <LongitudeDegrees>-4.31596356444060802459716796875</LongitudeDegrees>
            </Position>
            <AltitudeMeters>904.4000244140625</AltitudeMeters>
            <DistanceMeters>139377.33821352</DistanceMeters>
          </Trackpoint>
          <Trackpoint>
            <Time>2019-08-02T12:40:15.000Z</Time>
            <Position>
              <LatitudeDegrees>41.0940369777381420135498046875</LatitudeDegrees>
              <LongitudeDegrees>-4.31667988188564777374267578125</LongitudeDegrees>
            </Position>
            <AltitudeMeters>904.5999755859375</AltitudeMeters>
            <DistanceMeters>139440.37108855</DistanceMeters>
          </Trackpoint>
          <Trackpoint>
            <Time>2019-08-02T12:40:30.000Z</Time>
            <Position>
              <LatitudeDegrees>41.09386883676052093505859375</LatitudeDegrees>
              <LongitudeDegrees>-4.31738094426691532135009765625</LongitudeDegrees>
            </Position>
            <AltitudeMeters>904.79998779296875</AltitudeMeters>
            <DistanceMeters>139502.08280065</DistanceMeters>
          </Trackpoint>
          <Trackpoint>
            <Time>2019-08-02T12:40:46.000Z</Time>
            <Position>
              <LatitudeDegrees>41.09370346181094646453857421875</LatitudeDegrees>
              <LongitudeDegrees>-4.31806926615536212921142578125</LongitudeDegrees>
            </Position>
            <AltitudeMeters>905.4000244140625</AltitudeMeters>
            <DistanceMeters>139562.68302844</DistanceMeters>
          </Trackpoint>
          <Trackpoint>
            <Time>2019-08-02T12:41:02.000Z</Time>
            <Position>
              <LatitudeDegrees>41.09355074353516101837158203125</LatitudeDegrees>
              <LongitudeDegrees>-4.31870318949222564697265625</LongitudeDegrees>
            </Position>
            <AltitudeMeters>906</AltitudeMeters>
            <DistanceMeters>139618.50796787</DistanceMeters>
          </Trackpoint>
          <Trackpoint>
            <Time>2019-08-02T12:41:22.000Z</Time>
            <Position>
              <LatitudeDegrees>41.09337639994919300079345703125</LatitudeDegrees>
              <LongitudeDegrees>-4.3193849734961986541748046875</LongitudeDegrees>
            </Position>
            <AltitudeMeters>905.20001220703125</AltitudeMeters>
            <DistanceMeters>139678.89944479</DistanceMeters>
          </Trackpoint>
          <Trackpoint>
            <Time>2019-08-02T12:41:33.000Z</Time>
            <Position>
              <LatitudeDegrees>41.09330465085804462432861328125</LatitudeDegrees>
              <LongitudeDegrees>-4.319674484431743621826171875</LongitudeDegrees>
            </Position>
            <AltitudeMeters>904</AltitudeMeters>
            <DistanceMeters>139704.46357381</DistanceMeters>
          </Trackpoint>
          <Trackpoint>
            <Time>2019-08-02T12:41:35.000Z</Time>
            <Position>
              <LatitudeDegrees>41.09329886734485626220703125</LatitudeDegrees>
              <LongitudeDegrees>-4.31969099678099155426025390625</LongitudeDegrees>
            </Position>
            <AltitudeMeters>903.79998779296875</AltitudeMeters>
            <DistanceMeters>139705.98992885</DistanceMeters>
          </Trackpoint>
          <Trackpoint>
            <Time>2019-08-02T12:43:51.000Z</Time>
            <Position>
              <LatitudeDegrees>41.09328285790979862213134765625</LatitudeDegrees>
              <LongitudeDegrees>-4.319746233522891998291015625</LongitudeDegrees>
            </Position>
            <AltitudeMeters>926.20001220703125</AltitudeMeters>
            <DistanceMeters>139710.95501784</DistanceMeters>
          </Trackpoint>
          <Trackpoint>
            <Time>2019-08-02T12:43:55.000Z</Time>
            <Position>
              <LatitudeDegrees>41.0932544432580471038818359375</LatitudeDegrees>
              <LongitudeDegrees>-4.3198572099208831787109375</LongitudeDegrees>
            </Position>
            <AltitudeMeters>925</AltitudeMeters>
            <DistanceMeters>139720.7860355</DistanceMeters>
          </Trackpoint>
          <Trackpoint>
            <Time>2019-08-02T12:43:58.000Z</Time>
            <Position>
              <LatitudeDegrees>41.09323315322399139404296875</LatitudeDegrees>
              <LongitudeDegrees>-4.3199542723596096038818359375</LongitudeDegrees>
            </Position>
            <AltitudeMeters>923.79998779296875</AltitudeMeters>
            <DistanceMeters>139729.265273</DistanceMeters>
          </Trackpoint>
          <Trackpoint>
            <Time>2019-08-02T12:44:01.000Z</Time>
            <Position>
              <LatitudeDegrees>41.0932091809809207916259765625</LatitudeDegrees>
              <LongitudeDegrees>-4.320060722529888153076171875</LongitudeDegrees>
            </Position>
            <AltitudeMeters>922.5999755859375</AltitudeMeters>
            <DistanceMeters>139738.58467616</DistanceMeters>
          </Trackpoint>
          <Trackpoint>
            <Time>2019-08-02T12:44:05.000Z</Time>
            <Position>
              <LatitudeDegrees>41.09317506663501262664794921875</LatitudeDegrees>
              <LongitudeDegrees>-4.32021050713956356048583984375</LongitudeDegrees>
            </Position>
            <AltitudeMeters>921.5999755859375</AltitudeMeters>
            <DistanceMeters>139751.7104077</DistanceMeters>
          </Trackpoint>
          <Trackpoint>
            <Time>2019-08-02T12:44:09.000Z</Time>
            <Position>
              <LatitudeDegrees>41.093141622841358184814453125</LatitudeDegrees>
              <LongitudeDegrees>-4.32036372832953929901123046875</LongitudeDegrees>
            </Position>
            <AltitudeMeters>920.5999755859375</AltitudeMeters>
            <DistanceMeters>139765.09130288</DistanceMeters>
          </Trackpoint>
          <Trackpoint>
            <Time>2019-08-02T12:44:13.000Z</Time>
            <Position>
              <LatitudeDegrees>41.0931049101054668426513671875</LatitudeDegrees>
              <LongitudeDegrees>-4.320520050823688507080078125</LongitudeDegrees>
            </Position>
            <AltitudeMeters>919.4000244140625</AltitudeMeters>
            <DistanceMeters>139778.82586865</DistanceMeters>
          </Trackpoint>
          <Trackpoint>
            <Time>2019-08-02T12:44:18.000Z</Time>
            <Position>
              <LatitudeDegrees>41.093059480190277099609375</LatitudeDegrees>
              <LongitudeDegrees>-4.3207156844437122344970703125</LongitudeDegrees>
            </Position>
            <AltitudeMeters>918.20001220703125</AltitudeMeters>
            <DistanceMeters>139795.9970671</DistanceMeters>
          </Trackpoint>
          <Trackpoint>
            <Time>2019-08-02T12:44:25.000Z</Time>
            <Position>
              <LatitudeDegrees>41.09299301169812679290771484375</LatitudeDegrees>
              <LongitudeDegrees>-4.32100192643702030181884765625</LongitudeDegrees>
            </Position>
            <AltitudeMeters>917.4000244140625</AltitudeMeters>
            <DistanceMeters>139821.12152657</DistanceMeters>
          </Trackpoint>
          <Trackpoint>
            <Time>2019-08-02T12:44:37.000Z</Time>
            <Position>
              <LatitudeDegrees>41.09287767671048641204833984375</LatitudeDegrees>
              <LongitudeDegrees>-4.32149075902998447418212890625</LongitudeDegrees>
            </Position>
            <AltitudeMeters>916.4000244140625</AltitudeMeters>
            <DistanceMeters>139864.08821039</DistanceMeters>
          </Trackpoint>
          <Trackpoint>
            <Time>2019-08-02T12:44:54.000Z</Time>
            <Position>
              <LatitudeDegrees>41.092712469398975372314453125</LatitudeDegrees>
              <LongitudeDegrees>-4.32218712754547595977783203125</LongitudeDegrees>
            </Position>
            <AltitudeMeters>917.4000244140625</AltitudeMeters>
            <DistanceMeters>139925.32701138</DistanceMeters>
          </Trackpoint>
          <Trackpoint>
            <Time>2019-08-02T12:44:55.000Z</Time>
            <Position>
              <LatitudeDegrees>41.09270232729613780975341796875</LatitudeDegrees>
              <LongitudeDegrees>-4.32222937233746051788330078125</LongitudeDegrees>
            </Position>
            <AltitudeMeters>917.5999755859375</AltitudeMeters>
            <DistanceMeters>139929.04400169</DistanceMeters>
          </Trackpoint>
          <Trackpoint>
            <Time>2019-08-02T12:45:11.000Z</Time>
            <Position>
              <LatitudeDegrees>41.09253804199397563934326171875</LatitudeDegrees>
              <LongitudeDegrees>-4.32291853241622447967529296875</LongitudeDegrees>
            </Position>
            <AltitudeMeters>918.79998779296875</AltitudeMeters>
            <DistanceMeters>139989.67551363</DistanceMeters>
          </Trackpoint>
          <Trackpoint>
            <Time>2019-08-02T12:45:12.000Z</Time>
            <Position>
              <LatitudeDegrees>41.09252815134823322296142578125</LatitudeDegrees>
              <LongitudeDegrees>-4.3229630403220653533935546875</LongitudeDegrees>
            </Position>
            <AltitudeMeters>918.79998779296875</AltitudeMeters>
            <DistanceMeters>139993.56813078</DistanceMeters>
          </Trackpoint>
          <Trackpoint>
            <Time>2019-08-02T12:45:28.000Z</Time>
            <Position>
              <LatitudeDegrees>41.092363111674785614013671875</LatitudeDegrees>
              <LongitudeDegrees>-4.323664605617523193359375</LongitudeDegrees>
            </Position>
            <AltitudeMeters>920</AltitudeMeters>
            <DistanceMeters>140055.21754939</DistanceMeters>
          </Trackpoint>
          <Trackpoint>
            <Time>2019-08-02T12:45:44.000Z</Time>
            <Position>
              <LatitudeDegrees>41.09219555743038654327392578125</LatitudeDegrees>
              <LongitudeDegrees>-4.324368350207805633544921875</LongitudeDegrees>
            </Position>
            <AltitudeMeters>919.79998779296875</AltitudeMeters>
            <DistanceMeters>140117.12539352</DistanceMeters>
          </Trackpoint>
          <Trackpoint>
            <Time>2019-08-02T12:45:49.000Z</Time>
            <Position>
              <LatitudeDegrees>41.092141829431056976318359375</LatitudeDegrees>
              <LongitudeDegrees>-4.3245941586792469024658203125</LongitudeDegrees>
            </Position>
            <AltitudeMeters>919</AltitudeMeters>
            <DistanceMeters>140136.98870467</DistanceMeters>
          </Trackpoint>
          <Trackpoint>
            <Time>2019-08-02T12:45:55.000Z</Time>
            <Position>
              <LatitudeDegrees>41.0920751094818115234375</LatitudeDegrees>
              <LongitudeDegrees>-4.32487017475068569183349609375</LongitudeDegrees>
            </Position>
            <AltitudeMeters>918</AltitudeMeters>
            <DistanceMeters>140161.30347662</DistanceMeters>
          </Trackpoint>
          <Trackpoint>
            <Time>2019-08-02T12:46:00.000Z</Time>
            <Position>
              <LatitudeDegrees>41.09201702289283275604248046875</LatitudeDegrees>
              <LongitudeDegrees>-4.32510822080075740814208984375</LongitudeDegrees>
            </Position>
            <AltitudeMeters>916.79998779296875</AltitudeMeters>
            <DistanceMeters>140182.29212234</DistanceMeters>
          </Trackpoint>
          <Trackpoint>
            <Time>2019-08-02T12:46:05.000Z</Time>
            <Position>
              <LatitudeDegrees>41.09195717610418796539306640625</LatitudeDegrees>
              <LongitudeDegrees>-4.32534995488822460174560546875</LongitudeDegrees>
            </Position>
            <AltitudeMeters>915.79998779296875</AltitudeMeters>
            <DistanceMeters>140203.63572317</DistanceMeters>
          </Trackpoint>
          <Trackpoint>
            <Time>2019-08-02T12:46:09.000Z</Time>
            <Position>
              <LatitudeDegrees>41.091911494731903076171875</LatitudeDegrees>
              <LongitudeDegrees>-4.32554357685148715972900390625</LongitudeDegrees>
            </Position>
            <AltitudeMeters>914.5999755859375</AltitudeMeters>
            <DistanceMeters>140220.65452754</DistanceMeters>
          </Trackpoint>
          <Trackpoint>
            <Time>2019-08-02T12:46:15.000Z</Time>
            <Position>
              <LatitudeDegrees>41.09184033237397670745849609375</LatitudeDegrees>
              <LongitudeDegrees>-4.32583794929087162017822265625</LongitudeDegrees>
            </Position>
            <AltitudeMeters>913.5999755859375</AltitudeMeters>
            <DistanceMeters>140246.58655007</DistanceMeters>
          </Trackpoint>
          <Trackpoint>
            <Time>2019-08-02T12:46:20.000Z</Time>
            <Position>
              <LatitudeDegrees>41.09178216196596622467041015625</LatitudeDegrees>
              <LongitudeDegrees>-4.32608052156865596771240234375</LongitudeDegrees>
            </Position>
            <AltitudeMeters>912.5999755859375</AltitudeMeters>
            <DistanceMeters>140267.93945666</DistanceMeters>
          </Trackpoint>
          <Trackpoint>
            <Time>2019-08-02T12:46:25.000Z</Time>
            <Position>
              <LatitudeDegrees>41.09172441065311431884765625</LatitudeDegrees>
              <LongitudeDegrees>-4.32632141746580600738525390625</LongitudeDegrees>
            </Position>
            <AltitudeMeters>911.5999755859375</AltitudeMeters>
            <DistanceMeters>140289.14425863</DistanceMeters>
          </Trackpoint>
          <Trackpoint>
            <Time>2019-08-02T12:46:31.000Z</Time>
            <Position>
              <LatitudeDegrees>41.091656349599361419677734375</LatitudeDegrees>
              <LongitudeDegrees>-4.32660656981170177459716796875</LongitudeDegrees>
            </Position>
            <AltitudeMeters>910.4000244140625</AltitudeMeters>
            <DistanceMeters>140314.23491046</DistanceMeters>
          </Trackpoint>
          <Trackpoint>
            <Time>2019-08-02T12:46:37.000Z</Time>
            <Position>
              <LatitudeDegrees>41.09158837236464023590087890625</LatitudeDegrees>
              <LongitudeDegrees>-4.32688987813889980316162109375</LongitudeDegrees>
            </Position>
            <AltitudeMeters>909.20001220703125</AltitudeMeters>
            <DistanceMeters>140339.17539534</DistanceMeters>
          </Trackpoint>
          <Trackpoint>
            <Time>2019-08-02T12:46:41.000Z</Time>
            <Position>
              <LatitudeDegrees>41.0915418528020381927490234375</LatitudeDegrees>
              <LongitudeDegrees>-4.3270819075405597686767578125</LongitudeDegrees>
            </Position>
            <AltitudeMeters>908.20001220703125</AltitudeMeters>
            <DistanceMeters>140356.09495453</DistanceMeters>
          </Trackpoint>
          <Trackpoint>
            <Time>2019-08-02T12:46:45.000Z</Time>
            <Position>
              <LatitudeDegrees>41.0914959199726581573486328125</LatitudeDegrees>
              <LongitudeDegrees>-4.32727544568479061126708984375</LongitudeDegrees>
            </Position>
            <AltitudeMeters>907</AltitudeMeters>
            <DistanceMeters>140373.1153506</DistanceMeters>
          </Trackpoint>
          <Trackpoint>
            <Time>2019-08-02T12:46:49.000Z</Time>
            <Position>
              <LatitudeDegrees>41.091447807848453521728515625</LatitudeDegrees>
              <LongitudeDegrees>-4.327470995485782623291015625</LongitudeDegrees>
            </Position>
            <AltitudeMeters>905.79998779296875</AltitudeMeters>
            <DistanceMeters>140390.37048551</DistanceMeters>
          </Trackpoint>
          <Trackpoint>
            <Time>2019-08-02T12:46:53.000Z</Time>
            <Position>
              <LatitudeDegrees>41.09140212647616863250732421875</LatitudeDegrees>
              <LongitudeDegrees>-4.32767375372350215911865234375</LongitudeDegrees>
            </Position>
            <AltitudeMeters>904.5999755859375</AltitudeMeters>
            <DistanceMeters>140408.1224321</DistanceMeters>
          </Trackpoint>
          <Trackpoint>
            <Time>2019-08-02T12:46:57.000Z</Time>
            <Position>
              <LatitudeDegrees>41.09135284088551998138427734375</LatitudeDegrees>
              <LongitudeDegrees>-4.32787626050412654876708984375</LongitudeDegrees>
            </Position>
            <AltitudeMeters>903.5999755859375</AltitudeMeters>
            <DistanceMeters>140425.9735488</DistanceMeters>
          </Trackpoint>
          <Trackpoint>
            <Time>2019-08-02T12:47:01.000Z</Time>
            <Position>
              <LatitudeDegrees>41.09130456112325191497802734375</LatitudeDegrees>
              <LongitudeDegrees>-4.3280736543238162994384765625</LongitudeDegrees>
            </Position>
            <AltitudeMeters>902.5999755859375</AltitudeMeters>
            <DistanceMeters>140443.38186191</DistanceMeters>
          </Trackpoint>
          <Trackpoint>
            <Time>2019-08-02T12:47:07.000Z</Time>
            <Position>
              <LatitudeDegrees>41.09123582951724529266357421875</LatitudeDegrees>
              <LongitudeDegrees>-4.3283678591251373291015625</LongitudeDegrees>
            </Position>
            <AltitudeMeters>901.4000244140625</AltitudeMeters>
            <DistanceMeters>140469.21951896</DistanceMeters>
          </Trackpoint>
          <Trackpoint>
            <Time>2019-08-02T12:47:12.000Z</Time>
            <Position>
              <LatitudeDegrees>41.09117615036666393280029296875</LatitudeDegrees>
              <LongitudeDegrees>-4.3286087550222873687744140625</LongitudeDegrees>
            </Position>
            <AltitudeMeters>900</AltitudeMeters>
            <DistanceMeters>140490.49064987</DistanceMeters>
          </Trackpoint>
          <Trackpoint>
            <Time>2019-08-02T12:47:17.000Z</Time>
            <Position>
              <LatitudeDegrees>41.09111848287284374237060546875</LatitudeDegrees>
              <LongitudeDegrees>-4.32885291986167430877685546875</LongitudeDegrees>
            </Position>
            <AltitudeMeters>899</AltitudeMeters>
            <DistanceMeters>140511.95449016</DistanceMeters>
          </Trackpoint>
          <Trackpoint>
            <Time>2019-08-02T12:47:23.000Z</Time>
            <Position>
              <LatitudeDegrees>41.09102041460573673248291015625</LatitudeDegrees>
              <LongitudeDegrees>-4.32911762036383152008056640625</LongitudeDegrees>
            </Position>
            <AltitudeMeters>898</AltitudeMeters>
            <DistanceMeters>140536.6964978</DistanceMeters>
          </Trackpoint>
          <Trackpoint>
            <Time>2019-08-02T12:47:28.000Z</Time>
            <Position>
              <LatitudeDegrees>41.09084204770624637603759765625</LatitudeDegrees>
              <LongitudeDegrees>-4.3291522376239299774169921875</LongitudeDegrees>
            </Position>
            <AltitudeMeters>897.5999755859375</AltitudeMeters>
            <DistanceMeters>140556.76041586</DistanceMeters>
          </Trackpoint>
          <Trackpoint>
            <Time>2019-08-02T12:47:43.000Z</Time>
            <Position>
              <LatitudeDegrees>41.0904448293149471282958984375</LatitudeDegrees>
              <LongitudeDegrees>-4.3290835060179233551025390625</LongitudeDegrees>
            </Position>
            <AltitudeMeters>897.4000244140625</AltitudeMeters>
            <DistanceMeters>140601.34597404</DistanceMeters>
          </Trackpoint>
          <Trackpoint>
            <Time>2019-08-02T12:47:47.000Z</Time>
            <Position>
              <LatitudeDegrees>41.09040602110326290130615234375</LatitudeDegrees>
              <LongitudeDegrees>-4.32922624982893466949462890625</LongitudeDegrees>
            </Position>
            <AltitudeMeters>897.4000244140625</AltitudeMeters>
            <DistanceMeters>140614.07529813</DistanceMeters>
          </Trackpoint>
          <Trackpoint>
            <Time>2019-08-02T12:47:53.000Z</Time>
            <Position>
              <LatitudeDegrees>41.09050207771360874176025390625</LatitudeDegrees>
              <LongitudeDegrees>-4.32951592840254306793212890625</LongitudeDegrees>
            </Position>
            <AltitudeMeters>897</AltitudeMeters>
            <DistanceMeters>140640.62297988</DistanceMeters>
          </Trackpoint>
          <Trackpoint>
            <Time>2019-08-02T12:48:00.000Z</Time>
            <Position>
              <LatitudeDegrees>41.09075923450291156768798828125</LatitudeDegrees>
              <LongitudeDegrees>-4.32995664887130260467529296875</LongitudeDegrees>
            </Position>
            <AltitudeMeters>896.79998779296875</AltitudeMeters>
            <DistanceMeters>140687.37747534</DistanceMeters>
          </Trackpoint>
          <Trackpoint>
            <Time>2019-08-02T12:48:06.000Z</Time>
            <Position>
              <LatitudeDegrees>41.09075068496167659759521484375</LatitudeDegrees>
              <LongitudeDegrees>-4.3304075114428997039794921875</LongitudeDegrees>
            </Position>
            <AltitudeMeters>897</AltitudeMeters>
            <DistanceMeters>140725.2100438</DistanceMeters>
          </Trackpoint>
          <Trackpoint>
            <Time>2019-08-02T12:48:18.000Z</Time>
            <Position>
              <LatitudeDegrees>41.09057818539440631866455078125</LatitudeDegrees>
              <LongitudeDegrees>-4.3311364017426967620849609375</LongitudeDegrees>
            </Position>
            <AltitudeMeters>898</AltitudeMeters>
            <DistanceMeters>140789.29659823</DistanceMeters>
          </Trackpoint>
          <Trackpoint>
            <Time>2019-08-02T12:48:30.000Z</Time>
            <Position>
              <LatitudeDegrees>41.09041255898773670196533203125</LatitudeDegrees>
              <LongitudeDegrees>-4.3318183533847332000732421875</LongitudeDegrees>
            </Position>
            <AltitudeMeters>898.5999755859375</AltitudeMeters>
            <DistanceMeters>140849.39917339</DistanceMeters>
          </Trackpoint>
          <Trackpoint>
            <Time>2019-08-02T12:48:36.000Z</Time>
            <Position>
              <LatitudeDegrees>41.09033343382179737091064453125</LatitudeDegrees>
              <LongitudeDegrees>-4.332148768007755279541015625</LongitudeDegrees>
            </Position>
            <AltitudeMeters>898.79998779296875</AltitudeMeters>
            <DistanceMeters>140878.48169528</DistanceMeters>
          </Trackpoint>
          <Trackpoint>
            <Time>2019-08-02T12:48:46.000Z</Time>
            <Position>
              <LatitudeDegrees>41.090205945074558258056640625</LatitudeDegrees>
              <LongitudeDegrees>-4.33268487453460693359375</LongitudeDegrees>
            </Position>
            <AltitudeMeters>899.79998779296875</AltitudeMeters>
            <DistanceMeters>140925.63879205</DistanceMeters>
          </Trackpoint>
          <Trackpoint>
            <Time>2019-08-02T12:48:59.000Z</Time>
            <Position>
              <LatitudeDegrees>41.09003839083015918731689453125</LatitudeDegrees>
              <LongitudeDegrees>-4.333373196423053741455078125</LongitudeDegrees>
            </Position>
            <AltitudeMeters>900.5999755859375</AltitudeMeters>
            <DistanceMeters>140986.31615824</DistanceMeters>
          </Trackpoint>
          <Trackpoint>
            <Time>2019-08-02T12:49:13.000Z</Time>
            <Position>
              <LatitudeDegrees>41.08986656181514263153076171875</LatitudeDegrees>
              <LongitudeDegrees>-4.33408020995557308197021484375</LongitudeDegrees>
            </Position>
            <AltitudeMeters>899.79998779296875</AltitudeMeters>
            <DistanceMeters>141048.63195041</DistanceMeters>
          </Trackpoint>
          <Trackpoint>
            <Time>2019-08-02T12:49:27.000Z</Time>
            <Position>
              <LatitudeDegrees>41.08969825319945812225341796875</LatitudeDegrees>
              <LongitudeDegrees>-4.3347674421966075897216796875</LongitudeDegrees>
            </Position>
            <AltitudeMeters>900.4000244140625</AltitudeMeters>
            <DistanceMeters>141109.24856715</DistanceMeters>
          </Trackpoint>
          <Trackpoint>
            <Time>2019-08-02T12:49:34.000Z</Time>
            <Position>
              <LatitudeDegrees>41.08961745165288448333740234375</LatitudeDegrees>
              <LongitudeDegrees>-4.3351043947041034698486328125</LongitudeDegrees>
            </Position>
            <AltitudeMeters>900.79998779296875</AltitudeMeters>
            <DistanceMeters>141138.91060465</DistanceMeters>
          </Trackpoint>
          <Trackpoint>
            <Time>2019-08-02T12:49:44.000Z</Time>
            <Position>
              <LatitudeDegrees>41.08950580470263957977294921875</LatitudeDegrees>
              <LongitudeDegrees>-4.33557587675750255584716796875</LongitudeDegrees>
            </Position>
            <AltitudeMeters>901.79998779296875</AltitudeMeters>
            <DistanceMeters>141180.36785347</DistanceMeters>
          </Trackpoint>
          <Trackpoint>
            <Time>2019-08-02T12:49:54.000Z</Time>
            <Position>
              <LatitudeDegrees>41.08939315192401409149169921875</LatitudeDegrees>
              <LongitudeDegrees>-4.3360461853444576263427734375</LongitudeDegrees>
            </Position>
            <AltitudeMeters>903</AltitudeMeters>
            <DistanceMeters>141221.76494126</DistanceMeters>
          </Trackpoint>
          <Trackpoint>
            <Time>2019-08-02T12:50:09.000Z</Time>
            <Position>
              <LatitudeDegrees>41.0892287828028202056884765625</LatitudeDegrees>
              <LongitudeDegrees>-4.33671958744525909423828125</LongitudeDegrees>
            </Position>
            <AltitudeMeters>904</AltitudeMeters>
            <DistanceMeters>141281.14302835</DistanceMeters>
          </Trackpoint>
          <Trackpoint>
            <Time>2019-08-02T12:50:15.000Z</Time>
            <Position>
              <LatitudeDegrees>41.08916633762419223785400390625</LatitudeDegrees>
              <LongitudeDegrees>-4.33697515167295932769775390625</LongitudeDegrees>
            </Position>
            <AltitudeMeters>905</AltitudeMeters>
            <DistanceMeters>141303.68019188</DistanceMeters>
          </Trackpoint>
          <Trackpoint>
            <Time>2019-08-02T12:50:20.000Z</Time>
            <Position>
              <LatitudeDegrees>41.08911839313805103302001953125</LatitudeDegrees>
              <LongitudeDegrees>-4.33718671090900897979736328125</LongitudeDegrees>
            </Position>
            <AltitudeMeters>906.20001220703125</AltitudeMeters>
            <DistanceMeters>141322.21259398</DistanceMeters>
          </Trackpoint>
          <Trackpoint>
            <Time>2019-08-02T12:50:26.000Z</Time>
            <Position>
              <LatitudeDegrees>41.0890608094632625579833984375</LatitudeDegrees>
              <LongitudeDegrees>-4.33742810972034931182861328125</LongitudeDegrees>
            </Position>
            <AltitudeMeters>907.20001220703125</AltitudeMeters>
            <DistanceMeters>141343.45313727</DistanceMeters>
          </Trackpoint>
          <Trackpoint>
            <Time>2019-08-02T12:50:31.000Z</Time>
            <Position>
              <LatitudeDegrees>41.0890095122158527374267578125</LatitudeDegrees>
              <LongitudeDegrees>-4.337627850472927093505859375</LongitudeDegrees>
            </Position>
            <AltitudeMeters>908.4000244140625</AltitudeMeters>
            <DistanceMeters>141361.15490788</DistanceMeters>
          </Trackpoint>
          <Trackpoint>
            <Time>2019-08-02T12:50:47.000Z</Time>
            <Position>
              <LatitudeDegrees>41.0888593085110187530517578125</LatitudeDegrees>
              <LongitudeDegrees>-4.33826713822782039642333984375</LongitudeDegrees>
            </Position>
            <AltitudeMeters>909.5999755859375</AltitudeMeters>
            <DistanceMeters>141417.32831664</DistanceMeters>
          </Trackpoint>
          <Trackpoint>
            <Time>2019-08-02T12:50:53.000Z</Time>
            <Position>
              <LatitudeDegrees>41.08880021609365940093994140625</LatitudeDegrees>
              <LongitudeDegrees>-4.33850887231528759002685546875</LongitudeDegrees>
            </Position>
            <AltitudeMeters>910.5999755859375</AltitudeMeters>
            <DistanceMeters>141438.64651749</DistanceMeters>
          </Trackpoint>
          <Trackpoint>
            <Time>2019-08-02T12:51:10.000Z</Time>
            <Position>
              <LatitudeDegrees>41.08863475732505321502685546875</LatitudeDegrees>
              <LongitudeDegrees>-4.33919752947986125946044921875</LongitudeDegrees>
            </Position>
            <AltitudeMeters>910.4000244140625</AltitudeMeters>
            <DistanceMeters>141499.28063572</DistanceMeters>
          </Trackpoint>
          <Trackpoint>
            <Time>2019-08-02T12:51:28.000Z</Time>
            <Position>
              <LatitudeDegrees>41.0884713940322399139404296875</LatitudeDegrees>
              <LongitudeDegrees>-4.33991116471588611602783203125</LongitudeDegrees>
            </Position>
            <AltitudeMeters>910.4000244140625</AltitudeMeters>
            <DistanceMeters>141561.84625621</DistanceMeters>
          </Trackpoint>
          <Trackpoint>
            <Time>2019-08-02T12:51:45.000Z</Time>
            <Position>
              <LatitudeDegrees>41.0883017443120479583740234375</LatitudeDegrees>
              <LongitudeDegrees>-4.34060342609882354736328125</LongitudeDegrees>
            </Position>
            <AltitudeMeters>911.79998779296875</AltitudeMeters>
            <DistanceMeters>141622.91140181</DistanceMeters>
          </Trackpoint>
          <Trackpoint>
            <Time>2019-08-02T12:51:47.000Z</Time>
            <Position>
              <LatitudeDegrees>41.08827953226864337921142578125</LatitudeDegrees>
              <LongitudeDegrees>-4.3406872451305389404296875</LongitudeDegrees>
            </Position>
            <AltitudeMeters>912</AltitudeMeters>
            <DistanceMeters>141630.36479233</DistanceMeters>
          </Trackpoint>
          <Trackpoint>
            <Time>2019-08-02T12:52:05.000Z</Time>
            <Position>
              <LatitudeDegrees>41.08809798024594783782958984375</LatitudeDegrees>
              <LongitudeDegrees>-4.341447651386260986328125</LongitudeDegrees>
            </Position>
            <AltitudeMeters>911.5999755859375</AltitudeMeters>
            <DistanceMeters>141697.2779732</DistanceMeters>
          </Trackpoint>
          <Trackpoint>
            <Time>2019-08-02T12:52:21.000Z</Time>
            <Position>
              <LatitudeDegrees>41.087928079068660736083984375</LatitudeDegrees>
              <LongitudeDegrees>-4.3421438522636890411376953125</LongitudeDegrees>
            </Position>
            <AltitudeMeters>911.20001220703125</AltitudeMeters>
            <DistanceMeters>141758.66633392</DistanceMeters>
          </Trackpoint>
          <Trackpoint>
            <Time>2019-08-02T12:52:23.000Z</Time>
            <Position>
              <LatitudeDegrees>41.0879181884229183197021484375</LatitudeDegrees>
              <LongitudeDegrees>-4.3421850912272930145263671875</LongitudeDegrees>
            </Position>
            <AltitudeMeters>911</AltitudeMeters>
            <DistanceMeters>141762.29605589</DistanceMeters>
          </Trackpoint>
          <Trackpoint>
            <Time>2019-08-02T12:52:38.000Z</Time>
            <Position>
              <LatitudeDegrees>41.08775071799755096435546875</LatitudeDegrees>
              <LongitudeDegrees>-4.3428878299891948699951171875</LongitudeDegrees>
            </Position>
            <AltitudeMeters>910</AltitudeMeters>
            <DistanceMeters>141824.12449951</DistanceMeters>
          </Trackpoint>
          <Trackpoint>
            <Time>2019-08-02T12:52:55.000Z</Time>
            <Position>
              <LatitudeDegrees>41.08758366666734218597412109375</LatitudeDegrees>
              <LongitudeDegrees>-4.34357405640184879302978515625</LongitudeDegrees>
            </Position>
            <AltitudeMeters>910</AltitudeMeters>
            <DistanceMeters>141884.61943435</DistanceMeters>
          </Trackpoint>
          <Trackpoint>
            <Time>2019-08-02T12:52:56.000Z</Time>
            <Position>
              <LatitudeDegrees>41.08757377602159976959228515625</LatitudeDegrees>
              <LongitudeDegrees>-4.343613199889659881591796875</LongitudeDegrees>
            </Position>
            <AltitudeMeters>910</AltitudeMeters>
            <DistanceMeters>141888.08237263</DistanceMeters>
          </Trackpoint>
          <Trackpoint>
            <Time>2019-08-02T12:53:10.000Z</Time>
            <Position>
              <LatitudeDegrees>41.08744050376117229461669921875</LatitudeDegrees>
              <LongitudeDegrees>-4.3441776372492313385009765625</LongitudeDegrees>
            </Position>
            <AltitudeMeters>908.79998779296875</AltitudeMeters>
            <DistanceMeters>141937.70160683</DistanceMeters>
          </Trackpoint>
          <Trackpoint>
            <Time>2019-08-02T12:53:17.000Z</Time>
            <Position>
              <LatitudeDegrees>41.0873720236122608184814453125</LatitudeDegrees>
              <LongitudeDegrees>-4.34446983039379119873046875</LongitudeDegrees>
            </Position>
            <AltitudeMeters>907.79998779296875</AltitudeMeters>
            <DistanceMeters>141963.37113503</DistanceMeters>
          </Trackpoint>
          <Trackpoint>
            <Time>2019-08-02T12:53:29.000Z</Time>
            <Position>
              <LatitudeDegrees>41.08725694008171558380126953125</LatitudeDegrees>
              <LongitudeDegrees>-4.3449447490274906158447265625</LongitudeDegrees>
            </Position>
            <AltitudeMeters>906.5999755859375</AltitudeMeters>
            <DistanceMeters>142005.22012756</DistanceMeters>
          </Trackpoint>
          <Trackpoint>
            <Time>2019-08-02T12:53:36.000Z</Time>
            <Position>
              <LatitudeDegrees>41.0871894657611846923828125</LatitudeDegrees>
              <LongitudeDegrees>-4.34521908871829509735107421875</LongitudeDegrees>
            </Position>
            <AltitudeMeters>905.5999755859375</AltitudeMeters>
            <DistanceMeters>142029.42845115</DistanceMeters>
          </Trackpoint>
          <Trackpoint>
            <Time>2019-08-02T12:53:46.000Z</Time>
            <Position>
              <LatitudeDegrees>41.0870927385985851287841796875</LatitudeDegrees>
              <LongitudeDegrees>-4.34561572037637233734130859375</LongitudeDegrees>
            </Position>
            <AltitudeMeters>904.5999755859375</AltitudeMeters>
            <DistanceMeters>142064.40008957</DistanceMeters>
          </Trackpoint>
          <Trackpoint>
            <Time>2019-08-02T12:53:53.000Z</Time>
            <Position>
              <LatitudeDegrees>41.08702442608773708343505859375</LatitudeDegrees>
              <LongitudeDegrees>-4.34590087272226810455322265625</LongitudeDegrees>
            </Position>
            <AltitudeMeters>903.4000244140625</AltitudeMeters>
            <DistanceMeters>142089.50063664</DistanceMeters>
          </Trackpoint>
          <Trackpoint>
            <Time>2019-08-02T12:54:11.000Z</Time>
            <Position>
              <LatitudeDegrees>41.08685125596821308135986328125</LatitudeDegrees>
              <LongitudeDegrees>-4.34661693871021270751953125</LongitudeDegrees>
            </Position>
            <AltitudeMeters>902.79998779296875</AltitudeMeters>
            <DistanceMeters>142152.58764063</DistanceMeters>
          </Trackpoint>
          <Trackpoint>
            <Time>2019-08-02T12:54:29.000Z</Time>
            <Position>
              <LatitudeDegrees>41.0866878926753997802734375</LatitudeDegrees>
              <LongitudeDegrees>-4.34731833636760711669921875</LongitudeDegrees>
            </Position>
            <AltitudeMeters>904.20001220703125</AltitudeMeters>
            <DistanceMeters>142214.17316318</DistanceMeters>
          </Trackpoint>
          <Trackpoint>
            <Time>2019-08-02T12:54:30.000Z</Time>
            <Position>
              <LatitudeDegrees>41.08667917549610137939453125</LatitudeDegrees>
              <LongitudeDegrees>-4.34735915623605251312255859375</LongitudeDegrees>
            </Position>
            <AltitudeMeters>904.4000244140625</AltitudeMeters>
            <DistanceMeters>142217.73127605</DistanceMeters>
          </Trackpoint>
          <Trackpoint>
            <Time>2019-08-02T12:54:38.000Z</Time>
            <Position>
              <LatitudeDegrees>41.086595021188259124755859375</LatitudeDegrees>
              <LongitudeDegrees>-4.34770046733319759368896484375</LongitudeDegrees>
            </Position>
            <AltitudeMeters>905.4000244140625</AltitudeMeters>
            <DistanceMeters>142247.85729243</DistanceMeters>
          </Trackpoint>
          <Trackpoint>
            <Time>2019-08-02T12:54:44.000Z</Time>
            <Position>
              <LatitudeDegrees>41.08653475530445575714111328125</LatitudeDegrees>
              <LongitudeDegrees>-4.34794639237225055694580078125</LongitudeDegrees>
            </Position>
            <AltitudeMeters>906.5999755859375</AltitudeMeters>
            <DistanceMeters>142269.55108173</DistanceMeters>
          </Trackpoint>
          <Trackpoint>
            <Time>2019-08-02T12:54:51.000Z</Time>
            <Position>
              <LatitudeDegrees>41.086467616260051727294921875</LatitudeDegrees>
              <LongitudeDegrees>-4.34822785668075084686279296875</LongitudeDegrees>
            </Position>
            <AltitudeMeters>907.4000244140625</AltitudeMeters>
            <DistanceMeters>142294.31753025</DistanceMeters>
          </Trackpoint>
          <Trackpoint>
            <Time>2019-08-02T12:55:06.000Z</Time>
            <Position>
              <LatitudeDegrees>41.08631498180329799652099609375</LatitudeDegrees>
              <LongitudeDegrees>-4.348832778632640838623046875</LongitudeDegrees>
            </Position>
            <AltitudeMeters>908.5999755859375</AltitudeMeters>
            <DistanceMeters>142347.83267469</DistanceMeters>
          </Trackpoint>
          <Trackpoint>
            <Time>2019-08-02T12:55:22.000Z</Time>
            <Position>
              <LatitudeDegrees>41.08616611920297145843505859375</LatitudeDegrees>
              <LongitudeDegrees>-4.34945262037217617034912109375</LongitudeDegrees>
            </Position>
            <AltitudeMeters>909.5999755859375</AltitudeMeters>
            <DistanceMeters>142402.407469</DistanceMeters>
          </Trackpoint>
          <Trackpoint>
            <Time>2019-08-02T12:55:30.000Z</Time>
            <Position>
              <LatitudeDegrees>41.086096130311489105224609375</LatitudeDegrees>
              <LongitudeDegrees>-4.349758140742778778076171875</LongitudeDegrees>
            </Position>
            <AltitudeMeters>910.4000244140625</AltitudeMeters>
            <DistanceMeters>142429.19522842</DistanceMeters>
          </Trackpoint>
          <Trackpoint>
            <Time>2019-08-02T12:55:39.000Z</Time>
            <Position>
              <LatitudeDegrees>41.08601340092718601226806640625</LatitudeDegrees>
              <LongitudeDegrees>-4.3501120246946811676025390625</LongitudeDegrees>
            </Position>
            <AltitudeMeters>910.79998779296875</AltitudeMeters>
            <DistanceMeters>142460.27811662</DistanceMeters>
          </Trackpoint>
          <Trackpoint>
            <Time>2019-08-02T12:55:51.000Z</Time>
            <Position>
              <LatitudeDegrees>41.085892282426357269287109375</LatitudeDegrees>
              <LongitudeDegrees>-4.3505951575934886932373046875</LongitudeDegrees>
            </Position>
            <AltitudeMeters>911.79998779296875</AltitudeMeters>
            <DistanceMeters>142502.99175267</DistanceMeters>
          </Trackpoint>
          <Trackpoint>
            <Time>2019-08-02T12:56:08.000Z</Time>
            <Position>
              <LatitudeDegrees>41.0857234708964824676513671875</LatitudeDegrees>
              <LongitudeDegrees>-4.3512985669076442718505859375</LongitudeDegrees>
            </Position>
            <AltitudeMeters>911.79998779296875</AltitudeMeters>
            <DistanceMeters>142564.92067045</DistanceMeters>
          </Trackpoint>
          <Trackpoint>
            <Time>2019-08-02T12:56:19.000Z</Time>
            <Position>
              <LatitudeDegrees>41.08562548644840717315673828125</LatitudeDegrees>
              <LongitudeDegrees>-4.35167432762682437896728515625</LongitudeDegrees>
            </Position>
            <AltitudeMeters>910.5999755859375</AltitudeMeters>
            <DistanceMeters>142598.27707761</DistanceMeters>
          </Trackpoint>
          <Trackpoint>
            <Time>2019-08-02T12:56:23.000Z</Time>
            <Position>
              <LatitudeDegrees>41.085591875016689300537109375</LatitudeDegrees>
              <LongitudeDegrees>-4.3518318235874176025390625</LongitudeDegrees>
            </Position>
            <AltitudeMeters>909.4000244140625</AltitudeMeters>
            <DistanceMeters>142612.00901325</DistanceMeters>
          </Trackpoint>
          <Trackpoint>
            <Time>2019-08-02T12:56:33.000Z</Time>
            <Position>
              <LatitudeDegrees>41.0854978300631046295166015625</LatitudeDegrees>
              <LongitudeDegrees>-4.3522155471146106719970703125</LongitudeDegrees>
            </Position>
            <AltitudeMeters>908.20001220703125</AltitudeMeters>
            <DistanceMeters>142645.85907086</DistanceMeters>
          </Trackpoint>
          <Trackpoint>
            <Time>2019-08-02T12:56:52.000Z</Time>
            <Position>
              <LatitudeDegrees>41.0853306949138641357421875</LatitudeDegrees>
              <LongitudeDegrees>-4.3529206328094005584716796875</LongitudeDegrees>
            </Position>
            <AltitudeMeters>907.79998779296875</AltitudeMeters>
            <DistanceMeters>142707.86616826</DistanceMeters>
          </Trackpoint>
          <Trackpoint>
            <Time>2019-08-02T12:57:08.000Z</Time>
            <Position>
              <LatitudeDegrees>41.085159368813037872314453125</LatitudeDegrees>
              <LongitudeDegrees>-4.353628568351268768310546875</LongitudeDegrees>
            </Position>
            <AltitudeMeters>908.20001220703125</AltitudeMeters>
            <DistanceMeters>142770.2425027</DistanceMeters>
          </Trackpoint>
          <Trackpoint>
            <Time>2019-08-02T12:57:24.000Z</Time>
            <Position>
              <LatitudeDegrees>41.08499131165444850921630859375</LatitudeDegrees>
              <LongitudeDegrees>-4.35433222912251949310302734375</LongitudeDegrees>
            </Position>
            <AltitudeMeters>907.79998779296875</AltitudeMeters>
            <DistanceMeters>142832.16675426</DistanceMeters>
          </Trackpoint>
          <Trackpoint>
            <Time>2019-08-02T12:57:35.000Z</Time>
            <Position>
              <LatitudeDegrees>41.08488653786480426788330078125</LatitudeDegrees>
              <LongitudeDegrees>-4.35477831400930881500244140625</LongitudeDegrees>
            </Position>
            <AltitudeMeters>909</AltitudeMeters>
            <DistanceMeters>142871.36478441</DistanceMeters>
          </Trackpoint>
          <Trackpoint>
            <Time>2019-08-02T12:57:51.000Z</Time>
            <Position>
              <LatitudeDegrees>41.0847112722694873809814453125</LatitudeDegrees>
              <LongitudeDegrees>-4.35550167225301265716552734375</LongitudeDegrees>
            </Position>
            <AltitudeMeters>909</AltitudeMeters>
            <DistanceMeters>142935.1073841</DistanceMeters>
          </Trackpoint>
          <Trackpoint>
            <Time>2019-08-02T12:58:02.000Z</Time>
            <Position>
              <LatitudeDegrees>41.08459250070154666900634765625</LatitudeDegrees>
              <LongitudeDegrees>-4.3559847213327884674072265625</LongitudeDegrees>
            </Position>
            <AltitudeMeters>910</AltitudeMeters>
            <DistanceMeters>142977.73319485</DistanceMeters>
          </Trackpoint>
          <Trackpoint>
            <Time>2019-08-02T12:58:14.000Z</Time>
            <Position>
              <LatitudeDegrees>41.084469370543956756591796875</LatitudeDegrees>
              <LongitudeDegrees>-4.3565027229487895965576171875</LongitudeDegrees>
            </Position>
            <AltitudeMeters>911</AltitudeMeters>
            <DistanceMeters>143023.2994705</DistanceMeters>
          </Trackpoint>
          <Trackpoint>
            <Time>2019-08-02T12:58:22.000Z</Time>
            <Position>
              <LatitudeDegrees>41.08438949100673198699951171875</LatitudeDegrees>
              <LongitudeDegrees>-4.3568426929414272308349609375</LongitudeDegrees>
            </Position>
            <AltitudeMeters>912</AltitudeMeters>
            <DistanceMeters>143053.17415268</DistanceMeters>
          </Trackpoint>
          <Trackpoint>
            <Time>2019-08-02T12:58:29.000Z</Time>
            <Position>
              <LatitudeDegrees>41.084318496286869049072265625</LatitudeDegrees>
              <LongitudeDegrees>-4.35714201070368289947509765625</LongitudeDegrees>
            </Position>
            <AltitudeMeters>913</AltitudeMeters>
            <DistanceMeters>143079.49878233</DistanceMeters>
          </Trackpoint>
          <Trackpoint>
            <Time>2019-08-02T12:58:44.000Z</Time>
            <Position>
              <LatitudeDegrees>41.0841533727943897247314453125</LatitudeDegrees>
              <LongitudeDegrees>-4.357849694788455963134765625</LongitudeDegrees>
            </Position>
            <AltitudeMeters>914</AltitudeMeters>
            <DistanceMeters>143141.64828771</DistanceMeters>
          </Trackpoint>
          <Trackpoint>
            <Time>2019-08-02T12:58:46.000Z</Time>
            <Position>
              <LatitudeDegrees>41.08413334004580974578857421875</LatitudeDegrees>
              <LongitudeDegrees>-4.3579370342195034027099609375</LongitudeDegrees>
            </Position>
            <AltitudeMeters>914.20001220703125</AltitudeMeters>
            <DistanceMeters>143149.30722867</DistanceMeters>
          </Trackpoint>
          <Trackpoint>
            <Time>2019-08-02T12:58:58.000Z</Time>
            <Position>
              <LatitudeDegrees>41.08403317630290985107421875</LatitudeDegrees>
              <LongitudeDegrees>-4.35843600891530513763427734375</LongitudeDegrees>
            </Position>
            <AltitudeMeters>915.20001220703125</AltitudeMeters>
            <DistanceMeters>143192.6269051</DistanceMeters>
          </Trackpoint>
          <Trackpoint>
            <Time>2019-08-02T12:59:04.000Z</Time>
            <Position>
              <LatitudeDegrees>41.0839944519102573394775390625</LatitudeDegrees>
              <LongitudeDegrees>-4.358637593686580657958984375</LongitudeDegrees>
            </Position>
            <AltitudeMeters>916.4000244140625</AltitudeMeters>
            <DistanceMeters>143210.07899519</DistanceMeters>
          </Trackpoint>
          <Trackpoint>
            <Time>2019-08-02T12:59:20.000Z</Time>
            <Position>
              <LatitudeDegrees>41.083879284560680389404296875</LatitudeDegrees>
              <LongitudeDegrees>-4.35933865606784820556640625</LongitudeDegrees>
            </Position>
            <AltitudeMeters>917.4000244140625</AltitudeMeters>
            <DistanceMeters>143270.27434978</DistanceMeters>
          </Trackpoint>
          <Trackpoint>
            <Time>2019-08-02T12:59:28.000Z</Time>
            <Position>
              <LatitudeDegrees>41.08383645303547382354736328125</LatitudeDegrees>
              <LongitudeDegrees>-4.35965607874095439910888671875</LongitudeDegrees>
            </Position>
            <AltitudeMeters>918.5999755859375</AltitudeMeters>
            <DistanceMeters>143297.32743899</DistanceMeters>
          </Trackpoint>
          <Trackpoint>
            <Time>2019-08-02T12:59:33.000Z</Time>
            <Position>
              <LatitudeDegrees>41.0838157497346401214599609375</LatitudeDegrees>
              <LongitudeDegrees>-4.359817095100879669189453125</LongitudeDegrees>
            </Position>
            <AltitudeMeters>919.5999755859375</AltitudeMeters>
            <DistanceMeters>143311.03106879</DistanceMeters>
          </Trackpoint>
          <Trackpoint>
            <Time>2019-08-02T12:59:36.000Z</Time>
            <Position>
              <LatitudeDegrees>41.0837993212044239044189453125</LatitudeDegrees>
              <LongitudeDegrees>-4.3599795363843441009521484375</LongitudeDegrees>
            </Position>
            <AltitudeMeters>920.5999755859375</AltitudeMeters>
            <DistanceMeters>143324.78074807</DistanceMeters>
          </Trackpoint>
          <Trackpoint>
            <Time>2019-08-02T12:59:41.000Z</Time>
            <Position>
              <LatitudeDegrees>41.08377970755100250244140625</LatitudeDegrees>
              <LongitudeDegrees>-4.3601788580417633056640625</LongitudeDegrees>
            </Position>
            <AltitudeMeters>921.79998779296875</AltitudeMeters>
            <DistanceMeters>143341.64417499</DistanceMeters>
          </Trackpoint>
          <Trackpoint>
            <Time>2019-08-02T12:59:48.000Z</Time>
            <Position>
              <LatitudeDegrees>41.0837523825466632843017578125</LatitudeDegrees>
              <LongitudeDegrees>-4.36046225018799304962158203125</LongitudeDegrees>
            </Position>
            <AltitudeMeters>923</AltitudeMeters>
            <DistanceMeters>143365.61257988</DistanceMeters>
          </Trackpoint>
          <Trackpoint>
            <Time>2019-08-02T12:59:53.000Z</Time>
            <Position>
              <LatitudeDegrees>41.083736121654510498046875</LatitudeDegrees>
              <LongitudeDegrees>-4.3606681935489177703857421875</LongitudeDegrees>
            </Position>
            <AltitudeMeters>924</AltitudeMeters>
            <DistanceMeters>143382.9842846</DistanceMeters>
          </Trackpoint>
          <Trackpoint>
            <Time>2019-08-02T13:00:00.000Z</Time>
            <Position>
              <LatitudeDegrees>41.0837160050868988037109375</LatitudeDegrees>
              <LongitudeDegrees>-4.360957704484462738037109375</LongitudeDegrees>
            </Position>
            <AltitudeMeters>925</AltitudeMeters>
            <DistanceMeters>143407.37525621</DistanceMeters>
          </Trackpoint>
          <Trackpoint>
            <Time>2019-08-02T13:00:06.000Z</Time>
            <Position>
              <LatitudeDegrees>41.0837054438889026641845703125</LatitudeDegrees>
              <LongitudeDegrees>-4.36115962453186511993408203125</LongitudeDegrees>
            </Position>
            <AltitudeMeters>926</AltitudeMeters>
            <DistanceMeters>143424.35554893</DistanceMeters>
          </Trackpoint>
          <Trackpoint>
            <Time>2019-08-02T13:00:22.000Z</Time>
            <Position>
              <LatitudeDegrees>41.08368356712162494659423828125</LatitudeDegrees>
              <LongitudeDegrees>-4.36190142296254634857177734375</LongitudeDegrees>
            </Position>
            <AltitudeMeters>926</AltitudeMeters>
            <DistanceMeters>143486.63553846</DistanceMeters>
          </Trackpoint>
          <Trackpoint>
            <Time>2019-08-02T13:00:37.000Z</Time>
            <Position>
              <LatitudeDegrees>41.0836833156645298004150390625</LatitudeDegrees>
              <LongitudeDegrees>-4.36261824332177639007568359375</LongitudeDegrees>
            </Position>
            <AltitudeMeters>926.79998779296875</AltitudeMeters>
            <DistanceMeters>143546.77250975</DistanceMeters>
          </Trackpoint>
          <Trackpoint>
            <Time>2019-08-02T13:00:51.000Z</Time>
            <Position>
              <LatitudeDegrees>41.08370871283113956451416015625</LatitudeDegrees>
              <LongitudeDegrees>-4.36327890492975711822509765625</LongitudeDegrees>
            </Position>
            <AltitudeMeters>927.4000244140625</AltitudeMeters>
            <DistanceMeters>143602.27006351</DistanceMeters>
          </Trackpoint>
          <Trackpoint>
            <Time>2019-08-02T13:01:06.000Z</Time>
            <Position>
              <LatitudeDegrees>41.08376319520175457000732421875</LatitudeDegrees>
              <LongitudeDegrees>-4.36399103142321109771728515625</LongitudeDegrees>
            </Position>
            <AltitudeMeters>928.20001220703125</AltitudeMeters>
            <DistanceMeters>143662.32018047</DistanceMeters>
          </Trackpoint>
          <Trackpoint>
            <Time>2019-08-02T13:01:20.000Z</Time>
            <Position>
              <LatitudeDegrees>41.08384869061410427093505859375</LatitudeDegrees>
              <LongitudeDegrees>-4.36470299027860164642333984375</LongitudeDegrees>
            </Position>
            <AltitudeMeters>926.79998779296875</AltitudeMeters>
            <DistanceMeters>143722.80235137</DistanceMeters>
          </Trackpoint>
          <Trackpoint>
            <Time>2019-08-02T13:01:28.000Z</Time>
            <Position>
              <LatitudeDegrees>41.08391515910625457763671875</LatitudeDegrees>
              <LongitudeDegrees>-4.36517254449427127838134765625</LongitudeDegrees>
            </Position>
            <AltitudeMeters>926.4000244140625</AltitudeMeters>
            <DistanceMeters>143762.88357865</DistanceMeters>
          </Trackpoint>
          <Trackpoint>
            <Time>2019-08-02T13:01:35.000Z</Time>
            <Position>
              <LatitudeDegrees>41.0839796997606754302978515625</LatitudeDegrees>
              <LongitudeDegrees>-4.36555467545986175537109375</LongitudeDegrees>
            </Position>
            <AltitudeMeters>925</AltitudeMeters>
            <DistanceMeters>143795.73685774</DistanceMeters>
          </Trackpoint>
          <Trackpoint>
            <Time>2019-08-02T13:01:48.000Z</Time>
            <Position>
              <LatitudeDegrees>41.0841221921145915985107421875</LatitudeDegrees>
              <LongitudeDegrees>-4.36628758907318115234375</LongitudeDegrees>
            </Position>
            <AltitudeMeters>924.20001220703125</AltitudeMeters>
            <DistanceMeters>143859.23596658</DistanceMeters>
          </Trackpoint>
          <Trackpoint>
            <Time>2019-08-02T13:02:00.000Z</Time>
            <Position>
              <LatitudeDegrees>41.08428371138870716094970703125</LatitudeDegrees>
              <LongitudeDegrees>-4.366973228752613067626953125</LongitudeDegrees>
            </Position>
            <AltitudeMeters>924.20001220703125</AltitudeMeters>
            <DistanceMeters>143919.50043742</DistanceMeters>
          </Trackpoint>
          <Trackpoint>
            <Time>2019-08-02T13:02:12.000Z</Time>
            <Position>
              <LatitudeDegrees>41.084474734961986541748046875</LatitudeDegrees>
              <LongitudeDegrees>-4.36766934581100940704345703125</LongitudeDegrees>
            </Position>
            <AltitudeMeters>924.4000244140625</AltitudeMeters>
            <DistanceMeters>143981.6497975</DistanceMeters>
          </Trackpoint>
          <Trackpoint>
            <Time>2019-08-02T13:02:19.000Z</Time>
            <Position>
              <LatitudeDegrees>41.0845741443336009979248046875</LatitudeDegrees>
              <LongitudeDegrees>-4.36800747178494930267333984375</LongitudeDegrees>
            </Position>
            <AltitudeMeters>924.20001220703125</AltitudeMeters>
            <DistanceMeters>144012.09781596</DistanceMeters>
          </Trackpoint>
          <Trackpoint>
            <Time>2019-08-02T13:02:30.000Z</Time>
            <Position>
              <LatitudeDegrees>41.0847806744277477264404296875</LatitudeDegrees>
              <LongitudeDegrees>-4.36867802403867244720458984375</LongitudeDegrees>
            </Position>
            <AltitudeMeters>924</AltitudeMeters>
            <DistanceMeters>144072.86767841</DistanceMeters>
          </Trackpoint>
          <Trackpoint>
            <Time>2019-08-02T13:02:42.000Z</Time>
            <Position>
              <LatitudeDegrees>41.0850043036043643951416015625</LatitudeDegrees>
              <LongitudeDegrees>-4.36937288381159305572509765625</LongitudeDegrees>
            </Position>
            <AltitudeMeters>923.5999755859375</AltitudeMeters>
            <DistanceMeters>144136.2526339</DistanceMeters>
          </Trackpoint>
          <Trackpoint>
            <Time>2019-08-02T13:02:53.000Z</Time>
            <Position>
              <LatitudeDegrees>41.0852155275642871856689453125</LatitudeDegrees>
              <LongitudeDegrees>-4.37003086321055889129638671875</LongitudeDegrees>
            </Position>
            <AltitudeMeters>924</AltitudeMeters>
            <DistanceMeters>144196.24979527</DistanceMeters>
          </Trackpoint>
          <Trackpoint>
            <Time>2019-08-02T13:03:05.000Z</Time>
            <Position>
              <LatitudeDegrees>41.08542524278163909912109375</LatitudeDegrees>
              <LongitudeDegrees>-4.3706922791898250579833984375</LongitudeDegrees>
            </Position>
            <AltitudeMeters>923.5999755859375</AltitudeMeters>
            <DistanceMeters>144256.44694999</DistanceMeters>
          </Trackpoint>
          <Trackpoint>
            <Time>2019-08-02T13:03:17.000Z</Time>
            <Position>
              <LatitudeDegrees>41.0856369696557521820068359375</LatitudeDegrees>
              <LongitudeDegrees>-4.3713507615029811859130859375</LongitudeDegrees>
            </Position>
            <AltitudeMeters>924</AltitudeMeters>
            <DistanceMeters>144316.50458526</DistanceMeters>
          </Trackpoint>
          <Trackpoint>
            <Time>2019-08-02T13:03:30.000Z</Time>
            <Position>
              <LatitudeDegrees>41.0858676396310329437255859375</LatitudeDegrees>
              <LongitudeDegrees>-4.3720598705112934112548828125</LongitudeDegrees>
            </Position>
            <AltitudeMeters>925.20001220703125</AltitudeMeters>
            <DistanceMeters>144381.29650017</DistanceMeters>
          </Trackpoint>
          <Trackpoint>
            <Time>2019-08-02T13:03:41.000Z</Time>
            <Position>
              <LatitudeDegrees>41.086039803922176361083984375</LatitudeDegrees>
              <LongitudeDegrees>-4.37261215411126613616943359375</LongitudeDegrees>
            </Position>
            <AltitudeMeters>925.5999755859375</AltitudeMeters>
            <DistanceMeters>144431.43441737</DistanceMeters>
          </Trackpoint>
          <Trackpoint>
            <Time>2019-08-02T13:03:53.000Z</Time>
            <Position>
              <LatitudeDegrees>41.08626075088977813720703125</LatitudeDegrees>
              <LongitudeDegrees>-4.37330768443644046783447265625</LongitudeDegrees>
            </Position>
            <AltitudeMeters>925.4000244140625</AltitudeMeters>
            <DistanceMeters>144494.75359156</DistanceMeters>
          </Trackpoint>
          <Trackpoint>
            <Time>2019-08-02T13:04:05.000Z</Time>
            <Position>
              <LatitudeDegrees>41.08647289685904979705810546875</LatitudeDegrees>
              <LongitudeDegrees>-4.3739734590053558349609375</LongitudeDegrees>
            </Position>
            <AltitudeMeters>925.4000244140625</AltitudeMeters>
            <DistanceMeters>144555.39195407</DistanceMeters>
          </Trackpoint>
          <Trackpoint>
            <Time>2019-08-02T13:04:17.000Z</Time>
            <Position>
              <LatitudeDegrees>41.08669769950211048126220703125</LatitudeDegrees>
              <LongitudeDegrees>-4.3746788799762725830078125</LongitudeDegrees>
            </Position>
            <AltitudeMeters>925.5999755859375</AltitudeMeters>
            <DistanceMeters>144619.64210105</DistanceMeters>
          </Trackpoint>
          <Trackpoint>
            <Time>2019-08-02T13:04:30.000Z</Time>
            <Position>
              <LatitudeDegrees>41.0869212448596954345703125</LatitudeDegrees>
              <LongitudeDegrees>-4.37537348829209804534912109375</LongitudeDegrees>
            </Position>
            <AltitudeMeters>925.20001220703125</AltitudeMeters>
            <DistanceMeters>144683.00254798</DistanceMeters>
          </Trackpoint>
          <Trackpoint>
            <Time>2019-08-02T13:04:33.000Z</Time>
            <Position>
              <LatitudeDegrees>41.08697555959224700927734375</LatitudeDegrees>
              <LongitudeDegrees>-4.37554481439292430877685546875</LongitudeDegrees>
            </Position>
            <AltitudeMeters>924.79998779296875</AltitudeMeters>
            <DistanceMeters>144698.59474949</DistanceMeters>
          </Trackpoint>
          <Trackpoint>
            <Time>2019-08-02T13:04:45.000Z</Time>
            <Position>
              <LatitudeDegrees>41.08721067197620868682861328125</LatitudeDegrees>
              <LongitudeDegrees>-4.37628946267068386077880859375</LongitudeDegrees>
            </Position>
            <AltitudeMeters>924.5999755859375</AltitudeMeters>
            <DistanceMeters>144766.32266945</DistanceMeters>
          </Trackpoint>
          <Trackpoint>
            <Time>2019-08-02T13:04:57.000Z</Time>
            <Position>
              <LatitudeDegrees>41.08742893673479557037353515625</LatitudeDegrees>
              <LongitudeDegrees>-4.37697057612240314483642578125</LongitudeDegrees>
            </Position>
            <AltitudeMeters>925</AltitudeMeters>
            <DistanceMeters>144828.41075691</DistanceMeters>
          </Trackpoint>
          <Trackpoint>
            <Time>2019-08-02T13:05:08.000Z</Time>
            <Position>
              <LatitudeDegrees>41.087640412151813507080078125</LatitudeDegrees>
              <LongitudeDegrees>-4.37763978727161884307861328125</LongitudeDegrees>
            </Position>
            <AltitudeMeters>925.4000244140625</AltitudeMeters>
            <DistanceMeters>144889.28484343</DistanceMeters>
          </Trackpoint>
          <Trackpoint>
            <Time>2019-08-02T13:05:12.000Z</Time>
            <Position>
              <LatitudeDegrees>41.08771316707134246826171875</LatitudeDegrees>
              <LongitudeDegrees>-4.37786978669464588165283203125</LongitudeDegrees>
            </Position>
            <AltitudeMeters>926.20001220703125</AltitudeMeters>
            <DistanceMeters>144910.2097173</DistanceMeters>
          </Trackpoint>
          <Trackpoint>
            <Time>2019-08-02T13:05:24.000Z</Time>
            <Position>
              <LatitudeDegrees>41.087932772934436798095703125</LatitudeDegrees>
              <LongitudeDegrees>-4.3785622157156467437744140625</LongitudeDegrees>
            </Position>
            <AltitudeMeters>926.5999755859375</AltitudeMeters>
            <DistanceMeters>144973.22984092</DistanceMeters>
          </Trackpoint>
          <Trackpoint>
            <Time>2019-08-02T13:05:36.000Z</Time>
            <Position>
              <LatitudeDegrees>41.0881501995027065277099609375</LatitudeDegrees>
              <LongitudeDegrees>-4.37925942242145538330078125</LongitudeDegrees>
            </Position>
            <AltitudeMeters>926.79998779296875</AltitudeMeters>
            <DistanceMeters>145036.52619308</DistanceMeters>
          </Trackpoint>
          <Trackpoint>
            <Time>2019-08-02T13:05:41.000Z</Time>
            <Position>
              <LatitudeDegrees>41.08824986033141613006591796875</LatitudeDegrees>
              <LongitudeDegrees>-4.37956360168755054473876953125</LongitudeDegrees>
            </Position>
            <AltitudeMeters>927.5999755859375</AltitudeMeters>
            <DistanceMeters>145064.35004101</DistanceMeters>
          </Trackpoint>
          <Trackpoint>
            <Time>2019-08-02T13:05:53.000Z</Time>
            <Position>
              <LatitudeDegrees>41.08848958276212215423583984375</LatitudeDegrees>
              <LongitudeDegrees>-4.38031797297298908233642578125</LongitudeDegrees>
            </Position>
            <AltitudeMeters>927.4000244140625</AltitudeMeters>
            <DistanceMeters>145133.02753775</DistanceMeters>
          </Trackpoint>
          <Trackpoint>
            <Time>2019-08-02T13:05:59.000Z</Time>
            <Position>
              <LatitudeDegrees>41.0885897465050220489501953125</LatitudeDegrees>
              <LongitudeDegrees>-4.38064302317798137664794921875</LongitudeDegrees>
            </Position>
            <AltitudeMeters>926.79998779296875</AltitudeMeters>
            <DistanceMeters>145162.48612574</DistanceMeters>
          </Trackpoint>
          <Trackpoint>
            <Time>2019-08-02T13:06:12.000Z</Time>
            <Position>
              <LatitudeDegrees>41.08880189247429370880126953125</LatitudeDegrees>
              <LongitudeDegrees>-4.38131625764071941375732421875</LongitudeDegrees>
            </Position>
            <AltitudeMeters>926.79998779296875</AltitudeMeters>
            <DistanceMeters>145223.69955891</DistanceMeters>
          </Trackpoint>
          <Trackpoint>
            <Time>2019-08-02T13:06:24.000Z</Time>
            <Position>
              <LatitudeDegrees>41.08897087164223194122314453125</LatitudeDegrees>
              <LongitudeDegrees>-4.3820363469421863555908203125</LongitudeDegrees>
            </Position>
            <AltitudeMeters>925.79998779296875</AltitudeMeters>
            <DistanceMeters>145286.96608738</DistanceMeters>
          </Trackpoint>
          <Trackpoint>
            <Time>2019-08-02T13:06:31.000Z</Time>
            <Position>
              <LatitudeDegrees>41.08903893269598484039306640625</LatitudeDegrees>
              <LongitudeDegrees>-4.3824785761535167694091796875</LongitudeDegrees>
            </Position>
            <AltitudeMeters>924.5999755859375</AltitudeMeters>
            <DistanceMeters>145324.82895674</DistanceMeters>
          </Trackpoint>
          <Trackpoint>
            <Time>2019-08-02T13:06:42.000Z</Time>
            <Position>
              <LatitudeDegrees>41.08906768262386322021484375</LatitudeDegrees>
              <LongitudeDegrees>-4.38319916836917400360107421875</LongitudeDegrees>
            </Position>
            <AltitudeMeters>923.79998779296875</AltitudeMeters>
            <DistanceMeters>145385.36194345</DistanceMeters>
          </Trackpoint>
          <Trackpoint>
            <Time>2019-08-02T13:06:53.000Z</Time>
            <Position>
              <LatitudeDegrees>41.0890088416635990142822265625</LatitudeDegrees>
              <LongitudeDegrees>-4.38395136035978794097900390625</LongitudeDegrees>
            </Position>
            <AltitudeMeters>924.79998779296875</AltitudeMeters>
            <DistanceMeters>145448.80008693</DistanceMeters>
          </Trackpoint>
          <Trackpoint>
            <Time>2019-08-02T13:07:05.000Z</Time>
            <Position>
              <LatitudeDegrees>41.088855452835559844970703125</LatitudeDegrees>
              <LongitudeDegrees>-4.38467505387961864471435546875</LongitudeDegrees>
            </Position>
            <AltitudeMeters>925.20001220703125</AltitudeMeters>
            <DistanceMeters>145511.86375529</DistanceMeters>
          </Trackpoint>
          <Trackpoint>
            <Time>2019-08-02T13:07:16.000Z</Time>
            <Position>
              <LatitudeDegrees>41.08864582143723964691162109375</LatitudeDegrees>
              <LongitudeDegrees>-4.3853073008358478546142578125</LongitudeDegrees>
            </Position>
            <AltitudeMeters>924.20001220703125</AltitudeMeters>
            <DistanceMeters>145569.80667912</DistanceMeters>
          </Trackpoint>
          <Trackpoint>
            <Time>2019-08-02T13:07:25.000Z</Time>
            <Position>
              <LatitudeDegrees>41.0884620063006877899169921875</LatitudeDegrees>
              <LongitudeDegrees>-4.38579194247722625732421875</LongitudeDegrees>
            </Position>
            <AltitudeMeters>923.20001220703125</AltitudeMeters>
            <DistanceMeters>145615.3196146</DistanceMeters>
          </Trackpoint>
          <Trackpoint>
            <Time>2019-08-02T13:07:37.000Z</Time>
            <Position>
              <LatitudeDegrees>41.08821147121489048004150390625</LatitudeDegrees>
              <LongitudeDegrees>-4.386464841663837432861328125</LongitudeDegrees>
            </Position>
            <AltitudeMeters>924.20001220703125</AltitudeMeters>
            <DistanceMeters>145678.2796716</DistanceMeters>
          </Trackpoint>
          <Trackpoint>
            <Time>2019-08-02T13:07:49.000Z</Time>
            <Position>
              <LatitudeDegrees>41.0879550687968730926513671875</LatitudeDegrees>
              <LongitudeDegrees>-4.38715693540871143341064453125</LongitudeDegrees>
            </Position>
            <AltitudeMeters>924.20001220703125</AltitudeMeters>
            <DistanceMeters>145742.97290679</DistanceMeters>
          </Trackpoint>
          <Trackpoint>
            <Time>2019-08-02T13:08:01.000Z</Time>
            <Position>
              <LatitudeDegrees>41.08770386315882205963134765625</LatitudeDegrees>
              <LongitudeDegrees>-4.38783042132854461669921875</LongitudeDegrees>
            </Position>
            <AltitudeMeters>923.20001220703125</AltitudeMeters>
            <DistanceMeters>145806.01058084</DistanceMeters>
          </Trackpoint>
          <Trackpoint>
            <Time>2019-08-02T13:08:09.000Z</Time>
            <Position>
              <LatitudeDegrees>41.08756170608103275299072265625</LatitudeDegrees>
              <LongitudeDegrees>-4.3882060982286930084228515625</LongitudeDegrees>
            </Position>
            <AltitudeMeters>922.5999755859375</AltitudeMeters>
            <DistanceMeters>145841.27458355</DistanceMeters>
          </Trackpoint>
          <Trackpoint>
            <Time>2019-08-02T13:08:10.000Z</Time>
            <Position>
              <LatitudeDegrees>41.08751929365098476409912109375</LatitudeDegrees>
              <LongitudeDegrees>-4.38832537271082401275634765625</LongitudeDegrees>
            </Position>
            <AltitudeMeters>922.4000244140625</AltitudeMeters>
            <DistanceMeters>145852.33775019</DistanceMeters>
          </Trackpoint>
          <Trackpoint>
            <Time>2019-08-02T13:08:21.000Z</Time>
            <Position>
              <LatitudeDegrees>41.087274290621280670166015625</LatitudeDegrees>
              <LongitudeDegrees>-4.38898938708007335662841796875</LongitudeDegrees>
            </Position>
            <AltitudeMeters>922.20001220703125</AltitudeMeters>
            <DistanceMeters>145914.35795289</DistanceMeters>
          </Trackpoint>
          <Trackpoint>
            <Time>2019-08-02T13:08:32.000Z</Time>
            <Position>
              <LatitudeDegrees>41.08702811412513256072998046875</LatitudeDegrees>
              <LongitudeDegrees>-4.38964753411710262298583984375</LongitudeDegrees>
            </Position>
            <AltitudeMeters>922.20001220703125</AltitudeMeters>
            <DistanceMeters>145975.99462688</DistanceMeters>
          </Trackpoint>
          <Trackpoint>
            <Time>2019-08-02T13:08:41.000Z</Time>
            <Position>
              <LatitudeDegrees>41.08682795427739620208740234375</LatitudeDegrees>
              <LongitudeDegrees>-4.39018866978585720062255859375</LongitudeDegrees>
            </Position>
            <AltitudeMeters>921.79998779296875</AltitudeMeters>
            <DistanceMeters>146026.56223378</DistanceMeters>
          </Trackpoint>
          <Trackpoint>
            <Time>2019-08-02T13:08:52.000Z</Time>
            <Position>
              <LatitudeDegrees>41.0865817777812480926513671875</LatitudeDegrees>
              <LongitudeDegrees>-4.39084882847964763641357421875</LongitudeDegrees>
            </Position>
            <AltitudeMeters>921.5999755859375</AltitudeMeters>
            <DistanceMeters>146088.35042739</DistanceMeters>
          </Trackpoint>
          <Trackpoint>
            <Time>2019-08-02T13:09:03.000Z</Time>
            <Position>
              <LatitudeDegrees>41.0863306559622287750244140625</LatitudeDegrees>
              <LongitudeDegrees>-4.39152323640882968902587890625</LongitudeDegrees>
            </Position>
            <AltitudeMeters>922</AltitudeMeters>
            <DistanceMeters>146151.45431927</DistanceMeters>
          </Trackpoint>
          <Trackpoint>
            <Time>2019-08-02T13:09:14.000Z</Time>
            <Position>
              <LatitudeDegrees>41.08608397655189037322998046875</LatitudeDegrees>
              <LongitudeDegrees>-4.39219169318675994873046875</LongitudeDegrees>
            </Position>
            <AltitudeMeters>921.4000244140625</AltitudeMeters>
            <DistanceMeters>146213.89229427</DistanceMeters>
          </Trackpoint>
          <Trackpoint>
            <Time>2019-08-02T13:09:16.000Z</Time>
            <Position>
              <LatitudeDegrees>41.0860423184931278228759765625</LatitudeDegrees>
              <LongitudeDegrees>-4.39230836927890777587890625</LongitudeDegrees>
            </Position>
            <AltitudeMeters>921.4000244140625</AltitudeMeters>
            <DistanceMeters>146224.72367245</DistanceMeters>
          </Trackpoint>
          <Trackpoint>
            <Time>2019-08-02T13:09:22.000Z</Time>
            <Position>
              <LatitudeDegrees>41.08591717667877674102783203125</LatitudeDegrees>
              <LongitudeDegrees>-4.39264473505318164825439453125</LongitudeDegrees>
            </Position>
            <AltitudeMeters>920.20001220703125</AltitudeMeters>
            <DistanceMeters>146256.19215307</DistanceMeters>
          </Trackpoint>
          <Trackpoint>
            <Time>2019-08-02T13:09:28.000Z</Time>
            <Position>
              <LatitudeDegrees>41.08579396270215511322021484375</LatitudeDegrees>
              <LongitudeDegrees>-4.39296810887753963470458984375</LongitudeDegrees>
            </Position>
            <AltitudeMeters>919.20001220703125</AltitudeMeters>
            <DistanceMeters>146286.58971222</DistanceMeters>
          </Trackpoint>
          <Trackpoint>
            <Time>2019-08-02T13:09:30.000Z</Time>
            <Position>
              <LatitudeDegrees>41.08575657941401004791259765625</LatitudeDegrees>
              <LongitudeDegrees>-4.39307338558137416839599609375</LongitudeDegrees>
            </Position>
            <AltitudeMeters>918.79998779296875</AltitudeMeters>
            <DistanceMeters>146296.35252211</DistanceMeters>
          </Trackpoint>
          <Trackpoint>
            <Time>2019-08-02T13:09:32.000Z</Time>
            <Position>
              <LatitudeDegrees>41.08571986667811870574951171875</LatitudeDegrees>
              <LongitudeDegrees>-4.39318033866584300994873046875</LongitudeDegrees>
            </Position>
            <AltitudeMeters>918.20001220703125</AltitudeMeters>
            <DistanceMeters>146306.2115151</DistanceMeters>
          </Trackpoint>
          <Trackpoint>
            <Time>2019-08-02T13:09:38.000Z</Time>
            <Position>
              <LatitudeDegrees>41.08561174012720584869384765625</LatitudeDegrees>
              <LongitudeDegrees>-4.393479824066162109375</LongitudeDegrees>
            </Position>
            <AltitudeMeters>916.5999755859375</AltitudeMeters>
            <DistanceMeters>146334.06941936</DistanceMeters>
          </Trackpoint>
          <Trackpoint>
            <Time>2019-08-02T13:09:41.000Z</Time>
            <Position>
              <LatitudeDegrees>41.0855989158153533935546875</LatitudeDegrees>
              <LongitudeDegrees>-4.39360446296632289886474609375</LongitudeDegrees>
            </Position>
            <AltitudeMeters>915.79998779296875</AltitudeMeters>
            <DistanceMeters>146344.62209214</DistanceMeters>
          </Trackpoint>
          <Trackpoint>
            <Time>2019-08-02T13:09:42.000Z</Time>
            <Position>
              <LatitudeDegrees>41.0856135003268718719482421875</LatitudeDegrees>
              <LongitudeDegrees>-4.393635056912899017333984375</LongitudeDegrees>
            </Position>
            <AltitudeMeters>915.5999755859375</AltitudeMeters>
            <DistanceMeters>146347.65700202</DistanceMeters>
          </Trackpoint>
          <Trackpoint>
            <Time>2019-08-02T13:09:45.000Z</Time>
            <Position>
              <LatitudeDegrees>41.08569673262536525726318359375</LatitudeDegrees>
              <LongitudeDegrees>-4.39368576742708683013916015625</LongitudeDegrees>
            </Position>
            <AltitudeMeters>914.20001220703125</AltitudeMeters>
            <DistanceMeters>146357.85102574</DistanceMeters>
          </Trackpoint>
          <Trackpoint>
            <Time>2019-08-02T13:09:46.000Z</Time>
            <Position>
              <LatitudeDegrees>41.08572958968579769134521484375</LatitudeDegrees>
              <LongitudeDegrees>-4.39369264058768749237060546875</LongitudeDegrees>
            </Position>
            <AltitudeMeters>914</AltitudeMeters>
            <DistanceMeters>146361.55341092</DistanceMeters>
          </Trackpoint>
          <Trackpoint>
            <Time>2019-08-02T13:09:48.000Z</Time>
            <Position>
              <LatitudeDegrees>41.08579480089247226715087890625</LatitudeDegrees>
              <LongitudeDegrees>-4.3937170319259166717529296875</LongitudeDegrees>
            </Position>
            <AltitudeMeters>913</AltitudeMeters>
            <DistanceMeters>146369.09472523</DistanceMeters>
          </Trackpoint>
          <Trackpoint>
            <Time>2019-08-02T13:09:50.000Z</Time>
            <Position>
              <LatitudeDegrees>41.08586118556559085845947265625</LatitudeDegrees>
              <LongitudeDegrees>-4.393748380243778228759765625</LongitudeDegrees>
            </Position>
            <AltitudeMeters>911.79998779296875</AltitudeMeters>
            <DistanceMeters>146376.93774</DistanceMeters>
          </Trackpoint>
          <Trackpoint>
            <Time>2019-08-02T13:09:52.000Z</Time>
            <Position>
              <LatitudeDegrees>41.0859316773712635040283203125</LatitudeDegrees>
              <LongitudeDegrees>-4.3937770463526248931884765625</LongitudeDegrees>
            </Position>
            <AltitudeMeters>911</AltitudeMeters>
            <DistanceMeters>146385.14311933</DistanceMeters>
          </Trackpoint>
          <Trackpoint>
            <Time>2019-08-02T13:09:55.000Z</Time>
            <Position>
              <LatitudeDegrees>41.08604349195957183837890625</LatitudeDegrees>
              <LongitudeDegrees>-4.3938206322491168975830078125</LongitudeDegrees>
            </Position>
            <AltitudeMeters>909.79998779296875</AltitudeMeters>
            <DistanceMeters>146398.11417882</DistanceMeters>
          </Trackpoint>
          <Trackpoint>
            <Time>2019-08-02T13:09:58.000Z</Time>
            <Position>
              <LatitudeDegrees>41.086158491671085357666015625</LatitudeDegrees>
              <LongitudeDegrees>-4.39387151040136814117431640625</LongitudeDegrees>
            </Position>
            <AltitudeMeters>908.5999755859375</AltitudeMeters>
            <DistanceMeters>146411.60663379</DistanceMeters>
          </Trackpoint>
          <Trackpoint>
            <Time>2019-08-02T13:10:02.000Z</Time>
            <Position>
              <LatitudeDegrees>41.0863098688423633575439453125</LatitudeDegrees>
              <LongitudeDegrees>-4.39394862391054630279541015625</LongitudeDegrees>
            </Position>
            <AltitudeMeters>907.4000244140625</AltitudeMeters>
            <DistanceMeters>146429.6547062</DistanceMeters>
          </Trackpoint>
          <Trackpoint>
            <Time>2019-08-02T13:10:06.000Z</Time>
            <Position>
              <LatitudeDegrees>41.08644037507474422454833984375</LatitudeDegrees>
              <LongitudeDegrees>-4.39406496472656726837158203125</LongitudeDegrees>
            </Position>
            <AltitudeMeters>906.4000244140625</AltitudeMeters>
            <DistanceMeters>146447.15459227</DistanceMeters>
          </Trackpoint>
          <Trackpoint>
            <Time>2019-08-02T13:10:12.000Z</Time>
            <Position>
              <LatitudeDegrees>41.08659041114151477813720703125</LatitudeDegrees>
              <LongitudeDegrees>-4.39428792335093021392822265625</LongitudeDegrees>
            </Position>
            <AltitudeMeters>905.20001220703125</AltitudeMeters>
            <DistanceMeters>146472.22868333</DistanceMeters>
          </Trackpoint>
          <Trackpoint>
            <Time>2019-08-02T13:10:19.000Z</Time>
            <Position>
              <LatitudeDegrees>41.08678470365703105926513671875</LatitudeDegrees>
              <LongitudeDegrees>-4.39447349868714809417724609375</LongitudeDegrees>
            </Position>
            <AltitudeMeters>904</AltitudeMeters>
            <DistanceMeters>146498.87448582</DistanceMeters>
          </Trackpoint>
          <Trackpoint>
            <Time>2019-08-02T13:10:34.000Z</Time>
            <Position>
              <LatitudeDegrees>41.0872704349458217620849609375</LatitudeDegrees>
              <LongitudeDegrees>-4.39416169188916683197021484375</LongitudeDegrees>
            </Position>
            <AltitudeMeters>905</AltitudeMeters>
            <DistanceMeters>146558.93279769</DistanceMeters>
          </Trackpoint>
          <Trackpoint>
            <Time>2019-08-02T13:10:36.000Z</Time>
            <Position>
              <LatitudeDegrees>41.08732148073613643646240234375</LatitudeDegrees>
              <LongitudeDegrees>-4.394212402403354644775390625</LongitudeDegrees>
            </Position>
            <AltitudeMeters>905.4000244140625</AltitudeMeters>
            <DistanceMeters>146566.02996377</DistanceMeters>
          </Trackpoint>
          <Trackpoint>
            <Time>2019-08-02T13:10:41.000Z</Time>
            <Position>
              <LatitudeDegrees>41.0872302018105983734130859375</LatitudeDegrees>
              <LongitudeDegrees>-4.394300244748592376708984375</LongitudeDegrees>
            </Position>
            <AltitudeMeters>906.4000244140625</AltitudeMeters>
            <DistanceMeters>146578.580687</DistanceMeters>
          </Trackpoint>
          <Trackpoint>
            <Time>2019-08-02T13:10:45.000Z</Time>
            <Position>
              <LatitudeDegrees>41.08715937472879886627197265625</LatitudeDegrees>
              <LongitudeDegrees>-4.3943030945956707000732421875</LongitudeDegrees>
            </Position>
            <AltitudeMeters>906.20001220703125</AltitudeMeters>
            <DistanceMeters>146586.46733182</DistanceMeters>
          </Trackpoint>
          <Trackpoint>
            <Time>2019-08-02T13:10:48.000Z</Time>
            <Position>
              <LatitudeDegrees>41.08712718822062015533447265625</LatitudeDegrees>
              <LongitudeDegrees>-4.39433234743773937225341796875</LongitudeDegrees>
            </Position>
            <AltitudeMeters>905.79998779296875</AltitudeMeters>
            <DistanceMeters>146590.8095432</DistanceMeters>
          </Trackpoint>
          <Trackpoint>
            <Time>2019-08-02T13:10:53.000Z</Time>
            <Position>
              <LatitudeDegrees>41.08706541359424591064453125</LatitudeDegrees>
              <LongitudeDegrees>-4.39439068548381328582763671875</LongitudeDegrees>
            </Position>
            <AltitudeMeters>905.20001220703125</AltitudeMeters>
            <DistanceMeters>146599.24875009</DistanceMeters>
          </Trackpoint>
          <Trackpoint>
            <Time>2019-08-02T13:10:58.000Z</Time>
            <Position>
              <LatitudeDegrees>41.08700238168239593505859375</LatitudeDegrees>
              <LongitudeDegrees>-4.39444198273122310638427734375</LongitudeDegrees>
            </Position>
            <AltitudeMeters>904</AltitudeMeters>
            <DistanceMeters>146607.47885357</DistanceMeters>
          </Trackpoint>
          <Trackpoint>
            <Time>2019-08-02T13:11:04.000Z</Time>
            <Position>
              <LatitudeDegrees>41.08691378496587276458740234375</LatitudeDegrees>
              <LongitudeDegrees>-4.3945066072046756744384765625</LongitudeDegrees>
            </Position>
            <AltitudeMeters>902.79998779296875</AltitudeMeters>
            <DistanceMeters>146618.73139692</DistanceMeters>
          </Trackpoint>
          <Trackpoint>
            <Time>2019-08-02T13:11:07.000Z</Time>
            <Position>
              <LatitudeDegrees>41.086851172149181365966796875</LatitudeDegrees>
              <LongitudeDegrees>-4.39451255835592746734619140625</LongitudeDegrees>
            </Position>
            <AltitudeMeters>901.5999755859375</AltitudeMeters>
            <DistanceMeters>146625.71828416</DistanceMeters>
          </Trackpoint>
          <Trackpoint>
            <Time>2019-08-02T13:11:10.000Z</Time>
            <Position>
              <LatitudeDegrees>41.0867859609425067901611328125</LatitudeDegrees>
              <LongitudeDegrees>-4.3945190124213695526123046875</LongitudeDegrees>
            </Position>
            <AltitudeMeters>900.5999755859375</AltitudeMeters>
            <DistanceMeters>146632.99636278</DistanceMeters>
          </Trackpoint>
          <Trackpoint>
            <Time>2019-08-02T13:11:12.000Z</Time>
            <Position>
              <LatitudeDegrees>41.086767353117465972900390625</LatitudeDegrees>
              <LongitudeDegrees>-4.39452529884874820709228515625</LongitudeDegrees>
            </Position>
            <AltitudeMeters>900</AltitudeMeters>
            <DistanceMeters>146635.13393586</DistanceMeters>
          </Trackpoint>
          <Trackpoint>
            <Time>2019-08-02T13:11:15.000Z</Time>
            <Position>
              <LatitudeDegrees>41.0867648385465145111083984375</LatitudeDegrees>
              <LongitudeDegrees>-4.39461733214557170867919921875</LongitudeDegrees>
            </Position>
            <AltitudeMeters>899.4000244140625</AltitudeMeters>
            <DistanceMeters>146642.85920448</DistanceMeters>
          </Trackpoint>
          <Trackpoint>
            <Time>2019-08-02T13:11:17.000Z</Time>
            <Position>
              <LatitudeDegrees>41.08679040335118770599365234375</LatitudeDegrees>
              <LongitudeDegrees>-4.394667707383632659912109375</LongitudeDegrees>
            </Position>
            <AltitudeMeters>899.20001220703125</AltitudeMeters>
            <DistanceMeters>146647.9544444</DistanceMeters>
          </Trackpoint>
          <Trackpoint>
            <Time>2019-08-02T13:11:20.000Z</Time>
            <Position>
              <LatitudeDegrees>41.08684689737856388092041015625</LatitudeDegrees>
              <LongitudeDegrees>-4.394713304936885833740234375</LongitudeDegrees>
            </Position>
            <AltitudeMeters>898.4000244140625</AltitudeMeters>
            <DistanceMeters>146655.31395515</DistanceMeters>
          </Trackpoint>
          <Trackpoint>
            <Time>2019-08-02T13:11:24.000Z</Time>
            <Position>
              <LatitudeDegrees>41.086881347000598907470703125</LatitudeDegrees>
              <LongitudeDegrees>-4.39474641345441341400146484375</LongitudeDegrees>
            </Position>
            <AltitudeMeters>897.20001220703125</AltitudeMeters>
            <DistanceMeters>146660.04815516</DistanceMeters>
          </Trackpoint>
          <Trackpoint>
            <Time>2019-08-02T13:15:30.000Z</Time>
            <Position>
              <LatitudeDegrees>41.08688008971512317657470703125</LatitudeDegrees>
              <LongitudeDegrees>-4.39477876760065555572509765625</LongitudeDegrees>
            </Position>
            <AltitudeMeters>917.20001220703125</AltitudeMeters>
            <DistanceMeters>146662.76432387</DistanceMeters>
          </Trackpoint>
          <Trackpoint>
            <Time>2019-08-02T13:15:36.000Z</Time>
            <Position>
              <LatitudeDegrees>41.08677548356354236602783203125</LatitudeDegrees>
              <LongitudeDegrees>-4.39479301683604717254638671875</LongitudeDegrees>
            </Position>
            <AltitudeMeters>916.20001220703125</AltitudeMeters>
            <DistanceMeters>146674.46805103</DistanceMeters>
          </Trackpoint>
          <Trackpoint>
            <Time>2019-08-02T13:15:37.000Z</Time>
            <Position>
              <LatitudeDegrees>41.08675318770110607147216796875</LatitudeDegrees>
              <LongitudeDegrees>-4.39478128217160701751708984375</LongitudeDegrees>
            </Position>
            <AltitudeMeters>915.5999755859375</AltitudeMeters>
            <DistanceMeters>146677.13727008</DistanceMeters>
          </Trackpoint>
          <Trackpoint>
            <Time>2019-08-02T13:15:39.000Z</Time>
            <Position>
              <LatitudeDegrees>41.08670675195753574371337890625</LatitudeDegrees>
              <LongitudeDegrees>-4.3947560526430606842041015625</LongitudeDegrees>
            </Position>
            <AltitudeMeters>915</AltitudeMeters>
            <DistanceMeters>146682.7220605</DistanceMeters>
          </Trackpoint>
          <Trackpoint>
            <Time>2019-08-02T13:15:43.000Z</Time>
            <Position>
              <LatitudeDegrees>41.08663215301930904388427734375</LatitudeDegrees>
              <LongitudeDegrees>-4.3946903385221958160400390625</LongitudeDegrees>
            </Position>
            <AltitudeMeters>913.79998779296875</AltitudeMeters>
            <DistanceMeters>146692.68854638</DistanceMeters>
          </Trackpoint>
          <Trackpoint>
            <Time>2019-08-02T13:15:47.000Z</Time>
            <Position>
              <LatitudeDegrees>41.08661002479493618011474609375</LatitudeDegrees>
              <LongitudeDegrees>-4.3945964612066745758056640625</LongitudeDegrees>
            </Position>
            <AltitudeMeters>912.79998779296875</AltitudeMeters>
            <DistanceMeters>146700.94001755</DistanceMeters>
          </Trackpoint>
          <Trackpoint>
            <Time>2019-08-02T13:15:49.000Z</Time>
            <Position>
              <LatitudeDegrees>41.08660851605236530303955078125</LatitudeDegrees>
              <LongitudeDegrees>-4.39455480314791202545166015625</LongitudeDegrees>
            </Position>
            <AltitudeMeters>911.79998779296875</AltitudeMeters>
            <DistanceMeters>146704.44056232</DistanceMeters>
          </Trackpoint>
          <Trackpoint>
            <Time>2019-08-02T13:15:52.000Z</Time>
            <Position>
              <LatitudeDegrees>41.08661203645169734954833984375</LatitudeDegrees>
              <LongitudeDegrees>-4.394500739872455596923828125</LongitudeDegrees>
            </Position>
            <AltitudeMeters>910.4000244140625</AltitudeMeters>
            <DistanceMeters>146708.99292714</DistanceMeters>
          </Trackpoint>
          <Trackpoint>
            <Time>2019-08-02T13:15:56.000Z</Time>
            <Position>
              <LatitudeDegrees>41.0865918360650539398193359375</LatitudeDegrees>
              <LongitudeDegrees>-4.39438733272254467010498046875</LongitudeDegrees>
            </Position>
            <AltitudeMeters>909.4000244140625</AltitudeMeters>
            <DistanceMeters>146718.76821583</DistanceMeters>
          </Trackpoint>
          <Trackpoint>
            <Time>2019-08-02T13:15:59.000Z</Time>
            <Position>
              <LatitudeDegrees>41.08655101619660854339599609375</LatitudeDegrees>
              <LongitudeDegrees>-4.394276440143585205078125</LongitudeDegrees>
            </Position>
            <AltitudeMeters>908</AltitudeMeters>
            <DistanceMeters>146729.12089555</DistanceMeters>
          </Trackpoint>
          <Trackpoint>
            <Time>2019-08-02T13:16:02.000Z</Time>
            <Position>
              <LatitudeDegrees>41.0864858888089656829833984375</LatitudeDegrees>
              <LongitudeDegrees>-4.39416856504976749420166015625</LongitudeDegrees>
            </Position>
            <AltitudeMeters>906.79998779296875</AltitudeMeters>
            <DistanceMeters>146740.71610181</DistanceMeters>
          </Trackpoint>
          <Trackpoint>
            <Time>2019-08-02T13:16:05.000Z</Time>
            <Position>
              <LatitudeDegrees>41.086409948766231536865234375</LatitudeDegrees>
              <LongitudeDegrees>-4.39406915567815303802490234375</LongitudeDegrees>
            </Position>
            <AltitudeMeters>905.5999755859375</AltitudeMeters>
            <DistanceMeters>146752.58987894</DistanceMeters>
          </Trackpoint>
          <Trackpoint>
            <Time>2019-08-02T13:16:09.000Z</Time>
            <Position>
              <LatitudeDegrees>41.08628530986607074737548828125</LatitudeDegrees>
              <LongitudeDegrees>-4.3939735181629657745361328125</LongitudeDegrees>
            </Position>
            <AltitudeMeters>904.5999755859375</AltitudeMeters>
            <DistanceMeters>146768.61533913</DistanceMeters>
          </Trackpoint>
          <Trackpoint>
            <Time>2019-08-02T13:16:14.000Z</Time>
            <Position>
              <LatitudeDegrees>41.0861164145171642303466796875</LatitudeDegrees>
              <LongitudeDegrees>-4.39389263279736042022705078125</LongitudeDegrees>
            </Position>
            <AltitudeMeters>903.5999755859375</AltitudeMeters>
            <DistanceMeters>146788.60079237</DistanceMeters>
          </Trackpoint>
          <Trackpoint>
            <Time>2019-08-02T13:16:18.000Z</Time>
            <Position>
              <LatitudeDegrees>41.08598121441900730133056640625</LatitudeDegrees>
              <LongitudeDegrees>-4.39382943324744701385498046875</LongitudeDegrees>
            </Position>
            <AltitudeMeters>902.5999755859375</AltitudeMeters>
            <DistanceMeters>146804.55566169</DistanceMeters>
          </Trackpoint>
          <Trackpoint>
            <Time>2019-08-02T13:16:30.000Z</Time>
            <Position>
              <LatitudeDegrees>41.08558340929448604583740234375</LatitudeDegrees>
              <LongitudeDegrees>-4.3936938978731632232666015625</LongitudeDegrees>
            </Position>
            <AltitudeMeters>901.79998779296875</AltitudeMeters>
            <DistanceMeters>146850.26874636</DistanceMeters>
          </Trackpoint>
          <Trackpoint>
            <Time>2019-08-02T13:16:31.000Z</Time>
            <Position>
              <LatitudeDegrees>41.08555692248046398162841796875</LatitudeDegrees>
              <LongitudeDegrees>-4.3937280960381031036376953125</LongitudeDegrees>
            </Position>
            <AltitudeMeters>901.4000244140625</AltitudeMeters>
            <DistanceMeters>146854.38242637</DistanceMeters>
          </Trackpoint>
          <Trackpoint>
            <Time>2019-08-02T13:16:34.000Z</Time>
            <Position>
              <LatitudeDegrees>41.0854793898761272430419921875</LatitudeDegrees>
              <LongitudeDegrees>-4.39387209713459014892578125</LongitudeDegrees>
            </Position>
            <AltitudeMeters>901</AltitudeMeters>
            <DistanceMeters>146869.22911509</DistanceMeters>
          </Trackpoint>
          <Trackpoint>
            <Time>2019-08-02T13:16:37.000Z</Time>
            <Position>
              <LatitudeDegrees>41.0854017734527587890625</LatitudeDegrees>
              <LongitudeDegrees>-4.39402976073324680328369140625</LongitudeDegrees>
            </Position>
            <AltitudeMeters>900.4000244140625</AltitudeMeters>
            <DistanceMeters>146885.0270027</DistanceMeters>
          </Trackpoint>
          <Trackpoint>
            <Time>2019-08-02T13:16:42.000Z</Time>
            <Position>
              <LatitudeDegrees>41.08529741875827312469482421875</LatitudeDegrees>
              <LongitudeDegrees>-4.39430435188114643096923828125</LongitudeDegrees>
            </Position>
            <AltitudeMeters>899.4000244140625</AltitudeMeters>
            <DistanceMeters>146910.82531183</DistanceMeters>
          </Trackpoint>
          <Trackpoint>
            <Time>2019-08-02T13:16:55.000Z</Time>
            <Position>
              <LatitudeDegrees>41.08504160307347774505615234375</LatitudeDegrees>
              <LongitudeDegrees>-4.39499585889279842376708984375</LongitudeDegrees>
            </Position>
            <AltitudeMeters>899</AltitudeMeters>
            <DistanceMeters>146975.4479493</DistanceMeters>
          </Trackpoint>
          <Trackpoint>
            <Time>2019-08-02T13:17:08.000Z</Time>
            <Position>
              <LatitudeDegrees>41.08480456285178661346435546875</LatitudeDegrees>
              <LongitudeDegrees>-4.3956438638269901275634765625</LongitudeDegrees>
            </Position>
            <AltitudeMeters>898.5999755859375</AltitudeMeters>
            <DistanceMeters>147035.87447981</DistanceMeters>
          </Trackpoint>
          <Trackpoint>
            <Time>2019-08-02T13:17:22.000Z</Time>
            <Position>
              <LatitudeDegrees>41.08455260284245014190673828125</LatitudeDegrees>
              <LongitudeDegrees>-4.3963261507451534271240234375</LongitudeDegrees>
            </Position>
            <AltitudeMeters>899.20001220703125</AltitudeMeters>
            <DistanceMeters>147099.61410448</DistanceMeters>
          </Trackpoint>
          <Trackpoint>
            <Time>2019-08-02T13:17:35.000Z</Time>
            <Position>
              <LatitudeDegrees>41.084311790764331817626953125</LatitudeDegrees>
              <LongitudeDegrees>-4.39697943627834320068359375</LongitudeDegrees>
            </Position>
            <AltitudeMeters>899.79998779296875</AltitudeMeters>
            <DistanceMeters>147160.62303128</DistanceMeters>
          </Trackpoint>
          <Trackpoint>
            <Time>2019-08-02T13:17:48.000Z</Time>
            <Position>
              <LatitudeDegrees>41.08406594954431056976318359375</LatitudeDegrees>
              <LongitudeDegrees>-4.3976364098489284515380859375</LongitudeDegrees>
            </Position>
            <AltitudeMeters>900</AltitudeMeters>
            <DistanceMeters>147222.15721312</DistanceMeters>
          </Trackpoint>
          <Trackpoint>
            <Time>2019-08-02T13:18:00.000Z</Time>
            <Position>
              <LatitudeDegrees>41.083847098052501678466796875</LatitudeDegrees>
              <LongitudeDegrees>-4.39823043532669544219970703125</LongitudeDegrees>
            </Position>
            <AltitudeMeters>900.4000244140625</AltitudeMeters>
            <DistanceMeters>147277.62669209</DistanceMeters>
          </Trackpoint>
          <Trackpoint>
            <Time>2019-08-02T13:18:13.000Z</Time>
            <Position>
              <LatitudeDegrees>41.0836058668792247772216796875</LatitudeDegrees>
              <LongitudeDegrees>-4.39887751825153827667236328125</LongitudeDegrees>
            </Position>
            <AltitudeMeters>900.4000244140625</AltitudeMeters>
            <DistanceMeters>147338.18995398</DistanceMeters>
          </Trackpoint>
          <Trackpoint>
            <Time>2019-08-02T13:18:26.000Z</Time>
            <Position>
              <LatitudeDegrees>41.08335281722247600555419921875</LatitudeDegrees>
              <LongitudeDegrees>-4.39956785179674625396728515625</LongitudeDegrees>
            </Position>
            <AltitudeMeters>899.79998779296875</AltitudeMeters>
            <DistanceMeters>147402.59030918</DistanceMeters>
          </Trackpoint>
          <Trackpoint>
            <Time>2019-08-02T13:18:38.000Z</Time>
            <Position>
              <LatitudeDegrees>41.08311125077307224273681640625</LatitudeDegrees>
              <LongitudeDegrees>-4.4002197124063968658447265625</LongitudeDegrees>
            </Position>
            <AltitudeMeters>900</AltitudeMeters>
            <DistanceMeters>147463.52977863</DistanceMeters>
          </Trackpoint>
          <Trackpoint>
            <Time>2019-08-02T13:18:50.000Z</Time>
            <Position>
              <LatitudeDegrees>41.0828685946762561798095703125</LatitudeDegrees>
              <LongitudeDegrees>-4.40086838789284229278564453125</LongitudeDegrees>
            </Position>
            <AltitudeMeters>899.79998779296875</AltitudeMeters>
            <DistanceMeters>147524.28366507</DistanceMeters>
          </Trackpoint>
          <Trackpoint>
            <Time>2019-08-02T13:18:55.000Z</Time>
            <Position>
              <LatitudeDegrees>41.082766167819499969482421875</LatitudeDegrees>
              <LongitudeDegrees>-4.40114834345877170562744140625</LongitudeDegrees>
            </Position>
            <AltitudeMeters>899.4000244140625</AltitudeMeters>
            <DistanceMeters>147550.39129288</DistanceMeters>
          </Trackpoint>
          <Trackpoint>
            <Time>2019-08-02T13:19:07.000Z</Time>
            <Position>
              <LatitudeDegrees>41.08251429162919521331787109375</LatitudeDegrees>
              <LongitudeDegrees>-4.4018320553004741668701171875</LongitudeDegrees>
            </Position>
            <AltitudeMeters>898.4000244140625</AltitudeMeters>
            <DistanceMeters>147614.23580969</DistanceMeters>
          </Trackpoint>
          <Trackpoint>
            <Time>2019-08-02T13:19:19.000Z</Time>
            <Position>
              <LatitudeDegrees>41.08226199634373188018798828125</LatitudeDegrees>
              <LongitudeDegrees>-4.4025197066366672515869140625</LongitudeDegrees>
            </Position>
            <AltitudeMeters>897.4000244140625</AltitudeMeters>
            <DistanceMeters>147678.39805552</DistanceMeters>
          </Trackpoint>
          <Trackpoint>
            <Time>2019-08-02T13:19:20.000Z</Time>
            <Position>
              <LatitudeDegrees>41.08224070630967617034912109375</LatitudeDegrees>
              <LongitudeDegrees>-4.4025777094066143035888671875</LongitudeDegrees>
            </Position>
            <AltitudeMeters>897.20001220703125</AltitudeMeters>
            <DistanceMeters>147683.8104088</DistanceMeters>
          </Trackpoint>
          <Trackpoint>
            <Time>2019-08-02T13:19:29.000Z</Time>
            <Position>
              <LatitudeDegrees>41.08204524032771587371826171875</LatitudeDegrees>
              <LongitudeDegrees>-4.40310535021126270294189453125</LongitudeDegrees>
            </Position>
            <AltitudeMeters>896</AltitudeMeters>
            <DistanceMeters>147733.13439997</DistanceMeters>
          </Trackpoint>
          <Trackpoint>
            <Time>2019-08-02T13:19:34.000Z</Time>
            <Position>
              <LatitudeDegrees>41.08194096945226192474365234375</LatitudeDegrees>
              <LongitudeDegrees>-4.4034011475741863250732421875</LongitudeDegrees>
            </Position>
            <AltitudeMeters>895</AltitudeMeters>
            <DistanceMeters>147760.53045505</DistanceMeters>
          </Trackpoint>
          <Trackpoint>
            <Time>2019-08-02T13:19:44.000Z</Time>
            <Position>
              <LatitudeDegrees>41.08175992034375667572021484375</LatitudeDegrees>
              <LongitudeDegrees>-4.4040190614759922027587890625</LongitudeDegrees>
            </Position>
            <AltitudeMeters>894</AltitudeMeters>
            <DistanceMeters>147816.14990837</DistanceMeters>
          </Trackpoint>
          <Trackpoint>
            <Time>2019-08-02T13:19:55.000Z</Time>
            <Position>
              <LatitudeDegrees>41.081635616719722747802734375</LatitudeDegrees>
              <LongitudeDegrees>-4.40473462454974651336669921875</LongitudeDegrees>
            </Position>
            <AltitudeMeters>892.79998779296875</AltitudeMeters>
            <DistanceMeters>147877.75668811</DistanceMeters>
          </Trackpoint>
          <Trackpoint>
            <Time>2019-08-02T13:20:01.000Z</Time>
            <Position>
              <LatitudeDegrees>41.0815972276031970977783203125</LatitudeDegrees>
              <LongitudeDegrees>-4.4051251374185085296630859375</LongitudeDegrees>
            </Position>
            <AltitudeMeters>891.5999755859375</AltitudeMeters>
            <DistanceMeters>147910.79675381</DistanceMeters>
          </Trackpoint>
          <Trackpoint>
            <Time>2019-08-02T13:20:14.000Z</Time>
            <Position>
              <LatitudeDegrees>41.08161172829568386077880859375</LatitudeDegrees>
              <LongitudeDegrees>-4.4059641659259796142578125</LongitudeDegrees>
            </Position>
            <AltitudeMeters>891.20001220703125</AltitudeMeters>
            <DistanceMeters>147981.2068682</DistanceMeters>
          </Trackpoint>
          <Trackpoint>
            <Time>2019-08-02T13:20:26.000Z</Time>
            <Position>
              <LatitudeDegrees>41.08171574771404266357421875</LatitudeDegrees>
              <LongitudeDegrees>-4.406729601323604583740234375</LongitudeDegrees>
            </Position>
            <AltitudeMeters>890.5999755859375</AltitudeMeters>
            <DistanceMeters>148046.45943723</DistanceMeters>
          </Trackpoint>
          <Trackpoint>
            <Time>2019-08-02T13:20:27.000Z</Time>
            <Position>
              <LatitudeDegrees>41.081728152930736541748046875</LatitudeDegrees>
              <LongitudeDegrees>-4.40679221414029598236083984375</LongitudeDegrees>
            </Position>
            <AltitudeMeters>890.5999755859375</AltitudeMeters>
            <DistanceMeters>148051.89011211</DistanceMeters>
          </Trackpoint>
          <Trackpoint>
            <Time>2019-08-02T13:20:31.000Z</Time>
            <Position>
              <LatitudeDegrees>41.0817846469581127166748046875</LatitudeDegrees>
              <LongitudeDegrees>-4.40703227184712886810302734375</LongitudeDegrees>
            </Position>
            <AltitudeMeters>889.5999755859375</AltitudeMeters>
            <DistanceMeters>148072.98882483</DistanceMeters>
          </Trackpoint>
          <Trackpoint>
            <Time>2019-08-02T13:20:33.000Z</Time>
            <Position>
              <LatitudeDegrees>41.0818228684365749359130859375</LatitudeDegrees>
              <LongitudeDegrees>-4.40714090131223201751708984375</LongitudeDegrees>
            </Position>
            <AltitudeMeters>889.4000244140625</AltitudeMeters>
            <DistanceMeters>148083.04640488</DistanceMeters>
          </Trackpoint>
          <Trackpoint>
            <Time>2019-08-02T13:20:34.000Z</Time>
            <Position>
              <LatitudeDegrees>41.081842817366123199462890625</LatitudeDegrees>
              <LongitudeDegrees>-4.40719303674995899200439453125</LongitudeDegrees>
            </Position>
            <AltitudeMeters>889.20001220703125</AltitudeMeters>
            <DistanceMeters>148087.95294987</DistanceMeters>
          </Trackpoint>
          <Trackpoint>
            <Time>2019-08-02T13:20:38.000Z</Time>
            <Position>
              <LatitudeDegrees>41.0819673724472522735595703125</LatitudeDegrees>
              <LongitudeDegrees>-4.407359920442104339599609375</LongitudeDegrees>
            </Position>
            <AltitudeMeters>888.4000244140625</AltitudeMeters>
            <DistanceMeters>148107.65627565</DistanceMeters>
          </Trackpoint>
          <Trackpoint>
            <Time>2019-08-02T13:20:42.000Z</Time>
            <Position>
              <LatitudeDegrees>41.08211765997111797332763671875</LatitudeDegrees>
              <LongitudeDegrees>-4.40752814523875713348388671875</LongitudeDegrees>
            </Position>
            <AltitudeMeters>887</AltitudeMeters>
            <DistanceMeters>148129.54214723</DistanceMeters>
          </Trackpoint>
          <Trackpoint>
            <Time>2019-08-02T13:20:47.000Z</Time>
            <Position>
              <LatitudeDegrees>41.08231077902019023895263671875</LatitudeDegrees>
              <LongitudeDegrees>-4.4077530317008495330810546875</LongitudeDegrees>
            </Position>
            <AltitudeMeters>885.79998779296875</AltitudeMeters>
            <DistanceMeters>148158.14250465</DistanceMeters>
          </Trackpoint>
          <Trackpoint>
            <Time>2019-08-02T13:20:58.000Z</Time>
            <Position>
              <LatitudeDegrees>41.0827478952705860137939453125</LatitudeDegrees>
              <LongitudeDegrees>-4.40824714489281177520751953125</LongitudeDegrees>
            </Position>
            <AltitudeMeters>885.20001220703125</AltitudeMeters>
            <DistanceMeters>148222.05989145</DistanceMeters>
          </Trackpoint>
          <Trackpoint>
            <Time>2019-08-02T13:21:08.000Z</Time>
            <Position>
              <LatitudeDegrees>41.08316774480044841766357421875</LatitudeDegrees>
              <LongitudeDegrees>-4.40872239880263805389404296875</LongitudeDegrees>
            </Position>
            <AltitudeMeters>885.20001220703125</AltitudeMeters>
            <DistanceMeters>148283.48817617</DistanceMeters>
          </Trackpoint>
          <Trackpoint>
            <Time>2019-08-02T13:21:11.000Z</Time>
            <Position>
              <LatitudeDegrees>41.0832903720438480377197265625</LatitudeDegrees>
              <LongitudeDegrees>-4.4088644720613956451416015625</LongitudeDegrees>
            </Position>
            <AltitudeMeters>884.5999755859375</AltitudeMeters>
            <DistanceMeters>148301.60890104</DistanceMeters>
          </Trackpoint>
          <Trackpoint>
            <Time>2019-08-02T13:21:23.000Z</Time>
            <Position>
              <LatitudeDegrees>41.0837320983409881591796875</LatitudeDegrees>
              <LongitudeDegrees>-4.4093744270503520965576171875</LongitudeDegrees>
            </Position>
            <AltitudeMeters>885</AltitudeMeters>
            <DistanceMeters>148366.7819878</DistanceMeters>
          </Trackpoint>
          <Trackpoint>
            <Time>2019-08-02T13:21:29.000Z</Time>
            <Position>
              <LatitudeDegrees>41.08395346440374851226806640625</LatitudeDegrees>
              <LongitudeDegrees>-4.4096376188099384307861328125</LongitudeDegrees>
            </Position>
            <AltitudeMeters>885.5999755859375</AltitudeMeters>
            <DistanceMeters>148399.86657252</DistanceMeters>
          </Trackpoint>
          <Trackpoint>
            <Time>2019-08-02T13:21:35.000Z</Time>
            <Position>
              <LatitudeDegrees>41.08413870446383953094482421875</LatitudeDegrees>
              <LongitudeDegrees>-4.4098418019711971282958984375</LongitudeDegrees>
            </Position>
            <AltitudeMeters>886.79998779296875</AltitudeMeters>
            <DistanceMeters>148426.67151838</DistanceMeters>
          </Trackpoint>
          <Trackpoint>
            <Time>2019-08-02T13:21:41.000Z</Time>
            <Position>
              <LatitudeDegrees>41.08442268334329128265380859375</LatitudeDegrees>
              <LongitudeDegrees>-4.41015779972076416015625</LongitudeDegrees>
            </Position>
            <AltitudeMeters>887.79998779296875</AltitudeMeters>
            <DistanceMeters>148467.92449653</DistanceMeters>
          </Trackpoint>
          <Trackpoint>
            <Time>2019-08-02T13:21:48.000Z</Time>
            <Position>
              <LatitudeDegrees>41.084724850952625274658203125</LatitudeDegrees>
              <LongitudeDegrees>-4.41051310859620571136474609375</LongitudeDegrees>
            </Position>
            <AltitudeMeters>888.5999755859375</AltitudeMeters>
            <DistanceMeters>148512.86459797</DistanceMeters>
          </Trackpoint>
          <Trackpoint>
            <Time>2019-08-02T13:21:53.000Z</Time>
            <Position>
              <LatitudeDegrees>41.08492635190486907958984375</LatitudeDegrees>
              <LongitudeDegrees>-4.41078501753509044647216796875</LongitudeDegrees>
            </Position>
            <AltitudeMeters>889</AltitudeMeters>
            <DistanceMeters>148544.85418085</DistanceMeters>
          </Trackpoint>
          <Trackpoint>
            <Time>2019-08-02T13:22:02.000Z</Time>
            <Position>
              <LatitudeDegrees>41.08529708348214626312255859375</LatitudeDegrees>
              <LongitudeDegrees>-4.41116773523390293121337890625</LongitudeDegrees>
            </Position>
            <AltitudeMeters>890.20001220703125</AltitudeMeters>
            <DistanceMeters>148597.13701207</DistanceMeters>
          </Trackpoint>
          <Trackpoint>
            <Time>2019-08-02T13:22:13.000Z</Time>
            <Position>
              <LatitudeDegrees>41.08571751974523067474365234375</LatitudeDegrees>
              <LongitudeDegrees>-4.411662854254245758056640625</LongitudeDegrees>
            </Position>
            <AltitudeMeters>890.20001220703125</AltitudeMeters>
            <DistanceMeters>148659.70761174</DistanceMeters>
          </Trackpoint>
          <Trackpoint>
            <Time>2019-08-02T13:22:24.000Z</Time>
            <Position>
              <LatitudeDegrees>41.08612596988677978515625</LatitudeDegrees>
              <LongitudeDegrees>-4.41213282756507396697998046875</LongitudeDegrees>
            </Position>
            <AltitudeMeters>890.4000244140625</AltitudeMeters>
            <DistanceMeters>148719.88391168</DistanceMeters>
          </Trackpoint>
          <Trackpoint>
            <Time>2019-08-02T13:22:30.000Z</Time>
            <Position>
              <LatitudeDegrees>41.08634817413985729217529296875</LatitudeDegrees>
              <LongitudeDegrees>-4.41239316947758197784423828125</LongitudeDegrees>
            </Position>
            <AltitudeMeters>891.20001220703125</AltitudeMeters>
            <DistanceMeters>148752.87885093</DistanceMeters>
          </Trackpoint>
          <Trackpoint>
            <Time>2019-08-02T13:22:41.000Z</Time>
            <Position>
              <LatitudeDegrees>41.0867802612483501434326171875</LatitudeDegrees>
              <LongitudeDegrees>-4.41290178336203098297119140625</LongitudeDegrees>
            </Position>
            <AltitudeMeters>892.20001220703125</AltitudeMeters>
            <DistanceMeters>148817.17030504</DistanceMeters>
          </Trackpoint>
          <Trackpoint>
            <Time>2019-08-02T13:22:44.000Z</Time>
            <Position>
              <LatitudeDegrees>41.0868989489972591400146484375</LatitudeDegrees>
              <LongitudeDegrees>-4.41304343752562999725341796875</LongitudeDegrees>
            </Position>
            <AltitudeMeters>892.5999755859375</AltitudeMeters>
            <DistanceMeters>148834.93877607</DistanceMeters>
          </Trackpoint>
          <Trackpoint>
            <Time>2019-08-02T13:22:55.000Z</Time>
            <Position>
              <LatitudeDegrees>41.08733631670475006103515625</LatitudeDegrees>
              <LongitudeDegrees>-4.41351282410323619842529296875</LongitudeDegrees>
            </Position>
            <AltitudeMeters>892.4000244140625</AltitudeMeters>
            <DistanceMeters>148897.55070925</DistanceMeters>
          </Trackpoint>
          <Trackpoint>
            <Time>2019-08-02T13:23:01.000Z</Time>
            <Position>
              <LatitudeDegrees>41.08757914043962955474853515625</LatitudeDegrees>
              <LongitudeDegrees>-4.41371918655931949615478515625</LongitudeDegrees>
            </Position>
            <AltitudeMeters>891.5999755859375</AltitudeMeters>
            <DistanceMeters>148929.64639526</DistanceMeters>
          </Trackpoint>
          <Trackpoint>
            <Time>2019-08-02T13:23:13.000Z</Time>
            <Position>
              <LatitudeDegrees>41.08802497386932373046875</LatitudeDegrees>
              <LongitudeDegrees>-4.4141262955963611602783203125</LongitudeDegrees>
            </Position>
            <AltitudeMeters>891.5999755859375</AltitudeMeters>
            <DistanceMeters>148989.88516292</DistanceMeters>
          </Trackpoint>
          <Trackpoint>
            <Time>2019-08-02T13:23:24.000Z</Time>
            <Position>
              <LatitudeDegrees>41.08844406902790069580078125</LatitudeDegrees>
              <LongitudeDegrees>-4.4145923294126987457275390625</LongitudeDegrees>
            </Position>
            <AltitudeMeters>892</AltitudeMeters>
            <DistanceMeters>149050.74782618</DistanceMeters>
          </Trackpoint>
          <Trackpoint>
            <Time>2019-08-02T13:23:35.000Z</Time>
            <Position>
              <LatitudeDegrees>41.08887322247028350830078125</LatitudeDegrees>
              <LongitudeDegrees>-4.41502927802503108978271484375</LongitudeDegrees>
            </Position>
            <AltitudeMeters>892.79998779296875</AltitudeMeters>
            <DistanceMeters>149110.9567554</DistanceMeters>
          </Trackpoint>
          <Trackpoint>
            <Time>2019-08-02T13:23:36.000Z</Time>
            <Position>
              <LatitudeDegrees>41.08891286887228488922119140625</LatitudeDegrees>
              <LongitudeDegrees>-4.4150707684457302093505859375</LongitudeDegrees>
            </Position>
            <AltitudeMeters>892.79998779296875</AltitudeMeters>
            <DistanceMeters>149116.57700516</DistanceMeters>
          </Trackpoint>
          <Trackpoint>
            <Time>2019-08-02T13:23:48.000Z</Time>
            <Position>
              <LatitudeDegrees>41.08939466066658496856689453125</LatitudeDegrees>
              <LongitudeDegrees>-4.41556722857058048248291015625</LongitudeDegrees>
            </Position>
            <AltitudeMeters>893.79998779296875</AltitudeMeters>
            <DistanceMeters>149184.47410794</DistanceMeters>
          </Trackpoint>
          <Trackpoint>
            <Time>2019-08-02T13:23:59.000Z</Time>
            <Position>
              <LatitudeDegrees>41.08981065452098846435546875</LatitudeDegrees>
              <LongitudeDegrees>-4.41604591906070709228515625</LongitudeDegrees>
            </Position>
            <AltitudeMeters>894</AltitudeMeters>
            <DistanceMeters>149245.76243439</DistanceMeters>
          </Trackpoint>
          <Trackpoint>
            <Time>2019-08-02T13:24:02.000Z</Time>
            <Position>
              <LatitudeDegrees>41.0899119079113006591796875</LatitudeDegrees>
              <LongitudeDegrees>-4.41620173864066600799560546875</LongitudeDegrees>
            </Position>
            <AltitudeMeters>894</AltitudeMeters>
            <DistanceMeters>149263.02123219</DistanceMeters>
          </Trackpoint>
          <Trackpoint>
            <Time>2019-08-02T13:24:06.000Z</Time>
            <Position>
              <LatitudeDegrees>41.09006839804351329803466796875</LatitudeDegrees>
              <LongitudeDegrees>-4.4163937680423259735107421875</LongitudeDegrees>
            </Position>
            <AltitudeMeters>894</AltitudeMeters>
            <DistanceMeters>149286.74596032</DistanceMeters>
          </Trackpoint>
          <Trackpoint>
            <Time>2019-08-02T13:24:17.000Z</Time>
            <Position>
              <LatitudeDegrees>41.09053007327020168304443359375</LatitudeDegrees>
              <LongitudeDegrees>-4.41686525009572505950927734375</LongitudeDegrees>
            </Position>
            <AltitudeMeters>893.4000244140625</AltitudeMeters>
            <DistanceMeters>149351.58956105</DistanceMeters>
          </Trackpoint>
          <Trackpoint>
            <Time>2019-08-02T13:24:18.000Z</Time>
            <Position>
              <LatitudeDegrees>41.09057181514799594879150390625</LatitudeDegrees>
              <LongitudeDegrees>-4.4169070757925510406494140625</LongitudeDegrees>
            </Position>
            <AltitudeMeters>893.20001220703125</AltitudeMeters>
            <DistanceMeters>149357.41183783</DistanceMeters>
          </Trackpoint>
          <Trackpoint>
            <Time>2019-08-02T13:24:29.000Z</Time>
            <Position>
              <LatitudeDegrees>41.0910768248140811920166015625</LatitudeDegrees>
              <LongitudeDegrees>-4.4172668270766735076904296875</LongitudeDegrees>
            </Position>
            <AltitudeMeters>892.5999755859375</AltitudeMeters>
            <DistanceMeters>149421.20916744</DistanceMeters>
          </Trackpoint>
          <Trackpoint>
            <Time>2019-08-02T13:24:31.000Z</Time>
            <Position>
              <LatitudeDegrees>41.09115955419838428497314453125</LatitudeDegrees>
              <LongitudeDegrees>-4.41734704189002513885498046875</LongitudeDegrees>
            </Position>
            <AltitudeMeters>892.20001220703125</AltitudeMeters>
            <DistanceMeters>149432.61395684</DistanceMeters>
          </Trackpoint>
          <Trackpoint>
            <Time>2019-08-02T13:24:38.000Z</Time>
            <Position>
              <LatitudeDegrees>41.09143665991723537445068359375</LatitudeDegrees>
              <LongitudeDegrees>-4.4176393188536167144775390625</LongitudeDegrees>
            </Position>
            <AltitudeMeters>891.20001220703125</AltitudeMeters>
            <DistanceMeters>149472.01396244</DistanceMeters>
          </Trackpoint>
          <Trackpoint>
            <Time>2019-08-02T13:24:49.000Z</Time>
            <Position>
              <LatitudeDegrees>41.0918751172721385955810546875</LatitudeDegrees>
              <LongitudeDegrees>-4.418116919696331024169921875</LongitudeDegrees>
            </Position>
            <AltitudeMeters>890.5999755859375</AltitudeMeters>
            <DistanceMeters>149535.15347581</DistanceMeters>
          </Trackpoint>
          <Trackpoint>
            <Time>2019-08-02T13:24:51.000Z</Time>
            <Position>
              <LatitudeDegrees>41.0919508896768093109130859375</LatitudeDegrees>
              <LongitudeDegrees>-4.41819596104323863983154296875</LongitudeDegrees>
            </Position>
            <AltitudeMeters>890.4000244140625</AltitudeMeters>
            <DistanceMeters>149545.88097758</DistanceMeters>
          </Trackpoint>
          <Trackpoint>
            <Time>2019-08-02T13:25:02.000Z</Time>
            <Position>
              <LatitudeDegrees>41.09238498844206333160400390625</LatitudeDegrees>
              <LongitudeDegrees>-4.4186588935554027557373046875</LongitudeDegrees>
            </Position>
            <AltitudeMeters>890.79998779296875</AltitudeMeters>
            <DistanceMeters>149607.86797482</DistanceMeters>
          </Trackpoint>
          <Trackpoint>
            <Time>2019-08-02T13:25:13.000Z</Time>
            <Position>
              <LatitudeDegrees>41.0928376950323581695556640625</LatitudeDegrees>
              <LongitudeDegrees>-4.419106654822826385498046875</LongitudeDegrees>
            </Position>
            <AltitudeMeters>889.5999755859375</AltitudeMeters>
            <DistanceMeters>149670.71361775</DistanceMeters>
          </Trackpoint>
          <Trackpoint>
            <Time>2019-08-02T13:25:15.000Z</Time>
            <Position>
              <LatitudeDegrees>41.092919670045375823974609375</LatitudeDegrees>
              <LongitudeDegrees>-4.41919391043484210968017578125</LongitudeDegrees>
            </Position>
            <AltitudeMeters>889.5999755859375</AltitudeMeters>
            <DistanceMeters>149682.41078486</DistanceMeters>
          </Trackpoint>
          <Trackpoint>
            <Time>2019-08-02T13:25:21.000Z</Time>
            <Position>
              <LatitudeDegrees>41.0931612364947795867919921875</LatitudeDegrees>
              <LongitudeDegrees>-4.41945157013833522796630859375</LongitudeDegrees>
            </Position>
            <AltitudeMeters>888.4000244140625</AltitudeMeters>
            <DistanceMeters>149716.90744548</DistanceMeters>
          </Trackpoint>
          <Trackpoint>
            <Time>2019-08-02T13:25:26.000Z</Time>
            <Position>
              <LatitudeDegrees>41.0933546908199787139892578125</LatitudeDegrees>
              <LongitudeDegrees>-4.41965340636670589447021484375</LongitudeDegrees>
            </Position>
            <AltitudeMeters>887.20001220703125</AltitudeMeters>
            <DistanceMeters>149744.29806141</DistanceMeters>
          </Trackpoint>
          <Trackpoint>
            <Time>2019-08-02T13:25:31.000Z</Time>
            <Position>
              <LatitudeDegrees>41.0935457982122898101806640625</LatitudeDegrees>
              <LongitudeDegrees>-4.41986362449824810028076171875</LongitudeDegrees>
            </Position>
            <AltitudeMeters>886.20001220703125</AltitudeMeters>
            <DistanceMeters>149771.92715011</DistanceMeters>
          </Trackpoint>
          <Trackpoint>
            <Time>2019-08-02T13:25:35.000Z</Time>
            <Position>
              <LatitudeDegrees>41.0936939902603626251220703125</LatitudeDegrees>
              <LongitudeDegrees>-4.42002363502979278564453125</LongitudeDegrees>
            </Position>
            <AltitudeMeters>885.20001220703125</AltitudeMeters>
            <DistanceMeters>149793.19233688</DistanceMeters>
          </Trackpoint>
          <Trackpoint>
            <Time>2019-08-02T13:25:40.000Z</Time>
            <Position>
              <LatitudeDegrees>41.0938854329288005828857421875</LatitudeDegrees>
              <LongitudeDegrees>-4.4202048517763614654541015625</LongitudeDegrees>
            </Position>
            <AltitudeMeters>884.20001220703125</AltitudeMeters>
            <DistanceMeters>149819.36646169</DistanceMeters>
          </Trackpoint>
          <Trackpoint>
            <Time>2019-08-02T13:25:42.000Z</Time>
            <Position>
              <LatitudeDegrees>41.09396832995116710662841796875</LatitudeDegrees>
              <LongitudeDegrees>-4.4202662073075771331787109375</LongitudeDegrees>
            </Position>
            <AltitudeMeters>883.79998779296875</AltitudeMeters>
            <DistanceMeters>149829.93110767</DistanceMeters>
          </Trackpoint>
          <Trackpoint>
            <Time>2019-08-02T13:25:46.000Z</Time>
            <Position>
              <LatitudeDegrees>41.09413730911910533905029296875</LatitudeDegrees>
              <LongitudeDegrees>-4.4203597493469715118408203125</LongitudeDegrees>
            </Position>
            <AltitudeMeters>883</AltitudeMeters>
            <DistanceMeters>149850.30985189</DistanceMeters>
          </Trackpoint>
          <Trackpoint>
            <Time>2019-08-02T13:25:47.000Z</Time>
            <Position>
              <LatitudeDegrees>41.09417821280658245086669921875</LatitudeDegrees>
              <LongitudeDegrees>-4.420387744903564453125</LongitudeDegrees>
            </Position>
            <AltitudeMeters>882.5999755859375</AltitudeMeters>
            <DistanceMeters>149855.43248814</DistanceMeters>
          </Trackpoint>
          <Trackpoint>
            <Time>2019-08-02T13:25:51.000Z</Time>
            <Position>
              <LatitudeDegrees>41.094348616898059844970703125</LatitudeDegrees>
              <LongitudeDegrees>-4.4204703904688358306884765625</LongitudeDegrees>
            </Position>
            <AltitudeMeters>882.20001220703125</AltitudeMeters>
            <DistanceMeters>149875.62605622</DistanceMeters>
          </Trackpoint>
          <Trackpoint>
            <Time>2019-08-02T13:25:52.000Z</Time>
            <Position>
              <LatitudeDegrees>41.09439111314713954925537109375</LatitudeDegrees>
              <LongitudeDegrees>-4.42047215066850185394287109375</LongitudeDegrees>
            </Position>
            <AltitudeMeters>882.20001220703125</AltitudeMeters>
            <DistanceMeters>149880.35834843</DistanceMeters>
          </Trackpoint>
          <Trackpoint>
            <Time>2019-08-02T13:25:58.000Z</Time>
            <Position>
              <LatitudeDegrees>41.09458942897617816925048828125</LatitudeDegrees>
              <LongitudeDegrees>-4.4203300774097442626953125</LongitudeDegrees>
            </Position>
            <AltitudeMeters>881.79998779296875</AltitudeMeters>
            <DistanceMeters>149905.44288125</DistanceMeters>
          </Trackpoint>
          <Trackpoint>
            <Time>2019-08-02T13:26:09.000Z</Time>
            <Position>
              <LatitudeDegrees>41.0948926024138927459716796875</LatitudeDegrees>
              <LongitudeDegrees>-4.41993403248488903045654296875</LongitudeDegrees>
            </Position>
            <AltitudeMeters>883.4000244140625</AltitudeMeters>
            <DistanceMeters>149952.79498956</DistanceMeters>
          </Trackpoint>
          <Trackpoint>
            <Time>2019-08-02T13:26:13.000Z</Time>
            <Position>
              <LatitudeDegrees>41.09502461738884449005126953125</LatitudeDegrees>
              <LongitudeDegrees>-4.4198497943580150604248046875</LongitudeDegrees>
            </Position>
            <AltitudeMeters>884.5999755859375</AltitudeMeters>
            <DistanceMeters>149969.09920345</DistanceMeters>
          </Trackpoint>
          <Trackpoint>
            <Time>2019-08-02T13:26:14.000Z</Time>
            <Position>
              <LatitudeDegrees>41.09505596570670604705810546875</LatitudeDegrees>
              <LongitudeDegrees>-4.41985557787120342254638671875</LongitudeDegrees>
            </Position>
            <AltitudeMeters>884.79998779296875</AltitudeMeters>
            <DistanceMeters>149972.62160675</DistanceMeters>
          </Trackpoint>
          <Trackpoint>
            <Time>2019-08-02T13:26:22.000Z</Time>
            <Position>
              <LatitudeDegrees>41.09508521854877471923828125</LatitudeDegrees>
              <LongitudeDegrees>-4.42010334692895412445068359375</LongitudeDegrees>
            </Position>
            <AltitudeMeters>885.4000244140625</AltitudeMeters>
            <DistanceMeters>149993.65816912</DistanceMeters>
          </Trackpoint>
          <Trackpoint>
            <Time>2019-08-02T13:26:33.000Z</Time>
            <Position>
              <LatitudeDegrees>41.094738878309726715087890625</LatitudeDegrees>
              <LongitudeDegrees>-4.4207067601382732391357421875</LongitudeDegrees>
            </Position>
            <AltitudeMeters>885.20001220703125</AltitudeMeters>
            <DistanceMeters>150057.28023987</DistanceMeters>
          </Trackpoint>
          <Trackpoint>
            <Time>2019-08-02T13:26:38.000Z</Time>
            <Position>
              <LatitudeDegrees>41.0947843082249164581298828125</LatitudeDegrees>
              <LongitudeDegrees>-4.42103373818099498748779296875</LongitudeDegrees>
            </Position>
            <AltitudeMeters>885.79998779296875</AltitudeMeters>
            <DistanceMeters>150085.16940684</DistanceMeters>
          </Trackpoint>
          <Trackpoint>
            <Time>2019-08-02T13:26:39.000Z</Time>
            <Position>
              <LatitudeDegrees>41.09482043422758579254150390625</LatitudeDegrees>
              <LongitudeDegrees>-4.421080760657787322998046875</LongitudeDegrees>
            </Position>
            <AltitudeMeters>886</AltitudeMeters>
            <DistanceMeters>150090.80249557</DistanceMeters>
          </Trackpoint>
          <Trackpoint>
            <Time>2019-08-02T13:26:51.000Z</Time>
            <Position>
              <LatitudeDegrees>41.095252521336078643798828125</LatitudeDegrees>
              <LongitudeDegrees>-4.421519301831722259521484375</LongitudeDegrees>
            </Position>
            <AltitudeMeters>885</AltitudeMeters>
            <DistanceMeters>150151.34972692</DistanceMeters>
          </Trackpoint>
          <Trackpoint>
            <Time>2019-08-02T13:26:53.000Z</Time>
            <Position>
              <LatitudeDegrees>41.09532150439918041229248046875</LatitudeDegrees>
              <LongitudeDegrees>-4.42159180529415607452392578125</LongitudeDegrees>
            </Position>
            <AltitudeMeters>884.79998779296875</AltitudeMeters>
            <DistanceMeters>150161.14485644</DistanceMeters>
          </Trackpoint>
          <Trackpoint>
            <Time>2019-08-02T13:26:57.000Z</Time>
            <Position>
              <LatitudeDegrees>41.09546466730535030364990234375</LatitudeDegrees>
              <LongitudeDegrees>-4.42173278890550136566162109375</LongitudeDegrees>
            </Position>
            <AltitudeMeters>883.79998779296875</AltitudeMeters>
            <DistanceMeters>150180.9879271</DistanceMeters>
          </Trackpoint>
          <Trackpoint>
            <Time>2019-08-02T13:27:02.000Z</Time>
            <Position>
              <LatitudeDegrees>41.09564772807061672210693359375</LatitudeDegrees>
              <LongitudeDegrees>-4.4219093956053256988525390625</LongitudeDegrees>
            </Position>
            <AltitudeMeters>882.5999755859375</AltitudeMeters>
            <DistanceMeters>150206.17879036</DistanceMeters>
          </Trackpoint>
          <Trackpoint>
            <Time>2019-08-02T13:27:14.000Z</Time>
            <Position>
              <LatitudeDegrees>41.0961078107357025146484375</LatitudeDegrees>
              <LongitudeDegrees>-4.4223712384700775146484375</LongitudeDegrees>
            </Position>
            <AltitudeMeters>882.20001220703125</AltitudeMeters>
            <DistanceMeters>150270.38900998</DistanceMeters>
          </Trackpoint>
          <Trackpoint>
            <Time>2019-08-02T13:27:24.000Z</Time>
            <Position>
              <LatitudeDegrees>41.09651575796306133270263671875</LatitudeDegrees>
              <LongitudeDegrees>-4.42271330393850803375244140625</LongitudeDegrees>
            </Position>
            <AltitudeMeters>881.79998779296875</AltitudeMeters>
            <DistanceMeters>150324.09978684</DistanceMeters>
          </Trackpoint>
          <Trackpoint>
            <Time>2019-08-02T13:27:34.000Z</Time>
            <Position>
              <LatitudeDegrees>41.0968774370849132537841796875</LatitudeDegrees>
              <LongitudeDegrees>-4.4229598157107830047607421875</LongitudeDegrees>
            </Position>
            <AltitudeMeters>881</AltitudeMeters>
            <DistanceMeters>150369.35505612</DistanceMeters>
          </Trackpoint>
          <Trackpoint>
            <Time>2019-08-02T13:27:38.000Z</Time>
            <Position>
              <LatitudeDegrees>41.09697039239108562469482421875</LatitudeDegrees>
              <LongitudeDegrees>-4.42317279987037181854248046875</LongitudeDegrees>
            </Position>
            <AltitudeMeters>880.79998779296875</AltitudeMeters>
            <DistanceMeters>150389.99926809</DistanceMeters>
          </Trackpoint>
          <Trackpoint>
            <Time>2019-08-02T13:27:45.000Z</Time>
            <Position>
              <LatitudeDegrees>41.09723542816936969757080078125</LatitudeDegrees>
              <LongitudeDegrees>-4.4236062280833721160888671875</LongitudeDegrees>
            </Position>
            <AltitudeMeters>880.20001220703125</AltitudeMeters>
            <DistanceMeters>150436.81649137</DistanceMeters>
          </Trackpoint>
          <Trackpoint>
            <Time>2019-08-02T13:27:47.000Z</Time>
            <Position>
              <LatitudeDegrees>41.09734757803380489349365234375</LatitudeDegrees>
              <LongitudeDegrees>-4.42371007986366748809814453125</LongitudeDegrees>
            </Position>
            <AltitudeMeters>879.79998779296875</AltitudeMeters>
            <DistanceMeters>150452.03797951</DistanceMeters>
          </Trackpoint>
          <Trackpoint>
            <Time>2019-08-02T13:27:53.000Z</Time>
            <Position>
              <LatitudeDegrees>41.0976509191095829010009765625</LatitudeDegrees>
              <LongitudeDegrees>-4.4240414164960384368896484375</LongitudeDegrees>
            </Position>
            <AltitudeMeters>878.5999755859375</AltitudeMeters>
            <DistanceMeters>150495.76741089</DistanceMeters>
          </Trackpoint>
          <Trackpoint>
            <Time>2019-08-02T13:27:59.000Z</Time>
            <Position>
              <LatitudeDegrees>41.097951829433441162109375</LatitudeDegrees>
              <LongitudeDegrees>-4.4243495352566242218017578125</LongitudeDegrees>
            </Position>
            <AltitudeMeters>878</AltitudeMeters>
            <DistanceMeters>150538.07127206</DistanceMeters>
          </Trackpoint>
          <Trackpoint>
            <Time>2019-08-02T13:28:03.000Z</Time>
            <Position>
              <LatitudeDegrees>41.09811007976531982421875</LatitudeDegrees>
              <LongitudeDegrees>-4.424571655690670013427734375</LongitudeDegrees>
            </Position>
            <AltitudeMeters>877.5999755859375</AltitudeMeters>
            <DistanceMeters>150563.71017697</DistanceMeters>
          </Trackpoint>
          <Trackpoint>
            <Time>2019-08-02T13:28:11.000Z</Time>
            <Position>
              <LatitudeDegrees>41.0984515585005283355712890625</LatitudeDegrees>
              <LongitudeDegrees>-4.42485940642654895782470703125</LongitudeDegrees>
            </Position>
            <AltitudeMeters>876.79998779296875</AltitudeMeters>
            <DistanceMeters>150608.73298785</DistanceMeters>
          </Trackpoint>
          <Trackpoint>
            <Time>2019-08-02T13:28:21.000Z</Time>
            <Position>
              <LatitudeDegrees>41.09887559898197650909423828125</LatitudeDegrees>
              <LongitudeDegrees>-4.425201304256916046142578125</LongitudeDegrees>
            </Position>
            <AltitudeMeters>875.4000244140625</AltitudeMeters>
            <DistanceMeters>150663.95863587</DistanceMeters>
          </Trackpoint>
          <Trackpoint>
            <Time>2019-08-02T13:28:29.000Z</Time>
            <Position>
              <LatitudeDegrees>41.099212802946567535400390625</LatitudeDegrees>
              <LongitudeDegrees>-4.42548519931733608245849609375</LongitudeDegrees>
            </Position>
            <AltitudeMeters>874.20001220703125</AltitudeMeters>
            <DistanceMeters>150708.40635937</DistanceMeters>
          </Trackpoint>
          <Trackpoint>
            <Time>2019-08-02T13:28:35.000Z</Time>
            <Position>
              <LatitudeDegrees>41.09947264194488525390625</LatitudeDegrees>
              <LongitudeDegrees>-4.42570011131465435028076171875</LongitudeDegrees>
            </Position>
            <AltitudeMeters>873.20001220703125</AltitudeMeters>
            <DistanceMeters>150742.48440187</DistanceMeters>
          </Trackpoint>
          <Trackpoint>
            <Time>2019-08-02T13:28:40.000Z</Time>
            <Position>
              <LatitudeDegrees>41.09967841766774654388427734375</LatitudeDegrees>
              <LongitudeDegrees>-4.4258730299770832061767578125</LongitudeDegrees>
            </Position>
            <AltitudeMeters>871.79998779296875</AltitudeMeters>
            <DistanceMeters>150769.59350996</DistanceMeters>
          </Trackpoint>
          <Trackpoint>
            <Time>2019-08-02T13:28:46.000Z</Time>
            <Position>
              <LatitudeDegrees>41.09991663135588169097900390625</LatitudeDegrees>
              <LongitudeDegrees>-4.426081068813800811767578125</LongitudeDegrees>
            </Position>
            <AltitudeMeters>870.79998779296875</AltitudeMeters>
            <DistanceMeters>150801.33371283</DistanceMeters>
          </Trackpoint>
          <Trackpoint>
            <Time>2019-08-02T13:28:51.000Z</Time>
            <Position>
              <LatitudeDegrees>41.10008225776255130767822265625</LatitudeDegrees>
              <LongitudeDegrees>-4.426283575594425201416015625</LongitudeDegrees>
            </Position>
            <AltitudeMeters>869.5999755859375</AltitudeMeters>
            <DistanceMeters>150826.39987965</DistanceMeters>
          </Trackpoint>
          <Trackpoint>
            <Time>2019-08-02T13:28:57.000Z</Time>
            <Position>
              <LatitudeDegrees>41.1002472974359989166259765625</LatitudeDegrees>
              <LongitudeDegrees>-4.42656009458005428314208984375</LongitudeDegrees>
            </Position>
            <AltitudeMeters>869</AltitudeMeters>
            <DistanceMeters>150855.98555862</DistanceMeters>
          </Trackpoint>
          <Trackpoint>
            <Time>2019-08-02T13:29:00.000Z</Time>
            <Position>
              <LatitudeDegrees>41.10034880228340625762939453125</LatitudeDegrees>
              <LongitudeDegrees>-4.426682889461517333984375</LongitudeDegrees>
            </Position>
            <AltitudeMeters>868.79998779296875</AltitudeMeters>
            <DistanceMeters>150871.27334585</DistanceMeters>
          </Trackpoint>
          <Trackpoint>
            <Time>2019-08-02T13:29:03.000Z</Time>
            <Position>
              <LatitudeDegrees>41.10045709647238254547119140625</LatitudeDegrees>
              <LongitudeDegrees>-4.42678841762244701385498046875</LongitudeDegrees>
            </Position>
            <AltitudeMeters>869</AltitudeMeters>
            <DistanceMeters>150886.22730229</DistanceMeters>
          </Trackpoint>
          <Trackpoint>
            <Time>2019-08-02T13:29:06.000Z</Time>
            <Position>
              <LatitudeDegrees>41.10051476396620273590087890625</LatitudeDegrees>
              <LongitudeDegrees>-4.42687123082578182220458984375</LongitudeDegrees>
            </Position>
            <AltitudeMeters>868.4000244140625</AltitudeMeters>
            <DistanceMeters>150895.6842509</DistanceMeters>
          </Trackpoint>
          <Trackpoint>
            <Time>2019-08-02T13:29:12.000Z</Time>
            <Position>
              <LatitudeDegrees>41.1005352996289730072021484375</LatitudeDegrees>
              <LongitudeDegrees>-4.42711464129388332366943359375</LongitudeDegrees>
            </Position>
            <AltitudeMeters>869.5999755859375</AltitudeMeters>
            <DistanceMeters>150916.22739143</DistanceMeters>
          </Trackpoint>
          <Trackpoint>
            <Time>2019-08-02T13:29:15.000Z</Time>
            <Position>
              <LatitudeDegrees>41.10052214004099369049072265625</LatitudeDegrees>
              <LongitudeDegrees>-4.427229724824428558349609375</LongitudeDegrees>
            </Position>
            <AltitudeMeters>870.5999755859375</AltitudeMeters>
            <DistanceMeters>150925.98973883</DistanceMeters>
          </Trackpoint>
          <Trackpoint>
            <Time>2019-08-02T13:29:21.000Z</Time>
            <Position>
              <LatitudeDegrees>41.100653149187564849853515625</LatitudeDegrees>
              <LongitudeDegrees>-4.4274243526160717010498046875</LongitudeDegrees>
            </Position>
            <AltitudeMeters>870</AltitudeMeters>
            <DistanceMeters>150947.87808586</DistanceMeters>
          </Trackpoint>
          <Trackpoint>
            <Time>2019-08-02T13:29:23.000Z</Time>
            <Position>
              <LatitudeDegrees>41.1007267422974109649658203125</LatitudeDegrees>
              <LongitudeDegrees>-4.427476823329925537109375</LongitudeDegrees>
            </Position>
            <AltitudeMeters>869.4000244140625</AltitudeMeters>
            <DistanceMeters>150957.17711872</DistanceMeters>
          </Trackpoint>
          <Trackpoint>
            <Time>2019-08-02T13:29:33.000Z</Time>
            <Position>
              <LatitudeDegrees>41.10109026543796062469482421875</LatitudeDegrees>
              <LongitudeDegrees>-4.42776122130453586578369140625</LongitudeDegrees>
            </Position>
            <AltitudeMeters>868.4000244140625</AltitudeMeters>
            <DistanceMeters>151004.14570051</DistanceMeters>
          </Trackpoint>
          <Trackpoint>
            <Time>2019-08-02T13:29:36.000Z</Time>
            <Position>
              <LatitudeDegrees>41.1012041755020618438720703125</LatitudeDegrees>
              <LongitudeDegrees>-4.4278411008417606353759765625</LongitudeDegrees>
            </Position>
            <AltitudeMeters>867.79998779296875</AltitudeMeters>
            <DistanceMeters>151018.48560639</DistanceMeters>
          </Trackpoint>
          <Trackpoint>
            <Time>2019-08-02T13:29:39.000Z</Time>
            <Position>
              <LatitudeDegrees>41.101280786097049713134765625</LatitudeDegrees>
              <LongitudeDegrees>-4.42789549939334392547607421875</LongitudeDegrees>
            </Position>
            <AltitudeMeters>867.5999755859375</AltitudeMeters>
            <DistanceMeters>151028.15641306</DistanceMeters>
          </Trackpoint>
          <Trackpoint>
            <Time>2019-08-02T13:29:41.000Z</Time>
            <Position>
              <LatitudeDegrees>41.1013932712376117706298828125</LatitudeDegrees>
              <LongitudeDegrees>-4.427990801632404327392578125</LongitudeDegrees>
            </Position>
            <AltitudeMeters>867.4000244140625</AltitudeMeters>
            <DistanceMeters>151043.01039865</DistanceMeters>
          </Trackpoint>
          <Trackpoint>
            <Time>2019-08-02T13:29:47.000Z</Time>
            <Position>
              <LatitudeDegrees>41.1016078479588031768798828125</LatitudeDegrees>
              <LongitudeDegrees>-4.4281800650060176849365234375</LongitudeDegrees>
            </Position>
            <AltitudeMeters>866.4000244140625</AltitudeMeters>
            <DistanceMeters>151071.68737656</DistanceMeters>
          </Trackpoint>
          <Trackpoint>
            <Time>2019-08-02T13:30:02.000Z</Time>
            <Position>
              <LatitudeDegrees>41.10205200500786304473876953125</LatitudeDegrees>
              <LongitudeDegrees>-4.42863109521567821502685546875</LongitudeDegrees>
            </Position>
            <AltitudeMeters>866.4000244140625</AltitudeMeters>
            <DistanceMeters>151133.93560482</DistanceMeters>
          </Trackpoint>
          <Trackpoint>
            <Time>2019-08-02T13:30:15.000Z</Time>
            <Position>
              <LatitudeDegrees>41.10251418314874172210693359375</LatitudeDegrees>
              <LongitudeDegrees>-4.42909888923168182373046875</LongitudeDegrees>
            </Position>
            <AltitudeMeters>867.20001220703125</AltitudeMeters>
            <DistanceMeters>151198.63107331</DistanceMeters>
          </Trackpoint>
          <Trackpoint>
            <Time>2019-08-02T13:30:17.000Z</Time>
            <Position>
              <LatitudeDegrees>41.10262398608028888702392578125</LatitudeDegrees>
              <LongitudeDegrees>-4.42920525558292865753173828125</LongitudeDegrees>
            </Position>
            <AltitudeMeters>867.4000244140625</AltitudeMeters>
            <DistanceMeters>151213.76182108</DistanceMeters>
          </Trackpoint>
          <Trackpoint>
            <Time>2019-08-02T13:30:24.000Z</Time>
            <Position>
              <LatitudeDegrees>41.10287996940314769744873046875</LatitudeDegrees>
              <LongitudeDegrees>-4.42946559749543666839599609375</LongitudeDegrees>
            </Position>
            <AltitudeMeters>868.4000244140625</AltitudeMeters>
            <DistanceMeters>151249.65790301</DistanceMeters>
          </Trackpoint>
          <Trackpoint>
            <Time>2019-08-02T13:30:36.000Z</Time>
            <Position>
              <LatitudeDegrees>41.1033247970044612884521484375</LatitudeDegrees>
              <LongitudeDegrees>-4.4299201481044292449951171875</LongitudeDegrees>
            </Position>
            <AltitudeMeters>869.4000244140625</AltitudeMeters>
            <DistanceMeters>151312.14474206</DistanceMeters>
          </Trackpoint>
          <Trackpoint>
            <Time>2019-08-02T13:30:47.000Z</Time>
            <Position>
              <LatitudeDegrees>41.1037381924688816070556640625</LatitudeDegrees>
              <LongitudeDegrees>-4.43034787662327289581298828125</LongitudeDegrees>
            </Position>
            <AltitudeMeters>869.4000244140625</AltitudeMeters>
            <DistanceMeters>151370.48820404</DistanceMeters>
          </Trackpoint>
          <Trackpoint>
            <Time>2019-08-02T13:30:58.000Z</Time>
            <Position>
              <LatitudeDegrees>41.1041683517396450042724609375</LatitudeDegrees>
              <LongitudeDegrees>-4.430787004530429840087890625</LongitudeDegrees>
            </Position>
            <AltitudeMeters>869</AltitudeMeters>
            <DistanceMeters>151430.89216507</DistanceMeters>
          </Trackpoint>
          <Trackpoint>
            <Time>2019-08-02T13:31:10.000Z</Time>
            <Position>
              <LatitudeDegrees>41.10462541691958904266357421875</LatitudeDegrees>
              <LongitudeDegrees>-4.4312552176415920257568359375</LongitudeDegrees>
            </Position>
            <AltitudeMeters>869.4000244140625</AltitudeMeters>
            <DistanceMeters>151495.15678661</DistanceMeters>
          </Trackpoint>
          <Trackpoint>
            <Time>2019-08-02T13:31:22.000Z</Time>
            <Position>
              <LatitudeDegrees>41.10508675687015056610107421875</LatitudeDegrees>
              <LongitudeDegrees>-4.43172116763889789581298828125</LongitudeDegrees>
            </Position>
            <AltitudeMeters>868.5999755859375</AltitudeMeters>
            <DistanceMeters>151559.68349432</DistanceMeters>
          </Trackpoint>
          <Trackpoint>
            <Time>2019-08-02T13:31:24.000Z</Time>
            <Position>
              <LatitudeDegrees>41.10516420565545558929443359375</LatitudeDegrees>
              <LongitudeDegrees>-4.43179844878613948822021484375</LongitudeDegrees>
            </Position>
            <AltitudeMeters>868.4000244140625</AltitudeMeters>
            <DistanceMeters>151570.46808446</DistanceMeters>
          </Trackpoint>
          <Trackpoint>
            <Time>2019-08-02T13:31:31.000Z</Time>
            <Position>
              <LatitudeDegrees>41.1054365336894989013671875</LatitudeDegrees>
              <LongitudeDegrees>-4.43207236938178539276123046875</LongitudeDegrees>
            </Position>
            <AltitudeMeters>867.20001220703125</AltitudeMeters>
            <DistanceMeters>151608.50073879</DistanceMeters>
          </Trackpoint>
          <Trackpoint>
            <Time>2019-08-02T13:31:43.000Z</Time>
            <Position>
              <LatitudeDegrees>41.10589108429849147796630859375</LatitudeDegrees>
              <LongitudeDegrees>-4.43253873847424983978271484375</LongitudeDegrees>
            </Position>
            <AltitudeMeters>866.5999755859375</AltitudeMeters>
            <DistanceMeters>151672.44884602</DistanceMeters>
          </Trackpoint>
          <Trackpoint>
            <Time>2019-08-02T13:31:55.000Z</Time>
            <Position>
              <LatitudeDegrees>41.10633096657693386077880859375</LatitudeDegrees>
              <LongitudeDegrees>-4.43298364989459514617919921875</LongitudeDegrees>
            </Position>
            <AltitudeMeters>866.5999755859375</AltitudeMeters>
            <DistanceMeters>151734.00606313</DistanceMeters>
          </Trackpoint>
          <Trackpoint>
            <Time>2019-08-02T13:32:07.000Z</Time>
            <Position>
              <LatitudeDegrees>41.10676581971347332000732421875</LatitudeDegrees>
              <LongitudeDegrees>-4.43342822603881359100341796875</LongitudeDegrees>
            </Position>
            <AltitudeMeters>867</AltitudeMeters>
            <DistanceMeters>151795.10181142</DistanceMeters>
          </Trackpoint>
          <Trackpoint>
            <Time>2019-08-02T13:32:19.000Z</Time>
            <Position>
              <LatitudeDegrees>41.10720385797321796417236328125</LatitudeDegrees>
              <LongitudeDegrees>-4.43387514911592006683349609375</LongitudeDegrees>
            </Position>
            <AltitudeMeters>867.20001220703125</AltitudeMeters>
            <DistanceMeters>151856.59841405</DistanceMeters>
          </Trackpoint>
          <Trackpoint>
            <Time>2019-08-02T13:32:28.000Z</Time>
            <Position>
              <LatitudeDegrees>41.10752991400659084320068359375</LatitudeDegrees>
              <LongitudeDegrees>-4.43420791067183017730712890625</LongitudeDegrees>
            </Position>
            <AltitudeMeters>868.4000244140625</AltitudeMeters>
            <DistanceMeters>151902.37821792</DistanceMeters>
          </Trackpoint>
          <Trackpoint>
            <Time>2019-08-02T13:32:40.000Z</Time>
            <Position>
              <LatitudeDegrees>41.10795990563929080963134765625</LatitudeDegrees>
              <LongitudeDegrees>-4.4346477091312408447265625</LongitudeDegrees>
            </Position>
            <AltitudeMeters>869.20001220703125</AltitudeMeters>
            <DistanceMeters>151962.80033983</DistanceMeters>
          </Trackpoint>
          <Trackpoint>
            <Time>2019-08-02T13:32:41.000Z</Time>
            <Position>
              <LatitudeDegrees>41.1079953610897064208984375</LatitudeDegrees>
              <LongitudeDegrees>-4.434683583676815032958984375</LongitudeDegrees>
            </Position>
            <AltitudeMeters>869.4000244140625</AltitudeMeters>
            <DistanceMeters>151967.76360977</DistanceMeters>
          </Trackpoint>
          <Trackpoint>
            <Time>2019-08-02T13:32:48.000Z</Time>
            <Position>
              <LatitudeDegrees>41.1082416214048862457275390625</LatitudeDegrees>
              <LongitudeDegrees>-4.43493814207613468170166015625</LongitudeDegrees>
            </Position>
            <AltitudeMeters>870.4000244140625</AltitudeMeters>
            <DistanceMeters>152002.50545972</DistanceMeters>
          </Trackpoint>
          <Trackpoint>
            <Time>2019-08-02T13:32:58.000Z</Time>
            <Position>
              <LatitudeDegrees>41.1086053960025310516357421875</LatitudeDegrees>
              <LongitudeDegrees>-4.43530820310115814208984375</LongitudeDegrees>
            </Position>
            <AltitudeMeters>871.5999755859375</AltitudeMeters>
            <DistanceMeters>152053.51985015</DistanceMeters>
          </Trackpoint>
          <Trackpoint>
            <Time>2019-08-02T13:33:05.000Z</Time>
            <Position>
              <LatitudeDegrees>41.10887453891336917877197265625</LatitudeDegrees>
              <LongitudeDegrees>-4.43557851947844028472900390625</LongitudeDegrees>
            </Position>
            <AltitudeMeters>872.5999755859375</AltitudeMeters>
            <DistanceMeters>152091.08654374</DistanceMeters>
          </Trackpoint>
          <Trackpoint>
            <Time>2019-08-02T13:33:17.000Z</Time>
            <Position>
              <LatitudeDegrees>41.10931810922920703887939453125</LatitudeDegrees>
              <LongitudeDegrees>-4.43602862767875194549560546875</LongitudeDegrees>
            </Position>
            <AltitudeMeters>873.20001220703125</AltitudeMeters>
            <DistanceMeters>152153.23343373</DistanceMeters>
          </Trackpoint>
          <Trackpoint>
            <Time>2019-08-02T13:33:21.000Z</Time>
            <Position>
              <LatitudeDegrees>41.10946261323988437652587890625</LatitudeDegrees>
              <LongitudeDegrees>-4.43617547862231731414794921875</LongitudeDegrees>
            </Position>
            <AltitudeMeters>873.79998779296875</AltitudeMeters>
            <DistanceMeters>152173.49040126</DistanceMeters>
          </Trackpoint>
          <Trackpoint>
            <Time>2019-08-02T13:33:33.000Z</Time>
            <Position>
              <LatitudeDegrees>41.1099116317927837371826171875</LatitudeDegrees>
              <LongitudeDegrees>-4.43663748912513256072998046875</LongitudeDegrees>
            </Position>
            <AltitudeMeters>873.5999755859375</AltitudeMeters>
            <DistanceMeters>152236.72652078</DistanceMeters>
          </Trackpoint>
          <Trackpoint>
            <Time>2019-08-02T13:33:39.000Z</Time>
            <Position>
              <LatitudeDegrees>41.1101496778428554534912109375</LatitudeDegrees>
              <LongitudeDegrees>-4.43687905557453632354736328125</LongitudeDegrees>
            </Position>
            <AltitudeMeters>872.79998779296875</AltitudeMeters>
            <DistanceMeters>152270.07859623</DistanceMeters>
          </Trackpoint>
          <Trackpoint>
            <Time>2019-08-02T13:33:44.000Z</Time>
            <Position>
              <LatitudeDegrees>41.11035495065152645111083984375</LatitudeDegrees>
              <LongitudeDegrees>-4.4370873458683490753173828125</LongitudeDegrees>
            </Position>
            <AltitudeMeters>871.5999755859375</AltitudeMeters>
            <DistanceMeters>152298.83795683</DistanceMeters>
          </Trackpoint>
          <Trackpoint>
            <Time>2019-08-02T13:33:49.000Z</Time>
            <Position>
              <LatitudeDegrees>41.1105580441653728485107421875</LatitudeDegrees>
              <LongitudeDegrees>-4.437293708324432373046875</LongitudeDegrees>
            </Position>
            <AltitudeMeters>870.4000244140625</AltitudeMeters>
            <DistanceMeters>152327.30634914</DistanceMeters>
          </Trackpoint>
          <Trackpoint>
            <Time>2019-08-02T13:33:53.000Z</Time>
            <Position>
              <LatitudeDegrees>41.11072140745818614959716796875</LatitudeDegrees>
              <LongitudeDegrees>-4.43746025674045085906982421875</LongitudeDegrees>
            </Position>
            <AltitudeMeters>869.4000244140625</AltitudeMeters>
            <DistanceMeters>152350.23399337</DistanceMeters>
          </Trackpoint>
          <Trackpoint>
            <Time>2019-08-02T13:34:03.000Z</Time>
            <Position>
              <LatitudeDegrees>41.11113295890390872955322265625</LatitudeDegrees>
              <LongitudeDegrees>-4.4378744065761566162109375</LongitudeDegrees>
            </Position>
            <AltitudeMeters>868.4000244140625</AltitudeMeters>
            <DistanceMeters>152407.71816557</DistanceMeters>
          </Trackpoint>
          <Trackpoint>
            <Time>2019-08-02T13:34:05.000Z</Time>
            <Position>
              <LatitudeDegrees>41.11121208406984806060791015625</LatitudeDegrees>
              <LongitudeDegrees>-4.43795763887465000152587890625</LongitudeDegrees>
            </Position>
            <AltitudeMeters>868.4000244140625</AltitudeMeters>
            <DistanceMeters>152418.95545123</DistanceMeters>
          </Trackpoint>
          <Trackpoint>
            <Time>2019-08-02T13:34:16.000Z</Time>
            <Position>
              <LatitudeDegrees>41.11165984533727169036865234375</LatitudeDegrees>
              <LongitudeDegrees>-4.4384123571217060089111328125</LongitudeDegrees>
            </Position>
            <AltitudeMeters>867.79998779296875</AltitudeMeters>
            <DistanceMeters>152481.70705277</DistanceMeters>
          </Trackpoint>
          <Trackpoint>
            <Time>2019-08-02T13:34:27.000Z</Time>
            <Position>
              <LatitudeDegrees>41.11210408620536327362060546875</LatitudeDegrees>
              <LongitudeDegrees>-4.4388653151690959930419921875</LongitudeDegrees>
            </Position>
            <AltitudeMeters>867.4000244140625</AltitudeMeters>
            <DistanceMeters>152544.05768565</DistanceMeters>
          </Trackpoint>
          <Trackpoint>
            <Time>2019-08-02T13:34:29.000Z</Time>
            <Position>
              <LatitudeDegrees>41.11218295991420745849609375</LatitudeDegrees>
              <LongitudeDegrees>-4.4389444403350353240966796875</LongitudeDegrees>
            </Position>
            <AltitudeMeters>867.20001220703125</AltitudeMeters>
            <DistanceMeters>152555.06233717</DistanceMeters>
          </Trackpoint>
          <Trackpoint>
            <Time>2019-08-02T13:34:41.000Z</Time>
            <Position>
              <LatitudeDegrees>41.11264354549348354339599609375</LatitudeDegrees>
              <LongitudeDegrees>-4.43940938450396060943603515625</LongitudeDegrees>
            </Position>
            <AltitudeMeters>867</AltitudeMeters>
            <DistanceMeters>152619.46830084</DistanceMeters>
          </Trackpoint>
          <Trackpoint>
            <Time>2019-08-02T13:34:49.000Z</Time>
            <Position>
              <LatitudeDegrees>41.11295820213854312896728515625</LatitudeDegrees>
              <LongitudeDegrees>-4.4397256337106227874755859375</LongitudeDegrees>
            </Position>
            <AltitudeMeters>866.20001220703125</AltitudeMeters>
            <DistanceMeters>152663.39809331</DistanceMeters>
          </Trackpoint>
          <Trackpoint>
            <Time>2019-08-02T13:34:55.000Z</Time>
            <Position>
              <LatitudeDegrees>41.11320747993886470794677734375</LatitudeDegrees>
              <LongitudeDegrees>-4.4399807788431644439697265625</LongitudeDegrees>
            </Position>
            <AltitudeMeters>865</AltitudeMeters>
            <DistanceMeters>152698.43474058</DistanceMeters>
          </Trackpoint>
          <Trackpoint>
            <Time>2019-08-02T13:35:05.000Z</Time>
            <Position>
              <LatitudeDegrees>41.11359891481697559356689453125</LatitudeDegrees>
              <LongitudeDegrees>-4.44038151763379573822021484375</LongitudeDegrees>
            </Position>
            <AltitudeMeters>864</AltitudeMeters>
            <DistanceMeters>152753.45627499</DistanceMeters>
          </Trackpoint>
          <Trackpoint>
            <Time>2019-08-02T13:35:17.000Z</Time>
            <Position>
              <LatitudeDegrees>41.11405589617788791656494140625</LatitudeDegrees>
              <LongitudeDegrees>-4.44084503687918186187744140625</LongitudeDegrees>
            </Position>
            <AltitudeMeters>863.4000244140625</AltitudeMeters>
            <DistanceMeters>152817.47043412</DistanceMeters>
          </Trackpoint>
          <Trackpoint>
            <Time>2019-08-02T13:35:25.000Z</Time>
            <Position>
              <LatitudeDegrees>41.11436518840491771697998046875</LatitudeDegrees>
              <LongitudeDegrees>-4.44115701131522655487060546875</LongitudeDegrees>
            </Position>
            <AltitudeMeters>863</AltitudeMeters>
            <DistanceMeters>152860.70748474</DistanceMeters>
          </Trackpoint>
          <Trackpoint>
            <Time>2019-08-02T13:35:36.000Z</Time>
            <Position>
              <LatitudeDegrees>41.114796437323093414306640625</LatitudeDegrees>
              <LongitudeDegrees>-4.441596977412700653076171875</LongitudeDegrees>
            </Position>
            <AltitudeMeters>861.79998779296875</AltitudeMeters>
            <DistanceMeters>152921.24673652</DistanceMeters>
          </Trackpoint>
          <Trackpoint>
            <Time>2019-08-02T13:35:47.000Z</Time>
            <Position>
              <LatitudeDegrees>41.11522215418517589569091796875</LatitudeDegrees>
              <LongitudeDegrees>-4.44203250110149383544921875</LongitudeDegrees>
            </Position>
            <AltitudeMeters>860.79998779296875</AltitudeMeters>
            <DistanceMeters>152981.07063832</DistanceMeters>
          </Trackpoint>
          <Trackpoint>
            <Time>2019-08-02T13:35:59.000Z</Time>
            <Position>
              <LatitudeDegrees>41.11567812971770763397216796875</LatitudeDegrees>
              <LongitudeDegrees>-4.44250280968844890594482421875</LongitudeDegrees>
            </Position>
            <AltitudeMeters>860</AltitudeMeters>
            <DistanceMeters>153045.34298767</DistanceMeters>
          </Trackpoint>
          <Trackpoint>
            <Time>2019-08-02T13:36:11.000Z</Time>
            <Position>
              <LatitudeDegrees>41.1161306686699390411376953125</LatitudeDegrees>
              <LongitudeDegrees>-4.44295710884034633636474609375</LongitudeDegrees>
            </Position>
            <AltitudeMeters>860</AltitudeMeters>
            <DistanceMeters>153108.49479937</DistanceMeters>
          </Trackpoint>
          <Trackpoint>
            <Time>2019-08-02T13:36:23.000Z</Time>
            <Position>
              <LatitudeDegrees>41.11657298170030117034912109375</LatitudeDegrees>
              <LongitudeDegrees>-4.4434083066880702972412109375</LongitudeDegrees>
            </Position>
            <AltitudeMeters>860.5999755859375</AltitudeMeters>
            <DistanceMeters>153170.58375946</DistanceMeters>
          </Trackpoint>
          <Trackpoint>
            <Time>2019-08-02T13:36:35.000Z</Time>
            <Position>
              <LatitudeDegrees>41.11700967885553836822509765625</LatitudeDegrees>
              <LongitudeDegrees>-4.44385581649839878082275390625</LongitudeDegrees>
            </Position>
            <AltitudeMeters>861.5999755859375</AltitudeMeters>
            <DistanceMeters>153231.98851937</DistanceMeters>
          </Trackpoint>
          <Trackpoint>
            <Time>2019-08-02T13:36:39.000Z</Time>
            <Position>
              <LatitudeDegrees>41.11712132580578327178955078125</LatitudeDegrees>
              <LongitudeDegrees>-4.443968050181865692138671875</LongitudeDegrees>
            </Position>
            <AltitudeMeters>861.79998779296875</AltitudeMeters>
            <DistanceMeters>153247.57637673</DistanceMeters>
          </Trackpoint>
          <Trackpoint>
            <Time>2019-08-02T13:36:46.000Z</Time>
            <Position>
              <LatitudeDegrees>41.1174130998551845550537109375</LatitudeDegrees>
              <LongitudeDegrees>-4.44426418282091617584228515625</LongitudeDegrees>
            </Position>
            <AltitudeMeters>862.79998779296875</AltitudeMeters>
            <DistanceMeters>153288.45686483</DistanceMeters>
          </Trackpoint>
          <Trackpoint>
            <Time>2019-08-02T13:36:52.000Z</Time>
            <Position>
              <LatitudeDegrees>41.1176330409944057464599609375</LatitudeDegrees>
              <LongitudeDegrees>-4.4444899074733257293701171875</LongitudeDegrees>
            </Position>
            <AltitudeMeters>864</AltitudeMeters>
            <DistanceMeters>153319.40042887</DistanceMeters>
          </Trackpoint>
          <Trackpoint>
            <Time>2019-08-02T13:37:03.000Z</Time>
            <Position>
              <LatitudeDegrees>41.11806596629321575164794921875</LatitudeDegrees>
              <LongitudeDegrees>-4.44492534734308719635009765625</LongitudeDegrees>
            </Position>
            <AltitudeMeters>864.5999755859375</AltitudeMeters>
            <DistanceMeters>153379.85661574</DistanceMeters>
          </Trackpoint>
          <Trackpoint>
            <Time>2019-08-02T13:37:15.000Z</Time>
            <Position>
              <LatitudeDegrees>41.11851942725479602813720703125</LatitudeDegrees>
              <LongitudeDegrees>-4.44538836367428302764892578125</LongitudeDegrees>
            </Position>
            <AltitudeMeters>864.4000244140625</AltitudeMeters>
            <DistanceMeters>153443.53259822</DistanceMeters>
          </Trackpoint>
          <Trackpoint>
            <Time>2019-08-02T13:37:27.000Z</Time>
            <Position>
              <LatitudeDegrees>41.11896618269383907318115234375</LatitudeDegrees>
              <LongitudeDegrees>-4.4458450935781002044677734375</LongitudeDegrees>
            </Position>
            <AltitudeMeters>865</AltitudeMeters>
            <DistanceMeters>153506.2954231</DistanceMeters>
          </Trackpoint>
          <Trackpoint>
            <Time>2019-08-02T13:37:39.000Z</Time>
            <Position>
              <LatitudeDegrees>41.119419895112514495849609375</LatitudeDegrees>
              <LongitudeDegrees>-4.44630769081413745880126953125</LongitudeDegrees>
            </Position>
            <AltitudeMeters>865.5999755859375</AltitudeMeters>
            <DistanceMeters>153569.97176011</DistanceMeters>
          </Trackpoint>
          <Trackpoint>
            <Time>2019-08-02T13:37:51.000Z</Time>
            <Position>
              <LatitudeDegrees>41.1198710091412067413330078125</LatitudeDegrees>
              <LongitudeDegrees>-4.44676391780376434326171875</LongitudeDegrees>
            </Position>
            <AltitudeMeters>865.20001220703125</AltitudeMeters>
            <DistanceMeters>153633.09375136</DistanceMeters>
          </Trackpoint>
          <Trackpoint>
            <Time>2019-08-02T13:38:03.000Z</Time>
            <Position>
              <LatitudeDegrees>41.12030309624969959259033203125</LatitudeDegrees>
              <LongitudeDegrees>-4.44720287807285785675048828125</LongitudeDegrees>
            </Position>
            <AltitudeMeters>864.20001220703125</AltitudeMeters>
            <DistanceMeters>153693.65373293</DistanceMeters>
          </Trackpoint>
          <Trackpoint>
            <Time>2019-08-02T13:38:15.000Z</Time>
            <Position>
              <LatitudeDegrees>41.12073845230042934417724609375</LatitudeDegrees>
              <LongitudeDegrees>-4.447648040950298309326171875</LongitudeDegrees>
            </Position>
            <AltitudeMeters>865</AltitudeMeters>
            <DistanceMeters>153754.81890873</DistanceMeters>
          </Trackpoint>
          <Trackpoint>
            <Time>2019-08-02T13:38:23.000Z</Time>
            <Position>
              <LatitudeDegrees>41.1210260353982448577880859375</LatitudeDegrees>
              <LongitudeDegrees>-4.4479442574083805084228515625</LongitudeDegrees>
            </Position>
            <AltitudeMeters>864.20001220703125</AltitudeMeters>
            <DistanceMeters>153795.33328958</DistanceMeters>
          </Trackpoint>
          <Trackpoint>
            <Time>2019-08-02T13:38:35.000Z</Time>
            <Position>
              <LatitudeDegrees>41.1214506626129150390625</LatitudeDegrees>
              <LongitudeDegrees>-4.4483791105449199676513671875</LongitudeDegrees>
            </Position>
            <AltitudeMeters>863.20001220703125</AltitudeMeters>
            <DistanceMeters>153855.02474209</DistanceMeters>
          </Trackpoint>
          <Trackpoint>
            <Time>2019-08-02T13:38:43.000Z</Time>
            <Position>
              <LatitudeDegrees>41.12171460874378681182861328125</LatitudeDegrees>
              <LongitudeDegrees>-4.4486446492373943328857421875</LongitudeDegrees>
            </Position>
            <AltitudeMeters>862</AltitudeMeters>
            <DistanceMeters>153891.88579935</DistanceMeters>
          </Trackpoint>
          <Trackpoint>
            <Time>2019-08-02T13:38:55.000Z</Time>
            <Position>
              <LatitudeDegrees>41.12208441831171512603759765625</LatitudeDegrees>
              <LongitudeDegrees>-4.44901521317660808563232421875</LongitudeDegrees>
            </Position>
            <AltitudeMeters>861</AltitudeMeters>
            <DistanceMeters>153943.45642165</DistanceMeters>
          </Trackpoint>
          <Trackpoint>
            <Time>2019-08-02T13:39:02.000Z</Time>
            <Position>
              <LatitudeDegrees>41.12230972386896610260009765625</LatitudeDegrees>
              <LongitudeDegrees>-4.4492545165121555328369140625</LongitudeDegrees>
            </Position>
            <AltitudeMeters>860</AltitudeMeters>
            <DistanceMeters>153975.57249896</DistanceMeters>
          </Trackpoint>
          <Trackpoint>
            <Time>2019-08-02T13:39:04.000Z</Time>
            <Position>
              <LatitudeDegrees>41.12236822955310344696044921875</LatitudeDegrees>
              <LongitudeDegrees>-4.44932718761265277862548828125</LongitudeDegrees>
            </Position>
            <AltitudeMeters>860</AltitudeMeters>
            <DistanceMeters>153984.49033969</DistanceMeters>
          </Trackpoint>
          <Trackpoint>
            <Time>2019-08-02T13:39:17.000Z</Time>
            <Position>
              <LatitudeDegrees>41.1227999813854694366455078125</LatitudeDegrees>
              <LongitudeDegrees>-4.44975684396922588348388671875</LongitudeDegrees>
            </Position>
            <AltitudeMeters>861.5999755859375</AltitudeMeters>
            <DistanceMeters>154044.54857638</DistanceMeters>
          </Trackpoint>
          <Trackpoint>
            <Time>2019-08-02T13:39:20.000Z</Time>
            <Position>
              <LatitudeDegrees>41.12289980985224246978759765625</LatitudeDegrees>
              <LongitudeDegrees>-4.44986128248274326324462890625</LongitudeDegrees>
            </Position>
            <AltitudeMeters>861.79998779296875</AltitudeMeters>
            <DistanceMeters>154058.69575328</DistanceMeters>
          </Trackpoint>
          <Trackpoint>
            <Time>2019-08-02T13:39:25.000Z</Time>
            <Position>
              <LatitudeDegrees>41.1230661906301975250244140625</LatitudeDegrees>
              <LongitudeDegrees>-4.4500276632606983184814453125</LongitudeDegrees>
            </Position>
            <AltitudeMeters>862.79998779296875</AltitudeMeters>
            <DistanceMeters>154081.88071372</DistanceMeters>
          </Trackpoint>
          <Trackpoint>
            <Time>2019-08-02T13:39:30.000Z</Time>
            <Position>
              <LatitudeDegrees>41.123229973018169403076171875</LatitudeDegrees>
              <LongitudeDegrees>-4.4501963071525096893310546875</LongitudeDegrees>
            </Position>
            <AltitudeMeters>863.79998779296875</AltitudeMeters>
            <DistanceMeters>154104.9508829</DistanceMeters>
          </Trackpoint>
          <Trackpoint>
            <Time>2019-08-02T13:39:43.000Z</Time>
            <Position>
              <LatitudeDegrees>41.12367781810462474822998046875</LatitudeDegrees>
              <LongitudeDegrees>-4.4506539590656757354736328125</LongitudeDegrees>
            </Position>
            <AltitudeMeters>864.20001220703125</AltitudeMeters>
            <DistanceMeters>154167.85526619</DistanceMeters>
          </Trackpoint>
          <Trackpoint>
            <Time>2019-08-02T13:39:50.000Z</Time>
            <Position>
              <LatitudeDegrees>41.12392441369593143463134765625</LatitudeDegrees>
              <LongitudeDegrees>-4.45090130902826786041259765625</LongitudeDegrees>
            </Position>
            <AltitudeMeters>865</AltitudeMeters>
            <DistanceMeters>154202.25585555</DistanceMeters>
          </Trackpoint>
          <Trackpoint>
            <Time>2019-08-02T13:39:57.000Z</Time>
            <Position>
              <LatitudeDegrees>41.12416229210793972015380859375</LatitudeDegrees>
              <LongitudeDegrees>-4.45114455185830593109130859375</LongitudeDegrees>
            </Position>
            <AltitudeMeters>866.20001220703125</AltitudeMeters>
            <DistanceMeters>154235.67609036</DistanceMeters>
          </Trackpoint>
          <Trackpoint>
            <Time>2019-08-02T13:40:10.000Z</Time>
            <Position>
              <LatitudeDegrees>41.124601252377033233642578125</LatitudeDegrees>
              <LongitudeDegrees>-4.4515940733253955841064453125</LongitudeDegrees>
            </Position>
            <AltitudeMeters>866.20001220703125</AltitudeMeters>
            <DistanceMeters>154297.3807052</DistanceMeters>
          </Trackpoint>
          <Trackpoint>
            <Time>2019-08-02T13:40:23.000Z</Time>
            <Position>
              <LatitudeDegrees>41.1250587366521358489990234375</LatitudeDegrees>
              <LongitudeDegrees>-4.45206270553171634674072265625</LongitudeDegrees>
            </Position>
            <AltitudeMeters>866.5999755859375</AltitudeMeters>
            <DistanceMeters>154361.69631308</DistanceMeters>
          </Trackpoint>
          <Trackpoint>
            <Time>2019-08-02T13:40:26.000Z</Time>
            <Position>
              <LatitudeDegrees>41.1251596547663211822509765625</LatitudeDegrees>
              <LongitudeDegrees>-4.4521657191216945648193359375</LongitudeDegrees>
            </Position>
            <AltitudeMeters>867.5999755859375</AltitudeMeters>
            <DistanceMeters>154375.8651754</DistanceMeters>
          </Trackpoint>
          <Trackpoint>
            <Time>2019-08-02T13:40:27.000Z</Time>
            <Position>
              <LatitudeDegrees>41.1251938529312610626220703125</LatitudeDegrees>
              <LongitudeDegrees>-4.45219731889665126800537109375</LongitudeDegrees>
            </Position>
            <AltitudeMeters>868</AltitudeMeters>
            <DistanceMeters>154380.50302427</DistanceMeters>
          </Trackpoint>
          <Trackpoint>
            <Time>2019-08-02T13:40:29.000Z</Time>
            <Position>
              <LatitudeDegrees>41.12525948323309421539306640625</LatitudeDegrees>
              <LongitudeDegrees>-4.4522652961313724517822265625</LongitudeDegrees>
            </Position>
            <AltitudeMeters>868.5999755859375</AltitudeMeters>
            <DistanceMeters>154389.76800709</DistanceMeters>
          </Trackpoint>
          <Trackpoint>
            <Time>2019-08-02T13:40:35.000Z</Time>
            <Position>
              <LatitudeDegrees>41.12546232528984546661376953125</LatitudeDegrees>
              <LongitudeDegrees>-4.4524678029119968414306640625</LongitudeDegrees>
            </Position>
            <AltitudeMeters>870</AltitudeMeters>
            <DistanceMeters>154418.01636625</DistanceMeters>
          </Trackpoint>
          <Trackpoint>
            <Time>2019-08-02T13:40:39.000Z</Time>
            <Position>
              <LatitudeDegrees>41.1255986988544464111328125</LatitudeDegrees>
              <LongitudeDegrees>-4.45260082371532917022705078125</LongitudeDegrees>
            </Position>
            <AltitudeMeters>871.20001220703125</AltitudeMeters>
            <DistanceMeters>154436.85156238</DistanceMeters>
          </Trackpoint>
          <Trackpoint>
            <Time>2019-08-02T13:40:42.000Z</Time>
            <Position>
              <LatitudeDegrees>41.1257004551589488983154296875</LatitudeDegrees>
              <LongitudeDegrees>-4.45270241238176822662353515625</LongitudeDegrees>
            </Position>
            <AltitudeMeters>872.79998779296875</AltitudeMeters>
            <DistanceMeters>154451.02233653</DistanceMeters>
          </Trackpoint>
          <Trackpoint>
            <Time>2019-08-02T13:40:44.000Z</Time>
            <Position>
              <LatitudeDegrees>41.125769354403018951416015625</LatitudeDegrees>
              <LongitudeDegrees>-4.4527718983590602874755859375</LongitudeDegrees>
            </Position>
            <AltitudeMeters>874</AltitudeMeters>
            <DistanceMeters>154460.65337724</DistanceMeters>
          </Trackpoint>
          <Trackpoint>
            <Time>2019-08-02T13:40:47.000Z</Time>
            <Position>
              <LatitudeDegrees>41.12586733885109424591064453125</LatitudeDegrees>
              <LongitudeDegrees>-4.452882371842861175537109375</LongitudeDegrees>
            </Position>
            <AltitudeMeters>875.4000244140625</AltitudeMeters>
            <DistanceMeters>154474.9614471</DistanceMeters>
          </Trackpoint>
          <Trackpoint>
            <Time>2019-08-02T13:40:51.000Z</Time>
            <Position>
              <LatitudeDegrees>41.12600329332053661346435546875</LatitudeDegrees>
              <LongitudeDegrees>-4.4530203379690647125244140625</LongitudeDegrees>
            </Position>
            <AltitudeMeters>876.79998779296875</AltitudeMeters>
            <DistanceMeters>154494.00808174</DistanceMeters>
          </Trackpoint>
          <Trackpoint>
            <Time>2019-08-02T13:40:54.000Z</Time>
            <Position>
              <LatitudeDegrees>41.126105971634387969970703125</LatitudeDegrees>
              <LongitudeDegrees>-4.4531242735683917999267578125</LongitudeDegrees>
            </Position>
            <AltitudeMeters>878</AltitudeMeters>
            <DistanceMeters>154508.37975313</DistanceMeters>
          </Trackpoint>
          <Trackpoint>
            <Time>2019-08-02T13:41:00.000Z</Time>
            <Position>
              <LatitudeDegrees>41.1263096518814563751220703125</LatitudeDegrees>
              <LongitudeDegrees>-4.45333424024283885955810546875</LongitudeDegrees>
            </Position>
            <AltitudeMeters>879</AltitudeMeters>
            <DistanceMeters>154537.08191113</DistanceMeters>
          </Trackpoint>
          <Trackpoint>
            <Time>2019-08-02T13:41:13.000Z</Time>
            <Position>
              <LatitudeDegrees>41.12676487304270267486572265625</LatitudeDegrees>
              <LongitudeDegrees>-4.45379692129790782928466796875</LongitudeDegrees>
            </Position>
            <AltitudeMeters>879.4000244140625</AltitudeMeters>
            <DistanceMeters>154600.89318122</DistanceMeters>
          </Trackpoint>
          <Trackpoint>
            <Time>2019-08-02T13:41:25.000Z</Time>
            <Position>
              <LatitudeDegrees>41.12716619856655597686767578125</LatitudeDegrees>
              <LongitudeDegrees>-4.45420947857201099395751953125</LongitudeDegrees>
            </Position>
            <AltitudeMeters>878.20001220703125</AltitudeMeters>
            <DistanceMeters>154657.38750198</DistanceMeters>
          </Trackpoint>
          <Trackpoint>
            <Time>2019-08-02T13:41:38.000Z</Time>
            <Position>
              <LatitudeDegrees>41.1276266165077686309814453125</LatitudeDegrees>
              <LongitudeDegrees>-4.454673416912555694580078125</LongitudeDegrees>
            </Position>
            <AltitudeMeters>878.20001220703125</AltitudeMeters>
            <DistanceMeters>154721.72234214</DistanceMeters>
          </Trackpoint>
          <Trackpoint>
            <Time>2019-08-02T13:41:51.000Z</Time>
            <Position>
              <LatitudeDegrees>41.12807982601225376129150390625</LatitudeDegrees>
              <LongitudeDegrees>-4.45514255203306674957275390625</LongitudeDegrees>
            </Position>
            <AltitudeMeters>878.79998779296875</AltitudeMeters>
            <DistanceMeters>154785.68682757</DistanceMeters>
          </Trackpoint>
          <Trackpoint>
            <Time>2019-08-02T13:41:59.000Z</Time>
            <Position>
              <LatitudeDegrees>41.12835726700723171234130859375</LatitudeDegrees>
              <LongitudeDegrees>-4.45542468689382076263427734375</LongitudeDegrees>
            </Position>
            <AltitudeMeters>878</AltitudeMeters>
            <DistanceMeters>154824.58457119</DistanceMeters>
          </Trackpoint>
          <Trackpoint>
            <Time>2019-08-02T13:42:04.000Z</Time>
            <Position>
              <LatitudeDegrees>41.12852825783193111419677734375</LatitudeDegrees>
              <LongitudeDegrees>-4.45560045540332794189453125</LongitudeDegrees>
            </Position>
            <AltitudeMeters>877.4000244140625</AltitudeMeters>
            <DistanceMeters>154848.65429583</DistanceMeters>
          </Trackpoint>
          <Trackpoint>
            <Time>2019-08-02T13:42:11.000Z</Time>
            <Position>
              <LatitudeDegrees>41.12877502106130123138427734375</LatitudeDegrees>
              <LongitudeDegrees>-4.45584797300398349761962890625</LongitudeDegrees>
            </Position>
            <AltitudeMeters>876.4000244140625</AltitudeMeters>
            <DistanceMeters>154883.07732143</DistanceMeters>
          </Trackpoint>
          <Trackpoint>
            <Time>2019-08-02T13:42:16.000Z</Time>
            <Position>
              <LatitudeDegrees>41.1289501190185546875</LatitudeDegrees>
              <LongitudeDegrees>-4.45602734573185443878173828125</LongitudeDegrees>
            </Position>
            <AltitudeMeters>875.20001220703125</AltitudeMeters>
            <DistanceMeters>154907.69345942</DistanceMeters>
          </Trackpoint>
          <Trackpoint>
            <Time>2019-08-02T13:42:24.000Z</Time>
            <Position>
              <LatitudeDegrees>41.12922864966094493865966796875</LatitudeDegrees>
              <LongitudeDegrees>-4.45630713365972042083740234375</LongitudeDegrees>
            </Position>
            <AltitudeMeters>874.4000244140625</AltitudeMeters>
            <DistanceMeters>154946.56832963</DistanceMeters>
          </Trackpoint>
          <Trackpoint>
            <Time>2019-08-02T13:42:33.000Z</Time>
            <Position>
              <LatitudeDegrees>41.1295402050018310546875</LatitudeDegrees>
              <LongitudeDegrees>-4.456629417836666107177734375</LongitudeDegrees>
            </Position>
            <AltitudeMeters>875.4000244140625</AltitudeMeters>
            <DistanceMeters>154990.52853401</DistanceMeters>
          </Trackpoint>
          <Trackpoint>
            <Time>2019-08-02T13:42:39.000Z</Time>
            <Position>
              <LatitudeDegrees>41.12975050695240497589111328125</LatitudeDegrees>
              <LongitudeDegrees>-4.456846676766872406005859375</LongitudeDegrees>
            </Position>
            <AltitudeMeters>876.79998779296875</AltitudeMeters>
            <DistanceMeters>155020.18722256</DistanceMeters>
          </Trackpoint>
          <Trackpoint>
            <Time>2019-08-02T13:42:44.000Z</Time>
            <Position>
              <LatitudeDegrees>41.12992585636675357818603515625</LatitudeDegrees>
              <LongitudeDegrees>-4.45702747441828250885009765625</LongitudeDegrees>
            </Position>
            <AltitudeMeters>877.79998779296875</AltitudeMeters>
            <DistanceMeters>155044.89855376</DistanceMeters>
          </Trackpoint>
          <Trackpoint>
            <Time>2019-08-02T13:42:56.000Z</Time>
            <Position>
              <LatitudeDegrees>41.130363978445529937744140625</LatitudeDegrees>
              <LongitudeDegrees>-4.45746727287769317626953125</LongitudeDegrees>
            </Position>
            <AltitudeMeters>878.5999755859375</AltitudeMeters>
            <DistanceMeters>155106.03227537</DistanceMeters>
          </Trackpoint>
          <Trackpoint>
            <Time>2019-08-02T13:43:00.000Z</Time>
            <Position>
              <LatitudeDegrees>41.13050647079944610595703125</LatitudeDegrees>
              <LongitudeDegrees>-4.4576129503548145294189453125</LongitudeDegrees>
            </Position>
            <AltitudeMeters>879</AltitudeMeters>
            <DistanceMeters>155126.0493319</DistanceMeters>
          </Trackpoint>
          <Trackpoint>
            <Time>2019-08-02T13:43:07.000Z</Time>
            <Position>
              <LatitudeDegrees>41.130759604275226593017578125</LatitudeDegrees>
              <LongitudeDegrees>-4.457869268953800201416015625</LongitudeDegrees>
            </Position>
            <AltitudeMeters>880.20001220703125</AltitudeMeters>
            <DistanceMeters>155161.48283016</DistanceMeters>
          </Trackpoint>
          <Trackpoint>
            <Time>2019-08-02T13:43:19.000Z</Time>
            <Position>
              <LatitudeDegrees>41.13118884153664112091064453125</LatitudeDegrees>
              <LongitudeDegrees>-4.45830705575644969940185546875</LongitudeDegrees>
            </Position>
            <AltitudeMeters>879.4000244140625</AltitudeMeters>
            <DistanceMeters>155221.72751876</DistanceMeters>
          </Trackpoint>
          <Trackpoint>
            <Time>2019-08-02T13:43:21.000Z</Time>
            <Position>
              <LatitudeDegrees>41.13126159645617008209228515625</LatitudeDegrees>
              <LongitudeDegrees>-4.45837830193340778350830078125</LongitudeDegrees>
            </Position>
            <AltitudeMeters>879.20001220703125</AltitudeMeters>
            <DistanceMeters>155231.79048439</DistanceMeters>
          </Trackpoint>
          <Trackpoint>
            <Time>2019-08-02T13:43:26.000Z</Time>
            <Position>
              <LatitudeDegrees>41.13144851289689540863037109375</LatitudeDegrees>
              <LongitudeDegrees>-4.4585715048015117645263671875</LongitudeDegrees>
            </Position>
            <AltitudeMeters>878</AltitudeMeters>
            <DistanceMeters>155258.15607398</DistanceMeters>
          </Trackpoint>
          <Trackpoint>
            <Time>2019-08-02T13:43:31.000Z</Time>
            <Position>
              <LatitudeDegrees>41.13163970410823822021484375</LatitudeDegrees>
              <LongitudeDegrees>-4.45876521058380603790283203125</LongitudeDegrees>
            </Position>
            <AltitudeMeters>877</AltitudeMeters>
            <DistanceMeters>155284.92427463</DistanceMeters>
          </Trackpoint>
          <Trackpoint>
            <Time>2019-08-02T13:43:35.000Z</Time>
            <Position>
              <LatitudeDegrees>41.13178915344178676605224609375</LatitudeDegrees>
              <LongitudeDegrees>-4.458918012678623199462890625</LongitudeDegrees>
            </Position>
            <AltitudeMeters>875.5999755859375</AltitudeMeters>
            <DistanceMeters>155305.91915785</DistanceMeters>
          </Trackpoint>
          <Trackpoint>
            <Time>2019-08-02T13:43:41.000Z</Time>
            <Position>
              <LatitudeDegrees>41.1320006288588047027587890625</LatitudeDegrees>
              <LongitudeDegrees>-4.45913518778979778289794921875</LongitudeDegrees>
            </Position>
            <AltitudeMeters>874.5999755859375</AltitudeMeters>
            <DistanceMeters>155335.67648176</DistanceMeters>
          </Trackpoint>
          <Trackpoint>
            <Time>2019-08-02T13:43:53.000Z</Time>
            <Position>
              <LatitudeDegrees>41.13242986612021923065185546875</LatitudeDegrees>
              <LongitudeDegrees>-4.4595733098685741424560546875</LongitudeDegrees>
            </Position>
            <AltitudeMeters>874.4000244140625</AltitudeMeters>
            <DistanceMeters>155395.9379557</DistanceMeters>
          </Trackpoint>
          <Trackpoint>
            <Time>2019-08-02T13:44:02.000Z</Time>
            <Position>
              <LatitudeDegrees>41.13275818526744842529296875</LatitudeDegrees>
              <LongitudeDegrees>-4.45990816690027713775634765625</LongitudeDegrees>
            </Position>
            <AltitudeMeters>873.79998779296875</AltitudeMeters>
            <DistanceMeters>155442.01797627</DistanceMeters>
          </Trackpoint>
          <Trackpoint>
            <Time>2019-08-02T13:44:09.000Z</Time>
            <Position>
              <LatitudeDegrees>41.13300905562937259674072265625</LatitudeDegrees>
              <LongitudeDegrees>-4.46016423404216766357421875</LongitudeDegrees>
            </Position>
            <AltitudeMeters>872.79998779296875</AltitudeMeters>
            <DistanceMeters>155477.23816368</DistanceMeters>
          </Trackpoint>
          <Trackpoint>
            <Time>2019-08-02T13:44:15.000Z</Time>
            <Position>
              <LatitudeDegrees>41.13322044722735881805419921875</LatitudeDegrees>
              <LongitudeDegrees>-4.4603806547820568084716796875</LongitudeDegrees>
            </Position>
            <AltitudeMeters>871.5999755859375</AltitudeMeters>
            <DistanceMeters>155506.94917431</DistanceMeters>
          </Trackpoint>
          <Trackpoint>
            <Time>2019-08-02T13:44:20.000Z</Time>
            <Position>
              <LatitudeDegrees>41.1334047652781009674072265625</LatitudeDegrees>
              <LongitudeDegrees>-4.46056664921343326568603515625</LongitudeDegrees>
            </Position>
            <AltitudeMeters>870.4000244140625</AltitudeMeters>
            <DistanceMeters>155532.7170132</DistanceMeters>
          </Trackpoint>
          <Trackpoint>
            <Time>2019-08-02T13:44:25.000Z</Time>
            <Position>
              <LatitudeDegrees>41.13358774222433567047119140625</LatitudeDegrees>
              <LongitudeDegrees>-4.4607518054544925689697265625</LongitudeDegrees>
            </Position>
            <AltitudeMeters>869.20001220703125</AltitudeMeters>
            <DistanceMeters>155558.32331868</DistanceMeters>
          </Trackpoint>
          <Trackpoint>
            <Time>2019-08-02T13:44:29.000Z</Time>
            <Position>
              <LatitudeDegrees>41.13373392261564731597900390625</LatitudeDegrees>
              <LongitudeDegrees>-4.460899494588375091552734375</LongitudeDegrees>
            </Position>
            <AltitudeMeters>868.20001220703125</AltitudeMeters>
            <DistanceMeters>155578.76842173</DistanceMeters>
          </Trackpoint>
          <Trackpoint>
            <Time>2019-08-02T13:44:34.000Z</Time>
            <Position>
              <LatitudeDegrees>41.13391413353383541107177734375</LatitudeDegrees>
              <LongitudeDegrees>-4.461083225905895233154296875</LongitudeDegrees>
            </Position>
            <AltitudeMeters>867.20001220703125</AltitudeMeters>
            <DistanceMeters>155604.05767111</DistanceMeters>
          </Trackpoint>
          <Trackpoint>
            <Time>2019-08-02T13:44:43.000Z</Time>
            <Position>
              <LatitudeDegrees>41.13422309048473834991455078125</LatitudeDegrees>
              <LongitudeDegrees>-4.46139964275062084197998046875</LongitudeDegrees>
            </Position>
            <AltitudeMeters>866.20001220703125</AltitudeMeters>
            <DistanceMeters>155647.48675096</DistanceMeters>
          </Trackpoint>
          <Trackpoint>
            <Time>2019-08-02T13:44:56.000Z</Time>
            <Position>
              <LatitudeDegrees>41.1346546746790409088134765625</LatitudeDegrees>
              <LongitudeDegrees>-4.461842291057109832763671875</LongitudeDegrees>
            </Position>
            <AltitudeMeters>865.5999755859375</AltitudeMeters>
            <DistanceMeters>155708.18584115</DistanceMeters>
          </Trackpoint>
          <Trackpoint>
            <Time>2019-08-02T13:45:09.000Z</Time>
            <Position>
              <LatitudeDegrees>41.135095059871673583984375</LatitudeDegrees>
              <LongitudeDegrees>-4.46229332126677036285400390625</LongitudeDegrees>
            </Position>
            <AltitudeMeters>865.79998779296875</AltitudeMeters>
            <DistanceMeters>155770.08960097</DistanceMeters>
          </Trackpoint>
          <Trackpoint>
            <Time>2019-08-02T13:45:15.000Z</Time>
            <Position>
              <LatitudeDegrees>41.13530519418418407440185546875</LatitudeDegrees>
              <LongitudeDegrees>-4.46250982582569122314453125</LongitudeDegrees>
            </Position>
            <AltitudeMeters>865.4000244140625</AltitudeMeters>
            <DistanceMeters>155799.69373986</DistanceMeters>
          </Trackpoint>
          <Trackpoint>
            <Time>2019-08-02T13:45:20.000Z</Time>
            <Position>
              <LatitudeDegrees>41.13547501154243946075439453125</LatitudeDegrees>
              <LongitudeDegrees>-4.4626880250871181488037109375</LongitudeDegrees>
            </Position>
            <AltitudeMeters>864.20001220703125</AltitudeMeters>
            <DistanceMeters>155823.78483932</DistanceMeters>
          </Trackpoint>
          <Trackpoint>
            <Time>2019-08-02T13:45:24.000Z</Time>
            <Position>
              <LatitudeDegrees>41.13560778088867664337158203125</LatitudeDegrees>
              <LongitudeDegrees>-4.46282171644270420074462890625</LongitudeDegrees>
            </Position>
            <AltitudeMeters>863.20001220703125</AltitudeMeters>
            <DistanceMeters>155842.33136654</DistanceMeters>
          </Trackpoint>
          <Trackpoint>
            <Time>2019-08-02T13:45:31.000Z</Time>
            <Position>
              <LatitudeDegrees>41.1358616687357425689697265625</LatitudeDegrees>
              <LongitudeDegrees>-4.4630756042897701263427734375</LongitudeDegrees>
            </Position>
            <AltitudeMeters>862</AltitudeMeters>
            <DistanceMeters>155877.70760566</DistanceMeters>
          </Trackpoint>
          <Trackpoint>
            <Time>2019-08-02T13:45:43.000Z</Time>
            <Position>
              <LatitudeDegrees>41.13629870116710662841796875</LatitudeDegrees>
              <LongitudeDegrees>-4.46352311410009860992431640625</LongitudeDegrees>
            </Position>
            <AltitudeMeters>862.5999755859375</AltitudeMeters>
            <DistanceMeters>155939.13522887</DistanceMeters>
          </Trackpoint>
          <Trackpoint>
            <Time>2019-08-02T13:45:53.000Z</Time>
            <Position>
              <LatitudeDegrees>41.13665870390832424163818359375</LatitudeDegrees>
              <LongitudeDegrees>-4.463884793221950531005859375</LongitudeDegrees>
            </Position>
            <AltitudeMeters>860.79998779296875</AltitudeMeters>
            <DistanceMeters>155989.38190143</DistanceMeters>
          </Trackpoint>
          <Trackpoint>
            <Time>2019-08-02T13:46:01.000Z</Time>
            <Position>
              <LatitudeDegrees>41.13693966530263423919677734375</LatitudeDegrees>
              <LongitudeDegrees>-4.46416885592043399810791015625</LongitudeDegrees>
            </Position>
            <AltitudeMeters>859.79998779296875</AltitudeMeters>
            <DistanceMeters>156028.68725257</DistanceMeters>
          </Trackpoint>
          <Trackpoint>
            <Time>2019-08-02T13:46:06.000Z</Time>
            <Position>
              <LatitudeDegrees>41.1371187865734100341796875</LatitudeDegrees>
              <LongitudeDegrees>-4.46434848010540008544921875</LongitudeDegrees>
            </Position>
            <AltitudeMeters>858.5999755859375</AltitudeMeters>
            <DistanceMeters>156053.67096675</DistanceMeters>
          </Trackpoint>
          <Trackpoint>
            <Time>2019-08-02T13:46:15.000Z</Time>
            <Position>
              <LatitudeDegrees>41.13744107075035572052001953125</LatitudeDegrees>
              <LongitudeDegrees>-4.46467436850070953369140625</LongitudeDegrees>
            </Position>
            <AltitudeMeters>857.4000244140625</AltitudeMeters>
            <DistanceMeters>156098.75961565</DistanceMeters>
          </Trackpoint>
          <Trackpoint>
            <Time>2019-08-02T13:46:23.000Z</Time>
            <Position>
              <LatitudeDegrees>41.1377442441880702972412109375</LatitudeDegrees>
              <LongitudeDegrees>-4.46498148143291473388671875</LongitudeDegrees>
            </Position>
            <AltitudeMeters>857.79998779296875</AltitudeMeters>
            <DistanceMeters>156141.20242293</DistanceMeters>
          </Trackpoint>
          <Trackpoint>
            <Time>2019-08-02T13:46:35.000Z</Time>
            <Position>
              <LatitudeDegrees>41.13818504847586154937744140625</LatitudeDegrees>
              <LongitudeDegrees>-4.46543385274708271026611328125</LongitudeDegrees>
            </Position>
            <AltitudeMeters>857.4000244140625</AltitudeMeters>
            <DistanceMeters>156203.21083099</DistanceMeters>
          </Trackpoint>
          <Trackpoint>
            <Time>2019-08-02T13:46:48.000Z</Time>
            <Position>
              <LatitudeDegrees>41.13864697515964508056640625</LatitudeDegrees>
              <LongitudeDegrees>-4.4659060053527355194091796875</LongitudeDegrees>
            </Position>
            <AltitudeMeters>857.79998779296875</AltitudeMeters>
            <DistanceMeters>156268.09327344</DistanceMeters>
          </Trackpoint>
          <Trackpoint>
            <Time>2019-08-02T13:46:59.000Z</Time>
            <Position>
              <LatitudeDegrees>41.13904394209384918212890625</LatitudeDegrees>
              <LongitudeDegrees>-4.4663073308765888214111328125</LongitudeDegrees>
            </Position>
            <AltitudeMeters>858.5999755859375</AltitudeMeters>
            <DistanceMeters>156323.62563649</DistanceMeters>
          </Trackpoint>
          <Trackpoint>
            <Time>2019-08-02T13:47:12.000Z</Time>
            <Position>
              <LatitudeDegrees>41.1395027674734592437744140625</LatitudeDegrees>
              <LongitudeDegrees>-4.46677210740745067596435546875</LongitudeDegrees>
            </Position>
            <AltitudeMeters>859</AltitudeMeters>
            <DistanceMeters>156387.85765052</DistanceMeters>
          </Trackpoint>
          <Trackpoint>
            <Time>2019-08-02T13:47:24.000Z</Time>
            <Position>
              <LatitudeDegrees>41.1399403028190135955810546875</LatitudeDegrees>
              <LongitudeDegrees>-4.46721282787621021270751953125</LongitudeDegrees>
            </Position>
            <AltitudeMeters>859</AltitudeMeters>
            <DistanceMeters>156448.98265661</DistanceMeters>
          </Trackpoint>
          <Trackpoint>
            <Time>2019-08-02T13:47:36.000Z</Time>
            <Position>
              <LatitudeDegrees>41.14039870910346508026123046875</LatitudeDegrees>
              <LongitudeDegrees>-4.467678107321262359619140625</LongitudeDegrees>
            </Position>
            <AltitudeMeters>859.4000244140625</AltitudeMeters>
            <DistanceMeters>156513.20286039</DistanceMeters>
          </Trackpoint>
          <Trackpoint>
            <Time>2019-08-02T13:47:49.000Z</Time>
            <Position>
              <LatitudeDegrees>41.140834987163543701171875</LatitudeDegrees>
              <LongitudeDegrees>-4.4681218452751636505126953125</LongitudeDegrees>
            </Position>
            <AltitudeMeters>859.5999755859375</AltitudeMeters>
            <DistanceMeters>156574.36973396</DistanceMeters>
          </Trackpoint>
          <Trackpoint>
            <Time>2019-08-02T13:48:03.000Z</Time>
            <Position>
              <LatitudeDegrees>41.14129859022796154022216796875</LatitudeDegrees>
              <LongitudeDegrees>-4.46858771145343780517578125</LongitudeDegrees>
            </Position>
            <AltitudeMeters>859.4000244140625</AltitudeMeters>
            <DistanceMeters>156639.0798565</DistanceMeters>
          </Trackpoint>
          <Trackpoint>
            <Time>2019-08-02T13:48:17.000Z</Time>
            <Position>
              <LatitudeDegrees>41.14175942726433277130126953125</LatitudeDegrees>
              <LongitudeDegrees>-4.46905919350683689117431640625</LongitudeDegrees>
            </Position>
            <AltitudeMeters>858.79998779296875</AltitudeMeters>
            <DistanceMeters>156703.83071381</DistanceMeters>
          </Trackpoint>
          <Trackpoint>
            <Time>2019-08-02T13:48:31.000Z</Time>
            <Position>
              <LatitudeDegrees>41.1422168277204036712646484375</LatitudeDegrees>
              <LongitudeDegrees>-4.4695266522467136383056640625</LongitudeDegrees>
            </Position>
            <AltitudeMeters>857.5999755859375</AltitudeMeters>
            <DistanceMeters>156768.07270862</DistanceMeters>
          </Trackpoint>
          <Trackpoint>
            <Time>2019-08-02T13:48:44.000Z</Time>
            <Position>
              <LatitudeDegrees>41.14265285432338714599609375</LatitudeDegrees>
              <LongitudeDegrees>-4.4699732400476932525634765625</LongitudeDegrees>
            </Position>
            <AltitudeMeters>857.4000244140625</AltitudeMeters>
            <DistanceMeters>156829.36236109</DistanceMeters>
          </Trackpoint>
          <Trackpoint>
            <Time>2019-08-02T13:48:49.000Z</Time>
            <Position>
              <LatitudeDegrees>41.1428236775100231170654296875</LatitudeDegrees>
              <LongitudeDegrees>-4.47014381177723407745361328125</LongitudeDegrees>
            </Position>
            <AltitudeMeters>856.79998779296875</AltitudeMeters>
            <DistanceMeters>156853.15094723</DistanceMeters>
          </Trackpoint>
          <Trackpoint>
            <Time>2019-08-02T13:49:00.000Z</Time>
            <Position>
              <LatitudeDegrees>41.14322626031935214996337890625</LatitudeDegrees>
              <LongitudeDegrees>-4.47055234573781490325927734375</LongitudeDegrees>
            </Position>
            <AltitudeMeters>855.79998779296875</AltitudeMeters>
            <DistanceMeters>156909.54543937</DistanceMeters>
          </Trackpoint>
          <Trackpoint>
            <Time>2019-08-02T13:49:11.000Z</Time>
            <Position>
              <LatitudeDegrees>41.14366882480680942535400390625</LatitudeDegrees>
              <LongitudeDegrees>-4.4710045494139194488525390625</LongitudeDegrees>
            </Position>
            <AltitudeMeters>855</AltitudeMeters>
            <DistanceMeters>156971.69843175</DistanceMeters>
          </Trackpoint>
          <Trackpoint>
            <Time>2019-08-02T13:49:13.000Z</Time>
            <Position>
              <LatitudeDegrees>41.14374945871531963348388671875</LatitudeDegrees>
              <LongitudeDegrees>-4.47108761407434940338134765625</LongitudeDegrees>
            </Position>
            <AltitudeMeters>854.79998779296875</AltitudeMeters>
            <DistanceMeters>156983.05720511</DistanceMeters>
          </Trackpoint>
          <Trackpoint>
            <Time>2019-08-02T13:49:18.000Z</Time>
            <Position>
              <LatitudeDegrees>41.14394911564886569976806640625</LatitudeDegrees>
              <LongitudeDegrees>-4.47129271924495697021484375</LongitudeDegrees>
            </Position>
            <AltitudeMeters>853.5999755859375</AltitudeMeters>
            <DistanceMeters>157011.1529906</DistanceMeters>
          </Trackpoint>
          <Trackpoint>
            <Time>2019-08-02T13:49:23.000Z</Time>
            <Position>
              <LatitudeDegrees>41.14414927549660205841064453125</LatitudeDegrees>
              <LongitudeDegrees>-4.47149296291172504425048828125</LongitudeDegrees>
            </Position>
            <AltitudeMeters>852.4000244140625</AltitudeMeters>
            <DistanceMeters>157039.04588085</DistanceMeters>
          </Trackpoint>
          <Trackpoint>
            <Time>2019-08-02T13:49:28.000Z</Time>
            <Position>
              <LatitudeDegrees>41.144355721771717071533203125</LatitudeDegrees>
              <LongitudeDegrees>-4.471690021455287933349609375</LongitudeDegrees>
            </Position>
            <AltitudeMeters>851.4000244140625</AltitudeMeters>
            <DistanceMeters>157067.34422372</DistanceMeters>
          </Trackpoint>
          <Trackpoint>
            <Time>2019-08-02T13:49:35.000Z</Time>
            <Position>
              <LatitudeDegrees>41.14463760517537593841552734375</LatitudeDegrees>
              <LongitudeDegrees>-4.4719949550926685333251953125</LongitudeDegrees>
            </Position>
            <AltitudeMeters>850.4000244140625</AltitudeMeters>
            <DistanceMeters>157107.81110206</DistanceMeters>
          </Trackpoint>
          <Trackpoint>
            <Time>2019-08-02T13:49:39.000Z</Time>
            <Position>
              <LatitudeDegrees>41.1448024772107601165771484375</LatitudeDegrees>
              <LongitudeDegrees>-4.4721639342606067657470703125</LongitudeDegrees>
            </Position>
            <AltitudeMeters>849.20001220703125</AltitudeMeters>
            <DistanceMeters>157130.99158305</DistanceMeters>
          </Trackpoint>
          <Trackpoint>
            <Time>2019-08-02T13:49:47.000Z</Time>
            <Position>
              <LatitudeDegrees>41.14512844942510128021240234375</LatitudeDegrees>
              <LongitudeDegrees>-4.472493343055248260498046875</LongitudeDegrees>
            </Position>
            <AltitudeMeters>848.20001220703125</AltitudeMeters>
            <DistanceMeters>157176.58361411</DistanceMeters>
          </Trackpoint>
          <Trackpoint>
            <Time>2019-08-02T13:49:54.000Z</Time>
            <Position>
              <LatitudeDegrees>41.145417205989360809326171875</LatitudeDegrees>
              <LongitudeDegrees>-4.47278779931366443634033203125</LongitudeDegrees>
            </Position>
            <AltitudeMeters>847.20001220703125</AltitudeMeters>
            <DistanceMeters>157217.10534952</DistanceMeters>
          </Trackpoint>
          <Trackpoint>
            <Time>2019-08-02T13:50:05.000Z</Time>
            <Position>
              <LatitudeDegrees>41.14586412906646728515625</LatitudeDegrees>
              <LongitudeDegrees>-4.47324813343584537506103515625</LongitudeDegrees>
            </Position>
            <AltitudeMeters>846.4000244140625</AltitudeMeters>
            <DistanceMeters>157280.05801967</DistanceMeters>
          </Trackpoint>
          <Trackpoint>
            <Time>2019-08-02T13:50:16.000Z</Time>
            <Position>
              <LatitudeDegrees>41.14629789255559444427490234375</LatitudeDegrees>
              <LongitudeDegrees>-4.473688602447509765625</LongitudeDegrees>
            </Position>
            <AltitudeMeters>846.20001220703125</AltitudeMeters>
            <DistanceMeters>157340.83427136</DistanceMeters>
          </Trackpoint>
          <Trackpoint>
            <Time>2019-08-02T13:50:28.000Z</Time>
            <Position>
              <LatitudeDegrees>41.1467638425529003143310546875</LatitudeDegrees>
              <LongitudeDegrees>-4.4741594977676868438720703125</LongitudeDegrees>
            </Position>
            <AltitudeMeters>846.4000244140625</AltitudeMeters>
            <DistanceMeters>157406.00527976</DistanceMeters>
          </Trackpoint>
          <Trackpoint>
            <Time>2019-08-02T13:50:33.000Z</Time>
            <Position>
              <LatitudeDegrees>41.14695235155522823333740234375</LatitudeDegrees>
              <LongitudeDegrees>-4.47434507310390472412109375</LongitudeDegrees>
            </Position>
            <AltitudeMeters>846.4000244140625</AltitudeMeters>
            <DistanceMeters>157432.12293613</DistanceMeters>
          </Trackpoint>
          <Trackpoint>
            <Time>2019-08-02T13:50:45.000Z</Time>
            <Position>
              <LatitudeDegrees>41.14741134457290172576904296875</LatitudeDegrees>
              <LongitudeDegrees>-4.474821500480175018310546875</LongitudeDegrees>
            </Position>
            <AltitudeMeters>847.79998779296875</AltitudeMeters>
            <DistanceMeters>157496.96375161</DistanceMeters>
          </Trackpoint>
          <Trackpoint>
            <Time>2019-08-02T13:50:48.000Z</Time>
            <Position>
              <LatitudeDegrees>41.1475242488086223602294921875</LatitudeDegrees>
              <LongitudeDegrees>-4.47493926621973514556884765625</LongitudeDegrees>
            </Position>
            <AltitudeMeters>848</AltitudeMeters>
            <DistanceMeters>157512.94293937</DistanceMeters>
          </Trackpoint>
          <Trackpoint>
            <Time>2019-08-02T13:50:55.000Z</Time>
            <Position>
              <LatitudeDegrees>41.14778635092079639434814453125</LatitudeDegrees>
              <LongitudeDegrees>-4.47520597837865352630615234375</LongitudeDegrees>
            </Position>
            <AltitudeMeters>849</AltitudeMeters>
            <DistanceMeters>157549.69506631</DistanceMeters>
          </Trackpoint>
          <Trackpoint>
            <Time>2019-08-02T13:51:06.000Z</Time>
            <Position>
              <LatitudeDegrees>41.14820100367069244384765625</LatitudeDegrees>
              <LongitudeDegrees>-4.47562490589916706085205078125</LongitudeDegrees>
            </Position>
            <AltitudeMeters>850.20001220703125</AltitudeMeters>
            <DistanceMeters>157607.68441315</DistanceMeters>
          </Trackpoint>
          <Trackpoint>
            <Time>2019-08-02T13:51:18.000Z</Time>
            <Position>
              <LatitudeDegrees>41.14866628311574459075927734375</LatitudeDegrees>
              <LongitudeDegrees>-4.47609730996191501617431640625</LongitudeDegrees>
            </Position>
            <AltitudeMeters>850.5999755859375</AltitudeMeters>
            <DistanceMeters>157672.87204659</DistanceMeters>
          </Trackpoint>
          <Trackpoint>
            <Time>2019-08-02T13:51:29.000Z</Time>
            <Position>
              <LatitudeDegrees>41.14910298027098178863525390625</LatitudeDegrees>
              <LongitudeDegrees>-4.47654121555387973785400390625</LongitudeDegrees>
            </Position>
            <AltitudeMeters>850.20001220703125</AltitudeMeters>
            <DistanceMeters>157734.08157042</DistanceMeters>
          </Trackpoint>
          <Trackpoint>
            <Time>2019-08-02T13:51:40.000Z</Time>
            <Position>
              <LatitudeDegrees>41.14954336546361446380615234375</LatitudeDegrees>
              <LongitudeDegrees>-4.47699165903031826019287109375</LongitudeDegrees>
            </Position>
            <AltitudeMeters>849.5999755859375</AltitudeMeters>
            <DistanceMeters>157795.95023788</DistanceMeters>
          </Trackpoint>
          <Trackpoint>
            <Time>2019-08-02T13:51:51.000Z</Time>
            <Position>
              <LatitudeDegrees>41.14999003708362579345703125</LatitudeDegrees>
              <LongitudeDegrees>-4.47744704782962799072265625</LongitudeDegrees>
            </Position>
            <AltitudeMeters>849</AltitudeMeters>
            <DistanceMeters>157858.62610129</DistanceMeters>
          </Trackpoint>
          <Trackpoint>
            <Time>2019-08-02T13:52:02.000Z</Time>
            <Position>
              <LatitudeDegrees>41.1504144966602325439453125</LatitudeDegrees>
              <LongitudeDegrees>-4.47785675525665283203125</LongitudeDegrees>
            </Position>
            <AltitudeMeters>847.79998779296875</AltitudeMeters>
            <DistanceMeters>157917.02943027</DistanceMeters>
          </Trackpoint>
          <Trackpoint>
            <Time>2019-08-02T13:52:08.000Z</Time>
            <Position>
              <LatitudeDegrees>41.1506232060492038726806640625</LatitudeDegrees>
              <LongitudeDegrees>-4.4780726730823516845703125</LongitudeDegrees>
            </Position>
            <AltitudeMeters>846.79998779296875</AltitudeMeters>
            <DistanceMeters>157946.47575432</DistanceMeters>
          </Trackpoint>
          <Trackpoint>
            <Time>2019-08-02T13:52:14.000Z</Time>
            <Position>
              <LatitudeDegrees>41.15084658376872539520263671875</LatitudeDegrees>
              <LongitudeDegrees>-4.47830040939152240753173828125</LongitudeDegrees>
            </Position>
            <AltitudeMeters>845.5999755859375</AltitudeMeters>
            <DistanceMeters>157977.81930448</DistanceMeters>
          </Trackpoint>
          <Trackpoint>
            <Time>2019-08-02T13:52:20.000Z</Time>
            <Position>
              <LatitudeDegrees>41.151070296764373779296875</LatitudeDegrees>
              <LongitudeDegrees>-4.47852655313909053802490234375</LongitudeDegrees>
            </Position>
            <AltitudeMeters>844.5999755859375</AltitudeMeters>
            <DistanceMeters>158009.11153083</DistanceMeters>
          </Trackpoint>
          <Trackpoint>
            <Time>2019-08-02T13:52:28.000Z</Time>
            <Position>
              <LatitudeDegrees>41.1513819359242916107177734375</LatitudeDegrees>
              <LongitudeDegrees>-4.4788412936031818389892578125</LongitudeDegrees>
            </Position>
            <AltitudeMeters>843.4000244140625</AltitudeMeters>
            <DistanceMeters>158052.68788514</DistanceMeters>
          </Trackpoint>
          <Trackpoint>
            <Time>2019-08-02T13:52:37.000Z</Time>
            <Position>
              <LatitudeDegrees>41.15172953344881534576416015625</LatitudeDegrees>
              <LongitudeDegrees>-4.47919450700283050537109375</LongitudeDegrees>
            </Position>
            <AltitudeMeters>842.4000244140625</AltitudeMeters>
            <DistanceMeters>158101.40184524</DistanceMeters>
          </Trackpoint>
          <Trackpoint>
            <Time>2019-08-02T13:52:49.000Z</Time>
            <Position>
              <LatitudeDegrees>41.15218274295330047607421875</LatitudeDegrees>
              <LongitudeDegrees>-4.479654170572757720947265625</LongitudeDegrees>
            </Position>
            <AltitudeMeters>842.79998779296875</AltitudeMeters>
            <DistanceMeters>158164.87243499</DistanceMeters>
          </Trackpoint>
          <Trackpoint>
            <Time>2019-08-02T13:53:01.000Z</Time>
            <Position>
              <LatitudeDegrees>41.15262052975594997406005859375</LatitudeDegrees>
              <LongitudeDegrees>-4.48009531013667583465576171875</LongitudeDegrees>
            </Position>
            <AltitudeMeters>843</AltitudeMeters>
            <DistanceMeters>158226.03672498</DistanceMeters>
          </Trackpoint>
          <Trackpoint>
            <Time>2019-08-02T13:53:07.000Z</Time>
            <Position>
              <LatitudeDegrees>41.1528397165238857269287109375</LatitudeDegrees>
              <LongitudeDegrees>-4.4803222082555294036865234375</LongitudeDegrees>
            </Position>
            <AltitudeMeters>843.4000244140625</AltitudeMeters>
            <DistanceMeters>158256.96788402</DistanceMeters>
          </Trackpoint>
          <Trackpoint>
            <Time>2019-08-02T13:53:19.000Z</Time>
            <Position>
              <LatitudeDegrees>41.15330583415925502777099609375</LatitudeDegrees>
              <LongitudeDegrees>-4.48078882880508899688720703125</LongitudeDegrees>
            </Position>
            <AltitudeMeters>844.20001220703125</AltitudeMeters>
            <DistanceMeters>158321.93516833</DistanceMeters>
          </Trackpoint>
          <Trackpoint>
            <Time>2019-08-02T13:53:22.000Z</Time>
            <Position>
              <LatitudeDegrees>41.153414547443389892578125</LatitudeDegrees>
              <LongitudeDegrees>-4.48089745827019214630126953125</LongitudeDegrees>
            </Position>
            <AltitudeMeters>844.4000244140625</AltitudeMeters>
            <DistanceMeters>158337.07725111</DistanceMeters>
          </Trackpoint>
          <Trackpoint>
            <Time>2019-08-02T13:53:35.000Z</Time>
            <Position>
              <LatitudeDegrees>41.153871528804302215576171875</LatitudeDegrees>
              <LongitudeDegrees>-4.4813696108758449554443359375</LongitudeDegrees>
            </Position>
            <AltitudeMeters>844.4000244140625</AltitudeMeters>
            <DistanceMeters>158401.5187471</DistanceMeters>
          </Trackpoint>
          <Trackpoint>
            <Time>2019-08-02T13:53:48.000Z</Time>
            <Position>
              <LatitudeDegrees>41.154322139918804168701171875</LatitudeDegrees>
              <LongitudeDegrees>-4.481834135949611663818359375</LongitudeDegrees>
            </Position>
            <AltitudeMeters>845</AltitudeMeters>
            <DistanceMeters>158465.00797172</DistanceMeters>
          </Trackpoint>
          <Trackpoint>
            <Time>2019-08-02T13:54:02.000Z</Time>
            <Position>
              <LatitudeDegrees>41.15478808991611003875732421875</LatitudeDegrees>
              <LongitudeDegrees>-4.482174105942249298095703125</LongitudeDegrees>
            </Position>
            <AltitudeMeters>844.5999755859375</AltitudeMeters>
            <DistanceMeters>158524.17978748</DistanceMeters>
          </Trackpoint>
          <Trackpoint>
            <Time>2019-08-02T13:54:18.000Z</Time>
            <Position>
              <LatitudeDegrees>41.15504524670541286468505859375</LatitudeDegrees>
              <LongitudeDegrees>-4.48262681253254413604736328125</LongitudeDegrees>
            </Position>
            <AltitudeMeters>844.20001220703125</AltitudeMeters>
            <DistanceMeters>158571.70378646</DistanceMeters>
          </Trackpoint>
          <Trackpoint>
            <Time>2019-08-02T13:54:25.000Z</Time>
            <Position>
              <LatitudeDegrees>41.155054382979869842529296875</LatitudeDegrees>
              <LongitudeDegrees>-4.48299586772918701171875</LongitudeDegrees>
            </Position>
            <AltitudeMeters>843.79998779296875</AltitudeMeters>
            <DistanceMeters>158602.64837188</DistanceMeters>
          </Trackpoint>
          <Trackpoint>
            <Time>2019-08-02T13:54:38.000Z</Time>
            <Position>
              <LatitudeDegrees>41.155077852308750152587890625</LatitudeDegrees>
              <LongitudeDegrees>-4.48373020626604557037353515625</LongitudeDegrees>
            </Position>
            <AltitudeMeters>844.20001220703125</AltitudeMeters>
            <DistanceMeters>158664.24342442</DistanceMeters>
          </Trackpoint>
          <Trackpoint>
            <Time>2019-08-02T13:54:46.000Z</Time>
            <Position>
              <LatitudeDegrees>41.15517474710941314697265625</LatitudeDegrees>
              <LongitudeDegrees>-4.4842070527374744415283203125</LongitudeDegrees>
            </Position>
            <AltitudeMeters>844.4000244140625</AltitudeMeters>
            <DistanceMeters>158705.63407678</DistanceMeters>
          </Trackpoint>
          <Trackpoint>
            <Time>2019-08-02T13:54:52.000Z</Time>
            <Position>
              <LatitudeDegrees>41.1553589813411235809326171875</LatitudeDegrees>
              <LongitudeDegrees>-4.4844670593738555908203125</LongitudeDegrees>
            </Position>
            <AltitudeMeters>844.20001220703125</AltitudeMeters>
            <DistanceMeters>158735.55481889</DistanceMeters>
          </Trackpoint>
          <Trackpoint>
            <Time>2019-08-02T13:55:03.000Z</Time>
            <Position>
              <LatitudeDegrees>41.1557110212743282318115234375</LatitudeDegrees>
              <LongitudeDegrees>-4.484756402671337127685546875</LongitudeDegrees>
            </Position>
            <AltitudeMeters>843.20001220703125</AltitudeMeters>
            <DistanceMeters>158781.63346768</DistanceMeters>
          </Trackpoint>
          <Trackpoint>
            <Time>2019-08-02T13:55:16.000Z</Time>
            <Position>
              <LatitudeDegrees>41.15617579780519008636474609375</LatitudeDegrees>
              <LongitudeDegrees>-4.48514842428267002105712890625</LongitudeDegrees>
            </Position>
            <AltitudeMeters>843</AltitudeMeters>
            <DistanceMeters>158842.91398474</DistanceMeters>
          </Trackpoint>
          <Trackpoint>
            <Time>2019-08-02T13:55:29.000Z</Time>
            <Position>
              <LatitudeDegrees>41.15665666759014129638671875</LatitudeDegrees>
              <LongitudeDegrees>-4.48556073009967803955078125</LongitudeDegrees>
            </Position>
            <AltitudeMeters>843.4000244140625</AltitudeMeters>
            <DistanceMeters>158906.61945747</DistanceMeters>
          </Trackpoint>
          <Trackpoint>
            <Time>2019-08-02T13:55:42.000Z</Time>
            <Position>
              <LatitudeDegrees>41.1571292392909526824951171875</LatitudeDegrees>
              <LongitudeDegrees>-4.4859664142131805419921875</LongitudeDegrees>
            </Position>
            <AltitudeMeters>843.79998779296875</AltitudeMeters>
            <DistanceMeters>158969.2479741</DistanceMeters>
          </Trackpoint>
          <Trackpoint>
            <Time>2019-08-02T13:55:56.000Z</Time>
            <Position>
              <LatitudeDegrees>41.15760005079209804534912109375</LatitudeDegrees>
              <LongitudeDegrees>-4.48634837754070758819580078125</LongitudeDegrees>
            </Position>
            <AltitudeMeters>843</AltitudeMeters>
            <DistanceMeters>159030.65273401</DistanceMeters>
          </Trackpoint>
          <Trackpoint>
            <Time>2019-08-02T13:56:16.000Z</Time>
            <Position>
              <LatitudeDegrees>41.15783683955669403076171875</LatitudeDegrees>
              <LongitudeDegrees>-4.4868258945643901824951171875</LongitudeDegrees>
            </Position>
            <AltitudeMeters>842.4000244140625</AltitudeMeters>
            <DistanceMeters>159078.56768736</DistanceMeters>
          </Trackpoint>
          <Trackpoint>
            <Time>2019-08-02T13:56:18.000Z</Time>
            <Position>
              <LatitudeDegrees>41.15779216401278972625732421875</LatitudeDegrees>
              <LongitudeDegrees>-4.48684550821781158447265625</LongitudeDegrees>
            </Position>
            <AltitudeMeters>842.20001220703125</AltitudeMeters>
            <DistanceMeters>159083.80537504</DistanceMeters>
          </Trackpoint>
          <Trackpoint>
            <Time>2019-08-02T13:56:20.000Z</Time>
            <Position>
              <LatitudeDegrees>41.15775159560143947601318359375</LatitudeDegrees>
              <LongitudeDegrees>-4.4868272356688976287841796875</LongitudeDegrees>
            </Position>
            <AltitudeMeters>842</AltitudeMeters>
            <DistanceMeters>159088.57378489</DistanceMeters>
          </Trackpoint>
          <Trackpoint>
            <Time>2019-08-02T13:56:23.000Z</Time>
            <Position>
              <LatitudeDegrees>41.157719157636165618896484375</LatitudeDegrees>
              <LongitudeDegrees>-4.48677250184118747711181640625</LongitudeDegrees>
            </Position>
            <AltitudeMeters>841.4000244140625</AltitudeMeters>
            <DistanceMeters>159094.41077713</DistanceMeters>
          </Trackpoint>
          <Trackpoint>
            <Time>2019-08-02T13:56:25.000Z</Time>
            <Position>
              <LatitudeDegrees>41.15772024728357791900634765625</LatitudeDegrees>
              <LongitudeDegrees>-4.48676110245287418365478515625</LongitudeDegrees>
            </Position>
            <AltitudeMeters>841.20001220703125</AltitudeMeters>
            <DistanceMeters>159095.37049991</DistanceMeters>
          </Trackpoint>
          <Trackpoint>
            <Time>2019-08-02T14:16:43.000Z</Time>
            <Position>
              <LatitudeDegrees>41.15784094668924808502197265625</LatitudeDegrees>
              <LongitudeDegrees>-4.4868131540715694427490234375</LongitudeDegrees>
            </Position>
            <AltitudeMeters>845.79998779296875</AltitudeMeters>
            <DistanceMeters>159109.49499915</DistanceMeters>
          </Trackpoint>
          <Trackpoint>
            <Time>2019-08-02T14:16:49.000Z</Time>
            <Position>
              <LatitudeDegrees>41.15799886174499988555908203125</LatitudeDegrees>
              <LongitudeDegrees>-4.48688951320946216583251953125</LongitudeDegrees>
            </Position>
            <AltitudeMeters>847.20001220703125</AltitudeMeters>
            <DistanceMeters>159128.19957831</DistanceMeters>
          </Trackpoint>
          <Trackpoint>
            <Time>2019-08-02T14:16:52.000Z</Time>
            <Position>
              <LatitudeDegrees>41.15807664580643177032470703125</LatitudeDegrees>
              <LongitudeDegrees>-4.48696427978575229644775390625</LongitudeDegrees>
            </Position>
            <AltitudeMeters>849.20001220703125</AltitudeMeters>
            <DistanceMeters>159138.88617631</DistanceMeters>
          </Trackpoint>
          <Trackpoint>
            <Time>2019-08-02T14:16:54.000Z</Time>
            <Position>
              <LatitudeDegrees>41.15813062526285648345947265625</LatitudeDegrees>
              <LongitudeDegrees>-4.48701524175703525543212890625</LongitudeDegrees>
            </Position>
            <AltitudeMeters>850.5999755859375</AltitudeMeters>
            <DistanceMeters>159146.2579468</DistanceMeters>
          </Trackpoint>
          <Trackpoint>
            <Time>2019-08-02T14:16:56.000Z</Time>
            <Position>
              <LatitudeDegrees>41.15818644873797893524169921875</LatitudeDegrees>
              <LongitudeDegrees>-4.4870634377002716064453125</LongitudeDegrees>
            </Position>
            <AltitudeMeters>852</AltitudeMeters>
            <DistanceMeters>159153.66881212</DistanceMeters>
          </Trackpoint>
          <Trackpoint>
            <Time>2019-08-02T14:16:58.000Z</Time>
            <Position>
              <LatitudeDegrees>41.15823942236602306365966796875</LatitudeDegrees>
              <LongitudeDegrees>-4.4871142320334911346435546875</LongitudeDegrees>
            </Position>
            <AltitudeMeters>853.20001220703125</AltitudeMeters>
            <DistanceMeters>159160.94130535</DistanceMeters>
          </Trackpoint>
          <Trackpoint>
            <Time>2019-08-02T14:17:01.000Z</Time>
            <Position>
              <LatitudeDegrees>41.15832525305449962615966796875</LatitudeDegrees>
              <LongitudeDegrees>-4.487181119620800018310546875</LongitudeDegrees>
            </Position>
            <AltitudeMeters>854.79998779296875</AltitudeMeters>
            <DistanceMeters>159172.01752396</DistanceMeters>
          </Trackpoint>
          <Trackpoint>
            <Time>2019-08-02T14:17:03.000Z</Time>
            <Position>
              <LatitudeDegrees>41.15838141180574893951416015625</LatitudeDegrees>
              <LongitudeDegrees>-4.48723048903048038482666015625</LongitudeDegrees>
            </Position>
            <AltitudeMeters>856.5999755859375</AltitudeMeters>
            <DistanceMeters>159179.51380075</DistanceMeters>
          </Trackpoint>
          <Trackpoint>
            <Time>2019-08-02T14:17:05.000Z</Time>
            <Position>
              <LatitudeDegrees>41.15844209678471088409423828125</LatitudeDegrees>
              <LongitudeDegrees>-4.48727868497371673583984375</LongitudeDegrees>
            </Position>
            <AltitudeMeters>857.79998779296875</AltitudeMeters>
            <DistanceMeters>159187.3838258</DistanceMeters>
          </Trackpoint>
          <Trackpoint>
            <Time>2019-08-02T14:17:07.000Z</Time>
            <Position>
              <LatitudeDegrees>41.1585032008588314056396484375</LatitudeDegrees>
              <LongitudeDegrees>-4.487329311668872833251953125</LongitudeDegrees>
            </Position>
            <AltitudeMeters>859.20001220703125</AltitudeMeters>
            <DistanceMeters>159195.39937281</DistanceMeters>
          </Trackpoint>
          <Trackpoint>
            <Time>2019-08-02T14:17:09.000Z</Time>
            <Position>
              <LatitudeDegrees>41.15856329910457134246826171875</LatitudeDegrees>
              <LongitudeDegrees>-4.48738220147788524627685546875</LongitudeDegrees>
            </Position>
            <AltitudeMeters>860.4000244140625</AltitudeMeters>
            <DistanceMeters>159203.42392732</DistanceMeters>
          </Trackpoint>
          <Trackpoint>
            <Time>2019-08-02T14:17:11.000Z</Time>
            <Position>
              <LatitudeDegrees>41.15862348116934299468994140625</LatitudeDegrees>
              <LongitudeDegrees>-4.48743651621043682098388671875</LongitudeDegrees>
            </Position>
            <AltitudeMeters>862.4000244140625</AltitudeMeters>
            <DistanceMeters>159211.52185392</DistanceMeters>
          </Trackpoint>
          <Trackpoint>
            <Time>2019-08-02T14:17:13.000Z</Time>
            <Position>
              <LatitudeDegrees>41.15868399851024150848388671875</LatitudeDegrees>
              <LongitudeDegrees>-4.48748948983848094940185546875</LongitudeDegrees>
            </Position>
            <AltitudeMeters>864</AltitudeMeters>
            <DistanceMeters>159219.58849701</DistanceMeters>
          </Trackpoint>
          <Trackpoint>
            <Time>2019-08-02T14:17:15.000Z</Time>
            <Position>
              <LatitudeDegrees>41.15874770097434520721435546875</LatitudeDegrees>
              <LongitudeDegrees>-4.4875420443713665008544921875</LongitudeDegrees>
            </Position>
            <AltitudeMeters>865.20001220703125</AltitudeMeters>
            <DistanceMeters>159227.93517538</DistanceMeters>
          </Trackpoint>
          <Trackpoint>
            <Time>2019-08-02T14:17:17.000Z</Time>
            <Position>
              <LatitudeDegrees>41.15881106816232204437255859375</LatitudeDegrees>
              <LongitudeDegrees>-4.48759518563747406005859375</LongitudeDegrees>
            </Position>
            <AltitudeMeters>866.5999755859375</AltitudeMeters>
            <DistanceMeters>159236.2759013</DistanceMeters>
          </Trackpoint>
          <Trackpoint>
            <Time>2019-08-02T14:17:19.000Z</Time>
            <Position>
              <LatitudeDegrees>41.15887627936899662017822265625</LatitudeDegrees>
              <LongitudeDegrees>-4.4876463152468204498291015625</LongitudeDegrees>
            </Position>
            <AltitudeMeters>868.20001220703125</AltitudeMeters>
            <DistanceMeters>159244.70386555</DistanceMeters>
          </Trackpoint>
          <Trackpoint>
            <Time>2019-08-02T14:17:21.000Z</Time>
            <Position>
              <LatitudeDegrees>41.1589397303760051727294921875</LatitudeDegrees>
              <LongitudeDegrees>-4.48769954033195972442626953125</LongitudeDegrees>
            </Position>
            <AltitudeMeters>869.5999755859375</AltitudeMeters>
            <DistanceMeters>159253.05649212</DistanceMeters>
          </Trackpoint>
          <Trackpoint>
            <Time>2019-08-02T14:17:23.000Z</Time>
            <Position>
              <LatitudeDegrees>41.159000582993030548095703125</LatitudeDegrees>
              <LongitudeDegrees>-4.4877579621970653533935546875</LongitudeDegrees>
            </Position>
            <AltitudeMeters>871.20001220703125</AltitudeMeters>
            <DistanceMeters>159261.41398225</DistanceMeters>
          </Trackpoint>
          <Trackpoint>
            <Time>2019-08-02T14:17:25.000Z</Time>
            <Position>
              <LatitudeDegrees>41.15906260907649993896484375</LatitudeDegrees>
              <LongitudeDegrees>-4.48782049119472503662109375</LongitudeDegrees>
            </Position>
            <AltitudeMeters>872.79998779296875</AltitudeMeters>
            <DistanceMeters>159270.08175221</DistanceMeters>
          </Trackpoint>
          <Trackpoint>
            <Time>2019-08-02T14:17:27.000Z</Time>
            <Position>
              <LatitudeDegrees>41.15912907756865024566650390625</LatitudeDegrees>
              <LongitudeDegrees>-4.48788008652627468109130859375</LongitudeDegrees>
            </Position>
            <AltitudeMeters>874.4000244140625</AltitudeMeters>
            <DistanceMeters>159279.00718409</DistanceMeters>
          </Trackpoint>
          <Trackpoint>
            <Time>2019-08-02T14:17:28.000Z</Time>
            <Position>
              <LatitudeDegrees>41.159163527190685272216796875</LatitudeDegrees>
              <LongitudeDegrees>-4.4879095070064067840576171875</LongitudeDegrees>
            </Position>
            <AltitudeMeters>875.4000244140625</AltitudeMeters>
            <DistanceMeters>159283.56549583</DistanceMeters>
          </Trackpoint>
          <Trackpoint>
            <Time>2019-08-02T14:17:30.000Z</Time>
            <Position>
              <LatitudeDegrees>41.15923234261572360992431640625</LatitudeDegrees>
              <LongitudeDegrees>-4.48796935379505157470703125</LongitudeDegrees>
            </Position>
            <AltitudeMeters>877</AltitudeMeters>
            <DistanceMeters>159292.72116072</DistanceMeters>
          </Trackpoint>
          <Trackpoint>
            <Time>2019-08-02T14:17:32.000Z</Time>
            <Position>
              <LatitudeDegrees>41.159301660954952239990234375</LatitudeDegrees>
              <LongitudeDegrees>-4.48803230188786983489990234375</LongitudeDegrees>
            </Position>
            <AltitudeMeters>878.20001220703125</AltitudeMeters>
            <DistanceMeters>159302.06765523</DistanceMeters>
          </Trackpoint>
          <Trackpoint>
            <Time>2019-08-02T14:17:34.000Z</Time>
            <Position>
              <LatitudeDegrees>41.15937282331287860870361328125</LatitudeDegrees>
              <LongitudeDegrees>-4.48809499852359294891357421875</LongitudeDegrees>
            </Position>
            <AltitudeMeters>879.4000244140625</AltitudeMeters>
            <DistanceMeters>159311.57222701</DistanceMeters>
          </Trackpoint>
          <Trackpoint>
            <Time>2019-08-02T14:17:36.000Z</Time>
            <Position>
              <LatitudeDegrees>41.1594436503946781158447265625</LatitudeDegrees>
              <LongitudeDegrees>-4.48815769515931606292724609375</LongitudeDegrees>
            </Position>
            <AltitudeMeters>881.20001220703125</AltitudeMeters>
            <DistanceMeters>159321.04539436</DistanceMeters>
          </Trackpoint>
          <Trackpoint>
            <Time>2019-08-02T14:17:38.000Z</Time>
            <Position>
              <LatitudeDegrees>41.1595143936574459075927734375</LatitudeDegrees>
              <LongitudeDegrees>-4.48821670375764369964599609375</LongitudeDegrees>
            </Position>
            <AltitudeMeters>882.5999755859375</AltitudeMeters>
            <DistanceMeters>159330.34345609</DistanceMeters>
          </Trackpoint>
          <Trackpoint>
            <Time>2019-08-02T14:17:40.000Z</Time>
            <Position>
              <LatitudeDegrees>41.15958287380635738372802734375</LatitudeDegrees>
              <LongitudeDegrees>-4.488272108137607574462890625</LongitudeDegrees>
            </Position>
            <AltitudeMeters>884.5999755859375</AltitudeMeters>
            <DistanceMeters>159339.2678762</DistanceMeters>
          </Trackpoint>
          <Trackpoint>
            <Time>2019-08-02T14:17:42.000Z</Time>
            <Position>
              <LatitudeDegrees>41.15965261124074459075927734375</LatitudeDegrees>
              <LongitudeDegrees>-4.4883286021649837493896484375</LongitudeDegrees>
            </Position>
            <AltitudeMeters>886</AltitudeMeters>
            <DistanceMeters>159348.35970328</DistanceMeters>
          </Trackpoint>
          <Trackpoint>
            <Time>2019-08-02T14:17:43.000Z</Time>
            <Position>
              <LatitudeDegrees>41.15968731231987476348876953125</LatitudeDegrees>
              <LongitudeDegrees>-4.48835718445479869842529296875</LongitudeDegrees>
            </Position>
            <AltitudeMeters>887</AltitudeMeters>
            <DistanceMeters>159352.90512019</DistanceMeters>
          </Trackpoint>
          <Trackpoint>
            <Time>2019-08-02T14:17:45.000Z</Time>
            <Position>
              <LatitudeDegrees>41.1597544513642787933349609375</LatitudeDegrees>
              <LongitudeDegrees>-4.48841820470988750457763671875</LongitudeDegrees>
            </Position>
            <AltitudeMeters>888.5999755859375</AltitudeMeters>
            <DistanceMeters>159361.95912671</DistanceMeters>
          </Trackpoint>
          <Trackpoint>
            <Time>2019-08-02T14:17:46.000Z</Time>
            <Position>
              <LatitudeDegrees>41.15978873334825038909912109375</LatitudeDegrees>
              <LongitudeDegrees>-4.48844653554260730743408203125</LongitudeDegrees>
            </Position>
            <AltitudeMeters>889.79998779296875</AltitudeMeters>
            <DistanceMeters>159366.45259429</DistanceMeters>
          </Trackpoint>
          <Trackpoint>
            <Time>2019-08-02T14:17:48.000Z</Time>
            <Position>
              <LatitudeDegrees>41.15985880605876445770263671875</LatitudeDegrees>
              <LongitudeDegrees>-4.48850101791322231292724609375</LongitudeDegrees>
            </Position>
            <AltitudeMeters>891.5999755859375</AltitudeMeters>
            <DistanceMeters>159375.48962983</DistanceMeters>
          </Trackpoint>
          <Trackpoint>
            <Time>2019-08-02T14:17:50.000Z</Time>
            <Position>
              <LatitudeDegrees>41.15992485545575618743896484375</LatitudeDegrees>
              <LongitudeDegrees>-4.48856136761605739593505859375</LongitudeDegrees>
            </Position>
            <AltitudeMeters>893.20001220703125</AltitudeMeters>
            <DistanceMeters>159384.41202603</DistanceMeters>
          </Trackpoint>
          <Trackpoint>
            <Time>2019-08-02T14:17:52.000Z</Time>
            <Position>
              <LatitudeDegrees>41.15999056957662105560302734375</LatitudeDegrees>
              <LongitudeDegrees>-4.488620460033416748046875</LongitudeDegrees>
            </Position>
            <AltitudeMeters>894.5999755859375</AltitudeMeters>
            <DistanceMeters>159393.24388882</DistanceMeters>
          </Trackpoint>
          <Trackpoint>
            <Time>2019-08-02T14:17:54.000Z</Time>
            <Position>
              <LatitudeDegrees>41.16006131283938884735107421875</LatitudeDegrees>
              <LongitudeDegrees>-4.48867519386112689971923828125</LongitudeDegrees>
            </Position>
            <AltitudeMeters>896.79998779296875</AltitudeMeters>
            <DistanceMeters>159402.35654941</DistanceMeters>
          </Trackpoint>
          <Trackpoint>
            <Time>2019-08-02T14:17:56.000Z</Time>
            <Position>
              <LatitudeDegrees>41.1601306311786174774169921875</LatitudeDegrees>
              <LongitudeDegrees>-4.4887299276888370513916015625</LongitudeDegrees>
            </Position>
            <AltitudeMeters>898.20001220703125</AltitudeMeters>
            <DistanceMeters>159411.33242497</DistanceMeters>
          </Trackpoint>
          <Trackpoint>
            <Time>2019-08-02T14:17:57.000Z</Time>
            <Position>
              <LatitudeDegrees>41.16016767919063568115234375</LatitudeDegrees>
              <LongitudeDegrees>-4.4887574203312397003173828125</LongitudeDegrees>
            </Position>
            <AltitudeMeters>899.20001220703125</AltitudeMeters>
            <DistanceMeters>159416.05612255</DistanceMeters>
          </Trackpoint>
          <Trackpoint>
            <Time>2019-08-02T14:17:59.000Z</Time>
            <Position>
              <LatitudeDegrees>41.16024143993854522705078125</LatitudeDegrees>
              <LongitudeDegrees>-4.48882254771888256072998046875</LongitudeDegrees>
            </Position>
            <AltitudeMeters>900.79998779296875</AltitudeMeters>
            <DistanceMeters>159425.91419958</DistanceMeters>
          </Trackpoint>
          <Trackpoint>
            <Time>2019-08-02T14:18:01.000Z</Time>
            <Position>
              <LatitudeDegrees>41.16031444631516933441162109375</LatitudeDegrees>
              <LongitudeDegrees>-4.4888851605355739593505859375</LongitudeDegrees>
            </Position>
            <AltitudeMeters>902.4000244140625</AltitudeMeters>
            <DistanceMeters>159435.58640677</DistanceMeters>
          </Trackpoint>
          <Trackpoint>
            <Time>2019-08-02T14:18:03.000Z</Time>
            <Position>
              <LatitudeDegrees>41.16039072163403034210205078125</LatitudeDegrees>
              <LongitudeDegrees>-4.48894525878131389617919921875</LongitudeDegrees>
            </Position>
            <AltitudeMeters>904.20001220703125</AltitudeMeters>
            <DistanceMeters>159445.45729958</DistanceMeters>
          </Trackpoint>
          <Trackpoint>
            <Time>2019-08-02T14:18:05.000Z</Time>
            <Position>
              <LatitudeDegrees>41.16046682931482791900634765625</LatitudeDegrees>
              <LongitudeDegrees>-4.4890058599412441253662109375</LongitudeDegrees>
            </Position>
            <AltitudeMeters>905.4000244140625</AltitudeMeters>
            <DistanceMeters>159455.33367978</DistanceMeters>
          </Trackpoint>
          <Trackpoint>
            <Time>2019-08-02T14:18:09.000Z</Time>
            <Position>
              <LatitudeDegrees>41.1606194637715816497802734375</LatitudeDegrees>
              <LongitudeDegrees>-4.48913435451686382293701171875</LongitudeDegrees>
            </Position>
            <AltitudeMeters>906.5999755859375</AltitudeMeters>
            <DistanceMeters>159475.44704411</DistanceMeters>
          </Trackpoint>
          <Trackpoint>
            <Time>2019-08-02T14:18:12.000Z</Time>
            <Position>
              <LatitudeDegrees>41.16073588840663433074951171875</LatitudeDegrees>
              <LongitudeDegrees>-4.48922722600400447845458984375</LongitudeDegrees>
            </Position>
            <AltitudeMeters>908</AltitudeMeters>
            <DistanceMeters>159490.56256574</DistanceMeters>
          </Trackpoint>
          <Trackpoint>
            <Time>2019-08-02T14:18:15.000Z</Time>
            <Position>
              <LatitudeDegrees>41.16084887646138668060302734375</LatitudeDegrees>
              <LongitudeDegrees>-4.489323534071445465087890625</LongitudeDegrees>
            </Position>
            <AltitudeMeters>909.4000244140625</AltitudeMeters>
            <DistanceMeters>159505.50504445</DistanceMeters>
          </Trackpoint>
          <Trackpoint>
            <Time>2019-08-02T14:18:19.000Z</Time>
            <Position>
              <LatitudeDegrees>41.160998828709125518798828125</LatitudeDegrees>
              <LongitudeDegrees>-4.489449597895145416259765625</LongitudeDegrees>
            </Position>
            <AltitudeMeters>910.5999755859375</AltitudeMeters>
            <DistanceMeters>159525.2571191</DistanceMeters>
          </Trackpoint>
          <Trackpoint>
            <Time>2019-08-02T14:18:20.000Z</Time>
            <Position>
              <LatitudeDegrees>41.16103629581630229949951171875</LatitudeDegrees>
              <LongitudeDegrees>-4.48948153294622898101806640625</LongitudeDegrees>
            </Position>
            <AltitudeMeters>911</AltitudeMeters>
            <DistanceMeters>159530.21128379</DistanceMeters>
          </Trackpoint>
          <Trackpoint>
            <Time>2019-08-02T14:18:21.000Z</Time>
            <Position>
              <LatitudeDegrees>41.1610740981996059417724609375</LatitudeDegrees>
              <LongitudeDegrees>-4.48951237834990024566650390625</LongitudeDegrees>
            </Position>
            <AltitudeMeters>911.5999755859375</AltitudeMeters>
            <DistanceMeters>159535.14901671</DistanceMeters>
          </Trackpoint>
          <Trackpoint>
            <Time>2019-08-02T14:18:24.000Z</Time>
            <Position>
              <LatitudeDegrees>41.16118364967405796051025390625</LatitudeDegrees>
              <LongitudeDegrees>-4.48960809968411922454833984375</LongitudeDegrees>
            </Position>
            <AltitudeMeters>913</AltitudeMeters>
            <DistanceMeters>159549.74420438</DistanceMeters>
          </Trackpoint>
          <Trackpoint>
            <Time>2019-08-02T14:18:28.000Z</Time>
            <Position>
              <LatitudeDegrees>41.1613258905708789825439453125</LatitudeDegrees>
              <LongitudeDegrees>-4.48973684571683406829833984375</LongitudeDegrees>
            </Position>
            <AltitudeMeters>914.20001220703125</AltitudeMeters>
            <DistanceMeters>159568.90216506</DistanceMeters>
          </Trackpoint>
          <Trackpoint>
            <Time>2019-08-02T14:18:32.000Z</Time>
            <Position>
              <LatitudeDegrees>41.16146377287805080413818359375</LatitudeDegrees>
              <LongitudeDegrees>-4.4898805953562259674072265625</LongitudeDegrees>
            </Position>
            <AltitudeMeters>915.5999755859375</AltitudeMeters>
            <DistanceMeters>159588.41136012</DistanceMeters>
          </Trackpoint>
          <Trackpoint>
            <Time>2019-08-02T14:18:40.000Z</Time>
            <Position>
              <LatitudeDegrees>41.16172729991376399993896484375</LatitudeDegrees>
              <LongitudeDegrees>-4.49018460698425769805908203125</LongitudeDegrees>
            </Position>
            <AltitudeMeters>917.20001220703125</AltitudeMeters>
            <DistanceMeters>159627.26043806</DistanceMeters>
          </Trackpoint>
          <Trackpoint>
            <Time>2019-08-02T14:18:48.000Z</Time>
            <Position>
              <LatitudeDegrees>41.16198713891208171844482421875</LatitudeDegrees>
              <LongitudeDegrees>-4.49048836715519428253173828125</LongitudeDegrees>
            </Position>
            <AltitudeMeters>918.5999755859375</AltitudeMeters>
            <DistanceMeters>159665.78671046</DistanceMeters>
          </Trackpoint>
          <Trackpoint>
            <Time>2019-08-02T14:18:54.000Z</Time>
            <Position>
              <LatitudeDegrees>41.16217941977083683013916015625</LatitudeDegrees>
              <LongitudeDegrees>-4.490717947483062744140625</LongitudeDegrees>
            </Position>
            <AltitudeMeters>919.79998779296875</AltitudeMeters>
            <DistanceMeters>159694.56333518</DistanceMeters>
          </Trackpoint>
          <Trackpoint>
            <Time>2019-08-02T14:18:57.000Z</Time>
            <Position>
              <LatitudeDegrees>41.1622430384159088134765625</LatitudeDegrees>
              <LongitudeDegrees>-4.49079346843063831329345703125</LongitudeDegrees>
            </Position>
            <AltitudeMeters>920.4000244140625</AltitudeMeters>
            <DistanceMeters>159704.0603033</DistanceMeters>
          </Trackpoint>
          <Trackpoint>
            <Time>2019-08-02T14:19:01.000Z</Time>
            <Position>
              <LatitudeDegrees>41.16240539588034152984619140625</LatitudeDegrees>
              <LongitudeDegrees>-4.490985162556171417236328125</LongitudeDegrees>
            </Position>
            <AltitudeMeters>921</AltitudeMeters>
            <DistanceMeters>159728.23820703</DistanceMeters>
          </Trackpoint>
          <Trackpoint>
            <Time>2019-08-02T14:19:10.000Z</Time>
            <Position>
              <LatitudeDegrees>41.1626964993774890899658203125</LatitudeDegrees>
              <LongitudeDegrees>-4.4913350231945514678955078125</LongitudeDegrees>
            </Position>
            <AltitudeMeters>922.79998779296875</AltitudeMeters>
            <DistanceMeters>159771.93272616</DistanceMeters>
          </Trackpoint>
          <Trackpoint>
            <Time>2019-08-02T14:19:15.000Z</Time>
            <Position>
              <LatitudeDegrees>41.16285667754709720611572265625</LatitudeDegrees>
              <LongitudeDegrees>-4.49153174646198749542236328125</LongitudeDegrees>
            </Position>
            <AltitudeMeters>924</AltitudeMeters>
            <DistanceMeters>159796.2136788</DistanceMeters>
          </Trackpoint>
          <Trackpoint>
            <Time>2019-08-02T14:19:16.000Z</Time>
            <Position>
              <LatitudeDegrees>41.16288970224559307098388671875</LatitudeDegrees>
              <LongitudeDegrees>-4.4915680401027202606201171875</LongitudeDegrees>
            </Position>
            <AltitudeMeters>924.20001220703125</AltitudeMeters>
            <DistanceMeters>159800.983982</DistanceMeters>
          </Trackpoint>
          <Trackpoint>
            <Time>2019-08-02T14:19:23.000Z</Time>
            <Position>
              <LatitudeDegrees>41.16313126869499683380126953125</LatitudeDegrees>
              <LongitudeDegrees>-4.49170768260955810546875</LongitudeDegrees>
            </Position>
            <AltitudeMeters>924.79998779296875</AltitudeMeters>
            <DistanceMeters>159830.30646073</DistanceMeters>
          </Trackpoint>
          <Trackpoint>
            <Time>2019-08-02T14:19:36.000Z</Time>
            <Position>
              <LatitudeDegrees>41.16352555342018604278564453125</LatitudeDegrees>
              <LongitudeDegrees>-4.4922105967998504638671875</LongitudeDegrees>
            </Position>
            <AltitudeMeters>925</AltitudeMeters>
            <DistanceMeters>159891.14775523</DistanceMeters>
          </Trackpoint>
          <Trackpoint>
            <Time>2019-08-02T14:19:41.000Z</Time>
            <Position>
              <LatitudeDegrees>41.16368011571466922760009765625</LatitudeDegrees>
              <LongitudeDegrees>-4.49240815825760364532470703125</LongitudeDegrees>
            </Position>
            <AltitudeMeters>925.20001220703125</AltitudeMeters>
            <DistanceMeters>159915.02197616</DistanceMeters>
          </Trackpoint>
          <Trackpoint>
            <Time>2019-08-02T14:19:54.000Z</Time>
            <Position>
              <LatitudeDegrees>41.1640885658562183380126953125</LatitudeDegrees>
              <LongitudeDegrees>-4.492931775748729705810546875</LongitudeDegrees>
            </Position>
            <AltitudeMeters>925.4000244140625</AltitudeMeters>
            <DistanceMeters>159978.20195061</DistanceMeters>
          </Trackpoint>
          <Trackpoint>
            <Time>2019-08-02T14:19:59.000Z</Time>
            <Position>
              <LatitudeDegrees>41.1642407812178134918212890625</LatitudeDegrees>
              <LongitudeDegrees>-4.49312615208327770233154296875</LongitudeDegrees>
            </Position>
            <AltitudeMeters>925</AltitudeMeters>
            <DistanceMeters>160001.70296198</DistanceMeters>
          </Trackpoint>
          <Trackpoint>
            <Time>2019-08-02T14:20:12.000Z</Time>
            <Position>
              <LatitudeDegrees>41.16463012062013149261474609375</LatitudeDegrees>
              <LongitudeDegrees>-4.49362881481647491455078125</LongitudeDegrees>
            </Position>
            <AltitudeMeters>924.5999755859375</AltitudeMeters>
            <DistanceMeters>160062.13330307</DistanceMeters>
          </Trackpoint>
          <Trackpoint>
            <Time>2019-08-02T14:20:14.000Z</Time>
            <Position>
              <LatitudeDegrees>41.1646913923323154449462890625</LatitudeDegrees>
              <LongitudeDegrees>-4.4937057606875896453857421875</LongitudeDegrees>
            </Position>
            <AltitudeMeters>924.5999755859375</AltitudeMeters>
            <DistanceMeters>160071.51788274</DistanceMeters>
          </Trackpoint>
          <Trackpoint>
            <Time>2019-08-02T14:20:27.000Z</Time>
            <Position>
              <LatitudeDegrees>41.16508475504815578460693359375</LatitudeDegrees>
              <LongitudeDegrees>-4.49421353638172149658203125</LongitudeDegrees>
            </Position>
            <AltitudeMeters>925.4000244140625</AltitudeMeters>
            <DistanceMeters>160132.56764729</DistanceMeters>
          </Trackpoint>
          <Trackpoint>
            <Time>2019-08-02T14:20:33.000Z</Time>
            <Position>
              <LatitudeDegrees>41.16526647470891475677490234375</LatitudeDegrees>
              <LongitudeDegrees>-4.4944477267563343048095703125</LongitudeDegrees>
            </Position>
            <AltitudeMeters>925.5999755859375</AltitudeMeters>
            <DistanceMeters>160160.74783506</DistanceMeters>
          </Trackpoint>
          <Trackpoint>
            <Time>2019-08-02T14:20:40.000Z</Time>
            <Position>
              <LatitudeDegrees>41.1654316820204257965087890625</LatitudeDegrees>
              <LongitudeDegrees>-4.49469574727118015289306640625</LongitudeDegrees>
            </Position>
            <AltitudeMeters>925.4000244140625</AltitudeMeters>
            <DistanceMeters>160188.49644923</DistanceMeters>
          </Trackpoint>
          <Trackpoint>
            <Time>2019-08-02T14:20:46.000Z</Time>
            <Position>
              <LatitudeDegrees>41.165355406701564788818359375</LatitudeDegrees>
              <LongitudeDegrees>-4.49480270035564899444580078125</LongitudeDegrees>
            </Position>
            <AltitudeMeters>925.5999755859375</AltitudeMeters>
            <DistanceMeters>160200.84114728</DistanceMeters>
          </Trackpoint>
          <Trackpoint>
            <Time>2019-08-02T14:20:48.000Z</Time>
            <Position>
              <LatitudeDegrees>41.16534727625548839569091796875</LatitudeDegrees>
              <LongitudeDegrees>-4.49486003257334232330322265625</LongitudeDegrees>
            </Position>
            <AltitudeMeters>925.20001220703125</AltitudeMeters>
            <DistanceMeters>160205.72832972</DistanceMeters>
          </Trackpoint>
          <Trackpoint>
            <Time>2019-08-02T14:20:51.000Z</Time>
            <Position>
              <LatitudeDegrees>41.16540175862610340118408203125</LatitudeDegrees>
              <LongitudeDegrees>-4.49495114386081695556640625</LongitudeDegrees>
            </Position>
            <AltitudeMeters>924.79998779296875</AltitudeMeters>
            <DistanceMeters>160215.47771866</DistanceMeters>
          </Trackpoint>
          <Trackpoint>
            <Time>2019-08-02T14:20:52.000Z</Time>
            <Position>
              <LatitudeDegrees>41.16542480885982513427734375</LatitudeDegrees>
              <LongitudeDegrees>-4.49498291127383708953857421875</LongitudeDegrees>
            </Position>
            <AltitudeMeters>924.4000244140625</AltitudeMeters>
            <DistanceMeters>160219.17522265</DistanceMeters>
          </Trackpoint>
          <Trackpoint>
            <Time>2019-08-02T14:20:55.000Z</Time>
            <Position>
              <LatitudeDegrees>41.16550661623477935791015625</LatitudeDegrees>
              <LongitudeDegrees>-4.4950725138187408447265625</LongitudeDegrees>
            </Position>
            <AltitudeMeters>923.5999755859375</AltitudeMeters>
            <DistanceMeters>160230.97691317</DistanceMeters>
          </Trackpoint>
          <Trackpoint>
            <Time>2019-08-02T14:20:59.000Z</Time>
            <Position>
              <LatitudeDegrees>41.16561097092926502227783203125</LatitudeDegrees>
              <LongitudeDegrees>-4.49521224014461040496826171875</LongitudeDegrees>
            </Position>
            <AltitudeMeters>922.5999755859375</AltitudeMeters>
            <DistanceMeters>160247.46863449</DistanceMeters>
          </Trackpoint>
          <Trackpoint>
            <Time>2019-08-02T14:21:05.000Z</Time>
            <Position>
              <LatitudeDegrees>41.165771149098873138427734375</LatitudeDegrees>
              <LongitudeDegrees>-4.49544467031955718994140625</LongitudeDegrees>
            </Position>
            <AltitudeMeters>921.5999755859375</AltitudeMeters>
            <DistanceMeters>160273.87170063</DistanceMeters>
          </Trackpoint>
          <Trackpoint>
            <Time>2019-08-02T14:21:14.000Z</Time>
            <Position>
              <LatitudeDegrees>41.16604465059936046600341796875</LatitudeDegrees>
              <LongitudeDegrees>-4.49572403915226459503173828125</LongitudeDegrees>
            </Position>
            <AltitudeMeters>921</AltitudeMeters>
            <DistanceMeters>160312.27213583</DistanceMeters>
          </Trackpoint>
          <Trackpoint>
            <Time>2019-08-02T14:21:20.000Z</Time>
            <Position>
              <LatitudeDegrees>41.16626140661537647247314453125</LatitudeDegrees>
              <LongitudeDegrees>-4.4959393702447414398193359375</LongitudeDegrees>
            </Position>
            <AltitudeMeters>920.4000244140625</AltitudeMeters>
            <DistanceMeters>160342.39785246</DistanceMeters>
          </Trackpoint>
          <Trackpoint>
            <Time>2019-08-02T14:21:26.000Z</Time>
            <Position>
              <LatitudeDegrees>41.166485287249088287353515625</LatitudeDegrees>
              <LongitudeDegrees>-4.4961375184357166290283203125</LongitudeDegrees>
            </Position>
            <AltitudeMeters>919.5999755859375</AltitudeMeters>
            <DistanceMeters>160372.34061787</DistanceMeters>
          </Trackpoint>
          <Trackpoint>
            <Time>2019-08-02T14:21:31.000Z</Time>
            <Position>
              <LatitudeDegrees>41.16666893474757671356201171875</LatitudeDegrees>
              <LongitudeDegrees>-4.49629585258662700653076171875</LongitudeDegrees>
            </Position>
            <AltitudeMeters>918.5999755859375</AltitudeMeters>
            <DistanceMeters>160396.70881019</DistanceMeters>
          </Trackpoint>
          <Trackpoint>
            <Time>2019-08-02T14:21:35.000Z</Time>
            <Position>
              <LatitudeDegrees>41.166814528405666351318359375</LatitudeDegrees>
              <LongitudeDegrees>-4.4964312203228473663330078125</LongitudeDegrees>
            </Position>
            <AltitudeMeters>917.79998779296875</AltitudeMeters>
            <DistanceMeters>160416.48852434</DistanceMeters>
          </Trackpoint>
          <Trackpoint>
            <Time>2019-08-02T14:21:40.000Z</Time>
            <Position>
              <LatitudeDegrees>41.16698057390749454498291015625</LatitudeDegrees>
              <LongitudeDegrees>-4.49663900770246982574462890625</LongitudeDegrees>
            </Position>
            <AltitudeMeters>916.79998779296875</AltitudeMeters>
            <DistanceMeters>160441.87880176</DistanceMeters>
          </Trackpoint>
          <Trackpoint>
            <Time>2019-08-02T14:21:44.000Z</Time>
            <Position>
              <LatitudeDegrees>41.16711049340665340423583984375</LatitudeDegrees>
              <LongitudeDegrees>-4.49680714868009090423583984375</LongitudeDegrees>
            </Position>
            <AltitudeMeters>915.79998779296875</AltitudeMeters>
            <DistanceMeters>160462.06722667</DistanceMeters>
          </Trackpoint>
          <Trackpoint>
            <Time>2019-08-02T14:21:49.000Z</Time>
            <Position>
              <LatitudeDegrees>41.16727360524237155914306640625</LatitudeDegrees>
              <LongitudeDegrees>-4.497017450630664825439453125</LongitudeDegrees>
            </Position>
            <AltitudeMeters>914.79998779296875</AltitudeMeters>
            <DistanceMeters>160487.36700747</DistanceMeters>
          </Trackpoint>
          <Trackpoint>
            <Time>2019-08-02T14:21:51.000Z</Time>
            <Position>
              <LatitudeDegrees>41.16733747534453868865966796875</LatitudeDegrees>
              <LongitudeDegrees>-4.49709950946271419525146484375</LongitudeDegrees>
            </Position>
            <AltitudeMeters>914.5999755859375</AltitudeMeters>
            <DistanceMeters>160497.25663628</DistanceMeters>
          </Trackpoint>
          <Trackpoint>
            <Time>2019-08-02T14:21:55.000Z</Time>
            <Position>
              <LatitudeDegrees>41.16746437735855579376220703125</LatitudeDegrees>
              <LongitudeDegrees>-4.4972627051174640655517578125</LongitudeDegrees>
            </Position>
            <AltitudeMeters>914.20001220703125</AltitudeMeters>
            <DistanceMeters>160516.91545648</DistanceMeters>
          </Trackpoint>
          <Trackpoint>
            <Time>2019-08-02T14:22:00.000Z</Time>
            <Position>
              <LatitudeDegrees>41.1676170118153095245361328125</LatitudeDegrees>
              <LongitudeDegrees>-4.4974595122039318084716796875</LongitudeDegrees>
            </Position>
            <AltitudeMeters>913</AltitudeMeters>
            <DistanceMeters>160540.59065246</DistanceMeters>
          </Trackpoint>
          <Trackpoint>
            <Time>2019-08-02T14:22:04.000Z</Time>
            <Position>
              <LatitudeDegrees>41.16773745976388454437255859375</LatitudeDegrees>
              <LongitudeDegrees>-4.49761415831744670867919921875</LongitudeDegrees>
            </Position>
            <AltitudeMeters>912.20001220703125</AltitudeMeters>
            <DistanceMeters>160559.23478727</DistanceMeters>
          </Trackpoint>
          <Trackpoint>
            <Time>2019-08-02T14:22:10.000Z</Time>
            <Position>
              <LatitudeDegrees>41.16791750304400920867919921875</LatitudeDegrees>
              <LongitudeDegrees>-4.49784524738788604736328125</LongitudeDegrees>
            </Position>
            <AltitudeMeters>911.5999755859375</AltitudeMeters>
            <DistanceMeters>160587.09982187</DistanceMeters>
          </Trackpoint>
          <Trackpoint>
            <Time>2019-08-02T14:22:17.000Z</Time>
            <Position>
              <LatitudeDegrees>41.1681259609758853912353515625</LatitudeDegrees>
              <LongitudeDegrees>-4.4981156475841999053955078125</LongitudeDegrees>
            </Position>
            <AltitudeMeters>910.5999755859375</AltitudeMeters>
            <DistanceMeters>160619.52830599</DistanceMeters>
          </Trackpoint>
          <Trackpoint>
            <Time>2019-08-02T14:22:26.000Z</Time>
            <Position>
              <LatitudeDegrees>41.1683998815715312957763671875</LatitudeDegrees>
              <LongitudeDegrees>-4.4984633289277553558349609375</LongitudeDegrees>
            </Position>
            <AltitudeMeters>909.79998779296875</AltitudeMeters>
            <DistanceMeters>160661.6959755</DistanceMeters>
          </Trackpoint>
          <Trackpoint>
            <Time>2019-08-02T14:22:30.000Z</Time>
            <Position>
              <LatitudeDegrees>41.1685168929398059844970703125</LatitudeDegrees>
              <LongitudeDegrees>-4.49861512519419193267822265625</LongitudeDegrees>
            </Position>
            <AltitudeMeters>909</AltitudeMeters>
            <DistanceMeters>160679.899483</DistanceMeters>
          </Trackpoint>
          <Trackpoint>
            <Time>2019-08-02T14:22:35.000Z</Time>
            <Position>
              <LatitudeDegrees>41.16866382770240306854248046875</LatitudeDegrees>
              <LongitudeDegrees>-4.49880539439618587493896484375</LongitudeDegrees>
            </Position>
            <AltitudeMeters>907.79998779296875</AltitudeMeters>
            <DistanceMeters>160702.73794345</DistanceMeters>
          </Trackpoint>
          <Trackpoint>
            <Time>2019-08-02T14:22:41.000Z</Time>
            <Position>
              <LatitudeDegrees>41.1688427813351154327392578125</LatitudeDegrees>
              <LongitudeDegrees>-4.49903237633407115936279296875</LongitudeDegrees>
            </Position>
            <AltitudeMeters>907</AltitudeMeters>
            <DistanceMeters>160730.27667871</DistanceMeters>
          </Trackpoint>
          <Trackpoint>
            <Time>2019-08-02T14:22:48.000Z</Time>
            <Position>
              <LatitudeDegrees>41.1690553463995456695556640625</LatitudeDegrees>
              <LongitudeDegrees>-4.4993031956255435943603515625</LongitudeDegrees>
            </Position>
            <AltitudeMeters>906</AltitudeMeters>
            <DistanceMeters>160763.05786519</DistanceMeters>
          </Trackpoint>
          <Trackpoint>
            <Time>2019-08-02T14:23:02.000Z</Time>
            <Position>
              <LatitudeDegrees>41.16946781985461711883544921875</LatitudeDegrees>
              <LongitudeDegrees>-4.49983117170631885528564453125</LongitudeDegrees>
            </Position>
            <AltitudeMeters>905.79998779296875</AltitudeMeters>
            <DistanceMeters>160826.8112305</DistanceMeters>
          </Trackpoint>
          <Trackpoint>
            <Time>2019-08-02T14:23:12.000Z</Time>
            <Position>
              <LatitudeDegrees>41.1697731725871562957763671875</LatitudeDegrees>
              <LongitudeDegrees>-4.500223696231842041015625</LongitudeDegrees>
            </Position>
            <AltitudeMeters>905.79998779296875</AltitudeMeters>
            <DistanceMeters>160874.10447108</DistanceMeters>
          </Trackpoint>
          <Trackpoint>
            <Time>2019-08-02T14:23:17.000Z</Time>
            <Position>
              <LatitudeDegrees>41.16992882452905178070068359375</LatitudeDegrees>
              <LongitudeDegrees>-4.50042041949927806854248046875</LongitudeDegrees>
            </Position>
            <AltitudeMeters>905</AltitudeMeters>
            <DistanceMeters>160898.01686328</DistanceMeters>
          </Trackpoint>
          <Trackpoint>
            <Time>2019-08-02T14:23:23.000Z</Time>
            <Position>
              <LatitudeDegrees>41.1701171658933162689208984375</LatitudeDegrees>
              <LongitudeDegrees>-4.50066232122480869293212890625</LongitudeDegrees>
            </Position>
            <AltitudeMeters>904</AltitudeMeters>
            <DistanceMeters>160927.17504836</DistanceMeters>
          </Trackpoint>
          <Trackpoint>
            <Time>2019-08-02T14:23:29.000Z</Time>
            <Position>
              <LatitudeDegrees>41.1703112907707691192626953125</LatitudeDegrees>
              <LongitudeDegrees>-4.5009115152060985565185546875</LongitudeDegrees>
            </Position>
            <AltitudeMeters>903.20001220703125</AltitudeMeters>
            <DistanceMeters>160957.2206261</DistanceMeters>
          </Trackpoint>
          <Trackpoint>
            <Time>2019-08-02T14:23:30.000Z</Time>
            <Position>
              <LatitudeDegrees>41.170343644917011260986328125</LatitudeDegrees>
              <LongitudeDegrees>-4.50095468200743198394775390625</LongitudeDegrees>
            </Position>
            <AltitudeMeters>903</AltitudeMeters>
            <DistanceMeters>160962.32383494</DistanceMeters>
          </Trackpoint>
          <Trackpoint>
            <Time>2019-08-02T14:23:34.000Z</Time>
            <Position>
              <LatitudeDegrees>41.1704792641103267669677734375</LatitudeDegrees>
              <LongitudeDegrees>-4.50112751685082912445068359375</LongitudeDegrees>
            </Position>
            <AltitudeMeters>902.4000244140625</AltitudeMeters>
            <DistanceMeters>160983.24137122</DistanceMeters>
          </Trackpoint>
          <Trackpoint>
            <Time>2019-08-02T14:23:38.000Z</Time>
            <Position>
              <LatitudeDegrees>41.1706200800836086273193359375</LatitudeDegrees>
              <LongitudeDegrees>-4.5013153553009033203125</LongitudeDegrees>
            </Position>
            <AltitudeMeters>901.4000244140625</AltitudeMeters>
            <DistanceMeters>161005.4524301</DistanceMeters>
          </Trackpoint>
          <Trackpoint>
            <Time>2019-08-02T14:23:45.000Z</Time>
            <Position>
              <LatitudeDegrees>41.17088176310062408447265625</LatitudeDegrees>
              <LongitudeDegrees>-4.50163931585848331451416015625</LongitudeDegrees>
            </Position>
            <AltitudeMeters>900.4000244140625</AltitudeMeters>
            <DistanceMeters>161045.26465433</DistanceMeters>
          </Trackpoint>
          <Trackpoint>
            <Time>2019-08-02T14:23:51.000Z</Time>
            <Position>
              <LatitudeDegrees>41.17110413499176502227783203125</LatitudeDegrees>
              <LongitudeDegrees>-4.50192363001406192779541015625</LongitudeDegrees>
            </Position>
            <AltitudeMeters>899.5999755859375</AltitudeMeters>
            <DistanceMeters>161079.61572722</DistanceMeters>
          </Trackpoint>
          <Trackpoint>
            <Time>2019-08-02T14:23:59.000Z</Time>
            <Position>
              <LatitudeDegrees>41.1713881976902484893798828125</LatitudeDegrees>
              <LongitudeDegrees>-4.5022876560688018798828125</LongitudeDegrees>
            </Position>
            <AltitudeMeters>898.5999755859375</AltitudeMeters>
            <DistanceMeters>161123.54521136</DistanceMeters>
          </Trackpoint>
          <Trackpoint>
            <Time>2019-08-02T14:24:07.000Z</Time>
            <Position>
              <LatitudeDegrees>41.17166974581778049468994140625</LatitudeDegrees>
              <LongitudeDegrees>-4.50265084393322467803955078125</LongitudeDegrees>
            </Position>
            <AltitudeMeters>897.79998779296875</AltitudeMeters>
            <DistanceMeters>161167.22464143</DistanceMeters>
          </Trackpoint>
          <Trackpoint>
            <Time>2019-08-02T14:24:15.000Z</Time>
            <Position>
              <LatitudeDegrees>41.171945594251155853271484375</LatitudeDegrees>
              <LongitudeDegrees>-4.50300221331417560577392578125</LongitudeDegrees>
            </Position>
            <AltitudeMeters>897</AltitudeMeters>
            <DistanceMeters>161209.75989806</DistanceMeters>
          </Trackpoint>
          <Trackpoint>
            <Time>2019-08-02T14:24:23.000Z</Time>
            <Position>
              <LatitudeDegrees>41.1722260527312755584716796875</LatitudeDegrees>
              <LongitudeDegrees>-4.5033620484173297882080078125</LongitudeDegrees>
            </Position>
            <AltitudeMeters>896.20001220703125</AltitudeMeters>
            <DistanceMeters>161253.15663322</DistanceMeters>
          </Trackpoint>
          <Trackpoint>
            <Time>2019-08-02T14:24:29.000Z</Time>
            <Position>
              <LatitudeDegrees>41.17240232415497303009033203125</LatitudeDegrees>
              <LongitudeDegrees>-4.5035913772881031036376953125</LongitudeDegrees>
            </Position>
            <AltitudeMeters>895.20001220703125</AltitudeMeters>
            <DistanceMeters>161280.61688747</DistanceMeters>
          </Trackpoint>
          <Trackpoint>
            <Time>2019-08-02T14:24:35.000Z</Time>
            <Position>
              <LatitudeDegrees>41.17261555977165699005126953125</LatitudeDegrees>
              <LongitudeDegrees>-4.503866136074066162109375</LongitudeDegrees>
            </Position>
            <AltitudeMeters>894.20001220703125</AltitudeMeters>
            <DistanceMeters>161313.68003953</DistanceMeters>
          </Trackpoint>
          <Trackpoint>
            <Time>2019-08-02T14:24:42.000Z</Time>
            <Position>
              <LatitudeDegrees>41.17288948036730289459228515625</LatitudeDegrees>
              <LongitudeDegrees>-4.5042242109775543212890625</LongitudeDegrees>
            </Position>
            <AltitudeMeters>893.4000244140625</AltitudeMeters>
            <DistanceMeters>161356.4524071</DistanceMeters>
          </Trackpoint>
          <Trackpoint>
            <Time>2019-08-02T14:24:46.000Z</Time>
            <Position>
              <LatitudeDegrees>41.17302593775093555450439453125</LatitudeDegrees>
              <LongitudeDegrees>-4.50439989566802978515625</LongitudeDegrees>
            </Position>
            <AltitudeMeters>892.5999755859375</AltitudeMeters>
            <DistanceMeters>161377.602203</DistanceMeters>
          </Trackpoint>
          <Trackpoint>
            <Time>2019-08-02T14:24:51.000Z</Time>
            <Position>
              <LatitudeDegrees>41.17320748977363109588623046875</LatitudeDegrees>
              <LongitudeDegrees>-4.504627548158168792724609375</LongitudeDegrees>
            </Position>
            <AltitudeMeters>891.4000244140625</AltitudeMeters>
            <DistanceMeters>161405.38870325</DistanceMeters>
          </Trackpoint>
          <Trackpoint>
            <Time>2019-08-02T14:24:58.000Z</Time>
            <Position>
              <LatitudeDegrees>41.17341703735291957855224609375</LatitudeDegrees>
              <LongitudeDegrees>-4.50489501468837261199951171875</LongitudeDegrees>
            </Position>
            <AltitudeMeters>890.5999755859375</AltitudeMeters>
            <DistanceMeters>161437.73200558</DistanceMeters>
          </Trackpoint>
          <Trackpoint>
            <Time>2019-08-02T14:25:03.000Z</Time>
            <Position>
              <LatitudeDegrees>41.1736209690570831298828125</LatitudeDegrees>
              <LongitudeDegrees>-4.505150578916072845458984375</LongitudeDegrees>
            </Position>
            <AltitudeMeters>889.4000244140625</AltitudeMeters>
            <DistanceMeters>161468.93508031</DistanceMeters>
          </Trackpoint>
          <Trackpoint>
            <Time>2019-08-02T14:25:07.000Z</Time>
            <Position>
              <LatitudeDegrees>41.1737537384033203125</LatitudeDegrees>
              <LongitudeDegrees>-4.50531846843659877777099609375</LongitudeDegrees>
            </Position>
            <AltitudeMeters>888.5999755859375</AltitudeMeters>
            <DistanceMeters>161489.33641074</DistanceMeters>
          </Trackpoint>
          <Trackpoint>
            <Time>2019-08-02T14:25:11.000Z</Time>
            <Position>
              <LatitudeDegrees>41.1738524772226810455322265625</LatitudeDegrees>
              <LongitudeDegrees>-4.50544402934610843658447265625</LongitudeDegrees>
            </Position>
            <AltitudeMeters>887.5999755859375</AltitudeMeters>
            <DistanceMeters>161504.54899761</DistanceMeters>
          </Trackpoint>
          <Trackpoint>
            <Time>2019-08-02T14:25:17.000Z</Time>
            <Position>
              <LatitudeDegrees>41.17404584772884845733642578125</LatitudeDegrees>
              <LongitudeDegrees>-4.505693055689334869384765625</LongitudeDegrees>
            </Position>
            <AltitudeMeters>886.5999755859375</AltitudeMeters>
            <DistanceMeters>161534.52356259</DistanceMeters>
          </Trackpoint>
          <Trackpoint>
            <Time>2019-08-02T14:25:26.000Z</Time>
            <Position>
              <LatitudeDegrees>41.17433921433985233306884765625</LatitudeDegrees>
              <LongitudeDegrees>-4.50606219470500946044921875</LongitudeDegrees>
            </Position>
            <AltitudeMeters>885.5999755859375</AltitudeMeters>
            <DistanceMeters>161579.49660543</DistanceMeters>
          </Trackpoint>
          <Trackpoint>
            <Time>2019-08-02T14:25:32.000Z</Time>
            <Position>
              <LatitudeDegrees>41.174528561532497406005859375</LatitudeDegrees>
              <LongitudeDegrees>-4.50630535371601581573486328125</LongitudeDegrees>
            </Position>
            <AltitudeMeters>884.5999755859375</AltitudeMeters>
            <DistanceMeters>161608.80768751</DistanceMeters>
          </Trackpoint>
          <Trackpoint>
            <Time>2019-08-02T14:25:34.000Z</Time>
            <Position>
              <LatitudeDegrees>41.17459134198725223541259765625</LatitudeDegrees>
              <LongitudeDegrees>-4.506385736167430877685546875</LongitudeDegrees>
            </Position>
            <AltitudeMeters>884.20001220703125</AltitudeMeters>
            <DistanceMeters>161618.51158555</DistanceMeters>
          </Trackpoint>
          <Trackpoint>
            <Time>2019-08-02T14:25:37.000Z</Time>
            <Position>
              <LatitudeDegrees>41.1746859736740589141845703125</LatitudeDegrees>
              <LongitudeDegrees>-4.50650601647794246673583984375</LongitudeDegrees>
            </Position>
            <AltitudeMeters>883.79998779296875</AltitudeMeters>
            <DistanceMeters>161633.08820034</DistanceMeters>
          </Trackpoint>
          <Trackpoint>
            <Time>2019-08-02T14:25:43.000Z</Time>
            <Position>
              <LatitudeDegrees>41.17487045936286449432373046875</LatitudeDegrees>
              <LongitudeDegrees>-4.5067453198134899139404296875</LongitudeDegrees>
            </Position>
            <AltitudeMeters>882.5999755859375</AltitudeMeters>
            <DistanceMeters>161661.78579609</DistanceMeters>
          </Trackpoint>
          <Trackpoint>
            <Time>2019-08-02T14:25:48.000Z</Time>
            <Position>
              <LatitudeDegrees>41.17502368055284023284912109375</LatitudeDegrees>
              <LongitudeDegrees>-4.5069458149373531341552734375</LongitudeDegrees>
            </Position>
            <AltitudeMeters>881.5999755859375</AltitudeMeters>
            <DistanceMeters>161685.72272176</DistanceMeters>
          </Trackpoint>
          <Trackpoint>
            <Time>2019-08-02T14:25:56.000Z</Time>
            <Position>
              <LatitudeDegrees>41.17526809684932231903076171875</LatitudeDegrees>
              <LongitudeDegrees>-4.5072509162127971649169921875</LongitudeDegrees>
            </Position>
            <AltitudeMeters>880.5999755859375</AltitudeMeters>
            <DistanceMeters>161723.05092793</DistanceMeters>
          </Trackpoint>
          <Trackpoint>
            <Time>2019-08-02T14:26:04.000Z</Time>
            <Position>
              <LatitudeDegrees>41.1755087412893772125244140625</LatitudeDegrees>
              <LongitudeDegrees>-4.50756154954433441162109375</LongitudeDegrees>
            </Position>
            <AltitudeMeters>879.5999755859375</AltitudeMeters>
            <DistanceMeters>161760.39570128</DistanceMeters>
          </Trackpoint>
          <Trackpoint>
            <Time>2019-08-02T14:26:10.000Z</Time>
            <Position>
              <LatitudeDegrees>41.1756914667785167694091796875</LatitudeDegrees>
              <LongitudeDegrees>-4.507795907557010650634765625</LongitudeDegrees>
            </Position>
            <AltitudeMeters>878.5999755859375</AltitudeMeters>
            <DistanceMeters>161788.66403258</DistanceMeters>
          </Trackpoint>
          <Trackpoint>
            <Time>2019-08-02T14:26:15.000Z</Time>
            <Position>
              <LatitudeDegrees>41.1758772097527980804443359375</LatitudeDegrees>
              <LongitudeDegrees>-4.5080357976257801055908203125</LongitudeDegrees>
            </Position>
            <AltitudeMeters>877.4000244140625</AltitudeMeters>
            <DistanceMeters>161817.49614623</DistanceMeters>
          </Trackpoint>
          <Trackpoint>
            <Time>2019-08-02T14:26:21.000Z</Time>
            <Position>
              <LatitudeDegrees>41.17603428661823272705078125</LatitudeDegrees>
              <LongitudeDegrees>-4.50823687948286533355712890625</LongitudeDegrees>
            </Position>
            <AltitudeMeters>876.20001220703125</AltitudeMeters>
            <DistanceMeters>161841.77430946</DistanceMeters>
          </Trackpoint>
          <Trackpoint>
            <Time>2019-08-02T14:26:26.000Z</Time>
            <Position>
              <LatitudeDegrees>41.1761927045881748199462890625</LatitudeDegrees>
              <LongitudeDegrees>-4.5084428228437900543212890625</LongitudeDegrees>
            </Position>
            <AltitudeMeters>875.4000244140625</AltitudeMeters>
            <DistanceMeters>161866.44339825</DistanceMeters>
          </Trackpoint>
          <Trackpoint>
            <Time>2019-08-02T14:26:32.000Z</Time>
            <Position>
              <LatitudeDegrees>41.17637752555310726165771484375</LatitudeDegrees>
              <LongitudeDegrees>-4.50868464075028896331787109375</LongitudeDegrees>
            </Position>
            <AltitudeMeters>874</AltitudeMeters>
            <DistanceMeters>161895.31494751</DistanceMeters>
          </Trackpoint>
          <Trackpoint>
            <Time>2019-08-02T14:26:39.000Z</Time>
            <Position>
              <LatitudeDegrees>41.17661238647997379302978515625</LatitudeDegrees>
              <LongitudeDegrees>-4.50898555107414722442626953125</LongitudeDegrees>
            </Position>
            <AltitudeMeters>873</AltitudeMeters>
            <DistanceMeters>161931.63044798</DistanceMeters>
          </Trackpoint>
          <Trackpoint>
            <Time>2019-08-02T14:26:44.000Z</Time>
            <Position>
              <LatitudeDegrees>41.17679997347295284271240234375</LatitudeDegrees>
              <LongitudeDegrees>-4.50922510586678981781005859375</LongitudeDegrees>
            </Position>
            <AltitudeMeters>872.20001220703125</AltitudeMeters>
            <DistanceMeters>161960.59037511</DistanceMeters>
          </Trackpoint>
          <Trackpoint>
            <Time>2019-08-02T14:26:50.000Z</Time>
            <Position>
              <LatitudeDegrees>41.17695671506226062774658203125</LatitudeDegrees>
              <LongitudeDegrees>-4.50942224822938442230224609375</LongitudeDegrees>
            </Position>
            <AltitudeMeters>871.20001220703125</AltitudeMeters>
            <DistanceMeters>161984.61353447</DistanceMeters>
          </Trackpoint>
          <Trackpoint>
            <Time>2019-08-02T14:26:56.000Z</Time>
            <Position>
              <LatitudeDegrees>41.1771432124078273773193359375</LatitudeDegrees>
              <LongitudeDegrees>-4.5096615515649318695068359375</LongitudeDegrees>
            </Position>
            <AltitudeMeters>870</AltitudeMeters>
            <DistanceMeters>162013.47147514</DistanceMeters>
          </Trackpoint>
          <Trackpoint>
            <Time>2019-08-02T14:27:03.000Z</Time>
            <Position>
              <LatitudeDegrees>41.17736424319446086883544921875</LatitudeDegrees>
              <LongitudeDegrees>-4.50994645245373249053955078125</LongitudeDegrees>
            </Position>
            <AltitudeMeters>869.20001220703125</AltitudeMeters>
            <DistanceMeters>162047.74780992</DistanceMeters>
          </Trackpoint>
          <Trackpoint>
            <Time>2019-08-02T14:27:09.000Z</Time>
            <Position>
              <LatitudeDegrees>41.17758904583752155303955078125</LatitudeDegrees>
              <LongitudeDegrees>-4.5102301798760890960693359375</LongitudeDegrees>
            </Position>
            <AltitudeMeters>868</AltitudeMeters>
            <DistanceMeters>162082.25886471</DistanceMeters>
          </Trackpoint>
          <Trackpoint>
            <Time>2019-08-02T14:27:19.000Z</Time>
            <Position>
              <LatitudeDegrees>41.17785944603383541107177734375</LatitudeDegrees>
              <LongitudeDegrees>-4.510577023029327392578125</LongitudeDegrees>
            </Position>
            <AltitudeMeters>867.5999755859375</AltitudeMeters>
            <DistanceMeters>162124.0924263</DistanceMeters>
          </Trackpoint>
          <Trackpoint>
            <Time>2019-08-02T14:27:21.000Z</Time>
            <Position>
              <LatitudeDegrees>41.1779398284852504730224609375</LatitudeDegrees>
              <LongitudeDegrees>-4.5107015781104564666748046875</LongitudeDegrees>
            </Position>
            <AltitudeMeters>867.20001220703125</AltitudeMeters>
            <DistanceMeters>162137.83750757</DistanceMeters>
          </Trackpoint>
          <Trackpoint>
            <Time>2019-08-02T14:27:26.000Z</Time>
            <Position>
              <LatitudeDegrees>41.17806497029960155487060546875</LatitudeDegrees>
              <LongitudeDegrees>-4.510861001908779144287109375</LongitudeDegrees>
            </Position>
            <AltitudeMeters>866</AltitudeMeters>
            <DistanceMeters>162157.13424907</DistanceMeters>
          </Trackpoint>
          <Trackpoint>
            <Time>2019-08-02T14:27:37.000Z</Time>
            <Position>
              <LatitudeDegrees>41.17845229804515838623046875</LatitudeDegrees>
              <LongitudeDegrees>-4.51135980896651744842529296875</LongitudeDegrees>
            </Position>
            <AltitudeMeters>866.20001220703125</AltitudeMeters>
            <DistanceMeters>162217.17278598</DistanceMeters>
          </Trackpoint>
          <Trackpoint>
            <Time>2019-08-02T14:27:50.000Z</Time>
            <Position>
              <LatitudeDegrees>41.1788512766361236572265625</LatitudeDegrees>
              <LongitudeDegrees>-4.51188233681023120880126953125</LongitudeDegrees>
            </Position>
            <AltitudeMeters>866.79998779296875</AltitudeMeters>
            <DistanceMeters>162279.5274739</DistanceMeters>
          </Trackpoint>
          <Trackpoint>
            <Time>2019-08-02T14:28:02.000Z</Time>
            <Position>
              <LatitudeDegrees>41.17922100238502025604248046875</LatitudeDegrees>
              <LongitudeDegrees>-4.51236362569034099578857421875</LongitudeDegrees>
            </Position>
            <AltitudeMeters>865.4000244140625</AltitudeMeters>
            <DistanceMeters>162337.13827668</DistanceMeters>
          </Trackpoint>
          <Trackpoint>
            <Time>2019-08-02T14:28:14.000Z</Time>
            <Position>
              <LatitudeDegrees>41.17958896793425083160400390625</LatitudeDegrees>
              <LongitudeDegrees>-4.5128346048295497894287109375</LongitudeDegrees>
            </Position>
            <AltitudeMeters>864.4000244140625</AltitudeMeters>
            <DistanceMeters>162394.00666436</DistanceMeters>
          </Trackpoint>
          <Trackpoint>
            <Time>2019-08-02T14:28:17.000Z</Time>
            <Position>
              <LatitudeDegrees>41.17968116886913776397705078125</LatitudeDegrees>
              <LongitudeDegrees>-4.512956142425537109375</LongitudeDegrees>
            </Position>
            <AltitudeMeters>864</AltitudeMeters>
            <DistanceMeters>162408.4625984</DistanceMeters>
          </Trackpoint>
          <Trackpoint>
            <Time>2019-08-02T14:28:20.000Z</Time>
            <Position>
              <LatitudeDegrees>41.1797711066901683807373046875</LatitudeDegrees>
              <LongitudeDegrees>-4.51306988485157489776611328125</LongitudeDegrees>
            </Position>
            <AltitudeMeters>863.5999755859375</AltitudeMeters>
            <DistanceMeters>162422.28302448</DistanceMeters>
          </Trackpoint>
          <Trackpoint>
            <Time>2019-08-02T14:28:34.000Z</Time>
            <Position>
              <LatitudeDegrees>41.1802106536924839019775390625</LatitudeDegrees>
              <LongitudeDegrees>-4.5136295445263385772705078125</LongitudeDegrees>
            </Position>
            <AltitudeMeters>863.79998779296875</AltitudeMeters>
            <DistanceMeters>162490.04313567</DistanceMeters>
          </Trackpoint>
          <Trackpoint>
            <Time>2019-08-02T14:28:47.000Z</Time>
            <Position>
              <LatitudeDegrees>41.180628240108489990234375</LatitudeDegrees>
              <LongitudeDegrees>-4.514144361019134521484375</LongitudeDegrees>
            </Position>
            <AltitudeMeters>864</AltitudeMeters>
            <DistanceMeters>162553.44739209</DistanceMeters>
          </Trackpoint>
          <Trackpoint>
            <Time>2019-08-02T14:29:00.000Z</Time>
            <Position>
              <LatitudeDegrees>41.1810444854199886322021484375</LatitudeDegrees>
              <LongitudeDegrees>-4.514683149755001068115234375</LongitudeDegrees>
            </Position>
            <AltitudeMeters>864.20001220703125</AltitudeMeters>
            <DistanceMeters>162618.12715612</DistanceMeters>
          </Trackpoint>
          <Trackpoint>
            <Time>2019-08-02T14:29:09.000Z</Time>
            <Position>
              <LatitudeDegrees>41.1813401989638805389404296875</LatitudeDegrees>
              <LongitudeDegrees>-4.5150537975132465362548828125</LongitudeDegrees>
            </Position>
            <AltitudeMeters>863.20001220703125</AltitudeMeters>
            <DistanceMeters>162663.37464281</DistanceMeters>
          </Trackpoint>
          <Trackpoint>
            <Time>2019-08-02T14:29:19.000Z</Time>
            <Position>
              <LatitudeDegrees>41.1816687695682048797607421875</LatitudeDegrees>
              <LongitudeDegrees>-4.51547616161406040191650390625</LongitudeDegrees>
            </Position>
            <AltitudeMeters>862.20001220703125</AltitudeMeters>
            <DistanceMeters>162714.25903048</DistanceMeters>
          </Trackpoint>
          <Trackpoint>
            <Time>2019-08-02T14:29:31.000Z</Time>
            <Position>
              <LatitudeDegrees>41.18206246756017208099365234375</LatitudeDegrees>
              <LongitudeDegrees>-4.51597320847213268280029296875</LongitudeDegrees>
            </Position>
            <AltitudeMeters>862</AltitudeMeters>
            <DistanceMeters>162774.70543311</DistanceMeters>
          </Trackpoint>
          <Trackpoint>
            <Time>2019-08-02T14:29:36.000Z</Time>
            <Position>
              <LatitudeDegrees>41.18222172372043132781982421875</LatitudeDegrees>
              <LongitudeDegrees>-4.51617588289082050323486328125</LongitudeDegrees>
            </Position>
            <AltitudeMeters>861.20001220703125</AltitudeMeters>
            <DistanceMeters>162799.24993392</DistanceMeters>
          </Trackpoint>
          <Trackpoint>
            <Time>2019-08-02T14:29:49.000Z</Time>
            <Position>
              <LatitudeDegrees>41.18263461627066135406494140625</LatitudeDegrees>
              <LongitudeDegrees>-4.51670159585773944854736328125</LongitudeDegrees>
            </Position>
            <AltitudeMeters>860.5999755859375</AltitudeMeters>
            <DistanceMeters>162862.89953373</DistanceMeters>
          </Trackpoint>
          <Trackpoint>
            <Time>2019-08-02T14:29:50.000Z</Time>
            <Position>
              <LatitudeDegrees>41.1826658807694911956787109375</LatitudeDegrees>
              <LongitudeDegrees>-4.51674099080264568328857421875</LongitudeDegrees>
            </Position>
            <AltitudeMeters>860.4000244140625</AltitudeMeters>
            <DistanceMeters>162867.69626541</DistanceMeters>
          </Trackpoint>
          <Trackpoint>
            <Time>2019-08-02T14:30:03.000Z</Time>
            <Position>
              <LatitudeDegrees>41.18308086879551410675048828125</LatitudeDegrees>
              <LongitudeDegrees>-4.517270140349864959716796875</LongitudeDegrees>
            </Position>
            <AltitudeMeters>859.79998779296875</AltitudeMeters>
            <DistanceMeters>162931.71324576</DistanceMeters>
          </Trackpoint>
          <Trackpoint>
            <Time>2019-08-02T14:30:15.000Z</Time>
            <Position>
              <LatitudeDegrees>41.18349594064056873321533203125</LatitudeDegrees>
              <LongitudeDegrees>-4.51780892908573150634765625</LongitudeDegrees>
            </Position>
            <AltitudeMeters>861.20001220703125</AltitudeMeters>
            <DistanceMeters>162996.29828343</DistanceMeters>
          </Trackpoint>
          <Trackpoint>
            <Time>2019-08-02T14:30:21.000Z</Time>
            <Position>
              <LatitudeDegrees>41.1837025545537471771240234375</LatitudeDegrees>
              <LongitudeDegrees>-4.5180736295878887176513671875</LongitudeDegrees>
            </Position>
            <AltitudeMeters>862</AltitudeMeters>
            <DistanceMeters>163028.243376</DistanceMeters>
          </Trackpoint>
          <Trackpoint>
            <Time>2019-08-02T14:30:29.000Z</Time>
            <Position>
              <LatitudeDegrees>41.1839768104255199432373046875</LatitudeDegrees>
              <LongitudeDegrees>-4.518428854644298553466796875</LongitudeDegrees>
            </Position>
            <AltitudeMeters>863</AltitudeMeters>
            <DistanceMeters>163070.87204655</DistanceMeters>
          </Trackpoint>
          <Trackpoint>
            <Time>2019-08-02T14:30:40.000Z</Time>
            <Position>
              <LatitudeDegrees>41.1843685805797576904296875</LatitudeDegrees>
              <LongitudeDegrees>-4.5189269073307514190673828125</LongitudeDegrees>
            </Position>
            <AltitudeMeters>863.5999755859375</AltitudeMeters>
            <DistanceMeters>163131.22029508</DistanceMeters>
          </Trackpoint>
          <Trackpoint>
            <Time>2019-08-02T14:30:51.000Z</Time>
            <Position>
              <LatitudeDegrees>41.1847440898418426513671875</LatitudeDegrees>
              <LongitudeDegrees>-4.51940484344959259033203125</LongitudeDegrees>
            </Position>
            <AltitudeMeters>862.5999755859375</AltitudeMeters>
            <DistanceMeters>163189.09577699</DistanceMeters>
          </Trackpoint>
          <Trackpoint>
            <Time>2019-08-02T14:30:53.000Z</Time>
            <Position>
              <LatitudeDegrees>41.184810809791088104248046875</LatitudeDegrees>
              <LongitudeDegrees>-4.51949067413806915283203125</LongitudeDegrees>
            </Position>
            <AltitudeMeters>862.20001220703125</AltitudeMeters>
            <DistanceMeters>163199.43187076</DistanceMeters>
          </Trackpoint>
          <Trackpoint>
            <Time>2019-08-02T14:30:58.000Z</Time>
            <Position>
              <LatitudeDegrees>41.18497811257839202880859375</LatitudeDegrees>
              <LongitudeDegrees>-4.51970416121184825897216796875</LongitudeDegrees>
            </Position>
            <AltitudeMeters>861.20001220703125</AltitudeMeters>
            <DistanceMeters>163225.24924926</DistanceMeters>
          </Trackpoint>
          <Trackpoint>
            <Time>2019-08-02T14:31:10.000Z</Time>
            <Position>
              <LatitudeDegrees>41.18537851609289646148681640625</LatitudeDegrees>
              <LongitudeDegrees>-4.52021646313369274139404296875</LongitudeDegrees>
            </Position>
            <AltitudeMeters>860.5999755859375</AltitudeMeters>
            <DistanceMeters>163287.11682204</DistanceMeters>
          </Trackpoint>
          <Trackpoint>
            <Time>2019-08-02T14:31:14.000Z</Time>
            <Position>
              <LatitudeDegrees>41.18551178835332393646240234375</LatitudeDegrees>
              <LongitudeDegrees>-4.52038644813001155853271484375</LongitudeDegrees>
            </Position>
            <AltitudeMeters>860.4000244140625</AltitudeMeters>
            <DistanceMeters>163307.67775731</DistanceMeters>
          </Trackpoint>
          <Trackpoint>
            <Time>2019-08-02T14:31:26.000Z</Time>
            <Position>
              <LatitudeDegrees>41.18589945137500762939453125</LatitudeDegrees>
              <LongitudeDegrees>-4.5208869315683841705322265625</LongitudeDegrees>
            </Position>
            <AltitudeMeters>859.4000244140625</AltitudeMeters>
            <DistanceMeters>163367.8374733</DistanceMeters>
          </Trackpoint>
          <Trackpoint>
            <Time>2019-08-02T14:31:30.000Z</Time>
            <Position>
              <LatitudeDegrees>41.18601478636264801025390625</LatitudeDegrees>
              <LongitudeDegrees>-4.5210421644151210784912109375</LongitudeDegrees>
            </Position>
            <AltitudeMeters>859.4000244140625</AltitudeMeters>
            <DistanceMeters>163386.10930917</DistanceMeters>
          </Trackpoint>
          <Trackpoint>
            <Time>2019-08-02T14:31:42.000Z</Time>
            <Position>
              <LatitudeDegrees>41.18643094785511493682861328125</LatitudeDegrees>
              <LongitudeDegrees>-4.52158288098871707916259765625</LongitudeDegrees>
            </Position>
            <AltitudeMeters>858.5999755859375</AltitudeMeters>
            <DistanceMeters>163450.89258254</DistanceMeters>
          </Trackpoint>
          <Trackpoint>
            <Time>2019-08-02T14:31:47.000Z</Time>
            <Position>
              <LatitudeDegrees>41.1865926347672939300537109375</LatitudeDegrees>
              <LongitudeDegrees>-4.521777592599391937255859375</LongitudeDegrees>
            </Position>
            <AltitudeMeters>858.4000244140625</AltitudeMeters>
            <DistanceMeters>163475.17967075</DistanceMeters>
          </Trackpoint>
          <Trackpoint>
            <Time>2019-08-02T14:32:00.000Z</Time>
            <Position>
              <LatitudeDegrees>41.1870134063065052032470703125</LatitudeDegrees>
              <LongitudeDegrees>-4.52231076546013355255126953125</LongitudeDegrees>
            </Position>
            <AltitudeMeters>859</AltitudeMeters>
            <DistanceMeters>163539.89279346</DistanceMeters>
          </Trackpoint>
          <Trackpoint>
            <Time>2019-08-02T14:32:12.000Z</Time>
            <Position>
              <LatitudeDegrees>41.187405847012996673583984375</LatitudeDegrees>
              <LongitudeDegrees>-4.52281686477363109588623046875</LongitudeDegrees>
            </Position>
            <AltitudeMeters>859</AltitudeMeters>
            <DistanceMeters>163600.76109445</DistanceMeters>
          </Trackpoint>
          <Trackpoint>
            <Time>2019-08-02T14:32:24.000Z</Time>
            <Position>
              <LatitudeDegrees>41.18782301433384418487548828125</LatitudeDegrees>
              <LongitudeDegrees>-4.52327753417193889617919921875</LongitudeDegrees>
            </Position>
            <AltitudeMeters>859.20001220703125</AltitudeMeters>
            <DistanceMeters>163661.13320469</DistanceMeters>
          </Trackpoint>
          <Trackpoint>
            <Time>2019-08-02T14:32:36.000Z</Time>
            <Position>
              <LatitudeDegrees>41.18824495933949947357177734375</LatitudeDegrees>
              <LongitudeDegrees>-4.52378095127642154693603515625</LongitudeDegrees>
            </Position>
            <AltitudeMeters>859.20001220703125</AltitudeMeters>
            <DistanceMeters>163724.24868649</DistanceMeters>
          </Trackpoint>
          <Trackpoint>
            <Time>2019-08-02T14:32:48.000Z</Time>
            <Position>
              <LatitudeDegrees>41.18862063623964786529541015625</LatitudeDegrees>
              <LongitudeDegrees>-4.52431135810911655426025390625</LongitudeDegrees>
            </Position>
            <AltitudeMeters>858.20001220703125</AltitudeMeters>
            <DistanceMeters>163785.25790931</DistanceMeters>
          </Trackpoint>
          <Trackpoint>
            <Time>2019-08-02T14:32:50.000Z</Time>
            <Position>
              <LatitudeDegrees>41.18868249468505382537841796875</LatitudeDegrees>
              <LongitudeDegrees>-4.5243952609598636627197265625</LongitudeDegrees>
            </Position>
            <AltitudeMeters>858.20001220703125</AltitudeMeters>
            <DistanceMeters>163795.09673137</DistanceMeters>
          </Trackpoint>
          <Trackpoint>
            <Time>2019-08-02T14:33:00.000Z</Time>
            <Position>
              <LatitudeDegrees>41.18896731175482273101806640625</LatitudeDegrees>
              <LongitudeDegrees>-4.52475811354815959930419921875</LongitudeDegrees>
            </Position>
            <AltitudeMeters>857.79998779296875</AltitudeMeters>
            <DistanceMeters>163839.01295499</DistanceMeters>
          </Trackpoint>
          <Trackpoint>
            <Time>2019-08-02T14:33:03.000Z</Time>
            <Position>
              <LatitudeDegrees>41.1890678107738494873046875</LatitudeDegrees>
              <LongitudeDegrees>-4.52470949850976467132568359375</LongitudeDegrees>
            </Position>
            <AltitudeMeters>857.5999755859375</AltitudeMeters>
            <DistanceMeters>163850.9167342</DistanceMeters>
          </Trackpoint>
          <Trackpoint>
            <Time>2019-08-02T14:33:05.000Z</Time>
            <Position>
              <LatitudeDegrees>41.18912371806800365447998046875</LatitudeDegrees>
              <LongitudeDegrees>-4.5246437005698680877685546875</LongitudeDegrees>
            </Position>
            <AltitudeMeters>857.20001220703125</AltitudeMeters>
            <DistanceMeters>163859.22872042</DistanceMeters>
          </Trackpoint>
          <Trackpoint>
            <Time>2019-08-02T14:33:12.000Z</Time>
            <Position>
              <LatitudeDegrees>41.1893033422529697418212890625</LatitudeDegrees>
              <LongitudeDegrees>-4.5244110189378261566162109375</LongitudeDegrees>
            </Position>
            <AltitudeMeters>857.79998779296875</AltitudeMeters>
            <DistanceMeters>163887.14879167</DistanceMeters>
          </Trackpoint>
          <Trackpoint>
            <Time>2019-08-02T14:33:14.000Z</Time>
            <Position>
              <LatitudeDegrees>41.18937961757183074951171875</LatitudeDegrees>
              <LongitudeDegrees>-4.5244432054460048675537109375</LongitudeDegrees>
            </Position>
            <AltitudeMeters>858.20001220703125</AltitudeMeters>
            <DistanceMeters>163896.05599391</DistanceMeters>
          </Trackpoint>
          <Trackpoint>
            <Time>2019-08-02T14:33:17.000Z</Time>
            <Position>
              <LatitudeDegrees>41.18946678936481475830078125</LatitudeDegrees>
              <LongitudeDegrees>-4.52456197701394557952880859375</LongitudeDegrees>
            </Position>
            <AltitudeMeters>858.4000244140625</AltitudeMeters>
            <DistanceMeters>163909.95200609</DistanceMeters>
          </Trackpoint>
          <Trackpoint>
            <Time>2019-08-02T14:33:29.000Z</Time>
            <Position>
              <LatitudeDegrees>41.189859397709369659423828125</LatitudeDegrees>
              <LongitudeDegrees>-4.52510747127234935760498046875</LongitudeDegrees>
            </Position>
            <AltitudeMeters>858.5999755859375</AltitudeMeters>
            <DistanceMeters>163973.17441539</DistanceMeters>
          </Trackpoint>
          <Trackpoint>
            <Time>2019-08-02T14:33:40.000Z</Time>
            <Position>
              <LatitudeDegrees>41.1902665905654430389404296875</LatitudeDegrees>
              <LongitudeDegrees>-4.52565430663526058197021484375</LongitudeDegrees>
            </Position>
            <AltitudeMeters>859.20001220703125</AltitudeMeters>
            <DistanceMeters>164037.60911479</DistanceMeters>
          </Trackpoint>
          <Trackpoint>
            <Time>2019-08-02T14:33:44.000Z</Time>
            <Position>
              <LatitudeDegrees>41.19040279649198055267333984375</LatitudeDegrees>
              <LongitudeDegrees>-4.5258537121117115020751953125</LongitudeDegrees>
            </Position>
            <AltitudeMeters>859.5999755859375</AltitudeMeters>
            <DistanceMeters>164060.16510218</DistanceMeters>
          </Trackpoint>
          <Trackpoint>
            <Time>2019-08-02T14:33:55.000Z</Time>
            <Position>
              <LatitudeDegrees>41.19076640345156192779541015625</LatitudeDegrees>
              <LongitudeDegrees>-4.5263884775340557098388671875</LongitudeDegrees>
            </Position>
            <AltitudeMeters>859</AltitudeMeters>
            <DistanceMeters>164120.53093</DistanceMeters>
          </Trackpoint>
          <Trackpoint>
            <Time>2019-08-02T14:33:57.000Z</Time>
            <Position>
              <LatitudeDegrees>41.19083329103887081146240234375</LatitudeDegrees>
              <LongitudeDegrees>-4.52648662962019443511962890625</LongitudeDegrees>
            </Position>
            <AltitudeMeters>858.79998779296875</AltitudeMeters>
            <DistanceMeters>164131.6214066</DistanceMeters>
          </Trackpoint>
          <Trackpoint>
            <Time>2019-08-02T14:34:07.000Z</Time>
            <Position>
              <LatitudeDegrees>41.19114928878843784332275390625</LatitudeDegrees>
              <LongitudeDegrees>-4.52695417217910289764404296875</LongitudeDegrees>
            </Position>
            <AltitudeMeters>858</AltitudeMeters>
            <DistanceMeters>164184.2570288</DistanceMeters>
          </Trackpoint>
          <Trackpoint>
            <Time>2019-08-02T14:34:19.000Z</Time>
            <Position>
              <LatitudeDegrees>41.19152379222214221954345703125</LatitudeDegrees>
              <LongitudeDegrees>-4.52750586904585361480712890625</LongitudeDegrees>
            </Position>
            <AltitudeMeters>856.79998779296875</AltitudeMeters>
            <DistanceMeters>164246.48777421</DistanceMeters>
          </Trackpoint>
          <Trackpoint>
            <Time>2019-08-02T14:34:31.000Z</Time>
            <Position>
              <LatitudeDegrees>41.19193651713430881500244140625</LatitudeDegrees>
              <LongitudeDegrees>-4.52804264612495899200439453125</LongitudeDegrees>
            </Position>
            <AltitudeMeters>856.20001220703125</AltitudeMeters>
            <DistanceMeters>164310.76433832</DistanceMeters>
          </Trackpoint>
          <Trackpoint>
            <Time>2019-08-02T14:34:42.000Z</Time>
            <Position>
              <LatitudeDegrees>41.19226165115833282470703125</LatitudeDegrees>
              <LongitudeDegrees>-4.5286049880087375640869140625</LongitudeDegrees>
            </Position>
            <AltitudeMeters>856</AltitudeMeters>
            <DistanceMeters>164370.1605199</DistanceMeters>
          </Trackpoint>
          <Trackpoint>
            <Time>2019-08-02T14:34:53.000Z</Time>
            <Position>
              <LatitudeDegrees>41.19260472245514392852783203125</LatitudeDegrees>
              <LongitudeDegrees>-4.52912240289151668548583984375</LongitudeDegrees>
            </Position>
            <AltitudeMeters>855.20001220703125</AltitudeMeters>
            <DistanceMeters>164427.91925466</DistanceMeters>
          </Trackpoint>
          <Trackpoint>
            <Time>2019-08-02T14:35:00.000Z</Time>
            <Position>
              <LatitudeDegrees>41.192811168730258941650390625</LatitudeDegrees>
              <LongitudeDegrees>-4.5294415019452571868896484375</LongitudeDegrees>
            </Position>
            <AltitudeMeters>854</AltitudeMeters>
            <DistanceMeters>164463.16507167</DistanceMeters>
          </Trackpoint>
          <Trackpoint>
            <Time>2019-08-02T14:35:11.000Z</Time>
            <Position>
              <LatitudeDegrees>41.19317854754626750946044921875</LatitudeDegrees>
              <LongitudeDegrees>-4.52999479137361049652099609375</LongitudeDegrees>
            </Position>
            <AltitudeMeters>853.4000244140625</AltitudeMeters>
            <DistanceMeters>164524.96649004</DistanceMeters>
          </Trackpoint>
          <Trackpoint>
            <Time>2019-08-02T14:35:14.000Z</Time>
            <Position>
              <LatitudeDegrees>41.193277202546596527099609375</LatitudeDegrees>
              <LongitudeDegrees>-4.5301531255245208740234375</LongitudeDegrees>
            </Position>
            <AltitudeMeters>853.20001220703125</AltitudeMeters>
            <DistanceMeters>164542.1833797</DistanceMeters>
          </Trackpoint>
          <Trackpoint>
            <Time>2019-08-02T14:35:25.000Z</Time>
            <Position>
              <LatitudeDegrees>41.1936381272971630096435546875</LatitudeDegrees>
              <LongitudeDegrees>-4.53071571886539459228515625</LongitudeDegrees>
            </Position>
            <AltitudeMeters>851.79998779296875</AltitudeMeters>
            <DistanceMeters>164604.10260011</DistanceMeters>
          </Trackpoint>
          <Trackpoint>
            <Time>2019-08-02T14:35:30.000Z</Time>
            <Position>
              <LatitudeDegrees>41.19380400516092777252197265625</LatitudeDegrees>
              <LongitudeDegrees>-4.5309767313301563262939453125</LongitudeDegrees>
            </Position>
            <AltitudeMeters>850.5999755859375</AltitudeMeters>
            <DistanceMeters>164632.71653083</DistanceMeters>
          </Trackpoint>
          <Trackpoint>
            <Time>2019-08-02T14:35:37.000Z</Time>
            <Position>
              <LatitudeDegrees>41.19405345059931278228759765625</LatitudeDegrees>
              <LongitudeDegrees>-4.5313220657408237457275390625</LongitudeDegrees>
            </Position>
            <AltitudeMeters>849.5999755859375</AltitudeMeters>
            <DistanceMeters>164672.80834554</DistanceMeters>
          </Trackpoint>
          <Trackpoint>
            <Time>2019-08-02T14:35:42.000Z</Time>
            <Position>
              <LatitudeDegrees>41.19424321688711643218994140625</LatitudeDegrees>
              <LongitudeDegrees>-4.53156120143830776214599609375</LongitudeDegrees>
            </Position>
            <AltitudeMeters>848.5999755859375</AltitudeMeters>
            <DistanceMeters>164701.91569671</DistanceMeters>
          </Trackpoint>
          <Trackpoint>
            <Time>2019-08-02T14:35:47.000Z</Time>
            <Position>
              <LatitudeDegrees>41.1944357492029666900634765625</LatitudeDegrees>
              <LongitudeDegrees>-4.53180729411542415618896484375</LongitudeDegrees>
            </Position>
            <AltitudeMeters>847.5999755859375</AltitudeMeters>
            <DistanceMeters>164731.64827857</DistanceMeters>
          </Trackpoint>
          <Trackpoint>
            <Time>2019-08-02T14:35:51.000Z</Time>
            <Position>
              <LatitudeDegrees>41.1945889703929424285888671875</LatitudeDegrees>
              <LongitudeDegrees>-4.532000161707401275634765625</LongitudeDegrees>
            </Position>
            <AltitudeMeters>846.5999755859375</AltitudeMeters>
            <DistanceMeters>164755.13814428</DistanceMeters>
          </Trackpoint>
          <Trackpoint>
            <Time>2019-08-02T14:35:55.000Z</Time>
            <Position>
              <LatitudeDegrees>41.19474814273416996002197265625</LatitudeDegrees>
              <LongitudeDegrees>-4.532204680144786834716796875</LongitudeDegrees>
            </Position>
            <AltitudeMeters>845.4000244140625</AltitudeMeters>
            <DistanceMeters>164779.7808635</DistanceMeters>
          </Trackpoint>
          <Trackpoint>
            <Time>2019-08-02T14:35:59.000Z</Time>
            <Position>
              <LatitudeDegrees>41.19491259567439556121826171875</LatitudeDegrees>
              <LongitudeDegrees>-4.532409869134426116943359375</LongitudeDegrees>
            </Position>
            <AltitudeMeters>844.4000244140625</AltitudeMeters>
            <DistanceMeters>164804.88770552</DistanceMeters>
          </Trackpoint>
          <Trackpoint>
            <Time>2019-08-02T14:36:03.000Z</Time>
            <Position>
              <LatitudeDegrees>41.19507662951946258544921875</LatitudeDegrees>
              <LongitudeDegrees>-4.53261874616146087646484375</LongitudeDegrees>
            </Position>
            <AltitudeMeters>843.20001220703125</AltitudeMeters>
            <DistanceMeters>164830.17302681</DistanceMeters>
          </Trackpoint>
          <Trackpoint>
            <Time>2019-08-02T14:36:11.000Z</Time>
            <Position>
              <LatitudeDegrees>41.195410899817943572998046875</LatitudeDegrees>
              <LongitudeDegrees>-4.53303826041519641876220703125</LongitudeDegrees>
            </Position>
            <AltitudeMeters>842.20001220703125</AltitudeMeters>
            <DistanceMeters>164881.34594922</DistanceMeters>
          </Trackpoint>
          <Trackpoint>
            <Time>2019-08-02T14:36:19.000Z</Time>
            <Position>
              <LatitudeDegrees>41.1957386322319507598876953125</LatitudeDegrees>
              <LongitudeDegrees>-4.53345987014472484588623046875</LongitudeDegrees>
            </Position>
            <AltitudeMeters>841</AltitudeMeters>
            <DistanceMeters>164932.11405475</DistanceMeters>
          </Trackpoint>
          <Trackpoint>
            <Time>2019-08-02T14:36:29.000Z</Time>
            <Position>
              <LatitudeDegrees>41.19613501243293285369873046875</LatitudeDegrees>
              <LongitudeDegrees>-4.53396546654403209686279296875</LongitudeDegrees>
            </Position>
            <AltitudeMeters>840.5999755859375</AltitudeMeters>
            <DistanceMeters>164993.26468684</DistanceMeters>
          </Trackpoint>
          <Trackpoint>
            <Time>2019-08-02T14:36:40.000Z</Time>
            <Position>
              <LatitudeDegrees>41.19656014256179332733154296875</LatitudeDegrees>
              <LongitudeDegrees>-4.53450727276504039764404296875</LongitudeDegrees>
            </Position>
            <AltitudeMeters>841</AltitudeMeters>
            <DistanceMeters>165058.82368527</DistanceMeters>
          </Trackpoint>
          <Trackpoint>
            <Time>2019-08-02T14:36:51.000Z</Time>
            <Position>
              <LatitudeDegrees>41.19695954024791717529296875</LatitudeDegrees>
              <LongitudeDegrees>-4.5350282080471515655517578125</LongitudeDegrees>
            </Position>
            <AltitudeMeters>841.79998779296875</AltitudeMeters>
            <DistanceMeters>165121.10969166</DistanceMeters>
          </Trackpoint>
          <Trackpoint>
            <Time>2019-08-02T14:37:03.000Z</Time>
            <Position>
              <LatitudeDegrees>41.1973710916936397552490234375</LatitudeDegrees>
              <LongitudeDegrees>-4.53556054271757602691650390625</LongitudeDegrees>
            </Position>
            <AltitudeMeters>841.5999755859375</AltitudeMeters>
            <DistanceMeters>165185.03018649</DistanceMeters>
          </Trackpoint>
          <Trackpoint>
            <Time>2019-08-02T14:37:17.000Z</Time>
            <Position>
              <LatitudeDegrees>41.19777065701782703399658203125</LatitudeDegrees>
              <LongitudeDegrees>-4.536073766648769378662109375</LongitudeDegrees>
            </Position>
            <AltitudeMeters>842</AltitudeMeters>
            <DistanceMeters>165246.8786358</DistanceMeters>
          </Trackpoint>
          <Trackpoint>
            <Time>2019-08-02T14:37:29.000Z</Time>
            <Position>
              <LatitudeDegrees>41.19817315600812435150146484375</LatitudeDegrees>
              <LongitudeDegrees>-4.53659235499799251556396484375</LongitudeDegrees>
            </Position>
            <AltitudeMeters>841.5999755859375</AltitudeMeters>
            <DistanceMeters>165309.27400428</DistanceMeters>
          </Trackpoint>
          <Trackpoint>
            <Time>2019-08-02T14:37:41.000Z</Time>
            <Position>
              <LatitudeDegrees>41.198574565351009368896484375</LatitudeDegrees>
              <LongitudeDegrees>-4.5371018908917903900146484375</LongitudeDegrees>
            </Position>
            <AltitudeMeters>841.4000244140625</AltitudeMeters>
            <DistanceMeters>165371.05598638</DistanceMeters>
          </Trackpoint>
          <Trackpoint>
            <Time>2019-08-02T14:37:54.000Z</Time>
            <Position>
              <LatitudeDegrees>41.19898586533963680267333984375</LatitudeDegrees>
              <LongitudeDegrees>-4.53763187862932682037353515625</LongitudeDegrees>
            </Position>
            <AltitudeMeters>841.4000244140625</AltitudeMeters>
            <DistanceMeters>165434.81877011</DistanceMeters>
          </Trackpoint>
          <Trackpoint>
            <Time>2019-08-02T14:38:06.000Z</Time>
            <Position>
              <LatitudeDegrees>41.19938065297901630401611328125</LatitudeDegrees>
              <LongitudeDegrees>-4.53813261352479457855224609375</LongitudeDegrees>
            </Position>
            <AltitudeMeters>842.4000244140625</AltitudeMeters>
            <DistanceMeters>165495.55846036</DistanceMeters>
          </Trackpoint>
          <Trackpoint>
            <Time>2019-08-02T14:38:13.000Z</Time>
            <Position>
              <LatitudeDegrees>41.19961350224912166595458984375</LatitudeDegrees>
              <LongitudeDegrees>-4.53842279501259326934814453125</LongitudeDegrees>
            </Position>
            <AltitudeMeters>843.5999755859375</AltitudeMeters>
            <DistanceMeters>165531.08638058</DistanceMeters>
          </Trackpoint>
          <Trackpoint>
            <Time>2019-08-02T14:38:25.000Z</Time>
            <Position>
              <LatitudeDegrees>41.2000004947185516357421875</LatitudeDegrees>
              <LongitudeDegrees>-4.53892302699387073516845703125</LongitudeDegrees>
            </Position>
            <AltitudeMeters>844.5999755859375</AltitudeMeters>
            <DistanceMeters>165591.17167514</DistanceMeters>
          </Trackpoint>
          <Trackpoint>
            <Time>2019-08-02T14:38:27.000Z</Time>
            <Position>
              <LatitudeDegrees>41.200063526630401611328125</LatitudeDegrees>
              <LongitudeDegrees>-4.53900265507400035858154296875</LongitudeDegrees>
            </Position>
            <AltitudeMeters>844.79998779296875</AltitudeMeters>
            <DistanceMeters>165600.85134834</DistanceMeters>
          </Trackpoint>
          <Trackpoint>
            <Time>2019-08-02T14:38:37.000Z</Time>
            <Position>
              <LatitudeDegrees>41.20037910528481006622314453125</LatitudeDegrees>
              <LongitudeDegrees>-4.53940548934042453765869140625</LongitudeDegrees>
            </Position>
            <AltitudeMeters>846</AltitudeMeters>
            <DistanceMeters>165649.55270169</DistanceMeters>
          </Trackpoint>
          <Trackpoint>
            <Time>2019-08-02T14:38:48.000Z</Time>
            <Position>
              <LatitudeDegrees>41.20073282159864902496337890625</LatitudeDegrees>
              <LongitudeDegrees>-4.53985291533172130584716796875</LongitudeDegrees>
            </Position>
            <AltitudeMeters>846.5999755859375</AltitudeMeters>
            <DistanceMeters>165703.90266587</DistanceMeters>
          </Trackpoint>
          <Trackpoint>
            <Time>2019-08-02T14:38:50.000Z</Time>
            <Position>
              <LatitudeDegrees>41.20079719461500644683837890625</LatitudeDegrees>
              <LongitudeDegrees>-4.5399359799921512603759765625</LongitudeDegrees>
            </Position>
            <AltitudeMeters>847.20001220703125</AltitudeMeters>
            <DistanceMeters>165713.88906484</DistanceMeters>
          </Trackpoint>
          <Trackpoint>
            <Time>2019-08-02T14:38:56.000Z</Time>
            <Position>
              <LatitudeDegrees>41.2009840272367000579833984375</LatitudeDegrees>
              <LongitudeDegrees>-4.54018835909664630889892578125</LongitudeDegrees>
            </Position>
            <AltitudeMeters>848.20001220703125</AltitudeMeters>
            <DistanceMeters>165743.53907482</DistanceMeters>
          </Trackpoint>
          <Trackpoint>
            <Time>2019-08-02T14:39:06.000Z</Time>
            <Position>
              <LatitudeDegrees>41.2012954987585544586181640625</LatitudeDegrees>
              <LongitudeDegrees>-4.54059471376240253448486328125</LongitudeDegrees>
            </Position>
            <AltitudeMeters>849.20001220703125</AltitudeMeters>
            <DistanceMeters>165792.11734092</DistanceMeters>
          </Trackpoint>
          <Trackpoint>
            <Time>2019-08-02T14:39:20.000Z</Time>
            <Position>
              <LatitudeDegrees>41.20169674046337604522705078125</LatitudeDegrees>
              <LongitudeDegrees>-4.541131742298603057861328125</LongitudeDegrees>
            </Position>
            <AltitudeMeters>848.79998779296875</AltitudeMeters>
            <DistanceMeters>165855.4968113</DistanceMeters>
          </Trackpoint>
          <Trackpoint>
            <Time>2019-08-02T14:39:25.000Z</Time>
            <Position>
              <LatitudeDegrees>41.20179145596921443939208984375</LatitudeDegrees>
              <LongitudeDegrees>-4.54128270037472248077392578125</LongitudeDegrees>
            </Position>
            <AltitudeMeters>850.79998779296875</AltitudeMeters>
            <DistanceMeters>165871.95729257</DistanceMeters>
          </Trackpoint>
          <Trackpoint>
            <Time>2019-08-02T14:39:39.000Z</Time>
            <Position>
              <LatitudeDegrees>41.2021856568753719329833984375</LatitudeDegrees>
              <LongitudeDegrees>-4.54180791042745113372802734375</LongitudeDegrees>
            </Position>
            <AltitudeMeters>851.20001220703125</AltitudeMeters>
            <DistanceMeters>165934.08223807</DistanceMeters>
          </Trackpoint>
          <Trackpoint>
            <Time>2019-08-02T14:39:52.000Z</Time>
            <Position>
              <LatitudeDegrees>41.2025930173695087432861328125</LatitudeDegrees>
              <LongitudeDegrees>-4.54234041273593902587890625</LongitudeDegrees>
            </Position>
            <AltitudeMeters>851.4000244140625</AltitudeMeters>
            <DistanceMeters>165997.67662584</DistanceMeters>
          </Trackpoint>
          <Trackpoint>
            <Time>2019-08-02T14:40:05.000Z</Time>
            <Position>
              <LatitudeDegrees>41.20300733484327793121337890625</LatitudeDegrees>
              <LongitudeDegrees>-4.54287107102572917938232421875</LongitudeDegrees>
            </Position>
            <AltitudeMeters>850.79998779296875</AltitudeMeters>
            <DistanceMeters>166061.71786349</DistanceMeters>
          </Trackpoint>
          <Trackpoint>
            <Time>2019-08-02T14:40:18.000Z</Time>
            <Position>
              <LatitudeDegrees>41.203411258757114410400390625</LatitudeDegrees>
              <LongitudeDegrees>-4.54339242540299892425537109375</LongitudeDegrees>
            </Position>
            <AltitudeMeters>849.79998779296875</AltitudeMeters>
            <DistanceMeters>166124.38587428</DistanceMeters>
          </Trackpoint>
          <Trackpoint>
            <Time>2019-08-02T14:40:22.000Z</Time>
            <Position>
              <LatitudeDegrees>41.20353640057146549224853515625</LatitudeDegrees>
              <LongitudeDegrees>-4.54355134628713130950927734375</LongitudeDegrees>
            </Position>
            <AltitudeMeters>849.4000244140625</AltitudeMeters>
            <DistanceMeters>166143.6500652</DistanceMeters>
          </Trackpoint>
          <Trackpoint>
            <Time>2019-08-02T14:40:29.000Z</Time>
            <Position>
              <LatitudeDegrees>41.20375064201653003692626953125</LatitudeDegrees>
              <LongitudeDegrees>-4.54341438598930835723876953125</LongitudeDegrees>
            </Position>
            <AltitudeMeters>849.20001220703125</AltitudeMeters>
            <DistanceMeters>166170.11035577</DistanceMeters>
          </Trackpoint>
          <Trackpoint>
            <Time>2019-08-02T14:40:34.000Z</Time>
            <Position>
              <LatitudeDegrees>41.20388190262019634246826171875</LatitudeDegrees>
              <LongitudeDegrees>-4.54330894164741039276123046875</LongitudeDegrees>
            </Position>
            <AltitudeMeters>849.20001220703125</AltitudeMeters>
            <DistanceMeters>166187.18081466</DistanceMeters>
          </Trackpoint>
          <Trackpoint>
            <Time>2019-08-02T14:40:37.000Z</Time>
            <Position>
              <LatitudeDegrees>41.20393470861017704010009765625</LatitudeDegrees>
              <LongitudeDegrees>-4.54341941513121128082275390625</LongitudeDegrees>
            </Position>
            <AltitudeMeters>849</AltitudeMeters>
            <DistanceMeters>166198.14147782</DistanceMeters>
          </Trackpoint>
          <Trackpoint>
            <Time>2019-08-02T14:40:42.000Z</Time>
            <Position>
              <LatitudeDegrees>41.2039197050034999847412109375</LatitudeDegrees>
              <LongitudeDegrees>-4.54361756332218647003173828125</LongitudeDegrees>
            </Position>
            <AltitudeMeters>848.79998779296875</AltitudeMeters>
            <DistanceMeters>166214.81832778</DistanceMeters>
          </Trackpoint>
          <Trackpoint>
            <Time>2019-08-02T14:40:43.000Z</Time>
            <Position>
              <LatitudeDegrees>41.20390570722520351409912109375</LatitudeDegrees>
              <LongitudeDegrees>-4.543723426759243011474609375</LongitudeDegrees>
            </Position>
            <AltitudeMeters>848.79998779296875</AltitudeMeters>
            <DistanceMeters>166223.81931916</DistanceMeters>
          </Trackpoint>
          <Trackpoint>
            <Time>2019-08-02T14:40:50.000Z</Time>
            <Position>
              <LatitudeDegrees>41.20403520762920379638671875</LatitudeDegrees>
              <LongitudeDegrees>-4.54407043755054473876953125</LongitudeDegrees>
            </Position>
            <AltitudeMeters>848.5999755859375</AltitudeMeters>
            <DistanceMeters>166256.25643443</DistanceMeters>
          </Trackpoint>
          <Trackpoint>
            <Time>2019-08-02T14:40:59.000Z</Time>
            <Position>
              <LatitudeDegrees>41.204332597553730010986328125</LatitudeDegrees>
              <LongitudeDegrees>-4.5444538258016109466552734375</LongitudeDegrees>
            </Position>
            <AltitudeMeters>848.20001220703125</AltitudeMeters>
            <DistanceMeters>166302.3687779</DistanceMeters>
          </Trackpoint>
          <Trackpoint>
            <Time>2019-08-02T14:41:08.000Z</Time>
            <Position>
              <LatitudeDegrees>41.204631663858890533447265625</LatitudeDegrees>
              <LongitudeDegrees>-4.5448383875191211700439453125</LongitudeDegrees>
            </Position>
            <AltitudeMeters>847.20001220703125</AltitudeMeters>
            <DistanceMeters>166348.68335961</DistanceMeters>
          </Trackpoint>
          <Trackpoint>
            <Time>2019-08-02T14:41:14.000Z</Time>
            <Position>
              <LatitudeDegrees>41.20484364219009876251220703125</LatitudeDegrees>
              <LongitudeDegrees>-4.5451171696186065673828125</LongitudeDegrees>
            </Position>
            <AltitudeMeters>846</AltitudeMeters>
            <DistanceMeters>166381.87449195</DistanceMeters>
          </Trackpoint>
          <Trackpoint>
            <Time>2019-08-02T14:41:25.000Z</Time>
            <Position>
              <LatitudeDegrees>41.2052286230027675628662109375</LatitudeDegrees>
              <LongitudeDegrees>-4.545644223690032958984375</LongitudeDegrees>
            </Position>
            <AltitudeMeters>845.20001220703125</AltitudeMeters>
            <DistanceMeters>166443.3881989</DistanceMeters>
          </Trackpoint>
          <Trackpoint>
            <Time>2019-08-02T14:41:27.000Z</Time>
            <Position>
              <LatitudeDegrees>41.2053040601313114166259765625</LatitudeDegrees>
              <LongitudeDegrees>-4.54572762362658977508544921875</LongitudeDegrees>
            </Position>
            <AltitudeMeters>845</AltitudeMeters>
            <DistanceMeters>166454.30924508</DistanceMeters>
          </Trackpoint>
          <Trackpoint>
            <Time>2019-08-02T14:41:32.000Z</Time>
            <Position>
              <LatitudeDegrees>41.20548427104949951171875</LatitudeDegrees>
              <LongitudeDegrees>-4.545941613614559173583984375</LongitudeDegrees>
            </Position>
            <AltitudeMeters>844.5999755859375</AltitudeMeters>
            <DistanceMeters>166481.20566648</DistanceMeters>
          </Trackpoint>
          <Trackpoint>
            <Time>2019-08-02T14:41:44.000Z</Time>
            <Position>
              <LatitudeDegrees>41.20585885830223560333251953125</LatitudeDegrees>
              <LongitudeDegrees>-4.5464985072612762451171875</LongitudeDegrees>
            </Position>
            <AltitudeMeters>845.20001220703125</AltitudeMeters>
            <DistanceMeters>166543.75887339</DistanceMeters>
          </Trackpoint>
          <Trackpoint>
            <Time>2019-08-02T14:41:49.000Z</Time>
            <Position>
              <LatitudeDegrees>41.2060259096324443817138671875</LatitudeDegrees>
              <LongitudeDegrees>-4.54674116335809230804443359375</LongitudeDegrees>
            </Position>
            <AltitudeMeters>846.4000244140625</AltitudeMeters>
            <DistanceMeters>166571.3013793</DistanceMeters>
          </Trackpoint>
          <Trackpoint>
            <Time>2019-08-02T14:41:53.000Z</Time>
            <Position>
              <LatitudeDegrees>41.2061533145606517791748046875</LatitudeDegrees>
              <LongitudeDegrees>-4.5469409041106700897216796875</LongitudeDegrees>
            </Position>
            <AltitudeMeters>847.4000244140625</AltitudeMeters>
            <DistanceMeters>166593.22950144</DistanceMeters>
          </Trackpoint>
          <Trackpoint>
            <Time>2019-08-02T14:41:58.000Z</Time>
            <Position>
              <LatitudeDegrees>41.20630477555096149444580078125</LatitudeDegrees>
              <LongitudeDegrees>-4.54719546250998973846435546875</LongitudeDegrees>
            </Position>
            <AltitudeMeters>848.5999755859375</AltitudeMeters>
            <DistanceMeters>166620.40614495</DistanceMeters>
          </Trackpoint>
          <Trackpoint>
            <Time>2019-08-02T14:42:03.000Z</Time>
            <Position>
              <LatitudeDegrees>41.2064550630748271942138671875</LatitudeDegrees>
              <LongitudeDegrees>-4.547446668148040771484375</LongitudeDegrees>
            </Position>
            <AltitudeMeters>849.5999755859375</AltitudeMeters>
            <DistanceMeters>166647.28157471</DistanceMeters>
          </Trackpoint>
          <Trackpoint>
            <Time>2019-08-02T14:42:14.000Z</Time>
            <Position>
              <LatitudeDegrees>41.2067786045372486114501953125</LatitudeDegrees>
              <LongitudeDegrees>-4.54800817184150218963623046875</LongitudeDegrees>
            </Position>
            <AltitudeMeters>850.5999755859375</AltitudeMeters>
            <DistanceMeters>166706.50586426</DistanceMeters>
          </Trackpoint>
          <Trackpoint>
            <Time>2019-08-02T14:42:23.000Z</Time>
            <Position>
              <LatitudeDegrees>41.2070401199162006378173828125</LatitudeDegrees>
              <LongitudeDegrees>-4.5484627224504947662353515625</LongitudeDegrees>
            </Position>
            <AltitudeMeters>851.79998779296875</AltitudeMeters>
            <DistanceMeters>166754.42213682</DistanceMeters>
          </Trackpoint>
          <Trackpoint>
            <Time>2019-08-02T14:42:35.000Z</Time>
            <Position>
              <LatitudeDegrees>41.2073753960430622100830078125</LatitudeDegrees>
              <LongitudeDegrees>-4.5490404032170772552490234375</LongitudeDegrees>
            </Position>
            <AltitudeMeters>852.5999755859375</AltitudeMeters>
            <DistanceMeters>166815.51603756</DistanceMeters>
          </Trackpoint>
          <Trackpoint>
            <Time>2019-08-02T14:42:41.000Z</Time>
            <Position>
              <LatitudeDegrees>41.20753356255590915679931640625</LatitudeDegrees>
              <LongitudeDegrees>-4.54931407235562801361083984375</LongitudeDegrees>
            </Position>
            <AltitudeMeters>853</AltitudeMeters>
            <DistanceMeters>166844.41322235</DistanceMeters>
          </Trackpoint>
          <Trackpoint>
            <Time>2019-08-02T14:42:50.000Z</Time>
            <Position>
              <LatitudeDegrees>41.207764148712158203125</LatitudeDegrees>
              <LongitudeDegrees>-4.54971103928983211517333984375</LongitudeDegrees>
            </Position>
            <AltitudeMeters>854.20001220703125</AltitudeMeters>
            <DistanceMeters>166886.40836481</DistanceMeters>
          </Trackpoint>
          <Trackpoint>
            <Time>2019-08-02T14:42:54.000Z</Time>
            <Position>
              <LatitudeDegrees>41.20786749757826328277587890625</LatitudeDegrees>
              <LongitudeDegrees>-4.5498920045793056488037109375</LongitudeDegrees>
            </Position>
            <AltitudeMeters>854.20001220703125</AltitudeMeters>
            <DistanceMeters>166905.43294086</DistanceMeters>
          </Trackpoint>
          <Trackpoint>
            <Time>2019-08-02T14:43:07.000Z</Time>
            <Position>
              <LatitudeDegrees>41.20821635238826274871826171875</LatitudeDegrees>
              <LongitudeDegrees>-4.55048468895256519317626953125</LongitudeDegrees>
            </Position>
            <AltitudeMeters>855</AltitudeMeters>
            <DistanceMeters>166968.44575633</DistanceMeters>
          </Trackpoint>
          <Trackpoint>
            <Time>2019-08-02T14:43:17.000Z</Time>
            <Position>
              <LatitudeDegrees>41.20848474092781543731689453125</LatitudeDegrees>
              <LongitudeDegrees>-4.55094384960830211639404296875</LongitudeDegrees>
            </Position>
            <AltitudeMeters>853.4000244140625</AltitudeMeters>
            <DistanceMeters>167017.13412874</DistanceMeters>
          </Trackpoint>
          <Trackpoint>
            <Time>2019-08-02T14:43:25.000Z</Time>
            <Position>
              <LatitudeDegrees>41.20870099402964115142822265625</LatitudeDegrees>
              <LongitudeDegrees>-4.551314413547515869140625</LongitudeDegrees>
            </Position>
            <AltitudeMeters>852.4000244140625</AltitudeMeters>
            <DistanceMeters>167056.40396875</DistanceMeters>
          </Trackpoint>
          <Trackpoint>
            <Time>2019-08-02T14:43:35.000Z</Time>
            <Position>
              <LatitudeDegrees>41.20897449553012847900390625</LatitudeDegrees>
              <LongitudeDegrees>-4.5517849735915660858154296875</LongitudeDegrees>
            </Position>
            <AltitudeMeters>851.4000244140625</AltitudeMeters>
            <DistanceMeters>167106.19524678</DistanceMeters>
          </Trackpoint>
          <Trackpoint>
            <Time>2019-08-02T14:43:40.000Z</Time>
            <Position>
              <LatitudeDegrees>41.2091138027608394622802734375</LatitudeDegrees>
              <LongitudeDegrees>-4.5520260371267795562744140625</LongitudeDegrees>
            </Position>
            <AltitudeMeters>850.4000244140625</AltitudeMeters>
            <DistanceMeters>167131.64821918</DistanceMeters>
          </Trackpoint>
          <Trackpoint>
            <Time>2019-08-02T14:43:46.000Z</Time>
            <Position>
              <LatitudeDegrees>41.20928202755749225616455078125</LatitudeDegrees>
              <LongitudeDegrees>-4.55231311731040477752685546875</LongitudeDegrees>
            </Position>
            <AltitudeMeters>849.20001220703125</AltitudeMeters>
            <DistanceMeters>167162.11817618</DistanceMeters>
          </Trackpoint>
          <Trackpoint>
            <Time>2019-08-02T14:43:51.000Z</Time>
            <Position>
              <LatitudeDegrees>41.20941697619855403900146484375</LatitudeDegrees>
              <LongitudeDegrees>-4.552545212209224700927734375</LongitudeDegrees>
            </Position>
            <AltitudeMeters>848.20001220703125</AltitudeMeters>
            <DistanceMeters>167186.68014632</DistanceMeters>
          </Trackpoint>
          <Trackpoint>
            <Time>2019-08-02T14:43:56.000Z</Time>
            <Position>
              <LatitudeDegrees>41.20954823680222034454345703125</LatitudeDegrees>
              <LongitudeDegrees>-4.552769847214221954345703125</LongitudeDegrees>
            </Position>
            <AltitudeMeters>847</AltitudeMeters>
            <DistanceMeters>167210.49680608</DistanceMeters>
          </Trackpoint>
          <Trackpoint>
            <Time>2019-08-02T14:44:04.000Z</Time>
            <Position>
              <LatitudeDegrees>41.20976616628468036651611328125</LatitudeDegrees>
              <LongitudeDegrees>-4.55312549136579036712646484375</LongitudeDegrees>
            </Position>
            <AltitudeMeters>846</AltitudeMeters>
            <DistanceMeters>167248.9045304</DistanceMeters>
          </Trackpoint>
          <Trackpoint>
            <Time>2019-08-02T14:44:09.000Z</Time>
            <Position>
              <LatitudeDegrees>41.20989625342190265655517578125</LatitudeDegrees>
              <LongitudeDegrees>-4.55334660597145557403564453125</LongitudeDegrees>
            </Position>
            <AltitudeMeters>845</AltitudeMeters>
            <DistanceMeters>167272.40861551</DistanceMeters>
          </Trackpoint>
          <Trackpoint>
            <Time>2019-08-02T14:44:22.000Z</Time>
            <Position>
              <LatitudeDegrees>41.2102510593831539154052734375</LatitudeDegrees>
              <LongitudeDegrees>-4.55395429395139217376708984375</LongitudeDegrees>
            </Position>
            <AltitudeMeters>844.20001220703125</AltitudeMeters>
            <DistanceMeters>167336.81822442</DistanceMeters>
          </Trackpoint>
          <Trackpoint>
            <Time>2019-08-02T14:44:34.000Z</Time>
            <Position>
              <LatitudeDegrees>41.21056965552270412445068359375</LatitudeDegrees>
              <LongitudeDegrees>-4.5545017160475254058837890625</LongitudeDegrees>
            </Position>
            <AltitudeMeters>843.79998779296875</AltitudeMeters>
            <DistanceMeters>167394.77034234</DistanceMeters>
          </Trackpoint>
          <Trackpoint>
            <Time>2019-08-02T14:44:46.000Z</Time>
            <Position>
              <LatitudeDegrees>41.2108874134719371795654296875</LatitudeDegrees>
              <LongitudeDegrees>-4.55504243262112140655517578125</LongitudeDegrees>
            </Position>
            <AltitudeMeters>842.5999755859375</AltitudeMeters>
            <DistanceMeters>167452.22167375</DistanceMeters>
          </Trackpoint>
          <Trackpoint>
            <Time>2019-08-02T14:44:55.000Z</Time>
            <Position>
              <LatitudeDegrees>41.21111414395272731781005859375</LatitudeDegrees>
              <LongitudeDegrees>-4.5554351247847080230712890625</LongitudeDegrees>
            </Position>
            <AltitudeMeters>841.5999755859375</AltitudeMeters>
            <DistanceMeters>167493.67010006</DistanceMeters>
          </Trackpoint>
          <Trackpoint>
            <Time>2019-08-02T14:45:01.000Z</Time>
            <Position>
              <LatitudeDegrees>41.21126384474337100982666015625</LatitudeDegrees>
              <LongitudeDegrees>-4.55569337122142314910888671875</LongitudeDegrees>
            </Position>
            <AltitudeMeters>840.5999755859375</AltitudeMeters>
            <DistanceMeters>167520.96808475</DistanceMeters>
          </Trackpoint>
          <Trackpoint>
            <Time>2019-08-02T14:45:09.000Z</Time>
            <Position>
              <LatitudeDegrees>41.21147406287491321563720703125</LatitudeDegrees>
              <LongitudeDegrees>-4.5560510270297527313232421875</LongitudeDegrees>
            </Position>
            <AltitudeMeters>839.4000244140625</AltitudeMeters>
            <DistanceMeters>167558.97140522</DistanceMeters>
          </Trackpoint>
          <Trackpoint>
            <Time>2019-08-02T14:45:17.000Z</Time>
            <Position>
              <LatitudeDegrees>41.21167925186455249786376953125</LatitudeDegrees>
              <LongitudeDegrees>-4.55640415661036968231201171875</LongitudeDegrees>
            </Position>
            <AltitudeMeters>838.4000244140625</AltitudeMeters>
            <DistanceMeters>167596.33189245</DistanceMeters>
          </Trackpoint>
          <Trackpoint>
            <Time>2019-08-02T14:45:26.000Z</Time>
            <Position>
              <LatitudeDegrees>41.21191109530627727508544921875</LatitudeDegrees>
              <LongitudeDegrees>-4.5568023808300495147705078125</LongitudeDegrees>
            </Position>
            <AltitudeMeters>837</AltitudeMeters>
            <DistanceMeters>167638.49420796</DistanceMeters>
          </Trackpoint>
          <Trackpoint>
            <Time>2019-08-02T14:45:31.000Z</Time>
            <Position>
              <LatitudeDegrees>41.2120449542999267578125</LatitudeDegrees>
              <LongitudeDegrees>-4.557018466293811798095703125</LongitudeDegrees>
            </Position>
            <AltitudeMeters>836</AltitudeMeters>
            <DistanceMeters>167661.93173364</DistanceMeters>
          </Trackpoint>
          <Trackpoint>
            <Time>2019-08-02T14:45:39.000Z</Time>
            <Position>
              <LatitudeDegrees>41.21224754489958286285400390625</LatitudeDegrees>
              <LongitudeDegrees>-4.5573668181896209716796875</LongitudeDegrees>
            </Position>
            <AltitudeMeters>835</AltitudeMeters>
            <DistanceMeters>167698.79891479</DistanceMeters>
          </Trackpoint>
          <Trackpoint>
            <Time>2019-08-02T14:45:44.000Z</Time>
            <Position>
              <LatitudeDegrees>41.212374866008758544921875</LatitudeDegrees>
              <LongitudeDegrees>-4.5575842447578907012939453125</LongitudeDegrees>
            </Position>
            <AltitudeMeters>833.79998779296875</AltitudeMeters>
            <DistanceMeters>167721.86927967</DistanceMeters>
          </Trackpoint>
          <Trackpoint>
            <Time>2019-08-02T14:45:52.000Z</Time>
            <Position>
              <LatitudeDegrees>41.21257695369422435760498046875</LatitudeDegrees>
              <LongitudeDegrees>-4.5579362846910953521728515625</LongitudeDegrees>
            </Position>
            <AltitudeMeters>833</AltitudeMeters>
            <DistanceMeters>167758.94699398</DistanceMeters>
          </Trackpoint>
          <Trackpoint>
            <Time>2019-08-02T14:46:00.000Z</Time>
            <Position>
              <LatitudeDegrees>41.21278180740773677825927734375</LatitudeDegrees>
              <LongitudeDegrees>-4.558285139501094818115234375</LongitudeDegrees>
            </Position>
            <AltitudeMeters>831.79998779296875</AltitudeMeters>
            <DistanceMeters>167796.00168617</DistanceMeters>
          </Trackpoint>
          <Trackpoint>
            <Time>2019-08-02T14:46:12.000Z</Time>
            <Position>
              <LatitudeDegrees>41.213084645569324493408203125</LatitudeDegrees>
              <LongitudeDegrees>-4.558811187744140625</LongitudeDegrees>
            </Position>
            <AltitudeMeters>830.5999755859375</AltitudeMeters>
            <DistanceMeters>167851.46440879</DistanceMeters>
          </Trackpoint>
          <Trackpoint>
            <Time>2019-08-02T14:46:19.000Z</Time>
            <Position>
              <LatitudeDegrees>41.21326695196330547332763671875</LatitudeDegrees>
              <LongitudeDegrees>-4.5591214857995510101318359375</LongitudeDegrees>
            </Position>
            <AltitudeMeters>829.4000244140625</AltitudeMeters>
            <DistanceMeters>167884.42977728</DistanceMeters>
          </Trackpoint>
          <Trackpoint>
            <Time>2019-08-02T14:46:28.000Z</Time>
            <Position>
              <LatitudeDegrees>41.21351019479334354400634765625</LatitudeDegrees>
              <LongitudeDegrees>-4.55952742137014865875244140625</LongitudeDegrees>
            </Position>
            <AltitudeMeters>828.4000244140625</AltitudeMeters>
            <DistanceMeters>167927.88286606</DistanceMeters>
          </Trackpoint>
          <Trackpoint>
            <Time>2019-08-02T14:46:42.000Z</Time>
            <Position>
              <LatitudeDegrees>41.21384580619633197784423828125</LatitudeDegrees>
              <LongitudeDegrees>-4.56012287177145481109619140625</LongitudeDegrees>
            </Position>
            <AltitudeMeters>827.20001220703125</AltitudeMeters>
            <DistanceMeters>167990.17996225</DistanceMeters>
          </Trackpoint>
          <Trackpoint>
            <Time>2019-08-02T14:46:43.000Z</Time>
            <Position>
              <LatitudeDegrees>41.213869862258434295654296875</LatitudeDegrees>
              <LongitudeDegrees>-4.5601638592779636383056640625</LongitudeDegrees>
            </Position>
            <AltitudeMeters>827.20001220703125</AltitudeMeters>
            <DistanceMeters>167994.53255922</DistanceMeters>
          </Trackpoint>
          <Trackpoint>
            <Time>2019-08-02T14:46:49.000Z</Time>
            <Position>
              <LatitudeDegrees>41.21402199380099773406982421875</LatitudeDegrees>
              <LongitudeDegrees>-4.56041892059147357940673828125</LongitudeDegrees>
            </Position>
            <AltitudeMeters>826</AltitudeMeters>
            <DistanceMeters>168021.78651248</DistanceMeters>
          </Trackpoint>
          <Trackpoint>
            <Time>2019-08-02T14:47:03.000Z</Time>
            <Position>
              <LatitudeDegrees>41.21437378227710723876953125</LatitudeDegrees>
              <LongitudeDegrees>-4.5610057376325130462646484375</LongitudeDegrees>
            </Position>
            <AltitudeMeters>825.5999755859375</AltitudeMeters>
            <DistanceMeters>168084.61239539</DistanceMeters>
          </Trackpoint>
          <Trackpoint>
            <Time>2019-08-02T14:47:17.000Z</Time>
            <Position>
              <LatitudeDegrees>41.21472724713385105133056640625</LatitudeDegrees>
              <LongitudeDegrees>-4.56159406341612339019775390625</LongitudeDegrees>
            </Position>
            <AltitudeMeters>825.4000244140625</AltitudeMeters>
            <DistanceMeters>168147.65314922</DistanceMeters>
          </Trackpoint>
          <Trackpoint>
            <Time>2019-08-02T14:47:30.000Z</Time>
            <Position>
              <LatitudeDegrees>41.21504425071179866790771484375</LatitudeDegrees>
              <LongitudeDegrees>-4.56213603727519512176513671875</LongitudeDegrees>
            </Position>
            <AltitudeMeters>824.79998779296875</AltitudeMeters>
            <DistanceMeters>168205.13370828</DistanceMeters>
          </Trackpoint>
          <Trackpoint>
            <Time>2019-08-02T14:47:44.000Z</Time>
            <Position>
              <LatitudeDegrees>41.2153838016092777252197265625</LatitudeDegrees>
              <LongitudeDegrees>-4.562719166278839111328125</LongitudeDegrees>
            </Position>
            <AltitudeMeters>824</AltitudeMeters>
            <DistanceMeters>168266.87489818</DistanceMeters>
          </Trackpoint>
          <Trackpoint>
            <Time>2019-08-02T14:47:58.000Z</Time>
            <Position>
              <LatitudeDegrees>41.21573542244732379913330078125</LatitudeDegrees>
              <LongitudeDegrees>-4.563272707164287567138671875</LongitudeDegrees>
            </Position>
            <AltitudeMeters>824.4000244140625</AltitudeMeters>
            <DistanceMeters>168327.53410547</DistanceMeters>
          </Trackpoint>
          <Trackpoint>
            <Time>2019-08-02T14:48:10.000Z</Time>
            <Position>
              <LatitudeDegrees>41.21607203967869281768798828125</LatitudeDegrees>
              <LongitudeDegrees>-4.56373580731451511383056640625</LongitudeDegrees>
            </Position>
            <AltitudeMeters>825.5999755859375</AltitudeMeters>
            <DistanceMeters>168381.45136217</DistanceMeters>
          </Trackpoint>
          <Trackpoint>
            <Time>2019-08-02T14:48:24.000Z</Time>
            <Position>
              <LatitudeDegrees>41.2164935655891895294189453125</LatitudeDegrees>
              <LongitudeDegrees>-4.56425984390079975128173828125</LongitudeDegrees>
            </Position>
            <AltitudeMeters>825.4000244140625</AltitudeMeters>
            <DistanceMeters>168445.68660958</DistanceMeters>
          </Trackpoint>
          <Trackpoint>
            <Time>2019-08-02T14:48:38.000Z</Time>
            <Position>
              <LatitudeDegrees>41.21690855361521244049072265625</LatitudeDegrees>
              <LongitudeDegrees>-4.56477667205035686492919921875</LongitudeDegrees>
            </Position>
            <AltitudeMeters>825</AltitudeMeters>
            <DistanceMeters>168508.97796832</DistanceMeters>
          </Trackpoint>
          <Trackpoint>
            <Time>2019-08-02T14:48:42.000Z</Time>
            <Position>
              <LatitudeDegrees>41.21702372096478939056396484375</LatitudeDegrees>
              <LongitudeDegrees>-4.5649170689284801483154296875</LongitudeDegrees>
            </Position>
            <AltitudeMeters>824.4000244140625</AltitudeMeters>
            <DistanceMeters>168526.3696744</DistanceMeters>
          </Trackpoint>
          <Trackpoint>
            <Time>2019-08-02T14:48:58.000Z</Time>
            <Position>
              <LatitudeDegrees>41.21742856688797473907470703125</LatitudeDegrees>
              <LongitudeDegrees>-4.565415121614933013916015625</LongitudeDegrees>
            </Position>
            <AltitudeMeters>824.4000244140625</AltitudeMeters>
            <DistanceMeters>168587.76340395</DistanceMeters>
          </Trackpoint>
          <Trackpoint>
            <Time>2019-08-02T14:49:15.000Z</Time>
            <Position>
              <LatitudeDegrees>41.2178437225520610809326171875</LatitudeDegrees>
              <LongitudeDegrees>-4.56592046655714511871337890625</LongitudeDegrees>
            </Position>
            <AltitudeMeters>824.79998779296875</AltitudeMeters>
            <DistanceMeters>168650.41462556</DistanceMeters>
          </Trackpoint>
          <Trackpoint>
            <Time>2019-08-02T14:49:28.000Z</Time>
            <Position>
              <LatitudeDegrees>41.218162067234516143798828125</LatitudeDegrees>
              <LongitudeDegrees>-4.5663144998252391815185546875</LongitudeDegrees>
            </Position>
            <AltitudeMeters>825.20001220703125</AltitudeMeters>
            <DistanceMeters>168698.82698287</DistanceMeters>
          </Trackpoint>
          <Trackpoint>
            <Time>2019-08-02T14:49:42.000Z</Time>
            <Position>
              <LatitudeDegrees>41.218530200421810150146484375</LatitudeDegrees>
              <LongitudeDegrees>-4.56676871515810489654541015625</LongitudeDegrees>
            </Position>
            <AltitudeMeters>826</AltitudeMeters>
            <DistanceMeters>168754.72846179</DistanceMeters>
          </Trackpoint>
          <Trackpoint>
            <Time>2019-08-02T14:49:54.000Z</Time>
            <Position>
              <LatitudeDegrees>41.2188510596752166748046875</LatitudeDegrees>
              <LongitudeDegrees>-4.5671640895307064056396484375</LongitudeDegrees>
            </Position>
            <AltitudeMeters>827</AltitudeMeters>
            <DistanceMeters>168803.42202699</DistanceMeters>
          </Trackpoint>
          <Trackpoint>
            <Time>2019-08-02T14:50:10.000Z</Time>
            <Position>
              <LatitudeDegrees>41.2192743457853794097900390625</LatitudeDegrees>
              <LongitudeDegrees>-4.567683599889278411865234375</LongitudeDegrees>
            </Position>
            <AltitudeMeters>827.5999755859375</AltitudeMeters>
            <DistanceMeters>168867.54154457</DistanceMeters>
          </Trackpoint>
          <Trackpoint>
            <Time>2019-08-02T14:50:16.000Z</Time>
            <Position>
              <LatitudeDegrees>41.2194419838488101959228515625</LatitudeDegrees>
              <LongitudeDegrees>-4.56789256073534488677978515625</LongitudeDegrees>
            </Position>
            <AltitudeMeters>828.20001220703125</AltitudeMeters>
            <DistanceMeters>168893.11856331</DistanceMeters>
          </Trackpoint>
          <Trackpoint>
            <Time>2019-08-02T14:50:31.000Z</Time>
            <Position>
              <LatitudeDegrees>41.2198476679623126983642578125</LatitudeDegrees>
              <LongitudeDegrees>-4.56839145161211490631103515625</LongitudeDegrees>
            </Position>
            <AltitudeMeters>828</AltitudeMeters>
            <DistanceMeters>168954.62742575</DistanceMeters>
          </Trackpoint>
          <Trackpoint>
            <Time>2019-08-02T14:50:47.000Z</Time>
            <Position>
              <LatitudeDegrees>41.22024782001972198486328125</LatitudeDegrees>
              <LongitudeDegrees>-4.56888497807085514068603515625</LongitudeDegrees>
            </Position>
            <AltitudeMeters>828.4000244140625</AltitudeMeters>
            <DistanceMeters>169015.37923127</DistanceMeters>
          </Trackpoint>
          <Trackpoint>
            <Time>2019-08-02T14:51:01.000Z</Time>
            <Position>
              <LatitudeDegrees>41.22058703564107418060302734375</LatitudeDegrees>
              <LongitudeDegrees>-4.56929468549787998199462890625</LongitudeDegrees>
            </Position>
            <AltitudeMeters>828.79998779296875</AltitudeMeters>
            <DistanceMeters>169066.3888422</DistanceMeters>
          </Trackpoint>
          <Trackpoint>
            <Time>2019-08-02T14:51:19.000Z</Time>
            <Position>
              <LatitudeDegrees>41.22098919935524463653564453125</LatitudeDegrees>
              <LongitudeDegrees>-4.56978368572890758514404296875</LongitudeDegrees>
            </Position>
            <AltitudeMeters>829.4000244140625</AltitudeMeters>
            <DistanceMeters>169127.04819835</DistanceMeters>
          </Trackpoint>
          <Trackpoint>
            <Time>2019-08-02T14:51:23.000Z</Time>
            <Position>
              <LatitudeDegrees>41.22108089737594127655029296875</LatitudeDegrees>
              <LongitudeDegrees>-4.56989181227982044219970703125</LongitudeDegrees>
            </Position>
            <AltitudeMeters>829.79998779296875</AltitudeMeters>
            <DistanceMeters>169140.69040769</DistanceMeters>
          </Trackpoint>
          <Trackpoint>
            <Time>2019-08-02T14:51:40.000Z</Time>
            <Position>
              <LatitudeDegrees>41.22147853486239910125732421875</LatitudeDegrees>
              <LongitudeDegrees>-4.57037880085408687591552734375</LongitudeDegrees>
            </Position>
            <AltitudeMeters>829</AltitudeMeters>
            <DistanceMeters>169200.86460675</DistanceMeters>
          </Trackpoint>
          <Trackpoint>
            <Time>2019-08-02T14:51:57.000Z</Time>
            <Position>
              <LatitudeDegrees>41.22188941575586795806884765625</LatitudeDegrees>
              <LongitudeDegrees>-4.57088439725339412689208984375</LongitudeDegrees>
            </Position>
            <AltitudeMeters>828.4000244140625</AltitudeMeters>
            <DistanceMeters>169263.17822526</DistanceMeters>
          </Trackpoint>
          <Trackpoint>
            <Time>2019-08-02T14:51:58.000Z</Time>
            <Position>
              <LatitudeDegrees>41.22191305272281169891357421875</LatitudeDegrees>
              <LongitudeDegrees>-4.57091373391449451446533203125</LongitudeDegrees>
            </Position>
            <AltitudeMeters>828.20001220703125</AltitudeMeters>
            <DistanceMeters>169266.77671517</DistanceMeters>
          </Trackpoint>
          <Trackpoint>
            <Time>2019-08-02T14:52:06.000Z</Time>
            <Position>
              <LatitudeDegrees>41.2221007235348224639892578125</LatitudeDegrees>
              <LongitudeDegrees>-4.5711444877088069915771484375</LongitudeDegrees>
            </Position>
            <AltitudeMeters>827.20001220703125</AltitudeMeters>
            <DistanceMeters>169295.22829109</DistanceMeters>
          </Trackpoint>
          <Trackpoint>
            <Time>2019-08-02T14:52:14.000Z</Time>
            <Position>
              <LatitudeDegrees>41.22228520922362804412841796875</LatitudeDegrees>
              <LongitudeDegrees>-4.57137800753116607666015625</LongitudeDegrees>
            </Position>
            <AltitudeMeters>826.20001220703125</AltitudeMeters>
            <DistanceMeters>169323.58003327</DistanceMeters>
          </Trackpoint>
          <Trackpoint>
            <Time>2019-08-02T14:52:19.000Z</Time>
            <Position>
              <LatitudeDegrees>41.2223944254219532012939453125</LatitudeDegrees>
              <LongitudeDegrees>-4.57151873968541622161865234375</LongitudeDegrees>
            </Position>
            <AltitudeMeters>825.20001220703125</AltitudeMeters>
            <DistanceMeters>169340.50866305</DistanceMeters>
          </Trackpoint>
          <Trackpoint>
            <Time>2019-08-02T14:52:37.000Z</Time>
            <Position>
              <LatitudeDegrees>41.222767420113086700439453125</LatitudeDegrees>
              <LongitudeDegrees>-4.57208367995917797088623046875</LongitudeDegrees>
            </Position>
            <AltitudeMeters>824.5999755859375</AltitudeMeters>
            <DistanceMeters>169403.43945444</DistanceMeters>
          </Trackpoint>
          <Trackpoint>
            <Time>2019-08-02T14:52:55.000Z</Time>
            <Position>
              <LatitudeDegrees>41.22308132238686084747314453125</LatitudeDegrees>
              <LongitudeDegrees>-4.572683237493038177490234375</LongitudeDegrees>
            </Position>
            <AltitudeMeters>824.79998779296875</AltitudeMeters>
            <DistanceMeters>169464.59459029</DistanceMeters>
          </Trackpoint>
          <Trackpoint>
            <Time>2019-08-02T14:53:07.000Z</Time>
            <Position>
              <LatitudeDegrees>41.22326019220054149627685546875</LatitudeDegrees>
              <LongitudeDegrees>-4.57312119193375110626220703125</LongitudeDegrees>
            </Position>
            <AltitudeMeters>825.79998779296875</AltitudeMeters>
            <DistanceMeters>169506.31467292</DistanceMeters>
          </Trackpoint>
          <Trackpoint>
            <Time>2019-08-02T14:53:14.000Z</Time>
            <Position>
              <LatitudeDegrees>41.223360188305377960205078125</LatitudeDegrees>
              <LongitudeDegrees>-4.57338974811136722564697265625</LongitudeDegrees>
            </Position>
            <AltitudeMeters>826.5999755859375</AltitudeMeters>
            <DistanceMeters>169531.40100561</DistanceMeters>
          </Trackpoint>
          <Trackpoint>
            <Time>2019-08-02T14:53:15.000Z</Time>
            <Position>
              <LatitudeDegrees>41.223372928798198699951171875</LatitudeDegrees>
              <LongitudeDegrees>-4.5734290592372417449951171875</LongitudeDegrees>
            </Position>
            <AltitudeMeters>826.79998779296875</AltitudeMeters>
            <DistanceMeters>169534.98440744</DistanceMeters>
          </Trackpoint>
          <Trackpoint>
            <Time>2019-08-02T14:53:25.000Z</Time>
            <Position>
              <LatitudeDegrees>41.223494969308376312255859375</LatitudeDegrees>
              <LongitudeDegrees>-4.5738266967236995697021484375</LongitudeDegrees>
            </Position>
            <AltitudeMeters>827.4000244140625</AltitudeMeters>
            <DistanceMeters>169570.93742293</DistanceMeters>
          </Trackpoint>
          <Trackpoint>
            <Time>2019-08-02T14:53:31.000Z</Time>
            <Position>
              <LatitudeDegrees>41.22356579639017581939697265625</LatitudeDegrees>
              <LongitudeDegrees>-4.574069939553737640380859375</LongitudeDegrees>
            </Position>
            <AltitudeMeters>828.5999755859375</AltitudeMeters>
            <DistanceMeters>169592.77331303</DistanceMeters>
          </Trackpoint>
          <Trackpoint>
            <Time>2019-08-02T14:53:36.000Z</Time>
            <Position>
              <LatitudeDegrees>41.22362497262656688690185546875</LatitudeDegrees>
              <LongitudeDegrees>-4.57427253015339374542236328125</LongitudeDegrees>
            </Position>
            <AltitudeMeters>829.5999755859375</AltitudeMeters>
            <DistanceMeters>169610.9673929</DistanceMeters>
          </Trackpoint>
          <Trackpoint>
            <Time>2019-08-02T14:53:43.000Z</Time>
            <Position>
              <LatitudeDegrees>41.22371331788599491119384765625</LatitudeDegrees>
              <LongitudeDegrees>-4.5745713450014591217041015625</LongitudeDegrees>
            </Position>
            <AltitudeMeters>830.5999755859375</AltitudeMeters>
            <DistanceMeters>169637.84584646</DistanceMeters>
          </Trackpoint>
          <Trackpoint>
            <Time>2019-08-02T14:53:48.000Z</Time>
            <Position>
              <LatitudeDegrees>41.22377651743590831756591796875</LatitudeDegrees>
              <LongitudeDegrees>-4.57478466443717479705810546875</LongitudeDegrees>
            </Position>
            <AltitudeMeters>831.5999755859375</AltitudeMeters>
            <DistanceMeters>169657.03936095</DistanceMeters>
          </Trackpoint>
          <Trackpoint>
            <Time>2019-08-02T14:53:53.000Z</Time>
            <Position>
              <LatitudeDegrees>41.22383552603423595428466796875</LatitudeDegrees>
              <LongitudeDegrees>-4.57498691976070404052734375</LongitudeDegrees>
            </Position>
            <AltitudeMeters>832.79998779296875</AltitudeMeters>
            <DistanceMeters>169675.20015697</DistanceMeters>
          </Trackpoint>
          <Trackpoint>
            <Time>2019-08-02T14:53:58.000Z</Time>
            <Position>
              <LatitudeDegrees>41.22389470227062702178955078125</LatitudeDegrees>
              <LongitudeDegrees>-4.57517995499074459075927734375</LongitudeDegrees>
            </Position>
            <AltitudeMeters>833.5999755859375</AltitudeMeters>
            <DistanceMeters>169692.65043599</DistanceMeters>
          </Trackpoint>
          <Trackpoint>
            <Time>2019-08-02T14:54:03.000Z</Time>
            <Position>
              <LatitudeDegrees>41.2239514477550983428955078125</LatitudeDegrees>
              <LongitudeDegrees>-4.5753803662955760955810546875</LongitudeDegrees>
            </Position>
            <AltitudeMeters>835</AltitudeMeters>
            <DistanceMeters>169710.5770185</DistanceMeters>
          </Trackpoint>
          <Trackpoint>
            <Time>2019-08-02T14:54:09.000Z</Time>
            <Position>
              <LatitudeDegrees>41.224024035036563873291015625</LatitudeDegrees>
              <LongitudeDegrees>-4.57562570460140705108642578125</LongitudeDegrees>
            </Position>
            <AltitudeMeters>836.20001220703125</AltitudeMeters>
            <DistanceMeters>169732.64736928</DistanceMeters>
          </Trackpoint>
          <Trackpoint>
            <Time>2019-08-02T14:54:15.000Z</Time>
            <Position>
              <LatitudeDegrees>41.22409838251769542694091796875</LatitudeDegrees>
              <LongitudeDegrees>-4.5758748985826969146728515625</LongitudeDegrees>
            </Position>
            <AltitudeMeters>837.20001220703125</AltitudeMeters>
            <DistanceMeters>169755.0899755</DistanceMeters>
          </Trackpoint>
          <Trackpoint>
            <Time>2019-08-02T14:54:31.000Z</Time>
            <Position>
              <LatitudeDegrees>41.22427909635007381439208984375</LatitudeDegrees>
              <LongitudeDegrees>-4.5764985121786594390869140625</LongitudeDegrees>
            </Position>
            <AltitudeMeters>838.4000244140625</AltitudeMeters>
            <DistanceMeters>169811.03610116</DistanceMeters>
          </Trackpoint>
          <Trackpoint>
            <Time>2019-08-02T14:54:40.000Z</Time>
            <Position>
              <LatitudeDegrees>41.22437917627394199371337890625</LatitudeDegrees>
              <LongitudeDegrees>-4.57684225402772426605224609375</LongitudeDegrees>
            </Position>
            <AltitudeMeters>839.4000244140625</AltitudeMeters>
            <DistanceMeters>169841.89301806</DistanceMeters>
          </Trackpoint>
          <Trackpoint>
            <Time>2019-08-02T14:54:48.000Z</Time>
            <Position>
              <LatitudeDegrees>41.22446961700916290283203125</LatitudeDegrees>
              <LongitudeDegrees>-4.57714333198964595794677734375</LongitudeDegrees>
            </Position>
            <AltitudeMeters>840.4000244140625</AltitudeMeters>
            <DistanceMeters>169869.0334196</DistanceMeters>
          </Trackpoint>
          <Trackpoint>
            <Time>2019-08-02T14:54:56.000Z</Time>
            <Position>
              <LatitudeDegrees>41.2245643325150012969970703125</LatitudeDegrees>
              <LongitudeDegrees>-4.57746259868144989013671875</LongitudeDegrees>
            </Position>
            <AltitudeMeters>841.5999755859375</AltitudeMeters>
            <DistanceMeters>169897.76419313</DistanceMeters>
          </Trackpoint>
          <Trackpoint>
            <Time>2019-08-02T14:55:06.000Z</Time>
            <Position>
              <LatitudeDegrees>41.2246853671967983245849609375</LatitudeDegrees>
              <LongitudeDegrees>-4.57786920480430126190185546875</LongitudeDegrees>
            </Position>
            <AltitudeMeters>842.79998779296875</AltitudeMeters>
            <DistanceMeters>169934.37156212</DistanceMeters>
          </Trackpoint>
          <Trackpoint>
            <Time>2019-08-02T14:55:13.000Z</Time>
            <Position>
              <LatitudeDegrees>41.22476256452500820159912109375</LatitudeDegrees>
              <LongitudeDegrees>-4.578129462897777557373046875</LongitudeDegrees>
            </Position>
            <AltitudeMeters>843.5999755859375</AltitudeMeters>
            <DistanceMeters>169957.79212923</DistanceMeters>
          </Trackpoint>
          <Trackpoint>
            <Time>2019-08-02T14:55:27.000Z</Time>
            <Position>
              <LatitudeDegrees>41.2249612994492053985595703125</LatitudeDegrees>
              <LongitudeDegrees>-4.578807055950164794921875</LongitudeDegrees>
            </Position>
            <AltitudeMeters>843.79998779296875</AltitudeMeters>
            <DistanceMeters>170018.67607958</DistanceMeters>
          </Trackpoint>
          <Trackpoint>
            <Time>2019-08-02T14:55:33.000Z</Time>
            <Position>
              <LatitudeDegrees>41.2250357307493686676025390625</LatitudeDegrees>
              <LongitudeDegrees>-4.57907016389071941375732421875</LongitudeDegrees>
            </Position>
            <AltitudeMeters>844.5999755859375</AltitudeMeters>
            <DistanceMeters>170042.20819397</DistanceMeters>
          </Trackpoint>
          <Trackpoint>
            <Time>2019-08-02T14:55:48.000Z</Time>
            <Position>
              <LatitudeDegrees>41.225243099033832550048828125</LatitudeDegrees>
              <LongitudeDegrees>-4.579744823276996612548828125</LongitudeDegrees>
            </Position>
            <AltitudeMeters>845.20001220703125</AltitudeMeters>
            <DistanceMeters>170103.22008095</DistanceMeters>
          </Trackpoint>
          <Trackpoint>
            <Time>2019-08-02T14:56:03.000Z</Time>
            <Position>
              <LatitudeDegrees>41.2255020998418331146240234375</LatitudeDegrees>
              <LongitudeDegrees>-4.58038243465125560760498046875</LongitudeDegrees>
            </Position>
            <AltitudeMeters>845.4000244140625</AltitudeMeters>
            <DistanceMeters>170163.88345634</DistanceMeters>
          </Trackpoint>
          <Trackpoint>
            <Time>2019-08-02T14:56:07.000Z</Time>
            <Position>
              <LatitudeDegrees>41.22555230744183063507080078125</LatitudeDegrees>
              <LongitudeDegrees>-4.5805637352168560028076171875</LongitudeDegrees>
            </Position>
            <AltitudeMeters>845.5999755859375</AltitudeMeters>
            <DistanceMeters>170180.05699196</DistanceMeters>
          </Trackpoint>
          <Trackpoint>
            <Time>2019-08-02T14:56:22.000Z</Time>
            <Position>
              <LatitudeDegrees>41.22575498186051845550537109375</LatitudeDegrees>
              <LongitudeDegrees>-4.5812537334859371185302734375</LongitudeDegrees>
            </Position>
            <AltitudeMeters>845.5999755859375</AltitudeMeters>
            <DistanceMeters>170242.06714751</DistanceMeters>
          </Trackpoint>
          <Trackpoint>
            <Time>2019-08-02T14:56:37.000Z</Time>
            <Position>
              <LatitudeDegrees>41.2259520404040813446044921875</LatitudeDegrees>
              <LongitudeDegrees>-4.58193325437605381011962890625</LongitudeDegrees>
            </Position>
            <AltitudeMeters>846.20001220703125</AltitudeMeters>
            <DistanceMeters>170303.03328373</DistanceMeters>
          </Trackpoint>
          <Trackpoint>
            <Time>2019-08-02T14:56:52.000Z</Time>
            <Position>
              <LatitudeDegrees>41.2261535413563251495361328125</LatitudeDegrees>
              <LongitudeDegrees>-4.58261151798069477081298828125</LongitudeDegrees>
            </Position>
            <AltitudeMeters>846.4000244140625</AltitudeMeters>
            <DistanceMeters>170364.08097745</DistanceMeters>
          </Trackpoint>
          <Trackpoint>
            <Time>2019-08-02T14:57:07.000Z</Time>
            <Position>
              <LatitudeDegrees>41.22643777169287204742431640625</LatitudeDegrees>
              <LongitudeDegrees>-4.5832047052681446075439453125</LongitudeDegrees>
            </Position>
            <AltitudeMeters>846.4000244140625</AltitudeMeters>
            <DistanceMeters>170422.95867388</DistanceMeters>
          </Trackpoint>
          <Trackpoint>
            <Time>2019-08-02T14:57:18.000Z</Time>
            <Position>
              <LatitudeDegrees>41.226467527449131011962890625</LatitudeDegrees>
              <LongitudeDegrees>-4.58373519591987133026123046875</LongitudeDegrees>
            </Position>
            <AltitudeMeters>846.5999755859375</AltitudeMeters>
            <DistanceMeters>170467.49002135</DistanceMeters>
          </Trackpoint>
          <Trackpoint>
            <Time>2019-08-02T14:57:32.000Z</Time>
            <Position>
              <LatitudeDegrees>41.22661379165947437286376953125</LatitudeDegrees>
              <LongitudeDegrees>-4.584423266351222991943359375</LongitudeDegrees>
            </Position>
            <AltitudeMeters>847.20001220703125</AltitudeMeters>
            <DistanceMeters>170527.34568849</DistanceMeters>
          </Trackpoint>
          <Trackpoint>
            <Time>2019-08-02T14:57:38.000Z</Time>
            <Position>
              <LatitudeDegrees>41.226697862148284912109375</LatitudeDegrees>
              <LongitudeDegrees>-4.5846998691558837890625</LongitudeDegrees>
            </Position>
            <AltitudeMeters>847.5999755859375</AltitudeMeters>
            <DistanceMeters>170552.31982271</DistanceMeters>
          </Trackpoint>
          <Trackpoint>
            <Time>2019-08-02T14:57:53.000Z</Time>
            <Position>
              <LatitudeDegrees>41.2269052304327487945556640625</LatitudeDegrees>
              <LongitudeDegrees>-4.58540327847003936767578125</LongitudeDegrees>
            </Position>
            <AltitudeMeters>847.79998779296875</AltitudeMeters>
            <DistanceMeters>170615.56479517</DistanceMeters>
          </Trackpoint>
          <Trackpoint>
            <Time>2019-08-02T14:58:08.000Z</Time>
            <Position>
              <LatitudeDegrees>41.22711134143173694610595703125</LatitudeDegrees>
              <LongitudeDegrees>-4.58610777743160724639892578125</LongitudeDegrees>
            </Position>
            <AltitudeMeters>847.4000244140625</AltitudeMeters>
            <DistanceMeters>170678.84359729</DistanceMeters>
          </Trackpoint>
          <Trackpoint>
            <Time>2019-08-02T14:58:23.000Z</Time>
            <Position>
              <LatitudeDegrees>41.22731988318264484405517578125</LatitudeDegrees>
              <LongitudeDegrees>-4.58681118674576282501220703125</LongitudeDegrees>
            </Position>
            <AltitudeMeters>847</AltitudeMeters>
            <DistanceMeters>170742.13595474</DistanceMeters>
          </Trackpoint>
          <Trackpoint>
            <Time>2019-08-02T14:58:27.000Z</Time>
            <Position>
              <LatitudeDegrees>41.22738090343773365020751953125</LatitudeDegrees>
              <LongitudeDegrees>-4.58700028248131275177001953125</LongitudeDegrees>
            </Position>
            <AltitudeMeters>846.5999755859375</AltitudeMeters>
            <DistanceMeters>170759.36070994</DistanceMeters>
          </Trackpoint>
          <Trackpoint>
            <Time>2019-08-02T14:58:42.000Z</Time>
            <Position>
              <LatitudeDegrees>41.22757402248680591583251953125</LatitudeDegrees>
              <LongitudeDegrees>-4.587681479752063751220703125</LongitudeDegrees>
            </Position>
            <AltitudeMeters>846</AltitudeMeters>
            <DistanceMeters>170820.30047576</DistanceMeters>
          </Trackpoint>
          <Trackpoint>
            <Time>2019-08-02T14:58:46.000Z</Time>
            <Position>
              <LatitudeDegrees>41.227627582848072052001953125</LatitudeDegrees>
              <LongitudeDegrees>-4.5878318510949611663818359375</LongitudeDegrees>
            </Position>
            <AltitudeMeters>845.4000244140625</AltitudeMeters>
            <DistanceMeters>170834.22764496</DistanceMeters>
          </Trackpoint>
          <Trackpoint>
            <Time>2019-08-02T14:58:57.000Z</Time>
            <Position>
              <LatitudeDegrees>41.227741576731204986572265625</LatitudeDegrees>
              <LongitudeDegrees>-4.5882724039256572723388671875</LongitudeDegrees>
            </Position>
            <AltitudeMeters>844.20001220703125</AltitudeMeters>
            <DistanceMeters>170873.22774773</DistanceMeters>
          </Trackpoint>
          <Trackpoint>
            <Time>2019-08-02T14:59:14.000Z</Time>
            <Position>
              <LatitudeDegrees>41.22788800857961177825927734375</LatitudeDegrees>
              <LongitudeDegrees>-4.5890023000538349151611328125</LongitudeDegrees>
            </Position>
            <AltitudeMeters>844.20001220703125</AltitudeMeters>
            <DistanceMeters>170936.46358165</DistanceMeters>
          </Trackpoint>
          <Trackpoint>
            <Time>2019-08-02T14:59:23.000Z</Time>
            <Position>
              <LatitudeDegrees>41.2279097177088260650634765625</LatitudeDegrees>
              <LongitudeDegrees>-4.58924956619739532470703125</LongitudeDegrees>
            </Position>
            <AltitudeMeters>844.4000244140625</AltitudeMeters>
            <DistanceMeters>170957.30283395</DistanceMeters>
          </Trackpoint>
          <Trackpoint>
            <Time>2019-08-02T15:00:29.000Z</Time>
            <Position>
              <LatitudeDegrees>41.22791684232652187347412109375</LatitudeDegrees>
              <LongitudeDegrees>-4.58933615125715732574462890625</LongitudeDegrees>
            </Position>
            <AltitudeMeters>852.79998779296875</AltitudeMeters>
            <DistanceMeters>170964.59454775</DistanceMeters>
          </Trackpoint>
          <Trackpoint>
            <Time>2019-08-02T15:00:46.000Z</Time>
            <Position>
              <LatitudeDegrees>41.22794668190181255340576171875</LatitudeDegrees>
              <LongitudeDegrees>-4.59009052254259586334228515625</LongitudeDegrees>
            </Position>
            <AltitudeMeters>853</AltitudeMeters>
            <DistanceMeters>171027.82995327</DistanceMeters>
          </Trackpoint>
          <Trackpoint>
            <Time>2019-08-02T15:00:59.000Z</Time>
            <Position>
              <LatitudeDegrees>41.22787392698228359222412109375</LatitudeDegrees>
              <LongitudeDegrees>-4.5908047445118427276611328125</LongitudeDegrees>
            </Position>
            <AltitudeMeters>853</AltitudeMeters>
            <DistanceMeters>171088.16316183</DistanceMeters>
          </Trackpoint>
          <Trackpoint>
            <Time>2019-08-02T15:01:12.000Z</Time>
            <Position>
              <LatitudeDegrees>41.2276954762637615203857421875</LatitudeDegrees>
              <LongitudeDegrees>-4.59156724624335765838623046875</LongitudeDegrees>
            </Position>
            <AltitudeMeters>852.4000244140625</AltitudeMeters>
            <DistanceMeters>171155.01092641</DistanceMeters>
          </Trackpoint>
          <Trackpoint>
            <Time>2019-08-02T15:01:15.000Z</Time>
            <Position>
              <LatitudeDegrees>41.22763956896960735321044921875</LatitudeDegrees>
              <LongitudeDegrees>-4.591747038066387176513671875</LongitudeDegrees>
            </Position>
            <AltitudeMeters>852</AltitudeMeters>
            <DistanceMeters>171171.29685301</DistanceMeters>
          </Trackpoint>
          <Trackpoint>
            <Time>2019-08-02T15:01:25.000Z</Time>
            <Position>
              <LatitudeDegrees>41.22740169055759906768798828125</LatitudeDegrees>
              <LongitudeDegrees>-4.59234056062996387481689453125</LongitudeDegrees>
            </Position>
            <AltitudeMeters>851</AltitudeMeters>
            <DistanceMeters>171227.59494855</DistanceMeters>
          </Trackpoint>
          <Trackpoint>
            <Time>2019-08-02T15:01:31.000Z</Time>
            <Position>
              <LatitudeDegrees>41.22723673470318317413330078125</LatitudeDegrees>
              <LongitudeDegrees>-4.592679105699062347412109375</LongitudeDegrees>
            </Position>
            <AltitudeMeters>850</AltitudeMeters>
            <DistanceMeters>171261.36220713</DistanceMeters>
          </Trackpoint>
          <Trackpoint>
            <Time>2019-08-02T15:01:43.000Z</Time>
            <Position>
              <LatitudeDegrees>41.2268566153943538665771484375</LatitudeDegrees>
              <LongitudeDegrees>-4.59326474927365779876708984375</LongitudeDegrees>
            </Position>
            <AltitudeMeters>849</AltitudeMeters>
            <DistanceMeters>171326.11850311</DistanceMeters>
          </Trackpoint>
          <Trackpoint>
            <Time>2019-08-02T15:01:44.000Z</Time>
            <Position>
              <LatitudeDegrees>41.2268214114010334014892578125</LatitudeDegrees>
              <LongitudeDegrees>-4.5933082513511180877685546875</LongitudeDegrees>
            </Position>
            <AltitudeMeters>849</AltitudeMeters>
            <DistanceMeters>171331.4670807</DistanceMeters>
          </Trackpoint>
          <Trackpoint>
            <Time>2019-08-02T15:01:53.000Z</Time>
            <Position>
              <LatitudeDegrees>41.2264891527593135833740234375</LatitudeDegrees>
              <LongitudeDegrees>-4.59368049167096614837646484375</LongitudeDegrees>
            </Position>
            <AltitudeMeters>847.79998779296875</AltitudeMeters>
            <DistanceMeters>171379.82606267</DistanceMeters>
          </Trackpoint>
          <Trackpoint>
            <Time>2019-08-02T15:02:01.000Z</Time>
            <Position>
              <LatitudeDegrees>41.22615932486951351165771484375</LatitudeDegrees>
              <LongitudeDegrees>-4.59396916441619396209716796875</LongitudeDegrees>
            </Position>
            <AltitudeMeters>846.5999755859375</AltitudeMeters>
            <DistanceMeters>171423.77620058</DistanceMeters>
          </Trackpoint>
          <Trackpoint>
            <Time>2019-08-02T15:02:11.000Z</Time>
            <Position>
              <LatitudeDegrees>41.2257079593837261199951171875</LatitudeDegrees>
              <LongitudeDegrees>-4.59426085464656352996826171875</LongitudeDegrees>
            </Position>
            <AltitudeMeters>845.79998779296875</AltitudeMeters>
            <DistanceMeters>171479.63380537</DistanceMeters>
          </Trackpoint>
          <Trackpoint>
            <Time>2019-08-02T15:02:16.000Z</Time>
            <Position>
              <LatitudeDegrees>41.2254591844975948333740234375</LatitudeDegrees>
              <LongitudeDegrees>-4.5943821407854557037353515625</LongitudeDegrees>
            </Position>
            <AltitudeMeters>844.79998779296875</AltitudeMeters>
            <DistanceMeters>171509.1257867</DistanceMeters>
          </Trackpoint>
          <Trackpoint>
            <Time>2019-08-02T15:02:24.000Z</Time>
            <Position>
              <LatitudeDegrees>41.22504419647157192230224609375</LatitudeDegrees>
              <LongitudeDegrees>-4.5945202745497226715087890625</LongitudeDegrees>
            </Position>
            <AltitudeMeters>843.5999755859375</AltitudeMeters>
            <DistanceMeters>171556.74033461</DistanceMeters>
          </Trackpoint>
          <Trackpoint>
            <Time>2019-08-02T15:02:30.000Z</Time>
            <Position>
              <LatitudeDegrees>41.22473356314003467559814453125</LatitudeDegrees>
              <LongitudeDegrees>-4.59462060593068599700927734375</LongitudeDegrees>
            </Position>
            <AltitudeMeters>842.5999755859375</AltitudeMeters>
            <DistanceMeters>171592.31994052</DistanceMeters>
          </Trackpoint>
          <Trackpoint>
            <Time>2019-08-02T15:02:35.000Z</Time>
            <Position>
              <LatitudeDegrees>41.2245197407901287078857421875</LatitudeDegrees>
              <LongitudeDegrees>-4.5946835540235042572021484375</LongitudeDegrees>
            </Position>
            <AltitudeMeters>841.20001220703125</AltitudeMeters>
            <DistanceMeters>171616.69535784</DistanceMeters>
          </Trackpoint>
          <Trackpoint>
            <Time>2019-08-02T15:02:40.000Z</Time>
            <Position>
              <LatitudeDegrees>41.22419745661318302154541015625</LatitudeDegrees>
              <LongitudeDegrees>-4.59477433003485202789306640625</LongitudeDegrees>
            </Position>
            <AltitudeMeters>840.20001220703125</AltitudeMeters>
            <DistanceMeters>171653.36237329</DistanceMeters>
          </Trackpoint>
          <Trackpoint>
            <Time>2019-08-02T15:02:46.000Z</Time>
            <Position>
              <LatitudeDegrees>41.22393275611102581024169921875</LatitudeDegrees>
              <LongitudeDegrees>-4.594855718314647674560546875</LongitudeDegrees>
            </Position>
            <AltitudeMeters>839.20001220703125</AltitudeMeters>
            <DistanceMeters>171683.60177905</DistanceMeters>
          </Trackpoint>
          <Trackpoint>
            <Time>2019-08-02T15:02:55.000Z</Time>
            <Position>
              <LatitudeDegrees>41.22341911308467388153076171875</LatitudeDegrees>
              <LongitudeDegrees>-4.59508697502315044403076171875</LongitudeDegrees>
            </Position>
            <AltitudeMeters>838.4000244140625</AltitudeMeters>
            <DistanceMeters>171743.96027656</DistanceMeters>
          </Trackpoint>
          <Trackpoint>
            <Time>2019-08-02T15:03:00.000Z</Time>
            <Position>
              <LatitudeDegrees>41.22317234985530376434326171875</LatitudeDegrees>
              <LongitudeDegrees>-4.59524631500244140625</LongitudeDegrees>
            </Position>
            <AltitudeMeters>838.20001220703125</AltitudeMeters>
            <DistanceMeters>171774.49358873</DistanceMeters>
          </Trackpoint>
          <Trackpoint>
            <Time>2019-08-02T15:03:02.000Z</Time>
            <Position>
              <LatitudeDegrees>41.223076879978179931640625</LatitudeDegrees>
              <LongitudeDegrees>-4.5953192375600337982177734375</LongitudeDegrees>
            </Position>
            <AltitudeMeters>838</AltitudeMeters>
            <DistanceMeters>171786.74871955</DistanceMeters>
          </Trackpoint>
          <Trackpoint>
            <Time>2019-08-02T15:03:12.000Z</Time>
            <Position>
              <LatitudeDegrees>41.22258670628070831298828125</LatitudeDegrees>
              <LongitudeDegrees>-4.59576792083680629730224609375</LongitudeDegrees>
            </Position>
            <AltitudeMeters>837.20001220703125</AltitudeMeters>
            <DistanceMeters>171852.98622495</DistanceMeters>
          </Trackpoint>
          <Trackpoint>
            <Time>2019-08-02T15:03:13.000Z</Time>
            <Position>
              <LatitudeDegrees>41.2225499935448169708251953125</LatitudeDegrees>
              <LongitudeDegrees>-4.59582030773162841796875</LongitudeDegrees>
            </Position>
            <AltitudeMeters>837</AltitudeMeters>
            <DistanceMeters>171858.97969174</DistanceMeters>
          </Trackpoint>
          <Trackpoint>
            <Time>2019-08-02T15:03:15.000Z</Time>
            <Position>
              <LatitudeDegrees>41.22252769768238067626953125</LatitudeDegrees>
              <LongitudeDegrees>-4.595881663262844085693359375</LongitudeDegrees>
            </Position>
            <AltitudeMeters>836.79998779296875</AltitudeMeters>
            <DistanceMeters>171864.68287816</DistanceMeters>
          </Trackpoint>
          <Trackpoint>
            <Time>2019-08-02T15:03:23.000Z</Time>
            <Position>
              <LatitudeDegrees>41.22277337126433849334716796875</LatitudeDegrees>
              <LongitudeDegrees>-4.5965191908180713653564453125</LongitudeDegrees>
            </Position>
            <AltitudeMeters>836.4000244140625</AltitudeMeters>
            <DistanceMeters>171924.65128554</DistanceMeters>
          </Trackpoint>
          <Trackpoint>
            <Time>2019-08-02T15:03:25.000Z</Time>
            <Position>
              <LatitudeDegrees>41.2228333018720149993896484375</LatitudeDegrees>
              <LongitudeDegrees>-4.59666989743709564208984375</LongitudeDegrees>
            </Position>
            <AltitudeMeters>836</AltitudeMeters>
            <DistanceMeters>171938.92301999</DistanceMeters>
          </Trackpoint>
          <Trackpoint>
            <Time>2019-08-02T15:03:35.000Z</Time>
            <Position>
              <LatitudeDegrees>41.2230874411761760711669921875</LatitudeDegrees>
              <LongitudeDegrees>-4.59735830314457416534423828125</LongitudeDegrees>
            </Position>
            <AltitudeMeters>835.5999755859375</AltitudeMeters>
            <DistanceMeters>172003.12100336</DistanceMeters>
          </Trackpoint>
          <Trackpoint>
            <Time>2019-08-02T15:03:38.000Z</Time>
            <Position>
              <LatitudeDegrees>41.22315399348735809326171875</LatitudeDegrees>
              <LongitudeDegrees>-4.597539603710174560546875</LongitudeDegrees>
            </Position>
            <AltitudeMeters>835.20001220703125</AltitudeMeters>
            <DistanceMeters>172020.00957922</DistanceMeters>
          </Trackpoint>
          <Trackpoint>
            <Time>2019-08-02T15:03:48.000Z</Time>
            <Position>
              <LatitudeDegrees>41.2233249843120574951171875</LatitudeDegrees>
              <LongitudeDegrees>-4.59806640632450580596923828125</LongitudeDegrees>
            </Position>
            <AltitudeMeters>835.20001220703125</AltitudeMeters>
            <DistanceMeters>172068.04245798</DistanceMeters>
          </Trackpoint>
          <Trackpoint>
            <Time>2019-08-02T15:04:00.000Z</Time>
            <Position>
              <LatitudeDegrees>41.2229670770466327667236328125</LatitudeDegrees>
              <LongitudeDegrees>-4.59852120839059352874755859375</LongitudeDegrees>
            </Position>
            <AltitudeMeters>836.79998779296875</AltitudeMeters>
            <DistanceMeters>172123.14713786</DistanceMeters>
          </Trackpoint>
          <Trackpoint>
            <Time>2019-08-02T15:04:02.000Z</Time>
            <Position>
              <LatitudeDegrees>41.22290228493511676788330078125</LatitudeDegrees>
              <LongitudeDegrees>-4.5986103080213069915771484375</LongitudeDegrees>
            </Position>
            <AltitudeMeters>838</AltitudeMeters>
            <DistanceMeters>172133.52203599</DistanceMeters>
          </Trackpoint>
          <Trackpoint>
            <Time>2019-08-02T15:04:05.000Z</Time>
            <Position>
              <LatitudeDegrees>41.22279834933578968048095703125</LatitudeDegrees>
              <LongitudeDegrees>-4.59871508181095123291015625</LongitudeDegrees>
            </Position>
            <AltitudeMeters>839.4000244140625</AltitudeMeters>
            <DistanceMeters>172148.03967989</DistanceMeters>
          </Trackpoint>
          <Trackpoint>
            <Time>2019-08-02T15:04:07.000Z</Time>
            <Position>
              <LatitudeDegrees>41.22273833490908145904541015625</LatitudeDegrees>
              <LongitudeDegrees>-4.5987943746149539947509765625</LongitudeDegrees>
            </Position>
            <AltitudeMeters>840.4000244140625</AltitudeMeters>
            <DistanceMeters>172157.45643892</DistanceMeters>
          </Trackpoint>
          <Trackpoint>
            <Time>2019-08-02T15:04:10.000Z</Time>
            <Position>
              <LatitudeDegrees>41.222625933587551116943359375</LatitudeDegrees>
              <LongitudeDegrees>-4.59853361360728740692138671875</LongitudeDegrees>
            </Position>
            <AltitudeMeters>842</AltitudeMeters>
            <DistanceMeters>172182.617173</DistanceMeters>
          </Trackpoint>
          <Trackpoint>
            <Time>2019-08-02T15:04:13.000Z</Time>
            <Position>
              <LatitudeDegrees>41.2225714512169361114501953125</LatitudeDegrees>
              <LongitudeDegrees>-4.59851115010678768157958984375</LongitudeDegrees>
            </Position>
            <AltitudeMeters>843.20001220703125</AltitudeMeters>
            <DistanceMeters>172188.96620924</DistanceMeters>
          </Trackpoint>
          <Trackpoint>
            <Time>2019-08-02T15:04:15.000Z</Time>
            <Position>
              <LatitudeDegrees>41.22256298549473285675048828125</LatitudeDegrees>
              <LongitudeDegrees>-4.59848600439727306365966796875</LongitudeDegrees>
            </Position>
            <AltitudeMeters>843.20001220703125</AltitudeMeters>
            <DistanceMeters>172191.2704846</DistanceMeters>
          </Trackpoint>
          <Trackpoint>
            <Time>2019-08-02T15:04:17.000Z</Time>
            <Position>
              <LatitudeDegrees>41.222564242780208587646484375</LatitudeDegrees>
              <LongitudeDegrees>-4.59845398552715778350830078125</LongitudeDegrees>
            </Position>
            <AltitudeMeters>843</AltitudeMeters>
            <DistanceMeters>172193.95488416</DistanceMeters>
          </Trackpoint>
          <Trackpoint>
            <Time>2019-08-02T15:04:27.000Z</Time>
            <Position>
              <LatitudeDegrees>41.22252744622528553009033203125</LatitudeDegrees>
              <LongitudeDegrees>-4.59833747707307338714599609375</LongitudeDegrees>
            </Position>
            <AltitudeMeters>842</AltitudeMeters>
            <DistanceMeters>172204.53319723</DistanceMeters>
          </Trackpoint>
          <Trackpoint>
            <Time>2019-08-02T15:04:31.000Z</Time>
            <Position>
              <LatitudeDegrees>41.22248788364231586456298828125</LatitudeDegrees>
              <LongitudeDegrees>-4.598248712718486785888671875</LongitudeDegrees>
            </Position>
            <AltitudeMeters>841</AltitudeMeters>
            <DistanceMeters>172213.17070217</DistanceMeters>
          </Trackpoint>
          <Trackpoint>
            <Time>2019-08-02T15:04:34.000Z</Time>
            <Position>
              <LatitudeDegrees>41.22244580648839473724365234375</LatitudeDegrees>
              <LongitudeDegrees>-4.59814184345304965972900390625</LongitudeDegrees>
            </Position>
            <AltitudeMeters>839.79998779296875</AltitudeMeters>
            <DistanceMeters>172223.2694983</DistanceMeters>
          </Trackpoint>
          <Trackpoint>
            <Time>2019-08-02T15:04:37.000Z</Time>
            <Position>
              <LatitudeDegrees>41.22240004129707813262939453125</LatitudeDegrees>
              <LongitudeDegrees>-4.59802701137959957122802734375</LongitudeDegrees>
            </Position>
            <AltitudeMeters>838.79998779296875</AltitudeMeters>
            <DistanceMeters>172234.14912339</DistanceMeters>
          </Trackpoint>
          <Trackpoint>
            <Time>2019-08-02T15:04:40.000Z</Time>
            <Position>
              <LatitudeDegrees>41.22235092334449291229248046875</LatitudeDegrees>
              <LongitudeDegrees>-4.59790882654488086700439453125</LongitudeDegrees>
            </Position>
            <AltitudeMeters>837.5999755859375</AltitudeMeters>
            <DistanceMeters>172245.45290956</DistanceMeters>
          </Trackpoint>
          <Trackpoint>
            <Time>2019-08-02T15:04:43.000Z</Time>
            <Position>
              <LatitudeDegrees>41.2223008833825588226318359375</LatitudeDegrees>
              <LongitudeDegrees>-4.59778661839663982391357421875</LongitudeDegrees>
            </Position>
            <AltitudeMeters>836.4000244140625</AltitudeMeters>
            <DistanceMeters>172257.10133986</DistanceMeters>
          </Trackpoint>
          <Trackpoint>
            <Time>2019-08-02T15:04:46.000Z</Time>
            <Position>
              <LatitudeDegrees>41.2222479097545146942138671875</LatitudeDegrees>
              <LongitudeDegrees>-4.59765963256359100341796875</LongitudeDegrees>
            </Position>
            <AltitudeMeters>835.20001220703125</AltitudeMeters>
            <DistanceMeters>172269.25733307</DistanceMeters>
          </Trackpoint>
          <Trackpoint>
            <Time>2019-08-02T15:04:49.000Z</Time>
            <Position>
              <LatitudeDegrees>41.22219451703131198883056640625</LatitudeDegrees>
              <LongitudeDegrees>-4.597531221807003021240234375</LongitudeDegrees>
            </Position>
            <AltitudeMeters>833.79998779296875</AltitudeMeters>
            <DistanceMeters>172281.54079949</DistanceMeters>
          </Trackpoint>
          <Trackpoint>
            <Time>2019-08-02T15:04:52.000Z</Time>
            <Position>
              <LatitudeDegrees>41.22214615345001220703125</LatitudeDegrees>
              <LongitudeDegrees>-4.5974033139646053314208984375</LongitudeDegrees>
            </Position>
            <AltitudeMeters>832.79998779296875</AltitudeMeters>
            <DistanceMeters>172293.5258496</DistanceMeters>
          </Trackpoint>
          <Trackpoint>
            <Time>2019-08-02T15:04:55.000Z</Time>
            <Position>
              <LatitudeDegrees>41.22209829278290271759033203125</LatitudeDegrees>
              <LongitudeDegrees>-4.59727716632187366485595703125</LongitudeDegrees>
            </Position>
            <AltitudeMeters>831.5999755859375</AltitudeMeters>
            <DistanceMeters>172305.35352664</DistanceMeters>
          </Trackpoint>
          <Trackpoint>
            <Time>2019-08-02T15:04:58.000Z</Time>
            <Position>
              <LatitudeDegrees>41.22204615734517574310302734375</LatitudeDegrees>
              <LongitudeDegrees>-4.5971525274217128753662109375</LongitudeDegrees>
            </Position>
            <AltitudeMeters>830.20001220703125</AltitudeMeters>
            <DistanceMeters>172317.29290631</DistanceMeters>
          </Trackpoint>
          <Trackpoint>
            <Time>2019-08-02T15:05:01.000Z</Time>
            <Position>
              <LatitudeDegrees>41.22199854813516139984130859375</LatitudeDegrees>
              <LongitudeDegrees>-4.59702386520802974700927734375</LongitudeDegrees>
            </Position>
            <AltitudeMeters>829</AltitudeMeters>
            <DistanceMeters>172329.29715388</DistanceMeters>
          </Trackpoint>
          <Trackpoint>
            <Time>2019-08-02T15:05:04.000Z</Time>
            <Position>
              <LatitudeDegrees>41.22192713432013988494873046875</LatitudeDegrees>
              <LongitudeDegrees>-4.596920013427734375</LongitudeDegrees>
            </Position>
            <AltitudeMeters>827.5999755859375</AltitudeMeters>
            <DistanceMeters>172341.07740069</DistanceMeters>
          </Trackpoint>
          <Trackpoint>
            <Time>2019-08-02T15:05:07.000Z</Time>
            <Position>
              <LatitudeDegrees>41.22182152234017848968505859375</LatitudeDegrees>
              <LongitudeDegrees>-4.5969027467072010040283203125</LongitudeDegrees>
            </Position>
            <AltitudeMeters>826.79998779296875</AltitudeMeters>
            <DistanceMeters>172352.92071853</DistanceMeters>
          </Trackpoint>
          <Trackpoint>
            <Time>2019-08-02T15:05:09.000Z</Time>
            <Position>
              <LatitudeDegrees>41.22176134027540683746337890625</LatitudeDegrees>
              <LongitudeDegrees>-4.59696301259100437164306640625</LongitudeDegrees>
            </Position>
            <AltitudeMeters>826.5999755859375</AltitudeMeters>
            <DistanceMeters>172361.30679242</DistanceMeters>
          </Trackpoint>
          <Trackpoint>
            <Time>2019-08-02T15:05:11.000Z</Time>
            <Position>
              <LatitudeDegrees>41.2217221967875957489013671875</LatitudeDegrees>
              <LongitudeDegrees>-4.59705286659300327301025390625</LongitudeDegrees>
            </Position>
            <AltitudeMeters>826.20001220703125</AltitudeMeters>
            <DistanceMeters>172369.9995296</DistanceMeters>
          </Trackpoint>
          <Trackpoint>
            <Time>2019-08-02T15:05:18.000Z</Time>
            <Position>
              <LatitudeDegrees>41.22160007245838642120361328125</LatitudeDegrees>
              <LongitudeDegrees>-4.597381018102169036865234375</LongitudeDegrees>
            </Position>
            <AltitudeMeters>825.5999755859375</AltitudeMeters>
            <DistanceMeters>172400.6504696</DistanceMeters>
          </Trackpoint>
          <Trackpoint>
            <Time>2019-08-02T15:05:27.000Z</Time>
            <Position>
              <LatitudeDegrees>41.22148088179528713226318359375</LatitudeDegrees>
              <LongitudeDegrees>-4.5977409370243549346923828125</LongitudeDegrees>
            </Position>
            <AltitudeMeters>825.4000244140625</AltitudeMeters>
            <DistanceMeters>172433.57307788</DistanceMeters>
          </Trackpoint>
          <Trackpoint>
            <Time>2019-08-02T15:05:43.000Z</Time>
            <Position>
              <LatitudeDegrees>41.22134350240230560302734375</LatitudeDegrees>
              <LongitudeDegrees>-4.59846521727740764617919921875</LongitudeDegrees>
            </Position>
            <AltitudeMeters>826.4000244140625</AltitudeMeters>
            <DistanceMeters>172496.10657677</DistanceMeters>
          </Trackpoint>
          <Trackpoint>
            <Time>2019-08-02T15:05:44.000Z</Time>
            <Position>
              <LatitudeDegrees>41.221328414976596832275390625</LatitudeDegrees>
              <LongitudeDegrees>-4.5985677279531955718994140625</LongitudeDegrees>
            </Position>
            <AltitudeMeters>826.5999755859375</AltitudeMeters>
            <DistanceMeters>172504.85110005</DistanceMeters>
          </Trackpoint>
          <Trackpoint>
            <Time>2019-08-02T15:05:53.000Z</Time>
            <Position>
              <LatitudeDegrees>41.221282146871089935302734375</LatitudeDegrees>
              <LongitudeDegrees>-4.5990441553294658660888671875</LongitudeDegrees>
            </Position>
            <AltitudeMeters>827.5999755859375</AltitudeMeters>
            <DistanceMeters>172545.06772586</DistanceMeters>
          </Trackpoint>
          <Trackpoint>
            <Time>2019-08-02T15:06:02.000Z</Time>
            <Position>
              <LatitudeDegrees>41.22126362286508083343505859375</LatitudeDegrees>
              <LongitudeDegrees>-4.599473476409912109375</LongitudeDegrees>
            </Position>
            <AltitudeMeters>828.79998779296875</AltitudeMeters>
            <DistanceMeters>172581.06868157</DistanceMeters>
          </Trackpoint>
          <Trackpoint>
            <Time>2019-08-02T15:06:07.000Z</Time>
            <Position>
              <LatitudeDegrees>41.2212757766246795654296875</LatitudeDegrees>
              <LongitudeDegrees>-4.59968763403594493865966796875</LongitudeDegrees>
            </Position>
            <AltitudeMeters>829.79998779296875</AltitudeMeters>
            <DistanceMeters>172599.0485797</DistanceMeters>
          </Trackpoint>
          <Trackpoint>
            <Time>2019-08-02T15:06:17.000Z</Time>
            <Position>
              <LatitudeDegrees>41.22130435891449451446533203125</LatitudeDegrees>
              <LongitudeDegrees>-4.60004235617816448211669921875</LongitudeDegrees>
            </Position>
            <AltitudeMeters>830.79998779296875</AltitudeMeters>
            <DistanceMeters>172628.91509961</DistanceMeters>
          </Trackpoint>
          <Trackpoint>
            <Time>2019-08-02T15:06:36.000Z</Time>
            <Position>
              <LatitudeDegrees>41.221426315605640411376953125</LatitudeDegrees>
              <LongitudeDegrees>-4.6007634513080120086669921875</LongitudeDegrees>
            </Position>
            <AltitudeMeters>831</AltitudeMeters>
            <DistanceMeters>172690.79099145</DistanceMeters>
          </Trackpoint>
          <Trackpoint>
            <Time>2019-08-02T15:06:53.000Z</Time>
            <Position>
              <LatitudeDegrees>41.22162588872015476226806640625</LatitudeDegrees>
              <LongitudeDegrees>-4.6015007235109806060791015625</LongitudeDegrees>
            </Position>
            <AltitudeMeters>831.5999755859375</AltitudeMeters>
            <DistanceMeters>172756.38909628</DistanceMeters>
          </Trackpoint>
          <Trackpoint>
            <Time>2019-08-02T15:06:55.000Z</Time>
            <Position>
              <LatitudeDegrees>41.2216377072036266326904296875</LatitudeDegrees>
              <LongitudeDegrees>-4.60154254920780658721923828125</LongitudeDegrees>
            </Position>
            <AltitudeMeters>831.79998779296875</AltitudeMeters>
            <DistanceMeters>172760.13030177</DistanceMeters>
          </Trackpoint>
          <Trackpoint>
            <Time>2019-08-02T15:07:11.000Z</Time>
            <Position>
              <LatitudeDegrees>41.2218725681304931640625</LatitudeDegrees>
              <LongitudeDegrees>-4.6022024564445018768310546875</LongitudeDegrees>
            </Position>
            <AltitudeMeters>832.5999755859375</AltitudeMeters>
            <DistanceMeters>172821.24836409</DistanceMeters>
          </Trackpoint>
          <Trackpoint>
            <Time>2019-08-02T15:07:15.000Z</Time>
            <Position>
              <LatitudeDegrees>41.22193652205169200897216796875</LatitudeDegrees>
              <LongitudeDegrees>-4.602380655705928802490234375</LongitudeDegrees>
            </Position>
            <AltitudeMeters>832.79998779296875</AltitudeMeters>
            <DistanceMeters>172837.77755018</DistanceMeters>
          </Trackpoint>
          <Trackpoint>
            <Time>2019-08-02T15:07:31.000Z</Time>
            <Position>
              <LatitudeDegrees>41.22217859141528606414794921875</LatitudeDegrees>
              <LongitudeDegrees>-4.60304425098001956939697265625</LongitudeDegrees>
            </Position>
            <AltitudeMeters>833.5999755859375</AltitudeMeters>
            <DistanceMeters>172899.52049514</DistanceMeters>
          </Trackpoint>
          <Trackpoint>
            <Time>2019-08-02T15:07:41.000Z</Time>
            <Position>
              <LatitudeDegrees>41.2223179824650287628173828125</LatitudeDegrees>
              <LongitudeDegrees>-4.60345127619802951812744140625</LongitudeDegrees>
            </Position>
            <AltitudeMeters>834</AltitudeMeters>
            <DistanceMeters>172936.9610206</DistanceMeters>
          </Trackpoint>
          <Trackpoint>
            <Time>2019-08-02T15:07:52.000Z</Time>
            <Position>
              <LatitudeDegrees>41.22247933410108089447021484375</LatitudeDegrees>
              <LongitudeDegrees>-4.60389233194291591644287109375</LongitudeDegrees>
            </Position>
            <AltitudeMeters>835</AltitudeMeters>
            <DistanceMeters>172978.02047934</DistanceMeters>
          </Trackpoint>
          <Trackpoint>
            <Time>2019-08-02T15:08:04.000Z</Time>
            <Position>
              <LatitudeDegrees>41.22265040874481201171875</LatitudeDegrees>
              <LongitudeDegrees>-4.60438418202102184295654296875</LongitudeDegrees>
            </Position>
            <AltitudeMeters>836.20001220703125</AltitudeMeters>
            <DistanceMeters>173023.38575904</DistanceMeters>
          </Trackpoint>
          <Trackpoint>
            <Time>2019-08-02T15:08:10.000Z</Time>
            <Position>
              <LatitudeDegrees>41.22273246757686138153076171875</LatitudeDegrees>
              <LongitudeDegrees>-4.60462801158428192138671875</LongitudeDegrees>
            </Position>
            <AltitudeMeters>837.4000244140625</AltitudeMeters>
            <DistanceMeters>173045.74835355</DistanceMeters>
          </Trackpoint>
          <Trackpoint>
            <Time>2019-08-02T15:08:20.000Z</Time>
            <Position>
              <LatitudeDegrees>41.22287211008369922637939453125</LatitudeDegrees>
              <LongitudeDegrees>-4.605025984346866607666015625</LongitudeDegrees>
            </Position>
            <AltitudeMeters>838.4000244140625</AltitudeMeters>
            <DistanceMeters>173082.51202668</DistanceMeters>
          </Trackpoint>
          <Trackpoint>
            <Time>2019-08-02T15:08:28.000Z</Time>
            <Position>
              <LatitudeDegrees>41.22298409231007099151611328125</LatitudeDegrees>
              <LongitudeDegrees>-4.60534575395286083221435546875</LongitudeDegrees>
            </Position>
            <AltitudeMeters>839.4000244140625</AltitudeMeters>
            <DistanceMeters>173112.04103346</DistanceMeters>
          </Trackpoint>
          <Trackpoint>
            <Time>2019-08-02T15:08:41.000Z</Time>
            <Position>
              <LatitudeDegrees>41.22317067347466945648193359375</LatitudeDegrees>
              <LongitudeDegrees>-4.605887643992900848388671875</LongitudeDegrees>
            </Position>
            <AltitudeMeters>840.4000244140625</AltitudeMeters>
            <DistanceMeters>173161.93322596</DistanceMeters>
          </Trackpoint>
          <Trackpoint>
            <Time>2019-08-02T15:08:46.000Z</Time>
            <Position>
              <LatitudeDegrees>41.2232458591461181640625</LatitudeDegrees>
              <LongitudeDegrees>-4.6060903184115886688232421875</LongitudeDegrees>
            </Position>
            <AltitudeMeters>841.20001220703125</AltitudeMeters>
            <DistanceMeters>173180.85165824</DistanceMeters>
          </Trackpoint>
          <Trackpoint>
            <Time>2019-08-02T15:08:57.000Z</Time>
            <Position>
              <LatitudeDegrees>41.2234062887728214263916015625</LatitudeDegrees>
              <LongitudeDegrees>-4.6065315417945384979248046875</LongitudeDegrees>
            </Position>
            <AltitudeMeters>841.5999755859375</AltitudeMeters>
            <DistanceMeters>173221.87833479</DistanceMeters>
          </Trackpoint>
          <Trackpoint>
            <Time>2019-08-02T15:09:14.000Z</Time>
            <Position>
              <LatitudeDegrees>41.223649866878986358642578125</LatitudeDegrees>
              <LongitudeDegrees>-4.60723235271871089935302734375</LongitudeDegrees>
            </Position>
            <AltitudeMeters>842.4000244140625</AltitudeMeters>
            <DistanceMeters>173286.50795865</DistanceMeters>
          </Trackpoint>
          <Trackpoint>
            <Time>2019-08-02T15:09:30.000Z</Time>
            <Position>
              <LatitudeDegrees>41.2238941155374050140380859375</LatitudeDegrees>
              <LongitudeDegrees>-4.6078934334218502044677734375</LongitudeDegrees>
            </Position>
            <AltitudeMeters>841.5999755859375</AltitudeMeters>
            <DistanceMeters>173348.16675092</DistanceMeters>
          </Trackpoint>
          <Trackpoint>
            <Time>2019-08-02T15:09:44.000Z</Time>
            <Position>
              <LatitudeDegrees>41.224123276770114898681640625</LatitudeDegrees>
              <LongitudeDegrees>-4.60852065123617649078369140625</LongitudeDegrees>
            </Position>
            <AltitudeMeters>842</AltitudeMeters>
            <DistanceMeters>173406.54115959</DistanceMeters>
          </Trackpoint>
          <Trackpoint>
            <Time>2019-08-02T15:09:58.000Z</Time>
            <Position>
              <LatitudeDegrees>41.2243510968983173370361328125</LatitudeDegrees>
              <LongitudeDegrees>-4.60919237695634365081787109375</LongitudeDegrees>
            </Position>
            <AltitudeMeters>841.4000244140625</AltitudeMeters>
            <DistanceMeters>173468.22674682</DistanceMeters>
          </Trackpoint>
          <Trackpoint>
            <Time>2019-08-02T15:10:00.000Z</Time>
            <Position>
              <LatitudeDegrees>41.2243829481303691864013671875</LatitudeDegrees>
              <LongitudeDegrees>-4.60928432643413543701171875</LongitudeDegrees>
            </Position>
            <AltitudeMeters>841</AltitudeMeters>
            <DistanceMeters>173476.7017234</DistanceMeters>
          </Trackpoint>
          <Trackpoint>
            <Time>2019-08-02T15:10:10.000Z</Time>
            <Position>
              <LatitudeDegrees>41.224541030824184417724609375</LatitudeDegrees>
              <LongitudeDegrees>-4.60973535664379596710205078125</LongitudeDegrees>
            </Position>
            <AltitudeMeters>839.79998779296875</AltitudeMeters>
            <DistanceMeters>173518.35768923</DistanceMeters>
          </Trackpoint>
          <Trackpoint>
            <Time>2019-08-02T15:10:24.000Z</Time>
            <Position>
              <LatitudeDegrees>41.22477195225656032562255859375</LatitudeDegrees>
              <LongitudeDegrees>-4.61038461886346340179443359375</LongitudeDegrees>
            </Position>
            <AltitudeMeters>839.4000244140625</AltitudeMeters>
            <DistanceMeters>173578.48046886</DistanceMeters>
          </Trackpoint>
          <Trackpoint>
            <Time>2019-08-02T15:10:34.000Z</Time>
            <Position>
              <LatitudeDegrees>41.22493037022650241851806640625</LatitudeDegrees>
              <LongitudeDegrees>-4.61082383058965206146240234375</LongitudeDegrees>
            </Position>
            <AltitudeMeters>839</AltitudeMeters>
            <DistanceMeters>173619.25767103</DistanceMeters>
          </Trackpoint>
          <Trackpoint>
            <Time>2019-08-02T15:10:44.000Z</Time>
            <Position>
              <LatitudeDegrees>41.22508761473000049591064453125</LatitudeDegrees>
              <LongitudeDegrees>-4.61126538924872875213623046875</LongitudeDegrees>
            </Position>
            <AltitudeMeters>838</AltitudeMeters>
            <DistanceMeters>173660.15593688</DistanceMeters>
          </Trackpoint>
          <Trackpoint>
            <Time>2019-08-02T15:10:50.000Z</Time>
            <Position>
              <LatitudeDegrees>41.22519305907189846038818359375</LatitudeDegrees>
              <LongitudeDegrees>-4.61155347526073455810546875</LongitudeDegrees>
            </Position>
            <AltitudeMeters>836.79998779296875</AltitudeMeters>
            <DistanceMeters>173686.97654313</DistanceMeters>
          </Trackpoint>
          <Trackpoint>
            <Time>2019-08-02T15:10:57.000Z</Time>
            <Position>
              <LatitudeDegrees>41.22530520893633365631103515625</LatitudeDegrees>
              <LongitudeDegrees>-4.6118815429508686065673828125</LongitudeDegrees>
            </Position>
            <AltitudeMeters>835.79998779296875</AltitudeMeters>
            <DistanceMeters>173717.14359642</DistanceMeters>
          </Trackpoint>
          <Trackpoint>
            <Time>2019-08-02T15:11:03.000Z</Time>
            <Position>
              <LatitudeDegrees>41.22539992444217205047607421875</LatitudeDegrees>
              <LongitudeDegrees>-4.6121554635465145111083984375</LongitudeDegrees>
            </Position>
            <AltitudeMeters>834.5999755859375</AltitudeMeters>
            <DistanceMeters>173742.38137509</DistanceMeters>
          </Trackpoint>
          <Trackpoint>
            <Time>2019-08-02T15:11:09.000Z</Time>
            <Position>
              <LatitudeDegrees>41.2254984118044376373291015625</LatitudeDegrees>
              <LongitudeDegrees>-4.61242108605802059173583984375</LongitudeDegrees>
            </Position>
            <AltitudeMeters>833.4000244140625</AltitudeMeters>
            <DistanceMeters>173767.17260464</DistanceMeters>
          </Trackpoint>
          <Trackpoint>
            <Time>2019-08-02T15:11:16.000Z</Time>
            <Position>
              <LatitudeDegrees>41.22561114840209484100341796875</LatitudeDegrees>
              <LongitudeDegrees>-4.61274060420691967010498046875</LongitudeDegrees>
            </Position>
            <AltitudeMeters>832.4000244140625</AltitudeMeters>
            <DistanceMeters>173796.71720329</DistanceMeters>
          </Trackpoint>
          <Trackpoint>
            <Time>2019-08-02T15:11:24.000Z</Time>
            <Position>
              <LatitudeDegrees>41.2257659621536731719970703125</LatitudeDegrees>
              <LongitudeDegrees>-4.61312047205865383148193359375</LongitudeDegrees>
            </Position>
            <AltitudeMeters>831.4000244140625</AltitudeMeters>
            <DistanceMeters>173832.8851997</DistanceMeters>
          </Trackpoint>
          <Trackpoint>
            <Time>2019-08-02T15:11:29.000Z</Time>
            <Position>
              <LatitudeDegrees>41.2258618511259555816650390625</LatitudeDegrees>
              <LongitudeDegrees>-4.613325409591197967529296875</LongitudeDegrees>
            </Position>
            <AltitudeMeters>830.20001220703125</AltitudeMeters>
            <DistanceMeters>173853.08972062</DistanceMeters>
          </Trackpoint>
          <Trackpoint>
            <Time>2019-08-02T15:11:36.000Z</Time>
            <Position>
              <LatitudeDegrees>41.22600560076534748077392578125</LatitudeDegrees>
              <LongitudeDegrees>-4.61359756998717784881591796875</LongitudeDegrees>
            </Position>
            <AltitudeMeters>829.20001220703125</AltitudeMeters>
            <DistanceMeters>173880.92979105</DistanceMeters>
          </Trackpoint>
          <Trackpoint>
            <Time>2019-08-02T15:11:52.000Z</Time>
            <Position>
              <LatitudeDegrees>41.226361580193042755126953125</LatitudeDegrees>
              <LongitudeDegrees>-4.61414658464491367340087890625</LongitudeDegrees>
            </Position>
            <AltitudeMeters>828.5999755859375</AltitudeMeters>
            <DistanceMeters>173941.60983596</DistanceMeters>
          </Trackpoint>
          <Trackpoint>
            <Time>2019-08-02T15:12:07.000Z</Time>
            <Position>
              <LatitudeDegrees>41.22679299674928188323974609375</LatitudeDegrees>
              <LongitudeDegrees>-4.61464338004589080810546875</LongitudeDegrees>
            </Position>
            <AltitudeMeters>829.4000244140625</AltitudeMeters>
            <DistanceMeters>174005.13290232</DistanceMeters>
          </Trackpoint>
          <Trackpoint>
            <Time>2019-08-02T15:12:23.000Z</Time>
            <Position>
              <LatitudeDegrees>41.227226592600345611572265625</LatitudeDegrees>
              <LongitudeDegrees>-4.61512257345020771026611328125</LongitudeDegrees>
            </Position>
            <AltitudeMeters>829.20001220703125</AltitudeMeters>
            <DistanceMeters>174067.88738183</DistanceMeters>
          </Trackpoint>
          <Trackpoint>
            <Time>2019-08-02T15:12:39.000Z</Time>
            <Position>
              <LatitudeDegrees>41.2276535667479038238525390625</LatitudeDegrees>
              <LongitudeDegrees>-4.61559380404651165008544921875</LongitudeDegrees>
            </Position>
            <AltitudeMeters>828.4000244140625</AltitudeMeters>
            <DistanceMeters>174129.64889809</DistanceMeters>
          </Trackpoint>
          <Trackpoint>
            <Time>2019-08-02T15:12:41.000Z</Time>
            <Position>
              <LatitudeDegrees>41.2277065403759479522705078125</LatitudeDegrees>
              <LongitudeDegrees>-4.6156493760645389556884765625</LongitudeDegrees>
            </Position>
            <AltitudeMeters>828.20001220703125</AltitudeMeters>
            <DistanceMeters>174137.16021739</DistanceMeters>
          </Trackpoint>
          <Trackpoint>
            <Time>2019-08-02T15:12:49.000Z</Time>
            <Position>
              <LatitudeDegrees>41.22791935689747333526611328125</LatitudeDegrees>
              <LongitudeDegrees>-4.6158803813159465789794921875</LongitudeDegrees>
            </Position>
            <AltitudeMeters>827.20001220703125</AltitudeMeters>
            <DistanceMeters>174167.73815446</DistanceMeters>
          </Trackpoint>
          <Trackpoint>
            <Time>2019-08-02T15:13:06.000Z</Time>
            <Position>
              <LatitudeDegrees>41.22835404239594936370849609375</LatitudeDegrees>
              <LongitudeDegrees>-4.6163537912070751190185546875</LongitudeDegrees>
            </Position>
            <AltitudeMeters>826.79998779296875</AltitudeMeters>
            <DistanceMeters>174230.27771802</DistanceMeters>
          </Trackpoint>
          <Trackpoint>
            <Time>2019-08-02T15:13:24.000Z</Time>
            <Position>
              <LatitudeDegrees>41.22879308648407459259033203125</LatitudeDegrees>
              <LongitudeDegrees>-4.6168265305459499359130859375</LongitudeDegrees>
            </Position>
            <AltitudeMeters>827</AltitudeMeters>
            <DistanceMeters>174293.15790808</DistanceMeters>
          </Trackpoint>
          <Trackpoint>
            <Time>2019-08-02T15:13:41.000Z</Time>
            <Position>
              <LatitudeDegrees>41.22922458685934543609619140625</LatitudeDegrees>
              <LongitudeDegrees>-4.617300443351268768310546875</LongitudeDegrees>
            </Position>
            <AltitudeMeters>826.5999755859375</AltitudeMeters>
            <DistanceMeters>174355.45007571</DistanceMeters>
          </Trackpoint>
          <Trackpoint>
            <Time>2019-08-02T15:13:58.000Z</Time>
            <Position>
              <LatitudeDegrees>41.229659020900726318359375</LatitudeDegrees>
              <LongitudeDegrees>-4.6177421696484088897705078125</LongitudeDegrees>
            </Position>
            <AltitudeMeters>826</AltitudeMeters>
            <DistanceMeters>174416.32097284</DistanceMeters>
          </Trackpoint>
          <Trackpoint>
            <Time>2019-08-02T15:14:00.000Z</Time>
            <Position>
              <LatitudeDegrees>41.22970973141491413116455078125</LatitudeDegrees>
              <LongitudeDegrees>-4.61780411191284656524658203125</LongitudeDegrees>
            </Position>
            <AltitudeMeters>826</AltitudeMeters>
            <DistanceMeters>174423.98462844</DistanceMeters>
          </Trackpoint>
          <Trackpoint>
            <Time>2019-08-02T15:14:16.000Z</Time>
            <Position>
              <LatitudeDegrees>41.23012798838317394256591796875</LatitudeDegrees>
              <LongitudeDegrees>-4.6182695589959621429443359375</LongitudeDegrees>
            </Position>
            <AltitudeMeters>826</AltitudeMeters>
            <DistanceMeters>174484.68996656</DistanceMeters>
          </Trackpoint>
          <Trackpoint>
            <Time>2019-08-02T15:14:32.000Z</Time>
            <Position>
              <LatitudeDegrees>41.23055211268365383148193359375</LatitudeDegrees>
              <LongitudeDegrees>-4.61872947402298450469970703125</LongitudeDegrees>
            </Position>
            <AltitudeMeters>827</AltitudeMeters>
            <DistanceMeters>174545.60364705</DistanceMeters>
          </Trackpoint>
          <Trackpoint>
            <Time>2019-08-02T15:14:48.000Z</Time>
            <Position>
              <LatitudeDegrees>41.23098470270633697509765625</LatitudeDegrees>
              <LongitudeDegrees>-4.61919986642897129058837890625</LongitudeDegrees>
            </Position>
            <AltitudeMeters>827.20001220703125</AltitudeMeters>
            <DistanceMeters>174607.80166237</DistanceMeters>
          </Trackpoint>
          <Trackpoint>
            <Time>2019-08-02T15:15:03.000Z</Time>
            <Position>
              <LatitudeDegrees>41.23140790499746799468994140625</LatitudeDegrees>
              <LongitudeDegrees>-4.619657434523105621337890625</LongitudeDegrees>
            </Position>
            <AltitudeMeters>826.5999755859375</AltitudeMeters>
            <DistanceMeters>174668.51131417</DistanceMeters>
          </Trackpoint>
          <Trackpoint>
            <Time>2019-08-02T15:15:20.000Z</Time>
            <Position>
              <LatitudeDegrees>41.23184661380946636199951171875</LatitudeDegrees>
              <LongitudeDegrees>-4.620137549936771392822265625</LongitudeDegrees>
            </Position>
            <AltitudeMeters>826.20001220703125</AltitudeMeters>
            <DistanceMeters>174731.75178892</DistanceMeters>
          </Trackpoint>
          <Trackpoint>
            <Time>2019-08-02T15:15:34.000Z</Time>
            <Position>
              <LatitudeDegrees>41.2321989051997661590576171875</LatitudeDegrees>
              <LongitudeDegrees>-4.62053661234676837921142578125</LongitudeDegrees>
            </Position>
            <AltitudeMeters>826</AltitudeMeters>
            <DistanceMeters>174783.26152762</DistanceMeters>
          </Trackpoint>
          <Trackpoint>
            <Time>2019-08-02T15:15:46.000Z</Time>
            <Position>
              <LatitudeDegrees>41.23248816467821598052978515625</LatitudeDegrees>
              <LongitudeDegrees>-4.6208498440682888031005859375</LongitudeDegrees>
            </Position>
            <AltitudeMeters>824.79998779296875</AltitudeMeters>
            <DistanceMeters>174824.78200394</DistanceMeters>
          </Trackpoint>
          <Trackpoint>
            <Time>2019-08-02T15:15:57.000Z</Time>
            <Position>
              <LatitudeDegrees>41.23267994262278079986572265625</LatitudeDegrees>
              <LongitudeDegrees>-4.62110909633338451385498046875</LongitudeDegrees>
            </Position>
            <AltitudeMeters>824.5999755859375</AltitudeMeters>
            <DistanceMeters>174855.22082723</DistanceMeters>
          </Trackpoint>
          <Trackpoint>
            <Time>2019-08-02T15:16:01.000Z</Time>
            <Position>
              <LatitudeDegrees>41.23261657543480396270751953125</LatitudeDegrees>
              <LongitudeDegrees>-4.6212189830839633941650390625</LongitudeDegrees>
            </Position>
            <AltitudeMeters>825</AltitudeMeters>
            <DistanceMeters>174866.81174943</DistanceMeters>
          </Trackpoint>
          <Trackpoint>
            <Time>2019-08-02T15:16:21.000Z</Time>
            <Position>
              <LatitudeDegrees>41.23223201371729373931884765625</LatitudeDegrees>
              <LongitudeDegrees>-4.62173245847225189208984375</LongitudeDegrees>
            </Position>
            <AltitudeMeters>825.20001220703125</AltitudeMeters>
            <DistanceMeters>174927.46902143</DistanceMeters>
          </Trackpoint>
          <Trackpoint>
            <Time>2019-08-02T15:16:27.000Z</Time>
            <Position>
              <LatitudeDegrees>41.23216311447322368621826171875</LatitudeDegrees>
              <LongitudeDegrees>-4.6219096519052982330322265625</LongitudeDegrees>
            </Position>
            <AltitudeMeters>825</AltitudeMeters>
            <DistanceMeters>174944.16562348</DistanceMeters>
          </Trackpoint>
          <Trackpoint>
            <Time>2019-08-02T15:16:37.000Z</Time>
            <Position>
              <LatitudeDegrees>41.2323001585900783538818359375</LatitudeDegrees>
              <LongitudeDegrees>-4.62183706462383270263671875</LongitudeDegrees>
            </Position>
            <AltitudeMeters>823.5999755859375</AltitudeMeters>
            <DistanceMeters>174960.58463387</DistanceMeters>
          </Trackpoint>
          <Trackpoint>
            <Time>2019-08-02T15:16:38.000Z</Time>
            <Position>
              <LatitudeDegrees>41.23231465928256511688232421875</LatitudeDegrees>
              <LongitudeDegrees>-4.6218228153884410858154296875</LongitudeDegrees>
            </Position>
            <AltitudeMeters>823.4000244140625</AltitudeMeters>
            <DistanceMeters>174962.59372426</DistanceMeters>
          </Trackpoint>
          <Trackpoint>
            <Time>2019-08-02T15:16:56.000Z</Time>
            <Position>
              <LatitudeDegrees>41.23256192542612552642822265625</LatitudeDegrees>
              <LongitudeDegrees>-4.621589966118335723876953125</LongitudeDegrees>
            </Position>
            <AltitudeMeters>822.4000244140625</AltitudeMeters>
            <DistanceMeters>174996.31736504</DistanceMeters>
          </Trackpoint>
          <Trackpoint>
            <Time>2019-08-02T15:17:02.000Z</Time>
            <Position>
              <LatitudeDegrees>41.23264758847653865814208984375</LatitudeDegrees>
              <LongitudeDegrees>-4.6215079911053180694580078125</LongitudeDegrees>
            </Position>
            <AltitudeMeters>821.4000244140625</AltitudeMeters>
            <DistanceMeters>175008.06421986</DistanceMeters>
          </Trackpoint>
          <Trackpoint>
            <Time>2019-08-02T15:17:09.000Z</Time>
            <Position>
              <LatitudeDegrees>41.23274029232561588287353515625</LatitudeDegrees>
              <LongitudeDegrees>-4.621404893696308135986328125</LongitudeDegrees>
            </Position>
            <AltitudeMeters>820.20001220703125</AltitudeMeters>
            <DistanceMeters>175021.51545183</DistanceMeters>
          </Trackpoint>
          <Trackpoint>
            <Time>2019-08-02T15:17:17.000Z</Time>
            <Position>
              <LatitudeDegrees>41.2328473292291164398193359375</LatitudeDegrees>
              <LongitudeDegrees>-4.62128721177577972412109375</LongitudeDegrees>
            </Position>
            <AltitudeMeters>819</AltitudeMeters>
            <DistanceMeters>175036.97358506</DistanceMeters>
          </Trackpoint>
          <Trackpoint>
            <Time>2019-08-02T15:17:26.000Z</Time>
            <Position>
              <LatitudeDegrees>41.2329797632992267608642578125</LatitudeDegrees>
              <LongitudeDegrees>-4.62116257287561893463134765625</LongitudeDegrees>
            </Position>
            <AltitudeMeters>818</AltitudeMeters>
            <DistanceMeters>175055.03216144</DistanceMeters>
          </Trackpoint>
          <Trackpoint>
            <Time>2019-08-02T15:17:54.000Z</Time>
            <Position>
              <LatitudeDegrees>41.23342475853860378265380859375</LatitudeDegrees>
              <LongitudeDegrees>-4.6207335032522678375244140625</LongitudeDegrees>
            </Position>
            <AltitudeMeters>818</AltitudeMeters>
            <DistanceMeters>175116.21180369</DistanceMeters>
          </Trackpoint>
          <Trackpoint>
            <Time>2019-08-02T15:18:00.000Z</Time>
            <Position>
              <LatitudeDegrees>41.2335254251956939697265625</LatitudeDegrees>
              <LongitudeDegrees>-4.6206242032349109649658203125</LongitudeDegrees>
            </Position>
            <AltitudeMeters>818.4000244140625</AltitudeMeters>
            <DistanceMeters>175130.6767925</DistanceMeters>
          </Trackpoint>
          <Trackpoint>
            <Time>2019-08-02T15:18:05.000Z</Time>
            <Position>
              <LatitudeDegrees>41.23361385427415370941162109375</LatitudeDegrees>
              <LongitudeDegrees>-4.6205301582813262939453125</LongitudeDegrees>
            </Position>
            <AltitudeMeters>819.5999755859375</AltitudeMeters>
            <DistanceMeters>175143.2799288</DistanceMeters>
          </Trackpoint>
          <Trackpoint>
            <Time>2019-08-02T15:18:12.000Z</Time>
            <Position>
              <LatitudeDegrees>41.23374863527715206146240234375</LatitudeDegrees>
              <LongitudeDegrees>-4.6204186789691448211669921875</LongitudeDegrees>
            </Position>
            <AltitudeMeters>820.5999755859375</AltitudeMeters>
            <DistanceMeters>175160.94672144</DistanceMeters>
          </Trackpoint>
          <Trackpoint>
            <Time>2019-08-02T15:18:20.000Z</Time>
            <Position>
              <LatitudeDegrees>41.23394259251654148101806640625</LatitudeDegrees>
              <LongitudeDegrees>-4.62021969258785247802734375</LongitudeDegrees>
            </Position>
            <AltitudeMeters>821.5999755859375</AltitudeMeters>
            <DistanceMeters>175188.21276559</DistanceMeters>
          </Trackpoint>
          <Trackpoint>
            <Time>2019-08-02T15:18:25.000Z</Time>
            <Position>
              <LatitudeDegrees>41.2341254018247127532958984375</LatitudeDegrees>
              <LongitudeDegrees>-4.62001358158886432647705078125</LongitudeDegrees>
            </Position>
            <AltitudeMeters>822.5999755859375</AltitudeMeters>
            <DistanceMeters>175214.88922027</DistanceMeters>
          </Trackpoint>
          <Trackpoint>
            <Time>2019-08-02T15:18:28.000Z</Time>
            <Position>
              <LatitudeDegrees>41.23425724916160106658935546875</LatitudeDegrees>
              <LongitudeDegrees>-4.6198684908449649810791015625</LongitudeDegrees>
            </Position>
            <AltitudeMeters>823.79998779296875</AltitudeMeters>
            <DistanceMeters>175233.93727717</DistanceMeters>
          </Trackpoint>
          <Trackpoint>
            <Time>2019-08-02T15:18:31.000Z</Time>
            <Position>
              <LatitudeDegrees>41.23437576927244663238525390625</LatitudeDegrees>
              <LongitudeDegrees>-4.6197187900543212890625</LongitudeDegrees>
            </Position>
            <AltitudeMeters>824.79998779296875</AltitudeMeters>
            <DistanceMeters>175252.13135704</DistanceMeters>
          </Trackpoint>
          <Trackpoint>
            <Time>2019-08-02T15:18:32.000Z</Time>
            <Position>
              <LatitudeDegrees>41.23441482894122600555419921875</LatitudeDegrees>
              <LongitudeDegrees>-4.6196750365197658538818359375</LongitudeDegrees>
            </Position>
            <AltitudeMeters>825.20001220703125</AltitudeMeters>
            <DistanceMeters>175257.81551164</DistanceMeters>
          </Trackpoint>
          <Trackpoint>
            <Time>2019-08-02T15:18:34.000Z</Time>
            <Position>
              <LatitudeDegrees>41.234486997127532958984375</LatitudeDegrees>
              <LongitudeDegrees>-4.61959465406835079193115234375</LongitudeDegrees>
            </Position>
            <AltitudeMeters>826.20001220703125</AltitudeMeters>
            <DistanceMeters>175268.29347276</DistanceMeters>
          </Trackpoint>
          <Trackpoint>
            <Time>2019-08-02T15:18:36.000Z</Time>
            <Position>
              <LatitudeDegrees>41.23455899767577648162841796875</LatitudeDegrees>
              <LongitudeDegrees>-4.6195546723902225494384765625</LongitudeDegrees>
            </Position>
            <AltitudeMeters>826.79998779296875</AltitudeMeters>
            <DistanceMeters>175276.9773756</DistanceMeters>
          </Trackpoint>
          <Trackpoint>
            <Time>2019-08-02T15:18:38.000Z</Time>
            <Position>
              <LatitudeDegrees>41.23462387360632419586181640625</LatitudeDegrees>
              <LongitudeDegrees>-4.619589038193225860595703125</LongitudeDegrees>
            </Position>
            <AltitudeMeters>827.20001220703125</AltitudeMeters>
            <DistanceMeters>175284.74925962</DistanceMeters>
          </Trackpoint>
          <Trackpoint>
            <Time>2019-08-02T15:18:41.000Z</Time>
            <Position>
              <LatitudeDegrees>41.2346036732196807861328125</LatitudeDegrees>
              <LongitudeDegrees>-4.6197199635207653045654296875</LongitudeDegrees>
            </Position>
            <AltitudeMeters>828.5999755859375</AltitudeMeters>
            <DistanceMeters>175295.93580508</DistanceMeters>
          </Trackpoint>
          <Trackpoint>
            <Time>2019-08-02T15:18:43.000Z</Time>
            <Position>
              <LatitudeDegrees>41.2345408089458942413330078125</LatitudeDegrees>
              <LongitudeDegrees>-4.6198024414479732513427734375</LongitudeDegrees>
            </Position>
            <AltitudeMeters>829</AltitudeMeters>
            <DistanceMeters>175305.76544485</DistanceMeters>
          </Trackpoint>
          <Trackpoint>
            <Time>2019-08-02T15:18:45.000Z</Time>
            <Position>
              <LatitudeDegrees>41.23446847312152385711669921875</LatitudeDegrees>
              <LongitudeDegrees>-4.61990126408636569976806640625</LongitudeDegrees>
            </Position>
            <AltitudeMeters>829.4000244140625</AltitudeMeters>
            <DistanceMeters>175317.30874629</DistanceMeters>
          </Trackpoint>
          <Trackpoint>
            <Time>2019-08-02T15:18:54.000Z</Time>
            <Position>
              <LatitudeDegrees>41.23403680510818958282470703125</LatitudeDegrees>
              <LongitudeDegrees>-4.6204706467688083648681640625</LongitudeDegrees>
            </Position>
            <AltitudeMeters>830.5999755859375</AltitudeMeters>
            <DistanceMeters>175384.98197939</DistanceMeters>
          </Trackpoint>
          <Trackpoint>
            <Time>2019-08-02T15:18:55.000Z</Time>
            <Position>
              <LatitudeDegrees>41.23398936353623867034912109375</LatitudeDegrees>
              <LongitudeDegrees>-4.62054432369768619537353515625</LongitudeDegrees>
            </Position>
            <AltitudeMeters>830.79998779296875</AltitudeMeters>
            <DistanceMeters>175393.10106543</DistanceMeters>
          </Trackpoint>
          <Trackpoint>
            <Time>2019-08-02T15:19:03.000Z</Time>
            <Position>
              <LatitudeDegrees>41.23405725695192813873291015625</LatitudeDegrees>
              <LongitudeDegrees>-4.62115620262920856475830078125</LongitudeDegrees>
            </Position>
            <AltitudeMeters>831.4000244140625</AltitudeMeters>
            <DistanceMeters>175444.87083101</DistanceMeters>
          </Trackpoint>
          <Trackpoint>
            <Time>2019-08-02T15:19:04.000Z</Time>
            <Position>
              <LatitudeDegrees>41.2340938858687877655029296875</LatitudeDegrees>
              <LongitudeDegrees>-4.62121420539915561676025390625</LongitudeDegrees>
            </Position>
            <AltitudeMeters>831.5999755859375</AltitudeMeters>
            <DistanceMeters>175451.21061573</DistanceMeters>
          </Trackpoint>
          <Trackpoint>
            <Time>2019-08-02T15:19:10.000Z</Time>
            <Position>
              <LatitudeDegrees>41.234288513660430908203125</LatitudeDegrees>
              <LongitudeDegrees>-4.62153338827192783355712890625</LongitudeDegrees>
            </Position>
            <AltitudeMeters>832.4000244140625</AltitudeMeters>
            <DistanceMeters>175485.60556092</DistanceMeters>
          </Trackpoint>
          <Trackpoint>
            <Time>2019-08-02T15:19:11.000Z</Time>
            <Position>
              <LatitudeDegrees>41.234315671026706695556640625</LatitudeDegrees>
              <LongitudeDegrees>-4.6215871162712574005126953125</LongitudeDegrees>
            </Position>
            <AltitudeMeters>832.5999755859375</AltitudeMeters>
            <DistanceMeters>175491.02458376</DistanceMeters>
          </Trackpoint>
          <Trackpoint>
            <Time>2019-08-02T15:19:17.000Z</Time>
            <Position>
              <LatitudeDegrees>41.23448607511818408966064453125</LatitudeDegrees>
              <LongitudeDegrees>-4.62186229415237903594970703125</LongitudeDegrees>
            </Position>
            <AltitudeMeters>834</AltitudeMeters>
            <DistanceMeters>175520.86145887</DistanceMeters>
          </Trackpoint>
          <Trackpoint>
            <Time>2019-08-02T15:19:26.000Z</Time>
            <Position>
              <LatitudeDegrees>41.2347171641886234283447265625</LatitudeDegrees>
              <LongitudeDegrees>-4.6221795491874217987060546875</LongitudeDegrees>
            </Position>
            <AltitudeMeters>835</AltitudeMeters>
            <DistanceMeters>175557.83039272</DistanceMeters>
          </Trackpoint>
          <Trackpoint>
            <Time>2019-08-02T15:19:42.000Z</Time>
            <Position>
              <LatitudeDegrees>41.23507247306406497955322265625</LatitudeDegrees>
              <LongitudeDegrees>-4.6227726526558399200439453125</LongitudeDegrees>
            </Position>
            <AltitudeMeters>834.79998779296875</AltitudeMeters>
            <DistanceMeters>175621.29984429</DistanceMeters>
          </Trackpoint>
          <Trackpoint>
            <Time>2019-08-02T15:19:45.000Z</Time>
            <Position>
              <LatitudeDegrees>41.23512175865471363067626953125</LatitudeDegrees>
              <LongitudeDegrees>-4.62291589938104152679443359375</LongitudeDegrees>
            </Position>
            <AltitudeMeters>834.5999755859375</AltitudeMeters>
            <DistanceMeters>175634.48495072</DistanceMeters>
          </Trackpoint>
          <Trackpoint>
            <Time>2019-08-02T15:19:50.000Z</Time>
            <Position>
              <LatitudeDegrees>41.2352495826780796051025390625</LatitudeDegrees>
              <LongitudeDegrees>-4.62316165678203105926513671875</LongitudeDegrees>
            </Position>
            <AltitudeMeters>834</AltitudeMeters>
            <DistanceMeters>175659.49557757</DistanceMeters>
          </Trackpoint>
          <Trackpoint>
            <Time>2019-08-02T15:20:03.000Z</Time>
            <Position>
              <LatitudeDegrees>41.2355949170887470245361328125</LatitudeDegrees>
              <LongitudeDegrees>-4.623742438852787017822265625</LongitudeDegrees>
            </Position>
            <AltitudeMeters>833.5999755859375</AltitudeMeters>
            <DistanceMeters>175721.46676685</DistanceMeters>
          </Trackpoint>
          <Trackpoint>
            <Time>2019-08-02T15:20:18.000Z</Time>
            <Position>
              <LatitudeDegrees>41.23593564145267009735107421875</LatitudeDegrees>
              <LongitudeDegrees>-4.62431500665843486785888671875</LongitudeDegrees>
            </Position>
            <AltitudeMeters>834.5999755859375</AltitudeMeters>
            <DistanceMeters>175782.58010106</DistanceMeters>
          </Trackpoint>
          <Trackpoint>
            <Time>2019-08-02T15:20:23.000Z</Time>
            <Position>
              <LatitudeDegrees>41.2360522337257862091064453125</LatitudeDegrees>
              <LongitudeDegrees>-4.62448130361735820770263671875</LongitudeDegrees>
            </Position>
            <AltitudeMeters>835.20001220703125</AltitudeMeters>
            <DistanceMeters>175801.61013484</DistanceMeters>
          </Trackpoint>
          <Trackpoint>
            <Time>2019-08-02T15:20:32.000Z</Time>
            <Position>
              <LatitudeDegrees>41.2362289242446422576904296875</LatitudeDegrees>
              <LongitudeDegrees>-4.62477483786642551422119140625</LongitudeDegrees>
            </Position>
            <AltitudeMeters>836.20001220703125</AltitudeMeters>
            <DistanceMeters>175833.08033716</DistanceMeters>
          </Trackpoint>
          <Trackpoint>
            <Time>2019-08-02T15:20:46.000Z</Time>
            <Position>
              <LatitudeDegrees>41.23648398555815219879150390625</LatitudeDegrees>
              <LongitudeDegrees>-4.6251812763512134552001953125</LongitudeDegrees>
            </Position>
            <AltitudeMeters>837.4000244140625</AltitudeMeters>
            <DistanceMeters>175877.38806491</DistanceMeters>
          </Trackpoint>
          <Trackpoint>
            <Time>2019-08-02T15:21:06.000Z</Time>
            <Position>
              <LatitudeDegrees>41.236911714076995849609375</LatitudeDegrees>
              <LongitudeDegrees>-4.62564580142498016357421875</LongitudeDegrees>
            </Position>
            <AltitudeMeters>838.4000244140625</AltitudeMeters>
            <DistanceMeters>175938.85411752</DistanceMeters>
          </Trackpoint>
          <Trackpoint>
            <Time>2019-08-02T15:21:08.000Z</Time>
            <Position>
              <LatitudeDegrees>41.2369573116302490234375</LatitudeDegrees>
              <LongitudeDegrees>-4.62569349445402622222900390625</LongitudeDegrees>
            </Position>
            <AltitudeMeters>838.5999755859375</AltitudeMeters>
            <DistanceMeters>175945.31104117</DistanceMeters>
          </Trackpoint>
          <Trackpoint>
            <Time>2019-08-02T15:21:20.000Z</Time>
            <Position>
              <LatitudeDegrees>41.23722754418849945068359375</LatitudeDegrees>
              <LongitudeDegrees>-4.62598065845668315887451171875</LongitudeDegrees>
            </Position>
            <AltitudeMeters>839.5999755859375</AltitudeMeters>
            <DistanceMeters>175983.81210867</DistanceMeters>
          </Trackpoint>
          <Trackpoint>
            <Time>2019-08-02T15:21:36.000Z</Time>
            <Position>
              <LatitudeDegrees>41.23760129325091838836669921875</LatitudeDegrees>
              <LongitudeDegrees>-4.626388438045978546142578125</LongitudeDegrees>
            </Position>
            <AltitudeMeters>838.79998779296875</AltitudeMeters>
            <DistanceMeters>176037.62056089</DistanceMeters>
          </Trackpoint>
          <Trackpoint>
            <Time>2019-08-02T15:21:54.000Z</Time>
            <Position>
              <LatitudeDegrees>41.2380189634859561920166015625</LatitudeDegrees>
              <LongitudeDegrees>-4.6268667094409465789794921875</LongitudeDegrees>
            </Position>
            <AltitudeMeters>838</AltitudeMeters>
            <DistanceMeters>176098.96779408</DistanceMeters>
          </Trackpoint>
          <Trackpoint>
            <Time>2019-08-02T15:21:58.000Z</Time>
            <Position>
              <LatitudeDegrees>41.23811535537242889404296875</LatitudeDegrees>
              <LongitudeDegrees>-4.626971818506717681884765625</LongitudeDegrees>
            </Position>
            <AltitudeMeters>837.79998779296875</AltitudeMeters>
            <DistanceMeters>176112.84169437</DistanceMeters>
          </Trackpoint>
          <Trackpoint>
            <Time>2019-08-02T15:22:16.000Z</Time>
            <Position>
              <LatitudeDegrees>41.23855615966022014617919921875</LatitudeDegrees>
              <LongitudeDegrees>-4.627447240054607391357421875</LongitudeDegrees>
            </Position>
            <AltitudeMeters>837.20001220703125</AltitudeMeters>
            <DistanceMeters>176176.0116632</DistanceMeters>
          </Trackpoint>
          <Trackpoint>
            <Time>2019-08-02T15:22:20.000Z</Time>
            <Position>
              <LatitudeDegrees>41.238664202392101287841796875</LatitudeDegrees>
              <LongitudeDegrees>-4.62755461223423480987548828125</LongitudeDegrees>
            </Position>
            <AltitudeMeters>836.79998779296875</AltitudeMeters>
            <DistanceMeters>176191.0237789</DistanceMeters>
          </Trackpoint>
          <Trackpoint>
            <Time>2019-08-02T15:22:36.000Z</Time>
            <Position>
              <LatitudeDegrees>41.23907424509525299072265625</LatitudeDegrees>
              <LongitudeDegrees>-4.62801058776676654815673828125</LongitudeDegrees>
            </Position>
            <AltitudeMeters>835.79998779296875</AltitudeMeters>
            <DistanceMeters>176250.51581485</DistanceMeters>
          </Trackpoint>
          <Trackpoint>
            <Time>2019-08-02T15:22:51.000Z</Time>
            <Position>
              <LatitudeDegrees>41.23944950290024280548095703125</LatitudeDegrees>
              <LongitudeDegrees>-4.6284274198114871978759765625</LongitudeDegrees>
            </Position>
            <AltitudeMeters>835</AltitudeMeters>
            <DistanceMeters>176304.93617971</DistanceMeters>
          </Trackpoint>
          <Trackpoint>
            <Time>2019-08-02T15:22:58.000Z</Time>
            <Position>
              <LatitudeDegrees>41.23963306657969951629638671875</LatitudeDegrees>
              <LongitudeDegrees>-4.62862079031765460968017578125</LongitudeDegrees>
            </Position>
            <AltitudeMeters>833.79998779296875</AltitudeMeters>
            <DistanceMeters>176331.00053681</DistanceMeters>
          </Trackpoint>
          <Trackpoint>
            <Time>2019-08-02T15:23:12.000Z</Time>
            <Position>
              <LatitudeDegrees>41.23999424278736114501953125</LatitudeDegrees>
              <LongitudeDegrees>-4.6290248818695545196533203125</LongitudeDegrees>
            </Position>
            <AltitudeMeters>832.79998779296875</AltitudeMeters>
            <DistanceMeters>176383.53441239</DistanceMeters>
          </Trackpoint>
          <Trackpoint>
            <Time>2019-08-02T15:23:21.000Z</Time>
            <Position>
              <LatitudeDegrees>41.240234635770320892333984375</LatitudeDegrees>
              <LongitudeDegrees>-4.629287905991077423095703125</LongitudeDegrees>
            </Position>
            <AltitudeMeters>831.5999755859375</AltitudeMeters>
            <DistanceMeters>176418.18256505</DistanceMeters>
          </Trackpoint>
          <Trackpoint>
            <Time>2019-08-02T15:23:29.000Z</Time>
            <Position>
              <LatitudeDegrees>41.2404413335025310516357421875</LatitudeDegrees>
              <LongitudeDegrees>-4.62950843386352062225341796875</LongitudeDegrees>
            </Position>
            <AltitudeMeters>830.5999755859375</AltitudeMeters>
            <DistanceMeters>176447.67699578</DistanceMeters>
          </Trackpoint>
          <Trackpoint>
            <Time>2019-08-02T15:23:37.000Z</Time>
            <Position>
              <LatitudeDegrees>41.24065549112856388092041015625</LatitudeDegrees>
              <LongitudeDegrees>-4.6297373436391353607177734375</LongitudeDegrees>
            </Position>
            <AltitudeMeters>829.4000244140625</AltitudeMeters>
            <DistanceMeters>176478.25788584</DistanceMeters>
          </Trackpoint>
          <Trackpoint>
            <Time>2019-08-02T15:23:53.000Z</Time>
            <Position>
              <LatitudeDegrees>41.24108313582837581634521484375</LatitudeDegrees>
              <LongitudeDegrees>-4.63020698167383670806884765625</LongitudeDegrees>
            </Position>
            <AltitudeMeters>828.79998779296875</AltitudeMeters>
            <DistanceMeters>176539.98664265</DistanceMeters>
          </Trackpoint>
          <Trackpoint>
            <Time>2019-08-02T15:24:09.000Z</Time>
            <Position>
              <LatitudeDegrees>41.2415142171084880828857421875</LatitudeDegrees>
              <LongitudeDegrees>-4.63066547177731990814208984375</LongitudeDegrees>
            </Position>
            <AltitudeMeters>829.4000244140625</AltitudeMeters>
            <DistanceMeters>176601.42374685</DistanceMeters>
          </Trackpoint>
          <Trackpoint>
            <Time>2019-08-02T15:24:24.000Z</Time>
            <Position>
              <LatitudeDegrees>41.24194446019828319549560546875</LatitudeDegrees>
              <LongitudeDegrees>-4.63112178258597850799560546875</LongitudeDegrees>
            </Position>
            <AltitudeMeters>828.79998779296875</AltitudeMeters>
            <DistanceMeters>176662.6740484</DistanceMeters>
          </Trackpoint>
          <Trackpoint>
            <Time>2019-08-02T15:24:41.000Z</Time>
            <Position>
              <LatitudeDegrees>41.24237076379358768463134765625</LatitudeDegrees>
              <LongitudeDegrees>-4.63158966042101383209228515625</LongitudeDegrees>
            </Position>
            <AltitudeMeters>828.5999755859375</AltitudeMeters>
            <DistanceMeters>176724.19355359</DistanceMeters>
          </Trackpoint>
          <Trackpoint>
            <Time>2019-08-02T15:24:44.000Z</Time>
            <Position>
              <LatitudeDegrees>41.242476291954517364501953125</LatitudeDegrees>
              <LongitudeDegrees>-4.63170600123703479766845703125</LongitudeDegrees>
            </Position>
            <AltitudeMeters>828.4000244140625</AltitudeMeters>
            <DistanceMeters>176739.45000306</DistanceMeters>
          </Trackpoint>
          <Trackpoint>
            <Time>2019-08-02T15:25:00.000Z</Time>
            <Position>
              <LatitudeDegrees>41.2429109774529933929443359375</LatitudeDegrees>
              <LongitudeDegrees>-4.63217270560562610626220703125</LongitudeDegrees>
            </Position>
            <AltitudeMeters>827.4000244140625</AltitudeMeters>
            <DistanceMeters>176801.62986789</DistanceMeters>
          </Trackpoint>
          <Trackpoint>
            <Time>2019-08-02T15:25:01.000Z</Time>
            <Position>
              <LatitudeDegrees>41.2429109774529933929443359375</LatitudeDegrees>
              <LongitudeDegrees>-4.63217270560562610626220703125</LongitudeDegrees>
            </Position>
            <AltitudeMeters>827.20001220703125</AltitudeMeters>
            <DistanceMeters>176801.62986789</DistanceMeters>
          </Trackpoint>
          <Trackpoint>
            <Time>2019-08-02T15:25:15.000Z</Time>
            <Position>
              <LatitudeDegrees>41.2433572299778461456298828125</LatitudeDegrees>
              <LongitudeDegrees>-4.6326622925698757171630859375</LongitudeDegrees>
            </Position>
            <AltitudeMeters>826.79998779296875</AltitudeMeters>
            <DistanceMeters>176866.01788274</DistanceMeters>
          </Trackpoint>
          <Trackpoint>
            <Time>2019-08-02T15:25:24.000Z</Time>
            <Position>
              <LatitudeDegrees>41.24363542534410953521728515625</LatitudeDegrees>
              <LongitudeDegrees>-4.63296194560825824737548828125</LongitudeDegrees>
            </Position>
            <AltitudeMeters>826.20001220703125</AltitudeMeters>
            <DistanceMeters>176905.86320844</DistanceMeters>
          </Trackpoint>
          <Trackpoint>
            <Time>2019-08-02T15:25:30.000Z</Time>
            <Position>
              <LatitudeDegrees>41.2438232637941837310791015625</LatitudeDegrees>
              <LongitudeDegrees>-4.63316109962761402130126953125</LongitudeDegrees>
            </Position>
            <AltitudeMeters>825.20001220703125</AltitudeMeters>
            <DistanceMeters>176932.60052435</DistanceMeters>
          </Trackpoint>
          <Trackpoint>
            <Time>2019-08-02T15:25:44.000Z</Time>
            <Position>
              <LatitudeDegrees>41.2442447058856487274169921875</LatitudeDegrees>
              <LongitudeDegrees>-4.6336220204830169677734375</LongitudeDegrees>
            </Position>
            <AltitudeMeters>825.4000244140625</AltitudeMeters>
            <DistanceMeters>176993.33144253</DistanceMeters>
          </Trackpoint>
          <Trackpoint>
            <Time>2019-08-02T15:26:00.000Z</Time>
            <Position>
              <LatitudeDegrees>41.24468634836375713348388671875</LatitudeDegrees>
              <LongitudeDegrees>-4.6341167204082012176513671875</LongitudeDegrees>
            </Position>
            <AltitudeMeters>824.4000244140625</AltitudeMeters>
            <DistanceMeters>177057.59880403</DistanceMeters>
          </Trackpoint>
          <Trackpoint>
            <Time>2019-08-02T15:26:15.000Z</Time>
            <Position>
              <LatitudeDegrees>41.24511617235839366912841796875</LatitudeDegrees>
              <LongitudeDegrees>-4.63458635844290256500244140625</LongitudeDegrees>
            </Position>
            <AltitudeMeters>825.20001220703125</AltitudeMeters>
            <DistanceMeters>177119.5133575</DistanceMeters>
          </Trackpoint>
          <Trackpoint>
            <Time>2019-08-02T15:26:28.000Z</Time>
            <Position>
              <LatitudeDegrees>41.24555421061813831329345703125</LatitudeDegrees>
              <LongitudeDegrees>-4.6350588463246822357177734375</LongitudeDegrees>
            </Position>
            <AltitudeMeters>825.4000244140625</AltitudeMeters>
            <DistanceMeters>177182.28682832</DistanceMeters>
          </Trackpoint>
          <Trackpoint>
            <Time>2019-08-02T15:26:43.000Z</Time>
            <Position>
              <LatitudeDegrees>41.2459911592304706573486328125</LatitudeDegrees>
              <LongitudeDegrees>-4.63552705943584442138671875</LongitudeDegrees>
            </Position>
            <AltitudeMeters>825.4000244140625</AltitudeMeters>
            <DistanceMeters>177244.74085461</DistanceMeters>
          </Trackpoint>
          <Trackpoint>
            <Time>2019-08-02T15:26:55.000Z</Time>
            <Position>
              <LatitudeDegrees>41.246331967413425445556640625</LatitudeDegrees>
              <LongitudeDegrees>-4.63590080849826335906982421875</LongitudeDegrees>
            </Position>
            <AltitudeMeters>826</AltitudeMeters>
            <DistanceMeters>177293.90558651</DistanceMeters>
          </Trackpoint>
          <Trackpoint>
            <Time>2019-08-02T15:27:08.000Z</Time>
            <Position>
              <LatitudeDegrees>41.2467562593519687652587890625</LatitudeDegrees>
              <LongitudeDegrees>-4.63636114262044429779052734375</LongitudeDegrees>
            </Position>
            <AltitudeMeters>826.20001220703125</AltitudeMeters>
            <DistanceMeters>177354.84994574</DistanceMeters>
          </Trackpoint>
          <Trackpoint>
            <Time>2019-08-02T15:27:19.000Z</Time>
            <Position>
              <LatitudeDegrees>41.24708441086113452911376953125</LatitudeDegrees>
              <LongitudeDegrees>-4.63671259582042694091796875</LongitudeDegrees>
            </Position>
            <AltitudeMeters>827.20001220703125</AltitudeMeters>
            <DistanceMeters>177401.74367961</DistanceMeters>
          </Trackpoint>
          <Trackpoint>
            <Time>2019-08-02T15:27:33.000Z</Time>
            <Position>
              <LatitudeDegrees>41.2475330941379070281982421875</LatitudeDegrees>
              <LongitudeDegrees>-4.637205787003040313720703125</LongitudeDegrees>
            </Position>
            <AltitudeMeters>827</AltitudeMeters>
            <DistanceMeters>177466.53071637</DistanceMeters>
          </Trackpoint>
          <Trackpoint>
            <Time>2019-08-02T15:27:43.000Z</Time>
            <Position>
              <LatitudeDegrees>41.24778564088046550750732421875</LatitudeDegrees>
              <LongitudeDegrees>-4.637487418949604034423828125</LongitudeDegrees>
            </Position>
            <AltitudeMeters>828.20001220703125</AltitudeMeters>
            <DistanceMeters>177503.21275136</DistanceMeters>
          </Trackpoint>
          <Trackpoint>
            <Time>2019-08-02T15:27:48.000Z</Time>
            <Position>
              <LatitudeDegrees>41.2479240261018276214599609375</LatitudeDegrees>
              <LongitudeDegrees>-4.63764642365276813507080078125</LongitudeDegrees>
            </Position>
            <AltitudeMeters>829.20001220703125</AltitudeMeters>
            <DistanceMeters>177523.56666615</DistanceMeters>
          </Trackpoint>
          <Trackpoint>
            <Time>2019-08-02T15:28:03.000Z</Time>
            <Position>
              <LatitudeDegrees>41.24835544265806674957275390625</LatitudeDegrees>
              <LongitudeDegrees>-4.63811463676393032073974609375</LongitudeDegrees>
            </Position>
            <AltitudeMeters>830.20001220703125</AltitudeMeters>
            <DistanceMeters>177585.54157103</DistanceMeters>
          </Trackpoint>
          <Trackpoint>
            <Time>2019-08-02T15:28:04.000Z</Time>
            <Position>
              <LatitudeDegrees>41.2483846955001354217529296875</LatitudeDegrees>
              <LongitudeDegrees>-4.63814615271985530853271484375</LongitudeDegrees>
            </Position>
            <AltitudeMeters>830.20001220703125</AltitudeMeters>
            <DistanceMeters>177589.73137635</DistanceMeters>
          </Trackpoint>
          <Trackpoint>
            <Time>2019-08-02T15:28:19.000Z</Time>
            <Position>
              <LatitudeDegrees>41.24881192110478878021240234375</LatitudeDegrees>
              <LongitudeDegrees>-4.63861185126006603240966796875</LongitudeDegrees>
            </Position>
            <AltitudeMeters>831</AltitudeMeters>
            <DistanceMeters>177651.21182461</DistanceMeters>
          </Trackpoint>
          <Trackpoint>
            <Time>2019-08-02T15:28:28.000Z</Time>
            <Position>
              <LatitudeDegrees>41.24906153418123722076416015625</LatitudeDegrees>
              <LongitudeDegrees>-4.63888040743768215179443359375</LongitudeDegrees>
            </Position>
            <AltitudeMeters>831.4000244140625</AltitudeMeters>
            <DistanceMeters>177686.94591267</DistanceMeters>
          </Trackpoint>
          <Trackpoint>
            <Time>2019-08-02T15:28:41.000Z</Time>
            <Position>
              <LatitudeDegrees>41.24941441230475902557373046875</LatitudeDegrees>
              <LongitudeDegrees>-4.639260359108448028564453125</LongitudeDegrees>
            </Position>
            <AltitudeMeters>832.5999755859375</AltitudeMeters>
            <DistanceMeters>177737.47850687</DistanceMeters>
          </Trackpoint>
          <Trackpoint>
            <Time>2019-08-02T15:28:57.000Z</Time>
            <Position>
              <LatitudeDegrees>41.24985815025866031646728515625</LatitudeDegrees>
              <LongitudeDegrees>-4.63974391110241413116455078125</LongitudeDegrees>
            </Position>
            <AltitudeMeters>832.79998779296875</AltitudeMeters>
            <DistanceMeters>177801.32705455</DistanceMeters>
          </Trackpoint>
          <Trackpoint>
            <Time>2019-08-02T15:29:08.000Z</Time>
            <Position>
              <LatitudeDegrees>41.2501371838152408599853515625</LatitudeDegrees>
              <LongitudeDegrees>-4.64003895409405231475830078125</LongitudeDegrees>
            </Position>
            <AltitudeMeters>833.5999755859375</AltitudeMeters>
            <DistanceMeters>177841.00204498</DistanceMeters>
          </Trackpoint>
          <Trackpoint>
            <Time>2019-08-02T15:29:24.000Z</Time>
            <Position>
              <LatitudeDegrees>41.250431053340435028076171875</LatitudeDegrees>
              <LongitudeDegrees>-4.6403602324426174163818359375</LongitudeDegrees>
            </Position>
            <AltitudeMeters>834.79998779296875</AltitudeMeters>
            <DistanceMeters>177883.34153855</DistanceMeters>
          </Trackpoint>
          <Trackpoint>
            <Time>2019-08-02T15:29:38.000Z</Time>
            <Position>
              <LatitudeDegrees>41.250751577317714691162109375</LatitudeDegrees>
              <LongitudeDegrees>-4.6407354064285755157470703125</LongitudeDegrees>
            </Position>
            <AltitudeMeters>835.79998779296875</AltitudeMeters>
            <DistanceMeters>177930.86344737</DistanceMeters>
          </Trackpoint>
          <Trackpoint>
            <Time>2019-08-02T15:29:53.000Z</Time>
            <Position>
              <LatitudeDegrees>41.25115818344056606292724609375</LatitudeDegrees>
              <LongitudeDegrees>-4.64116514660418033599853515625</LongitudeDegrees>
            </Position>
            <AltitudeMeters>837</AltitudeMeters>
            <DistanceMeters>177988.667269</DistanceMeters>
          </Trackpoint>
          <Trackpoint>
            <Time>2019-08-02T15:30:12.000Z</Time>
            <Position>
              <LatitudeDegrees>41.2515916116535663604736328125</LatitudeDegrees>
              <LongitudeDegrees>-4.64163570664823055267333984375</LongitudeDegrees>
            </Position>
            <AltitudeMeters>837.5999755859375</AltitudeMeters>
            <DistanceMeters>178050.93863094</DistanceMeters>
          </Trackpoint>
          <Trackpoint>
            <Time>2019-08-02T15:30:26.000Z</Time>
            <Position>
              <LatitudeDegrees>41.25194457359611988067626953125</LatitudeDegrees>
              <LongitudeDegrees>-4.64201532304286956787109375</LongitudeDegrees>
            </Position>
            <AltitudeMeters>836</AltitudeMeters>
            <DistanceMeters>178101.45996591</DistanceMeters>
          </Trackpoint>
          <Trackpoint>
            <Time>2019-08-02T15:30:37.000Z</Time>
            <Position>
              <LatitudeDegrees>41.25224389135837554931640625</LatitudeDegrees>
              <LongitudeDegrees>-4.642337523400783538818359375</LongitudeDegrees>
            </Position>
            <AltitudeMeters>835</AltitudeMeters>
            <DistanceMeters>178144.31764619</DistanceMeters>
          </Trackpoint>
          <Trackpoint>
            <Time>2019-08-02T15:30:50.000Z</Time>
            <Position>
              <LatitudeDegrees>41.25266944058239459991455078125</LatitudeDegrees>
              <LongitudeDegrees>-4.64280313812196254730224609375</LongitudeDegrees>
            </Position>
            <AltitudeMeters>834.79998779296875</AltitudeMeters>
            <DistanceMeters>178205.64809672</DistanceMeters>
          </Trackpoint>
          <Trackpoint>
            <Time>2019-08-02T15:31:03.000Z</Time>
            <Position>
              <LatitudeDegrees>41.25310261733829975128173828125</LatitudeDegrees>
              <LongitudeDegrees>-4.6432791464030742645263671875</LongitudeDegrees>
            </Position>
            <AltitudeMeters>834.5999755859375</AltitudeMeters>
            <DistanceMeters>178268.18664954</DistanceMeters>
          </Trackpoint>
          <Trackpoint>
            <Time>2019-08-02T15:31:16.000Z</Time>
            <Position>
              <LatitudeDegrees>41.2535331957042217254638671875</LatitudeDegrees>
              <LongitudeDegrees>-4.64374224655330181121826171875</LongitudeDegrees>
            </Position>
            <AltitudeMeters>834.79998779296875</AltitudeMeters>
            <DistanceMeters>178329.81760958</DistanceMeters>
          </Trackpoint>
          <Trackpoint>
            <Time>2019-08-02T15:31:27.000Z</Time>
            <Position>
              <LatitudeDegrees>41.2539522908627986907958984375</LatitudeDegrees>
              <LongitudeDegrees>-4.64419461786746978759765625</LongitudeDegrees>
            </Position>
            <AltitudeMeters>835</AltitudeMeters>
            <DistanceMeters>178389.89012833</DistanceMeters>
          </Trackpoint>
          <Trackpoint>
            <Time>2019-08-02T15:31:35.000Z</Time>
            <Position>
              <LatitudeDegrees>41.2541998922824859619140625</LatitudeDegrees>
              <LongitudeDegrees>-4.644464515149593353271484375</LongitudeDegrees>
            </Position>
            <AltitudeMeters>834.4000244140625</AltitudeMeters>
            <DistanceMeters>178425.52045793</DistanceMeters>
          </Trackpoint>
          <Trackpoint>
            <Time>2019-08-02T15:31:42.000Z</Time>
            <Position>
              <LatitudeDegrees>41.254455707967281341552734375</LatitudeDegrees>
              <LongitudeDegrees>-4.644746147096157073974609375</LongitudeDegrees>
            </Position>
            <AltitudeMeters>833.20001220703125</AltitudeMeters>
            <DistanceMeters>178462.48047517</DistanceMeters>
          </Trackpoint>
          <Trackpoint>
            <Time>2019-08-02T15:31:48.000Z</Time>
            <Position>
              <LatitudeDegrees>41.25467807985842227935791015625</LatitudeDegrees>
              <LongitudeDegrees>-4.64498880319297313690185546875</LongitudeDegrees>
            </Position>
            <AltitudeMeters>832</AltitudeMeters>
            <DistanceMeters>178494.49390198</DistanceMeters>
          </Trackpoint>
          <Trackpoint>
            <Time>2019-08-02T15:31:57.000Z</Time>
            <Position>
              <LatitudeDegrees>41.25500715337693691253662109375</LatitudeDegrees>
              <LongitudeDegrees>-4.64534989558160305023193359375</LongitudeDegrees>
            </Position>
            <AltitudeMeters>831</AltitudeMeters>
            <DistanceMeters>178541.97455872</DistanceMeters>
          </Trackpoint>
          <Trackpoint>
            <Time>2019-08-02T15:32:09.000Z</Time>
            <Position>
              <LatitudeDegrees>41.2554375641047954559326171875</LatitudeDegrees>
              <LongitudeDegrees>-4.645809642970561981201171875</LongitudeDegrees>
            </Position>
            <AltitudeMeters>830.5999755859375</AltitudeMeters>
            <DistanceMeters>178603.41408806</DistanceMeters>
          </Trackpoint>
          <Trackpoint>
            <Time>2019-08-02T15:32:24.000Z</Time>
            <Position>
              <LatitudeDegrees>41.25587233342230319976806640625</LatitudeDegrees>
              <LongitudeDegrees>-4.64626905508339405059814453125</LongitudeDegrees>
            </Position>
            <AltitudeMeters>830.79998779296875</AltitudeMeters>
            <DistanceMeters>178665.21492197</DistanceMeters>
          </Trackpoint>
          <Trackpoint>
            <Time>2019-08-02T15:32:36.000Z</Time>
            <Position>
              <LatitudeDegrees>41.25622068531811237335205078125</LatitudeDegrees>
              <LongitudeDegrees>-4.64665018022060394287109375</LongitudeDegrees>
            </Position>
            <AltitudeMeters>830.20001220703125</AltitudeMeters>
            <DistanceMeters>178715.41709539</DistanceMeters>
          </Trackpoint>
          <Trackpoint>
            <Time>2019-08-02T15:32:50.000Z</Time>
            <Position>
              <LatitudeDegrees>41.25663441605865955352783203125</LatitudeDegrees>
              <LongitudeDegrees>-4.6471081674098968505859375</LongitudeDegrees>
            </Position>
            <AltitudeMeters>829.20001220703125</AltitudeMeters>
            <DistanceMeters>178775.32569246</DistanceMeters>
          </Trackpoint>
          <Trackpoint>
            <Time>2019-08-02T15:33:04.000Z</Time>
            <Position>
              <LatitudeDegrees>41.25705015845596790313720703125</LatitudeDegrees>
              <LongitudeDegrees>-4.647581242024898529052734375</LongitudeDegrees>
            </Position>
            <AltitudeMeters>828.4000244140625</AltitudeMeters>
            <DistanceMeters>178836.2192826</DistanceMeters>
          </Trackpoint>
          <Trackpoint>
            <Time>2019-08-02T15:33:10.000Z</Time>
            <Position>
              <LatitudeDegrees>41.25723288394510746002197265625</LatitudeDegrees>
              <LongitudeDegrees>-4.64781719259917736053466796875</LongitudeDegrees>
            </Position>
            <AltitudeMeters>828.20001220703125</AltitudeMeters>
            <DistanceMeters>178864.56337971</DistanceMeters>
          </Trackpoint>
          <Trackpoint>
            <Time>2019-08-02T15:33:24.000Z</Time>
            <Position>
              <LatitudeDegrees>41.257622055709362030029296875</LatitudeDegrees>
              <LongitudeDegrees>-4.64832178317010402679443359375</LongitudeDegrees>
            </Position>
            <AltitudeMeters>827.79998779296875</AltitudeMeters>
            <DistanceMeters>178925.05114916</DistanceMeters>
          </Trackpoint>
          <Trackpoint>
            <Time>2019-08-02T15:33:38.000Z</Time>
            <Position>
              <LatitudeDegrees>41.25799094326794147491455078125</LatitudeDegrees>
              <LongitudeDegrees>-4.64889292605221271514892578125</LongitudeDegrees>
            </Position>
            <AltitudeMeters>828</AltitudeMeters>
            <DistanceMeters>178988.05486408</DistanceMeters>
          </Trackpoint>
          <Trackpoint>
            <Time>2019-08-02T15:33:52.000Z</Time>
            <Position>
              <LatitudeDegrees>41.25833745114505290985107421875</LatitudeDegrees>
              <LongitudeDegrees>-4.64949172921478748321533203125</LongitudeDegrees>
            </Position>
            <AltitudeMeters>828</AltitudeMeters>
            <DistanceMeters>179051.2819866</DistanceMeters>
          </Trackpoint>
          <Trackpoint>
            <Time>2019-08-02T15:34:01.000Z</Time>
            <Position>
              <LatitudeDegrees>41.2585593201220035552978515625</LatitudeDegrees>
              <LongitudeDegrees>-4.6498773805797100067138671875</LongitudeDegrees>
            </Position>
            <AltitudeMeters>827.20001220703125</AltitudeMeters>
            <DistanceMeters>179091.91476963</DistanceMeters>
          </Trackpoint>
          <Trackpoint>
            <Time>2019-08-02T15:34:15.000Z</Time>
            <Position>
              <LatitudeDegrees>41.25887758098542690277099609375</LatitudeDegrees>
              <LongitudeDegrees>-4.650486074388027191162109375</LongitudeDegrees>
            </Position>
            <AltitudeMeters>826.20001220703125</AltitudeMeters>
            <DistanceMeters>179153.95200506</DistanceMeters>
          </Trackpoint>
          <Trackpoint>
            <Time>2019-08-02T15:34:16.000Z</Time>
            <Position>
              <LatitudeDegrees>41.25887758098542690277099609375</LatitudeDegrees>
              <LongitudeDegrees>-4.650486074388027191162109375</LongitudeDegrees>
            </Position>
            <AltitudeMeters>826.20001220703125</AltitudeMeters>
            <DistanceMeters>179153.95200506</DistanceMeters>
          </Trackpoint>
          <Trackpoint>
            <Time>2019-08-02T15:34:30.000Z</Time>
            <Position>
              <LatitudeDegrees>41.25921218656003475189208984375</LatitudeDegrees>
              <LongitudeDegrees>-4.65109434910118579864501953125</LongitudeDegrees>
            </Position>
            <AltitudeMeters>825.79998779296875</AltitudeMeters>
            <DistanceMeters>179217.01710531</DistanceMeters>
          </Trackpoint>
          <Trackpoint>
            <Time>2019-08-02T15:34:39.000Z</Time>
            <Position>
              <LatitudeDegrees>41.25946464948356151580810546875</LatitudeDegrees>
              <LongitudeDegrees>-4.6515681780874729156494140625</LongitudeDegrees>
            </Position>
            <AltitudeMeters>825.20001220703125</AltitudeMeters>
            <DistanceMeters>179265.61042594</DistanceMeters>
          </Trackpoint>
          <Trackpoint>
            <Time>2019-08-02T15:34:40.000Z</Time>
            <Position>
              <LatitudeDegrees>41.25946464948356151580810546875</LatitudeDegrees>
              <LongitudeDegrees>-4.6515681780874729156494140625</LongitudeDegrees>
            </Position>
            <AltitudeMeters>825.20001220703125</AltitudeMeters>
            <DistanceMeters>179265.61042594</DistanceMeters>
          </Trackpoint>
          <Trackpoint>
            <Time>2019-08-02T15:34:53.000Z</Time>
            <Position>
              <LatitudeDegrees>41.259800009429454803466796875</LatitudeDegrees>
              <LongitudeDegrees>-4.65220159851014614105224609375</LongitudeDegrees>
            </Position>
            <AltitudeMeters>824.20001220703125</AltitudeMeters>
            <DistanceMeters>179330.4332737</DistanceMeters>
          </Trackpoint>
          <Trackpoint>
            <Time>2019-08-02T15:34:54.000Z</Time>
            <Position>
              <LatitudeDegrees>41.25982674770057201385498046875</LatitudeDegrees>
              <LongitudeDegrees>-4.65225038118660449981689453125</LongitudeDegrees>
            </Position>
            <AltitudeMeters>824</AltitudeMeters>
            <DistanceMeters>179335.48490671</DistanceMeters>
          </Trackpoint>
          <Trackpoint>
            <Time>2019-08-02T15:35:06.000Z</Time>
            <Position>
              <LatitudeDegrees>41.26014945097267627716064453125</LatitudeDegrees>
              <LongitudeDegrees>-4.65284130536019802093505859375</LongitudeDegrees>
            </Position>
            <AltitudeMeters>823.20001220703125</AltitudeMeters>
            <DistanceMeters>179396.59595059</DistanceMeters>
          </Trackpoint>
          <Trackpoint>
            <Time>2019-08-02T15:35:11.000Z</Time>
            <Position>
              <LatitudeDegrees>41.26030686311423778533935546875</LatitudeDegrees>
              <LongitudeDegrees>-4.6531335823237895965576171875</LongitudeDegrees>
            </Position>
            <AltitudeMeters>823</AltitudeMeters>
            <DistanceMeters>179426.67877295</DistanceMeters>
          </Trackpoint>
          <Trackpoint>
            <Time>2019-08-02T15:35:24.000Z</Time>
            <Position>
              <LatitudeDegrees>41.260627806186676025390625</LatitudeDegrees>
              <LongitudeDegrees>-4.6537172980606555938720703125</LongitudeDegrees>
            </Position>
            <AltitudeMeters>824</AltitudeMeters>
            <DistanceMeters>179487.18669288</DistanceMeters>
          </Trackpoint>
          <Trackpoint>
            <Time>2019-08-02T15:35:35.000Z</Time>
            <Position>
              <LatitudeDegrees>41.260840035974979400634765625</LatitudeDegrees>
              <LongitudeDegrees>-4.6541447751224040985107421875</LongitudeDegrees>
            </Position>
            <AltitudeMeters>824.4000244140625</AltitudeMeters>
            <DistanceMeters>179530.04911363</DistanceMeters>
          </Trackpoint>
          <Trackpoint>
            <Time>2019-08-02T15:35:51.000Z</Time>
            <Position>
              <LatitudeDegrees>41.2611634097993373870849609375</LatitudeDegrees>
              <LongitudeDegrees>-4.65475087054073810577392578125</LongitudeDegrees>
            </Position>
            <AltitudeMeters>824.5999755859375</AltitudeMeters>
            <DistanceMeters>179592.23406113</DistanceMeters>
          </Trackpoint>
          <Trackpoint>
            <Time>2019-08-02T15:36:05.000Z</Time>
            <Position>
              <LatitudeDegrees>41.2615124322474002838134765625</LatitudeDegrees>
              <LongitudeDegrees>-4.65538521297276020050048828125</LongitudeDegrees>
            </Position>
            <AltitudeMeters>825</AltitudeMeters>
            <DistanceMeters>179658.00531717</DistanceMeters>
          </Trackpoint>
          <Trackpoint>
            <Time>2019-08-02T15:36:21.000Z</Time>
            <Position>
              <LatitudeDegrees>41.26183739863336086273193359375</LatitudeDegrees>
              <LongitudeDegrees>-4.65599021874368190765380859375</LongitudeDegrees>
            </Position>
            <AltitudeMeters>825.5999755859375</AltitudeMeters>
            <DistanceMeters>179720.21842966</DistanceMeters>
          </Trackpoint>
          <Trackpoint>
            <Time>2019-08-02T15:36:31.000Z</Time>
            <Position>
              <LatitudeDegrees>41.262059099972248077392578125</LatitudeDegrees>
              <LongitudeDegrees>-4.65639238245785236358642578125</LongitudeDegrees>
            </Position>
            <AltitudeMeters>826.79998779296875</AltitudeMeters>
            <DistanceMeters>179761.94435588</DistanceMeters>
          </Trackpoint>
          <Trackpoint>
            <Time>2019-08-02T15:36:44.000Z</Time>
            <Position>
              <LatitudeDegrees>41.26238658092916011810302734375</LatitudeDegrees>
              <LongitudeDegrees>-4.6569969691336154937744140625</LongitudeDegrees>
            </Position>
            <AltitudeMeters>827.5999755859375</AltitudeMeters>
            <DistanceMeters>179824.29173005</DistanceMeters>
          </Trackpoint>
          <Trackpoint>
            <Time>2019-08-02T15:36:49.000Z</Time>
            <Position>
              <LatitudeDegrees>41.26249940134584903717041015625</LatitudeDegrees>
              <LongitudeDegrees>-4.65721313841640949249267578125</LongitudeDegrees>
            </Position>
            <AltitudeMeters>827.79998779296875</AltitudeMeters>
            <DistanceMeters>179846.30964739</DistanceMeters>
          </Trackpoint>
          <Trackpoint>
            <Time>2019-08-02T15:37:03.000Z</Time>
            <Position>
              <LatitudeDegrees>41.26282009296119213104248046875</LatitudeDegrees>
              <LongitudeDegrees>-4.6577955968677997589111328125</LongitudeDegrees>
            </Position>
            <AltitudeMeters>828.4000244140625</AltitudeMeters>
            <DistanceMeters>179906.71480436</DistanceMeters>
          </Trackpoint>
          <Trackpoint>
            <Time>2019-08-02T15:37:17.000Z</Time>
            <Position>
              <LatitudeDegrees>41.2631066702306270599365234375</LatitudeDegrees>
              <LongitudeDegrees>-4.65831636451184749603271484375</LongitudeDegrees>
            </Position>
            <AltitudeMeters>826.79998779296875</AltitudeMeters>
            <DistanceMeters>179960.71222452</DistanceMeters>
          </Trackpoint>
          <Trackpoint>
            <Time>2019-08-02T15:37:31.000Z</Time>
            <Position>
              <LatitudeDegrees>41.2634278647601604461669921875</LatitudeDegrees>
              <LongitudeDegrees>-4.6589264832437038421630859375</LongitudeDegrees>
            </Position>
            <AltitudeMeters>826</AltitudeMeters>
            <DistanceMeters>180023.03098724</DistanceMeters>
          </Trackpoint>
          <Trackpoint>
            <Time>2019-08-02T15:37:40.000Z</Time>
            <Position>
              <LatitudeDegrees>41.26363716088235378265380859375</LatitudeDegrees>
              <LongitudeDegrees>-4.65930408798158168792724609375</LongitudeDegrees>
            </Position>
            <AltitudeMeters>826</AltitudeMeters>
            <DistanceMeters>180062.2828871</DistanceMeters>
          </Trackpoint>
          <Trackpoint>
            <Time>2019-08-02T15:37:52.000Z</Time>
            <Position>
              <LatitudeDegrees>41.26390890218317508697509765625</LatitudeDegrees>
              <LongitudeDegrees>-4.65980775654315948486328125</LongitudeDegrees>
            </Position>
            <AltitudeMeters>825</AltitudeMeters>
            <DistanceMeters>180114.15250341</DistanceMeters>
          </Trackpoint>
          <Trackpoint>
            <Time>2019-08-02T15:38:06.000Z</Time>
            <Position>
              <LatitudeDegrees>41.26422925852239131927490234375</LatitudeDegrees>
              <LongitudeDegrees>-4.66039457358419895172119140625</LongitudeDegrees>
            </Position>
            <AltitudeMeters>824.4000244140625</AltitudeMeters>
            <DistanceMeters>180174.82942313</DistanceMeters>
          </Trackpoint>
          <Trackpoint>
            <Time>2019-08-02T15:38:15.000Z</Time>
            <Position>
              <LatitudeDegrees>41.2644325196743011474609375</LatitudeDegrees>
              <LongitudeDegrees>-4.66077410615980625152587890625</LongitudeDegrees>
            </Position>
            <AltitudeMeters>824</AltitudeMeters>
            <DistanceMeters>180213.81748397</DistanceMeters>
          </Trackpoint>
          <Trackpoint>
            <Time>2019-08-02T15:38:29.000Z</Time>
            <Position>
              <LatitudeDegrees>41.2647651135921478271484375</LatitudeDegrees>
              <LongitudeDegrees>-4.6613934449851512908935546875</LongitudeDegrees>
            </Position>
            <AltitudeMeters>823</AltitudeMeters>
            <DistanceMeters>180277.4978625</DistanceMeters>
          </Trackpoint>
          <Trackpoint>
            <Time>2019-08-02T15:38:31.000Z</Time>
            <Position>
              <LatitudeDegrees>41.26481674611568450927734375</LatitudeDegrees>
              <LongitudeDegrees>-4.66148153878748416900634765625</LongitudeDegrees>
            </Position>
            <AltitudeMeters>822.79998779296875</AltitudeMeters>
            <DistanceMeters>180286.84339081</DistanceMeters>
          </Trackpoint>
          <Trackpoint>
            <Time>2019-08-02T15:38:45.000Z</Time>
            <Position>
              <LatitudeDegrees>41.26514389179646968841552734375</LatitudeDegrees>
              <LongitudeDegrees>-4.66209433972835540771484375</LongitudeDegrees>
            </Position>
            <AltitudeMeters>822.5999755859375</AltitudeMeters>
            <DistanceMeters>180349.72623755</DistanceMeters>
          </Trackpoint>
          <Trackpoint>
            <Time>2019-08-02T15:39:00.000Z</Time>
            <Position>
              <LatitudeDegrees>41.265486963093280792236328125</LatitudeDegrees>
              <LongitudeDegrees>-4.66271149925887584686279296875</LongitudeDegrees>
            </Position>
            <AltitudeMeters>822.5999755859375</AltitudeMeters>
            <DistanceMeters>180413.94440244</DistanceMeters>
          </Trackpoint>
          <Trackpoint>
            <Time>2019-08-02T15:39:16.000Z</Time>
            <Position>
              <LatitudeDegrees>41.26581251621246337890625</LatitudeDegrees>
              <LongitudeDegrees>-4.66331566683948040008544921875</LongitudeDegrees>
            </Position>
            <AltitudeMeters>823.20001220703125</AltitudeMeters>
            <DistanceMeters>180476.13602939</DistanceMeters>
          </Trackpoint>
          <Trackpoint>
            <Time>2019-08-02T15:39:33.000Z</Time>
            <Position>
              <LatitudeDegrees>41.26614184118807315826416015625</LatitudeDegrees>
              <LongitudeDegrees>-4.6639281325042247772216796875</LongitudeDegrees>
            </Position>
            <AltitudeMeters>822.79998779296875</AltitudeMeters>
            <DistanceMeters>180539.13623272</DistanceMeters>
          </Trackpoint>
          <Trackpoint>
            <Time>2019-08-02T15:39:50.000Z</Time>
            <Position>
              <LatitudeDegrees>41.26646873541176319122314453125</LatitudeDegrees>
              <LongitudeDegrees>-4.6645336411893367767333984375</LongitudeDegrees>
            </Position>
            <AltitudeMeters>823</AltitudeMeters>
            <DistanceMeters>180601.50547314</DistanceMeters>
          </Trackpoint>
          <Trackpoint>
            <Time>2019-08-02T15:40:08.000Z</Time>
            <Position>
              <LatitudeDegrees>41.26679747365415096282958984375</LatitudeDegrees>
              <LongitudeDegrees>-4.66513671912252902984619140625</LongitudeDegrees>
            </Position>
            <AltitudeMeters>823.20001220703125</AltitudeMeters>
            <DistanceMeters>180663.82981431</DistanceMeters>
          </Trackpoint>
          <Trackpoint>
            <Time>2019-08-02T15:40:26.000Z</Time>
            <Position>
              <LatitudeDegrees>41.2671147286891937255859375</LatitudeDegrees>
              <LongitudeDegrees>-4.665725715458393096923828125</LongitudeDegrees>
            </Position>
            <AltitudeMeters>822.79998779296875</AltitudeMeters>
            <DistanceMeters>180724.4509</DistanceMeters>
          </Trackpoint>
          <Trackpoint>
            <Time>2019-08-02T15:40:39.000Z</Time>
            <Position>
              <LatitudeDegrees>41.26733592711389064788818359375</LatitudeDegrees>
              <LongitudeDegrees>-4.6661335788667201995849609375</LongitudeDegrees>
            </Position>
            <AltitudeMeters>823.79998779296875</AltitudeMeters>
            <DistanceMeters>180766.52724403</DistanceMeters>
          </Trackpoint>
          <Trackpoint>
            <Time>2019-08-02T15:40:57.000Z</Time>
            <Position>
              <LatitudeDegrees>41.26765611581504344940185546875</LatitudeDegrees>
              <LongitudeDegrees>-4.6667199768126010894775390625</LongitudeDegrees>
            </Position>
            <AltitudeMeters>824.20001220703125</AltitudeMeters>
            <DistanceMeters>180827.16277706</DistanceMeters>
          </Trackpoint>
          <Trackpoint>
            <Time>2019-08-02T15:41:16.000Z</Time>
            <Position>
              <LatitudeDegrees>41.267967335879802703857421875</LatitudeDegrees>
              <LongitudeDegrees>-4.6673107333481311798095703125</LongitudeDegrees>
            </Position>
            <AltitudeMeters>824.5999755859375</AltitudeMeters>
            <DistanceMeters>180887.51514035</DistanceMeters>
          </Trackpoint>
          <Trackpoint>
            <Time>2019-08-02T15:41:23.000Z</Time>
            <Position>
              <LatitudeDegrees>41.2680761329829692840576171875</LatitudeDegrees>
              <LongitudeDegrees>-4.66751818545162677764892578125</LongitudeDegrees>
            </Position>
            <AltitudeMeters>825</AltitudeMeters>
            <DistanceMeters>180908.67731441</DistanceMeters>
          </Trackpoint>
          <Trackpoint>
            <Time>2019-08-02T15:41:32.000Z</Time>
            <Position>
              <LatitudeDegrees>41.268228180706501007080078125</LatitudeDegrees>
              <LongitudeDegrees>-4.6677952073514461517333984375</LongitudeDegrees>
            </Position>
            <AltitudeMeters>826</AltitudeMeters>
            <DistanceMeters>180937.37349414</DistanceMeters>
          </Trackpoint>
          <Trackpoint>
            <Time>2019-08-02T15:41:47.000Z</Time>
            <Position>
              <LatitudeDegrees>41.2684831582009792327880859375</LatitudeDegrees>
              <LongitudeDegrees>-4.66826249845325946807861328125</LongitudeDegrees>
            </Position>
            <AltitudeMeters>827.20001220703125</AltitudeMeters>
            <DistanceMeters>180985.68100458</DistanceMeters>
          </Trackpoint>
          <Trackpoint>
            <Time>2019-08-02T15:42:06.000Z</Time>
            <Position>
              <LatitudeDegrees>41.2687956355512142181396484375</LatitudeDegrees>
              <LongitudeDegrees>-4.66884814202785491943359375</LongitudeDegrees>
            </Position>
            <AltitudeMeters>828</AltitudeMeters>
            <DistanceMeters>181045.76389449</DistanceMeters>
          </Trackpoint>
          <Trackpoint>
            <Time>2019-08-02T15:42:27.000Z</Time>
            <Position>
              <LatitudeDegrees>41.26911632716655731201171875</LatitudeDegrees>
              <LongitudeDegrees>-4.66945557855069637298583984375</LongitudeDegrees>
            </Position>
            <AltitudeMeters>828</AltitudeMeters>
            <DistanceMeters>181107.86325251</DistanceMeters>
          </Trackpoint>
          <Trackpoint>
            <Time>2019-08-02T15:42:32.000Z</Time>
            <Position>
              <LatitudeDegrees>41.2692036665976047515869140625</LatitudeDegrees>
              <LongitudeDegrees>-4.66961181722581386566162109375</LongitudeDegrees>
            </Position>
            <AltitudeMeters>828.4000244140625</AltitudeMeters>
            <DistanceMeters>181124.15222842</DistanceMeters>
          </Trackpoint>
          <Trackpoint>
            <Time>2019-08-02T15:42:54.000Z</Time>
            <Position>
              <LatitudeDegrees>41.26954204402863979339599609375</LatitudeDegrees>
              <LongitudeDegrees>-4.6702112071216106414794921875</LongitudeDegrees>
            </Position>
            <AltitudeMeters>829</AltitudeMeters>
            <DistanceMeters>181186.86381246</DistanceMeters>
          </Trackpoint>
          <Trackpoint>
            <Time>2019-08-02T15:43:14.000Z</Time>
            <Position>
              <LatitudeDegrees>41.26984664238989353179931640625</LatitudeDegrees>
              <LongitudeDegrees>-4.67075544409453868865966796875</LongitudeDegrees>
            </Position>
            <AltitudeMeters>829.4000244140625</AltitudeMeters>
            <DistanceMeters>181243.62857527</DistanceMeters>
          </Trackpoint>
          <Trackpoint>
            <Time>2019-08-02T15:43:36.000Z</Time>
            <Position>
              <LatitudeDegrees>41.2701773084700107574462890625</LatitudeDegrees>
              <LongitudeDegrees>-4.6713622100651264190673828125</LongitudeDegrees>
            </Position>
            <AltitudeMeters>830.20001220703125</AltitudeMeters>
            <DistanceMeters>181306.32647841</DistanceMeters>
          </Trackpoint>
          <Trackpoint>
            <Time>2019-08-02T15:43:56.000Z</Time>
            <Position>
              <LatitudeDegrees>41.27049498260021209716796875</LatitudeDegrees>
              <LongitudeDegrees>-4.671957828104496002197265625</LongitudeDegrees>
            </Position>
            <AltitudeMeters>829.4000244140625</AltitudeMeters>
            <DistanceMeters>181367.42355691</DistanceMeters>
          </Trackpoint>
          <Trackpoint>
            <Time>2019-08-02T15:44:10.000Z</Time>
            <Position>
              <LatitudeDegrees>41.27071316353976726531982421875</LatitudeDegrees>
              <LongitudeDegrees>-4.67236041091382503509521484375</LongitudeDegrees>
            </Position>
            <AltitudeMeters>830.4000244140625</AltitudeMeters>
            <DistanceMeters>181408.94381574</DistanceMeters>
          </Trackpoint>
          <Trackpoint>
            <Time>2019-08-02T15:44:33.000Z</Time>
            <Position>
              <LatitudeDegrees>41.27102899365127086639404296875</LatitudeDegrees>
              <LongitudeDegrees>-4.67294789850711822509765625</LongitudeDegrees>
            </Position>
            <AltitudeMeters>830.5999755859375</AltitudeMeters>
            <DistanceMeters>181469.36758158</DistanceMeters>
          </Trackpoint>
          <Trackpoint>
            <Time>2019-08-02T15:45:01.000Z</Time>
            <Position>
              <LatitudeDegrees>41.27135270275175571441650390625</LatitudeDegrees>
              <LongitudeDegrees>-4.67354712076485157012939453125</LongitudeDegrees>
            </Position>
            <AltitudeMeters>830.20001220703125</AltitudeMeters>
            <DistanceMeters>181531.09984916</DistanceMeters>
          </Trackpoint>
          <Trackpoint>
            <Time>2019-08-02T15:45:15.000Z</Time>
            <Position>
              <LatitudeDegrees>41.27151531167328357696533203125</LatitudeDegrees>
              <LongitudeDegrees>-4.6738097257912158966064453125</LongitudeDegrees>
            </Position>
            <AltitudeMeters>829.79998779296875</AltitudeMeters>
            <DistanceMeters>181559.56316588</DistanceMeters>
          </Trackpoint>
          <Trackpoint>
            <Time>2019-08-02T15:46:14.000Z</Time>
            <Position>
              <LatitudeDegrees>41.27157063223421573638916015625</LatitudeDegrees>
              <LongitudeDegrees>-4.67387334443628787994384765625</LongitudeDegrees>
            </Position>
            <AltitudeMeters>835.20001220703125</AltitudeMeters>
            <DistanceMeters>181567.70113741</DistanceMeters>
          </Trackpoint>
          <Trackpoint>
            <Time>2019-08-02T15:46:34.000Z</Time>
            <Position>
              <LatitudeDegrees>41.27203482203185558319091796875</LatitudeDegrees>
              <LongitudeDegrees>-4.6742479316890239715576171875</LongitudeDegrees>
            </Position>
            <AltitudeMeters>834.5999755859375</AltitudeMeters>
            <DistanceMeters>181628.1264724</DistanceMeters>
          </Trackpoint>
          <Trackpoint>
            <Time>2019-08-02T15:46:41.000Z</Time>
            <Position>
              <LatitudeDegrees>41.27217429690062999725341796875</LatitudeDegrees>
              <LongitudeDegrees>-4.67437810264527797698974609375</LongitudeDegrees>
            </Position>
            <AltitudeMeters>834.20001220703125</AltitudeMeters>
            <DistanceMeters>181647.08876694</DistanceMeters>
          </Trackpoint>
          <Trackpoint>
            <Time>2019-08-02T15:46:51.000Z</Time>
            <Position>
              <LatitudeDegrees>41.27235685475170612335205078125</LatitudeDegrees>
              <LongitudeDegrees>-4.6745352633297443389892578125</LongitudeDegrees>
            </Position>
            <AltitudeMeters>833.20001220703125</AltitudeMeters>
            <DistanceMeters>181671.29018876</DistanceMeters>
          </Trackpoint>
          <Trackpoint>
            <Time>2019-08-02T15:46:58.000Z</Time>
            <Position>
              <LatitudeDegrees>41.27248140983283519744873046875</LatitudeDegrees>
              <LongitudeDegrees>-4.6746334992349147796630859375</LongitudeDegrees>
            </Position>
            <AltitudeMeters>832</AltitudeMeters>
            <DistanceMeters>181687.40555405</DistanceMeters>
          </Trackpoint>
          <Trackpoint>
            <Time>2019-08-02T15:47:17.000Z</Time>
            <Position>
              <LatitudeDegrees>41.27279958687722682952880859375</LatitudeDegrees>
              <LongitudeDegrees>-4.674874730408191680908203125</LongitudeDegrees>
            </Position>
            <AltitudeMeters>831</AltitudeMeters>
            <DistanceMeters>181728.16514721</DistanceMeters>
          </Trackpoint>
          <Trackpoint>
            <Time>2019-08-02T15:47:42.000Z</Time>
            <Position>
              <LatitudeDegrees>41.27328171394765377044677734375</LatitudeDegrees>
              <LongitudeDegrees>-4.67521763406693935394287109375</LongitudeDegrees>
            </Position>
            <AltitudeMeters>829.79998779296875</AltitudeMeters>
            <DistanceMeters>181789.01237823</DistanceMeters>
          </Trackpoint>
          <Trackpoint>
            <Time>2019-08-02T15:47:50.000Z</Time>
            <Position>
              <LatitudeDegrees>41.27345320768654346466064453125</LatitudeDegrees>
              <LongitudeDegrees>-4.6753617189824581146240234375</LongitudeDegrees>
            </Position>
            <AltitudeMeters>829.5999755859375</AltitudeMeters>
            <DistanceMeters>181811.58677377</DistanceMeters>
          </Trackpoint>
          <Trackpoint>
            <Time>2019-08-02T15:48:06.000Z</Time>
            <Position>
              <LatitudeDegrees>41.27391748130321502685546875</LatitudeDegrees>
              <LongitudeDegrees>-4.675735719501972198486328125</LongitudeDegrees>
            </Position>
            <AltitudeMeters>830</AltitudeMeters>
            <DistanceMeters>181871.99409833</DistanceMeters>
          </Trackpoint>
          <Trackpoint>
            <Time>2019-08-02T15:48:24.000Z</Time>
            <Position>
              <LatitudeDegrees>41.2743877060711383819580078125</LatitudeDegrees>
              <LongitudeDegrees>-4.67612019740045070648193359375</LongitudeDegrees>
            </Position>
            <AltitudeMeters>829.4000244140625</AltitudeMeters>
            <DistanceMeters>181933.42326506</DistanceMeters>
          </Trackpoint>
          <Trackpoint>
            <Time>2019-08-02T15:48:43.000Z</Time>
            <Position>
              <LatitudeDegrees>41.27486438490450382232666015625</LatitudeDegrees>
              <LongitudeDegrees>-4.6765184216201305389404296875</LongitudeDegrees>
            </Position>
            <AltitudeMeters>829.4000244140625</AltitudeMeters>
            <DistanceMeters>181996.06915353</DistanceMeters>
          </Trackpoint>
          <Trackpoint>
            <Time>2019-08-02T15:49:00.000Z</Time>
            <Position>
              <LatitudeDegrees>41.275382973253726959228515625</LatitudeDegrees>
              <LongitudeDegrees>-4.67690818011760711669921875</LongitudeDegrees>
            </Position>
            <AltitudeMeters>829.20001220703125</AltitudeMeters>
            <DistanceMeters>182062.36048692</DistanceMeters>
          </Trackpoint>
          <Trackpoint>
            <Time>2019-08-02T15:49:17.000Z</Time>
            <Position>
              <LatitudeDegrees>41.275860406458377838134765625</LatitudeDegrees>
              <LongitudeDegrees>-4.6772523410618305206298828125</LongitudeDegrees>
            </Position>
            <AltitudeMeters>828.5999755859375</AltitudeMeters>
            <DistanceMeters>182122.79695431</DistanceMeters>
          </Trackpoint>
          <Trackpoint>
            <Time>2019-08-02T15:49:25.000Z</Time>
            <Position>
              <LatitudeDegrees>41.27609082497656345367431640625</LatitudeDegrees>
              <LongitudeDegrees>-4.677414111793041229248046875</LongitudeDegrees>
            </Position>
            <AltitudeMeters>828.4000244140625</AltitudeMeters>
            <DistanceMeters>182151.79411914</DistanceMeters>
          </Trackpoint>
          <Trackpoint>
            <Time>2019-08-02T15:49:42.000Z</Time>
            <Position>
              <LatitudeDegrees>41.27659709192812442779541015625</LatitudeDegrees>
              <LongitudeDegrees>-4.67775248922407627105712890625</LongitudeDegrees>
            </Position>
            <AltitudeMeters>827.5999755859375</AltitudeMeters>
            <DistanceMeters>182214.85205965</DistanceMeters>
          </Trackpoint>
          <Trackpoint>
            <Time>2019-08-02T15:49:45.000Z</Time>
            <Position>
              <LatitudeDegrees>41.27668091095983982086181640625</LatitudeDegrees>
              <LongitudeDegrees>-4.677796661853790283203125</LongitudeDegrees>
            </Position>
            <AltitudeMeters>827.4000244140625</AltitudeMeters>
            <DistanceMeters>182224.88626875</DistanceMeters>
          </Trackpoint>
          <Trackpoint>
            <Time>2019-08-02T15:50:03.000Z</Time>
            <Position>
              <LatitudeDegrees>41.277184076607227325439453125</LatitudeDegrees>
              <LongitudeDegrees>-4.6781428344547748565673828125</LongitudeDegrees>
            </Position>
            <AltitudeMeters>828</AltitudeMeters>
            <DistanceMeters>182287.93246554</DistanceMeters>
          </Trackpoint>
          <Trackpoint>
            <Time>2019-08-02T15:50:05.000Z</Time>
            <Position>
              <LatitudeDegrees>41.27723394893109798431396484375</LatitudeDegrees>
              <LongitudeDegrees>-4.67818566597998142242431640625</LongitudeDegrees>
            </Position>
            <AltitudeMeters>828.4000244140625</AltitudeMeters>
            <DistanceMeters>182294.53938536</DistanceMeters>
          </Trackpoint>
          <Trackpoint>
            <Time>2019-08-02T15:50:09.000Z</Time>
            <Position>
              <LatitudeDegrees>41.277332939207553863525390625</LatitudeDegrees>
              <LongitudeDegrees>-4.678289853036403656005859375</LongitudeDegrees>
            </Position>
            <AltitudeMeters>829.4000244140625</AltitudeMeters>
            <DistanceMeters>182308.5872781</DistanceMeters>
          </Trackpoint>
          <Trackpoint>
            <Time>2019-08-02T15:50:25.000Z</Time>
            <Position>
              <LatitudeDegrees>41.27782487310469150543212890625</LatitudeDegrees>
              <LongitudeDegrees>-4.67857785522937774658203125</LongitudeDegrees>
            </Position>
            <AltitudeMeters>829.79998779296875</AltitudeMeters>
            <DistanceMeters>182368.40574567</DistanceMeters>
          </Trackpoint>
          <Trackpoint>
            <Time>2019-08-02T15:50:38.000Z</Time>
            <Position>
              <LatitudeDegrees>41.27817121334373950958251953125</LatitudeDegrees>
              <LongitudeDegrees>-4.67878279276192188262939453125</LongitudeDegrees>
            </Position>
            <AltitudeMeters>830.5999755859375</AltitudeMeters>
            <DistanceMeters>182410.59375424</DistanceMeters>
          </Trackpoint>
          <Trackpoint>
            <Time>2019-08-02T15:50:45.000Z</Time>
            <Position>
              <LatitudeDegrees>41.278335750102996826171875</LatitudeDegrees>
              <LongitudeDegrees>-4.67886577360332012176513671875</LongitudeDegrees>
            </Position>
            <AltitudeMeters>831.20001220703125</AltitudeMeters>
            <DistanceMeters>182430.17825058</DistanceMeters>
          </Trackpoint>
          <Trackpoint>
            <Time>2019-08-02T15:51:06.000Z</Time>
            <Position>
              <LatitudeDegrees>41.278833635151386260986328125</LatitudeDegrees>
              <LongitudeDegrees>-4.67918043024837970733642578125</LongitudeDegrees>
            </Position>
            <AltitudeMeters>830.5999755859375</AltitudeMeters>
            <DistanceMeters>182491.52644053</DistanceMeters>
          </Trackpoint>
          <Trackpoint>
            <Time>2019-08-02T15:51:19.000Z</Time>
            <Position>
              <LatitudeDegrees>41.27925918437540531158447265625</LatitudeDegrees>
              <LongitudeDegrees>-4.67946725897490978240966796875</LongitudeDegrees>
            </Position>
            <AltitudeMeters>831.4000244140625</AltitudeMeters>
            <DistanceMeters>182544.62061351</DistanceMeters>
          </Trackpoint>
          <Trackpoint>
            <Time>2019-08-02T15:51:31.000Z</Time>
            <Position>
              <LatitudeDegrees>41.27971373498439788818359375</LatitudeDegrees>
              <LongitudeDegrees>-4.679744951426982879638671875</LongitudeDegrees>
            </Position>
            <AltitudeMeters>832.4000244140625</AltitudeMeters>
            <DistanceMeters>182600.29013071</DistanceMeters>
          </Trackpoint>
          <Trackpoint>
            <Time>2019-08-02T15:51:43.000Z</Time>
            <Position>
              <LatitudeDegrees>41.28022980876266956329345703125</LatitudeDegrees>
              <LongitudeDegrees>-4.6800993382930755615234375</LongitudeDegrees>
            </Position>
            <AltitudeMeters>833.4000244140625</AltitudeMeters>
            <DistanceMeters>182664.92757844</DistanceMeters>
          </Trackpoint>
          <Trackpoint>
            <Time>2019-08-02T15:51:44.000Z</Time>
            <Position>
              <LatitudeDegrees>41.28027372993528842926025390625</LatitudeDegrees>
              <LongitudeDegrees>-4.68012817203998565673828125</LongitudeDegrees>
            </Position>
            <AltitudeMeters>833.5999755859375</AltitudeMeters>
            <DistanceMeters>182670.37817029</DistanceMeters>
          </Trackpoint>
          <Trackpoint>
            <Time>2019-08-02T15:51:49.000Z</Time>
            <Position>
              <LatitudeDegrees>41.28047816455364227294921875</LatitudeDegrees>
              <LongitudeDegrees>-4.68025968410074710845947265625</LongitudeDegrees>
            </Position>
            <AltitudeMeters>834.5999755859375</AltitudeMeters>
            <DistanceMeters>182695.65170363</DistanceMeters>
          </Trackpoint>
          <Trackpoint>
            <Time>2019-08-02T15:51:52.000Z</Time>
            <Position>
              <LatitudeDegrees>41.2805919907987117767333984375</LatitudeDegrees>
              <LongitudeDegrees>-4.68033067882061004638671875</LongitudeDegrees>
            </Position>
            <AltitudeMeters>835.4000244140625</AltitudeMeters>
            <DistanceMeters>182709.64356045</DistanceMeters>
          </Trackpoint>
          <Trackpoint>
            <Time>2019-08-02T15:51:53.000Z</Time>
            <Position>
              <LatitudeDegrees>41.280629374086856842041015625</LatitudeDegrees>
              <LongitudeDegrees>-4.6803536452353000640869140625</LongitudeDegrees>
            </Position>
            <AltitudeMeters>835.5999755859375</AltitudeMeters>
            <DistanceMeters>182714.22656795</DistanceMeters>
          </Trackpoint>
          <Trackpoint>
            <Time>2019-08-02T15:52:05.000Z</Time>
            <Position>
              <LatitudeDegrees>41.2811401672661304473876953125</LatitudeDegrees>
              <LongitudeDegrees>-4.68068598769605159759521484375</LongitudeDegrees>
            </Position>
            <AltitudeMeters>836.5999755859375</AltitudeMeters>
            <DistanceMeters>182777.51079255</DistanceMeters>
          </Trackpoint>
          <Trackpoint>
            <Time>2019-08-02T15:52:18.000Z</Time>
            <Position>
              <LatitudeDegrees>41.28164048306643962860107421875</LatitudeDegrees>
              <LongitudeDegrees>-4.68103014864027500152587890625</LongitudeDegrees>
            </Position>
            <AltitudeMeters>836.20001220703125</AltitudeMeters>
            <DistanceMeters>182840.19717262</DistanceMeters>
          </Trackpoint>
          <Trackpoint>
            <Time>2019-08-02T15:52:30.000Z</Time>
            <Position>
              <LatitudeDegrees>41.2820304930210113525390625</LatitudeDegrees>
              <LongitudeDegrees>-4.68129694461822509765625</LongitudeDegrees>
            </Position>
            <AltitudeMeters>834.79998779296875</AltitudeMeters>
            <DistanceMeters>182889.00576456</DistanceMeters>
          </Trackpoint>
          <Trackpoint>
            <Time>2019-08-02T15:52:45.000Z</Time>
            <Position>
              <LatitudeDegrees>41.2824125401675701141357421875</LatitudeDegrees>
              <LongitudeDegrees>-4.681592322885990142822265625</LongitudeDegrees>
            </Position>
            <AltitudeMeters>833.79998779296875</AltitudeMeters>
            <DistanceMeters>182938.18445338</DistanceMeters>
          </Trackpoint>
          <Trackpoint>
            <Time>2019-08-02T15:52:56.000Z</Time>
            <Position>
              <LatitudeDegrees>41.28287966363131999969482421875</LatitudeDegrees>
              <LongitudeDegrees>-4.68187370337545871734619140625</LongitudeDegrees>
            </Position>
            <AltitudeMeters>832.79998779296875</AltitudeMeters>
            <DistanceMeters>182995.25470064</DistanceMeters>
          </Trackpoint>
          <Trackpoint>
            <Time>2019-08-02T15:53:08.000Z</Time>
            <Position>
              <LatitudeDegrees>41.28339699469506740570068359375</LatitudeDegrees>
              <LongitudeDegrees>-4.6822566725313663482666015625</LongitudeDegrees>
            </Position>
            <AltitudeMeters>832.5999755859375</AltitudeMeters>
            <DistanceMeters>183061.14433588</DistanceMeters>
          </Trackpoint>
          <Trackpoint>
            <Time>2019-08-02T15:53:18.000Z</Time>
            <Position>
              <LatitudeDegrees>41.28392857499420642852783203125</LatitudeDegrees>
              <LongitudeDegrees>-4.6826160885393619537353515625</LongitudeDegrees>
            </Position>
            <AltitudeMeters>833.20001220703125</AltitudeMeters>
            <DistanceMeters>183127.50891412</DistanceMeters>
          </Trackpoint>
          <Trackpoint>
            <Time>2019-08-02T15:53:27.000Z</Time>
            <Position>
              <LatitudeDegrees>41.2844469957053661346435546875</LatitudeDegrees>
              <LongitudeDegrees>-4.68298070132732391357421875</LongitudeDegrees>
            </Position>
            <AltitudeMeters>833</AltitudeMeters>
            <DistanceMeters>183192.77296822</DistanceMeters>
          </Trackpoint>
          <Trackpoint>
            <Time>2019-08-02T15:53:36.000Z</Time>
            <Position>
              <LatitudeDegrees>41.284979917109012603759765625</LatitudeDegrees>
              <LongitudeDegrees>-4.6833587251603603363037109375</LongitudeDegrees>
            </Position>
            <AltitudeMeters>832.5999755859375</AltitudeMeters>
            <DistanceMeters>183259.98836665</DistanceMeters>
          </Trackpoint>
          <Trackpoint>
            <Time>2019-08-02T15:53:45.000Z</Time>
            <Position>
              <LatitudeDegrees>41.2855068035423755645751953125</LatitudeDegrees>
              <LongitudeDegrees>-4.68373239040374755859375</LongitudeDegrees>
            </Position>
            <AltitudeMeters>832.5999755859375</AltitudeMeters>
            <DistanceMeters>183326.4394276</DistanceMeters>
          </Trackpoint>
          <Trackpoint>
            <Time>2019-08-02T15:53:50.000Z</Time>
            <Position>
              <LatitudeDegrees>41.285791955888271331787109375</LatitudeDegrees>
              <LongitudeDegrees>-4.6839176304638385772705078125</LongitudeDegrees>
            </Position>
            <AltitudeMeters>832.4000244140625</AltitudeMeters>
            <DistanceMeters>183361.75678069</DistanceMeters>
          </Trackpoint>
          <Trackpoint>
            <Time>2019-08-02T15:54:00.000Z</Time>
            <Position>
              <LatitudeDegrees>41.28631188534200191497802734375</LatitudeDegrees>
              <LongitudeDegrees>-4.68428165651857852935791015625</LongitudeDegrees>
            </Position>
            <AltitudeMeters>832.5999755859375</AltitudeMeters>
            <DistanceMeters>183427.14607076</DistanceMeters>
          </Trackpoint>
          <Trackpoint>
            <Time>2019-08-02T15:54:02.000Z</Time>
            <Position>
              <LatitudeDegrees>41.28635429777204990386962890625</LatitudeDegrees>
              <LongitudeDegrees>-4.684303700923919677734375</LongitudeDegrees>
            </Position>
            <AltitudeMeters>832.5999755859375</AltitudeMeters>
            <DistanceMeters>183432.21376624</DistanceMeters>
          </Trackpoint>
          <Trackpoint>
            <Time>2019-08-02T15:54:06.000Z</Time>
            <Position>
              <LatitudeDegrees>41.2864298187196254730224609375</LatitudeDegrees>
              <LongitudeDegrees>-4.68433178029954433441162109375</LongitudeDegrees>
            </Position>
            <AltitudeMeters>832.20001220703125</AltitudeMeters>
            <DistanceMeters>183440.94123407</DistanceMeters>
          </Trackpoint>
          <Trackpoint>
            <Time>2019-08-02T15:54:16.000Z</Time>
            <Position>
              <LatitudeDegrees>41.28644683398306369781494140625</LatitudeDegrees>
              <LongitudeDegrees>-4.684358350932598114013671875</LongitudeDegrees>
            </Position>
            <AltitudeMeters>829.79998779296875</AltitudeMeters>
            <DistanceMeters>183443.86089024</DistanceMeters>
          </Trackpoint>
          <Trackpoint>
            <Time>2019-08-02T15:54:20.000Z</Time>
            <Position>
              <LatitudeDegrees>41.28650869242846965789794921875</LatitudeDegrees>
              <LongitudeDegrees>-4.6844366379082202911376953125</LongitudeDegrees>
            </Position>
            <AltitudeMeters>828.5999755859375</AltitudeMeters>
            <DistanceMeters>183453.36166096</DistanceMeters>
          </Trackpoint>
          <Trackpoint>
            <Time>2019-08-02T15:54:25.000Z</Time>
            <Position>
              <LatitudeDegrees>41.28663073293864727020263671875</LatitudeDegrees>
              <LongitudeDegrees>-4.6845328621566295623779296875</LongitudeDegrees>
            </Position>
            <AltitudeMeters>827.5999755859375</AltitudeMeters>
            <DistanceMeters>183469.14982837</DistanceMeters>
          </Trackpoint>
          <Trackpoint>
            <Time>2019-08-02T15:54:40.000Z</Time>
            <Position>
              <LatitudeDegrees>41.287025772035121917724609375</LatitudeDegrees>
              <LongitudeDegrees>-4.68478004448115825653076171875</LongitudeDegrees>
            </Position>
            <AltitudeMeters>826.79998779296875</AltitudeMeters>
            <DistanceMeters>183517.73599403</DistanceMeters>
          </Trackpoint>
          <Trackpoint>
            <Time>2019-08-02T15:54:45.000Z</Time>
            <Position>
              <LatitudeDegrees>41.2871821783483028411865234375</LatitudeDegrees>
              <LongitudeDegrees>-4.68486838974058628082275390625</LongitudeDegrees>
            </Position>
            <AltitudeMeters>825.5999755859375</AltitudeMeters>
            <DistanceMeters>183536.64750395</DistanceMeters>
          </Trackpoint>
          <Trackpoint>
            <Time>2019-08-02T15:54:55.000Z</Time>
            <Position>
              <LatitudeDegrees>41.287483759224414825439453125</LatitudeDegrees>
              <LongitudeDegrees>-4.6851125545799732208251953125</LongitudeDegrees>
            </Position>
            <AltitudeMeters>824.5999755859375</AltitudeMeters>
            <DistanceMeters>183575.93757431</DistanceMeters>
          </Trackpoint>
          <Trackpoint>
            <Time>2019-08-02T15:55:05.000Z</Time>
            <Position>
              <LatitudeDegrees>41.28766925074160099029541015625</LatitudeDegrees>
              <LongitudeDegrees>-4.68540214933454990386962890625</LongitudeDegrees>
            </Position>
            <AltitudeMeters>824.4000244140625</AltitudeMeters>
            <DistanceMeters>183607.76272889</DistanceMeters>
          </Trackpoint>
          <Trackpoint>
            <Time>2019-08-02T15:55:14.000Z</Time>
            <Position>
              <LatitudeDegrees>41.28740387968719005584716796875</LatitudeDegrees>
              <LongitudeDegrees>-4.68550843186676502227783203125</LongitudeDegrees>
            </Position>
            <AltitudeMeters>825.79998779296875</AltitudeMeters>
            <DistanceMeters>183638.60764507</DistanceMeters>
          </Trackpoint>
          <Trackpoint>
            <Time>2019-08-02T15:55:18.000Z</Time>
            <Position>
              <LatitudeDegrees>41.28724646754562854766845703125</LatitudeDegrees>
              <LongitudeDegrees>-4.6855866350233554840087890625</LongitudeDegrees>
            </Position>
            <AltitudeMeters>826.79998779296875</AltitudeMeters>
            <DistanceMeters>183657.30884451</DistanceMeters>
          </Trackpoint>
          <Trackpoint>
            <Time>2019-08-02T15:55:23.000Z</Time>
            <Position>
              <LatitudeDegrees>41.28712057135999202728271484375</LatitudeDegrees>
              <LongitudeDegrees>-4.68568529002368450164794921875</LongitudeDegrees>
            </Position>
            <AltitudeMeters>828.4000244140625</AltitudeMeters>
            <DistanceMeters>183673.56980077</DistanceMeters>
          </Trackpoint>
          <Trackpoint>
            <Time>2019-08-02T15:55:28.000Z</Time>
            <Position>
              <LatitudeDegrees>41.28702837042510509490966796875</LatitudeDegrees>
              <LongitudeDegrees>-4.68581520952284336090087890625</LongitudeDegrees>
            </Position>
            <AltitudeMeters>829.5999755859375</AltitudeMeters>
            <DistanceMeters>183688.51530079</DistanceMeters>
          </Trackpoint>
          <Trackpoint>
            <Time>2019-08-02T15:55:38.000Z</Time>
            <Position>
              <LatitudeDegrees>41.28683944232761859893798828125</LatitudeDegrees>
              <LongitudeDegrees>-4.68608845956623554229736328125</LongitudeDegrees>
            </Position>
            <AltitudeMeters>830.5999755859375</AltitudeMeters>
            <DistanceMeters>183719.57086848</DistanceMeters>
          </Trackpoint>
          <Trackpoint>
            <Time>2019-08-02T15:55:46.000Z</Time>
            <Position>
              <LatitudeDegrees>41.28671471960842609405517578125</LatitudeDegrees>
              <LongitudeDegrees>-4.686213098466396331787109375</LongitudeDegrees>
            </Position>
            <AltitudeMeters>830.79998779296875</AltitudeMeters>
            <DistanceMeters>183736.93087341</DistanceMeters>
          </Trackpoint>
          <Trackpoint>
            <Time>2019-08-02T15:55:52.000Z</Time>
            <Position>
              <LatitudeDegrees>41.28678965382277965545654296875</LatitudeDegrees>
              <LongitudeDegrees>-4.68626649118959903717041015625</LongitudeDegrees>
            </Position>
            <AltitudeMeters>829.79998779296875</AltitudeMeters>
            <DistanceMeters>183746.3916407</DistanceMeters>
          </Trackpoint>
        </Track>
      </Lap>
    </Activity>
  </Activities>
</TrainingCenterDatabase>
